<?xml version='1.0' encoding='UTF-8'?><gpx version="1.1" creator="JPX - https://github.com/jenetics/jpx" xmlns="http://www.topografix.com/GPX/1/1"><trk><trkseg><trkpt lat="42.353745" lon="13.402225"><ele>734.8333333333334</ele><time>2026-05-03T07:02:22.759Z</time></trkpt><trkpt lat="42.3537583" lon="13.402135"><ele>734.6666666666666</ele><time>2026-05-03T07:02:27.759Z</time></trkpt><trkpt lat="42.3537483" lon="13.4020333"><ele>734.5</ele><time>2026-05-03T07:02:31.759Z</time></trkpt><trkpt lat="42.3537667" lon="13.4019167"><ele>734.3333333333333</ele><time>2026-05-03T07:02:34.759Z</time></trkpt><trkpt lat="42.3537933" lon="13.401805"><ele>734.1666666666666</ele><time>2026-05-03T07:02:37.758Z</time></trkpt><trkpt lat="42.3538433" lon="13.4017167"><ele>734.0</ele><time>2026-05-03T07:02:39.758Z</time></trkpt><trkpt lat="42.35392" lon="13.4016783"><ele>733.0</ele><time>2026-05-03T07:02:41.758Z</time></trkpt><trkpt lat="42.3540017" lon="13.4017067"><ele>732.0</ele><time>2026-05-03T07:02:43.759Z</time></trkpt><trkpt lat="42.3540783" lon="13.4018"><ele>731.0</ele><time>2026-05-03T07:02:45.759Z</time></trkpt><trkpt lat="42.35414" lon="13.401865"><ele>730.0</ele><time>2026-05-03T07:02:46.758Z</time></trkpt><trkpt lat="42.3542117" lon="13.4019433"><ele>729.0</ele><time>2026-05-03T07:02:47.758Z</time></trkpt><trkpt lat="42.3542767" lon="13.40202"><ele>728.0</ele><time>2026-05-03T07:02:48.759Z</time></trkpt><trkpt lat="42.354345" lon="13.4020967"><ele>728.5</ele><time>2026-05-03T07:02:49.758Z</time></trkpt><trkpt lat="42.3544083" lon="13.402175"><ele>729.0</ele><time>2026-05-03T07:02:50.758Z</time></trkpt><trkpt lat="42.3544633" lon="13.4022483"><ele>729.5</ele><time>2026-05-03T07:02:51.759Z</time></trkpt><trkpt lat="42.3545133" lon="13.40232"><ele>730.0</ele><time>2026-05-03T07:02:52.759Z</time></trkpt><trkpt lat="42.3545667" lon="13.4023883"><ele>730.5</ele><time>2026-05-03T07:02:53.758Z</time></trkpt><trkpt lat="42.3546233" lon="13.4024567"><ele>731.0</ele><time>2026-05-03T07:02:54.759Z</time></trkpt><trkpt lat="42.3546783" lon="13.4025267"><ele>728.8571428571429</ele><time>2026-05-03T07:02:55.758Z</time></trkpt><trkpt lat="42.3547333" lon="13.4026"><ele>726.7142857142857</ele><time>2026-05-03T07:02:56.759Z</time></trkpt><trkpt lat="42.3547883" lon="13.402675"><ele>724.5714285714287</ele><time>2026-05-03T07:02:57.758Z</time></trkpt><trkpt lat="42.35484" lon="13.4027433"><ele>722.4285714285714</ele><time>2026-05-03T07:02:58.759Z</time></trkpt><trkpt lat="42.354895" lon="13.4028033"><ele>720.2857142857143</ele><time>2026-05-03T07:02:59.758Z</time></trkpt><trkpt lat="42.35495" lon="13.4028633"><ele>718.1428571428572</ele><time>2026-05-03T07:03:00.759Z</time></trkpt><trkpt lat="42.3550083" lon="13.402925"><ele>716.0</ele><time>2026-05-03T07:03:01.759Z</time></trkpt><trkpt lat="42.3550617" lon="13.40299"><ele>717.1666666666666</ele><time>2026-05-03T07:03:02.758Z</time></trkpt><trkpt lat="42.3551067" lon="13.4030667"><ele>718.3333333333333</ele><time>2026-05-03T07:03:03.759Z</time></trkpt><trkpt lat="42.35515" lon="13.4031533"><ele>719.5</ele><time>2026-05-03T07:03:04.759Z</time></trkpt><trkpt lat="42.3551967" lon="13.4032467"><ele>720.6666666666666</ele><time>2026-05-03T07:03:05.759Z</time></trkpt><trkpt lat="42.3552317" lon="13.4033567"><ele>721.8333333333334</ele><time>2026-05-03T07:03:06.758Z</time></trkpt><trkpt lat="42.3552717" lon="13.40348"><ele>723.0</ele><time>2026-05-03T07:03:07.757Z</time></trkpt><trkpt lat="42.3553133" lon="13.403615"><ele>723.0</ele><time>2026-05-03T07:03:08.757Z</time></trkpt><trkpt lat="42.3553483" lon="13.4037583"><ele>723.0</ele><time>2026-05-03T07:03:09.758Z</time></trkpt><trkpt lat="42.3553867" lon="13.4039133"><ele>723.0</ele><time>2026-05-03T07:03:10.758Z</time></trkpt><trkpt lat="42.3554183" lon="13.4040583"><ele>723.0</ele><time>2026-05-03T07:03:11.758Z</time></trkpt><trkpt lat="42.355445" lon="13.4041967"><ele>724.4</ele><time>2026-05-03T07:03:12.758Z</time></trkpt><trkpt lat="42.35548" lon="13.404335"><ele>725.8</ele><time>2026-05-03T07:03:13.758Z</time></trkpt><trkpt lat="42.3555133" lon="13.4044583"><ele>727.2</ele><time>2026-05-03T07:03:14.758Z</time></trkpt><trkpt lat="42.35554" lon="13.4045867"><ele>728.6</ele><time>2026-05-03T07:03:15.758Z</time></trkpt><trkpt lat="42.35556" lon="13.404705"><ele>730.0</ele><time>2026-05-03T07:03:16.758Z</time></trkpt><trkpt lat="42.35558" lon="13.4047983"><ele>730.2</ele><time>2026-05-03T07:03:17.758Z</time></trkpt><trkpt lat="42.355585" lon="13.4049183"><ele>730.4</ele><time>2026-05-03T07:03:19.758Z</time></trkpt><trkpt lat="42.3555533" lon="13.4050783"><ele>730.5999999999999</ele><time>2026-05-03T07:04:05.758Z</time></trkpt><trkpt lat="42.355475" lon="13.4051383"><ele>730.8</ele><time>2026-05-03T07:07:32.757Z</time></trkpt><trkpt lat="42.355525" lon="13.4052183"><ele>731.0</ele><time>2026-05-03T07:07:39.758Z</time></trkpt><trkpt lat="42.3556" lon="13.4053133"><ele>727.1999999999999</ele><time>2026-05-03T07:07:41.758Z</time></trkpt><trkpt lat="42.3556633" lon="13.40545"><ele>723.4</ele><time>2026-05-03T07:07:43.758Z</time></trkpt><trkpt lat="42.3556967" lon="13.4055983"><ele>719.6</ele><time>2026-05-03T07:07:45.758Z</time></trkpt><trkpt lat="42.35571" lon="13.4057533"><ele>715.8</ele><time>2026-05-03T07:07:47.758Z</time></trkpt><trkpt lat="42.3557" lon="13.4058767"><ele>712.0</ele><time>2026-05-03T07:07:49.758Z</time></trkpt><trkpt lat="42.3557267" lon="13.406035"><ele>712.0</ele><time>2026-05-03T07:07:51.758Z</time></trkpt><trkpt lat="42.3557517" lon="13.4061417"><ele>712.0</ele><time>2026-05-03T07:07:52.757Z</time></trkpt><trkpt lat="42.3557717" lon="13.4062483"><ele>712.0</ele><time>2026-05-03T07:07:53.758Z</time></trkpt><trkpt lat="42.355775" lon="13.4063583"><ele>712.0</ele><time>2026-05-03T07:07:54.757Z</time></trkpt><trkpt lat="42.3557483" lon="13.40647"><ele>712.0</ele><time>2026-05-03T07:07:55.758Z</time></trkpt><trkpt lat="42.3557" lon="13.4065767"><ele>712.0</ele><time>2026-05-03T07:07:56.758Z</time></trkpt><trkpt lat="42.3556383" lon="13.4066633"><ele>712.0</ele><time>2026-05-03T07:07:57.758Z</time></trkpt><trkpt lat="42.355575" lon="13.4067567"><ele>712.0</ele><time>2026-05-03T07:07:58.758Z</time></trkpt><trkpt lat="42.3554983" lon="13.4068283"><ele>712.0</ele><time>2026-05-03T07:07:59.758Z</time></trkpt><trkpt lat="42.35541" lon="13.4068967"><ele>712.0</ele><time>2026-05-03T07:08:00.757Z</time></trkpt><trkpt lat="42.355325" lon="13.4069817"><ele>712.0</ele><time>2026-05-03T07:08:01.756Z</time></trkpt><trkpt lat="42.3552467" lon="13.4070917"><ele>712.0</ele><time>2026-05-03T07:08:02.756Z</time></trkpt><trkpt lat="42.3551733" lon="13.4072233"><ele>712.0</ele><time>2026-05-03T07:08:03.757Z</time></trkpt><trkpt lat="42.3550967" lon="13.407375"><ele>712.0</ele><time>2026-05-03T07:08:04.757Z</time></trkpt><trkpt lat="42.3550167" lon="13.4075333"><ele>712.0</ele><time>2026-05-03T07:08:05.756Z</time></trkpt><trkpt lat="42.3549283" lon="13.4077033"><ele>712.0</ele><time>2026-05-03T07:08:06.757Z</time></trkpt><trkpt lat="42.35484" lon="13.4078833"><ele>712.0</ele><time>2026-05-03T07:08:07.757Z</time></trkpt><trkpt lat="42.3547533" lon="13.408075"><ele>712.0</ele><time>2026-05-03T07:08:08.757Z</time></trkpt><trkpt lat="42.3546633" lon="13.4082683"><ele>710.3333333333334</ele><time>2026-05-03T07:08:09.757Z</time></trkpt><trkpt lat="42.354575" lon="13.4084583"><ele>708.6666666666666</ele><time>2026-05-03T07:08:10.756Z</time></trkpt><trkpt lat="42.3544783" lon="13.40865"><ele>707.0</ele><time>2026-05-03T07:08:11.757Z</time></trkpt><trkpt lat="42.354365" lon="13.4088233"><ele>709.3333333333333</ele><time>2026-05-03T07:08:12.757Z</time></trkpt><trkpt lat="42.3542583" lon="13.4090017"><ele>711.6666666666666</ele><time>2026-05-03T07:08:13.756Z</time></trkpt><trkpt lat="42.3541517" lon="13.40917"><ele>714.0</ele><time>2026-05-03T07:08:14.757Z</time></trkpt><trkpt lat="42.3540417" lon="13.409325"><ele>714.0</ele><time>2026-05-03T07:08:15.757Z</time></trkpt><trkpt lat="42.35394" lon="13.4094817"><ele>714.0</ele><time>2026-05-03T07:08:16.757Z</time></trkpt><trkpt lat="42.3538367" lon="13.40964"><ele>714.0</ele><time>2026-05-03T07:08:17.756Z</time></trkpt><trkpt lat="42.35374" lon="13.4097983"><ele>713.6666666666666</ele><time>2026-05-03T07:08:18.757Z</time></trkpt><trkpt lat="42.35363" lon="13.4099517"><ele>713.3333333333333</ele><time>2026-05-03T07:08:19.757Z</time></trkpt><trkpt lat="42.3535267" lon="13.4101117"><ele>713.0</ele><time>2026-05-03T07:08:20.756Z</time></trkpt><trkpt lat="42.3534167" lon="13.4102767"><ele>713.0</ele><time>2026-05-03T07:08:21.757Z</time></trkpt><trkpt lat="42.3533017" lon="13.4104367"><ele>713.0</ele><time>2026-05-03T07:08:22.757Z</time></trkpt><trkpt lat="42.35319" lon="13.4106"><ele>713.0</ele><time>2026-05-03T07:08:23.756Z</time></trkpt><trkpt lat="42.3530767" lon="13.4107467"><ele>713.25</ele><time>2026-05-03T07:08:24.757Z</time></trkpt><trkpt lat="42.35297" lon="13.4108833"><ele>713.5</ele><time>2026-05-03T07:08:25.757Z</time></trkpt><trkpt lat="42.3528717" lon="13.4110217"><ele>713.75</ele><time>2026-05-03T07:08:26.757Z</time></trkpt><trkpt lat="42.3527683" lon="13.4111567"><ele>714.0</ele><time>2026-05-03T07:08:27.757Z</time></trkpt><trkpt lat="42.352675" lon="13.4112717"><ele>714.4000000000001</ele><time>2026-05-03T07:08:28.757Z</time></trkpt><trkpt lat="42.3525933" lon="13.4113817"><ele>714.8</ele><time>2026-05-03T07:08:29.756Z</time></trkpt><trkpt lat="42.352515" lon="13.4114983"><ele>715.2</ele><time>2026-05-03T07:08:30.757Z</time></trkpt><trkpt lat="42.352445" lon="13.4116017"><ele>715.5999999999999</ele><time>2026-05-03T07:08:31.757Z</time></trkpt><trkpt lat="42.3523817" lon="13.411705"><ele>716.0</ele><time>2026-05-03T07:08:32.756Z</time></trkpt><trkpt lat="42.35231" lon="13.411815"><ele>716.0</ele><time>2026-05-03T07:08:33.757Z</time></trkpt><trkpt lat="42.352235" lon="13.4119333"><ele>716.0</ele><time>2026-05-03T07:08:34.757Z</time></trkpt><trkpt lat="42.35216" lon="13.4120583"><ele>716.0</ele><time>2026-05-03T07:08:35.757Z</time></trkpt><trkpt lat="42.3520817" lon="13.4121767"><ele>716.0</ele><time>2026-05-03T07:08:36.757Z</time></trkpt><trkpt lat="42.352025" lon="13.4123017"><ele>715.8</ele><time>2026-05-03T07:08:37.757Z</time></trkpt><trkpt lat="42.3519833" lon="13.4124317"><ele>715.5999999999999</ele><time>2026-05-03T07:08:38.757Z</time></trkpt><trkpt lat="42.3519633" lon="13.41256"><ele>715.4</ele><time>2026-05-03T07:08:39.756Z</time></trkpt><trkpt lat="42.351965" lon="13.4127133"><ele>715.2</ele><time>2026-05-03T07:08:40.757Z</time></trkpt><trkpt lat="42.3519833" lon="13.41287"><ele>715.0</ele><time>2026-05-03T07:08:41.757Z</time></trkpt><trkpt lat="42.352025" lon="13.41303"><ele>715.5</ele><time>2026-05-03T07:08:42.757Z</time></trkpt><trkpt lat="42.3520883" lon="13.4131983"><ele>716.0</ele><time>2026-05-03T07:08:43.757Z</time></trkpt><trkpt lat="42.3521667" lon="13.4133667"><ele>716.5</ele><time>2026-05-03T07:08:44.756Z</time></trkpt><trkpt lat="42.3522383" lon="13.4135267"><ele>717.0</ele><time>2026-05-03T07:08:45.756Z</time></trkpt><trkpt lat="42.3523167" lon="13.4136767"><ele>717.75</ele><time>2026-05-03T07:08:46.757Z</time></trkpt><trkpt lat="42.3523817" lon="13.4138317"><ele>718.5</ele><time>2026-05-03T07:08:47.757Z</time></trkpt><trkpt lat="42.3524317" lon="13.4139867"><ele>719.25</ele><time>2026-05-03T07:08:48.757Z</time></trkpt><trkpt lat="42.3524683" lon="13.4141383"><ele>720.0</ele><time>2026-05-03T07:08:49.757Z</time></trkpt><trkpt lat="42.3524817" lon="13.4143033"><ele>720.0</ele><time>2026-05-03T07:08:50.757Z</time></trkpt><trkpt lat="42.3524733" lon="13.4144667"><ele>720.0</ele><time>2026-05-03T07:08:51.757Z</time></trkpt><trkpt lat="42.3524533" lon="13.4146317"><ele>720.0</ele><time>2026-05-03T07:08:52.757Z</time></trkpt><trkpt lat="42.3524167" lon="13.4148117"><ele>720.0</ele><time>2026-05-03T07:08:53.757Z</time></trkpt><trkpt lat="42.352365" lon="13.41499"><ele>720.25</ele><time>2026-05-03T07:08:54.757Z</time></trkpt><trkpt lat="42.3522933" lon="13.415155"><ele>720.5</ele><time>2026-05-03T07:08:55.757Z</time></trkpt><trkpt lat="42.3522267" lon="13.415325"><ele>720.75</ele><time>2026-05-03T07:08:56.757Z</time></trkpt><trkpt lat="42.35215" lon="13.4154833"><ele>721.0</ele><time>2026-05-03T07:08:57.757Z</time></trkpt><trkpt lat="42.3520717" lon="13.41564"><ele>721.75</ele><time>2026-05-03T07:08:58.757Z</time></trkpt><trkpt lat="42.3519933" lon="13.415795"><ele>722.5</ele><time>2026-05-03T07:08:59.757Z</time></trkpt><trkpt lat="42.35192" lon="13.4159433"><ele>723.25</ele><time>2026-05-03T07:09:00.757Z</time></trkpt><trkpt lat="42.3518383" lon="13.416095"><ele>724.0</ele><time>2026-05-03T07:09:01.757Z</time></trkpt><trkpt lat="42.3517717" lon="13.416265"><ele>724.75</ele><time>2026-05-03T07:09:02.757Z</time></trkpt><trkpt lat="42.3517233" lon="13.41644"><ele>725.5</ele><time>2026-05-03T07:09:03.757Z</time></trkpt><trkpt lat="42.3516867" lon="13.4166233"><ele>726.25</ele><time>2026-05-03T07:09:04.757Z</time></trkpt><trkpt lat="42.3516633" lon="13.4168017"><ele>727.0</ele><time>2026-05-03T07:09:05.757Z</time></trkpt><trkpt lat="42.3516467" lon="13.4169633"><ele>727.0</ele><time>2026-05-03T07:09:06.756Z</time></trkpt><trkpt lat="42.3516417" lon="13.41712"><ele>727.0</ele><time>2026-05-03T07:09:07.757Z</time></trkpt><trkpt lat="42.351635" lon="13.4172533"><ele>727.0</ele><time>2026-05-03T07:09:08.756Z</time></trkpt><trkpt lat="42.35163" lon="13.4173933"><ele>727.0</ele><time>2026-05-03T07:09:09.757Z</time></trkpt><trkpt lat="42.3516233" lon="13.4175217"><ele>727.0</ele><time>2026-05-03T07:09:10.757Z</time></trkpt><trkpt lat="42.3516267" lon="13.417635"><ele>727.5</ele><time>2026-05-03T07:09:11.757Z</time></trkpt><trkpt lat="42.3516267" lon="13.4177333"><ele>728.0</ele><time>2026-05-03T07:09:12.757Z</time></trkpt><trkpt lat="42.35162" lon="13.4178317"><ele>728.5</ele><time>2026-05-03T07:09:13.757Z</time></trkpt><trkpt lat="42.3516167" lon="13.4179333"><ele>729.0</ele><time>2026-05-03T07:09:14.757Z</time></trkpt><trkpt lat="42.3516267" lon="13.4180383"><ele>729.5</ele><time>2026-05-03T07:09:15.757Z</time></trkpt><trkpt lat="42.3516467" lon="13.41815"><ele>730.0</ele><time>2026-05-03T07:09:16.756Z</time></trkpt><trkpt lat="42.3516833" lon="13.4182617"><ele>730.0</ele><time>2026-05-03T07:09:17.757Z</time></trkpt><trkpt lat="42.35173" lon="13.4183817"><ele>730.0</ele><time>2026-05-03T07:09:18.756Z</time></trkpt><trkpt lat="42.35178" lon="13.4185"><ele>730.0</ele><time>2026-05-03T07:09:19.757Z</time></trkpt><trkpt lat="42.3518367" lon="13.4186"><ele>730.0</ele><time>2026-05-03T07:09:20.757Z</time></trkpt><trkpt lat="42.3518917" lon="13.4186867"><ele>730.0</ele><time>2026-05-03T07:09:21.757Z</time></trkpt><trkpt lat="42.351935" lon="13.41877"><ele>730.1428571428572</ele><time>2026-05-03T07:09:22.757Z</time></trkpt><trkpt lat="42.3519467" lon="13.418855"><ele>730.2857142857143</ele><time>2026-05-03T07:09:23.756Z</time></trkpt><trkpt lat="42.3519383" lon="13.4189433"><ele>730.4285714285714</ele><time>2026-05-03T07:09:24.757Z</time></trkpt><trkpt lat="42.351915" lon="13.4190267"><ele>730.5714285714287</ele><time>2026-05-03T07:09:25.757Z</time></trkpt><trkpt lat="42.351895" lon="13.4191167"><ele>730.7142857142857</ele><time>2026-05-03T07:09:26.757Z</time></trkpt><trkpt lat="42.3518867" lon="13.4192183"><ele>730.8571428571429</ele><time>2026-05-03T07:09:27.757Z</time></trkpt><trkpt lat="42.3519017" lon="13.4193283"><ele>731.0</ele><time>2026-05-03T07:09:28.757Z</time></trkpt><trkpt lat="42.3519417" lon="13.4194317"><ele>731.0</ele><time>2026-05-03T07:09:29.756Z</time></trkpt><trkpt lat="42.3520017" lon="13.4195417"><ele>731.0</ele><time>2026-05-03T07:09:30.756Z</time></trkpt><trkpt lat="42.352065" lon="13.4196617"><ele>731.0</ele><time>2026-05-03T07:09:31.757Z</time></trkpt><trkpt lat="42.352125" lon="13.41978"><ele>731.0</ele><time>2026-05-03T07:09:32.757Z</time></trkpt><trkpt lat="42.3521767" lon="13.4199017"><ele>731.0</ele><time>2026-05-03T07:09:33.757Z</time></trkpt><trkpt lat="42.3522033" lon="13.4200333"><ele>731.4</ele><time>2026-05-03T07:09:34.756Z</time></trkpt><trkpt lat="42.3522017" lon="13.42017"><ele>731.8</ele><time>2026-05-03T07:09:35.757Z</time></trkpt><trkpt lat="42.352185" lon="13.4203033"><ele>732.1999999999999</ele><time>2026-05-03T07:09:36.757Z</time></trkpt><trkpt lat="42.352175" lon="13.4204383"><ele>732.5999999999999</ele><time>2026-05-03T07:09:37.757Z</time></trkpt><trkpt lat="42.3521883" lon="13.420585"><ele>733.0</ele><time>2026-05-03T07:09:38.756Z</time></trkpt><trkpt lat="42.3522117" lon="13.42073"><ele>734.5999999999999</ele><time>2026-05-03T07:09:39.756Z</time></trkpt><trkpt lat="42.3522567" lon="13.4208633"><ele>736.1999999999999</ele><time>2026-05-03T07:09:40.757Z</time></trkpt><trkpt lat="42.3522833" lon="13.4209867"><ele>737.8</ele><time>2026-05-03T07:09:41.756Z</time></trkpt><trkpt lat="42.3523117" lon="13.42112"><ele>739.4</ele><time>2026-05-03T07:09:42.756Z</time></trkpt><trkpt lat="42.35235" lon="13.421255"><ele>741.0</ele><time>2026-05-03T07:09:43.756Z</time></trkpt><trkpt lat="42.352385" lon="13.4214017"><ele>741.5999999999999</ele><time>2026-05-03T07:09:44.757Z</time></trkpt><trkpt lat="42.3524033" lon="13.4215483"><ele>742.2</ele><time>2026-05-03T07:09:45.757Z</time></trkpt><trkpt lat="42.352405" lon="13.42169"><ele>742.8</ele><time>2026-05-03T07:09:46.757Z</time></trkpt><trkpt lat="42.35239" lon="13.4218283"><ele>743.4000000000001</ele><time>2026-05-03T07:09:47.756Z</time></trkpt><trkpt lat="42.35237" lon="13.4219483"><ele>744.0</ele><time>2026-05-03T07:09:48.756Z</time></trkpt><trkpt lat="42.352345" lon="13.4220767"><ele>742.25</ele><time>2026-05-03T07:09:49.756Z</time></trkpt><trkpt lat="42.3523317" lon="13.422225"><ele>740.5</ele><time>2026-05-03T07:09:50.757Z</time></trkpt><trkpt lat="42.3523333" lon="13.4223817"><ele>738.75</ele><time>2026-05-03T07:09:51.756Z</time></trkpt><trkpt lat="42.3523483" lon="13.4225533"><ele>737.0</ele><time>2026-05-03T07:09:52.757Z</time></trkpt><trkpt lat="42.3523617" lon="13.42272"><ele>737.0</ele><time>2026-05-03T07:09:53.756Z</time></trkpt><trkpt lat="42.35238" lon="13.42288"><ele>737.0</ele><time>2026-05-03T07:09:54.757Z</time></trkpt><trkpt lat="42.3523917" lon="13.4230367"><ele>737.0</ele><time>2026-05-03T07:09:55.756Z</time></trkpt><trkpt lat="42.35241" lon="13.4231783"><ele>737.0</ele><time>2026-05-03T07:09:56.756Z</time></trkpt><trkpt lat="42.3524333" lon="13.423325"><ele>734.5</ele><time>2026-05-03T07:09:57.757Z</time></trkpt><trkpt lat="42.3524433" lon="13.4234733"><ele>732.0</ele><time>2026-05-03T07:09:58.756Z</time></trkpt><trkpt lat="42.3524417" lon="13.423625"><ele>729.5</ele><time>2026-05-03T07:09:59.757Z</time></trkpt><trkpt lat="42.352415" lon="13.4237817"><ele>727.0</ele><time>2026-05-03T07:10:00.757Z</time></trkpt><trkpt lat="42.3523917" lon="13.4239383"><ele>725.5</ele><time>2026-05-03T07:10:01.757Z</time></trkpt><trkpt lat="42.3523583" lon="13.4240967"><ele>724.0</ele><time>2026-05-03T07:10:02.757Z</time></trkpt><trkpt lat="42.3523283" lon="13.42426"><ele>722.5</ele><time>2026-05-03T07:10:03.757Z</time></trkpt><trkpt lat="42.3522883" lon="13.4244467"><ele>721.0</ele><time>2026-05-03T07:10:04.756Z</time></trkpt><trkpt lat="42.352255" lon="13.4246267"><ele>719.25</ele><time>2026-05-03T07:10:05.756Z</time></trkpt><trkpt lat="42.3522033" lon="13.424815"><ele>717.5</ele><time>2026-05-03T07:10:06.756Z</time></trkpt><trkpt lat="42.35215" lon="13.425005"><ele>715.75</ele><time>2026-05-03T07:10:07.757Z</time></trkpt><trkpt lat="42.3520783" lon="13.4251717"><ele>714.0</ele><time>2026-05-03T07:10:08.756Z</time></trkpt><trkpt lat="42.3519867" lon="13.4253283"><ele>714.0</ele><time>2026-05-03T07:10:09.756Z</time></trkpt><trkpt lat="42.351895" lon="13.4254783"><ele>714.0</ele><time>2026-05-03T07:10:10.757Z</time></trkpt><trkpt lat="42.351805" lon="13.42564"><ele>714.0</ele><time>2026-05-03T07:10:11.756Z</time></trkpt><trkpt lat="42.3517233" lon="13.4258017"><ele>714.0</ele><time>2026-05-03T07:10:12.757Z</time></trkpt><trkpt lat="42.351655" lon="13.425955"><ele>715.0</ele><time>2026-05-03T07:10:13.757Z</time></trkpt><trkpt lat="42.35159" lon="13.4261067"><ele>716.0</ele><time>2026-05-03T07:10:14.756Z</time></trkpt><trkpt lat="42.3515333" lon="13.4262467"><ele>717.0</ele><time>2026-05-03T07:10:15.757Z</time></trkpt><trkpt lat="42.3514817" lon="13.4263917"><ele>718.0</ele><time>2026-05-03T07:10:16.757Z</time></trkpt><trkpt lat="42.3514367" lon="13.4265467"><ele>720.75</ele><time>2026-05-03T07:10:17.757Z</time></trkpt><trkpt lat="42.3514033" lon="13.4267017"><ele>723.5</ele><time>2026-05-03T07:10:18.757Z</time></trkpt><trkpt lat="42.3513717" lon="13.4268633"><ele>726.25</ele><time>2026-05-03T07:10:19.756Z</time></trkpt><trkpt lat="42.3513483" lon="13.4270217"><ele>729.0</ele><time>2026-05-03T07:10:20.757Z</time></trkpt><trkpt lat="42.351325" lon="13.4271667"><ele>730.0</ele><time>2026-05-03T07:10:21.757Z</time></trkpt><trkpt lat="42.3513067" lon="13.4273067"><ele>731.0</ele><time>2026-05-03T07:10:22.757Z</time></trkpt><trkpt lat="42.3512867" lon="13.4274267"><ele>732.0</ele><time>2026-05-03T07:10:23.756Z</time></trkpt><trkpt lat="42.35127" lon="13.4275317"><ele>733.0</ele><time>2026-05-03T07:10:24.757Z</time></trkpt><trkpt lat="42.3512333" lon="13.4276417"><ele>734.0</ele><time>2026-05-03T07:10:25.757Z</time></trkpt><trkpt lat="42.3511917" lon="13.4277267"><ele>735.0</ele><time>2026-05-03T07:10:26.757Z</time></trkpt><trkpt lat="42.3511417" lon="13.427815"><ele>735.0</ele><time>2026-05-03T07:10:27.756Z</time></trkpt><trkpt lat="42.3510983" lon="13.42788"><ele>735.0</ele><time>2026-05-03T07:10:28.757Z</time></trkpt><trkpt lat="42.3510283" lon="13.4280267"><ele>735.0</ele><time>2026-05-03T07:10:30.757Z</time></trkpt><trkpt lat="42.351015" lon="13.42815"><ele>735.0</ele><time>2026-05-03T07:10:32.757Z</time></trkpt><trkpt lat="42.3511017" lon="13.4282417"><ele>735.0</ele><time>2026-05-03T07:10:34.757Z</time></trkpt><trkpt lat="42.351175" lon="13.4282717"><ele>734.3333333333334</ele><time>2026-05-03T07:10:35.757Z</time></trkpt><trkpt lat="42.351255" lon="13.4283133"><ele>733.6666666666666</ele><time>2026-05-03T07:10:36.757Z</time></trkpt><trkpt lat="42.3513367" lon="13.4283617"><ele>733.0</ele><time>2026-05-03T07:10:37.757Z</time></trkpt><trkpt lat="42.351425" lon="13.4283883"><ele>732.3333333333333</ele><time>2026-05-03T07:10:38.757Z</time></trkpt><trkpt lat="42.35151" lon="13.4284083"><ele>731.6666666666666</ele><time>2026-05-03T07:10:39.756Z</time></trkpt><trkpt lat="42.3515883" lon="13.4284567"><ele>731.0</ele><time>2026-05-03T07:10:40.757Z</time></trkpt><trkpt lat="42.3516617" lon="13.4285217"><ele>732.6666666666666</ele><time>2026-05-03T07:10:41.757Z</time></trkpt><trkpt lat="42.3517167" lon="13.428605"><ele>734.3333333333333</ele><time>2026-05-03T07:10:42.756Z</time></trkpt><trkpt lat="42.3517633" lon="13.4287133"><ele>736.0</ele><time>2026-05-03T07:10:43.757Z</time></trkpt><trkpt lat="42.3518067" lon="13.428805"><ele>737.6666666666666</ele><time>2026-05-03T07:10:44.756Z</time></trkpt><trkpt lat="42.35185" lon="13.4288917"><ele>739.3333333333334</ele><time>2026-05-03T07:10:45.756Z</time></trkpt><trkpt lat="42.351885" lon="13.4289783"><ele>741.0</ele><time>2026-05-03T07:10:46.756Z</time></trkpt><trkpt lat="42.3518883" lon="13.4290667"><ele>741.1999999999999</ele><time>2026-05-03T07:10:47.757Z</time></trkpt><trkpt lat="42.3518833" lon="13.4291617"><ele>741.4</ele><time>2026-05-03T07:10:48.756Z</time></trkpt><trkpt lat="42.3518683" lon="13.4292683"><ele>741.6</ele><time>2026-05-03T07:10:49.757Z</time></trkpt><trkpt lat="42.3518367" lon="13.4293817"><ele>741.8</ele><time>2026-05-03T07:10:50.756Z</time></trkpt><trkpt lat="42.35177" lon="13.4295083"><ele>742.0</ele><time>2026-05-03T07:10:51.757Z</time></trkpt><trkpt lat="42.351705" lon="13.4296467"><ele>742.4000000000001</ele><time>2026-05-03T07:10:52.756Z</time></trkpt><trkpt lat="42.3516383" lon="13.429765"><ele>742.8000000000001</ele><time>2026-05-03T07:10:53.756Z</time></trkpt><trkpt lat="42.3515833" lon="13.429875"><ele>743.2</ele><time>2026-05-03T07:10:54.757Z</time></trkpt><trkpt lat="42.3515217" lon="13.42997"><ele>743.6</ele><time>2026-05-03T07:10:55.757Z</time></trkpt><trkpt lat="42.351455" lon="13.43005"><ele>744.0</ele><time>2026-05-03T07:10:56.757Z</time></trkpt><trkpt lat="42.351385" lon="13.4300983"><ele>741.6</ele><time>2026-05-03T07:10:57.757Z</time></trkpt><trkpt lat="42.3513117" lon="13.430115"><ele>739.2</ele><time>2026-05-03T07:10:58.756Z</time></trkpt><trkpt lat="42.35123" lon="13.4300917"><ele>736.8000000000001</ele><time>2026-05-03T07:10:59.756Z</time></trkpt><trkpt lat="42.3511333" lon="13.43005"><ele>734.4000000000001</ele><time>2026-05-03T07:11:00.757Z</time></trkpt><trkpt lat="42.3510283" lon="13.43001"><ele>732.0</ele><time>2026-05-03T07:11:01.757Z</time></trkpt><trkpt lat="42.3509233" lon="13.42998"><ele>732.0</ele><time>2026-05-03T07:11:02.756Z</time></trkpt><trkpt lat="42.3508217" lon="13.429965"><ele>732.0</ele><time>2026-05-03T07:11:03.756Z</time></trkpt><trkpt lat="42.3507233" lon="13.4299883"><ele>732.0</ele><time>2026-05-03T07:11:04.757Z</time></trkpt><trkpt lat="42.35063" lon="13.43004"><ele>732.0</ele><time>2026-05-03T07:11:05.757Z</time></trkpt><trkpt lat="42.3505467" lon="13.4301217"><ele>732.0</ele><time>2026-05-03T07:11:06.757Z</time></trkpt><trkpt lat="42.350465" lon="13.43022"><ele>731.0</ele><time>2026-05-03T07:11:07.757Z</time></trkpt><trkpt lat="42.3503817" lon="13.4303533"><ele>730.0</ele><time>2026-05-03T07:11:08.756Z</time></trkpt><trkpt lat="42.3502967" lon="13.430495"><ele>729.0</ele><time>2026-05-03T07:11:09.757Z</time></trkpt><trkpt lat="42.3502133" lon="13.43063"><ele>728.0</ele><time>2026-05-03T07:11:10.757Z</time></trkpt><trkpt lat="42.3501233" lon="13.43075"><ele>728.0</ele><time>2026-05-03T07:11:11.757Z</time></trkpt><trkpt lat="42.3500433" lon="13.4308583"><ele>728.0</ele><time>2026-05-03T07:11:12.756Z</time></trkpt><trkpt lat="42.349955" lon="13.4309483"><ele>728.0</ele><time>2026-05-03T07:11:13.757Z</time></trkpt><trkpt lat="42.3498667" lon="13.431015"><ele>728.0</ele><time>2026-05-03T07:11:14.756Z</time></trkpt><trkpt lat="42.3497633" lon="13.4310567"><ele>728.0</ele><time>2026-05-03T07:11:15.756Z</time></trkpt><trkpt lat="42.3496583" lon="13.4310817"><ele>726.5999999999999</ele><time>2026-05-03T07:11:16.756Z</time></trkpt><trkpt lat="42.3495467" lon="13.4310767"><ele>725.1999999999999</ele><time>2026-05-03T07:11:17.757Z</time></trkpt><trkpt lat="42.3494467" lon="13.4310517"><ele>723.8</ele><time>2026-05-03T07:11:18.756Z</time></trkpt><trkpt lat="42.3493517" lon="13.4310217"><ele>722.4</ele><time>2026-05-03T07:11:19.757Z</time></trkpt><trkpt lat="42.3492617" lon="13.431015"><ele>721.0</ele><time>2026-05-03T07:11:20.757Z</time></trkpt><trkpt lat="42.3491517" lon="13.4310483"><ele>721.0</ele><time>2026-05-03T07:11:21.756Z</time></trkpt><trkpt lat="42.3490383" lon="13.431105"><ele>721.0</ele><time>2026-05-03T07:11:22.756Z</time></trkpt><trkpt lat="42.3489083" lon="13.431175"><ele>721.0</ele><time>2026-05-03T07:11:23.756Z</time></trkpt><trkpt lat="42.3487733" lon="13.4312433"><ele>721.0</ele><time>2026-05-03T07:11:24.756Z</time></trkpt><trkpt lat="42.34865" lon="13.4313367"><ele>721.0</ele><time>2026-05-03T07:11:25.756Z</time></trkpt><trkpt lat="42.3485383" lon="13.4314267"><ele>721.0</ele><time>2026-05-03T07:11:26.757Z</time></trkpt><trkpt lat="42.3484167" lon="13.431515"><ele>721.0</ele><time>2026-05-03T07:11:27.756Z</time></trkpt><trkpt lat="42.3482867" lon="13.431575"><ele>721.0</ele><time>2026-05-03T07:11:28.756Z</time></trkpt><trkpt lat="42.34815" lon="13.4316283"><ele>718.5</ele><time>2026-05-03T07:11:29.756Z</time></trkpt><trkpt lat="42.34801" lon="13.4316833"><ele>716.0</ele><time>2026-05-03T07:11:30.757Z</time></trkpt><trkpt lat="42.3478583" lon="13.4317367"><ele>713.5</ele><time>2026-05-03T07:11:31.756Z</time></trkpt><trkpt lat="42.347725" lon="13.4318133"><ele>711.0</ele><time>2026-05-03T07:11:32.756Z</time></trkpt><trkpt lat="42.3475883" lon="13.4319"><ele>711.0</ele><time>2026-05-03T07:11:33.757Z</time></trkpt><trkpt lat="42.3474483" lon="13.4319733"><ele>711.0</ele><time>2026-05-03T07:11:34.756Z</time></trkpt><trkpt lat="42.3473183" lon="13.4320517"><ele>711.0</ele><time>2026-05-03T07:11:35.757Z</time></trkpt><trkpt lat="42.3471883" lon="13.4321333"><ele>711.0</ele><time>2026-05-03T07:11:36.757Z</time></trkpt><trkpt lat="42.3470583" lon="13.432205"><ele>711.5</ele><time>2026-05-03T07:11:37.757Z</time></trkpt><trkpt lat="42.34693" lon="13.4323017"><ele>712.0</ele><time>2026-05-03T07:11:38.757Z</time></trkpt><trkpt lat="42.3468" lon="13.4323883"><ele>712.5</ele><time>2026-05-03T07:11:39.756Z</time></trkpt><trkpt lat="42.3466817" lon="13.4324933"><ele>713.0</ele><time>2026-05-03T07:11:40.757Z</time></trkpt><trkpt lat="42.3465633" lon="13.432605"><ele>713.0</ele><time>2026-05-03T07:11:41.756Z</time></trkpt><trkpt lat="42.34645" lon="13.43272"><ele>713.0</ele><time>2026-05-03T07:11:42.757Z</time></trkpt><trkpt lat="42.3463317" lon="13.43283"><ele>713.0</ele><time>2026-05-03T07:11:43.757Z</time></trkpt><trkpt lat="42.346205" lon="13.43292"><ele>713.0</ele><time>2026-05-03T07:11:44.757Z</time></trkpt><trkpt lat="42.346085" lon="13.4329933"><ele>713.2</ele><time>2026-05-03T07:11:45.757Z</time></trkpt><trkpt lat="42.3459867" lon="13.433075"><ele>713.4</ele><time>2026-05-03T07:11:46.756Z</time></trkpt><trkpt lat="42.3459017" lon="13.4331267"><ele>713.6</ele><time>2026-05-03T07:11:47.757Z</time></trkpt><trkpt lat="42.3458417" lon="13.43317"><ele>713.8000000000001</ele><time>2026-05-03T07:11:48.757Z</time></trkpt><trkpt lat="42.3457683" lon="13.43323"><ele>714.0</ele><time>2026-05-03T07:11:50.757Z</time></trkpt><trkpt lat="42.34569" lon="13.4333167"><ele>714.0</ele><time>2026-05-03T07:12:00.757Z</time></trkpt><trkpt lat="42.3455783" lon="13.4334"><ele>714.0</ele><time>2026-05-03T07:12:02.757Z</time></trkpt><trkpt lat="42.3455117" lon="13.4334367"><ele>714.0</ele><time>2026-05-03T07:12:03.756Z</time></trkpt><trkpt lat="42.3454417" lon="13.4334817"><ele>714.0</ele><time>2026-05-03T07:12:04.757Z</time></trkpt><trkpt lat="42.3453733" lon="13.4335417"><ele>714.0</ele><time>2026-05-03T07:12:05.757Z</time></trkpt><trkpt lat="42.345305" lon="13.4336217"><ele>714.0</ele><time>2026-05-03T07:12:06.756Z</time></trkpt><trkpt lat="42.3452267" lon="13.4337267"><ele>712.25</ele><time>2026-05-03T07:12:07.757Z</time></trkpt><trkpt lat="42.3451483" lon="13.4338517"><ele>710.5</ele><time>2026-05-03T07:12:08.756Z</time></trkpt><trkpt lat="42.3450817" lon="13.433985"><ele>708.75</ele><time>2026-05-03T07:12:09.757Z</time></trkpt><trkpt lat="42.34501" lon="13.4341233"><ele>707.0</ele><time>2026-05-03T07:12:10.757Z</time></trkpt><trkpt lat="42.344935" lon="13.4342567"><ele>707.0</ele><time>2026-05-03T07:12:11.756Z</time></trkpt><trkpt lat="42.3448667" lon="13.4343967"><ele>707.0</ele><time>2026-05-03T07:12:12.756Z</time></trkpt><trkpt lat="42.344815" lon="13.43455"><ele>707.0</ele><time>2026-05-03T07:12:13.757Z</time></trkpt><trkpt lat="42.34476" lon="13.434685"><ele>707.0</ele><time>2026-05-03T07:12:14.756Z</time></trkpt><trkpt lat="42.3447017" lon="13.4347983"><ele>704.4000000000001</ele><time>2026-05-03T07:12:15.757Z</time></trkpt><trkpt lat="42.344645" lon="13.4349133"><ele>701.8000000000001</ele><time>2026-05-03T07:12:16.757Z</time></trkpt><trkpt lat="42.3445917" lon="13.4350367"><ele>699.2</ele><time>2026-05-03T07:12:17.756Z</time></trkpt><trkpt lat="42.3445467" lon="13.4351583"><ele>696.6</ele><time>2026-05-03T07:12:18.757Z</time></trkpt><trkpt lat="42.3445017" lon="13.43529"><ele>694.0</ele><time>2026-05-03T07:12:19.756Z</time></trkpt><trkpt lat="42.34446" lon="13.43542"><ele>694.5</ele><time>2026-05-03T07:12:20.757Z</time></trkpt><trkpt lat="42.3444183" lon="13.43554"><ele>695.0</ele><time>2026-05-03T07:12:21.757Z</time></trkpt><trkpt lat="42.3443717" lon="13.4356467"><ele>695.5</ele><time>2026-05-03T07:12:22.757Z</time></trkpt><trkpt lat="42.3443283" lon="13.4357383"><ele>696.0</ele><time>2026-05-03T07:12:23.757Z</time></trkpt><trkpt lat="42.3442867" lon="13.4358167"><ele>696.5</ele><time>2026-05-03T07:12:24.757Z</time></trkpt><trkpt lat="42.3442567" lon="13.43591"><ele>697.0</ele><time>2026-05-03T07:12:25.756Z</time></trkpt><trkpt lat="42.3442517" lon="13.4360083"><ele>697.0</ele><time>2026-05-03T07:12:26.756Z</time></trkpt><trkpt lat="42.3442533" lon="13.4361233"><ele>697.0</ele><time>2026-05-03T07:12:27.757Z</time></trkpt><trkpt lat="42.3442483" lon="13.436265"><ele>697.0</ele><time>2026-05-03T07:12:28.757Z</time></trkpt><trkpt lat="42.3442367" lon="13.43642"><ele>697.0</ele><time>2026-05-03T07:12:29.757Z</time></trkpt><trkpt lat="42.3442233" lon="13.436585"><ele>697.0</ele><time>2026-05-03T07:12:30.757Z</time></trkpt><trkpt lat="42.3442217" lon="13.4367333"><ele>696.8333333333334</ele><time>2026-05-03T07:12:31.756Z</time></trkpt><trkpt lat="42.344215" lon="13.4368567"><ele>696.6666666666667</ele><time>2026-05-03T07:12:32.756Z</time></trkpt><trkpt lat="42.3441867" lon="13.43696"><ele>696.5</ele><time>2026-05-03T07:12:33.756Z</time></trkpt><trkpt lat="42.34415" lon="13.4370583"><ele>696.3333333333334</ele><time>2026-05-03T07:12:34.757Z</time></trkpt><trkpt lat="42.3441117" lon="13.4371617"><ele>696.1666666666666</ele><time>2026-05-03T07:12:35.757Z</time></trkpt><trkpt lat="42.3440967" lon="13.4372483"><ele>696.0</ele><time>2026-05-03T07:12:36.757Z</time></trkpt><trkpt lat="42.34408" lon="13.4373517"><ele>697.4</ele><time>2026-05-03T07:12:37.757Z</time></trkpt><trkpt lat="42.344065" lon="13.4375067"><ele>698.8</ele><time>2026-05-03T07:12:39.756Z</time></trkpt><trkpt lat="42.3440633" lon="13.4376167"><ele>700.1999999999999</ele><time>2026-05-03T07:12:41.757Z</time></trkpt><trkpt lat="42.344045" lon="13.4377183"><ele>701.5999999999999</ele><time>2026-05-03T07:12:43.757Z</time></trkpt><trkpt lat="42.3440217" lon="13.43786"><ele>703.0</ele><time>2026-05-03T07:12:45.756Z</time></trkpt><trkpt lat="42.34401" lon="13.4379583"><ele>704.3333333333334</ele><time>2026-05-03T07:12:46.756Z</time></trkpt><trkpt lat="42.344" lon="13.4380633"><ele>705.6666666666667</ele><time>2026-05-03T07:12:47.755Z</time></trkpt><trkpt lat="42.34398" lon="13.4381683"><ele>707.0</ele><time>2026-05-03T07:12:48.756Z</time></trkpt><trkpt lat="42.34396" lon="13.4382717"><ele>708.3333333333334</ele><time>2026-05-03T07:12:49.755Z</time></trkpt><trkpt lat="42.3439417" lon="13.4383817"><ele>709.6666666666666</ele><time>2026-05-03T07:12:50.756Z</time></trkpt><trkpt lat="42.3439217" lon="13.4384933"><ele>711.0</ele><time>2026-05-03T07:12:51.755Z</time></trkpt><trkpt lat="42.3438983" lon="13.438595"><ele>708.5</ele><time>2026-05-03T07:12:52.755Z</time></trkpt><trkpt lat="42.3438583" lon="13.43872"><ele>706.0</ele><time>2026-05-03T07:12:54.755Z</time></trkpt><trkpt lat="42.3438017" lon="13.4388183"><ele>703.5</ele><time>2026-05-03T07:12:56.755Z</time></trkpt><trkpt lat="42.3437517" lon="13.438885"><ele>701.0</ele><time>2026-05-03T07:12:57.756Z</time></trkpt><trkpt lat="42.3436967" lon="13.438955"><ele>698.5</ele><time>2026-05-03T07:12:58.756Z</time></trkpt><trkpt lat="42.3436417" lon="13.4390067"><ele>696.0</ele><time>2026-05-03T07:12:59.755Z</time></trkpt><trkpt lat="42.343575" lon="13.4390583"><ele>696.0</ele><time>2026-05-03T07:13:00.755Z</time></trkpt><trkpt lat="42.3435017" lon="13.4391217"><ele>696.0</ele><time>2026-05-03T07:13:01.755Z</time></trkpt><trkpt lat="42.3434267" lon="13.4391983"><ele>696.0</ele><time>2026-05-03T07:13:02.755Z</time></trkpt><trkpt lat="42.3433533" lon="13.4392817"><ele>696.0</ele><time>2026-05-03T07:13:03.756Z</time></trkpt><trkpt lat="42.3432833" lon="13.4393583"><ele>696.0</ele><time>2026-05-03T07:13:04.756Z</time></trkpt><trkpt lat="42.3432233" lon="13.4394333"><ele>696.0</ele><time>2026-05-03T07:13:05.756Z</time></trkpt><trkpt lat="42.3431733" lon="13.4395033"><ele>696.0</ele><time>2026-05-03T07:13:06.756Z</time></trkpt><trkpt lat="42.3431267" lon="13.4395783"><ele>696.0</ele><time>2026-05-03T07:13:07.756Z</time></trkpt><trkpt lat="42.3430783" lon="13.4396567"><ele>696.0</ele><time>2026-05-03T07:13:08.755Z</time></trkpt><trkpt lat="42.3430233" lon="13.4397333"><ele>696.0</ele><time>2026-05-03T07:13:09.756Z</time></trkpt><trkpt lat="42.3429633" lon="13.4397867"><ele>696.0</ele><time>2026-05-03T07:13:10.755Z</time></trkpt><trkpt lat="42.34286" lon="13.439845"><ele>696.0</ele><time>2026-05-03T07:13:12.755Z</time></trkpt><trkpt lat="42.3427967" lon="13.4398733"><ele>695.6666666666666</ele><time>2026-05-03T07:13:14.756Z</time></trkpt><trkpt lat="42.3427067" lon="13.4399017"><ele>695.3333333333334</ele><time>2026-05-03T07:13:17.755Z</time></trkpt><trkpt lat="42.3426067" lon="13.439905"><ele>695.0</ele><time>2026-05-03T07:13:19.756Z</time></trkpt><trkpt lat="42.3425417" lon="13.4398933"><ele>694.6666666666667</ele><time>2026-05-03T07:13:20.756Z</time></trkpt><trkpt lat="42.3424783" lon="13.439885"><ele>694.3333333333334</ele><time>2026-05-03T07:13:21.756Z</time></trkpt><trkpt lat="42.342415" lon="13.43989"><ele>694.0</ele><time>2026-05-03T07:13:22.755Z</time></trkpt><trkpt lat="42.3422983" lon="13.4399367"><ele>692.0</ele><time>2026-05-03T07:13:24.756Z</time></trkpt><trkpt lat="42.3422033" lon="13.4400017"><ele>690.0</ele><time>2026-05-03T07:13:26.755Z</time></trkpt><trkpt lat="42.3421167" lon="13.4400617"><ele>688.0</ele><time>2026-05-03T07:13:28.755Z</time></trkpt><trkpt lat="42.3420033" lon="13.4400933"><ele>686.0</ele><time>2026-05-03T07:13:30.756Z</time></trkpt><trkpt lat="42.3418883" lon="13.4401333"><ele>684.0</ele><time>2026-05-03T07:13:32.755Z</time></trkpt><trkpt lat="42.3417717" lon="13.4401783"><ele>684.0</ele><time>2026-05-03T07:13:34.755Z</time></trkpt><trkpt lat="42.3417067" lon="13.4402"><ele>684.0</ele><time>2026-05-03T07:13:35.755Z</time></trkpt><trkpt lat="42.3416433" lon="13.4402183"><ele>684.0</ele><time>2026-05-03T07:13:36.756Z</time></trkpt><trkpt lat="42.34158" lon="13.4402233"><ele>684.0</ele><time>2026-05-03T07:13:37.756Z</time></trkpt><trkpt lat="42.3414617" lon="13.4402267"><ele>684.0</ele><time>2026-05-03T07:13:39.756Z</time></trkpt><trkpt lat="42.3413733" lon="13.44021"><ele>684.0</ele><time>2026-05-03T07:13:41.755Z</time></trkpt><trkpt lat="42.3412767" lon="13.4401917"><ele>681.8000000000001</ele><time>2026-05-03T07:13:43.755Z</time></trkpt><trkpt lat="42.3411967" lon="13.440195"><ele>679.6</ele><time>2026-05-03T07:13:45.756Z</time></trkpt><trkpt lat="42.3411133" lon="13.440225"><ele>677.4</ele><time>2026-05-03T07:13:55.756Z</time></trkpt><trkpt lat="42.3410483" lon="13.4402633"><ele>675.2</ele><time>2026-05-03T07:13:57.756Z</time></trkpt><trkpt lat="42.3409533" lon="13.44031"><ele>673.0</ele><time>2026-05-03T07:13:59.756Z</time></trkpt><trkpt lat="42.3408433" lon="13.4403817"><ele>673.0</ele><time>2026-05-03T07:14:01.755Z</time></trkpt><trkpt lat="42.34074" lon="13.440435"><ele>673.0</ele><time>2026-05-03T07:14:03.756Z</time></trkpt><trkpt lat="42.340625" lon="13.440485"><ele>673.0</ele><time>2026-05-03T07:14:05.756Z</time></trkpt><trkpt lat="42.340565" lon="13.440515"><ele>673.0</ele><time>2026-05-03T07:14:06.756Z</time></trkpt><trkpt lat="42.3404733" lon="13.44056"><ele>673.0</ele><time>2026-05-03T07:14:08.756Z</time></trkpt><trkpt lat="42.3404017" lon="13.440625"><ele>670.5999999999999</ele><time>2026-05-03T07:14:10.755Z</time></trkpt><trkpt lat="42.3403567" lon="13.44073"><ele>668.1999999999999</ele><time>2026-05-03T07:14:12.756Z</time></trkpt><trkpt lat="42.3403233" lon="13.4408717"><ele>665.8</ele><time>2026-05-03T07:14:14.756Z</time></trkpt><trkpt lat="42.3402883" lon="13.44104"><ele>663.4</ele><time>2026-05-03T07:14:16.756Z</time></trkpt><trkpt lat="42.340275" lon="13.44115"><ele>661.0</ele><time>2026-05-03T07:14:17.756Z</time></trkpt><trkpt lat="42.3402633" lon="13.4412683"><ele>660.0</ele><time>2026-05-03T07:14:18.756Z</time></trkpt><trkpt lat="42.3402467" lon="13.4413867"><ele>659.0</ele><time>2026-05-03T07:14:19.756Z</time></trkpt><trkpt lat="42.34021" lon="13.4415"><ele>658.0</ele><time>2026-05-03T07:14:20.755Z</time></trkpt><trkpt lat="42.34017" lon="13.4416233"><ele>657.0</ele><time>2026-05-03T07:14:21.756Z</time></trkpt><trkpt lat="42.3401283" lon="13.4417517"><ele>656.0</ele><time>2026-05-03T07:14:22.756Z</time></trkpt><trkpt lat="42.34009" lon="13.4418883"><ele>656.0</ele><time>2026-05-03T07:14:23.756Z</time></trkpt><trkpt lat="42.3400517" lon="13.4420317"><ele>656.0</ele><time>2026-05-03T07:14:24.755Z</time></trkpt><trkpt lat="42.34001" lon="13.4421767"><ele>656.0</ele><time>2026-05-03T07:14:25.756Z</time></trkpt><trkpt lat="42.3399733" lon="13.4423167"><ele>656.0</ele><time>2026-05-03T07:14:26.756Z</time></trkpt><trkpt lat="42.3399383" lon="13.4424533"><ele>656.0</ele><time>2026-05-03T07:14:27.756Z</time></trkpt><trkpt lat="42.3399017" lon="13.4425967"><ele>655.5</ele><time>2026-05-03T07:14:28.756Z</time></trkpt><trkpt lat="42.3398733" lon="13.442725"><ele>655.0</ele><time>2026-05-03T07:14:29.755Z</time></trkpt><trkpt lat="42.3398517" lon="13.44284"><ele>654.5</ele><time>2026-05-03T07:14:30.755Z</time></trkpt><trkpt lat="42.3398267" lon="13.4429533"><ele>654.0</ele><time>2026-05-03T07:14:31.756Z</time></trkpt><trkpt lat="42.3398017" lon="13.4430633"><ele>653.5</ele><time>2026-05-03T07:14:32.756Z</time></trkpt><trkpt lat="42.339765" lon="13.443175"><ele>653.0</ele><time>2026-05-03T07:14:33.755Z</time></trkpt><trkpt lat="42.3397167" lon="13.443275"><ele>651.2</ele><time>2026-05-03T07:14:34.756Z</time></trkpt><trkpt lat="42.3396633" lon="13.4433717"><ele>649.4</ele><time>2026-05-03T07:14:35.756Z</time></trkpt><trkpt lat="42.3396017" lon="13.44346"><ele>647.6</ele><time>2026-05-03T07:14:36.756Z</time></trkpt><trkpt lat="42.3395267" lon="13.4435467"><ele>645.8000000000001</ele><time>2026-05-03T07:14:37.756Z</time></trkpt><trkpt lat="42.3394333" lon="13.4436367"><ele>644.0</ele><time>2026-05-03T07:14:38.756Z</time></trkpt><trkpt lat="42.33934" lon="13.44375"><ele>645.8000000000001</ele><time>2026-05-03T07:14:39.756Z</time></trkpt><trkpt lat="42.3392433" lon="13.4438533"><ele>647.6</ele><time>2026-05-03T07:14:40.755Z</time></trkpt><trkpt lat="42.339165" lon="13.4439567"><ele>649.4</ele><time>2026-05-03T07:14:41.756Z</time></trkpt><trkpt lat="42.33911" lon="13.444035"><ele>651.2</ele><time>2026-05-03T07:14:42.755Z</time></trkpt><trkpt lat="42.3390567" lon="13.4441283"><ele>653.0</ele><time>2026-05-03T07:14:43.755Z</time></trkpt><trkpt lat="42.339025" lon="13.44422"><ele>653.0</ele><time>2026-05-03T07:14:44.756Z</time></trkpt><trkpt lat="42.339005" lon="13.4443333"><ele>653.0</ele><time>2026-05-03T07:14:45.756Z</time></trkpt><trkpt lat="42.3389933" lon="13.4444633"><ele>653.0</ele><time>2026-05-03T07:14:46.756Z</time></trkpt><trkpt lat="42.3389967" lon="13.444595"><ele>653.0</ele><time>2026-05-03T07:14:47.756Z</time></trkpt><trkpt lat="42.339005" lon="13.44474"><ele>653.0</ele><time>2026-05-03T07:14:48.755Z</time></trkpt><trkpt lat="42.3390117" lon="13.4448817"><ele>652.75</ele><time>2026-05-03T07:14:49.756Z</time></trkpt><trkpt lat="42.3390017" lon="13.4450333"><ele>652.5</ele><time>2026-05-03T07:14:50.756Z</time></trkpt><trkpt lat="42.338975" lon="13.4452033"><ele>652.25</ele><time>2026-05-03T07:14:51.756Z</time></trkpt><trkpt lat="42.338955" lon="13.4453717"><ele>652.0</ele><time>2026-05-03T07:14:52.755Z</time></trkpt><trkpt lat="42.3389317" lon="13.4455417"><ele>653.25</ele><time>2026-05-03T07:14:53.756Z</time></trkpt><trkpt lat="42.3388917" lon="13.4457083"><ele>654.5</ele><time>2026-05-03T07:14:54.756Z</time></trkpt><trkpt lat="42.3388433" lon="13.4458783"><ele>655.75</ele><time>2026-05-03T07:14:55.756Z</time></trkpt><trkpt lat="42.338775" lon="13.4460417"><ele>657.0</ele><time>2026-05-03T07:14:56.756Z</time></trkpt><trkpt lat="42.3386967" lon="13.4462167"><ele>651.3333333333334</ele><time>2026-05-03T07:14:57.755Z</time></trkpt><trkpt lat="42.3386217" lon="13.446395"><ele>645.6666666666667</ele><time>2026-05-03T07:14:58.756Z</time></trkpt><trkpt lat="42.338545" lon="13.4466083"><ele>640.0</ele><time>2026-05-03T07:14:59.755Z</time></trkpt><trkpt lat="42.3384733" lon="13.4468117"><ele>640.0</ele><time>2026-05-03T07:15:00.755Z</time></trkpt><trkpt lat="42.3384083" lon="13.4470267"><ele>640.0</ele><time>2026-05-03T07:15:01.756Z</time></trkpt><trkpt lat="42.338345" lon="13.4472533"><ele>640.0</ele><time>2026-05-03T07:15:02.755Z</time></trkpt><trkpt lat="42.3382783" lon="13.4474817"><ele>640.3333333333334</ele><time>2026-05-03T07:15:03.756Z</time></trkpt><trkpt lat="42.3382117" lon="13.4477083"><ele>640.6666666666666</ele><time>2026-05-03T07:15:04.755Z</time></trkpt><trkpt lat="42.3381583" lon="13.4479217"><ele>641.0</ele><time>2026-05-03T07:15:05.755Z</time></trkpt><trkpt lat="42.3381033" lon="13.4481283"><ele>641.0</ele><time>2026-05-03T07:15:06.755Z</time></trkpt><trkpt lat="42.3380517" lon="13.44832"><ele>641.0</ele><time>2026-05-03T07:15:07.755Z</time></trkpt><trkpt lat="42.3379933" lon="13.44852"><ele>641.0</ele><time>2026-05-03T07:15:08.755Z</time></trkpt><trkpt lat="42.3379383" lon="13.4487033"><ele>637.0</ele><time>2026-05-03T07:15:09.755Z</time></trkpt><trkpt lat="42.3378783" lon="13.44888"><ele>633.0</ele><time>2026-05-03T07:15:10.756Z</time></trkpt><trkpt lat="42.3378233" lon="13.4490517"><ele>629.0</ele><time>2026-05-03T07:15:11.756Z</time></trkpt><trkpt lat="42.3377833" lon="13.4492183"><ele>625.0</ele><time>2026-05-03T07:15:12.756Z</time></trkpt><trkpt lat="42.3377467" lon="13.4493767"><ele>625.0</ele><time>2026-05-03T07:15:13.756Z</time></trkpt><trkpt lat="42.337735" lon="13.4495533"><ele>625.0</ele><time>2026-05-03T07:15:14.756Z</time></trkpt><trkpt lat="42.33774" lon="13.4497317"><ele>625.0</ele><time>2026-05-03T07:15:15.756Z</time></trkpt><trkpt lat="42.3377617" lon="13.4499167"><ele>625.0</ele><time>2026-05-03T07:15:16.755Z</time></trkpt><trkpt lat="42.3377933" lon="13.4501167"><ele>624.75</ele><time>2026-05-03T07:15:17.755Z</time></trkpt><trkpt lat="42.3378217" lon="13.4503117"><ele>624.5</ele><time>2026-05-03T07:15:18.756Z</time></trkpt><trkpt lat="42.3378367" lon="13.4505167"><ele>624.25</ele><time>2026-05-03T07:15:19.756Z</time></trkpt><trkpt lat="42.33785" lon="13.4506983"><ele>624.0</ele><time>2026-05-03T07:15:20.756Z</time></trkpt><trkpt lat="42.3378567" lon="13.450875"><ele>623.5</ele><time>2026-05-03T07:15:21.756Z</time></trkpt><trkpt lat="42.33786" lon="13.4510367"><ele>623.0</ele><time>2026-05-03T07:15:22.756Z</time></trkpt><trkpt lat="42.3378633" lon="13.4511883"><ele>622.5</ele><time>2026-05-03T07:15:23.756Z</time></trkpt><trkpt lat="42.33787" lon="13.451335"><ele>622.0</ele><time>2026-05-03T07:15:24.755Z</time></trkpt><trkpt lat="42.337875" lon="13.451485"><ele>621.6</ele><time>2026-05-03T07:15:25.756Z</time></trkpt><trkpt lat="42.337875" lon="13.4516167"><ele>621.2</ele><time>2026-05-03T07:15:26.756Z</time></trkpt><trkpt lat="42.3378883" lon="13.45174"><ele>620.8</ele><time>2026-05-03T07:15:27.755Z</time></trkpt><trkpt lat="42.3378867" lon="13.4518633"><ele>620.4</ele><time>2026-05-03T07:15:28.756Z</time></trkpt><trkpt lat="42.3378917" lon="13.4519933"><ele>620.0</ele><time>2026-05-03T07:15:29.756Z</time></trkpt><trkpt lat="42.3379117" lon="13.4521333"><ele>619.2</ele><time>2026-05-03T07:15:30.756Z</time></trkpt><trkpt lat="42.3379233" lon="13.4522783"><ele>618.4</ele><time>2026-05-03T07:15:31.756Z</time></trkpt><trkpt lat="42.337935" lon="13.45242"><ele>617.6</ele><time>2026-05-03T07:15:32.756Z</time></trkpt><trkpt lat="42.3379467" lon="13.452555"><ele>616.8</ele><time>2026-05-03T07:15:33.756Z</time></trkpt><trkpt lat="42.3379567" lon="13.4526517"><ele>616.0</ele><time>2026-05-03T07:15:34.756Z</time></trkpt><trkpt lat="42.3379733" lon="13.4527667"><ele>616.0</ele><time>2026-05-03T07:15:36.755Z</time></trkpt><trkpt lat="42.3379883" lon="13.4528583"><ele>616.0</ele><time>2026-05-03T07:15:39.755Z</time></trkpt><trkpt lat="42.3380267" lon="13.452955"><ele>616.0</ele><time>2026-05-03T07:15:41.755Z</time></trkpt><trkpt lat="42.3380667" lon="13.4530767"><ele>616.0</ele><time>2026-05-03T07:15:43.756Z</time></trkpt><trkpt lat="42.338105" lon="13.45321"><ele>616.0</ele><time>2026-05-03T07:15:45.755Z</time></trkpt><trkpt lat="42.3381067" lon="13.45339"><ele>617.8333333333334</ele><time>2026-05-03T07:15:47.756Z</time></trkpt><trkpt lat="42.33812" lon="13.4534933"><ele>619.6666666666667</ele><time>2026-05-03T07:15:48.756Z</time></trkpt><trkpt lat="42.3381483" lon="13.453595"><ele>621.5</ele><time>2026-05-03T07:15:49.756Z</time></trkpt><trkpt lat="42.338175" lon="13.4536883"><ele>623.3333333333334</ele><time>2026-05-03T07:15:50.756Z</time></trkpt><trkpt lat="42.338185" lon="13.45378"><ele>625.1666666666666</ele><time>2026-05-03T07:15:51.755Z</time></trkpt><trkpt lat="42.3381817" lon="13.4538817"><ele>627.0</ele><time>2026-05-03T07:15:52.756Z</time></trkpt><trkpt lat="42.3381767" lon="13.453985"><ele>627.0</ele><time>2026-05-03T07:15:53.755Z</time></trkpt><trkpt lat="42.3381617" lon="13.454095"><ele>627.0</ele><time>2026-05-03T07:15:54.756Z</time></trkpt><trkpt lat="42.3381517" lon="13.454205"><ele>627.0</ele><time>2026-05-03T07:15:55.755Z</time></trkpt><trkpt lat="42.338135" lon="13.4543083"><ele>627.0</ele><time>2026-05-03T07:15:56.755Z</time></trkpt><trkpt lat="42.338115" lon="13.4543983"><ele>627.0</ele><time>2026-05-03T07:15:57.755Z</time></trkpt><trkpt lat="42.3380833" lon="13.4545117"><ele>627.0</ele><time>2026-05-03T07:15:58.756Z</time></trkpt><trkpt lat="42.3380767" lon="13.454625"><ele>626.0</ele><time>2026-05-03T07:15:59.756Z</time></trkpt><trkpt lat="42.3380883" lon="13.4547183"><ele>625.0</ele><time>2026-05-03T07:16:00.756Z</time></trkpt><trkpt lat="42.3380917" lon="13.45483"><ele>624.0</ele><time>2026-05-03T07:16:01.755Z</time></trkpt><trkpt lat="42.338105" lon="13.4549367"><ele>623.0</ele><time>2026-05-03T07:16:02.756Z</time></trkpt><trkpt lat="42.3381333" lon="13.4550417"><ele>622.0</ele><time>2026-05-03T07:16:03.755Z</time></trkpt><trkpt lat="42.3381583" lon="13.4551417"><ele>621.0</ele><time>2026-05-03T07:16:04.756Z</time></trkpt><trkpt lat="42.3381917" lon="13.4552217"><ele>621.0</ele><time>2026-05-03T07:16:05.756Z</time></trkpt><trkpt lat="42.3382233" lon="13.4553533"><ele>621.0</ele><time>2026-05-03T07:16:07.756Z</time></trkpt><trkpt lat="42.3382417" lon="13.455455"><ele>621.0</ele><time>2026-05-03T07:16:09.755Z</time></trkpt><trkpt lat="42.33815" lon="13.4554667"><ele>621.0</ele><time>2026-05-03T07:16:12.756Z</time></trkpt><trkpt lat="42.338055" lon="13.4554333"><ele>621.0</ele><time>2026-05-03T07:16:14.756Z</time></trkpt><trkpt lat="42.337985" lon="13.45545"><ele>621.0</ele><time>2026-05-03T07:16:16.756Z</time></trkpt><trkpt lat="42.337965" lon="13.45554"><ele>617.8</ele><time>2026-05-03T07:16:19.755Z</time></trkpt><trkpt lat="42.338075" lon="13.45558"><ele>614.6</ele><time>2026-05-03T07:16:22.756Z</time></trkpt><trkpt lat="42.3381483" lon="13.455605"><ele>611.4</ele><time>2026-05-03T07:16:23.756Z</time></trkpt><trkpt lat="42.33824" lon="13.45564"><ele>608.2</ele><time>2026-05-03T07:16:24.756Z</time></trkpt><trkpt lat="42.338335" lon="13.45567"><ele>605.0</ele><time>2026-05-03T07:16:25.755Z</time></trkpt><trkpt lat="42.3384417" lon="13.455705"><ele>605.0</ele><time>2026-05-03T07:16:26.755Z</time></trkpt><trkpt lat="42.338555" lon="13.4557483"><ele>605.0</ele><time>2026-05-03T07:16:27.755Z</time></trkpt><trkpt lat="42.3386817" lon="13.45578"><ele>605.0</ele><time>2026-05-03T07:16:28.755Z</time></trkpt><trkpt lat="42.3388083" lon="13.45583"><ele>605.0</ele><time>2026-05-03T07:16:29.755Z</time></trkpt><trkpt lat="42.3389367" lon="13.4558967"><ele>606.25</ele><time>2026-05-03T07:16:30.756Z</time></trkpt><trkpt lat="42.3390683" lon="13.4559483"><ele>607.5</ele><time>2026-05-03T07:16:31.756Z</time></trkpt><trkpt lat="42.3391917" lon="13.4559683"><ele>608.75</ele><time>2026-05-03T07:16:32.756Z</time></trkpt><trkpt lat="42.3393083" lon="13.45597"><ele>610.0</ele><time>2026-05-03T07:16:33.756Z</time></trkpt><trkpt lat="42.3394283" lon="13.45597"><ele>610.0</ele><time>2026-05-03T07:16:34.756Z</time></trkpt><trkpt lat="42.33953" lon="13.4559917"><ele>610.0</ele><time>2026-05-03T07:16:35.755Z</time></trkpt><trkpt lat="42.339595" lon="13.45602"><ele>610.0</ele><time>2026-05-03T07:16:36.756Z</time></trkpt><trkpt lat="42.3396767" lon="13.4560833"><ele>610.0</ele><time>2026-05-03T07:16:38.755Z</time></trkpt><trkpt lat="42.3397417" lon="13.4561933"><ele>610.0</ele><time>2026-05-03T07:16:40.755Z</time></trkpt><trkpt lat="42.339755" lon="13.45628"><ele>610.0</ele><time>2026-05-03T07:16:41.756Z</time></trkpt><trkpt lat="42.3397633" lon="13.4563733"><ele>608.2</ele><time>2026-05-03T07:16:42.755Z</time></trkpt><trkpt lat="42.3397667" lon="13.4565167"><ele>606.4</ele><time>2026-05-03T07:16:44.755Z</time></trkpt><trkpt lat="42.339755" lon="13.4566017"><ele>604.6</ele><time>2026-05-03T07:17:04.756Z</time></trkpt><trkpt lat="42.339835" lon="13.456685"><ele>602.8</ele><time>2026-05-03T07:17:06.756Z</time></trkpt><trkpt lat="42.3399283" lon="13.4567183"><ele>601.0</ele><time>2026-05-03T07:17:07.755Z</time></trkpt><trkpt lat="42.3400333" lon="13.4567517"><ele>601.0</ele><time>2026-05-03T07:17:08.755Z</time></trkpt><trkpt lat="42.3401467" lon="13.4567817"><ele>601.0</ele><time>2026-05-03T07:17:09.756Z</time></trkpt><trkpt lat="42.3402683" lon="13.4568117"><ele>601.0</ele><time>2026-05-03T07:17:10.755Z</time></trkpt><trkpt lat="42.3403967" lon="13.4568483"><ele>601.0</ele><time>2026-05-03T07:17:11.756Z</time></trkpt><trkpt lat="42.340525" lon="13.4569"><ele>600.6666666666667</ele><time>2026-05-03T07:17:12.755Z</time></trkpt><trkpt lat="42.3406617" lon="13.4569617"><ele>600.3333333333334</ele><time>2026-05-03T07:17:13.755Z</time></trkpt><trkpt lat="42.3408167" lon="13.4570233"><ele>600.0</ele><time>2026-05-03T07:17:14.755Z</time></trkpt><trkpt lat="42.3409717" lon="13.4570983"><ele>600.25</ele><time>2026-05-03T07:17:15.756Z</time></trkpt><trkpt lat="42.3411117" lon="13.457165"><ele>600.5</ele><time>2026-05-03T07:17:16.756Z</time></trkpt><trkpt lat="42.3412417" lon="13.4572533"><ele>600.75</ele><time>2026-05-03T07:17:17.755Z</time></trkpt><trkpt lat="42.341355" lon="13.457365"><ele>601.0</ele><time>2026-05-03T07:17:18.755Z</time></trkpt><trkpt lat="42.3414667" lon="13.4575067"><ele>601.0</ele><time>2026-05-03T07:17:19.755Z</time></trkpt><trkpt lat="42.3415917" lon="13.4576533"><ele>601.0</ele><time>2026-05-03T07:17:20.756Z</time></trkpt><trkpt lat="42.3417117" lon="13.4578233"><ele>601.0</ele><time>2026-05-03T07:17:21.756Z</time></trkpt><trkpt lat="42.3418267" lon="13.4579833"><ele>601.0</ele><time>2026-05-03T07:17:22.755Z</time></trkpt><trkpt lat="42.3419417" lon="13.458155"><ele>601.0</ele><time>2026-05-03T07:17:23.755Z</time></trkpt><trkpt lat="42.34207" lon="13.458325"><ele>601.0</ele><time>2026-05-03T07:17:24.755Z</time></trkpt><trkpt lat="42.342205" lon="13.458495"><ele>601.0</ele><time>2026-05-03T07:17:25.756Z</time></trkpt><trkpt lat="42.3423383" lon="13.45867"><ele>601.0</ele><time>2026-05-03T07:17:26.756Z</time></trkpt><trkpt lat="42.3424733" lon="13.45885"><ele>601.0</ele><time>2026-05-03T07:17:27.756Z</time></trkpt><trkpt lat="42.3426083" lon="13.4590217"><ele>601.0</ele><time>2026-05-03T07:17:28.755Z</time></trkpt><trkpt lat="42.3427483" lon="13.4592017"><ele>601.0</ele><time>2026-05-03T07:17:29.756Z</time></trkpt><trkpt lat="42.3428833" lon="13.45938"><ele>601.0</ele><time>2026-05-03T07:17:30.755Z</time></trkpt><trkpt lat="42.3430133" lon="13.45954"><ele>602.6666666666667</ele><time>2026-05-03T07:17:31.755Z</time></trkpt><trkpt lat="42.34314" lon="13.4597083"><ele>604.3333333333334</ele><time>2026-05-03T07:17:32.755Z</time></trkpt><trkpt lat="42.34327" lon="13.4598767"><ele>606.0</ele><time>2026-05-03T07:17:33.756Z</time></trkpt><trkpt lat="42.3433867" lon="13.4600333"><ele>606.0</ele><time>2026-05-03T07:17:34.755Z</time></trkpt><trkpt lat="42.3435133" lon="13.4601967"><ele>606.0</ele><time>2026-05-03T07:17:35.756Z</time></trkpt><trkpt lat="42.3436383" lon="13.4603567"><ele>606.0</ele><time>2026-05-03T07:17:36.755Z</time></trkpt><trkpt lat="42.34376" lon="13.46051"><ele>606.3333333333334</ele><time>2026-05-03T07:17:37.755Z</time></trkpt><trkpt lat="42.3438767" lon="13.4606767"><ele>606.6666666666667</ele><time>2026-05-03T07:17:38.756Z</time></trkpt><trkpt lat="42.3439967" lon="13.4608317"><ele>607.0</ele><time>2026-05-03T07:17:39.756Z</time></trkpt><trkpt lat="42.3441217" lon="13.4609867"><ele>607.6666666666667</ele><time>2026-05-03T07:17:40.756Z</time></trkpt><trkpt lat="42.3442467" lon="13.46113"><ele>608.3333333333334</ele><time>2026-05-03T07:17:41.755Z</time></trkpt><trkpt lat="42.3443717" lon="13.46126"><ele>609.0</ele><time>2026-05-03T07:17:42.756Z</time></trkpt><trkpt lat="42.3444817" lon="13.4613983"><ele>609.0</ele><time>2026-05-03T07:17:43.755Z</time></trkpt><trkpt lat="42.3445967" lon="13.4615433"><ele>609.0</ele><time>2026-05-03T07:17:44.756Z</time></trkpt><trkpt lat="42.3447067" lon="13.4616817"><ele>609.0</ele><time>2026-05-03T07:17:45.755Z</time></trkpt><trkpt lat="42.3448283" lon="13.461815"><ele>609.75</ele><time>2026-05-03T07:17:46.756Z</time></trkpt><trkpt lat="42.344945" lon="13.4619467"><ele>610.5</ele><time>2026-05-03T07:17:47.756Z</time></trkpt><trkpt lat="42.3450617" lon="13.4620617"><ele>611.25</ele><time>2026-05-03T07:17:48.755Z</time></trkpt><trkpt lat="42.345185" lon="13.462175"><ele>612.0</ele><time>2026-05-03T07:17:49.755Z</time></trkpt><trkpt lat="42.3453" lon="13.4622783"><ele>612.0</ele><time>2026-05-03T07:17:50.756Z</time></trkpt><trkpt lat="42.3454" lon="13.462365"><ele>612.0</ele><time>2026-05-03T07:17:51.756Z</time></trkpt><trkpt lat="42.345475" lon="13.4624267"><ele>612.0</ele><time>2026-05-03T07:17:52.755Z</time></trkpt><trkpt lat="42.3455633" lon="13.4624933"><ele>612.0</ele><time>2026-05-03T07:17:54.755Z</time></trkpt><trkpt lat="42.3456067" lon="13.4625683"><ele>612.0</ele><time>2026-05-03T07:18:04.755Z</time></trkpt><trkpt lat="42.34559" lon="13.4626583"><ele>612.0</ele><time>2026-05-03T07:18:07.754Z</time></trkpt><trkpt lat="42.345505" lon="13.4627767"><ele>612.0</ele><time>2026-05-03T07:18:09.755Z</time></trkpt><trkpt lat="42.3454383" lon="13.4628633"><ele>612.0</ele><time>2026-05-03T07:18:10.755Z</time></trkpt><trkpt lat="42.3453667" lon="13.4629533"><ele>612.0</ele><time>2026-05-03T07:18:11.755Z</time></trkpt><trkpt lat="42.3452883" lon="13.4630467"><ele>612.0</ele><time>2026-05-03T07:18:12.755Z</time></trkpt><trkpt lat="42.3452133" lon="13.46317"><ele>612.0</ele><time>2026-05-03T07:18:13.755Z</time></trkpt><trkpt lat="42.345145" lon="13.4632967"><ele>612.5</ele><time>2026-05-03T07:18:14.755Z</time></trkpt><trkpt lat="42.34508" lon="13.4634317"><ele>613.0</ele><time>2026-05-03T07:18:15.755Z</time></trkpt><trkpt lat="42.34502" lon="13.4635733"><ele>613.5</ele><time>2026-05-03T07:18:16.754Z</time></trkpt><trkpt lat="42.3449783" lon="13.4637117"><ele>614.0</ele><time>2026-05-03T07:18:17.755Z</time></trkpt><trkpt lat="42.3449517" lon="13.4638483"><ele>614.2</ele><time>2026-05-03T07:18:18.755Z</time></trkpt><trkpt lat="42.34491" lon="13.4639967"><ele>614.4</ele><time>2026-05-03T07:18:19.755Z</time></trkpt><trkpt lat="42.3448833" lon="13.4641283"><ele>614.6</ele><time>2026-05-03T07:18:20.755Z</time></trkpt><trkpt lat="42.3448483" lon="13.4642683"><ele>614.8</ele><time>2026-05-03T07:18:21.755Z</time></trkpt><trkpt lat="42.34482" lon="13.4644033"><ele>615.0</ele><time>2026-05-03T07:18:22.755Z</time></trkpt><trkpt lat="42.34479" lon="13.4645367"><ele>615.0</ele><time>2026-05-03T07:18:23.755Z</time></trkpt><trkpt lat="42.3447533" lon="13.4646683"><ele>615.0</ele><time>2026-05-03T07:18:24.755Z</time></trkpt><trkpt lat="42.344725" lon="13.4648033"><ele>615.0</ele><time>2026-05-03T07:18:25.755Z</time></trkpt><trkpt lat="42.3447033" lon="13.4649317"><ele>615.0</ele><time>2026-05-03T07:18:26.754Z</time></trkpt><trkpt lat="42.34468" lon="13.4650567"><ele>615.0</ele><time>2026-05-03T07:18:27.755Z</time></trkpt><trkpt lat="42.3446583" lon="13.4651783"><ele>614.8</ele><time>2026-05-03T07:18:28.754Z</time></trkpt><trkpt lat="42.3446267" lon="13.4653083"><ele>614.6</ele><time>2026-05-03T07:18:29.755Z</time></trkpt><trkpt lat="42.34458" lon="13.4654383"><ele>614.4</ele><time>2026-05-03T07:18:30.755Z</time></trkpt><trkpt lat="42.344535" lon="13.46556"><ele>614.2</ele><time>2026-05-03T07:18:31.755Z</time></trkpt><trkpt lat="42.3444933" lon="13.4656933"><ele>614.0</ele><time>2026-05-03T07:18:32.755Z</time></trkpt><trkpt lat="42.344445" lon="13.465805"><ele>614.0</ele><time>2026-05-03T07:18:33.755Z</time></trkpt><trkpt lat="42.3444117" lon="13.465895"><ele>614.0</ele><time>2026-05-03T07:18:34.755Z</time></trkpt><trkpt lat="42.3443767" lon="13.4659667"><ele>614.0</ele><time>2026-05-03T07:18:35.754Z</time></trkpt><trkpt lat="42.3443683" lon="13.46607"><ele>614.0</ele><time>2026-05-03T07:18:37.755Z</time></trkpt><trkpt lat="42.34445" lon="13.4661517"><ele>614.0</ele><time>2026-05-03T07:18:39.754Z</time></trkpt><trkpt lat="42.344535" lon="13.4661883"><ele>614.0</ele><time>2026-05-03T07:18:40.755Z</time></trkpt><trkpt lat="42.3446467" lon="13.4662217"><ele>614.25</ele><time>2026-05-03T07:18:41.755Z</time></trkpt><trkpt lat="42.3447667" lon="13.4662483"><ele>614.5</ele><time>2026-05-03T07:18:42.755Z</time></trkpt><trkpt lat="42.344885" lon="13.466275"><ele>614.75</ele><time>2026-05-03T07:18:43.754Z</time></trkpt><trkpt lat="42.3450033" lon="13.4663017"><ele>615.0</ele><time>2026-05-03T07:18:44.755Z</time></trkpt><trkpt lat="42.3451233" lon="13.4663"><ele>615.0</ele><time>2026-05-03T07:18:45.754Z</time></trkpt><trkpt lat="42.3452483" lon="13.466285"><ele>615.0</ele><time>2026-05-03T07:18:46.754Z</time></trkpt><trkpt lat="42.34536" lon="13.4662783"><ele>615.0</ele><time>2026-05-03T07:18:47.754Z</time></trkpt><trkpt lat="42.3454683" lon="13.4662883"><ele>615.0</ele><time>2026-05-03T07:18:48.755Z</time></trkpt><trkpt lat="42.3455733" lon="13.46632"><ele>616.0</ele><time>2026-05-03T07:18:49.755Z</time></trkpt><trkpt lat="42.3456783" lon="13.4663817"><ele>617.0</ele><time>2026-05-03T07:18:50.754Z</time></trkpt><trkpt lat="42.3457883" lon="13.4664567"><ele>618.0</ele><time>2026-05-03T07:18:51.755Z</time></trkpt><trkpt lat="42.3458933" lon="13.4665283"><ele>619.0</ele><time>2026-05-03T07:18:52.755Z</time></trkpt><trkpt lat="42.3459983" lon="13.4666083"><ele>619.0</ele><time>2026-05-03T07:18:53.755Z</time></trkpt><trkpt lat="42.346105" lon="13.46667"><ele>619.0</ele><time>2026-05-03T07:18:54.755Z</time></trkpt><trkpt lat="42.3462017" lon="13.46673"><ele>619.0</ele><time>2026-05-03T07:18:55.755Z</time></trkpt><trkpt lat="42.3462967" lon="13.4668"><ele>619.0</ele><time>2026-05-03T07:18:56.755Z</time></trkpt><trkpt lat="42.346385" lon="13.466885"><ele>619.0</ele><time>2026-05-03T07:18:57.755Z</time></trkpt><trkpt lat="42.3464667" lon="13.4669867"><ele>619.5</ele><time>2026-05-03T07:18:58.754Z</time></trkpt><trkpt lat="42.3465467" lon="13.4671067"><ele>620.0</ele><time>2026-05-03T07:18:59.755Z</time></trkpt><trkpt lat="42.34663" lon="13.46723"><ele>620.5</ele><time>2026-05-03T07:19:00.755Z</time></trkpt><trkpt lat="42.3467067" lon="13.4673567"><ele>621.0</ele><time>2026-05-03T07:19:01.754Z</time></trkpt><trkpt lat="42.3467833" lon="13.4674983"><ele>621.0</ele><time>2026-05-03T07:19:02.754Z</time></trkpt><trkpt lat="42.3468517" lon="13.46762"><ele>621.0</ele><time>2026-05-03T07:19:03.755Z</time></trkpt><trkpt lat="42.3469167" lon="13.4677367"><ele>621.0</ele><time>2026-05-03T07:19:04.754Z</time></trkpt><trkpt lat="42.3469783" lon="13.4678267"><ele>621.0</ele><time>2026-05-03T07:19:05.754Z</time></trkpt><trkpt lat="42.3470367" lon="13.467895"><ele>621.0</ele><time>2026-05-03T07:19:06.754Z</time></trkpt><trkpt lat="42.3471067" lon="13.46792"><ele>621.0</ele><time>2026-05-03T07:19:07.755Z</time></trkpt><trkpt lat="42.3471917" lon="13.4679117"><ele>621.0</ele><time>2026-05-03T07:19:08.755Z</time></trkpt><trkpt lat="42.34729" lon="13.4678833"><ele>621.0</ele><time>2026-05-03T07:19:09.755Z</time></trkpt><trkpt lat="42.3474033" lon="13.467855"><ele>621.0</ele><time>2026-05-03T07:19:10.754Z</time></trkpt><trkpt lat="42.3475" lon="13.467845"><ele>621.0</ele><time>2026-05-03T07:19:11.754Z</time></trkpt><trkpt lat="42.3475917" lon="13.467865"><ele>621.5</ele><time>2026-05-03T07:19:12.754Z</time></trkpt><trkpt lat="42.3476917" lon="13.4679167"><ele>622.0</ele><time>2026-05-03T07:19:13.755Z</time></trkpt><trkpt lat="42.347805" lon="13.467965"><ele>622.5</ele><time>2026-05-03T07:19:14.755Z</time></trkpt><trkpt lat="42.3479417" lon="13.4680183"><ele>623.0</ele><time>2026-05-03T07:19:15.754Z</time></trkpt><trkpt lat="42.3480817" lon="13.4680667"><ele>623.6666666666666</ele><time>2026-05-03T07:19:16.755Z</time></trkpt><trkpt lat="42.3482433" lon="13.4681167"><ele>624.3333333333334</ele><time>2026-05-03T07:19:17.754Z</time></trkpt><trkpt lat="42.3484033" lon="13.46818"><ele>625.0</ele><time>2026-05-03T07:19:18.755Z</time></trkpt><trkpt lat="42.3485617" lon="13.4682533"><ele>625.0</ele><time>2026-05-03T07:19:19.755Z</time></trkpt><trkpt lat="42.3487133" lon="13.468325"><ele>625.0</ele><time>2026-05-03T07:19:20.754Z</time></trkpt><trkpt lat="42.3488583" lon="13.46839"><ele>625.0</ele><time>2026-05-03T07:19:21.755Z</time></trkpt><trkpt lat="42.3489917" lon="13.4684367"><ele>625.6</ele><time>2026-05-03T07:19:22.755Z</time></trkpt><trkpt lat="42.34911" lon="13.4684633"><ele>626.2</ele><time>2026-05-03T07:19:23.755Z</time></trkpt><trkpt lat="42.3492183" lon="13.4684883"><ele>626.8</ele><time>2026-05-03T07:19:24.755Z</time></trkpt><trkpt lat="42.349315" lon="13.4684967"><ele>627.4</ele><time>2026-05-03T07:19:25.755Z</time></trkpt><trkpt lat="42.3493967" lon="13.4685083"><ele>628.0</ele><time>2026-05-03T07:19:26.755Z</time></trkpt><trkpt lat="42.34949" lon="13.468505"><ele>628.0</ele><time>2026-05-03T07:19:27.754Z</time></trkpt><trkpt lat="42.349595" lon="13.4685067"><ele>628.0</ele><time>2026-05-03T07:19:28.755Z</time></trkpt><trkpt lat="42.3497017" lon="13.4685033"><ele>628.0</ele><time>2026-05-03T07:19:29.755Z</time></trkpt><trkpt lat="42.34982" lon="13.4685067"><ele>628.0</ele><time>2026-05-03T07:19:30.754Z</time></trkpt><trkpt lat="42.3499383" lon="13.46852"><ele>628.0</ele><time>2026-05-03T07:19:31.754Z</time></trkpt><trkpt lat="42.350065" lon="13.46856"><ele>628.25</ele><time>2026-05-03T07:19:32.754Z</time></trkpt><trkpt lat="42.35018" lon="13.4686217"><ele>628.5</ele><time>2026-05-03T07:19:33.755Z</time></trkpt><trkpt lat="42.3502933" lon="13.4686917"><ele>628.75</ele><time>2026-05-03T07:19:34.755Z</time></trkpt><trkpt lat="42.3503967" lon="13.4688017"><ele>629.0</ele><time>2026-05-03T07:19:35.754Z</time></trkpt><trkpt lat="42.350495" lon="13.4689017"><ele>629.4</ele><time>2026-05-03T07:19:36.754Z</time></trkpt><trkpt lat="42.350585" lon="13.468985"><ele>629.8</ele><time>2026-05-03T07:19:37.754Z</time></trkpt><trkpt lat="42.35069" lon="13.4690383"><ele>630.2</ele><time>2026-05-03T07:19:38.754Z</time></trkpt><trkpt lat="42.3507967" lon="13.4690633"><ele>630.6</ele><time>2026-05-03T07:19:39.755Z</time></trkpt><trkpt lat="42.350895" lon="13.4690667"><ele>631.0</ele><time>2026-05-03T07:19:40.755Z</time></trkpt><trkpt lat="42.35099" lon="13.4690633"><ele>631.0</ele><time>2026-05-03T07:19:41.754Z</time></trkpt><trkpt lat="42.35108" lon="13.469055"><ele>631.0</ele><time>2026-05-03T07:19:42.755Z</time></trkpt><trkpt lat="42.351165" lon="13.4690317"><ele>631.0</ele><time>2026-05-03T07:19:43.754Z</time></trkpt><trkpt lat="42.351305" lon="13.46894"><ele>631.0</ele><time>2026-05-03T07:19:45.755Z</time></trkpt><trkpt lat="42.35136" lon="13.468895"><ele>631.0</ele><time>2026-05-03T07:19:47.755Z</time></trkpt><trkpt lat="42.351435" lon="13.4688133"><ele>632.25</ele><time>2026-05-03T07:19:53.755Z</time></trkpt><trkpt lat="42.351515" lon="13.4687033"><ele>633.5</ele><time>2026-05-03T07:19:55.754Z</time></trkpt><trkpt lat="42.3516017" lon="13.46865"><ele>634.75</ele><time>2026-05-03T07:19:57.754Z</time></trkpt><trkpt lat="42.3517317" lon="13.468745"><ele>636.0</ele><time>2026-05-03T07:19:59.755Z</time></trkpt><trkpt lat="42.351805" lon="13.4688333"><ele>636.0</ele><time>2026-05-03T07:20:00.755Z</time></trkpt><trkpt lat="42.35187" lon="13.4689267"><ele>636.0</ele><time>2026-05-03T07:20:01.755Z</time></trkpt><trkpt lat="42.351945" lon="13.4690233"><ele>636.0</ele><time>2026-05-03T07:20:02.755Z</time></trkpt><trkpt lat="42.3520267" lon="13.4691317"><ele>636.0</ele><time>2026-05-03T07:20:03.755Z</time></trkpt><trkpt lat="42.3521117" lon="13.46924"><ele>636.0</ele><time>2026-05-03T07:20:04.754Z</time></trkpt><trkpt lat="42.35221" lon="13.4693517"><ele>636.25</ele><time>2026-05-03T07:20:05.755Z</time></trkpt><trkpt lat="42.352315" lon="13.46946"><ele>636.5</ele><time>2026-05-03T07:20:06.754Z</time></trkpt><trkpt lat="42.3524183" lon="13.4695667"><ele>636.75</ele><time>2026-05-03T07:20:07.755Z</time></trkpt><trkpt lat="42.3525233" lon="13.46969"><ele>637.0</ele><time>2026-05-03T07:20:08.755Z</time></trkpt><trkpt lat="42.3526267" lon="13.4698167"><ele>637.5</ele><time>2026-05-03T07:20:09.754Z</time></trkpt><trkpt lat="42.3527233" lon="13.4699317"><ele>638.0</ele><time>2026-05-03T07:20:10.755Z</time></trkpt><trkpt lat="42.3528333" lon="13.4700617"><ele>638.5</ele><time>2026-05-03T07:20:11.754Z</time></trkpt><trkpt lat="42.3529383" lon="13.470185"><ele>639.0</ele><time>2026-05-03T07:20:12.754Z</time></trkpt><trkpt lat="42.353035" lon="13.47033"><ele>639.75</ele><time>2026-05-03T07:20:13.755Z</time></trkpt><trkpt lat="42.3531217" lon="13.470465"><ele>640.5</ele><time>2026-05-03T07:20:14.755Z</time></trkpt><trkpt lat="42.3532" lon="13.4706117"><ele>641.25</ele><time>2026-05-03T07:20:15.754Z</time></trkpt><trkpt lat="42.3532817" lon="13.47076"><ele>642.0</ele><time>2026-05-03T07:20:16.754Z</time></trkpt><trkpt lat="42.3533483" lon="13.4708917"><ele>642.0</ele><time>2026-05-03T07:20:17.755Z</time></trkpt><trkpt lat="42.3534" lon="13.4710233"><ele>642.0</ele><time>2026-05-03T07:20:18.755Z</time></trkpt><trkpt lat="42.3534517" lon="13.4711517"><ele>642.0</ele><time>2026-05-03T07:20:19.754Z</time></trkpt><trkpt lat="42.3535083" lon="13.4712533"><ele>642.0</ele><time>2026-05-03T07:20:20.755Z</time></trkpt><trkpt lat="42.3535683" lon="13.4713333"><ele>642.0</ele><time>2026-05-03T07:20:21.754Z</time></trkpt><trkpt lat="42.3536517" lon="13.47142"><ele>642.0</ele><time>2026-05-03T07:20:23.755Z</time></trkpt><trkpt lat="42.3536983" lon="13.471485"><ele>642.0</ele><time>2026-05-03T07:20:26.754Z</time></trkpt><trkpt lat="42.35376" lon="13.4715133"><ele>642.0</ele><time>2026-05-03T07:20:31.755Z</time></trkpt><trkpt lat="42.35388" lon="13.4714983"><ele>642.0</ele><time>2026-05-03T07:20:33.755Z</time></trkpt><trkpt lat="42.3539683" lon="13.4714867"><ele>642.0</ele><time>2026-05-03T07:20:34.754Z</time></trkpt><trkpt lat="42.3540717" lon="13.471465"><ele>642.0</ele><time>2026-05-03T07:20:35.755Z</time></trkpt><trkpt lat="42.35418" lon="13.47144"><ele>642.3333333333334</ele><time>2026-05-03T07:20:36.755Z</time></trkpt><trkpt lat="42.3542817" lon="13.4714117"><ele>642.6666666666666</ele><time>2026-05-03T07:20:37.754Z</time></trkpt><trkpt lat="42.3543717" lon="13.4714017"><ele>643.0</ele><time>2026-05-03T07:20:38.754Z</time></trkpt><trkpt lat="42.3544533" lon="13.4714117"><ele>643.3333333333333</ele><time>2026-05-03T07:20:39.755Z</time></trkpt><trkpt lat="42.354525" lon="13.4714433"><ele>643.6666666666666</ele><time>2026-05-03T07:20:40.755Z</time></trkpt><trkpt lat="42.354595" lon="13.4715033"><ele>644.0</ele><time>2026-05-03T07:20:41.754Z</time></trkpt><trkpt lat="42.3546633" lon="13.4716017"><ele>644.75</ele><time>2026-05-03T07:20:42.755Z</time></trkpt><trkpt lat="42.3547583" lon="13.4717183"><ele>645.5</ele><time>2026-05-03T07:20:43.755Z</time></trkpt><trkpt lat="42.3548583" lon="13.47184"><ele>646.25</ele><time>2026-05-03T07:20:44.755Z</time></trkpt><trkpt lat="42.3549567" lon="13.4719717"><ele>647.0</ele><time>2026-05-03T07:20:45.754Z</time></trkpt><trkpt lat="42.3550617" lon="13.4721017"><ele>647.0</ele><time>2026-05-03T07:20:46.755Z</time></trkpt><trkpt lat="42.3551717" lon="13.4722383"><ele>647.0</ele><time>2026-05-03T07:20:47.754Z</time></trkpt><trkpt lat="42.3552883" lon="13.47238"><ele>647.0</ele><time>2026-05-03T07:20:48.755Z</time></trkpt><trkpt lat="42.3554033" lon="13.4725133"><ele>647.0</ele><time>2026-05-03T07:20:49.754Z</time></trkpt><trkpt lat="42.3555083" lon="13.4726317"><ele>647.0</ele><time>2026-05-03T07:20:50.755Z</time></trkpt><trkpt lat="42.3556017" lon="13.47275"><ele>647.0</ele><time>2026-05-03T07:20:51.755Z</time></trkpt><trkpt lat="42.355705" lon="13.4728617"><ele>647.0</ele><time>2026-05-03T07:20:52.755Z</time></trkpt><trkpt lat="42.355815" lon="13.4729733"><ele>647.75</ele><time>2026-05-03T07:20:53.755Z</time></trkpt><trkpt lat="42.3559133" lon="13.4730767"><ele>648.5</ele><time>2026-05-03T07:20:54.754Z</time></trkpt><trkpt lat="42.356005" lon="13.47318"><ele>649.25</ele><time>2026-05-03T07:20:55.755Z</time></trkpt><trkpt lat="42.3560967" lon="13.473275"><ele>650.0</ele><time>2026-05-03T07:20:56.754Z</time></trkpt><trkpt lat="42.35617" lon="13.473355"><ele>650.0</ele><time>2026-05-03T07:20:57.754Z</time></trkpt><trkpt lat="42.3562233" lon="13.473425"><ele>650.0</ele><time>2026-05-03T07:20:58.754Z</time></trkpt><trkpt lat="42.3563267" lon="13.4734917"><ele>650.0</ele><time>2026-05-03T07:21:00.754Z</time></trkpt><trkpt lat="42.3564067" lon="13.47352"><ele>650.0</ele><time>2026-05-03T07:21:02.755Z</time></trkpt><trkpt lat="42.3564867" lon="13.4735567"><ele>650.0</ele><time>2026-05-03T07:21:04.755Z</time></trkpt><trkpt lat="42.3565867" lon="13.473665"><ele>650.6</ele><time>2026-05-03T07:21:06.755Z</time></trkpt><trkpt lat="42.3566217" lon="13.4737533"><ele>651.2</ele><time>2026-05-03T07:21:07.755Z</time></trkpt><trkpt lat="42.3566583" lon="13.4738717"><ele>651.8</ele><time>2026-05-03T07:21:08.754Z</time></trkpt><trkpt lat="42.3567083" lon="13.4740017"><ele>652.4</ele><time>2026-05-03T07:21:09.755Z</time></trkpt><trkpt lat="42.3567567" lon="13.474145"><ele>653.0</ele><time>2026-05-03T07:21:10.754Z</time></trkpt><trkpt lat="42.3568" lon="13.4742767"><ele>653.75</ele><time>2026-05-03T07:21:11.754Z</time></trkpt><trkpt lat="42.356855" lon="13.4744233"><ele>654.5</ele><time>2026-05-03T07:21:12.754Z</time></trkpt><trkpt lat="42.35691" lon="13.4745667"><ele>655.25</ele><time>2026-05-03T07:21:13.755Z</time></trkpt><trkpt lat="42.3569633" lon="13.4747267"><ele>656.0</ele><time>2026-05-03T07:21:14.754Z</time></trkpt><trkpt lat="42.3570233" lon="13.4748883"><ele>658.25</ele><time>2026-05-03T07:21:15.754Z</time></trkpt><trkpt lat="42.3570717" lon="13.4750567"><ele>660.5</ele><time>2026-05-03T07:21:16.754Z</time></trkpt><trkpt lat="42.3571067" lon="13.475235"><ele>662.75</ele><time>2026-05-03T07:21:17.754Z</time></trkpt><trkpt lat="42.35713" lon="13.475425"><ele>665.0</ele><time>2026-05-03T07:21:18.754Z</time></trkpt><trkpt lat="42.3571667" lon="13.4755983"><ele>666.5</ele><time>2026-05-03T07:21:19.754Z</time></trkpt><trkpt lat="42.3572" lon="13.475765"><ele>668.0</ele><time>2026-05-03T07:21:20.755Z</time></trkpt><trkpt lat="42.3572233" lon="13.4759233"><ele>669.5</ele><time>2026-05-03T07:21:21.754Z</time></trkpt><trkpt lat="42.35723" lon="13.476075"><ele>671.0</ele><time>2026-05-03T07:21:22.754Z</time></trkpt><trkpt lat="42.3572133" lon="13.4762417"><ele>674.0</ele><time>2026-05-03T07:21:23.755Z</time></trkpt><trkpt lat="42.357205" lon="13.4764"><ele>677.0</ele><time>2026-05-03T07:21:24.755Z</time></trkpt><trkpt lat="42.3572083" lon="13.4765733"><ele>680.0</ele><time>2026-05-03T07:21:25.754Z</time></trkpt><trkpt lat="42.3572233" lon="13.4767517"><ele>683.0</ele><time>2026-05-03T07:21:26.755Z</time></trkpt><trkpt lat="42.35724" lon="13.4769267"><ele>683.0</ele><time>2026-05-03T07:21:27.755Z</time></trkpt><trkpt lat="42.3572517" lon="13.4770817"><ele>683.0</ele><time>2026-05-03T07:21:28.755Z</time></trkpt><trkpt lat="42.357275" lon="13.4772033"><ele>683.0</ele><time>2026-05-03T07:21:29.754Z</time></trkpt><trkpt lat="42.357295" lon="13.477305"><ele>683.0</ele><time>2026-05-03T07:21:30.755Z</time></trkpt><trkpt lat="42.35731" lon="13.47739"><ele>683.0</ele><time>2026-05-03T07:21:31.755Z</time></trkpt><trkpt lat="42.3573667" lon="13.4775417"><ele>684.0</ele><time>2026-05-03T07:21:33.754Z</time></trkpt><trkpt lat="42.3574017" lon="13.4776333"><ele>685.0</ele><time>2026-05-03T07:21:34.755Z</time></trkpt><trkpt lat="42.357445" lon="13.4777267"><ele>686.0</ele><time>2026-05-03T07:21:35.754Z</time></trkpt><trkpt lat="42.3574883" lon="13.4778183"><ele>687.0</ele><time>2026-05-03T07:21:36.755Z</time></trkpt><trkpt lat="42.3575383" lon="13.477905"><ele>688.0</ele><time>2026-05-03T07:21:37.755Z</time></trkpt><trkpt lat="42.3575983" lon="13.477975"><ele>689.0</ele><time>2026-05-03T07:21:38.754Z</time></trkpt><trkpt lat="42.35767" lon="13.4780433"><ele>690.6</ele><time>2026-05-03T07:21:39.755Z</time></trkpt><trkpt lat="42.35775" lon="13.4781033"><ele>692.2</ele><time>2026-05-03T07:21:40.755Z</time></trkpt><trkpt lat="42.3578383" lon="13.4781367"><ele>693.8000000000001</ele><time>2026-05-03T07:21:41.755Z</time></trkpt><trkpt lat="42.35794" lon="13.4781717"><ele>695.4000000000001</ele><time>2026-05-03T07:21:42.755Z</time></trkpt><trkpt lat="42.3580417" lon="13.4782183"><ele>697.0</ele><time>2026-05-03T07:21:43.754Z</time></trkpt><trkpt lat="42.358145" lon="13.4782633"><ele>698.5</ele><time>2026-05-03T07:21:44.755Z</time></trkpt><trkpt lat="42.358245" lon="13.4783083"><ele>700.0</ele><time>2026-05-03T07:21:45.754Z</time></trkpt><trkpt lat="42.3583333" lon="13.47835"><ele>701.5</ele><time>2026-05-03T07:21:46.755Z</time></trkpt><trkpt lat="42.3584067" lon="13.478385"><ele>703.0</ele><time>2026-05-03T07:21:47.754Z</time></trkpt><trkpt lat="42.35848" lon="13.4784133"><ele>704.5</ele><time>2026-05-03T07:21:48.754Z</time></trkpt><trkpt lat="42.3585467" lon="13.4784433"><ele>706.0</ele><time>2026-05-03T07:21:49.754Z</time></trkpt><trkpt lat="42.3586167" lon="13.47847"><ele>706.0</ele><time>2026-05-03T07:21:50.754Z</time></trkpt><trkpt lat="42.3586933" lon="13.4785033"><ele>706.0</ele><time>2026-05-03T07:21:51.755Z</time></trkpt><trkpt lat="42.3587583" lon="13.4785283"><ele>706.0</ele><time>2026-05-03T07:21:52.755Z</time></trkpt><trkpt lat="42.3588683" lon="13.47858"><ele>706.0</ele><time>2026-05-03T07:21:54.755Z</time></trkpt><trkpt lat="42.3589367" lon="13.478595"><ele>706.0</ele><time>2026-05-03T07:21:57.754Z</time></trkpt><trkpt lat="42.35888" lon="13.478545"><ele>706.0</ele><time>2026-05-03T07:22:13.755Z</time></trkpt><trkpt lat="42.3588117" lon="13.47851"><ele>706.0</ele><time>2026-05-03T07:22:15.755Z</time></trkpt><trkpt lat="42.3586833" lon="13.47846"><ele>706.0</ele><time>2026-05-03T07:22:17.755Z</time></trkpt><trkpt lat="42.3586083" lon="13.4784233"><ele>706.0</ele><time>2026-05-03T07:22:18.754Z</time></trkpt><trkpt lat="42.358515" lon="13.4783767"><ele>706.0</ele><time>2026-05-03T07:22:19.755Z</time></trkpt><trkpt lat="42.358425" lon="13.47833"><ele>706.0</ele><time>2026-05-03T07:22:20.755Z</time></trkpt><trkpt lat="42.3583383" lon="13.4782833"><ele>706.0</ele><time>2026-05-03T07:22:21.755Z</time></trkpt><trkpt lat="42.3582517" lon="13.478235"><ele>706.0</ele><time>2026-05-03T07:22:22.755Z</time></trkpt><trkpt lat="42.3581667" lon="13.478185"><ele>706.0</ele><time>2026-05-03T07:22:23.755Z</time></trkpt><trkpt lat="42.3580817" lon="13.4781433"><ele>706.0</ele><time>2026-05-03T07:22:24.755Z</time></trkpt><trkpt lat="42.358005" lon="13.4780983"><ele>706.0</ele><time>2026-05-03T07:22:25.755Z</time></trkpt><trkpt lat="42.3578917" lon="13.4780467"><ele>704.5</ele><time>2026-05-03T07:22:27.754Z</time></trkpt><trkpt lat="42.3577767" lon="13.478"><ele>703.0</ele><time>2026-05-03T07:22:29.754Z</time></trkpt><trkpt lat="42.3577117" lon="13.4779667"><ele>701.5</ele><time>2026-05-03T07:22:30.755Z</time></trkpt><trkpt lat="42.35764" lon="13.4779233"><ele>700.0</ele><time>2026-05-03T07:22:31.755Z</time></trkpt><trkpt lat="42.3575767" lon="13.4778717"><ele>698.5</ele><time>2026-05-03T07:22:32.754Z</time></trkpt><trkpt lat="42.3575183" lon="13.4777967"><ele>697.0</ele><time>2026-05-03T07:22:33.754Z</time></trkpt><trkpt lat="42.3574583" lon="13.4777033"><ele>695.8571428571429</ele><time>2026-05-03T07:22:34.754Z</time></trkpt><trkpt lat="42.3574167" lon="13.4776167"><ele>694.7142857142857</ele><time>2026-05-03T07:22:35.755Z</time></trkpt><trkpt lat="42.35738" lon="13.4775383"><ele>693.5714285714286</ele><time>2026-05-03T07:22:36.755Z</time></trkpt><trkpt lat="42.3573417" lon="13.4774533"><ele>692.4285714285714</ele><time>2026-05-03T07:22:38.755Z</time></trkpt><trkpt lat="42.3572983" lon="13.4775167"><ele>691.2857142857143</ele><time>2026-05-03T07:22:41.755Z</time></trkpt><trkpt lat="42.3573083" lon="13.4776383"><ele>690.1428571428571</ele><time>2026-05-03T07:22:43.755Z</time></trkpt><trkpt lat="42.3573283" lon="13.477735"><ele>689.0</ele><time>2026-05-03T07:22:44.754Z</time></trkpt><trkpt lat="42.3573417" lon="13.47784"><ele>690.6</ele><time>2026-05-03T07:22:45.755Z</time></trkpt><trkpt lat="42.3573617" lon="13.47797"><ele>692.2</ele><time>2026-05-03T07:22:46.754Z</time></trkpt><trkpt lat="42.35739" lon="13.4780933"><ele>693.8000000000001</ele><time>2026-05-03T07:22:47.755Z</time></trkpt><trkpt lat="42.3574283" lon="13.4782217"><ele>695.4000000000001</ele><time>2026-05-03T07:22:48.755Z</time></trkpt><trkpt lat="42.357455" lon="13.47834"><ele>697.0</ele><time>2026-05-03T07:22:49.755Z</time></trkpt><trkpt lat="42.3574833" lon="13.4784433"><ele>697.0</ele><time>2026-05-03T07:22:50.754Z</time></trkpt><trkpt lat="42.3575067" lon="13.4785467"><ele>697.0</ele><time>2026-05-03T07:22:51.755Z</time></trkpt><trkpt lat="42.3575233" lon="13.478655"><ele>697.0</ele><time>2026-05-03T07:22:52.755Z</time></trkpt><trkpt lat="42.35754" lon="13.478765"><ele>697.0</ele><time>2026-05-03T07:22:53.754Z</time></trkpt><trkpt lat="42.3575617" lon="13.4788883"><ele>697.0</ele><time>2026-05-03T07:22:54.753Z</time></trkpt><trkpt lat="42.3575767" lon="13.47901"><ele>697.0</ele><time>2026-05-03T07:22:55.753Z</time></trkpt><trkpt lat="42.3575967" lon="13.479155"><ele>699.25</ele><time>2026-05-03T07:22:56.754Z</time></trkpt><trkpt lat="42.35762" lon="13.479315"><ele>701.5</ele><time>2026-05-03T07:22:57.753Z</time></trkpt><trkpt lat="42.357645" lon="13.4794817"><ele>703.75</ele><time>2026-05-03T07:22:58.754Z</time></trkpt><trkpt lat="42.3576633" lon="13.4796433"><ele>706.0</ele><time>2026-05-03T07:22:59.754Z</time></trkpt><trkpt lat="42.35768" lon="13.47982"><ele>708.25</ele><time>2026-05-03T07:23:00.753Z</time></trkpt><trkpt lat="42.3577133" lon="13.479995"><ele>710.5</ele><time>2026-05-03T07:23:01.754Z</time></trkpt><trkpt lat="42.3577383" lon="13.4801567"><ele>712.75</ele><time>2026-05-03T07:23:02.754Z</time></trkpt><trkpt lat="42.3577383" lon="13.480315"><ele>715.0</ele><time>2026-05-03T07:23:03.753Z</time></trkpt><trkpt lat="42.357715" lon="13.480445"><ele>716.3333333333334</ele><time>2026-05-03T07:23:04.754Z</time></trkpt><trkpt lat="42.3576867" lon="13.4805733"><ele>717.6666666666667</ele><time>2026-05-03T07:23:05.754Z</time></trkpt><trkpt lat="42.3576733" lon="13.4806967"><ele>719.0</ele><time>2026-05-03T07:23:06.754Z</time></trkpt><trkpt lat="42.3576733" lon="13.4808217"><ele>720.3333333333334</ele><time>2026-05-03T07:23:07.754Z</time></trkpt><trkpt lat="42.3576967" lon="13.480925"><ele>721.6666666666666</ele><time>2026-05-03T07:23:08.754Z</time></trkpt><trkpt lat="42.3577183" lon="13.481015"><ele>723.0</ele><time>2026-05-03T07:23:09.754Z</time></trkpt><trkpt lat="42.3577283" lon="13.4811017"><ele>723.0</ele><time>2026-05-03T07:23:10.753Z</time></trkpt><trkpt lat="42.3577317" lon="13.4811933"><ele>723.0</ele><time>2026-05-03T07:23:11.753Z</time></trkpt><trkpt lat="42.357725" lon="13.4813017"><ele>723.0</ele><time>2026-05-03T07:23:12.754Z</time></trkpt><trkpt lat="42.35772" lon="13.4814267"><ele>723.0</ele><time>2026-05-03T07:23:13.753Z</time></trkpt><trkpt lat="42.3576983" lon="13.4815533"><ele>723.0</ele><time>2026-05-03T07:23:14.754Z</time></trkpt><trkpt lat="42.35768" lon="13.4816717"><ele>723.0</ele><time>2026-05-03T07:23:15.753Z</time></trkpt><trkpt lat="42.3576583" lon="13.481785"><ele>724.6666666666666</ele><time>2026-05-03T07:23:16.754Z</time></trkpt><trkpt lat="42.35763" lon="13.48189"><ele>726.3333333333334</ele><time>2026-05-03T07:23:17.754Z</time></trkpt><trkpt lat="42.35761" lon="13.4820067"><ele>728.0</ele><time>2026-05-03T07:23:18.754Z</time></trkpt><trkpt lat="42.35759" lon="13.4821267"><ele>729.6666666666667</ele><time>2026-05-03T07:23:19.753Z</time></trkpt><trkpt lat="42.3575717" lon="13.4822467"><ele>731.3333333333334</ele><time>2026-05-03T07:23:20.753Z</time></trkpt><trkpt lat="42.3575583" lon="13.4823483"><ele>733.0</ele><time>2026-05-03T07:23:21.753Z</time></trkpt><trkpt lat="42.3575467" lon="13.4824567"><ele>734.6666666666667</ele><time>2026-05-03T07:23:22.754Z</time></trkpt><trkpt lat="42.3575417" lon="13.4825667"><ele>736.3333333333334</ele><time>2026-05-03T07:23:23.754Z</time></trkpt><trkpt lat="42.3575533" lon="13.482695"><ele>738.0</ele><time>2026-05-03T07:23:24.754Z</time></trkpt><trkpt lat="42.35757" lon="13.4828067"><ele>739.6666666666666</ele><time>2026-05-03T07:23:25.754Z</time></trkpt><trkpt lat="42.3575783" lon="13.4828917"><ele>741.3333333333333</ele><time>2026-05-03T07:23:26.754Z</time></trkpt><trkpt lat="42.3575867" lon="13.4829883"><ele>743.0</ele><time>2026-05-03T07:23:27.754Z</time></trkpt><trkpt lat="42.3575933" lon="13.4830867"><ele>744.1666666666666</ele><time>2026-05-03T07:23:28.754Z</time></trkpt><trkpt lat="42.3575967" lon="13.4832017"><ele>745.3333333333333</ele><time>2026-05-03T07:23:29.754Z</time></trkpt><trkpt lat="42.3576017" lon="13.48331"><ele>746.5</ele><time>2026-05-03T07:23:30.753Z</time></trkpt><trkpt lat="42.3576067" lon="13.4834183"><ele>747.6666666666666</ele><time>2026-05-03T07:23:31.754Z</time></trkpt><trkpt lat="42.35762" lon="13.4835283"><ele>748.8333333333334</ele><time>2026-05-03T07:23:32.754Z</time></trkpt><trkpt lat="42.3576267" lon="13.4836217"><ele>750.0</ele><time>2026-05-03T07:23:33.753Z</time></trkpt><trkpt lat="42.3576467" lon="13.4837183"><ele>750.6666666666666</ele><time>2026-05-03T07:23:34.754Z</time></trkpt><trkpt lat="42.35766" lon="13.4838167"><ele>751.3333333333334</ele><time>2026-05-03T07:23:35.754Z</time></trkpt><trkpt lat="42.3576817" lon="13.4839183"><ele>752.0</ele><time>2026-05-03T07:23:36.754Z</time></trkpt><trkpt lat="42.3576983" lon="13.484035"><ele>752.6666666666667</ele><time>2026-05-03T07:23:37.753Z</time></trkpt><trkpt lat="42.3577217" lon="13.48417"><ele>753.3333333333334</ele><time>2026-05-03T07:23:38.754Z</time></trkpt><trkpt lat="42.3577383" lon="13.4843117"><ele>754.0</ele><time>2026-05-03T07:23:39.753Z</time></trkpt><trkpt lat="42.3577483" lon="13.4844517"><ele>754.0</ele><time>2026-05-03T07:23:40.754Z</time></trkpt><trkpt lat="42.3577517" lon="13.4845683"><ele>754.0</ele><time>2026-05-03T07:23:41.754Z</time></trkpt><trkpt lat="42.3577517" lon="13.4846883"><ele>754.0</ele><time>2026-05-03T07:23:42.754Z</time></trkpt><trkpt lat="42.3577467" lon="13.4848183"><ele>754.0</ele><time>2026-05-03T07:23:43.754Z</time></trkpt><trkpt lat="42.3577283" lon="13.4849567"><ele>754.0</ele><time>2026-05-03T07:23:44.753Z</time></trkpt><trkpt lat="42.357705" lon="13.48509"><ele>754.5</ele><time>2026-05-03T07:23:45.753Z</time></trkpt><trkpt lat="42.3576867" lon="13.4852017"><ele>755.0</ele><time>2026-05-03T07:23:46.754Z</time></trkpt><trkpt lat="42.35768" lon="13.4853117"><ele>755.5</ele><time>2026-05-03T07:23:47.754Z</time></trkpt><trkpt lat="42.3576767" lon="13.485415"><ele>756.0</ele><time>2026-05-03T07:23:48.753Z</time></trkpt><trkpt lat="42.357675" lon="13.4855033"><ele>756.5</ele><time>2026-05-03T07:23:49.754Z</time></trkpt><trkpt lat="42.3576733" lon="13.485675"><ele>757.0</ele><time>2026-05-03T07:23:51.754Z</time></trkpt><trkpt lat="42.3576733" lon="13.485835"><ele>757.0</ele><time>2026-05-03T07:23:53.754Z</time></trkpt><trkpt lat="42.3576833" lon="13.4859267"><ele>757.0</ele><time>2026-05-03T07:23:54.753Z</time></trkpt><trkpt lat="42.3577083" lon="13.4860233"><ele>757.0</ele><time>2026-05-03T07:23:55.754Z</time></trkpt><trkpt lat="42.35774" lon="13.4861333"><ele>757.0</ele><time>2026-05-03T07:23:56.754Z</time></trkpt><trkpt lat="42.35778" lon="13.4862267"><ele>757.0</ele><time>2026-05-03T07:23:57.754Z</time></trkpt><trkpt lat="42.3578233" lon="13.4863233"><ele>757.0</ele><time>2026-05-03T07:23:58.754Z</time></trkpt><trkpt lat="42.3578783" lon="13.4864167"><ele>756.0</ele><time>2026-05-03T07:23:59.754Z</time></trkpt><trkpt lat="42.357935" lon="13.4865167"><ele>755.0</ele><time>2026-05-03T07:24:00.754Z</time></trkpt><trkpt lat="42.3579933" lon="13.4866167"><ele>754.0</ele><time>2026-05-03T07:24:01.754Z</time></trkpt><trkpt lat="42.358055" lon="13.4867067"><ele>753.0</ele><time>2026-05-03T07:24:02.754Z</time></trkpt><trkpt lat="42.35813" lon="13.4867883"><ele>752.0</ele><time>2026-05-03T07:24:03.753Z</time></trkpt><trkpt lat="42.3581983" lon="13.4868733"><ele>754.2</ele><time>2026-05-03T07:24:04.753Z</time></trkpt><trkpt lat="42.35827" lon="13.4869533"><ele>756.4000000000001</ele><time>2026-05-03T07:24:05.754Z</time></trkpt><trkpt lat="42.358335" lon="13.487035"><ele>758.5999999999999</ele><time>2026-05-03T07:24:06.754Z</time></trkpt><trkpt lat="42.3583983" lon="13.4871083"><ele>760.8</ele><time>2026-05-03T07:24:07.754Z</time></trkpt><trkpt lat="42.3584767" lon="13.4871883"><ele>763.0</ele><time>2026-05-03T07:24:08.753Z</time></trkpt><trkpt lat="42.3585467" lon="13.4872783"><ele>763.0</ele><time>2026-05-03T07:24:09.753Z</time></trkpt><trkpt lat="42.35862" lon="13.4873633"><ele>763.0</ele><time>2026-05-03T07:24:10.753Z</time></trkpt><trkpt lat="42.3586817" lon="13.4874483"><ele>763.0</ele><time>2026-05-03T07:24:11.754Z</time></trkpt><trkpt lat="42.3587433" lon="13.487545"><ele>763.0</ele><time>2026-05-03T07:24:12.753Z</time></trkpt><trkpt lat="42.3587933" lon="13.48766"><ele>763.0</ele><time>2026-05-03T07:24:13.753Z</time></trkpt><trkpt lat="42.3588367" lon="13.4877683"><ele>765.8333333333334</ele><time>2026-05-03T07:24:14.754Z</time></trkpt><trkpt lat="42.3588967" lon="13.4878783"><ele>768.6666666666667</ele><time>2026-05-03T07:24:15.754Z</time></trkpt><trkpt lat="42.3589517" lon="13.487975"><ele>771.5</ele><time>2026-05-03T07:24:16.754Z</time></trkpt><trkpt lat="42.358995" lon="13.4880467"><ele>774.3333333333334</ele><time>2026-05-03T07:24:17.754Z</time></trkpt><trkpt lat="42.3590417" lon="13.4881317"><ele>777.1666666666666</ele><time>2026-05-03T07:24:19.754Z</time></trkpt><trkpt lat="42.359125" lon="13.4882083"><ele>780.0</ele><time>2026-05-03T07:24:22.753Z</time></trkpt><trkpt lat="42.3592117" lon="13.4883217"><ele>780.0</ele><time>2026-05-03T07:24:24.754Z</time></trkpt><trkpt lat="42.3592583" lon="13.4883883"><ele>780.0</ele><time>2026-05-03T07:24:25.754Z</time></trkpt><trkpt lat="42.3593133" lon="13.488465"><ele>780.0</ele><time>2026-05-03T07:24:26.754Z</time></trkpt><trkpt lat="42.3593683" lon="13.48854"><ele>780.0</ele><time>2026-05-03T07:24:27.753Z</time></trkpt><trkpt lat="42.3594167" lon="13.48862"><ele>780.0</ele><time>2026-05-03T07:24:28.754Z</time></trkpt><trkpt lat="42.3594667" lon="13.4887017"><ele>780.0</ele><time>2026-05-03T07:24:29.754Z</time></trkpt><trkpt lat="42.3595083" lon="13.488785"><ele>781.1666666666666</ele><time>2026-05-03T07:24:30.753Z</time></trkpt><trkpt lat="42.3595417" lon="13.4888583"><ele>782.3333333333333</ele><time>2026-05-03T07:24:31.754Z</time></trkpt><trkpt lat="42.3595967" lon="13.4890017"><ele>783.5</ele><time>2026-05-03T07:24:33.754Z</time></trkpt><trkpt lat="42.3596367" lon="13.4890683"><ele>784.6666666666666</ele><time>2026-05-03T07:24:34.753Z</time></trkpt><trkpt lat="42.3596783" lon="13.4891333"><ele>785.8333333333333</ele><time>2026-05-03T07:24:35.753Z</time></trkpt><trkpt lat="42.359725" lon="13.4892067"><ele>787.0</ele><time>2026-05-03T07:24:36.754Z</time></trkpt><trkpt lat="42.3597817" lon="13.489265"><ele>787.8333333333333</ele><time>2026-05-03T07:24:37.754Z</time></trkpt><trkpt lat="42.359845" lon="13.4893233"><ele>788.6666666666666</ele><time>2026-05-03T07:24:38.753Z</time></trkpt><trkpt lat="42.3599283" lon="13.4893833"><ele>789.5</ele><time>2026-05-03T07:24:39.754Z</time></trkpt><trkpt lat="42.3600233" lon="13.489435"><ele>790.3333333333333</ele><time>2026-05-03T07:24:40.753Z</time></trkpt><trkpt lat="42.36009" lon="13.4894783"><ele>791.1666666666666</ele><time>2026-05-03T07:24:41.753Z</time></trkpt><trkpt lat="42.3601567" lon="13.4895267"><ele>792.0</ele><time>2026-05-03T07:24:42.754Z</time></trkpt><trkpt lat="42.360265" lon="13.4896367"><ele>793.0</ele><time>2026-05-03T07:24:44.754Z</time></trkpt><trkpt lat="42.3603217" lon="13.489705"><ele>794.0</ele><time>2026-05-03T07:24:45.754Z</time></trkpt><trkpt lat="42.3603883" lon="13.4897617"><ele>795.0</ele><time>2026-05-03T07:24:46.754Z</time></trkpt><trkpt lat="42.3604567" lon="13.4898017"><ele>796.0</ele><time>2026-05-03T07:24:47.753Z</time></trkpt><trkpt lat="42.36056" lon="13.4898667"><ele>797.0</ele><time>2026-05-03T07:24:49.754Z</time></trkpt><trkpt lat="42.3606633" lon="13.4899517"><ele>797.5000000000001</ele><time>2026-05-03T07:24:51.754Z</time></trkpt><trkpt lat="42.3607333" lon="13.4900233"><ele>798.0</ele><time>2026-05-03T07:24:52.754Z</time></trkpt><trkpt lat="42.3608017" lon="13.4900933"><ele>798.5</ele><time>2026-05-03T07:24:53.753Z</time></trkpt><trkpt lat="42.36087" lon="13.4901517"><ele>799.0</ele><time>2026-05-03T07:24:54.754Z</time></trkpt><trkpt lat="42.36094" lon="13.4902017"><ele>799.5000000000001</ele><time>2026-05-03T07:24:55.753Z</time></trkpt><trkpt lat="42.3610117" lon="13.4902483"><ele>800.0</ele><time>2026-05-03T07:24:56.754Z</time></trkpt><trkpt lat="42.3610717" lon="13.4903"><ele>800.0000000000001</ele><time>2026-05-03T07:24:57.754Z</time></trkpt><trkpt lat="42.36113" lon="13.490345"><ele>800.0</ele><time>2026-05-03T07:24:58.754Z</time></trkpt><trkpt lat="42.3612067" lon="13.4904"><ele>800.0</ele><time>2026-05-03T07:24:59.753Z</time></trkpt><trkpt lat="42.3612733" lon="13.4904533"><ele>800.0</ele><time>2026-05-03T07:25:00.753Z</time></trkpt><trkpt lat="42.3613333" lon="13.4905233"><ele>800.0000000000001</ele><time>2026-05-03T07:25:01.753Z</time></trkpt><trkpt lat="42.361385" lon="13.49059"><ele>800.0</ele><time>2026-05-03T07:25:02.754Z</time></trkpt><trkpt lat="42.3614833" lon="13.4906867"><ele>802.0000000000001</ele><time>2026-05-03T07:25:04.753Z</time></trkpt><trkpt lat="42.36159" lon="13.4907517"><ele>804.0</ele><time>2026-05-03T07:25:06.754Z</time></trkpt><trkpt lat="42.3616583" lon="13.4907983"><ele>806.0</ele><time>2026-05-03T07:25:07.754Z</time></trkpt><trkpt lat="42.3617167" lon="13.49086"><ele>808.0</ele><time>2026-05-03T07:25:08.754Z</time></trkpt><trkpt lat="42.3617733" lon="13.4908983"><ele>810.0000000000001</ele><time>2026-05-03T07:25:09.754Z</time></trkpt><trkpt lat="42.361835" lon="13.4909283"><ele>812.0</ele><time>2026-05-03T07:25:10.754Z</time></trkpt><trkpt lat="42.3618967" lon="13.4909633"><ele>812.0</ele><time>2026-05-03T07:25:11.753Z</time></trkpt><trkpt lat="42.3619583" lon="13.4910183"><ele>812.0</ele><time>2026-05-03T07:25:12.753Z</time></trkpt><trkpt lat="42.362015" lon="13.4910867"><ele>812.0</ele><time>2026-05-03T07:25:13.754Z</time></trkpt><trkpt lat="42.3620583" lon="13.49116"><ele>812.0</ele><time>2026-05-03T07:25:14.754Z</time></trkpt><trkpt lat="42.3621" lon="13.4912333"><ele>812.0</ele><time>2026-05-03T07:25:15.754Z</time></trkpt><trkpt lat="42.3621483" lon="13.4913133"><ele>812.0</ele><time>2026-05-03T07:25:16.754Z</time></trkpt><trkpt lat="42.3621983" lon="13.491385"><ele>812.0</ele><time>2026-05-03T07:25:17.754Z</time></trkpt><trkpt lat="42.36225" lon="13.491445"><ele>813.1666666666667</ele><time>2026-05-03T07:25:18.753Z</time></trkpt><trkpt lat="42.362295" lon="13.4915067"><ele>814.3333333333334</ele><time>2026-05-03T07:25:19.753Z</time></trkpt><trkpt lat="42.3623917" lon="13.491605"><ele>815.5</ele><time>2026-05-03T07:25:21.754Z</time></trkpt><trkpt lat="42.36244" lon="13.4916633"><ele>816.6666666666667</ele><time>2026-05-03T07:25:22.754Z</time></trkpt><trkpt lat="42.3624867" lon="13.4917283"><ele>817.8333333333334</ele><time>2026-05-03T07:25:23.754Z</time></trkpt><trkpt lat="42.362525" lon="13.4918017"><ele>819.0</ele><time>2026-05-03T07:25:24.754Z</time></trkpt><trkpt lat="42.36256" lon="13.4918817"><ele>819.0</ele><time>2026-05-03T07:25:25.754Z</time></trkpt><trkpt lat="42.3625917" lon="13.4919633"><ele>819.0</ele><time>2026-05-03T07:25:26.754Z</time></trkpt><trkpt lat="42.3626233" lon="13.4920567"><ele>819.0</ele><time>2026-05-03T07:25:27.753Z</time></trkpt><trkpt lat="42.36265" lon="13.4921517"><ele>819.0</ele><time>2026-05-03T07:25:28.753Z</time></trkpt><trkpt lat="42.3626767" lon="13.492255"><ele>819.0</ele><time>2026-05-03T07:25:29.754Z</time></trkpt><trkpt lat="42.3627083" lon="13.4923617"><ele>819.0</ele><time>2026-05-03T07:25:30.754Z</time></trkpt><trkpt lat="42.3627417" lon="13.4924717"><ele>820.2857142857143</ele><time>2026-05-03T07:25:31.753Z</time></trkpt><trkpt lat="42.3627617" lon="13.49257"><ele>821.5714285714286</ele><time>2026-05-03T07:25:32.754Z</time></trkpt><trkpt lat="42.3627783" lon="13.4926633"><ele>822.8571428571429</ele><time>2026-05-03T07:25:33.754Z</time></trkpt><trkpt lat="42.3627933" lon="13.49276"><ele>824.1428571428571</ele><time>2026-05-03T07:25:34.754Z</time></trkpt><trkpt lat="42.3628083" lon="13.4928567"><ele>825.4285714285714</ele><time>2026-05-03T07:25:35.754Z</time></trkpt><trkpt lat="42.3628117" lon="13.4929533"><ele>826.7142857142858</ele><time>2026-05-03T07:25:36.754Z</time></trkpt><trkpt lat="42.3628" lon="13.4930383"><ele>828.0</ele><time>2026-05-03T07:25:37.753Z</time></trkpt><trkpt lat="42.3627917" lon="13.4931283"><ele>830.6666666666666</ele><time>2026-05-03T07:25:38.754Z</time></trkpt><trkpt lat="42.36278" lon="13.4932133"><ele>833.3333333333333</ele><time>2026-05-03T07:25:39.754Z</time></trkpt><trkpt lat="42.3627783" lon="13.4933533"><ele>836.0</ele><time>2026-05-03T07:25:41.754Z</time></trkpt><trkpt lat="42.3627983" lon="13.4934767"><ele>838.6666666666666</ele><time>2026-05-03T07:25:43.754Z</time></trkpt><trkpt lat="42.3628617" lon="13.493605"><ele>841.3333333333333</ele><time>2026-05-03T07:25:45.753Z</time></trkpt><trkpt lat="42.3628983" lon="13.4936833"><ele>844.0</ele><time>2026-05-03T07:25:46.753Z</time></trkpt><trkpt lat="42.3629217" lon="13.4937717"><ele>846.6</ele><time>2026-05-03T07:25:47.753Z</time></trkpt><trkpt lat="42.3629333" lon="13.4938683"><ele>849.2</ele><time>2026-05-03T07:25:48.754Z</time></trkpt><trkpt lat="42.3629383" lon="13.4939917"><ele>851.8000000000001</ele><time>2026-05-03T07:25:49.753Z</time></trkpt><trkpt lat="42.3629483" lon="13.4941317"><ele>854.4000000000001</ele><time>2026-05-03T07:25:50.753Z</time></trkpt><trkpt lat="42.36296" lon="13.49429"><ele>857.0</ele><time>2026-05-03T07:25:51.754Z</time></trkpt><trkpt lat="42.36297" lon="13.4944367"><ele>857.0</ele><time>2026-05-03T07:25:52.753Z</time></trkpt><trkpt lat="42.3629683" lon="13.4945717"><ele>857.0</ele><time>2026-05-03T07:25:53.753Z</time></trkpt><trkpt lat="42.36296" lon="13.4946867"><ele>857.0</ele><time>2026-05-03T07:25:54.753Z</time></trkpt><trkpt lat="42.3629517" lon="13.4948"><ele>857.0</ele><time>2026-05-03T07:25:55.753Z</time></trkpt><trkpt lat="42.3629367" lon="13.4949183"><ele>857.0</ele><time>2026-05-03T07:25:56.753Z</time></trkpt><trkpt lat="42.3629217" lon="13.49505"><ele>858.2</ele><time>2026-05-03T07:25:57.754Z</time></trkpt><trkpt lat="42.3629017" lon="13.495185"><ele>859.4000000000001</ele><time>2026-05-03T07:25:58.754Z</time></trkpt><trkpt lat="42.3628883" lon="13.4953"><ele>860.5999999999999</ele><time>2026-05-03T07:25:59.753Z</time></trkpt><trkpt lat="42.3628817" lon="13.4954183"><ele>861.8</ele><time>2026-05-03T07:26:00.754Z</time></trkpt><trkpt lat="42.3628717" lon="13.4955583"><ele>863.0</ele><time>2026-05-03T07:26:01.754Z</time></trkpt><trkpt lat="42.3628633" lon="13.4957117"><ele>863.4</ele><time>2026-05-03T07:26:02.754Z</time></trkpt><trkpt lat="42.3628617" lon="13.495865"><ele>863.8</ele><time>2026-05-03T07:26:03.753Z</time></trkpt><trkpt lat="42.3628517" lon="13.4960117"><ele>864.2</ele><time>2026-05-03T07:26:04.754Z</time></trkpt><trkpt lat="42.36284" lon="13.4961417"><ele>864.6</ele><time>2026-05-03T07:26:05.754Z</time></trkpt><trkpt lat="42.3628267" lon="13.49627"><ele>865.0</ele><time>2026-05-03T07:26:06.754Z</time></trkpt><trkpt lat="42.3628183" lon="13.4963983"><ele>866.2</ele><time>2026-05-03T07:26:07.754Z</time></trkpt><trkpt lat="42.3628067" lon="13.4965283"><ele>867.4</ele><time>2026-05-03T07:26:08.754Z</time></trkpt><trkpt lat="42.36281" lon="13.4966367"><ele>868.5999999999999</ele><time>2026-05-03T07:26:09.753Z</time></trkpt><trkpt lat="42.362815" lon="13.49673"><ele>869.8</ele><time>2026-05-03T07:26:10.754Z</time></trkpt><trkpt lat="42.3628333" lon="13.4968717"><ele>871.0</ele><time>2026-05-03T07:26:12.754Z</time></trkpt><trkpt lat="42.36287" lon="13.4970117"><ele>871.8</ele><time>2026-05-03T07:26:14.754Z</time></trkpt><trkpt lat="42.3628983" lon="13.4971567"><ele>872.5999999999999</ele><time>2026-05-03T07:26:16.753Z</time></trkpt><trkpt lat="42.3628833" lon="13.4972883"><ele>873.4</ele><time>2026-05-03T07:26:18.753Z</time></trkpt><trkpt lat="42.362885" lon="13.4973833"><ele>874.2</ele><time>2026-05-03T07:26:20.754Z</time></trkpt><trkpt lat="42.3628917" lon="13.4975217"><ele>875.0</ele><time>2026-05-03T07:26:22.754Z</time></trkpt><trkpt lat="42.3629167" lon="13.49767"><ele>875.0000000000001</ele><time>2026-05-03T07:26:24.754Z</time></trkpt><trkpt lat="42.3629733" lon="13.4977817"><ele>875.0</ele><time>2026-05-03T07:26:26.754Z</time></trkpt><trkpt lat="42.3630283" lon="13.4978817"><ele>875.0</ele><time>2026-05-03T07:26:28.754Z</time></trkpt><trkpt lat="42.3630717" lon="13.49796"><ele>875.0</ele><time>2026-05-03T07:26:31.753Z</time></trkpt><trkpt lat="42.3631183" lon="13.4980233"><ele>875.0000000000001</ele><time>2026-05-03T07:26:45.754Z</time></trkpt><trkpt lat="42.3631733" lon="13.49809"><ele>875.0</ele><time>2026-05-03T07:26:47.754Z</time></trkpt><trkpt lat="42.36327" lon="13.49816"><ele>878.0000000000001</ele><time>2026-05-03T07:26:49.754Z</time></trkpt><trkpt lat="42.3633333" lon="13.4982167"><ele>881.0</ele><time>2026-05-03T07:26:50.753Z</time></trkpt><trkpt lat="42.3634033" lon="13.49828"><ele>884.0</ele><time>2026-05-03T07:26:51.754Z</time></trkpt><trkpt lat="42.3634767" lon="13.498345"><ele>887.0</ele><time>2026-05-03T07:26:52.754Z</time></trkpt><trkpt lat="42.36354" lon="13.4984167"><ele>890.0000000000001</ele><time>2026-05-03T07:26:53.753Z</time></trkpt><trkpt lat="42.3635967" lon="13.498485"><ele>893.0</ele><time>2026-05-03T07:26:54.754Z</time></trkpt><trkpt lat="42.3636333" lon="13.49856"><ele>893.0000000000001</ele><time>2026-05-03T07:26:55.754Z</time></trkpt><trkpt lat="42.363655" lon="13.49865"><ele>893.0</ele><time>2026-05-03T07:26:56.753Z</time></trkpt><trkpt lat="42.3636717" lon="13.4987433"><ele>893.0</ele><time>2026-05-03T07:26:57.754Z</time></trkpt><trkpt lat="42.363695" lon="13.4988433"><ele>893.0</ele><time>2026-05-03T07:26:58.753Z</time></trkpt><trkpt lat="42.3637233" lon="13.4989317"><ele>893.0000000000001</ele><time>2026-05-03T07:26:59.753Z</time></trkpt><trkpt lat="42.36378" lon="13.4990383"><ele>893.0</ele><time>2026-05-03T07:27:01.754Z</time></trkpt><trkpt lat="42.3638767" lon="13.4991367"><ele>895.5999999999999</ele><time>2026-05-03T07:27:03.754Z</time></trkpt><trkpt lat="42.3639467" lon="13.4992517"><ele>898.1999999999999</ele><time>2026-05-03T07:27:05.753Z</time></trkpt><trkpt lat="42.3640033" lon="13.4993683"><ele>900.8</ele><time>2026-05-03T07:27:07.753Z</time></trkpt><trkpt lat="42.364055" lon="13.4994517"><ele>903.4</ele><time>2026-05-03T07:27:09.754Z</time></trkpt><trkpt lat="42.3641167" lon="13.4995017"><ele>906.0</ele><time>2026-05-03T07:27:11.754Z</time></trkpt><trkpt lat="42.3641883" lon="13.49959"><ele>906.4</ele><time>2026-05-03T07:27:13.754Z</time></trkpt><trkpt lat="42.3642417" lon="13.4996933"><ele>906.8</ele><time>2026-05-03T07:27:15.753Z</time></trkpt><trkpt lat="42.3643" lon="13.4998267"><ele>907.1999999999999</ele><time>2026-05-03T07:27:17.754Z</time></trkpt><trkpt lat="42.3643333" lon="13.4999"><ele>907.5999999999999</ele><time>2026-05-03T07:27:18.754Z</time></trkpt><trkpt lat="42.3643933" lon="13.5000383"><ele>908.0</ele><time>2026-05-03T07:27:20.754Z</time></trkpt><trkpt lat="42.3644483" lon="13.5001467"><ele>908.0</ele><time>2026-05-03T07:27:22.754Z</time></trkpt><trkpt lat="42.3644983" lon="13.50023"><ele>908.0</ele><time>2026-05-03T07:27:24.754Z</time></trkpt><trkpt lat="42.3645383" lon="13.50032"><ele>908.0</ele><time>2026-05-03T07:27:26.754Z</time></trkpt><trkpt lat="42.3645767" lon="13.5004367"><ele>908.0</ele><time>2026-05-03T07:27:28.753Z</time></trkpt><trkpt lat="42.3646433" lon="13.50057"><ele>908.0</ele><time>2026-05-03T07:27:46.754Z</time></trkpt><trkpt lat="42.3647" lon="13.5007433"><ele>910.0000000000001</ele><time>2026-05-03T07:27:48.754Z</time></trkpt><trkpt lat="42.3647383" lon="13.5008617"><ele>912.0</ele><time>2026-05-03T07:27:49.753Z</time></trkpt><trkpt lat="42.3647833" lon="13.5009617"><ele>914.0</ele><time>2026-05-03T07:27:50.753Z</time></trkpt><trkpt lat="42.36482" lon="13.50106"><ele>916.0</ele><time>2026-05-03T07:27:51.753Z</time></trkpt><trkpt lat="42.36485" lon="13.5011567"><ele>918.0000000000001</ele><time>2026-05-03T07:27:52.753Z</time></trkpt><trkpt lat="42.36488" lon="13.5012483"><ele>920.0</ele><time>2026-05-03T07:27:53.754Z</time></trkpt><trkpt lat="42.3649" lon="13.5013433"><ele>921.1666666666667</ele><time>2026-05-03T07:27:54.754Z</time></trkpt><trkpt lat="42.3649183" lon="13.50144"><ele>922.3333333333334</ele><time>2026-05-03T07:27:55.753Z</time></trkpt><trkpt lat="42.3649383" lon="13.501525"><ele>923.5</ele><time>2026-05-03T07:27:56.753Z</time></trkpt><trkpt lat="42.3649617" lon="13.5016467"><ele>924.6666666666667</ele><time>2026-05-03T07:27:58.754Z</time></trkpt><trkpt lat="42.3649833" lon="13.5017667"><ele>925.8333333333334</ele><time>2026-05-03T07:28:01.753Z</time></trkpt><trkpt lat="42.3650183" lon="13.5018933"><ele>927.0</ele><time>2026-05-03T07:28:03.752Z</time></trkpt><trkpt lat="42.3650683" lon="13.502035"><ele>928.2</ele><time>2026-05-03T07:28:05.752Z</time></trkpt><trkpt lat="42.3651033" lon="13.50216"><ele>929.4000000000001</ele><time>2026-05-03T07:28:07.753Z</time></trkpt><trkpt lat="42.3651483" lon="13.50231"><ele>930.5999999999999</ele><time>2026-05-03T07:28:09.752Z</time></trkpt><trkpt lat="42.3651667" lon="13.5024083"><ele>931.8</ele><time>2026-05-03T07:28:10.753Z</time></trkpt><trkpt lat="42.3651833" lon="13.50251"><ele>933.0</ele><time>2026-05-03T07:28:11.753Z</time></trkpt><trkpt lat="42.3652033" lon="13.5026183"><ele>933.0</ele><time>2026-05-03T07:28:12.753Z</time></trkpt><trkpt lat="42.3652317" lon="13.5027217"><ele>933.0</ele><time>2026-05-03T07:28:13.753Z</time></trkpt><trkpt lat="42.3652567" lon="13.5028283"><ele>933.0</ele><time>2026-05-03T07:28:14.753Z</time></trkpt><trkpt lat="42.36529" lon="13.5029367"><ele>933.0</ele><time>2026-05-03T07:28:15.753Z</time></trkpt><trkpt lat="42.365335" lon="13.5030383"><ele>933.0</ele><time>2026-05-03T07:28:16.752Z</time></trkpt><trkpt lat="42.3653883" lon="13.50314"><ele>933.0</ele><time>2026-05-03T07:28:17.752Z</time></trkpt><trkpt lat="42.3654467" lon="13.5032517"><ele>934.5999999999999</ele><time>2026-05-03T07:28:18.752Z</time></trkpt><trkpt lat="42.3655083" lon="13.50337"><ele>936.1999999999999</ele><time>2026-05-03T07:28:19.752Z</time></trkpt><trkpt lat="42.3655667" lon="13.5034817"><ele>937.8</ele><time>2026-05-03T07:28:20.752Z</time></trkpt><trkpt lat="42.3656217" lon="13.503595"><ele>939.4</ele><time>2026-05-03T07:28:21.753Z</time></trkpt><trkpt lat="42.3656783" lon="13.5036967"><ele>941.0</ele><time>2026-05-03T07:28:22.753Z</time></trkpt><trkpt lat="42.3657167" lon="13.5038083"><ele>941.6666666666667</ele><time>2026-05-03T07:28:23.752Z</time></trkpt><trkpt lat="42.365745" lon="13.5039317"><ele>942.3333333333334</ele><time>2026-05-03T07:28:24.752Z</time></trkpt><trkpt lat="42.36577" lon="13.5040383"><ele>943.0</ele><time>2026-05-03T07:28:25.752Z</time></trkpt><trkpt lat="42.3657983" lon="13.5041367"><ele>943.6666666666667</ele><time>2026-05-03T07:28:26.753Z</time></trkpt><trkpt lat="42.3658133" lon="13.5042333"><ele>944.3333333333334</ele><time>2026-05-03T07:28:27.753Z</time></trkpt><trkpt lat="42.3658267" lon="13.5043267"><ele>945.0</ele><time>2026-05-03T07:28:28.752Z</time></trkpt><trkpt lat="42.36583" lon="13.5044167"><ele>945.2</ele><time>2026-05-03T07:28:29.752Z</time></trkpt><trkpt lat="42.3658167" lon="13.504595"><ele>945.4</ele><time>2026-05-03T07:28:31.753Z</time></trkpt><trkpt lat="42.3658033" lon="13.5046933"><ele>945.5999999999999</ele><time>2026-05-03T07:28:32.752Z</time></trkpt><trkpt lat="42.3658017" lon="13.50479"><ele>945.8</ele><time>2026-05-03T07:28:33.752Z</time></trkpt><trkpt lat="42.3658017" lon="13.5049083"><ele>946.0</ele><time>2026-05-03T07:28:34.753Z</time></trkpt><trkpt lat="42.365825" lon="13.50504"><ele>946.0</ele><time>2026-05-03T07:28:35.753Z</time></trkpt><trkpt lat="42.3658517" lon="13.5051617"><ele>945.9999999999999</ele><time>2026-05-03T07:28:36.753Z</time></trkpt><trkpt lat="42.3658833" lon="13.50527"><ele>945.9999999999999</ele><time>2026-05-03T07:28:37.753Z</time></trkpt><trkpt lat="42.3659183" lon="13.5053933"><ele>946.0</ele><time>2026-05-03T07:28:38.753Z</time></trkpt><trkpt lat="42.3659467" lon="13.5055233"><ele>946.0</ele><time>2026-05-03T07:28:39.752Z</time></trkpt><trkpt lat="42.3659617" lon="13.5056517"><ele>946.1666666666666</ele><time>2026-05-03T07:28:40.753Z</time></trkpt><trkpt lat="42.3659733" lon="13.5057717"><ele>946.3333333333333</ele><time>2026-05-03T07:28:41.752Z</time></trkpt><trkpt lat="42.3659933" lon="13.50589"><ele>946.5</ele><time>2026-05-03T07:28:42.752Z</time></trkpt><trkpt lat="42.366005" lon="13.5059833"><ele>946.6666666666667</ele><time>2026-05-03T07:28:43.752Z</time></trkpt><trkpt lat="42.36602" lon="13.5060883"><ele>946.8333333333334</ele><time>2026-05-03T07:28:44.753Z</time></trkpt><trkpt lat="42.3660267" lon="13.50619"><ele>947.0</ele><time>2026-05-03T07:28:45.753Z</time></trkpt><trkpt lat="42.3660383" lon="13.5063067"><ele>947.3333333333334</ele><time>2026-05-03T07:28:46.753Z</time></trkpt><trkpt lat="42.3660533" lon="13.5064183"><ele>947.6666666666667</ele><time>2026-05-03T07:28:47.752Z</time></trkpt><trkpt lat="42.3660683" lon="13.5065117"><ele>948.0</ele><time>2026-05-03T07:28:48.753Z</time></trkpt><trkpt lat="42.36613" lon="13.5066533"><ele>948.3333333333333</ele><time>2026-05-03T07:28:50.753Z</time></trkpt><trkpt lat="42.3661667" lon="13.506725"><ele>948.6666666666666</ele><time>2026-05-03T07:28:51.753Z</time></trkpt><trkpt lat="42.3662067" lon="13.5067933"><ele>949.0</ele><time>2026-05-03T07:28:52.752Z</time></trkpt><trkpt lat="42.3662533" lon="13.5068717"><ele>949.0000000000001</ele><time>2026-05-03T07:28:53.753Z</time></trkpt><trkpt lat="42.366305" lon="13.5069383"><ele>949.0</ele><time>2026-05-03T07:28:54.752Z</time></trkpt><trkpt lat="42.3663583" lon="13.5070033"><ele>949.0000000000001</ele><time>2026-05-03T07:28:55.752Z</time></trkpt><trkpt lat="42.3664117" lon="13.5070617"><ele>949.0000000000001</ele><time>2026-05-03T07:28:56.752Z</time></trkpt><trkpt lat="42.3664617" lon="13.5071367"><ele>949.0</ele><time>2026-05-03T07:28:57.753Z</time></trkpt><trkpt lat="42.36651" lon="13.5072067"><ele>949.0000000000001</ele><time>2026-05-03T07:28:58.753Z</time></trkpt><trkpt lat="42.3665567" lon="13.5072683"><ele>949.0000000000001</ele><time>2026-05-03T07:28:59.753Z</time></trkpt><trkpt lat="42.366635" lon="13.507375"><ele>951.2</ele><time>2026-05-03T07:29:01.752Z</time></trkpt><trkpt lat="42.3667183" lon="13.5075067"><ele>953.4000000000001</ele><time>2026-05-03T07:29:03.753Z</time></trkpt><trkpt lat="42.36678" lon="13.5076217"><ele>955.6</ele><time>2026-05-03T07:29:05.753Z</time></trkpt><trkpt lat="42.3668233" lon="13.5077483"><ele>957.8</ele><time>2026-05-03T07:29:08.753Z</time></trkpt><trkpt lat="42.3668617" lon="13.5078833"><ele>960.0</ele><time>2026-05-03T07:29:10.753Z</time></trkpt><trkpt lat="42.3667967" lon="13.5077983"><ele>960.0</ele><time>2026-05-03T07:30:21.753Z</time></trkpt><trkpt lat="42.3667217" lon="13.5078383"><ele>960.0</ele><time>2026-05-03T07:30:24.753Z</time></trkpt><trkpt lat="42.3666367" lon="13.5079133"><ele>960.0</ele><time>2026-05-03T07:30:26.753Z</time></trkpt><trkpt lat="42.36654" lon="13.50798"><ele>960.0</ele><time>2026-05-03T07:30:28.752Z</time></trkpt><trkpt lat="42.3664483" lon="13.5080183"><ele>960.0</ele><time>2026-05-03T07:30:30.753Z</time></trkpt><trkpt lat="42.3663667" lon="13.508045"><ele>958.6</ele><time>2026-05-03T07:30:32.753Z</time></trkpt><trkpt lat="42.3662967" lon="13.5080933"><ele>957.2</ele><time>2026-05-03T07:30:34.753Z</time></trkpt><trkpt lat="42.3662183" lon="13.5081783"><ele>955.8</ele><time>2026-05-03T07:30:36.752Z</time></trkpt><trkpt lat="42.3661317" lon="13.508225"><ele>954.4</ele><time>2026-05-03T07:30:38.752Z</time></trkpt><trkpt lat="42.366035" lon="13.5082383"><ele>953.0</ele><time>2026-05-03T07:30:40.753Z</time></trkpt><trkpt lat="42.365955" lon="13.5083033"><ele>953.0</ele><time>2026-05-03T07:30:42.753Z</time></trkpt><trkpt lat="42.3659133" lon="13.5083733"><ele>953.0</ele><time>2026-05-03T07:30:44.752Z</time></trkpt><trkpt lat="42.3658833" lon="13.5084783"><ele>953.0</ele><time>2026-05-03T07:30:51.752Z</time></trkpt><trkpt lat="42.36581" lon="13.5085833"><ele>953.0</ele><time>2026-05-03T07:30:53.752Z</time></trkpt><trkpt lat="42.36576" lon="13.5086833"><ele>953.0</ele><time>2026-05-03T07:30:56.752Z</time></trkpt><trkpt lat="42.3657417" lon="13.5088283"><ele>954.0000000000001</ele><time>2026-05-03T07:30:58.752Z</time></trkpt><trkpt lat="42.3657267" lon="13.508915"><ele>955.0</ele><time>2026-05-03T07:30:59.753Z</time></trkpt><trkpt lat="42.3657033" lon="13.5090083"><ele>956.0</ele><time>2026-05-03T07:31:00.752Z</time></trkpt><trkpt lat="42.365635" lon="13.5091317"><ele>957.0</ele><time>2026-05-03T07:31:02.753Z</time></trkpt><trkpt lat="42.3656017" lon="13.50926"><ele>958.0000000000001</ele><time>2026-05-03T07:31:04.753Z</time></trkpt><trkpt lat="42.3656" lon="13.5093467"><ele>959.0</ele><time>2026-05-03T07:31:05.753Z</time></trkpt><trkpt lat="42.3655917" lon="13.5095"><ele>958.6</ele><time>2026-05-03T07:31:07.753Z</time></trkpt><trkpt lat="42.3656167" lon="13.509635"><ele>958.2</ele><time>2026-05-03T07:31:09.753Z</time></trkpt><trkpt lat="42.3656883" lon="13.5097433"><ele>957.8000000000001</ele><time>2026-05-03T07:31:11.752Z</time></trkpt><trkpt lat="42.3657883" lon="13.50983"><ele>957.4000000000001</ele><time>2026-05-03T07:31:13.753Z</time></trkpt><trkpt lat="42.3658483" lon="13.5098617"><ele>957.0</ele><time>2026-05-03T07:31:14.752Z</time></trkpt><trkpt lat="42.365915" lon="13.5098833"><ele>957.0</ele><time>2026-05-03T07:31:15.752Z</time></trkpt><trkpt lat="42.3659867" lon="13.5098983"><ele>957.0</ele><time>2026-05-03T07:31:16.753Z</time></trkpt><trkpt lat="42.3660483" lon="13.509935"><ele>957.0</ele><time>2026-05-03T07:31:17.753Z</time></trkpt><trkpt lat="42.3661133" lon="13.5100333"><ele>957.0</ele><time>2026-05-03T07:31:19.752Z</time></trkpt><trkpt lat="42.3660883" lon="13.510185"><ele>957.0</ele><time>2026-05-03T07:31:21.752Z</time></trkpt><trkpt lat="42.3660467" lon="13.5102917"><ele>957.0</ele><time>2026-05-03T07:31:22.753Z</time></trkpt><trkpt lat="42.3659967" lon="13.5103983"><ele>956.8333333333334</ele><time>2026-05-03T07:31:23.753Z</time></trkpt><trkpt lat="42.365955" lon="13.5105"><ele>956.6666666666667</ele><time>2026-05-03T07:31:24.753Z</time></trkpt><trkpt lat="42.3658917" lon="13.5105917"><ele>956.5</ele><time>2026-05-03T07:31:25.752Z</time></trkpt><trkpt lat="42.36582" lon="13.5106517"><ele>956.3333333333334</ele><time>2026-05-03T07:31:26.753Z</time></trkpt><trkpt lat="42.3657467" lon="13.5107017"><ele>956.1666666666667</ele><time>2026-05-03T07:31:27.752Z</time></trkpt><trkpt lat="42.3656867" lon="13.51077"><ele>956.0</ele><time>2026-05-03T07:31:28.753Z</time></trkpt><trkpt lat="42.3656433" lon="13.5108617"><ele>956.0000000000001</ele><time>2026-05-03T07:31:29.753Z</time></trkpt><trkpt lat="42.3655983" lon="13.5109567"><ele>956.0</ele><time>2026-05-03T07:31:30.753Z</time></trkpt><trkpt lat="42.36557" lon="13.5110517"><ele>956.0</ele><time>2026-05-03T07:31:31.752Z</time></trkpt><trkpt lat="42.3655567" lon="13.5111567"><ele>956.0</ele><time>2026-05-03T07:31:32.753Z</time></trkpt><trkpt lat="42.365545" lon="13.5112667"><ele>956.0000000000001</ele><time>2026-05-03T07:31:33.753Z</time></trkpt><trkpt lat="42.3655333" lon="13.5113683"><ele>956.0</ele><time>2026-05-03T07:31:34.753Z</time></trkpt><trkpt lat="42.3655117" lon="13.5114667"><ele>956.1666666666667</ele><time>2026-05-03T07:31:35.753Z</time></trkpt><trkpt lat="42.3654767" lon="13.5115733"><ele>956.3333333333334</ele><time>2026-05-03T07:31:36.753Z</time></trkpt><trkpt lat="42.3654433" lon="13.5116767"><ele>956.5</ele><time>2026-05-03T07:31:37.753Z</time></trkpt><trkpt lat="42.36541" lon="13.5117817"><ele>956.6666666666667</ele><time>2026-05-03T07:31:38.752Z</time></trkpt><trkpt lat="42.3653817" lon="13.511885"><ele>956.8333333333334</ele><time>2026-05-03T07:31:39.753Z</time></trkpt><trkpt lat="42.36537" lon="13.511975"><ele>957.0</ele><time>2026-05-03T07:31:40.753Z</time></trkpt><trkpt lat="42.365355" lon="13.512105"><ele>957.0</ele><time>2026-05-03T07:31:42.753Z</time></trkpt><trkpt lat="42.3653633" lon="13.5122183"><ele>957.0</ele><time>2026-05-03T07:31:44.752Z</time></trkpt><trkpt lat="42.3653783" lon="13.5123333"><ele>957.0</ele><time>2026-05-03T07:31:46.752Z</time></trkpt><trkpt lat="42.3654133" lon="13.5124733"><ele>957.0</ele><time>2026-05-03T07:31:48.752Z</time></trkpt><trkpt lat="42.3654433" lon="13.512565"><ele>957.0</ele><time>2026-05-03T07:31:49.752Z</time></trkpt><trkpt lat="42.3654733" lon="13.512665"><ele>957.0</ele><time>2026-05-03T07:31:50.753Z</time></trkpt><trkpt lat="42.3654983" lon="13.5127717"><ele>957.0</ele><time>2026-05-03T07:31:51.753Z</time></trkpt><trkpt lat="42.3655217" lon="13.512875"><ele>957.0000000000001</ele><time>2026-05-03T07:31:52.753Z</time></trkpt><trkpt lat="42.3655333" lon="13.5129817"><ele>957.0</ele><time>2026-05-03T07:31:53.753Z</time></trkpt><trkpt lat="42.3655433" lon="13.5130667"><ele>957.0</ele><time>2026-05-03T07:31:54.753Z</time></trkpt><trkpt lat="42.3655367" lon="13.51316"><ele>957.0000000000001</ele><time>2026-05-03T07:31:56.752Z</time></trkpt><trkpt lat="42.3654733" lon="13.5132083"><ele>957.0</ele><time>2026-05-03T07:31:59.753Z</time></trkpt><trkpt lat="42.3653983" lon="13.5131767"><ele>957.0</ele><time>2026-05-03T07:32:01.752Z</time></trkpt><trkpt lat="42.365305" lon="13.5130283"><ele>957.0</ele><time>2026-05-03T07:32:03.753Z</time></trkpt><trkpt lat="42.365255" lon="13.5129233"><ele>957.0</ele><time>2026-05-03T07:32:04.753Z</time></trkpt><trkpt lat="42.3652083" lon="13.512825"><ele>957.0</ele><time>2026-05-03T07:32:05.752Z</time></trkpt><trkpt lat="42.3651467" lon="13.512725"><ele>957.0</ele><time>2026-05-03T07:32:06.752Z</time></trkpt><trkpt lat="42.36509" lon="13.5126333"><ele>957.0</ele><time>2026-05-03T07:32:07.753Z</time></trkpt><trkpt lat="42.36502" lon="13.5125367"><ele>957.0</ele><time>2026-05-03T07:32:08.753Z</time></trkpt><trkpt lat="42.3649633" lon="13.5124533"><ele>957.0</ele><time>2026-05-03T07:32:09.753Z</time></trkpt><trkpt lat="42.3649067" lon="13.5123583"><ele>957.0</ele><time>2026-05-03T07:32:10.753Z</time></trkpt><trkpt lat="42.3648517" lon="13.5122667"><ele>957.0</ele><time>2026-05-03T07:32:11.753Z</time></trkpt><trkpt lat="42.3647967" lon="13.512185"><ele>957.0</ele><time>2026-05-03T07:32:12.753Z</time></trkpt><trkpt lat="42.3647433" lon="13.512105"><ele>957.0</ele><time>2026-05-03T07:32:13.753Z</time></trkpt><trkpt lat="42.364675" lon="13.512025"><ele>955.1666666666666</ele><time>2026-05-03T07:32:14.752Z</time></trkpt><trkpt lat="42.3645967" lon="13.5119533"><ele>953.3333333333333</ele><time>2026-05-03T07:32:15.753Z</time></trkpt><trkpt lat="42.36452" lon="13.5118783"><ele>951.5</ele><time>2026-05-03T07:32:16.752Z</time></trkpt><trkpt lat="42.3644517" lon="13.51181"><ele>949.6666666666666</ele><time>2026-05-03T07:32:17.753Z</time></trkpt><trkpt lat="42.3643883" lon="13.5117367"><ele>947.8333333333333</ele><time>2026-05-03T07:32:18.753Z</time></trkpt><trkpt lat="42.3643283" lon="13.5116617"><ele>946.0</ele><time>2026-05-03T07:32:19.753Z</time></trkpt><trkpt lat="42.3642633" lon="13.511585"><ele>946.0</ele><time>2026-05-03T07:32:20.753Z</time></trkpt><trkpt lat="42.3642" lon="13.51152"><ele>945.9999999999999</ele><time>2026-05-03T07:32:21.753Z</time></trkpt><trkpt lat="42.364075" lon="13.511435"><ele>945.9999999999999</ele><time>2026-05-03T07:32:23.752Z</time></trkpt><trkpt lat="42.36399" lon="13.5114117"><ele>946.0</ele><time>2026-05-03T07:32:24.753Z</time></trkpt><trkpt lat="42.363895" lon="13.511375"><ele>946.0</ele><time>2026-05-03T07:32:25.753Z</time></trkpt><trkpt lat="42.3638133" lon="13.5113417"><ele>946.1666666666666</ele><time>2026-05-03T07:32:26.753Z</time></trkpt><trkpt lat="42.3637217" lon="13.5113117"><ele>946.3333333333333</ele><time>2026-05-03T07:32:27.752Z</time></trkpt><trkpt lat="42.3636383" lon="13.5112817"><ele>946.5</ele><time>2026-05-03T07:32:28.753Z</time></trkpt><trkpt lat="42.3635633" lon="13.5112483"><ele>946.6666666666667</ele><time>2026-05-03T07:32:29.752Z</time></trkpt><trkpt lat="42.3634883" lon="13.5112283"><ele>946.8333333333334</ele><time>2026-05-03T07:32:30.752Z</time></trkpt><trkpt lat="42.3634033" lon="13.5112133"><ele>947.0</ele><time>2026-05-03T07:32:31.752Z</time></trkpt><trkpt lat="42.3633133" lon="13.511215"><ele>946.0000000000001</ele><time>2026-05-03T07:32:32.753Z</time></trkpt><trkpt lat="42.3632417" lon="13.5112"><ele>945.0</ele><time>2026-05-03T07:32:33.753Z</time></trkpt><trkpt lat="42.3631767" lon="13.5111633"><ele>944.0</ele><time>2026-05-03T07:32:34.752Z</time></trkpt><trkpt lat="42.3631167" lon="13.5111067"><ele>943.0</ele><time>2026-05-03T07:32:35.753Z</time></trkpt><trkpt lat="42.363055" lon="13.511035"><ele>942.0000000000001</ele><time>2026-05-03T07:32:36.752Z</time></trkpt><trkpt lat="42.3629983" lon="13.5109433"><ele>941.0</ele><time>2026-05-03T07:32:37.752Z</time></trkpt><trkpt lat="42.3629367" lon="13.510845"><ele>939.5000000000001</ele><time>2026-05-03T07:32:38.753Z</time></trkpt><trkpt lat="42.3628783" lon="13.510745"><ele>938.0</ele><time>2026-05-03T07:32:39.753Z</time></trkpt><trkpt lat="42.36281" lon="13.5106517"><ele>936.5</ele><time>2026-05-03T07:32:40.752Z</time></trkpt><trkpt lat="42.3627417" lon="13.5105733"><ele>935.0</ele><time>2026-05-03T07:32:41.753Z</time></trkpt><trkpt lat="42.36267" lon="13.5105083"><ele>933.5000000000001</ele><time>2026-05-03T07:32:42.752Z</time></trkpt><trkpt lat="42.3626067" lon="13.5104683"><ele>932.0</ele><time>2026-05-03T07:32:43.753Z</time></trkpt><trkpt lat="42.3625383" lon="13.5104533"><ele>932.0000000000001</ele><time>2026-05-03T07:32:44.753Z</time></trkpt><trkpt lat="42.3624583" lon="13.5104633"><ele>932.0</ele><time>2026-05-03T07:32:45.753Z</time></trkpt><trkpt lat="42.3623683" lon="13.5104833"><ele>932.0</ele><time>2026-05-03T07:32:46.752Z</time></trkpt><trkpt lat="42.362285" lon="13.5105117"><ele>932.0</ele><time>2026-05-03T07:32:47.752Z</time></trkpt><trkpt lat="42.3622017" lon="13.5105533"><ele>932.0000000000001</ele><time>2026-05-03T07:32:48.753Z</time></trkpt><trkpt lat="42.3621217" lon="13.5105817"><ele>932.0</ele><time>2026-05-03T07:32:49.752Z</time></trkpt><trkpt lat="42.3620517" lon="13.5106117"><ele>930.6666666666667</ele><time>2026-05-03T07:32:50.753Z</time></trkpt><trkpt lat="42.36198" lon="13.5106217"><ele>929.3333333333334</ele><time>2026-05-03T07:32:51.752Z</time></trkpt><trkpt lat="42.361915" lon="13.510615"><ele>928.0</ele><time>2026-05-03T07:32:52.753Z</time></trkpt><trkpt lat="42.3617833" lon="13.5106633"><ele>926.6666666666667</ele><time>2026-05-03T07:32:54.752Z</time></trkpt><trkpt lat="42.36171" lon="13.5107033"><ele>925.3333333333334</ele><time>2026-05-03T07:32:55.752Z</time></trkpt><trkpt lat="42.3616233" lon="13.5107233"><ele>924.0</ele><time>2026-05-03T07:32:56.752Z</time></trkpt><trkpt lat="42.36154" lon="13.5107233"><ele>924.0</ele><time>2026-05-03T07:32:57.753Z</time></trkpt><trkpt lat="42.3614467" lon="13.5107133"><ele>924.0</ele><time>2026-05-03T07:32:58.753Z</time></trkpt><trkpt lat="42.3613633" lon="13.5107017"><ele>924.0</ele><time>2026-05-03T07:32:59.753Z</time></trkpt><trkpt lat="42.3612917" lon="13.510675"><ele>924.0</ele><time>2026-05-03T07:33:00.752Z</time></trkpt><trkpt lat="42.36122" lon="13.5106367"><ele>924.0</ele><time>2026-05-03T07:33:01.753Z</time></trkpt><trkpt lat="42.3611383" lon="13.5106"><ele>924.0</ele><time>2026-05-03T07:33:02.752Z</time></trkpt><trkpt lat="42.3610467" lon="13.5105717"><ele>923.1666666666666</ele><time>2026-05-03T07:33:03.752Z</time></trkpt><trkpt lat="42.360955" lon="13.5105367"><ele>922.3333333333333</ele><time>2026-05-03T07:33:04.752Z</time></trkpt><trkpt lat="42.36087" lon="13.51051"><ele>921.5</ele><time>2026-05-03T07:33:05.753Z</time></trkpt><trkpt lat="42.360795" lon="13.5104717"><ele>920.6666666666666</ele><time>2026-05-03T07:33:06.753Z</time></trkpt><trkpt lat="42.3607283" lon="13.5104283"><ele>919.8333333333333</ele><time>2026-05-03T07:33:07.752Z</time></trkpt><trkpt lat="42.360665" lon="13.5103833"><ele>919.0</ele><time>2026-05-03T07:33:08.752Z</time></trkpt><trkpt lat="42.3606133" lon="13.5103267"><ele>918.8000000000001</ele><time>2026-05-03T07:33:09.753Z</time></trkpt><trkpt lat="42.3605633" lon="13.5102633"><ele>918.6000000000001</ele><time>2026-05-03T07:33:10.753Z</time></trkpt><trkpt lat="42.3604583" lon="13.510185"><ele>918.4</ele><time>2026-05-03T07:33:12.752Z</time></trkpt><trkpt lat="42.3603567" lon="13.5100867"><ele>918.2</ele><time>2026-05-03T07:33:14.751Z</time></trkpt><trkpt lat="42.3603083" lon="13.5100183"><ele>918.0</ele><time>2026-05-03T07:33:15.751Z</time></trkpt><trkpt lat="42.3602583" lon="13.509955"><ele>916.2857142857143</ele><time>2026-05-03T07:33:16.751Z</time></trkpt><trkpt lat="42.3602067" lon="13.509895"><ele>914.5714285714284</ele><time>2026-05-03T07:33:17.752Z</time></trkpt><trkpt lat="42.360155" lon="13.509825"><ele>912.8571428571428</ele><time>2026-05-03T07:33:18.752Z</time></trkpt><trkpt lat="42.3601" lon="13.50975"><ele>911.1428571428571</ele><time>2026-05-03T07:33:19.751Z</time></trkpt><trkpt lat="42.3600433" lon="13.5096817"><ele>909.4285714285713</ele><time>2026-05-03T07:33:20.752Z</time></trkpt><trkpt lat="42.359995" lon="13.5096233"><ele>907.7142857142856</ele><time>2026-05-03T07:33:21.752Z</time></trkpt><trkpt lat="42.35996" lon="13.5095483"><ele>905.9999999999999</ele><time>2026-05-03T07:33:22.752Z</time></trkpt><trkpt lat="42.359935" lon="13.5094633"><ele>905.8</ele><time>2026-05-03T07:33:23.752Z</time></trkpt><trkpt lat="42.359915" lon="13.5093717"><ele>905.5999999999999</ele><time>2026-05-03T07:33:24.751Z</time></trkpt><trkpt lat="42.3598933" lon="13.5092633"><ele>905.4</ele><time>2026-05-03T07:33:25.752Z</time></trkpt><trkpt lat="42.3598633" lon="13.50914"><ele>905.2</ele><time>2026-05-03T07:33:26.752Z</time></trkpt><trkpt lat="42.35983" lon="13.5090117"><ele>905.0</ele><time>2026-05-03T07:33:27.751Z</time></trkpt><trkpt lat="42.3598117" lon="13.5088633"><ele>905.2</ele><time>2026-05-03T07:33:28.752Z</time></trkpt><trkpt lat="42.3597933" lon="13.5087333"><ele>905.4</ele><time>2026-05-03T07:33:29.752Z</time></trkpt><trkpt lat="42.3597683" lon="13.5086117"><ele>905.5999999999999</ele><time>2026-05-03T07:33:30.751Z</time></trkpt><trkpt lat="42.3597417" lon="13.5084933"><ele>905.8</ele><time>2026-05-03T07:33:31.751Z</time></trkpt><trkpt lat="42.35972" lon="13.5083717"><ele>906.0</ele><time>2026-05-03T07:33:32.752Z</time></trkpt><trkpt lat="42.3596933" lon="13.5082517"><ele>903.5999999999999</ele><time>2026-05-03T07:33:33.751Z</time></trkpt><trkpt lat="42.3596683" lon="13.50812"><ele>901.1999999999999</ele><time>2026-05-03T07:33:34.752Z</time></trkpt><trkpt lat="42.359645" lon="13.50799"><ele>898.8000000000001</ele><time>2026-05-03T07:33:35.752Z</time></trkpt><trkpt lat="42.359625" lon="13.5078633"><ele>896.4000000000001</ele><time>2026-05-03T07:33:36.752Z</time></trkpt><trkpt lat="42.359605" lon="13.5077417"><ele>894.0</ele><time>2026-05-03T07:33:37.752Z</time></trkpt><trkpt lat="42.3595917" lon="13.5076283"><ele>892.6</ele><time>2026-05-03T07:33:38.751Z</time></trkpt><trkpt lat="42.3595767" lon="13.5075267"><ele>891.2</ele><time>2026-05-03T07:33:39.751Z</time></trkpt><trkpt lat="42.3595833" lon="13.50744"><ele>889.8000000000001</ele><time>2026-05-03T07:33:40.751Z</time></trkpt><trkpt lat="42.3595817" lon="13.5072683"><ele>888.4000000000001</ele><time>2026-05-03T07:33:42.751Z</time></trkpt><trkpt lat="42.3595267" lon="13.5071367"><ele>887.0</ele><time>2026-05-03T07:33:44.752Z</time></trkpt><trkpt lat="42.3594917" lon="13.5070417"><ele>885.8</ele><time>2026-05-03T07:33:46.752Z</time></trkpt><trkpt lat="42.359515" lon="13.506895"><ele>884.6</ele><time>2026-05-03T07:33:48.751Z</time></trkpt><trkpt lat="42.3595267" lon="13.50681"><ele>883.3999999999999</ele><time>2026-05-03T07:33:49.751Z</time></trkpt><trkpt lat="42.3595233" lon="13.5066667"><ele>882.1999999999999</ele><time>2026-05-03T07:33:51.751Z</time></trkpt><trkpt lat="42.3594733" lon="13.5065183"><ele>881.0</ele><time>2026-05-03T07:33:53.752Z</time></trkpt><trkpt lat="42.3594383" lon="13.50637"><ele>881.0</ele><time>2026-05-03T07:33:55.751Z</time></trkpt><trkpt lat="42.359405" lon="13.5062733"><ele>880.9999999999999</ele><time>2026-05-03T07:33:57.752Z</time></trkpt><trkpt lat="42.3593133" lon="13.5062417"><ele>880.9999999999999</ele><time>2026-05-03T07:34:00.751Z</time></trkpt><trkpt lat="42.3592033" lon="13.5062983"><ele>881.0</ele><time>2026-05-03T07:34:02.752Z</time></trkpt><trkpt lat="42.3590617" lon="13.5063083"><ele>881.0</ele><time>2026-05-03T07:34:04.752Z</time></trkpt><trkpt lat="42.3589683" lon="13.5062367"><ele>880.25</ele><time>2026-05-03T07:34:05.751Z</time></trkpt><trkpt lat="42.3588833" lon="13.5061233"><ele>879.5</ele><time>2026-05-03T07:34:06.751Z</time></trkpt><trkpt lat="42.3588017" lon="13.505995"><ele>878.75</ele><time>2026-05-03T07:34:07.751Z</time></trkpt><trkpt lat="42.3587183" lon="13.50586"><ele>878.0</ele><time>2026-05-03T07:34:08.751Z</time></trkpt><trkpt lat="42.3586333" lon="13.5057117"><ele>877.3333333333334</ele><time>2026-05-03T07:34:09.751Z</time></trkpt><trkpt lat="42.358545" lon="13.5055433"><ele>876.6666666666667</ele><time>2026-05-03T07:34:10.752Z</time></trkpt><trkpt lat="42.3584467" lon="13.5053617"><ele>876.0</ele><time>2026-05-03T07:34:11.752Z</time></trkpt><trkpt lat="42.3583417" lon="13.5051717"><ele>876.0</ele><time>2026-05-03T07:34:12.752Z</time></trkpt><trkpt lat="42.35822" lon="13.5049967"><ele>876.0</ele><time>2026-05-03T07:34:13.751Z</time></trkpt><trkpt lat="42.3580833" lon="13.5048517"><ele>876.0</ele><time>2026-05-03T07:34:14.752Z</time></trkpt><trkpt lat="42.3579383" lon="13.5047267"><ele>876.0</ele><time>2026-05-03T07:34:15.752Z</time></trkpt><trkpt lat="42.3577967" lon="13.504625"><ele>876.0</ele><time>2026-05-03T07:34:16.752Z</time></trkpt><trkpt lat="42.3576733" lon="13.50454"><ele>876.0</ele><time>2026-05-03T07:34:17.752Z</time></trkpt><trkpt lat="42.357545" lon="13.5044683"><ele>876.0</ele><time>2026-05-03T07:34:18.751Z</time></trkpt><trkpt lat="42.3574117" lon="13.504435"><ele>876.0</ele><time>2026-05-03T07:34:19.752Z</time></trkpt><trkpt lat="42.3572717" lon="13.5044317"><ele>876.0</ele><time>2026-05-03T07:34:20.751Z</time></trkpt><trkpt lat="42.3571417" lon="13.5044583"><ele>876.0</ele><time>2026-05-03T07:34:21.752Z</time></trkpt><trkpt lat="42.3570133" lon="13.504495"><ele>876.0</ele><time>2026-05-03T07:34:22.752Z</time></trkpt><trkpt lat="42.356895" lon="13.5045367"><ele>881.5</ele><time>2026-05-03T07:34:23.752Z</time></trkpt><trkpt lat="42.3567783" lon="13.5046"><ele>887.0</ele><time>2026-05-03T07:34:24.752Z</time></trkpt><trkpt lat="42.3566833" lon="13.5046933"><ele>892.5</ele><time>2026-05-03T07:34:25.751Z</time></trkpt><trkpt lat="42.35661" lon="13.504805"><ele>898.0</ele><time>2026-05-03T07:34:26.752Z</time></trkpt><trkpt lat="42.3565517" lon="13.5049417"><ele>898.0</ele><time>2026-05-03T07:34:27.751Z</time></trkpt><trkpt lat="42.3565133" lon="13.5050733"><ele>898.0</ele><time>2026-05-03T07:34:28.751Z</time></trkpt><trkpt lat="42.356485" lon="13.5051733"><ele>898.0</ele><time>2026-05-03T07:34:29.752Z</time></trkpt><trkpt lat="42.3564467" lon="13.5053033"><ele>898.0</ele><time>2026-05-03T07:34:31.752Z</time></trkpt><trkpt lat="42.3564033" lon="13.5054183"><ele>898.0</ele><time>2026-05-03T07:34:34.751Z</time></trkpt><trkpt lat="42.3564283" lon="13.5055483"><ele>899.7142857142857</ele><time>2026-05-03T07:34:36.752Z</time></trkpt><trkpt lat="42.3564717" lon="13.5056167"><ele>901.4285714285713</ele><time>2026-05-03T07:34:37.751Z</time></trkpt><trkpt lat="42.3565183" lon="13.50568"><ele>903.1428571428571</ele><time>2026-05-03T07:34:38.751Z</time></trkpt><trkpt lat="42.3565733" lon="13.5057367"><ele>904.8571428571429</ele><time>2026-05-03T07:34:39.752Z</time></trkpt><trkpt lat="42.35663" lon="13.5057933"><ele>906.5714285714286</ele><time>2026-05-03T07:34:40.752Z</time></trkpt><trkpt lat="42.35669" lon="13.50586"><ele>908.2857142857142</ele><time>2026-05-03T07:34:41.751Z</time></trkpt><trkpt lat="42.3567517" lon="13.5059167"><ele>910.0</ele><time>2026-05-03T07:34:43.751Z</time></trkpt><trkpt lat="42.3567133" lon="13.5058267"><ele>909.9999999999999</ele><time>2026-05-03T07:37:29.752Z</time></trkpt><trkpt lat="42.356645" lon="13.5057433"><ele>910.0</ele><time>2026-05-03T07:37:31.752Z</time></trkpt><trkpt lat="42.356565" lon="13.5056617"><ele>910.0</ele><time>2026-05-03T07:37:33.752Z</time></trkpt><trkpt lat="42.3565017" lon="13.50559"><ele>910.0</ele><time>2026-05-03T07:37:35.751Z</time></trkpt><trkpt lat="42.356445" lon="13.5055183"><ele>909.9999999999999</ele><time>2026-05-03T07:37:37.752Z</time></trkpt><trkpt lat="42.3564217" lon="13.5054333"><ele>910.0</ele><time>2026-05-03T07:37:39.751Z</time></trkpt><trkpt lat="42.3564567" lon="13.50535"><ele>910.1666666666666</ele><time>2026-05-03T07:37:41.751Z</time></trkpt><trkpt lat="42.3565" lon="13.5052533"><ele>910.3333333333333</ele><time>2026-05-03T07:37:43.752Z</time></trkpt><trkpt lat="42.3565317" lon="13.5051467"><ele>910.5</ele><time>2026-05-03T07:37:45.751Z</time></trkpt><trkpt lat="42.356475" lon="13.50519"><ele>910.6666666666667</ele><time>2026-05-03T07:37:51.752Z</time></trkpt><trkpt lat="42.3564483" lon="13.5053133"><ele>910.8333333333334</ele><time>2026-05-03T07:43:22.749Z</time></trkpt><trkpt lat="42.356425" lon="13.505395"><ele>911.0</ele><time>2026-05-03T07:43:23.75Z</time></trkpt><trkpt lat="42.3563633" lon="13.505535"><ele>911.0000000000001</ele><time>2026-05-03T07:43:25.749Z</time></trkpt><trkpt lat="42.3563067" lon="13.50561"><ele>911.0</ele><time>2026-05-03T07:43:26.75Z</time></trkpt><trkpt lat="42.3562367" lon="13.5056683"><ele>911.0</ele><time>2026-05-03T07:43:27.75Z</time></trkpt><trkpt lat="42.3561617" lon="13.505705"><ele>911.0</ele><time>2026-05-03T07:43:28.749Z</time></trkpt><trkpt lat="42.356065" lon="13.5056917"><ele>911.0000000000001</ele><time>2026-05-03T07:43:29.75Z</time></trkpt><trkpt lat="42.3559667" lon="13.5056517"><ele>911.0</ele><time>2026-05-03T07:43:30.75Z</time></trkpt><trkpt lat="42.3558667" lon="13.5055817"><ele>911.0</ele><time>2026-05-03T07:43:31.75Z</time></trkpt><trkpt lat="42.35577" lon="13.5055033"><ele>910.9999999999999</ele><time>2026-05-03T07:43:32.75Z</time></trkpt><trkpt lat="42.35568" lon="13.50542"><ele>910.9999999999999</ele><time>2026-05-03T07:43:33.75Z</time></trkpt><trkpt lat="42.3555933" lon="13.50533"><ele>911.0</ele><time>2026-05-03T07:43:34.75Z</time></trkpt><trkpt lat="42.3555117" lon="13.505225"><ele>911.0</ele><time>2026-05-03T07:43:35.75Z</time></trkpt><trkpt lat="42.3554417" lon="13.5051233"><ele>910.8</ele><time>2026-05-03T07:43:36.75Z</time></trkpt><trkpt lat="42.35537" lon="13.5050067"><ele>910.5999999999999</ele><time>2026-05-03T07:43:37.75Z</time></trkpt><trkpt lat="42.3553117" lon="13.504885"><ele>910.4</ele><time>2026-05-03T07:43:38.75Z</time></trkpt><trkpt lat="42.35526" lon="13.5047467"><ele>910.2</ele><time>2026-05-03T07:43:39.749Z</time></trkpt><trkpt lat="42.3552167" lon="13.5046067"><ele>910.0</ele><time>2026-05-03T07:43:40.75Z</time></trkpt><trkpt lat="42.3551817" lon="13.5044633"><ele>910.0</ele><time>2026-05-03T07:43:41.749Z</time></trkpt><trkpt lat="42.355155" lon="13.5043183"><ele>910.0</ele><time>2026-05-03T07:43:42.749Z</time></trkpt><trkpt lat="42.3551167" lon="13.5041733"><ele>910.0</ele><time>2026-05-03T07:43:43.75Z</time></trkpt><trkpt lat="42.355075" lon="13.50402"><ele>910.0</ele><time>2026-05-03T07:43:44.75Z</time></trkpt><trkpt lat="42.35503" lon="13.5038767"><ele>909.2</ele><time>2026-05-03T07:43:45.749Z</time></trkpt><trkpt lat="42.35498" lon="13.503735"><ele>908.4</ele><time>2026-05-03T07:43:46.75Z</time></trkpt><trkpt lat="42.354935" lon="13.5035883"><ele>907.5999999999999</ele><time>2026-05-03T07:43:47.749Z</time></trkpt><trkpt lat="42.3548833" lon="13.5034583"><ele>906.8</ele><time>2026-05-03T07:43:48.75Z</time></trkpt><trkpt lat="42.3548383" lon="13.5033433"><ele>906.0</ele><time>2026-05-03T07:43:49.749Z</time></trkpt><trkpt lat="42.3547867" lon="13.503275"><ele>906.0</ele><time>2026-05-03T07:43:50.75Z</time></trkpt><trkpt lat="42.3547233" lon="13.503255"><ele>905.9999999999999</ele><time>2026-05-03T07:43:51.749Z</time></trkpt><trkpt lat="42.3546283" lon="13.503355"><ele>905.9999999999999</ele><time>2026-05-03T07:43:53.75Z</time></trkpt><trkpt lat="42.35464" lon="13.503485"><ele>906.0</ele><time>2026-05-03T07:43:54.749Z</time></trkpt><trkpt lat="42.3546433" lon="13.5036133"><ele>906.0</ele><time>2026-05-03T07:43:55.75Z</time></trkpt><trkpt lat="42.3547033" lon="13.50372"><ele>906.8</ele><time>2026-05-03T07:43:56.75Z</time></trkpt><trkpt lat="42.3547733" lon="13.5038267"><ele>907.5999999999999</ele><time>2026-05-03T07:43:57.75Z</time></trkpt><trkpt lat="42.3548383" lon="13.5039383"><ele>908.4</ele><time>2026-05-03T07:43:58.749Z</time></trkpt><trkpt lat="42.3548883" lon="13.5040817"><ele>909.2</ele><time>2026-05-03T07:43:59.749Z</time></trkpt><trkpt lat="42.3549217" lon="13.5042283"><ele>910.0</ele><time>2026-05-03T07:44:00.75Z</time></trkpt><trkpt lat="42.3549433" lon="13.504385"><ele>910.0</ele><time>2026-05-03T07:44:01.75Z</time></trkpt><trkpt lat="42.3549517" lon="13.5045567"><ele>910.0</ele><time>2026-05-03T07:44:02.75Z</time></trkpt><trkpt lat="42.3549717" lon="13.504725"><ele>910.0</ele><time>2026-05-03T07:44:03.75Z</time></trkpt><trkpt lat="42.3549967" lon="13.5048967"><ele>910.0</ele><time>2026-05-03T07:44:04.749Z</time></trkpt><trkpt lat="42.3550283" lon="13.5050517"><ele>912.5</ele><time>2026-05-03T07:44:05.75Z</time></trkpt><trkpt lat="42.3550683" lon="13.5052217"><ele>915.0</ele><time>2026-05-03T07:44:06.749Z</time></trkpt><trkpt lat="42.3551233" lon="13.5053867"><ele>917.5</ele><time>2026-05-03T07:44:07.75Z</time></trkpt><trkpt lat="42.3551833" lon="13.5055433"><ele>920.0</ele><time>2026-05-03T07:44:08.749Z</time></trkpt><trkpt lat="42.35525" lon="13.5056933"><ele>921.75</ele><time>2026-05-03T07:44:09.75Z</time></trkpt><trkpt lat="42.35532" lon="13.5058333"><ele>923.5</ele><time>2026-05-03T07:44:10.75Z</time></trkpt><trkpt lat="42.3553867" lon="13.5059817"><ele>925.25</ele><time>2026-05-03T07:44:11.749Z</time></trkpt><trkpt lat="42.3554567" lon="13.506125"><ele>927.0</ele><time>2026-05-03T07:44:12.75Z</time></trkpt><trkpt lat="42.3555333" lon="13.5062617"><ele>928.75</ele><time>2026-05-03T07:44:13.75Z</time></trkpt><trkpt lat="42.3556067" lon="13.5063883"><ele>930.5</ele><time>2026-05-03T07:44:14.75Z</time></trkpt><trkpt lat="42.3556817" lon="13.5065183"><ele>932.25</ele><time>2026-05-03T07:44:15.75Z</time></trkpt><trkpt lat="42.3557567" lon="13.5066583"><ele>934.0</ele><time>2026-05-03T07:44:16.749Z</time></trkpt><trkpt lat="42.3558333" lon="13.50679"><ele>934.0</ele><time>2026-05-03T07:44:17.75Z</time></trkpt><trkpt lat="42.3559117" lon="13.506905"><ele>934.0</ele><time>2026-05-03T07:44:18.75Z</time></trkpt><trkpt lat="42.3559933" lon="13.5070283"><ele>934.0</ele><time>2026-05-03T07:44:19.75Z</time></trkpt><trkpt lat="42.3560767" lon="13.5071617"><ele>934.0</ele><time>2026-05-03T07:44:20.75Z</time></trkpt><trkpt lat="42.35616" lon="13.50729"><ele>933.5</ele><time>2026-05-03T07:44:21.75Z</time></trkpt><trkpt lat="42.356235" lon="13.5074067"><ele>933.0</ele><time>2026-05-03T07:44:22.749Z</time></trkpt><trkpt lat="42.3563083" lon="13.5075417"><ele>932.5</ele><time>2026-05-03T07:44:23.749Z</time></trkpt><trkpt lat="42.3563733" lon="13.50768"><ele>932.0</ele><time>2026-05-03T07:44:24.75Z</time></trkpt><trkpt lat="42.3564367" lon="13.5078117"><ele>936.5</ele><time>2026-05-03T07:44:25.75Z</time></trkpt><trkpt lat="42.3565017" lon="13.5079567"><ele>941.0</ele><time>2026-05-03T07:44:26.75Z</time></trkpt><trkpt lat="42.356555" lon="13.5081083"><ele>945.5</ele><time>2026-05-03T07:44:27.749Z</time></trkpt><trkpt lat="42.3566083" lon="13.5082583"><ele>950.0</ele><time>2026-05-03T07:44:28.75Z</time></trkpt><trkpt lat="42.356665" lon="13.5084033"><ele>950.0</ele><time>2026-05-03T07:44:29.75Z</time></trkpt><trkpt lat="42.3567133" lon="13.5085483"><ele>950.0</ele><time>2026-05-03T07:44:30.749Z</time></trkpt><trkpt lat="42.356765" lon="13.50867"><ele>950.0</ele><time>2026-05-03T07:44:31.75Z</time></trkpt><trkpt lat="42.3568083" lon="13.5087767"><ele>950.0</ele><time>2026-05-03T07:44:32.75Z</time></trkpt><trkpt lat="42.3568533" lon="13.5088633"><ele>950.0</ele><time>2026-05-03T07:44:33.749Z</time></trkpt><trkpt lat="42.35691" lon="13.508925"><ele>950.6</ele><time>2026-05-03T07:44:34.75Z</time></trkpt><trkpt lat="42.3569783" lon="13.5089617"><ele>951.2</ele><time>2026-05-03T07:44:35.75Z</time></trkpt><trkpt lat="42.3570683" lon="13.5089667"><ele>951.8</ele><time>2026-05-03T07:44:36.75Z</time></trkpt><trkpt lat="42.3571733" lon="13.5089617"><ele>952.4</ele><time>2026-05-03T07:44:37.75Z</time></trkpt><trkpt lat="42.3572783" lon="13.5089583"><ele>953.0</ele><time>2026-05-03T07:44:38.75Z</time></trkpt><trkpt lat="42.3573717" lon="13.5089717"><ele>953.0000000000001</ele><time>2026-05-03T07:44:39.749Z</time></trkpt><trkpt lat="42.3574567" lon="13.5089883"><ele>953.0</ele><time>2026-05-03T07:44:40.749Z</time></trkpt><trkpt lat="42.35753" lon="13.5090333"><ele>953.0</ele><time>2026-05-03T07:44:41.749Z</time></trkpt><trkpt lat="42.3575967" lon="13.509095"><ele>953.0</ele><time>2026-05-03T07:44:42.75Z</time></trkpt><trkpt lat="42.35765" lon="13.5091833"><ele>953.0000000000001</ele><time>2026-05-03T07:44:43.75Z</time></trkpt><trkpt lat="42.357705" lon="13.5092783"><ele>953.0</ele><time>2026-05-03T07:44:44.75Z</time></trkpt><trkpt lat="42.357755" lon="13.50938"><ele>953.0</ele><time>2026-05-03T07:44:45.749Z</time></trkpt><trkpt lat="42.35781" lon="13.5094783"><ele>953.0</ele><time>2026-05-03T07:44:46.75Z</time></trkpt><trkpt lat="42.3578617" lon="13.5095767"><ele>953.0</ele><time>2026-05-03T07:44:47.75Z</time></trkpt><trkpt lat="42.3579" lon="13.5096883"><ele>953.0</ele><time>2026-05-03T07:44:48.75Z</time></trkpt><trkpt lat="42.3579333" lon="13.5098183"><ele>953.0</ele><time>2026-05-03T07:44:49.75Z</time></trkpt><trkpt lat="42.3579567" lon="13.509945"><ele>954.8333333333334</ele><time>2026-05-03T07:44:50.75Z</time></trkpt><trkpt lat="42.3579717" lon="13.510055"><ele>956.6666666666667</ele><time>2026-05-03T07:44:51.749Z</time></trkpt><trkpt lat="42.357985" lon="13.5101667"><ele>958.5</ele><time>2026-05-03T07:44:52.75Z</time></trkpt><trkpt lat="42.35798" lon="13.5102783"><ele>960.3333333333333</ele><time>2026-05-03T07:44:53.75Z</time></trkpt><trkpt lat="42.3579683" lon="13.510375"><ele>962.1666666666666</ele><time>2026-05-03T07:44:54.749Z</time></trkpt><trkpt lat="42.3579433" lon="13.5104667"><ele>964.0</ele><time>2026-05-03T07:44:55.749Z</time></trkpt><trkpt lat="42.3578517" lon="13.51057"><ele>964.3333333333333</ele><time>2026-05-03T07:44:57.749Z</time></trkpt><trkpt lat="42.35779" lon="13.510595"><ele>964.6666666666666</ele><time>2026-05-03T07:44:58.749Z</time></trkpt><trkpt lat="42.3577183" lon="13.5105867"><ele>965.0</ele><time>2026-05-03T07:44:59.749Z</time></trkpt><trkpt lat="42.3575983" lon="13.51056"><ele>965.3333333333333</ele><time>2026-05-03T07:45:01.75Z</time></trkpt><trkpt lat="42.3575317" lon="13.5105467"><ele>965.6666666666666</ele><time>2026-05-03T07:45:03.75Z</time></trkpt><trkpt lat="42.3574617" lon="13.5105267"><ele>966.0</ele><time>2026-05-03T07:45:06.749Z</time></trkpt><trkpt lat="42.3573917" lon="13.5105133"><ele>966.0</ele><time>2026-05-03T07:45:09.75Z</time></trkpt><trkpt lat="42.3573283" lon="13.5104333"><ele>966.0</ele><time>2026-05-03T07:45:11.75Z</time></trkpt><trkpt lat="42.3572783" lon="13.5103783"><ele>966.0</ele><time>2026-05-03T07:45:12.75Z</time></trkpt><trkpt lat="42.35722" lon="13.5103233"><ele>966.0</ele><time>2026-05-03T07:45:13.75Z</time></trkpt><trkpt lat="42.3571517" lon="13.5102783"><ele>966.0</ele><time>2026-05-03T07:45:14.75Z</time></trkpt><trkpt lat="42.357095" lon="13.51023"><ele>966.0</ele><time>2026-05-03T07:45:15.75Z</time></trkpt><trkpt lat="42.3570367" lon="13.51018"><ele>966.0</ele><time>2026-05-03T07:45:17.75Z</time></trkpt><trkpt lat="42.356955" lon="13.5102033"><ele>967.0</ele><time>2026-05-03T07:45:20.749Z</time></trkpt><trkpt lat="42.3568633" lon="13.510235"><ele>968.0</ele><time>2026-05-03T07:45:22.75Z</time></trkpt><trkpt lat="42.35678" lon="13.5102217"><ele>969.0</ele><time>2026-05-03T07:45:24.749Z</time></trkpt><trkpt lat="42.3567183" lon="13.5102017"><ele>970.0</ele><time>2026-05-03T07:45:26.75Z</time></trkpt><trkpt lat="42.3567933" lon="13.5102317"><ele>971.0</ele><time>2026-05-03T07:45:33.749Z</time></trkpt><trkpt lat="42.3568767" lon="13.5102233"><ele>972.0</ele><time>2026-05-03T07:45:36.749Z</time></trkpt><trkpt lat="42.3569767" lon="13.5102683"><ele>972.0</ele><time>2026-05-03T07:45:52.75Z</time></trkpt><trkpt lat="42.35707" lon="13.510295"><ele>972.0</ele><time>2026-05-03T07:45:54.75Z</time></trkpt><trkpt lat="42.3571533" lon="13.510345"><ele>972.0</ele><time>2026-05-03T07:46:03.749Z</time></trkpt><trkpt lat="42.35722" lon="13.5104033"><ele>972.0</ele><time>2026-05-03T07:46:04.749Z</time></trkpt><trkpt lat="42.3573033" lon="13.5104767"><ele>972.0</ele><time>2026-05-03T07:46:05.75Z</time></trkpt><trkpt lat="42.3573867" lon="13.5105483"><ele>970.8</ele><time>2026-05-03T07:46:06.75Z</time></trkpt><trkpt lat="42.3574633" lon="13.5106217"><ele>969.6</ele><time>2026-05-03T07:46:07.75Z</time></trkpt><trkpt lat="42.357535" lon="13.51071"><ele>968.3999999999999</ele><time>2026-05-03T07:46:08.75Z</time></trkpt><trkpt lat="42.3575933" lon="13.5108017"><ele>967.1999999999999</ele><time>2026-05-03T07:46:09.75Z</time></trkpt><trkpt lat="42.3576483" lon="13.5109"><ele>966.0</ele><time>2026-05-03T07:46:10.75Z</time></trkpt><trkpt lat="42.3576917" lon="13.5109933"><ele>966.0</ele><time>2026-05-03T07:46:11.75Z</time></trkpt><trkpt lat="42.35774" lon="13.5110967"><ele>965.9999999999999</ele><time>2026-05-03T07:46:12.75Z</time></trkpt><trkpt lat="42.3577833" lon="13.5112117"><ele>965.9999999999999</ele><time>2026-05-03T07:46:13.749Z</time></trkpt><trkpt lat="42.35782" lon="13.5113167"><ele>966.0</ele><time>2026-05-03T07:46:14.75Z</time></trkpt><trkpt lat="42.35786" lon="13.5114233"><ele>966.0</ele><time>2026-05-03T07:46:15.75Z</time></trkpt><trkpt lat="42.3579067" lon="13.5115383"><ele>966.0</ele><time>2026-05-03T07:46:16.75Z</time></trkpt><trkpt lat="42.3579483" lon="13.5116583"><ele>965.9999999999999</ele><time>2026-05-03T07:46:17.749Z</time></trkpt><trkpt lat="42.35799" lon="13.5117767"><ele>965.9999999999999</ele><time>2026-05-03T07:46:18.749Z</time></trkpt><trkpt lat="42.3580317" lon="13.5119067"><ele>966.0</ele><time>2026-05-03T07:46:19.75Z</time></trkpt><trkpt lat="42.358075" lon="13.5120283"><ele>966.0</ele><time>2026-05-03T07:46:20.749Z</time></trkpt><trkpt lat="42.3581183" lon="13.5121483"><ele>966.5999999999999</ele><time>2026-05-03T07:46:21.75Z</time></trkpt><trkpt lat="42.3581667" lon="13.5122717"><ele>967.1999999999999</ele><time>2026-05-03T07:46:22.749Z</time></trkpt><trkpt lat="42.35821" lon="13.5123967"><ele>967.8000000000001</ele><time>2026-05-03T07:46:23.749Z</time></trkpt><trkpt lat="42.3582517" lon="13.5125233"><ele>968.4000000000001</ele><time>2026-05-03T07:46:24.749Z</time></trkpt><trkpt lat="42.3583017" lon="13.5126467"><ele>969.0</ele><time>2026-05-03T07:46:25.75Z</time></trkpt><trkpt lat="42.358345" lon="13.51277"><ele>969.0</ele><time>2026-05-03T07:46:26.75Z</time></trkpt><trkpt lat="42.35839" lon="13.5128883"><ele>969.0000000000001</ele><time>2026-05-03T07:46:27.749Z</time></trkpt><trkpt lat="42.3584333" lon="13.513015"><ele>969.0000000000001</ele><time>2026-05-03T07:46:28.749Z</time></trkpt><trkpt lat="42.358485" lon="13.51314"><ele>969.0</ele><time>2026-05-03T07:46:29.75Z</time></trkpt><trkpt lat="42.3585333" lon="13.51325"><ele>969.0</ele><time>2026-05-03T07:46:30.75Z</time></trkpt><trkpt lat="42.358575" lon="13.5133517"><ele>969.4000000000001</ele><time>2026-05-03T07:46:31.75Z</time></trkpt><trkpt lat="42.3586167" lon="13.5134417"><ele>969.8000000000001</ele><time>2026-05-03T07:46:32.749Z</time></trkpt><trkpt lat="42.3586617" lon="13.513555"><ele>970.1999999999999</ele><time>2026-05-03T07:46:33.749Z</time></trkpt><trkpt lat="42.3587017" lon="13.5136683"><ele>970.5999999999999</ele><time>2026-05-03T07:46:34.75Z</time></trkpt><trkpt lat="42.358745" lon="13.5137817"><ele>971.0</ele><time>2026-05-03T07:46:35.748Z</time></trkpt><trkpt lat="42.3587883" lon="13.5138933"><ele>971.1666666666667</ele><time>2026-05-03T07:46:36.749Z</time></trkpt><trkpt lat="42.3588333" lon="13.5140067"><ele>971.3333333333334</ele><time>2026-05-03T07:46:37.749Z</time></trkpt><trkpt lat="42.3588783" lon="13.5141317"><ele>971.5</ele><time>2026-05-03T07:46:38.749Z</time></trkpt><trkpt lat="42.358925" lon="13.51424"><ele>971.6666666666667</ele><time>2026-05-03T07:46:39.748Z</time></trkpt><trkpt lat="42.3589617" lon="13.5143383"><ele>971.8333333333334</ele><time>2026-05-03T07:46:40.749Z</time></trkpt><trkpt lat="42.3589917" lon="13.5144133"><ele>972.0</ele><time>2026-05-03T07:46:41.749Z</time></trkpt><trkpt lat="42.3590317" lon="13.5144867"><ele>972.0</ele><time>2026-05-03T07:46:43.748Z</time></trkpt><trkpt lat="42.3590333" lon="13.5143717"><ele>972.0</ele><time>2026-05-03T07:47:03.748Z</time></trkpt><trkpt lat="42.3589717" lon="13.514215"><ele>972.0</ele><time>2026-05-03T07:47:05.749Z</time></trkpt><trkpt lat="42.358935" lon="13.51414"><ele>972.0</ele><time>2026-05-03T07:47:06.748Z</time></trkpt><trkpt lat="42.358875" lon="13.5140183"><ele>972.0</ele><time>2026-05-03T07:47:08.748Z</time></trkpt><trkpt lat="42.3588283" lon="13.5138917"><ele>972.0</ele><time>2026-05-03T07:47:10.749Z</time></trkpt><trkpt lat="42.358785" lon="13.5137633"><ele>972.0</ele><time>2026-05-03T07:47:12.749Z</time></trkpt><trkpt lat="42.3587433" lon="13.513685"><ele>972.0</ele><time>2026-05-03T07:47:14.748Z</time></trkpt><trkpt lat="42.3586733" lon="13.5137617"><ele>972.0</ele><time>2026-05-03T07:47:17.749Z</time></trkpt><trkpt lat="42.358685" lon="13.51391"><ele>972.0</ele><time>2026-05-03T07:47:19.749Z</time></trkpt><trkpt lat="42.3587233" lon="13.51401"><ele>972.0</ele><time>2026-05-03T07:47:20.749Z</time></trkpt><trkpt lat="42.35876" lon="13.5141233"><ele>972.0</ele><time>2026-05-03T07:47:21.749Z</time></trkpt><trkpt lat="42.35881" lon="13.5142367"><ele>972.0</ele><time>2026-05-03T07:47:22.749Z</time></trkpt><trkpt lat="42.3588783" lon="13.5143717"><ele>972.0</ele><time>2026-05-03T07:47:23.748Z</time></trkpt><trkpt lat="42.3589417" lon="13.514515"><ele>972.0</ele><time>2026-05-03T07:47:24.748Z</time></trkpt><trkpt lat="42.3590167" lon="13.5146717"><ele>975.25</ele><time>2026-05-03T07:47:25.749Z</time></trkpt><trkpt lat="42.3590817" lon="13.5148217"><ele>978.5</ele><time>2026-05-03T07:47:26.749Z</time></trkpt><trkpt lat="42.359145" lon="13.51497"><ele>981.75</ele><time>2026-05-03T07:47:27.749Z</time></trkpt><trkpt lat="42.3592033" lon="13.5151117"><ele>985.0</ele><time>2026-05-03T07:47:28.748Z</time></trkpt><trkpt lat="42.3592383" lon="13.5152367"><ele>985.0</ele><time>2026-05-03T07:47:29.748Z</time></trkpt><trkpt lat="42.35925" lon="13.515365"><ele>985.0</ele><time>2026-05-03T07:47:30.748Z</time></trkpt><trkpt lat="42.3592483" lon="13.5154883"><ele>985.0</ele><time>2026-05-03T07:47:31.748Z</time></trkpt><trkpt lat="42.3592317" lon="13.5155983"><ele>985.0</ele><time>2026-05-03T07:47:32.748Z</time></trkpt><trkpt lat="42.359195" lon="13.5157083"><ele>985.0</ele><time>2026-05-03T07:47:33.749Z</time></trkpt><trkpt lat="42.359145" lon="13.5158267"><ele>986.0</ele><time>2026-05-03T07:47:34.749Z</time></trkpt><trkpt lat="42.3590917" lon="13.515945"><ele>987.0</ele><time>2026-05-03T07:47:35.748Z</time></trkpt><trkpt lat="42.3590583" lon="13.5160767"><ele>988.0</ele><time>2026-05-03T07:47:36.749Z</time></trkpt><trkpt lat="42.35904" lon="13.5162133"><ele>989.0</ele><time>2026-05-03T07:47:37.749Z</time></trkpt><trkpt lat="42.3590317" lon="13.5163533"><ele>990.0</ele><time>2026-05-03T07:47:38.749Z</time></trkpt><trkpt lat="42.3590383" lon="13.5164933"><ele>991.8</ele><time>2026-05-03T07:47:39.749Z</time></trkpt><trkpt lat="42.3590367" lon="13.5166267"><ele>993.6</ele><time>2026-05-03T07:47:40.748Z</time></trkpt><trkpt lat="42.35902" lon="13.5167467"><ele>995.4000000000001</ele><time>2026-05-03T07:47:41.749Z</time></trkpt><trkpt lat="42.35898" lon="13.5168617"><ele>997.2</ele><time>2026-05-03T07:47:42.749Z</time></trkpt><trkpt lat="42.3589183" lon="13.5169867"><ele>999.0</ele><time>2026-05-03T07:47:43.749Z</time></trkpt><trkpt lat="42.3588633" lon="13.5171067"><ele>999.0</ele><time>2026-05-03T07:47:44.749Z</time></trkpt><trkpt lat="42.358795" lon="13.5172133"><ele>999.0000000000001</ele><time>2026-05-03T07:47:45.749Z</time></trkpt><trkpt lat="42.358745" lon="13.517325"><ele>999.0000000000001</ele><time>2026-05-03T07:47:46.748Z</time></trkpt><trkpt lat="42.3586867" lon="13.517425"><ele>999.0</ele><time>2026-05-03T07:47:47.748Z</time></trkpt><trkpt lat="42.3586433" lon="13.517505"><ele>999.0</ele><time>2026-05-03T07:47:48.748Z</time></trkpt><trkpt lat="42.3585817" lon="13.517615"><ele>999.0</ele><time>2026-05-03T07:47:50.748Z</time></trkpt><trkpt lat="42.3585933" lon="13.5177233"><ele>999.0</ele><time>2026-05-03T07:47:52.749Z</time></trkpt><trkpt lat="42.358645" lon="13.5177783"><ele>999.0</ele><time>2026-05-03T07:47:54.748Z</time></trkpt><trkpt lat="42.358705" lon="13.5177267"><ele>999.0</ele><time>2026-05-03T07:47:56.749Z</time></trkpt><trkpt lat="42.3587683" lon="13.5176067"><ele>999.0</ele><time>2026-05-03T07:47:58.749Z</time></trkpt><trkpt lat="42.3588117" lon="13.517525"><ele>999.0</ele><time>2026-05-03T07:47:59.749Z</time></trkpt><trkpt lat="42.3588783" lon="13.517435"><ele>1000.2</ele><time>2026-05-03T07:48:00.749Z</time></trkpt><trkpt lat="42.35895" lon="13.5173367"><ele>1001.4000000000001</ele><time>2026-05-03T07:48:01.749Z</time></trkpt><trkpt lat="42.35903" lon="13.5172433"><ele>1002.6</ele><time>2026-05-03T07:48:02.749Z</time></trkpt><trkpt lat="42.359105" lon="13.5171467"><ele>1003.8</ele><time>2026-05-03T07:48:03.749Z</time></trkpt><trkpt lat="42.3591733" lon="13.51705"><ele>1005.0</ele><time>2026-05-03T07:48:04.749Z</time></trkpt><trkpt lat="42.35924" lon="13.5169533"><ele>1005.0</ele><time>2026-05-03T07:48:05.748Z</time></trkpt><trkpt lat="42.3592983" lon="13.51686"><ele>1005.0</ele><time>2026-05-03T07:48:06.749Z</time></trkpt><trkpt lat="42.3593633" lon="13.5167767"><ele>1005.0</ele><time>2026-05-03T07:48:07.749Z</time></trkpt><trkpt lat="42.3594417" lon="13.5166983"><ele>1005.0</ele><time>2026-05-03T07:48:08.749Z</time></trkpt><trkpt lat="42.3595233" lon="13.51665"><ele>1005.0</ele><time>2026-05-03T07:48:09.749Z</time></trkpt><trkpt lat="42.3596083" lon="13.5166067"><ele>1005.0</ele><time>2026-05-03T07:48:10.748Z</time></trkpt><trkpt lat="42.359695" lon="13.5165717"><ele>1005.0</ele><time>2026-05-03T07:48:11.749Z</time></trkpt><trkpt lat="42.3597733" lon="13.5165417"><ele>1005.0</ele><time>2026-05-03T07:48:12.749Z</time></trkpt><trkpt lat="42.3598533" lon="13.5165317"><ele>1005.0</ele><time>2026-05-03T07:48:13.749Z</time></trkpt><trkpt lat="42.3599317" lon="13.516515"><ele>1005.0</ele><time>2026-05-03T07:48:14.748Z</time></trkpt><trkpt lat="42.3600183" lon="13.5164933"><ele>1005.0</ele><time>2026-05-03T07:48:15.749Z</time></trkpt><trkpt lat="42.3601183" lon="13.516475"><ele>1008.4</ele><time>2026-05-03T07:48:16.749Z</time></trkpt><trkpt lat="42.3602217" lon="13.51645"><ele>1011.8</ele><time>2026-05-03T07:48:17.748Z</time></trkpt><trkpt lat="42.3603183" lon="13.5164433"><ele>1015.2</ele><time>2026-05-03T07:48:18.749Z</time></trkpt><trkpt lat="42.3604217" lon="13.516445"><ele>1018.6</ele><time>2026-05-03T07:48:19.748Z</time></trkpt><trkpt lat="42.3605267" lon="13.5164667"><ele>1022.0</ele><time>2026-05-03T07:48:20.748Z</time></trkpt><trkpt lat="42.360625" lon="13.5164867"><ele>1023.8</ele><time>2026-05-03T07:48:21.749Z</time></trkpt><trkpt lat="42.3607367" lon="13.5165183"><ele>1025.6</ele><time>2026-05-03T07:48:22.749Z</time></trkpt><trkpt lat="42.3608467" lon="13.5165667"><ele>1027.3999999999999</ele><time>2026-05-03T07:48:23.749Z</time></trkpt><trkpt lat="42.3609583" lon="13.5165933"><ele>1029.2</ele><time>2026-05-03T07:48:24.749Z</time></trkpt><trkpt lat="42.3610517" lon="13.5166167"><ele>1031.0</ele><time>2026-05-03T07:48:25.749Z</time></trkpt><trkpt lat="42.3611567" lon="13.5166067"><ele>1031.0</ele><time>2026-05-03T07:48:26.749Z</time></trkpt><trkpt lat="42.3612667" lon="13.5165983"><ele>1031.0</ele><time>2026-05-03T07:48:27.749Z</time></trkpt><trkpt lat="42.3613683" lon="13.5165817"><ele>1031.0</ele><time>2026-05-03T07:48:28.749Z</time></trkpt><trkpt lat="42.3614733" lon="13.5165717"><ele>1031.0</ele><time>2026-05-03T07:48:29.748Z</time></trkpt><trkpt lat="42.36158" lon="13.516575"><ele>1031.0</ele><time>2026-05-03T07:48:30.749Z</time></trkpt><trkpt lat="42.3616967" lon="13.5165767"><ele>1032.2</ele><time>2026-05-03T07:48:31.749Z</time></trkpt><trkpt lat="42.3618117" lon="13.5165833"><ele>1033.3999999999999</ele><time>2026-05-03T07:48:32.748Z</time></trkpt><trkpt lat="42.3619267" lon="13.5165867"><ele>1034.6</ele><time>2026-05-03T07:48:33.749Z</time></trkpt><trkpt lat="42.3620367" lon="13.5165867"><ele>1035.8</ele><time>2026-05-03T07:48:34.748Z</time></trkpt><trkpt lat="42.3621433" lon="13.5165783"><ele>1037.0</ele><time>2026-05-03T07:48:35.749Z</time></trkpt><trkpt lat="42.3622483" lon="13.51657"><ele>1038.0</ele><time>2026-05-03T07:48:36.749Z</time></trkpt><trkpt lat="42.3623533" lon="13.51657"><ele>1039.0</ele><time>2026-05-03T07:48:37.748Z</time></trkpt><trkpt lat="42.3624583" lon="13.51658"><ele>1040.0</ele><time>2026-05-03T07:48:38.748Z</time></trkpt><trkpt lat="42.3625633" lon="13.5165933"><ele>1041.0</ele><time>2026-05-03T07:48:39.749Z</time></trkpt><trkpt lat="42.3626683" lon="13.5166117"><ele>1042.0</ele><time>2026-05-03T07:48:40.748Z</time></trkpt><trkpt lat="42.362775" lon="13.5166267"><ele>1042.0</ele><time>2026-05-03T07:48:41.749Z</time></trkpt><trkpt lat="42.36288" lon="13.516645"><ele>1042.0</ele><time>2026-05-03T07:48:42.748Z</time></trkpt><trkpt lat="42.36298" lon="13.5166833"><ele>1042.0</ele><time>2026-05-03T07:48:43.748Z</time></trkpt><trkpt lat="42.3630783" lon="13.5167317"><ele>1042.0</ele><time>2026-05-03T07:48:44.749Z</time></trkpt><trkpt lat="42.3631767" lon="13.5167967"><ele>1042.0</ele><time>2026-05-03T07:48:45.748Z</time></trkpt><trkpt lat="42.3632767" lon="13.516865"><ele>1042.0</ele><time>2026-05-03T07:48:46.749Z</time></trkpt><trkpt lat="42.36336" lon="13.51695"><ele>1042.0</ele><time>2026-05-03T07:48:47.749Z</time></trkpt><trkpt lat="42.3634517" lon="13.5170267"><ele>1042.0</ele><time>2026-05-03T07:48:48.748Z</time></trkpt><trkpt lat="42.3635483" lon="13.51709"><ele>1042.0</ele><time>2026-05-03T07:48:49.749Z</time></trkpt><trkpt lat="42.3636433" lon="13.5171467"><ele>1042.0</ele><time>2026-05-03T07:48:50.748Z</time></trkpt><trkpt lat="42.3637367" lon="13.5172033"><ele>1044.8</ele><time>2026-05-03T07:48:51.749Z</time></trkpt><trkpt lat="42.36383" lon="13.51725"><ele>1047.6</ele><time>2026-05-03T07:48:52.749Z</time></trkpt><trkpt lat="42.3639283" lon="13.51728"><ele>1050.3999999999999</ele><time>2026-05-03T07:48:53.748Z</time></trkpt><trkpt lat="42.3640233" lon="13.5172967"><ele>1053.2</ele><time>2026-05-03T07:48:54.749Z</time></trkpt><trkpt lat="42.36412" lon="13.517305"><ele>1056.0</ele><time>2026-05-03T07:48:55.749Z</time></trkpt><trkpt lat="42.3642183" lon="13.517325"><ele>1056.0</ele><time>2026-05-03T07:48:56.748Z</time></trkpt><trkpt lat="42.364305" lon="13.517355"><ele>1056.0</ele><time>2026-05-03T07:48:57.749Z</time></trkpt><trkpt lat="42.3643883" lon="13.517385"><ele>1056.0</ele><time>2026-05-03T07:48:58.749Z</time></trkpt><trkpt lat="42.3644783" lon="13.5174"><ele>1056.0</ele><time>2026-05-03T07:48:59.749Z</time></trkpt><trkpt lat="42.364575" lon="13.51742"><ele>1056.0</ele><time>2026-05-03T07:49:00.749Z</time></trkpt><trkpt lat="42.3646767" lon="13.5174483"><ele>1056.8</ele><time>2026-05-03T07:49:01.748Z</time></trkpt><trkpt lat="42.3647717" lon="13.5174867"><ele>1057.6</ele><time>2026-05-03T07:49:02.749Z</time></trkpt><trkpt lat="42.3648683" lon="13.51753"><ele>1058.4</ele><time>2026-05-03T07:49:03.749Z</time></trkpt><trkpt lat="42.3649583" lon="13.5175717"><ele>1059.2</ele><time>2026-05-03T07:49:04.749Z</time></trkpt><trkpt lat="42.3650433" lon="13.5176083"><ele>1060.0</ele><time>2026-05-03T07:49:05.749Z</time></trkpt><trkpt lat="42.3651433" lon="13.5176517"><ele>1060.0</ele><time>2026-05-03T07:49:06.748Z</time></trkpt><trkpt lat="42.3652367" lon="13.517705"><ele>1060.0</ele><time>2026-05-03T07:49:07.749Z</time></trkpt><trkpt lat="42.3653283" lon="13.5177683"><ele>1060.0</ele><time>2026-05-03T07:49:08.749Z</time></trkpt><trkpt lat="42.365415" lon="13.5178283"><ele>1060.0</ele><time>2026-05-03T07:49:09.749Z</time></trkpt><trkpt lat="42.3655033" lon="13.51789"><ele>1060.0</ele><time>2026-05-03T07:49:10.749Z</time></trkpt><trkpt lat="42.3655833" lon="13.5179533"><ele>1061.5</ele><time>2026-05-03T07:49:11.748Z</time></trkpt><trkpt lat="42.36566" lon="13.518005"><ele>1063.0</ele><time>2026-05-03T07:49:12.749Z</time></trkpt><trkpt lat="42.3657217" lon="13.5180667"><ele>1064.5</ele><time>2026-05-03T07:49:13.749Z</time></trkpt><trkpt lat="42.3657783" lon="13.5181217"><ele>1066.0</ele><time>2026-05-03T07:49:14.749Z</time></trkpt><trkpt lat="42.3658133" lon="13.5182367"><ele>1067.5</ele><time>2026-05-03T07:49:16.748Z</time></trkpt><trkpt lat="42.3657533" lon="13.5183133"><ele>1069.0</ele><time>2026-05-03T07:49:18.748Z</time></trkpt><trkpt lat="42.3656333" lon="13.51827"><ele>1069.0</ele><time>2026-05-03T07:49:20.749Z</time></trkpt><trkpt lat="42.3655567" lon="13.51822"><ele>1069.0</ele><time>2026-05-03T07:49:21.749Z</time></trkpt><trkpt lat="42.3654583" lon="13.51817"><ele>1069.0</ele><time>2026-05-03T07:49:22.749Z</time></trkpt><trkpt lat="42.3653483" lon="13.5181283"><ele>1069.0</ele><time>2026-05-03T07:49:23.748Z</time></trkpt><trkpt lat="42.3652333" lon="13.518115"><ele>1069.0</ele><time>2026-05-03T07:49:24.749Z</time></trkpt><trkpt lat="42.36512" lon="13.51813"><ele>1070.6000000000001</ele><time>2026-05-03T07:49:25.749Z</time></trkpt><trkpt lat="42.3650017" lon="13.5181567"><ele>1072.2</ele><time>2026-05-03T07:49:26.749Z</time></trkpt><trkpt lat="42.3648883" lon="13.5181833"><ele>1073.8000000000002</ele><time>2026-05-03T07:49:27.749Z</time></trkpt><trkpt lat="42.364785" lon="13.5181967"><ele>1075.4</ele><time>2026-05-03T07:49:28.749Z</time></trkpt><trkpt lat="42.364715" lon="13.5182033"><ele>1077.0</ele><time>2026-05-03T07:49:29.748Z</time></trkpt><trkpt lat="42.3646333" lon="13.518265"><ele>1077.0</ele><time>2026-05-03T07:49:31.749Z</time></trkpt><trkpt lat="42.36462" lon="13.5183883"><ele>1077.0</ele><time>2026-05-03T07:49:33.748Z</time></trkpt><trkpt lat="42.3647117" lon="13.5184617"><ele>1077.0</ele><time>2026-05-03T07:49:35.749Z</time></trkpt><trkpt lat="42.3647867" lon="13.5184683"><ele>1077.0</ele><time>2026-05-03T07:49:36.748Z</time></trkpt><trkpt lat="42.3648783" lon="13.5184633"><ele>1077.0</ele><time>2026-05-03T07:49:37.749Z</time></trkpt><trkpt lat="42.3649933" lon="13.5184667"><ele>1077.0</ele><time>2026-05-03T07:49:38.749Z</time></trkpt><trkpt lat="42.365105" lon="13.5185033"><ele>1077.0</ele><time>2026-05-03T07:49:39.748Z</time></trkpt><trkpt lat="42.3652083" lon="13.5185667"><ele>1077.0</ele><time>2026-05-03T07:49:40.748Z</time></trkpt><trkpt lat="42.36529" lon="13.5186367"><ele>1077.0</ele><time>2026-05-03T07:49:41.748Z</time></trkpt><trkpt lat="42.3653633" lon="13.518735"><ele>1077.0</ele><time>2026-05-03T07:49:42.748Z</time></trkpt><trkpt lat="42.36545" lon="13.51884"><ele>1078.6</ele><time>2026-05-03T07:49:43.749Z</time></trkpt><trkpt lat="42.3655333" lon="13.5189383"><ele>1080.2</ele><time>2026-05-03T07:49:44.749Z</time></trkpt><trkpt lat="42.3656217" lon="13.5190367"><ele>1081.8</ele><time>2026-05-03T07:49:45.749Z</time></trkpt><trkpt lat="42.3656983" lon="13.5191217"><ele>1083.4</ele><time>2026-05-03T07:49:46.748Z</time></trkpt><trkpt lat="42.36576" lon="13.519205"><ele>1085.0</ele><time>2026-05-03T07:49:47.749Z</time></trkpt><trkpt lat="42.3657933" lon="13.5192817"><ele>1085.0</ele><time>2026-05-03T07:49:48.749Z</time></trkpt><trkpt lat="42.3658133" lon="13.51937"><ele>1085.0</ele><time>2026-05-03T07:49:49.748Z</time></trkpt><trkpt lat="42.3658283" lon="13.5194833"><ele>1085.0</ele><time>2026-05-03T07:49:50.749Z</time></trkpt><trkpt lat="42.365825" lon="13.519605"><ele>1085.0</ele><time>2026-05-03T07:49:51.748Z</time></trkpt><trkpt lat="42.36582" lon="13.51974"><ele>1085.0</ele><time>2026-05-03T07:49:52.748Z</time></trkpt><trkpt lat="42.3658133" lon="13.5199"><ele>1087.2</ele><time>2026-05-03T07:49:53.749Z</time></trkpt><trkpt lat="42.3658133" lon="13.5200567"><ele>1089.4</ele><time>2026-05-03T07:49:54.749Z</time></trkpt><trkpt lat="42.3658033" lon="13.520205"><ele>1091.6</ele><time>2026-05-03T07:49:55.749Z</time></trkpt><trkpt lat="42.3657983" lon="13.5203383"><ele>1093.8</ele><time>2026-05-03T07:49:56.749Z</time></trkpt><trkpt lat="42.3658133" lon="13.5204717"><ele>1096.0</ele><time>2026-05-03T07:49:57.749Z</time></trkpt><trkpt lat="42.3658317" lon="13.520605"><ele>1096.6</ele><time>2026-05-03T07:49:58.748Z</time></trkpt><trkpt lat="42.3658633" lon="13.520735"><ele>1097.1999999999998</ele><time>2026-05-03T07:49:59.749Z</time></trkpt><trkpt lat="42.3658867" lon="13.5208633"><ele>1097.8000000000002</ele><time>2026-05-03T07:50:00.749Z</time></trkpt><trkpt lat="42.365895" lon="13.5209783"><ele>1098.4</ele><time>2026-05-03T07:50:01.749Z</time></trkpt><trkpt lat="42.36589" lon="13.5211017"><ele>1099.0</ele><time>2026-05-03T07:50:02.749Z</time></trkpt><trkpt lat="42.3658767" lon="13.5212317"><ele>1099.4</ele><time>2026-05-03T07:50:03.749Z</time></trkpt><trkpt lat="42.3658617" lon="13.5213617"><ele>1099.8000000000002</ele><time>2026-05-03T07:50:04.748Z</time></trkpt><trkpt lat="42.3658433" lon="13.5214933"><ele>1100.1999999999998</ele><time>2026-05-03T07:50:05.748Z</time></trkpt><trkpt lat="42.36582" lon="13.521625"><ele>1100.6</ele><time>2026-05-03T07:50:06.749Z</time></trkpt><trkpt lat="42.3657817" lon="13.5217417"><ele>1101.0</ele><time>2026-05-03T07:50:07.749Z</time></trkpt><trkpt lat="42.3657567" lon="13.5218517"><ele>1101.0</ele><time>2026-05-03T07:50:08.749Z</time></trkpt><trkpt lat="42.3657467" lon="13.5219683"><ele>1101.0</ele><time>2026-05-03T07:50:09.748Z</time></trkpt><trkpt lat="42.3657567" lon="13.5220917"><ele>1101.0</ele><time>2026-05-03T07:50:10.749Z</time></trkpt><trkpt lat="42.365765" lon="13.52222"><ele>1101.0</ele><time>2026-05-03T07:50:11.749Z</time></trkpt><trkpt lat="42.3657617" lon="13.52233"><ele>1101.0</ele><time>2026-05-03T07:50:12.749Z</time></trkpt><trkpt lat="42.3657367" lon="13.5224083"><ele>1101.0</ele><time>2026-05-03T07:50:13.749Z</time></trkpt><trkpt lat="42.3657017" lon="13.5224817"><ele>1102.1666666666667</ele><time>2026-05-03T07:50:14.749Z</time></trkpt><trkpt lat="42.3656567" lon="13.5225417"><ele>1103.3333333333333</ele><time>2026-05-03T07:50:15.749Z</time></trkpt><trkpt lat="42.3656" lon="13.5226067"><ele>1104.5</ele><time>2026-05-03T07:50:16.748Z</time></trkpt><trkpt lat="42.3655417" lon="13.5227"><ele>1105.6666666666665</ele><time>2026-05-03T07:50:17.749Z</time></trkpt><trkpt lat="42.36548" lon="13.5228"><ele>1106.8333333333333</ele><time>2026-05-03T07:50:18.749Z</time></trkpt><trkpt lat="42.3654233" lon="13.5228983"><ele>1108.0</ele><time>2026-05-03T07:50:19.749Z</time></trkpt><trkpt lat="42.3653617" lon="13.5229883"><ele>1109.2</ele><time>2026-05-03T07:50:20.748Z</time></trkpt><trkpt lat="42.3653017" lon="13.5230767"><ele>1110.4</ele><time>2026-05-03T07:50:21.749Z</time></trkpt><trkpt lat="42.36523" lon="13.5231833"><ele>1111.6000000000001</ele><time>2026-05-03T07:50:22.749Z</time></trkpt><trkpt lat="42.3651583" lon="13.52329"><ele>1112.8</ele><time>2026-05-03T07:50:23.749Z</time></trkpt><trkpt lat="42.3650867" lon="13.5233967"><ele>1114.0</ele><time>2026-05-03T07:50:24.749Z</time></trkpt><trkpt lat="42.3650183" lon="13.5235017"><ele>1114.0</ele><time>2026-05-03T07:50:25.748Z</time></trkpt><trkpt lat="42.3649433" lon="13.5236067"><ele>1114.0</ele><time>2026-05-03T07:50:26.749Z</time></trkpt><trkpt lat="42.3648617" lon="13.5237083"><ele>1114.0</ele><time>2026-05-03T07:50:27.749Z</time></trkpt><trkpt lat="42.3647933" lon="13.523805"><ele>1114.0</ele><time>2026-05-03T07:50:28.749Z</time></trkpt><trkpt lat="42.3647433" lon="13.523915"><ele>1114.0</ele><time>2026-05-03T07:50:29.748Z</time></trkpt><trkpt lat="42.3646967" lon="13.5240417"><ele>1115.6000000000001</ele><time>2026-05-03T07:50:30.749Z</time></trkpt><trkpt lat="42.36464" lon="13.5241683"><ele>1117.2</ele><time>2026-05-03T07:50:31.749Z</time></trkpt><trkpt lat="42.3646033" lon="13.5242983"><ele>1118.8000000000002</ele><time>2026-05-03T07:50:32.749Z</time></trkpt><trkpt lat="42.3645583" lon="13.5244417"><ele>1120.4</ele><time>2026-05-03T07:50:33.748Z</time></trkpt><trkpt lat="42.3645233" lon="13.5245783"><ele>1122.0</ele><time>2026-05-03T07:50:34.749Z</time></trkpt><trkpt lat="42.36449" lon="13.524715"><ele>1122.2</ele><time>2026-05-03T07:50:35.749Z</time></trkpt><trkpt lat="42.364475" lon="13.524845"><ele>1122.4</ele><time>2026-05-03T07:50:36.748Z</time></trkpt><trkpt lat="42.364475" lon="13.5249817"><ele>1122.6</ele><time>2026-05-03T07:50:37.748Z</time></trkpt><trkpt lat="42.3644917" lon="13.5251133"><ele>1122.8</ele><time>2026-05-03T07:50:38.747Z</time></trkpt><trkpt lat="42.3645233" lon="13.5252433"><ele>1123.0</ele><time>2026-05-03T07:50:39.748Z</time></trkpt><trkpt lat="42.36455" lon="13.5253883"><ele>1123.25</ele><time>2026-05-03T07:50:40.748Z</time></trkpt><trkpt lat="42.3645817" lon="13.5255283"><ele>1123.5</ele><time>2026-05-03T07:50:41.748Z</time></trkpt><trkpt lat="42.3646" lon="13.52568"><ele>1123.75</ele><time>2026-05-03T07:50:42.748Z</time></trkpt><trkpt lat="42.364595" lon="13.5258433"><ele>1124.0</ele><time>2026-05-03T07:50:43.748Z</time></trkpt><trkpt lat="42.36459" lon="13.5260033"><ele>1124.0</ele><time>2026-05-03T07:50:44.747Z</time></trkpt><trkpt lat="42.3645833" lon="13.5261583"><ele>1124.0</ele><time>2026-05-03T07:50:45.748Z</time></trkpt><trkpt lat="42.3645667" lon="13.526305"><ele>1124.0</ele><time>2026-05-03T07:50:46.747Z</time></trkpt><trkpt lat="42.3645467" lon="13.5264467"><ele>1124.0</ele><time>2026-05-03T07:50:47.748Z</time></trkpt><trkpt lat="42.3645317" lon="13.5265867"><ele>1124.0</ele><time>2026-05-03T07:50:48.747Z</time></trkpt><trkpt lat="42.364525" lon="13.5267317"><ele>1124.4</ele><time>2026-05-03T07:50:49.748Z</time></trkpt><trkpt lat="42.3645383" lon="13.5268733"><ele>1124.8000000000002</ele><time>2026-05-03T07:50:50.748Z</time></trkpt><trkpt lat="42.3645467" lon="13.5270083"><ele>1125.1999999999998</ele><time>2026-05-03T07:50:51.747Z</time></trkpt><trkpt lat="42.364555" lon="13.5271233"><ele>1125.6</ele><time>2026-05-03T07:50:52.748Z</time></trkpt><trkpt lat="42.3645667" lon="13.5272517"><ele>1126.0</ele><time>2026-05-03T07:50:53.748Z</time></trkpt><trkpt lat="42.36459" lon="13.5273833"><ele>1127.2</ele><time>2026-05-03T07:50:54.748Z</time></trkpt><trkpt lat="42.364615" lon="13.5275067"><ele>1128.3999999999999</ele><time>2026-05-03T07:50:55.748Z</time></trkpt><trkpt lat="42.3646283" lon="13.5276267"><ele>1129.6</ele><time>2026-05-03T07:50:56.748Z</time></trkpt><trkpt lat="42.3646217" lon="13.5277467"><ele>1130.8</ele><time>2026-05-03T07:50:57.748Z</time></trkpt><trkpt lat="42.3646133" lon="13.5278917"><ele>1132.0</ele><time>2026-05-03T07:50:58.747Z</time></trkpt><trkpt lat="42.3646017" lon="13.5280583"><ele>1133.5</ele><time>2026-05-03T07:50:59.748Z</time></trkpt><trkpt lat="42.3645783" lon="13.528225"><ele>1135.0</ele><time>2026-05-03T07:51:00.748Z</time></trkpt><trkpt lat="42.364545" lon="13.528385"><ele>1136.5</ele><time>2026-05-03T07:51:01.748Z</time></trkpt><trkpt lat="42.3645183" lon="13.5285417"><ele>1138.0</ele><time>2026-05-03T07:51:02.748Z</time></trkpt><trkpt lat="42.3645117" lon="13.5286833"><ele>1140.0</ele><time>2026-05-03T07:51:03.747Z</time></trkpt><trkpt lat="42.3645217" lon="13.5288217"><ele>1142.0</ele><time>2026-05-03T07:51:04.747Z</time></trkpt><trkpt lat="42.364545" lon="13.5289667"><ele>1144.0</ele><time>2026-05-03T07:51:05.748Z</time></trkpt><trkpt lat="42.3645567" lon="13.5290967"><ele>1146.0</ele><time>2026-05-03T07:51:06.747Z</time></trkpt><trkpt lat="42.3645517" lon="13.529215"><ele>1148.0</ele><time>2026-05-03T07:51:07.747Z</time></trkpt><trkpt lat="42.36455" lon="13.5293117"><ele>1148.0</ele><time>2026-05-03T07:51:08.747Z</time></trkpt><trkpt lat="42.36457" lon="13.529395"><ele>1148.0</ele><time>2026-05-03T07:51:09.747Z</time></trkpt><trkpt lat="42.364645" lon="13.5294717"><ele>1148.0</ele><time>2026-05-03T07:51:11.748Z</time></trkpt><trkpt lat="42.3647067" lon="13.5294533"><ele>1148.0</ele><time>2026-05-03T07:51:12.747Z</time></trkpt><trkpt lat="42.36476" lon="13.5293883"><ele>1148.0</ele><time>2026-05-03T07:51:13.748Z</time></trkpt><trkpt lat="42.3647983" lon="13.529295"><ele>1148.0</ele><time>2026-05-03T07:51:14.748Z</time></trkpt><trkpt lat="42.3648333" lon="13.52918"><ele>1149.6</ele><time>2026-05-03T07:51:15.747Z</time></trkpt><trkpt lat="42.3648783" lon="13.5290717"><ele>1151.1999999999998</ele><time>2026-05-03T07:51:16.748Z</time></trkpt><trkpt lat="42.3649417" lon="13.5289783"><ele>1152.8</ele><time>2026-05-03T07:51:17.748Z</time></trkpt><trkpt lat="42.3650233" lon="13.5288867"><ele>1154.3999999999999</ele><time>2026-05-03T07:51:18.748Z</time></trkpt><trkpt lat="42.3651133" lon="13.5288117"><ele>1156.0</ele><time>2026-05-03T07:51:19.747Z</time></trkpt><trkpt lat="42.3652117" lon="13.528745"><ele>1155.1666666666665</ele><time>2026-05-03T07:51:20.748Z</time></trkpt><trkpt lat="42.3653167" lon="13.5286783"><ele>1154.3333333333333</ele><time>2026-05-03T07:51:21.748Z</time></trkpt><trkpt lat="42.3653983" lon="13.52862"><ele>1153.5</ele><time>2026-05-03T07:51:22.747Z</time></trkpt><trkpt lat="42.3654583" lon="13.5285933"><ele>1152.6666666666667</ele><time>2026-05-03T07:51:23.748Z</time></trkpt><trkpt lat="42.3655383" lon="13.5286083"><ele>1151.8333333333335</ele><time>2026-05-03T07:51:25.747Z</time></trkpt><trkpt lat="42.36559" lon="13.52866"><ele>1151.0</ele><time>2026-05-03T07:51:28.747Z</time></trkpt><trkpt lat="42.3655317" lon="13.5287433"><ele>1151.7142857142856</ele><time>2026-05-03T07:51:40.748Z</time></trkpt><trkpt lat="42.3654567" lon="13.5288267"><ele>1152.4285714285713</ele><time>2026-05-03T07:51:42.747Z</time></trkpt><trkpt lat="42.3653967" lon="13.5288583"><ele>1153.142857142857</ele><time>2026-05-03T07:51:43.748Z</time></trkpt><trkpt lat="42.3653383" lon="13.5288967"><ele>1153.8571428571427</ele><time>2026-05-03T07:51:44.748Z</time></trkpt><trkpt lat="42.36528" lon="13.528945"><ele>1154.5714285714284</ele><time>2026-05-03T07:51:45.747Z</time></trkpt><trkpt lat="42.365225" lon="13.529005"><ele>1155.2857142857142</ele><time>2026-05-03T07:51:46.748Z</time></trkpt><trkpt lat="42.3651783" lon="13.52908"><ele>1156.0</ele><time>2026-05-03T07:51:47.747Z</time></trkpt><trkpt lat="42.3651383" lon="13.5291633"><ele>1156.0</ele><time>2026-05-03T07:51:48.747Z</time></trkpt><trkpt lat="42.3651" lon="13.52925"><ele>1156.0</ele><time>2026-05-03T07:51:49.747Z</time></trkpt><trkpt lat="42.3650733" lon="13.52936"><ele>1156.0</ele><time>2026-05-03T07:51:50.748Z</time></trkpt><trkpt lat="42.3650583" lon="13.5294867"><ele>1156.0</ele><time>2026-05-03T07:51:51.748Z</time></trkpt><trkpt lat="42.3650617" lon="13.5296"><ele>1156.0</ele><time>2026-05-03T07:51:52.747Z</time></trkpt><trkpt lat="42.3650833" lon="13.5296983"><ele>1156.0</ele><time>2026-05-03T07:51:53.748Z</time></trkpt><trkpt lat="42.3651167" lon="13.52979"><ele>1157.0</ele><time>2026-05-03T07:51:54.747Z</time></trkpt><trkpt lat="42.3651583" lon="13.5298783"><ele>1158.0</ele><time>2026-05-03T07:51:55.747Z</time></trkpt><trkpt lat="42.365215" lon="13.5299617"><ele>1159.0</ele><time>2026-05-03T07:51:56.747Z</time></trkpt><trkpt lat="42.3652833" lon="13.5300467"><ele>1160.0</ele><time>2026-05-03T07:51:57.747Z</time></trkpt><trkpt lat="42.3653583" lon="13.5301283"><ele>1161.0</ele><time>2026-05-03T07:51:58.748Z</time></trkpt><trkpt lat="42.3654383" lon="13.5302117"><ele>1161.0</ele><time>2026-05-03T07:51:59.748Z</time></trkpt><trkpt lat="42.3655167" lon="13.5302983"><ele>1161.0</ele><time>2026-05-03T07:52:00.748Z</time></trkpt><trkpt lat="42.3655733" lon="13.5304083"><ele>1161.0</ele><time>2026-05-03T07:52:01.748Z</time></trkpt><trkpt lat="42.36561" lon="13.530545"><ele>1161.0</ele><time>2026-05-03T07:52:02.747Z</time></trkpt><trkpt lat="42.365625" lon="13.5306933"><ele>1161.0</ele><time>2026-05-03T07:52:03.748Z</time></trkpt><trkpt lat="42.3656317" lon="13.5308317"><ele>1163.3999999999999</ele><time>2026-05-03T07:52:04.748Z</time></trkpt><trkpt lat="42.3656467" lon="13.530965"><ele>1165.8</ele><time>2026-05-03T07:52:05.748Z</time></trkpt><trkpt lat="42.3656717" lon="13.5310783"><ele>1168.1999999999998</ele><time>2026-05-03T07:52:06.747Z</time></trkpt><trkpt lat="42.3657167" lon="13.5311783"><ele>1170.6</ele><time>2026-05-03T07:52:07.748Z</time></trkpt><trkpt lat="42.3657683" lon="13.5312867"><ele>1173.0</ele><time>2026-05-03T07:52:08.747Z</time></trkpt><trkpt lat="42.365825" lon="13.5314017"><ele>1174.0</ele><time>2026-05-03T07:52:09.747Z</time></trkpt><trkpt lat="42.3658783" lon="13.5315183"><ele>1175.0</ele><time>2026-05-03T07:52:10.748Z</time></trkpt><trkpt lat="42.3659317" lon="13.531645"><ele>1176.0</ele><time>2026-05-03T07:52:11.747Z</time></trkpt><trkpt lat="42.365975" lon="13.531775"><ele>1177.0</ele><time>2026-05-03T07:52:12.748Z</time></trkpt><trkpt lat="42.3659983" lon="13.531915"><ele>1178.0</ele><time>2026-05-03T07:52:13.747Z</time></trkpt><trkpt lat="42.3660167" lon="13.53205"><ele>1178.2</ele><time>2026-05-03T07:52:14.747Z</time></trkpt><trkpt lat="42.366025" lon="13.5321867"><ele>1178.4</ele><time>2026-05-03T07:52:15.748Z</time></trkpt><trkpt lat="42.3660167" lon="13.5323167"><ele>1178.6000000000001</ele><time>2026-05-03T07:52:16.748Z</time></trkpt><trkpt lat="42.3659817" lon="13.53243"><ele>1178.8</ele><time>2026-05-03T07:52:17.748Z</time></trkpt><trkpt lat="42.36593" lon="13.5325417"><ele>1179.0</ele><time>2026-05-03T07:52:18.747Z</time></trkpt><trkpt lat="42.3658733" lon="13.5326567"><ele>1179.0</ele><time>2026-05-03T07:52:19.748Z</time></trkpt><trkpt lat="42.3657983" lon="13.5327683"><ele>1179.0</ele><time>2026-05-03T07:52:20.748Z</time></trkpt><trkpt lat="42.36572" lon="13.5328633"><ele>1179.0</ele><time>2026-05-03T07:52:21.748Z</time></trkpt><trkpt lat="42.3656383" lon="13.5329333"><ele>1179.0</ele><time>2026-05-03T07:52:22.748Z</time></trkpt><trkpt lat="42.365535" lon="13.5330083"><ele>1179.0</ele><time>2026-05-03T07:52:23.748Z</time></trkpt><trkpt lat="42.3654233" lon="13.5330833"><ele>1185.0</ele><time>2026-05-03T07:52:24.748Z</time></trkpt><trkpt lat="42.36532" lon="13.53317"><ele>1191.0</ele><time>2026-05-03T07:52:25.748Z</time></trkpt><trkpt lat="42.3652333" lon="13.5332683"><ele>1197.0</ele><time>2026-05-03T07:52:26.747Z</time></trkpt><trkpt lat="42.365165" lon="13.5333933"><ele>1203.0</ele><time>2026-05-03T07:52:27.748Z</time></trkpt><trkpt lat="42.365105" lon="13.533525"><ele>1203.0</ele><time>2026-05-03T07:52:28.747Z</time></trkpt><trkpt lat="42.365055" lon="13.5336567"><ele>1203.0</ele><time>2026-05-03T07:52:29.748Z</time></trkpt><trkpt lat="42.365025" lon="13.5337967"><ele>1203.0</ele><time>2026-05-03T07:52:30.748Z</time></trkpt><trkpt lat="42.3650183" lon="13.533945"><ele>1203.0</ele><time>2026-05-03T07:52:31.748Z</time></trkpt><trkpt lat="42.3650167" lon="13.5340883"><ele>1203.0</ele><time>2026-05-03T07:52:32.747Z</time></trkpt><trkpt lat="42.3650033" lon="13.534225"><ele>1204.0</ele><time>2026-05-03T07:52:33.748Z</time></trkpt><trkpt lat="42.3649883" lon="13.5343617"><ele>1205.0</ele><time>2026-05-03T07:52:34.748Z</time></trkpt><trkpt lat="42.3649833" lon="13.5345033"><ele>1206.0</ele><time>2026-05-03T07:52:35.748Z</time></trkpt><trkpt lat="42.3649783" lon="13.5346567"><ele>1207.0</ele><time>2026-05-03T07:52:36.747Z</time></trkpt><trkpt lat="42.36497" lon="13.5348017"><ele>1208.0</ele><time>2026-05-03T07:52:37.748Z</time></trkpt><trkpt lat="42.3649733" lon="13.53494"><ele>1209.0</ele><time>2026-05-03T07:52:38.747Z</time></trkpt><trkpt lat="42.3649683" lon="13.53508"><ele>1210.0</ele><time>2026-05-03T07:52:39.747Z</time></trkpt><trkpt lat="42.36496" lon="13.5352217"><ele>1211.0</ele><time>2026-05-03T07:52:40.747Z</time></trkpt><trkpt lat="42.3649417" lon="13.5353667"><ele>1212.0</ele><time>2026-05-03T07:52:41.748Z</time></trkpt><trkpt lat="42.3649067" lon="13.535515"><ele>1213.0</ele><time>2026-05-03T07:52:42.748Z</time></trkpt><trkpt lat="42.3648733" lon="13.53568"><ele>1213.25</ele><time>2026-05-03T07:52:43.748Z</time></trkpt><trkpt lat="42.3648383" lon="13.535835"><ele>1213.5</ele><time>2026-05-03T07:52:44.747Z</time></trkpt><trkpt lat="42.3647967" lon="13.536"><ele>1213.75</ele><time>2026-05-03T07:52:45.748Z</time></trkpt><trkpt lat="42.3647567" lon="13.5361567"><ele>1214.0</ele><time>2026-05-03T07:52:46.748Z</time></trkpt><trkpt lat="42.3647183" lon="13.5363033"><ele>1214.4</ele><time>2026-05-03T07:52:47.747Z</time></trkpt><trkpt lat="42.3646883" lon="13.5364483"><ele>1214.8000000000002</ele><time>2026-05-03T07:52:48.747Z</time></trkpt><trkpt lat="42.364675" lon="13.536595"><ele>1215.1999999999998</ele><time>2026-05-03T07:52:49.747Z</time></trkpt><trkpt lat="42.3646583" lon="13.5367433"><ele>1215.6</ele><time>2026-05-03T07:52:50.748Z</time></trkpt><trkpt lat="42.3646183" lon="13.53688"><ele>1216.0</ele><time>2026-05-03T07:52:51.747Z</time></trkpt><trkpt lat="42.3645667" lon="13.5370183"><ele>1216.75</ele><time>2026-05-03T07:52:52.748Z</time></trkpt><trkpt lat="42.3645" lon="13.5371583"><ele>1217.5</ele><time>2026-05-03T07:52:53.748Z</time></trkpt><trkpt lat="42.3644267" lon="13.5372983"><ele>1218.25</ele><time>2026-05-03T07:52:54.748Z</time></trkpt><trkpt lat="42.36435" lon="13.5374383"><ele>1219.0</ele><time>2026-05-03T07:52:55.748Z</time></trkpt><trkpt lat="42.3642733" lon="13.537575"><ele>1219.0</ele><time>2026-05-03T07:52:56.748Z</time></trkpt><trkpt lat="42.3641933" lon="13.5377117"><ele>1219.0</ele><time>2026-05-03T07:52:57.748Z</time></trkpt><trkpt lat="42.3641233" lon="13.5378467"><ele>1219.0</ele><time>2026-05-03T07:52:58.748Z</time></trkpt><trkpt lat="42.36407" lon="13.537965"><ele>1219.0</ele><time>2026-05-03T07:52:59.747Z</time></trkpt><trkpt lat="42.3640133" lon="13.5380717"><ele>1220.25</ele><time>2026-05-03T07:53:00.747Z</time></trkpt><trkpt lat="42.3639483" lon="13.53818"><ele>1221.5</ele><time>2026-05-03T07:53:01.747Z</time></trkpt><trkpt lat="42.3638667" lon="13.5382767"><ele>1222.75</ele><time>2026-05-03T07:53:02.747Z</time></trkpt><trkpt lat="42.3637783" lon="13.5383867"><ele>1224.0</ele><time>2026-05-03T07:53:03.748Z</time></trkpt><trkpt lat="42.3636867" lon="13.538495"><ele>1224.0</ele><time>2026-05-03T07:53:04.748Z</time></trkpt><trkpt lat="42.3635917" lon="13.53861"><ele>1224.0</ele><time>2026-05-03T07:53:05.747Z</time></trkpt><trkpt lat="42.3635" lon="13.5387117"><ele>1224.0</ele><time>2026-05-03T07:53:06.748Z</time></trkpt><trkpt lat="42.3634033" lon="13.538835"><ele>1224.0</ele><time>2026-05-03T07:53:07.748Z</time></trkpt><trkpt lat="42.3633083" lon="13.53896"><ele>1225.0</ele><time>2026-05-03T07:53:08.747Z</time></trkpt><trkpt lat="42.3632217" lon="13.5391"><ele>1226.0</ele><time>2026-05-03T07:53:09.747Z</time></trkpt><trkpt lat="42.3631267" lon="13.539235"><ele>1227.0</ele><time>2026-05-03T07:53:10.748Z</time></trkpt><trkpt lat="42.3630283" lon="13.539365"><ele>1228.0</ele><time>2026-05-03T07:53:11.748Z</time></trkpt><trkpt lat="42.3629417" lon="13.53949"><ele>1227.5</ele><time>2026-05-03T07:53:12.748Z</time></trkpt><trkpt lat="42.3628533" lon="13.5396067"><ele>1227.0</ele><time>2026-05-03T07:53:13.748Z</time></trkpt><trkpt lat="42.3627717" lon="13.5397267"><ele>1226.5</ele><time>2026-05-03T07:53:14.748Z</time></trkpt><trkpt lat="42.3626867" lon="13.5398333"><ele>1226.0</ele><time>2026-05-03T07:53:15.748Z</time></trkpt><trkpt lat="42.3626117" lon="13.5399567"><ele>1226.0</ele><time>2026-05-03T07:53:16.747Z</time></trkpt><trkpt lat="42.3625417" lon="13.540095"><ele>1226.0</ele><time>2026-05-03T07:53:17.748Z</time></trkpt><trkpt lat="42.3624767" lon="13.5402467"><ele>1226.0</ele><time>2026-05-03T07:53:18.747Z</time></trkpt><trkpt lat="42.3624267" lon="13.540405"><ele>1226.0</ele><time>2026-05-03T07:53:19.747Z</time></trkpt><trkpt lat="42.3623817" lon="13.54057"><ele>1227.0</ele><time>2026-05-03T07:53:20.747Z</time></trkpt><trkpt lat="42.3623417" lon="13.5407367"><ele>1228.0</ele><time>2026-05-03T07:53:21.747Z</time></trkpt><trkpt lat="42.3623017" lon="13.5409017"><ele>1229.0</ele><time>2026-05-03T07:53:22.748Z</time></trkpt><trkpt lat="42.3622683" lon="13.5410617"><ele>1230.0</ele><time>2026-05-03T07:53:23.748Z</time></trkpt><trkpt lat="42.3622183" lon="13.5412167"><ele>1230.0</ele><time>2026-05-03T07:53:24.748Z</time></trkpt><trkpt lat="42.36218" lon="13.5413767"><ele>1230.0</ele><time>2026-05-03T07:53:25.747Z</time></trkpt><trkpt lat="42.36213" lon="13.5415417"><ele>1230.0</ele><time>2026-05-03T07:53:26.747Z</time></trkpt><trkpt lat="42.3620783" lon="13.54171"><ele>1230.0</ele><time>2026-05-03T07:53:27.747Z</time></trkpt><trkpt lat="42.3620333" lon="13.54188"><ele>1230.0</ele><time>2026-05-03T07:53:28.748Z</time></trkpt><trkpt lat="42.3619867" lon="13.5420567"><ele>1230.0</ele><time>2026-05-03T07:53:29.747Z</time></trkpt><trkpt lat="42.3619333" lon="13.5422283"><ele>1230.0</ele><time>2026-05-03T07:53:30.748Z</time></trkpt><trkpt lat="42.3618783" lon="13.5423983"><ele>1230.0</ele><time>2026-05-03T07:53:31.748Z</time></trkpt><trkpt lat="42.3618283" lon="13.5425467"><ele>1230.0</ele><time>2026-05-03T07:53:32.747Z</time></trkpt><trkpt lat="42.36179" lon="13.5426967"><ele>1230.0</ele><time>2026-05-03T07:53:33.748Z</time></trkpt><trkpt lat="42.361775" lon="13.54286"><ele>1230.0</ele><time>2026-05-03T07:53:34.748Z</time></trkpt><trkpt lat="42.3617733" lon="13.5430433"><ele>1230.0</ele><time>2026-05-03T07:53:35.747Z</time></trkpt><trkpt lat="42.3617767" lon="13.5432283"><ele>1230.0</ele><time>2026-05-03T07:53:36.747Z</time></trkpt><trkpt lat="42.36177" lon="13.5434117"><ele>1230.0</ele><time>2026-05-03T07:53:37.748Z</time></trkpt><trkpt lat="42.36175" lon="13.5435867"><ele>1230.0</ele><time>2026-05-03T07:53:38.747Z</time></trkpt><trkpt lat="42.36172" lon="13.543745"><ele>1230.0</ele><time>2026-05-03T07:53:39.748Z</time></trkpt><trkpt lat="42.3616717" lon="13.5438967"><ele>1230.75</ele><time>2026-05-03T07:53:40.748Z</time></trkpt><trkpt lat="42.3616317" lon="13.5440567"><ele>1231.5</ele><time>2026-05-03T07:53:41.747Z</time></trkpt><trkpt lat="42.3615933" lon="13.5442317"><ele>1232.25</ele><time>2026-05-03T07:53:42.747Z</time></trkpt><trkpt lat="42.3615817" lon="13.5443967"><ele>1233.0</ele><time>2026-05-03T07:53:43.748Z</time></trkpt><trkpt lat="42.3615533" lon="13.5445617"><ele>1233.6</ele><time>2026-05-03T07:53:44.747Z</time></trkpt><trkpt lat="42.3615267" lon="13.54471"><ele>1234.1999999999998</ele><time>2026-05-03T07:53:45.747Z</time></trkpt><trkpt lat="42.36152" lon="13.5448467"><ele>1234.8</ele><time>2026-05-03T07:53:46.747Z</time></trkpt><trkpt lat="42.3615267" lon="13.544985"><ele>1235.3999999999999</ele><time>2026-05-03T07:53:47.747Z</time></trkpt><trkpt lat="42.3615333" lon="13.545125"><ele>1236.0</ele><time>2026-05-03T07:53:48.748Z</time></trkpt><trkpt lat="42.3615467" lon="13.5452717"><ele>1235.8</ele><time>2026-05-03T07:53:49.747Z</time></trkpt><trkpt lat="42.3615533" lon="13.5454167"><ele>1235.6</ele><time>2026-05-03T07:53:50.747Z</time></trkpt><trkpt lat="42.3615367" lon="13.5455617"><ele>1235.4</ele><time>2026-05-03T07:53:51.748Z</time></trkpt><trkpt lat="42.3615167" lon="13.5456933"><ele>1235.2</ele><time>2026-05-03T07:53:52.748Z</time></trkpt><trkpt lat="42.361505" lon="13.5458067"><ele>1235.0</ele><time>2026-05-03T07:53:53.747Z</time></trkpt><trkpt lat="42.3615083" lon="13.545915"><ele>1235.0</ele><time>2026-05-03T07:53:54.748Z</time></trkpt><trkpt lat="42.3615283" lon="13.546015"><ele>1235.0</ele><time>2026-05-03T07:53:55.748Z</time></trkpt><trkpt lat="42.3615533" lon="13.5461133"><ele>1235.0</ele><time>2026-05-03T07:53:56.748Z</time></trkpt><trkpt lat="42.361575" lon="13.5462167"><ele>1235.0</ele><time>2026-05-03T07:53:57.748Z</time></trkpt><trkpt lat="42.3615867" lon="13.5463267"><ele>1235.0</ele><time>2026-05-03T07:53:58.747Z</time></trkpt><trkpt lat="42.3615817" lon="13.5464417"><ele>1235.0</ele><time>2026-05-03T07:53:59.748Z</time></trkpt><trkpt lat="42.361555" lon="13.5465533"><ele>1234.8</ele><time>2026-05-03T07:54:00.747Z</time></trkpt><trkpt lat="42.3615183" lon="13.5466617"><ele>1234.6</ele><time>2026-05-03T07:54:01.748Z</time></trkpt><trkpt lat="42.3614733" lon="13.546755"><ele>1234.4</ele><time>2026-05-03T07:54:02.747Z</time></trkpt><trkpt lat="42.3614083" lon="13.546865"><ele>1234.2</ele><time>2026-05-03T07:54:03.747Z</time></trkpt><trkpt lat="42.36134" lon="13.546975"><ele>1234.0</ele><time>2026-05-03T07:54:04.747Z</time></trkpt><trkpt lat="42.361285" lon="13.5471"><ele>1232.2</ele><time>2026-05-03T07:54:05.748Z</time></trkpt><trkpt lat="42.3612383" lon="13.5472283"><ele>1230.4</ele><time>2026-05-03T07:54:06.747Z</time></trkpt><trkpt lat="42.3611967" lon="13.5473417"><ele>1228.6</ele><time>2026-05-03T07:54:07.748Z</time></trkpt><trkpt lat="42.36115" lon="13.5474617"><ele>1226.8</ele><time>2026-05-03T07:54:08.747Z</time></trkpt><trkpt lat="42.3610983" lon="13.54759"><ele>1225.0</ele><time>2026-05-03T07:54:09.747Z</time></trkpt><trkpt lat="42.3610483" lon="13.5477217"><ele>1225.0</ele><time>2026-05-03T07:54:10.748Z</time></trkpt><trkpt lat="42.3609917" lon="13.54783"><ele>1225.0</ele><time>2026-05-03T07:54:11.748Z</time></trkpt><trkpt lat="42.36093" lon="13.547925"><ele>1225.0</ele><time>2026-05-03T07:54:12.748Z</time></trkpt><trkpt lat="42.360855" lon="13.5480117"><ele>1225.0</ele><time>2026-05-03T07:54:13.748Z</time></trkpt><trkpt lat="42.3607867" lon="13.548105"><ele>1225.0</ele><time>2026-05-03T07:54:14.748Z</time></trkpt><trkpt lat="42.3607217" lon="13.5482183"><ele>1225.0</ele><time>2026-05-03T07:54:15.747Z</time></trkpt><trkpt lat="42.3606667" lon="13.54836"><ele>1225.0</ele><time>2026-05-03T07:54:16.747Z</time></trkpt><trkpt lat="42.3606233" lon="13.5485167"><ele>1225.0</ele><time>2026-05-03T07:54:17.747Z</time></trkpt><trkpt lat="42.3605933" lon="13.5486883"><ele>1225.0</ele><time>2026-05-03T07:54:18.747Z</time></trkpt><trkpt lat="42.3605633" lon="13.5488583"><ele>1223.75</ele><time>2026-05-03T07:54:19.747Z</time></trkpt><trkpt lat="42.3605417" lon="13.5490367"><ele>1222.5</ele><time>2026-05-03T07:54:20.748Z</time></trkpt><trkpt lat="42.3605233" lon="13.5492017"><ele>1221.25</ele><time>2026-05-03T07:54:21.748Z</time></trkpt><trkpt lat="42.360495" lon="13.5493417"><ele>1220.0</ele><time>2026-05-03T07:54:22.748Z</time></trkpt><trkpt lat="42.36046" lon="13.5494683"><ele>1218.75</ele><time>2026-05-03T07:54:23.748Z</time></trkpt><trkpt lat="42.36042" lon="13.5496017"><ele>1217.5</ele><time>2026-05-03T07:54:24.747Z</time></trkpt><trkpt lat="42.3603933" lon="13.549745"><ele>1216.25</ele><time>2026-05-03T07:54:25.748Z</time></trkpt><trkpt lat="42.36037" lon="13.5499183"><ele>1215.0</ele><time>2026-05-03T07:54:26.748Z</time></trkpt><trkpt lat="42.3603467" lon="13.5500967"><ele>1215.0</ele><time>2026-05-03T07:54:27.747Z</time></trkpt><trkpt lat="42.3603183" lon="13.5502683"><ele>1215.0</ele><time>2026-05-03T07:54:28.748Z</time></trkpt><trkpt lat="42.3602883" lon="13.5504467"><ele>1215.0</ele><time>2026-05-03T07:54:29.747Z</time></trkpt><trkpt lat="42.3602533" lon="13.5506233"><ele>1215.0</ele><time>2026-05-03T07:54:30.748Z</time></trkpt><trkpt lat="42.36022" lon="13.5507917"><ele>1214.5</ele><time>2026-05-03T07:54:31.747Z</time></trkpt><trkpt lat="42.36019" lon="13.550945"><ele>1214.0</ele><time>2026-05-03T07:54:32.748Z</time></trkpt><trkpt lat="42.3601567" lon="13.5510883"><ele>1213.5</ele><time>2026-05-03T07:54:33.748Z</time></trkpt><trkpt lat="42.3601183" lon="13.551235"><ele>1213.0</ele><time>2026-05-03T07:54:34.747Z</time></trkpt><trkpt lat="42.3600917" lon="13.5513817"><ele>1212.75</ele><time>2026-05-03T07:54:35.748Z</time></trkpt><trkpt lat="42.3600617" lon="13.5515317"><ele>1212.5</ele><time>2026-05-03T07:54:36.748Z</time></trkpt><trkpt lat="42.3600167" lon="13.55169"><ele>1212.25</ele><time>2026-05-03T07:54:37.748Z</time></trkpt><trkpt lat="42.359975" lon="13.5518483"><ele>1212.0</ele><time>2026-05-03T07:54:38.748Z</time></trkpt><trkpt lat="42.359915" lon="13.5520117"><ele>1211.75</ele><time>2026-05-03T07:54:39.747Z</time></trkpt><trkpt lat="42.3598567" lon="13.5521617"><ele>1211.5</ele><time>2026-05-03T07:54:40.748Z</time></trkpt><trkpt lat="42.359795" lon="13.552315"><ele>1211.25</ele><time>2026-05-03T07:54:41.747Z</time></trkpt><trkpt lat="42.3597283" lon="13.5524617"><ele>1211.0</ele><time>2026-05-03T07:54:42.748Z</time></trkpt><trkpt lat="42.3596467" lon="13.5526167"><ele>1211.0</ele><time>2026-05-03T07:54:43.748Z</time></trkpt><trkpt lat="42.3595717" lon="13.5527617"><ele>1211.0</ele><time>2026-05-03T07:54:44.748Z</time></trkpt><trkpt lat="42.3595067" lon="13.5529133"><ele>1211.0</ele><time>2026-05-03T07:54:45.748Z</time></trkpt><trkpt lat="42.3594383" lon="13.5530783"><ele>1211.0</ele><time>2026-05-03T07:54:46.747Z</time></trkpt><trkpt lat="42.35938" lon="13.5532467"><ele>1211.0</ele><time>2026-05-03T07:54:47.747Z</time></trkpt><trkpt lat="42.35932" lon="13.55342"><ele>1211.0</ele><time>2026-05-03T07:54:48.748Z</time></trkpt><trkpt lat="42.3592717" lon="13.5536"><ele>1211.0</ele><time>2026-05-03T07:54:49.748Z</time></trkpt><trkpt lat="42.3592217" lon="13.5537833"><ele>1211.0</ele><time>2026-05-03T07:54:50.748Z</time></trkpt><trkpt lat="42.359165" lon="13.55395"><ele>1211.25</ele><time>2026-05-03T07:54:51.747Z</time></trkpt><trkpt lat="42.3590967" lon="13.5541167"><ele>1211.5</ele><time>2026-05-03T07:54:52.748Z</time></trkpt><trkpt lat="42.3590267" lon="13.5542583"><ele>1211.75</ele><time>2026-05-03T07:54:53.747Z</time></trkpt><trkpt lat="42.3589617" lon="13.5543983"><ele>1212.0</ele><time>2026-05-03T07:54:54.747Z</time></trkpt><trkpt lat="42.3588983" lon="13.5545383"><ele>1214.5</ele><time>2026-05-03T07:54:55.747Z</time></trkpt><trkpt lat="42.3588433" lon="13.554675"><ele>1217.0</ele><time>2026-05-03T07:54:56.747Z</time></trkpt><trkpt lat="42.3587917" lon="13.5548233"><ele>1219.5</ele><time>2026-05-03T07:54:57.747Z</time></trkpt><trkpt lat="42.3587367" lon="13.5549617"><ele>1222.0</ele><time>2026-05-03T07:54:58.746Z</time></trkpt><trkpt lat="42.35869" lon="13.555105"><ele>1222.0</ele><time>2026-05-03T07:54:59.747Z</time></trkpt><trkpt lat="42.35864" lon="13.5552533"><ele>1222.0</ele><time>2026-05-03T07:55:00.747Z</time></trkpt><trkpt lat="42.3585933" lon="13.55539"><ele>1222.0</ele><time>2026-05-03T07:55:01.746Z</time></trkpt><trkpt lat="42.35855" lon="13.5555317"><ele>1222.0</ele><time>2026-05-03T07:55:02.746Z</time></trkpt><trkpt lat="42.358515" lon="13.55567"><ele>1221.0</ele><time>2026-05-03T07:55:03.747Z</time></trkpt><trkpt lat="42.3584733" lon="13.5558017"><ele>1220.0</ele><time>2026-05-03T07:55:04.746Z</time></trkpt><trkpt lat="42.3584467" lon="13.5559317"><ele>1219.0</ele><time>2026-05-03T07:55:05.746Z</time></trkpt><trkpt lat="42.3584333" lon="13.55607"><ele>1218.0</ele><time>2026-05-03T07:55:06.747Z</time></trkpt><trkpt lat="42.3584367" lon="13.5562183"><ele>1217.0</ele><time>2026-05-03T07:55:07.746Z</time></trkpt><trkpt lat="42.3584467" lon="13.55637"><ele>1215.8</ele><time>2026-05-03T07:55:08.747Z</time></trkpt><trkpt lat="42.3584583" lon="13.556515"><ele>1214.6</ele><time>2026-05-03T07:55:09.746Z</time></trkpt><trkpt lat="42.3584717" lon="13.55665"><ele>1213.3999999999999</ele><time>2026-05-03T07:55:10.747Z</time></trkpt><trkpt lat="42.3584817" lon="13.55678"><ele>1212.2</ele><time>2026-05-03T07:55:11.746Z</time></trkpt><trkpt lat="42.3585" lon="13.5568883"><ele>1211.0</ele><time>2026-05-03T07:55:12.746Z</time></trkpt><trkpt lat="42.3585283" lon="13.5570033"><ele>1211.0</ele><time>2026-05-03T07:55:13.747Z</time></trkpt><trkpt lat="42.3585717" lon="13.55712"><ele>1211.0</ele><time>2026-05-03T07:55:14.747Z</time></trkpt><trkpt lat="42.35863" lon="13.5572267"><ele>1211.0</ele><time>2026-05-03T07:55:15.747Z</time></trkpt><trkpt lat="42.3586933" lon="13.557345"><ele>1211.0</ele><time>2026-05-03T07:55:16.746Z</time></trkpt><trkpt lat="42.35875" lon="13.55748"><ele>1211.0</ele><time>2026-05-03T07:55:17.746Z</time></trkpt><trkpt lat="42.35879" lon="13.5576067"><ele>1211.0</ele><time>2026-05-03T07:55:18.747Z</time></trkpt><trkpt lat="42.358815" lon="13.55774"><ele>1211.0</ele><time>2026-05-03T07:55:19.746Z</time></trkpt><trkpt lat="42.3588233" lon="13.5578783"><ele>1211.0</ele><time>2026-05-03T07:55:20.746Z</time></trkpt><trkpt lat="42.35882" lon="13.5580217"><ele>1211.0</ele><time>2026-05-03T07:55:21.747Z</time></trkpt><trkpt lat="42.35882" lon="13.558165"><ele>1211.0</ele><time>2026-05-03T07:55:22.746Z</time></trkpt><trkpt lat="42.3588383" lon="13.5583133"><ele>1210.0</ele><time>2026-05-03T07:55:23.747Z</time></trkpt><trkpt lat="42.35887" lon="13.5584667"><ele>1209.0</ele><time>2026-05-03T07:55:24.747Z</time></trkpt><trkpt lat="42.358905" lon="13.55862"><ele>1208.0</ele><time>2026-05-03T07:55:25.747Z</time></trkpt><trkpt lat="42.3589333" lon="13.558775"><ele>1207.0</ele><time>2026-05-03T07:55:26.747Z</time></trkpt><trkpt lat="42.358965" lon="13.5589333"><ele>1206.0</ele><time>2026-05-03T07:55:27.747Z</time></trkpt><trkpt lat="42.359" lon="13.55907"><ele>1205.0</ele><time>2026-05-03T07:55:28.747Z</time></trkpt><trkpt lat="42.3590233" lon="13.5592083"><ele>1204.0</ele><time>2026-05-03T07:55:29.746Z</time></trkpt><trkpt lat="42.3590383" lon="13.55935"><ele>1203.0</ele><time>2026-05-03T07:55:30.746Z</time></trkpt><trkpt lat="42.3590367" lon="13.5594933"><ele>1202.0</ele><time>2026-05-03T07:55:31.747Z</time></trkpt><trkpt lat="42.3590167" lon="13.5596367"><ele>1202.0</ele><time>2026-05-03T07:55:32.746Z</time></trkpt><trkpt lat="42.358995" lon="13.55979"><ele>1202.0</ele><time>2026-05-03T07:55:33.746Z</time></trkpt><trkpt lat="42.3589767" lon="13.5599517"><ele>1202.0</ele><time>2026-05-03T07:55:34.747Z</time></trkpt><trkpt lat="42.3589633" lon="13.5601133"><ele>1202.0</ele><time>2026-05-03T07:55:35.747Z</time></trkpt><trkpt lat="42.3589483" lon="13.560275"><ele>1201.75</ele><time>2026-05-03T07:55:36.746Z</time></trkpt><trkpt lat="42.3589333" lon="13.5604533"><ele>1201.5</ele><time>2026-05-03T07:55:37.747Z</time></trkpt><trkpt lat="42.358935" lon="13.560635"><ele>1201.25</ele><time>2026-05-03T07:55:38.747Z</time></trkpt><trkpt lat="42.3589333" lon="13.5608183"><ele>1201.0</ele><time>2026-05-03T07:55:39.747Z</time></trkpt><trkpt lat="42.3589333" lon="13.561015"><ele>1200.25</ele><time>2026-05-03T07:55:40.746Z</time></trkpt><trkpt lat="42.3589283" lon="13.561205"><ele>1199.5</ele><time>2026-05-03T07:55:41.747Z</time></trkpt><trkpt lat="42.3589167" lon="13.561385"><ele>1198.75</ele><time>2026-05-03T07:55:42.747Z</time></trkpt><trkpt lat="42.3589117" lon="13.5615567"><ele>1198.0</ele><time>2026-05-03T07:55:43.747Z</time></trkpt><trkpt lat="42.3589033" lon="13.56172"><ele>1198.0</ele><time>2026-05-03T07:55:44.746Z</time></trkpt><trkpt lat="42.3588967" lon="13.5618783"><ele>1198.0</ele><time>2026-05-03T07:55:45.747Z</time></trkpt><trkpt lat="42.35889" lon="13.5620217"><ele>1198.0</ele><time>2026-05-03T07:55:46.747Z</time></trkpt><trkpt lat="42.358885" lon="13.5621583"><ele>1198.0</ele><time>2026-05-03T07:55:47.747Z</time></trkpt><trkpt lat="42.3588833" lon="13.5622983"><ele>1198.0</ele><time>2026-05-03T07:55:48.747Z</time></trkpt><trkpt lat="42.3588783" lon="13.5624467"><ele>1198.0</ele><time>2026-05-03T07:55:49.746Z</time></trkpt><trkpt lat="42.358885" lon="13.5625917"><ele>1198.0</ele><time>2026-05-03T07:55:50.747Z</time></trkpt><trkpt lat="42.3588933" lon="13.56275"><ele>1198.0</ele><time>2026-05-03T07:55:51.746Z</time></trkpt><trkpt lat="42.3589" lon="13.5629167"><ele>1198.0</ele><time>2026-05-03T07:55:52.747Z</time></trkpt><trkpt lat="42.35892" lon="13.563085"><ele>1196.0</ele><time>2026-05-03T07:55:53.747Z</time></trkpt><trkpt lat="42.3589467" lon="13.5632517"><ele>1194.0</ele><time>2026-05-03T07:55:54.746Z</time></trkpt><trkpt lat="42.358975" lon="13.5634083"><ele>1192.0</ele><time>2026-05-03T07:55:55.746Z</time></trkpt><trkpt lat="42.3590017" lon="13.5635467"><ele>1190.0</ele><time>2026-05-03T07:55:56.747Z</time></trkpt><trkpt lat="42.3590117" lon="13.563685"><ele>1189.2</ele><time>2026-05-03T07:55:57.746Z</time></trkpt><trkpt lat="42.3590067" lon="13.5638117"><ele>1188.4</ele><time>2026-05-03T07:55:58.746Z</time></trkpt><trkpt lat="42.3589933" lon="13.5639367"><ele>1187.6</ele><time>2026-05-03T07:55:59.746Z</time></trkpt><trkpt lat="42.358985" lon="13.564065"><ele>1186.8</ele><time>2026-05-03T07:56:00.747Z</time></trkpt><trkpt lat="42.35898" lon="13.5641883"><ele>1186.0</ele><time>2026-05-03T07:56:01.747Z</time></trkpt><trkpt lat="42.35899" lon="13.5643033"><ele>1186.0</ele><time>2026-05-03T07:56:02.747Z</time></trkpt><trkpt lat="42.3590067" lon="13.5644133"><ele>1186.0</ele><time>2026-05-03T07:56:03.747Z</time></trkpt><trkpt lat="42.3590167" lon="13.564525"><ele>1186.0</ele><time>2026-05-03T07:56:04.746Z</time></trkpt><trkpt lat="42.3590083" lon="13.5646417"><ele>1186.0</ele><time>2026-05-03T07:56:05.746Z</time></trkpt><trkpt lat="42.3589733" lon="13.5647583"><ele>1186.0</ele><time>2026-05-03T07:56:06.747Z</time></trkpt><trkpt lat="42.3589317" lon="13.5648983"><ele>1187.0</ele><time>2026-05-03T07:56:07.746Z</time></trkpt><trkpt lat="42.358895" lon="13.5650383"><ele>1188.0</ele><time>2026-05-03T07:56:08.747Z</time></trkpt><trkpt lat="42.35887" lon="13.5651633"><ele>1189.0</ele><time>2026-05-03T07:56:09.747Z</time></trkpt><trkpt lat="42.3588533" lon="13.56528"><ele>1190.0</ele><time>2026-05-03T07:56:10.747Z</time></trkpt><trkpt lat="42.3588367" lon="13.5654017"><ele>1191.0</ele><time>2026-05-03T07:56:11.747Z</time></trkpt><trkpt lat="42.3588233" lon="13.5655267"><ele>1191.0</ele><time>2026-05-03T07:56:12.747Z</time></trkpt><trkpt lat="42.3588083" lon="13.5656567"><ele>1191.0</ele><time>2026-05-03T07:56:13.747Z</time></trkpt><trkpt lat="42.3587983" lon="13.5657967"><ele>1191.0</ele><time>2026-05-03T07:56:14.747Z</time></trkpt><trkpt lat="42.358795" lon="13.5659417"><ele>1191.0</ele><time>2026-05-03T07:56:15.747Z</time></trkpt><trkpt lat="42.358795" lon="13.56609"><ele>1191.0</ele><time>2026-05-03T07:56:16.747Z</time></trkpt><trkpt lat="42.3588" lon="13.5662383"><ele>1191.0</ele><time>2026-05-03T07:56:17.747Z</time></trkpt><trkpt lat="42.3588083" lon="13.5663983"><ele>1191.0</ele><time>2026-05-03T07:56:18.746Z</time></trkpt><trkpt lat="42.3588133" lon="13.56655"><ele>1191.0</ele><time>2026-05-03T07:56:19.747Z</time></trkpt><trkpt lat="42.3588117" lon="13.5667033"><ele>1191.0</ele><time>2026-05-03T07:56:20.746Z</time></trkpt><trkpt lat="42.3588183" lon="13.5668483"><ele>1191.0</ele><time>2026-05-03T07:56:21.747Z</time></trkpt><trkpt lat="42.358815" lon="13.5670017"><ele>1191.0</ele><time>2026-05-03T07:56:22.746Z</time></trkpt><trkpt lat="42.35881" lon="13.5671633"><ele>1191.0</ele><time>2026-05-03T07:56:23.746Z</time></trkpt><trkpt lat="42.3588083" lon="13.56733"><ele>1191.0</ele><time>2026-05-03T07:56:24.747Z</time></trkpt><trkpt lat="42.3588083" lon="13.5674983"><ele>1191.0</ele><time>2026-05-03T07:56:25.747Z</time></trkpt><trkpt lat="42.358805" lon="13.567655"><ele>1191.0</ele><time>2026-05-03T07:56:26.746Z</time></trkpt><trkpt lat="42.3587883" lon="13.56782"><ele>1191.0</ele><time>2026-05-03T07:56:27.746Z</time></trkpt><trkpt lat="42.358775" lon="13.5679867"><ele>1191.0</ele><time>2026-05-03T07:56:28.747Z</time></trkpt><trkpt lat="42.3587583" lon="13.5681483"><ele>1191.0</ele><time>2026-05-03T07:56:29.747Z</time></trkpt><trkpt lat="42.3587367" lon="13.5682983"><ele>1191.0</ele><time>2026-05-03T07:56:30.746Z</time></trkpt><trkpt lat="42.3587183" lon="13.5684483"><ele>1191.0</ele><time>2026-05-03T07:56:31.746Z</time></trkpt><trkpt lat="42.3586917" lon="13.5685983"><ele>1191.0</ele><time>2026-05-03T07:56:32.747Z</time></trkpt><trkpt lat="42.3586717" lon="13.5687433"><ele>1191.0</ele><time>2026-05-03T07:56:33.746Z</time></trkpt><trkpt lat="42.3586417" lon="13.5688883"><ele>1189.25</ele><time>2026-05-03T07:56:34.746Z</time></trkpt><trkpt lat="42.358605" lon="13.56903"><ele>1187.5</ele><time>2026-05-03T07:56:35.746Z</time></trkpt><trkpt lat="42.3585417" lon="13.56916"><ele>1185.75</ele><time>2026-05-03T07:56:36.747Z</time></trkpt><trkpt lat="42.3584683" lon="13.569285"><ele>1184.0</ele><time>2026-05-03T07:56:37.746Z</time></trkpt><trkpt lat="42.3583967" lon="13.569405"><ele>1186.5</ele><time>2026-05-03T07:56:38.747Z</time></trkpt><trkpt lat="42.3583133" lon="13.5695283"><ele>1189.0</ele><time>2026-05-03T07:56:39.746Z</time></trkpt><trkpt lat="42.3582283" lon="13.56967"><ele>1191.5</ele><time>2026-05-03T07:56:40.747Z</time></trkpt><trkpt lat="42.3581367" lon="13.5698117"><ele>1194.0</ele><time>2026-05-03T07:56:41.747Z</time></trkpt><trkpt lat="42.358045" lon="13.569965"><ele>1193.75</ele><time>2026-05-03T07:56:42.747Z</time></trkpt><trkpt lat="42.3579517" lon="13.5701267"><ele>1193.5</ele><time>2026-05-03T07:56:43.747Z</time></trkpt><trkpt lat="42.35786" lon="13.570285"><ele>1193.25</ele><time>2026-05-03T07:56:44.747Z</time></trkpt><trkpt lat="42.3577733" lon="13.5704433"><ele>1193.0</ele><time>2026-05-03T07:56:45.747Z</time></trkpt><trkpt lat="42.3577" lon="13.5706183"><ele>1190.6666666666667</ele><time>2026-05-03T07:56:46.747Z</time></trkpt><trkpt lat="42.3576233" lon="13.5708017"><ele>1188.3333333333333</ele><time>2026-05-03T07:56:47.747Z</time></trkpt><trkpt lat="42.3575483" lon="13.570975"><ele>1186.0</ele><time>2026-05-03T07:56:48.747Z</time></trkpt><trkpt lat="42.357465" lon="13.57115"><ele>1188.5</ele><time>2026-05-03T07:56:49.746Z</time></trkpt><trkpt lat="42.357375" lon="13.57132"><ele>1191.0</ele><time>2026-05-03T07:56:50.746Z</time></trkpt><trkpt lat="42.3644267" lon="13.5372983"><ele>1198.0</ele><time>2026-05-03T07:52:54.748Z</time></trkpt><trkpt lat="42.36435" lon="13.5374383"><ele>1205.0</ele><time>2026-05-03T07:52:55.748Z</time></trkpt><trkpt lat="42.3642733" lon="13.537575"><ele>1212.0</ele><time>2026-05-03T07:52:56.748Z</time></trkpt><trkpt lat="42.3641933" lon="13.5377117"><ele>1219.0</ele><time>2026-05-03T07:52:57.748Z</time></trkpt><trkpt lat="42.3641233" lon="13.5378467"><ele>1220.0</ele><time>2026-05-03T07:52:58.748Z</time></trkpt><trkpt lat="42.36407" lon="13.537965"><ele>1221.0</ele><time>2026-05-03T07:52:59.747Z</time></trkpt><trkpt lat="42.3640133" lon="13.5380717"><ele>1222.0</ele><time>2026-05-03T07:53:00.747Z</time></trkpt><trkpt lat="42.3639483" lon="13.53818"><ele>1223.0</ele><time>2026-05-03T07:53:01.747Z</time></trkpt><trkpt lat="42.3638667" lon="13.5382767"><ele>1224.0</ele><time>2026-05-03T07:53:02.747Z</time></trkpt><trkpt lat="42.3637783" lon="13.5383867"><ele>1224.0</ele><time>2026-05-03T07:53:03.748Z</time></trkpt><trkpt lat="42.3636867" lon="13.538495"><ele>1224.0</ele><time>2026-05-03T07:53:04.748Z</time></trkpt><trkpt lat="42.3635917" lon="13.53861"><ele>1224.0</ele><time>2026-05-03T07:53:05.747Z</time></trkpt><trkpt lat="42.3635" lon="13.5387117"><ele>1224.0</ele><time>2026-05-03T07:53:06.748Z</time></trkpt><trkpt lat="42.3634033" lon="13.538835"><ele>1225.0</ele><time>2026-05-03T07:53:07.748Z</time></trkpt><trkpt lat="42.3633083" lon="13.53896"><ele>1226.0</ele><time>2026-05-03T07:53:08.747Z</time></trkpt><trkpt lat="42.3632217" lon="13.5391"><ele>1227.0</ele><time>2026-05-03T07:53:09.747Z</time></trkpt><trkpt lat="42.3631267" lon="13.539235"><ele>1228.0</ele><time>2026-05-03T07:53:10.748Z</time></trkpt><trkpt lat="42.3630283" lon="13.539365"><ele>1228.25</ele><time>2026-05-03T07:53:11.748Z</time></trkpt><trkpt lat="42.3629417" lon="13.53949"><ele>1228.5</ele><time>2026-05-03T07:53:12.748Z</time></trkpt><trkpt lat="42.3628533" lon="13.5396067"><ele>1228.75</ele><time>2026-05-03T07:53:13.748Z</time></trkpt><trkpt lat="42.3627717" lon="13.5397267"><ele>1229.0</ele><time>2026-05-03T07:53:14.748Z</time></trkpt><trkpt lat="42.3626867" lon="13.5398333"><ele>1229.25</ele><time>2026-05-03T07:53:15.748Z</time></trkpt><trkpt lat="42.3626117" lon="13.5399567"><ele>1229.5</ele><time>2026-05-03T07:53:16.747Z</time></trkpt><trkpt lat="42.3625417" lon="13.540095"><ele>1229.75</ele><time>2026-05-03T07:53:17.748Z</time></trkpt><trkpt lat="42.3624767" lon="13.5402467"><ele>1230.0</ele><time>2026-05-03T07:53:18.747Z</time></trkpt><trkpt lat="42.3624267" lon="13.540405"><ele>1230.0</ele><time>2026-05-03T07:53:19.747Z</time></trkpt><trkpt lat="42.3623817" lon="13.54057"><ele>1230.0</ele><time>2026-05-03T07:53:20.747Z</time></trkpt><trkpt lat="42.3623417" lon="13.5407367"><ele>1230.0</ele><time>2026-05-03T07:53:21.747Z</time></trkpt><trkpt lat="42.3623017" lon="13.5409017"><ele>1230.0</ele><time>2026-05-03T07:53:22.748Z</time></trkpt><trkpt lat="42.3622683" lon="13.5410617"><ele>1230.0</ele><time>2026-05-03T07:53:23.748Z</time></trkpt><trkpt lat="42.3622183" lon="13.5412167"><ele>1230.0</ele><time>2026-05-03T07:53:24.748Z</time></trkpt><trkpt lat="42.36218" lon="13.5413767"><ele>1230.0</ele><time>2026-05-03T07:53:25.747Z</time></trkpt><trkpt lat="42.36213" lon="13.5415417"><ele>1230.0</ele><time>2026-05-03T07:53:26.747Z</time></trkpt><trkpt lat="42.3620783" lon="13.54171"><ele>1230.0</ele><time>2026-05-03T07:53:27.747Z</time></trkpt><trkpt lat="42.3620333" lon="13.54188"><ele>1230.0</ele><time>2026-05-03T07:53:28.748Z</time></trkpt><trkpt lat="42.3619867" lon="13.5420567"><ele>1230.0</ele><time>2026-05-03T07:53:29.747Z</time></trkpt><trkpt lat="42.3619333" lon="13.5422283"><ele>1230.0</ele><time>2026-05-03T07:53:30.748Z</time></trkpt><trkpt lat="42.3618783" lon="13.5423983"><ele>1230.0</ele><time>2026-05-03T07:53:31.748Z</time></trkpt><trkpt lat="42.3618283" lon="13.5425467"><ele>1230.0</ele><time>2026-05-03T07:53:32.747Z</time></trkpt><trkpt lat="42.36179" lon="13.5426967"><ele>1230.0</ele><time>2026-05-03T07:53:33.748Z</time></trkpt><trkpt lat="42.361775" lon="13.54286"><ele>1230.0</ele><time>2026-05-03T07:53:34.748Z</time></trkpt><trkpt lat="42.3617733" lon="13.5430433"><ele>1230.0</ele><time>2026-05-03T07:53:35.747Z</time></trkpt><trkpt lat="42.3617767" lon="13.5432283"><ele>1230.0</ele><time>2026-05-03T07:53:36.747Z</time></trkpt><trkpt lat="42.36177" lon="13.5434117"><ele>1230.0</ele><time>2026-05-03T07:53:37.748Z</time></trkpt><trkpt lat="42.36175" lon="13.5435867"><ele>1230.0</ele><time>2026-05-03T07:53:38.747Z</time></trkpt><trkpt lat="42.36172" lon="13.543745"><ele>1230.75</ele><time>2026-05-03T07:53:39.748Z</time></trkpt><trkpt lat="42.3616717" lon="13.5438967"><ele>1231.5</ele><time>2026-05-03T07:53:40.748Z</time></trkpt><trkpt lat="42.3616317" lon="13.5440567"><ele>1232.25</ele><time>2026-05-03T07:53:41.747Z</time></trkpt><trkpt lat="42.3615933" lon="13.5442317"><ele>1233.0</ele><time>2026-05-03T07:53:42.747Z</time></trkpt><trkpt lat="42.3615817" lon="13.5443967"><ele>1233.6</ele><time>2026-05-03T07:53:43.748Z</time></trkpt><trkpt lat="42.3615533" lon="13.5445617"><ele>1234.1999999999998</ele><time>2026-05-03T07:53:44.747Z</time></trkpt><trkpt lat="42.3615267" lon="13.54471"><ele>1234.8</ele><time>2026-05-03T07:53:45.747Z</time></trkpt><trkpt lat="42.36152" lon="13.5448467"><ele>1235.3999999999999</ele><time>2026-05-03T07:53:46.747Z</time></trkpt><trkpt lat="42.3615267" lon="13.544985"><ele>1236.0</ele><time>2026-05-03T07:53:47.747Z</time></trkpt><trkpt lat="42.3615333" lon="13.545125"><ele>1236.0</ele><time>2026-05-03T07:53:48.748Z</time></trkpt><trkpt lat="42.3615467" lon="13.5452717"><ele>1236.0</ele><time>2026-05-03T07:53:49.747Z</time></trkpt><trkpt lat="42.3615533" lon="13.5454167"><ele>1236.0</ele><time>2026-05-03T07:53:50.747Z</time></trkpt><trkpt lat="42.3615367" lon="13.5455617"><ele>1236.0</ele><time>2026-05-03T07:53:51.748Z</time></trkpt><trkpt lat="42.3615167" lon="13.5456933"><ele>1236.0</ele><time>2026-05-03T07:53:52.748Z</time></trkpt><trkpt lat="42.361505" lon="13.5458067"><ele>1235.8333333333333</ele><time>2026-05-03T07:53:53.747Z</time></trkpt><trkpt lat="42.3615083" lon="13.545915"><ele>1235.6666666666667</ele><time>2026-05-03T07:53:54.748Z</time></trkpt><trkpt lat="42.3615283" lon="13.546015"><ele>1235.5</ele><time>2026-05-03T07:53:55.748Z</time></trkpt><trkpt lat="42.3615533" lon="13.5461133"><ele>1235.3333333333335</ele><time>2026-05-03T07:53:56.748Z</time></trkpt><trkpt lat="42.361575" lon="13.5462167"><ele>1235.1666666666667</ele><time>2026-05-03T07:53:57.748Z</time></trkpt><trkpt lat="42.3615867" lon="13.5463267"><ele>1235.0</ele><time>2026-05-03T07:53:58.747Z</time></trkpt><trkpt lat="42.3615817" lon="13.5464417"><ele>1234.8</ele><time>2026-05-03T07:53:59.748Z</time></trkpt><trkpt lat="42.361555" lon="13.5465533"><ele>1234.6</ele><time>2026-05-03T07:54:00.747Z</time></trkpt><trkpt lat="42.3615183" lon="13.5466617"><ele>1234.4</ele><time>2026-05-03T07:54:01.748Z</time></trkpt><trkpt lat="42.3614733" lon="13.546755"><ele>1234.2</ele><time>2026-05-03T07:54:02.747Z</time></trkpt><trkpt lat="42.3614083" lon="13.546865"><ele>1234.0</ele><time>2026-05-03T07:54:03.747Z</time></trkpt><trkpt lat="42.36134" lon="13.546975"><ele>1232.2</ele><time>2026-05-03T07:54:04.747Z</time></trkpt><trkpt lat="42.361285" lon="13.5471"><ele>1230.4</ele><time>2026-05-03T07:54:05.748Z</time></trkpt><trkpt lat="42.3612383" lon="13.5472283"><ele>1228.6</ele><time>2026-05-03T07:54:06.747Z</time></trkpt><trkpt lat="42.3611967" lon="13.5473417"><ele>1226.8</ele><time>2026-05-03T07:54:07.748Z</time></trkpt><trkpt lat="42.36115" lon="13.5474617"><ele>1225.0</ele><time>2026-05-03T07:54:08.747Z</time></trkpt><trkpt lat="42.3610983" lon="13.54759"><ele>1225.0</ele><time>2026-05-03T07:54:09.747Z</time></trkpt><trkpt lat="42.3610483" lon="13.5477217"><ele>1225.0</ele><time>2026-05-03T07:54:10.748Z</time></trkpt><trkpt lat="42.3609917" lon="13.54783"><ele>1225.0</ele><time>2026-05-03T07:54:11.748Z</time></trkpt><trkpt lat="42.36093" lon="13.547925"><ele>1225.0</ele><time>2026-05-03T07:54:12.748Z</time></trkpt><trkpt lat="42.360855" lon="13.5480117"><ele>1225.0</ele><time>2026-05-03T07:54:13.748Z</time></trkpt><trkpt lat="42.3607867" lon="13.548105"><ele>1225.0</ele><time>2026-05-03T07:54:14.748Z</time></trkpt><trkpt lat="42.3607217" lon="13.5482183"><ele>1225.0</ele><time>2026-05-03T07:54:15.747Z</time></trkpt><trkpt lat="42.3606667" lon="13.54836"><ele>1225.0</ele><time>2026-05-03T07:54:16.747Z</time></trkpt><trkpt lat="42.3606233" lon="13.5485167"><ele>1225.0</ele><time>2026-05-03T07:54:17.747Z</time></trkpt><trkpt lat="42.3605933" lon="13.5486883"><ele>1223.75</ele><time>2026-05-03T07:54:18.747Z</time></trkpt><trkpt lat="42.3605633" lon="13.5488583"><ele>1222.5</ele><time>2026-05-03T07:54:19.747Z</time></trkpt><trkpt lat="42.3605417" lon="13.5490367"><ele>1221.25</ele><time>2026-05-03T07:54:20.748Z</time></trkpt><trkpt lat="42.3605233" lon="13.5492017"><ele>1220.0</ele><time>2026-05-03T07:54:21.748Z</time></trkpt><trkpt lat="42.360495" lon="13.5493417"><ele>1219.6</ele><time>2026-05-03T07:54:22.748Z</time></trkpt><trkpt lat="42.36046" lon="13.5494683"><ele>1219.2</ele><time>2026-05-03T07:54:23.748Z</time></trkpt><trkpt lat="42.36042" lon="13.5496017"><ele>1218.8</ele><time>2026-05-03T07:54:24.747Z</time></trkpt><trkpt lat="42.3603933" lon="13.549745"><ele>1218.4</ele><time>2026-05-03T07:54:25.748Z</time></trkpt><trkpt lat="42.36037" lon="13.5499183"><ele>1218.0</ele><time>2026-05-03T07:54:26.748Z</time></trkpt><trkpt lat="42.3603467" lon="13.5500967"><ele>1217.25</ele><time>2026-05-03T07:54:27.747Z</time></trkpt><trkpt lat="42.3603183" lon="13.5502683"><ele>1216.5</ele><time>2026-05-03T07:54:28.748Z</time></trkpt><trkpt lat="42.3602883" lon="13.5504467"><ele>1215.75</ele><time>2026-05-03T07:54:29.747Z</time></trkpt><trkpt lat="42.3602533" lon="13.5506233"><ele>1215.0</ele><time>2026-05-03T07:54:30.748Z</time></trkpt><trkpt lat="42.36022" lon="13.5507917"><ele>1214.5</ele><time>2026-05-03T07:54:31.747Z</time></trkpt><trkpt lat="42.36019" lon="13.550945"><ele>1214.0</ele><time>2026-05-03T07:54:32.748Z</time></trkpt><trkpt lat="42.3601567" lon="13.5510883"><ele>1213.5</ele><time>2026-05-03T07:54:33.748Z</time></trkpt><trkpt lat="42.3601183" lon="13.551235"><ele>1213.0</ele><time>2026-05-03T07:54:34.747Z</time></trkpt><trkpt lat="42.3600917" lon="13.5513817"><ele>1212.75</ele><time>2026-05-03T07:54:35.748Z</time></trkpt><trkpt lat="42.3600617" lon="13.5515317"><ele>1212.5</ele><time>2026-05-03T07:54:36.748Z</time></trkpt><trkpt lat="42.3600167" lon="13.55169"><ele>1212.25</ele><time>2026-05-03T07:54:37.748Z</time></trkpt><trkpt lat="42.359975" lon="13.5518483"><ele>1212.0</ele><time>2026-05-03T07:54:38.748Z</time></trkpt><trkpt lat="42.359915" lon="13.5520117"><ele>1211.75</ele><time>2026-05-03T07:54:39.747Z</time></trkpt><trkpt lat="42.3598567" lon="13.5521617"><ele>1211.5</ele><time>2026-05-03T07:54:40.748Z</time></trkpt><trkpt lat="42.359795" lon="13.552315"><ele>1211.25</ele><time>2026-05-03T07:54:41.747Z</time></trkpt><trkpt lat="42.3597283" lon="13.5524617"><ele>1211.0</ele><time>2026-05-03T07:54:42.748Z</time></trkpt><trkpt lat="42.3596467" lon="13.5526167"><ele>1211.0</ele><time>2026-05-03T07:54:43.748Z</time></trkpt><trkpt lat="42.3595717" lon="13.5527617"><ele>1211.0</ele><time>2026-05-03T07:54:44.748Z</time></trkpt><trkpt lat="42.3595067" lon="13.5529133"><ele>1211.0</ele><time>2026-05-03T07:54:45.748Z</time></trkpt><trkpt lat="42.3594383" lon="13.5530783"><ele>1211.0</ele><time>2026-05-03T07:54:46.747Z</time></trkpt><trkpt lat="42.35938" lon="13.5532467"><ele>1211.0</ele><time>2026-05-03T07:54:47.747Z</time></trkpt><trkpt lat="42.35932" lon="13.55342"><ele>1211.0</ele><time>2026-05-03T07:54:48.748Z</time></trkpt><trkpt lat="42.3592717" lon="13.5536"><ele>1211.0</ele><time>2026-05-03T07:54:49.748Z</time></trkpt><trkpt lat="42.3592217" lon="13.5537833"><ele>1211.0</ele><time>2026-05-03T07:54:50.748Z</time></trkpt><trkpt lat="42.359165" lon="13.55395"><ele>1211.25</ele><time>2026-05-03T07:54:51.747Z</time></trkpt><trkpt lat="42.3590967" lon="13.5541167"><ele>1211.5</ele><time>2026-05-03T07:54:52.748Z</time></trkpt><trkpt lat="42.3590267" lon="13.5542583"><ele>1211.75</ele><time>2026-05-03T07:54:53.747Z</time></trkpt><trkpt lat="42.3589617" lon="13.5543983"><ele>1212.0</ele><time>2026-05-03T07:54:54.747Z</time></trkpt><trkpt lat="42.3588983" lon="13.5545383"><ele>1214.5</ele><time>2026-05-03T07:54:55.747Z</time></trkpt><trkpt lat="42.3588433" lon="13.554675"><ele>1217.0</ele><time>2026-05-03T07:54:56.747Z</time></trkpt><trkpt lat="42.3587917" lon="13.5548233"><ele>1219.5</ele><time>2026-05-03T07:54:57.747Z</time></trkpt><trkpt lat="42.3587367" lon="13.5549617"><ele>1222.0</ele><time>2026-05-03T07:54:58.746Z</time></trkpt><trkpt lat="42.35869" lon="13.555105"><ele>1222.0</ele><time>2026-05-03T07:54:59.747Z</time></trkpt><trkpt lat="42.35864" lon="13.5552533"><ele>1222.0</ele><time>2026-05-03T07:55:00.747Z</time></trkpt><trkpt lat="42.3585933" lon="13.55539"><ele>1222.0</ele><time>2026-05-03T07:55:01.746Z</time></trkpt><trkpt lat="42.35855" lon="13.5555317"><ele>1222.0</ele><time>2026-05-03T07:55:02.746Z</time></trkpt><trkpt lat="42.358515" lon="13.55567"><ele>1221.0</ele><time>2026-05-03T07:55:03.747Z</time></trkpt><trkpt lat="42.3584733" lon="13.5558017"><ele>1220.0</ele><time>2026-05-03T07:55:04.746Z</time></trkpt><trkpt lat="42.3584467" lon="13.5559317"><ele>1219.0</ele><time>2026-05-03T07:55:05.746Z</time></trkpt><trkpt lat="42.3584333" lon="13.55607"><ele>1218.0</ele><time>2026-05-03T07:55:06.747Z</time></trkpt><trkpt lat="42.3584367" lon="13.5562183"><ele>1217.0</ele><time>2026-05-03T07:55:07.746Z</time></trkpt><trkpt lat="42.3584467" lon="13.55637"><ele>1215.8</ele><time>2026-05-03T07:55:08.747Z</time></trkpt><trkpt lat="42.3584583" lon="13.556515"><ele>1214.6</ele><time>2026-05-03T07:55:09.746Z</time></trkpt><trkpt lat="42.3584717" lon="13.55665"><ele>1213.3999999999999</ele><time>2026-05-03T07:55:10.747Z</time></trkpt><trkpt lat="42.3584817" lon="13.55678"><ele>1212.2</ele><time>2026-05-03T07:55:11.746Z</time></trkpt><trkpt lat="42.3585" lon="13.5568883"><ele>1211.0</ele><time>2026-05-03T07:55:12.746Z</time></trkpt><trkpt lat="42.3585283" lon="13.5570033"><ele>1211.0</ele><time>2026-05-03T07:55:13.747Z</time></trkpt><trkpt lat="42.3585717" lon="13.55712"><ele>1211.0</ele><time>2026-05-03T07:55:14.747Z</time></trkpt><trkpt lat="42.35863" lon="13.5572267"><ele>1211.0</ele><time>2026-05-03T07:55:15.747Z</time></trkpt><trkpt lat="42.3586933" lon="13.557345"><ele>1211.0</ele><time>2026-05-03T07:55:16.746Z</time></trkpt><trkpt lat="42.35875" lon="13.55748"><ele>1211.0</ele><time>2026-05-03T07:55:17.746Z</time></trkpt><trkpt lat="42.35879" lon="13.5576067"><ele>1211.0</ele><time>2026-05-03T07:55:18.747Z</time></trkpt><trkpt lat="42.358815" lon="13.55774"><ele>1211.0</ele><time>2026-05-03T07:55:19.746Z</time></trkpt><trkpt lat="42.3588233" lon="13.5578783"><ele>1211.0</ele><time>2026-05-03T07:55:20.746Z</time></trkpt><trkpt lat="42.35882" lon="13.5580217"><ele>1211.0</ele><time>2026-05-03T07:55:21.747Z</time></trkpt><trkpt lat="42.35882" lon="13.558165"><ele>1211.0</ele><time>2026-05-03T07:55:22.746Z</time></trkpt><trkpt lat="42.3588383" lon="13.5583133"><ele>1210.0</ele><time>2026-05-03T07:55:23.747Z</time></trkpt><trkpt lat="42.35887" lon="13.5584667"><ele>1209.0</ele><time>2026-05-03T07:55:24.747Z</time></trkpt><trkpt lat="42.358905" lon="13.55862"><ele>1208.0</ele><time>2026-05-03T07:55:25.747Z</time></trkpt><trkpt lat="42.3589333" lon="13.558775"><ele>1207.0</ele><time>2026-05-03T07:55:26.747Z</time></trkpt><trkpt lat="42.358965" lon="13.5589333"><ele>1206.0</ele><time>2026-05-03T07:55:27.747Z</time></trkpt><trkpt lat="42.359" lon="13.55907"><ele>1205.0</ele><time>2026-05-03T07:55:28.747Z</time></trkpt><trkpt lat="42.3590233" lon="13.5592083"><ele>1204.0</ele><time>2026-05-03T07:55:29.746Z</time></trkpt><trkpt lat="42.3590383" lon="13.55935"><ele>1203.0</ele><time>2026-05-03T07:55:30.746Z</time></trkpt><trkpt lat="42.3590367" lon="13.5594933"><ele>1202.0</ele><time>2026-05-03T07:55:31.747Z</time></trkpt><trkpt lat="42.3590167" lon="13.5596367"><ele>1202.0</ele><time>2026-05-03T07:55:32.746Z</time></trkpt><trkpt lat="42.358995" lon="13.55979"><ele>1202.0</ele><time>2026-05-03T07:55:33.746Z</time></trkpt><trkpt lat="42.3589767" lon="13.5599517"><ele>1202.0</ele><time>2026-05-03T07:55:34.747Z</time></trkpt><trkpt lat="42.3589633" lon="13.5601133"><ele>1202.0</ele><time>2026-05-03T07:55:35.747Z</time></trkpt><trkpt lat="42.3589483" lon="13.560275"><ele>1201.75</ele><time>2026-05-03T07:55:36.746Z</time></trkpt><trkpt lat="42.3589333" lon="13.5604533"><ele>1201.5</ele><time>2026-05-03T07:55:37.747Z</time></trkpt><trkpt lat="42.358935" lon="13.560635"><ele>1201.25</ele><time>2026-05-03T07:55:38.747Z</time></trkpt><trkpt lat="42.3589333" lon="13.5608183"><ele>1201.0</ele><time>2026-05-03T07:55:39.747Z</time></trkpt><trkpt lat="42.3589333" lon="13.561015"><ele>1200.25</ele><time>2026-05-03T07:55:40.746Z</time></trkpt><trkpt lat="42.3589283" lon="13.561205"><ele>1199.5</ele><time>2026-05-03T07:55:41.747Z</time></trkpt><trkpt lat="42.3589167" lon="13.561385"><ele>1198.75</ele><time>2026-05-03T07:55:42.747Z</time></trkpt><trkpt lat="42.3589117" lon="13.5615567"><ele>1198.0</ele><time>2026-05-03T07:55:43.747Z</time></trkpt><trkpt lat="42.3589033" lon="13.56172"><ele>1198.0</ele><time>2026-05-03T07:55:44.746Z</time></trkpt><trkpt lat="42.3588967" lon="13.5618783"><ele>1198.0</ele><time>2026-05-03T07:55:45.747Z</time></trkpt><trkpt lat="42.35889" lon="13.5620217"><ele>1198.0</ele><time>2026-05-03T07:55:46.747Z</time></trkpt><trkpt lat="42.358885" lon="13.5621583"><ele>1198.0</ele><time>2026-05-03T07:55:47.747Z</time></trkpt><trkpt lat="42.3588833" lon="13.5622983"><ele>1198.0</ele><time>2026-05-03T07:55:48.747Z</time></trkpt><trkpt lat="42.3588783" lon="13.5624467"><ele>1198.0</ele><time>2026-05-03T07:55:49.746Z</time></trkpt><trkpt lat="42.358885" lon="13.5625917"><ele>1198.0</ele><time>2026-05-03T07:55:50.747Z</time></trkpt><trkpt lat="42.3588933" lon="13.56275"><ele>1198.0</ele><time>2026-05-03T07:55:51.746Z</time></trkpt><trkpt lat="42.3589" lon="13.5629167"><ele>1198.0</ele><time>2026-05-03T07:55:52.747Z</time></trkpt><trkpt lat="42.35892" lon="13.563085"><ele>1196.0</ele><time>2026-05-03T07:55:53.747Z</time></trkpt><trkpt lat="42.3589467" lon="13.5632517"><ele>1194.0</ele><time>2026-05-03T07:55:54.746Z</time></trkpt><trkpt lat="42.358975" lon="13.5634083"><ele>1192.0</ele><time>2026-05-03T07:55:55.746Z</time></trkpt><trkpt lat="42.3590017" lon="13.5635467"><ele>1190.0</ele><time>2026-05-03T07:55:56.747Z</time></trkpt><trkpt lat="42.3590117" lon="13.563685"><ele>1189.2</ele><time>2026-05-03T07:55:57.746Z</time></trkpt><trkpt lat="42.3590067" lon="13.5638117"><ele>1188.4</ele><time>2026-05-03T07:55:58.746Z</time></trkpt><trkpt lat="42.3589933" lon="13.5639367"><ele>1187.6</ele><time>2026-05-03T07:55:59.746Z</time></trkpt><trkpt lat="42.358985" lon="13.564065"><ele>1186.8</ele><time>2026-05-03T07:56:00.747Z</time></trkpt><trkpt lat="42.35898" lon="13.5641883"><ele>1186.0</ele><time>2026-05-03T07:56:01.747Z</time></trkpt><trkpt lat="42.35899" lon="13.5643033"><ele>1186.0</ele><time>2026-05-03T07:56:02.747Z</time></trkpt><trkpt lat="42.3590067" lon="13.5644133"><ele>1186.0</ele><time>2026-05-03T07:56:03.747Z</time></trkpt><trkpt lat="42.3590167" lon="13.564525"><ele>1186.0</ele><time>2026-05-03T07:56:04.746Z</time></trkpt><trkpt lat="42.3590083" lon="13.5646417"><ele>1186.0</ele><time>2026-05-03T07:56:05.746Z</time></trkpt><trkpt lat="42.3589733" lon="13.5647583"><ele>1186.0</ele><time>2026-05-03T07:56:06.747Z</time></trkpt><trkpt lat="42.3589317" lon="13.5648983"><ele>1187.0</ele><time>2026-05-03T07:56:07.746Z</time></trkpt><trkpt lat="42.358895" lon="13.5650383"><ele>1188.0</ele><time>2026-05-03T07:56:08.747Z</time></trkpt><trkpt lat="42.35887" lon="13.5651633"><ele>1189.0</ele><time>2026-05-03T07:56:09.747Z</time></trkpt><trkpt lat="42.3588533" lon="13.56528"><ele>1190.0</ele><time>2026-05-03T07:56:10.747Z</time></trkpt><trkpt lat="42.3588367" lon="13.5654017"><ele>1191.0</ele><time>2026-05-03T07:56:11.747Z</time></trkpt><trkpt lat="42.3588233" lon="13.5655267"><ele>1191.0</ele><time>2026-05-03T07:56:12.747Z</time></trkpt><trkpt lat="42.3588083" lon="13.5656567"><ele>1191.0</ele><time>2026-05-03T07:56:13.747Z</time></trkpt><trkpt lat="42.3587983" lon="13.5657967"><ele>1191.0</ele><time>2026-05-03T07:56:14.747Z</time></trkpt><trkpt lat="42.358795" lon="13.5659417"><ele>1191.0</ele><time>2026-05-03T07:56:15.747Z</time></trkpt><trkpt lat="42.358795" lon="13.56609"><ele>1191.0</ele><time>2026-05-03T07:56:16.747Z</time></trkpt><trkpt lat="42.3588" lon="13.5662383"><ele>1191.0</ele><time>2026-05-03T07:56:17.747Z</time></trkpt><trkpt lat="42.3588083" lon="13.5663983"><ele>1191.0</ele><time>2026-05-03T07:56:18.746Z</time></trkpt><trkpt lat="42.3588133" lon="13.56655"><ele>1191.0</ele><time>2026-05-03T07:56:19.747Z</time></trkpt><trkpt lat="42.3588117" lon="13.5667033"><ele>1191.0</ele><time>2026-05-03T07:56:20.746Z</time></trkpt><trkpt lat="42.3588183" lon="13.5668483"><ele>1191.0</ele><time>2026-05-03T07:56:21.747Z</time></trkpt><trkpt lat="42.358815" lon="13.5670017"><ele>1191.0</ele><time>2026-05-03T07:56:22.746Z</time></trkpt><trkpt lat="42.35881" lon="13.5671633"><ele>1191.0</ele><time>2026-05-03T07:56:23.746Z</time></trkpt><trkpt lat="42.3588083" lon="13.56733"><ele>1191.0</ele><time>2026-05-03T07:56:24.747Z</time></trkpt><trkpt lat="42.3588083" lon="13.5674983"><ele>1191.0</ele><time>2026-05-03T07:56:25.747Z</time></trkpt><trkpt lat="42.358805" lon="13.567655"><ele>1191.0</ele><time>2026-05-03T07:56:26.746Z</time></trkpt><trkpt lat="42.3587883" lon="13.56782"><ele>1191.0</ele><time>2026-05-03T07:56:27.746Z</time></trkpt><trkpt lat="42.358775" lon="13.5679867"><ele>1191.0</ele><time>2026-05-03T07:56:28.747Z</time></trkpt><trkpt lat="42.3587583" lon="13.5681483"><ele>1191.0</ele><time>2026-05-03T07:56:29.747Z</time></trkpt><trkpt lat="42.3587367" lon="13.5682983"><ele>1191.0</ele><time>2026-05-03T07:56:30.746Z</time></trkpt><trkpt lat="42.3587183" lon="13.5684483"><ele>1191.0</ele><time>2026-05-03T07:56:31.746Z</time></trkpt><trkpt lat="42.3586917" lon="13.5685983"><ele>1191.0</ele><time>2026-05-03T07:56:32.747Z</time></trkpt><trkpt lat="42.3586717" lon="13.5687433"><ele>1191.0</ele><time>2026-05-03T07:56:33.746Z</time></trkpt><trkpt lat="42.3586417" lon="13.5688883"><ele>1189.25</ele><time>2026-05-03T07:56:34.746Z</time></trkpt><trkpt lat="42.358605" lon="13.56903"><ele>1187.5</ele><time>2026-05-03T07:56:35.746Z</time></trkpt><trkpt lat="42.3585417" lon="13.56916"><ele>1185.75</ele><time>2026-05-03T07:56:36.747Z</time></trkpt><trkpt lat="42.3584683" lon="13.569285"><ele>1184.0</ele><time>2026-05-03T07:56:37.746Z</time></trkpt><trkpt lat="42.3583967" lon="13.569405"><ele>1186.5</ele><time>2026-05-03T07:56:38.747Z</time></trkpt><trkpt lat="42.3583133" lon="13.5695283"><ele>1189.0</ele><time>2026-05-03T07:56:39.746Z</time></trkpt><trkpt lat="42.3582283" lon="13.56967"><ele>1191.5</ele><time>2026-05-03T07:56:40.747Z</time></trkpt><trkpt lat="42.3581367" lon="13.5698117"><ele>1194.0</ele><time>2026-05-03T07:56:41.747Z</time></trkpt><trkpt lat="42.358045" lon="13.569965"><ele>1193.75</ele><time>2026-05-03T07:56:42.747Z</time></trkpt><trkpt lat="42.3579517" lon="13.5701267"><ele>1193.5</ele><time>2026-05-03T07:56:43.747Z</time></trkpt><trkpt lat="42.35786" lon="13.570285"><ele>1193.25</ele><time>2026-05-03T07:56:44.747Z</time></trkpt><trkpt lat="42.3577733" lon="13.5704433"><ele>1193.0</ele><time>2026-05-03T07:56:45.747Z</time></trkpt><trkpt lat="42.3577" lon="13.5706183"><ele>1190.6666666666667</ele><time>2026-05-03T07:56:46.747Z</time></trkpt><trkpt lat="42.3576233" lon="13.5708017"><ele>1188.3333333333333</ele><time>2026-05-03T07:56:47.747Z</time></trkpt><trkpt lat="42.3575483" lon="13.570975"><ele>1186.0</ele><time>2026-05-03T07:56:48.747Z</time></trkpt><trkpt lat="42.357465" lon="13.57115"><ele>1184.6666666666665</ele><time>2026-05-03T07:56:49.746Z</time></trkpt><trkpt lat="42.357375" lon="13.57132"><ele>1183.3333333333333</ele><time>2026-05-03T07:56:50.746Z</time></trkpt><trkpt lat="42.35728" lon="13.5714883"><ele>1182.0</ele><time>2026-05-03T07:56:51.747Z</time></trkpt><trkpt lat="42.3571817" lon="13.57165"><ele>1182.0</ele><time>2026-05-03T07:56:52.746Z</time></trkpt><trkpt lat="42.3570917" lon="13.5718083"><ele>1182.0</ele><time>2026-05-03T07:56:53.746Z</time></trkpt><trkpt lat="42.3570117" lon="13.57196"><ele>1182.0</ele><time>2026-05-03T07:56:54.746Z</time></trkpt><trkpt lat="42.356925" lon="13.5720967"><ele>1182.0</ele><time>2026-05-03T07:56:55.746Z</time></trkpt><trkpt lat="42.3568283" lon="13.5722267"><ele>1182.0</ele><time>2026-05-03T07:56:56.747Z</time></trkpt><trkpt lat="42.35672" lon="13.5723367"><ele>1182.0</ele><time>2026-05-03T07:56:57.747Z</time></trkpt><trkpt lat="42.3566267" lon="13.5724133"><ele>1182.0</ele><time>2026-05-03T07:56:58.746Z</time></trkpt><trkpt lat="42.3565383" lon="13.5724617"><ele>1182.0</ele><time>2026-05-03T07:56:59.747Z</time></trkpt><trkpt lat="42.3564567" lon="13.5724867"><ele>1182.0</ele><time>2026-05-03T07:57:00.747Z</time></trkpt><trkpt lat="42.3563683" lon="13.5724617"><ele>1182.0</ele><time>2026-05-03T07:57:01.747Z</time></trkpt><trkpt lat="42.3562583" lon="13.57242"><ele>1182.0</ele><time>2026-05-03T07:57:02.746Z</time></trkpt><trkpt lat="42.3561383" lon="13.572385"><ele>1182.0</ele><time>2026-05-03T07:57:03.746Z</time></trkpt><trkpt lat="42.3560183" lon="13.5723917"><ele>1182.0</ele><time>2026-05-03T07:57:04.747Z</time></trkpt><trkpt lat="42.355895" lon="13.5724183"><ele>1182.0</ele><time>2026-05-03T07:57:05.747Z</time></trkpt><trkpt lat="42.3557683" lon="13.5724567"><ele>1182.0</ele><time>2026-05-03T07:57:06.747Z</time></trkpt><trkpt lat="42.35565" lon="13.5725067"><ele>1182.0</ele><time>2026-05-03T07:57:07.747Z</time></trkpt><trkpt lat="42.35553" lon="13.572565"><ele>1182.0</ele><time>2026-05-03T07:57:08.747Z</time></trkpt><trkpt lat="42.3554217" lon="13.5726267"><ele>1180.5</ele><time>2026-05-03T07:57:09.747Z</time></trkpt><trkpt lat="42.3553133" lon="13.5726967"><ele>1179.0</ele><time>2026-05-03T07:57:10.747Z</time></trkpt><trkpt lat="42.3552067" lon="13.5727633"><ele>1177.5</ele><time>2026-05-03T07:57:11.746Z</time></trkpt><trkpt lat="42.3551017" lon="13.5728167"><ele>1176.0</ele><time>2026-05-03T07:57:12.747Z</time></trkpt><trkpt lat="42.3549967" lon="13.5728683"><ele>1176.0</ele><time>2026-05-03T07:57:13.747Z</time></trkpt><trkpt lat="42.3549" lon="13.5729083"><ele>1176.0</ele><time>2026-05-03T07:57:14.746Z</time></trkpt><trkpt lat="42.3548217" lon="13.57294"><ele>1176.0</ele><time>2026-05-03T07:57:15.747Z</time></trkpt><trkpt lat="42.35476" lon="13.5729833"><ele>1176.0</ele><time>2026-05-03T07:57:16.747Z</time></trkpt><trkpt lat="42.3547" lon="13.57303"><ele>1176.0</ele><time>2026-05-03T07:57:17.746Z</time></trkpt><trkpt lat="42.3546283" lon="13.57307"><ele>1176.0</ele><time>2026-05-03T07:57:18.746Z</time></trkpt><trkpt lat="42.3545567" lon="13.5731283"><ele>1175.8333333333333</ele><time>2026-05-03T07:57:19.746Z</time></trkpt><trkpt lat="42.3544767" lon="13.5731717"><ele>1175.6666666666667</ele><time>2026-05-03T07:57:20.746Z</time></trkpt><trkpt lat="42.3543967" lon="13.5732167"><ele>1175.5</ele><time>2026-05-03T07:57:21.747Z</time></trkpt><trkpt lat="42.354315" lon="13.573255"><ele>1175.3333333333335</ele><time>2026-05-03T07:57:22.746Z</time></trkpt><trkpt lat="42.35423" lon="13.57329"><ele>1175.1666666666667</ele><time>2026-05-03T07:57:23.747Z</time></trkpt><trkpt lat="42.3541433" lon="13.5733417"><ele>1175.0</ele><time>2026-05-03T07:57:24.747Z</time></trkpt><trkpt lat="42.35405" lon="13.5733983"><ele>1175.0</ele><time>2026-05-03T07:57:25.746Z</time></trkpt><trkpt lat="42.3539617" lon="13.5734583"><ele>1175.0</ele><time>2026-05-03T07:57:26.746Z</time></trkpt><trkpt lat="42.3538817" lon="13.5735267"><ele>1175.0</ele><time>2026-05-03T07:57:27.746Z</time></trkpt><trkpt lat="42.3537983" lon="13.5735917"><ele>1175.0</ele><time>2026-05-03T07:57:28.747Z</time></trkpt><trkpt lat="42.3537083" lon="13.5736617"><ele>1175.0</ele><time>2026-05-03T07:57:29.746Z</time></trkpt><trkpt lat="42.3536033" lon="13.5737267"><ele>1172.25</ele><time>2026-05-03T07:57:30.746Z</time></trkpt><trkpt lat="42.353495" lon="13.5737933"><ele>1169.5</ele><time>2026-05-03T07:57:31.747Z</time></trkpt><trkpt lat="42.353385" lon="13.57387"><ele>1166.75</ele><time>2026-05-03T07:57:32.747Z</time></trkpt><trkpt lat="42.3532733" lon="13.5739367"><ele>1164.0</ele><time>2026-05-03T07:57:33.747Z</time></trkpt><trkpt lat="42.3531633" lon="13.57401"><ele>1164.0</ele><time>2026-05-03T07:57:34.747Z</time></trkpt><trkpt lat="42.3530567" lon="13.5740767"><ele>1164.0</ele><time>2026-05-03T07:57:35.746Z</time></trkpt><trkpt lat="42.3529683" lon="13.5741483"><ele>1164.0</ele><time>2026-05-03T07:57:36.746Z</time></trkpt><trkpt lat="42.3528783" lon="13.57419"><ele>1164.0</ele><time>2026-05-03T07:57:37.746Z</time></trkpt><trkpt lat="42.3527883" lon="13.5742283"><ele>1164.0</ele><time>2026-05-03T07:57:38.746Z</time></trkpt><trkpt lat="42.3526867" lon="13.5742283"><ele>1162.8</ele><time>2026-05-03T07:57:39.747Z</time></trkpt><trkpt lat="42.3525817" lon="13.5742017"><ele>1161.6000000000001</ele><time>2026-05-03T07:57:40.747Z</time></trkpt><trkpt lat="42.352485" lon="13.57416"><ele>1160.4</ele><time>2026-05-03T07:57:41.747Z</time></trkpt><trkpt lat="42.3523883" lon="13.5740967"><ele>1159.2</ele><time>2026-05-03T07:57:42.746Z</time></trkpt><trkpt lat="42.3522983" lon="13.574035"><ele>1158.0</ele><time>2026-05-03T07:57:43.747Z</time></trkpt><trkpt lat="42.3522083" lon="13.57397"><ele>1157.0</ele><time>2026-05-03T07:57:44.747Z</time></trkpt><trkpt lat="42.3521283" lon="13.5738983"><ele>1156.0</ele><time>2026-05-03T07:57:45.747Z</time></trkpt><trkpt lat="42.35204" lon="13.5738233"><ele>1155.0</ele><time>2026-05-03T07:57:46.747Z</time></trkpt><trkpt lat="42.35196" lon="13.57375"><ele>1154.0</ele><time>2026-05-03T07:57:47.747Z</time></trkpt><trkpt lat="42.3518767" lon="13.5736867"><ele>1153.0</ele><time>2026-05-03T07:57:48.747Z</time></trkpt><trkpt lat="42.3517983" lon="13.5736367"><ele>1153.0</ele><time>2026-05-03T07:57:49.746Z</time></trkpt><trkpt lat="42.3517233" lon="13.5735817"><ele>1153.0</ele><time>2026-05-03T07:57:50.747Z</time></trkpt><trkpt lat="42.351645" lon="13.5735283"><ele>1153.0</ele><time>2026-05-03T07:57:51.746Z</time></trkpt><trkpt lat="42.3515633" lon="13.5734717"><ele>1153.0</ele><time>2026-05-03T07:57:52.746Z</time></trkpt><trkpt lat="42.3514633" lon="13.573405"><ele>1153.0</ele><time>2026-05-03T07:57:53.747Z</time></trkpt><trkpt lat="42.35137" lon="13.5733117"><ele>1152.0</ele><time>2026-05-03T07:57:54.747Z</time></trkpt><trkpt lat="42.3512783" lon="13.573205"><ele>1151.0</ele><time>2026-05-03T07:57:55.747Z</time></trkpt><trkpt lat="42.35119" lon="13.57309"><ele>1150.0</ele><time>2026-05-03T07:57:56.747Z</time></trkpt><trkpt lat="42.3511" lon="13.57297"><ele>1149.0</ele><time>2026-05-03T07:57:57.747Z</time></trkpt><trkpt lat="42.3510217" lon="13.5728383"><ele>1149.0</ele><time>2026-05-03T07:57:58.746Z</time></trkpt><trkpt lat="42.3509483" lon="13.572715"><ele>1149.0</ele><time>2026-05-03T07:57:59.746Z</time></trkpt><trkpt lat="42.3508733" lon="13.5726"><ele>1149.0</ele><time>2026-05-03T07:58:00.747Z</time></trkpt><trkpt lat="42.3507883" lon="13.5725017"><ele>1149.0</ele><time>2026-05-03T07:58:01.747Z</time></trkpt><trkpt lat="42.3506883" lon="13.5724083"><ele>1149.0</ele><time>2026-05-03T07:58:02.747Z</time></trkpt><trkpt lat="42.3505717" lon="13.5723467"><ele>1149.0</ele><time>2026-05-03T07:58:03.747Z</time></trkpt><trkpt lat="42.35045" lon="13.5722867"><ele>1149.0</ele><time>2026-05-03T07:58:04.747Z</time></trkpt><trkpt lat="42.3503417" lon="13.572195"><ele>1149.0</ele><time>2026-05-03T07:58:05.747Z</time></trkpt><trkpt lat="42.3502433" lon="13.5721033"><ele>1147.75</ele><time>2026-05-03T07:58:06.746Z</time></trkpt><trkpt lat="42.350135" lon="13.5719983"><ele>1146.5</ele><time>2026-05-03T07:58:07.746Z</time></trkpt><trkpt lat="42.3500233" lon="13.571905"><ele>1145.25</ele><time>2026-05-03T07:58:08.746Z</time></trkpt><trkpt lat="42.3499133" lon="13.57181"><ele>1144.0</ele><time>2026-05-03T07:58:09.746Z</time></trkpt><trkpt lat="42.3498117" lon="13.571705"><ele>1144.0</ele><time>2026-05-03T07:58:10.747Z</time></trkpt><trkpt lat="42.34972" lon="13.5715933"><ele>1144.0</ele><time>2026-05-03T07:58:11.747Z</time></trkpt><trkpt lat="42.3496367" lon="13.571475"><ele>1144.0</ele><time>2026-05-03T07:58:12.747Z</time></trkpt><trkpt lat="42.34955" lon="13.5713783"><ele>1144.0</ele><time>2026-05-03T07:58:13.746Z</time></trkpt><trkpt lat="42.34945" lon="13.57129"><ele>1144.5</ele><time>2026-05-03T07:58:14.746Z</time></trkpt><trkpt lat="42.34933" lon="13.5712333"><ele>1145.0</ele><time>2026-05-03T07:58:15.746Z</time></trkpt><trkpt lat="42.349195" lon="13.5712183"><ele>1145.5</ele><time>2026-05-03T07:58:16.746Z</time></trkpt><trkpt lat="42.3490717" lon="13.5712017"><ele>1146.0</ele><time>2026-05-03T07:58:17.747Z</time></trkpt><trkpt lat="42.3489367" lon="13.57119"><ele>1141.75</ele><time>2026-05-03T07:58:18.747Z</time></trkpt><trkpt lat="42.3488067" lon="13.5711583"><ele>1137.5</ele><time>2026-05-03T07:58:19.746Z</time></trkpt><trkpt lat="42.3486883" lon="13.5711083"><ele>1133.25</ele><time>2026-05-03T07:58:20.747Z</time></trkpt><trkpt lat="42.3485733" lon="13.57104"><ele>1129.0</ele><time>2026-05-03T07:58:21.746Z</time></trkpt><trkpt lat="42.3484483" lon="13.5709617"><ele>1129.0</ele><time>2026-05-03T07:58:22.747Z</time></trkpt><trkpt lat="42.3483417" lon="13.570885"><ele>1129.0</ele><time>2026-05-03T07:58:23.747Z</time></trkpt><trkpt lat="42.348255" lon="13.5708117"><ele>1129.0</ele><time>2026-05-03T07:58:24.746Z</time></trkpt><trkpt lat="42.3481717" lon="13.5707167"><ele>1129.0</ele><time>2026-05-03T07:58:25.747Z</time></trkpt><trkpt lat="42.3481067" lon="13.5705817"><ele>1127.0</ele><time>2026-05-03T07:58:26.746Z</time></trkpt><trkpt lat="42.348035" lon="13.570435"><ele>1125.0</ele><time>2026-05-03T07:58:27.746Z</time></trkpt><trkpt lat="42.3479683" lon="13.5702867"><ele>1123.0</ele><time>2026-05-03T07:58:28.746Z</time></trkpt><trkpt lat="42.347895" lon="13.570145"><ele>1121.0</ele><time>2026-05-03T07:58:29.747Z</time></trkpt><trkpt lat="42.3478067" lon="13.5700233"><ele>1121.0</ele><time>2026-05-03T07:58:30.747Z</time></trkpt><trkpt lat="42.3477083" lon="13.569925"><ele>1121.0</ele><time>2026-05-03T07:58:31.746Z</time></trkpt><trkpt lat="42.3476183" lon="13.5698317"><ele>1121.0</ele><time>2026-05-03T07:58:32.746Z</time></trkpt><trkpt lat="42.3475383" lon="13.56976"><ele>1121.0</ele><time>2026-05-03T07:58:33.746Z</time></trkpt><trkpt lat="42.3474517" lon="13.5697067"><ele>1121.0</ele><time>2026-05-03T07:58:34.746Z</time></trkpt><trkpt lat="42.3473683" lon="13.569695"><ele>1121.0</ele><time>2026-05-03T07:58:35.746Z</time></trkpt><trkpt lat="42.3472783" lon="13.5697167"><ele>1121.0</ele><time>2026-05-03T07:58:36.747Z</time></trkpt><trkpt lat="42.3471833" lon="13.5697433"><ele>1121.0</ele><time>2026-05-03T07:58:37.747Z</time></trkpt><trkpt lat="42.34708" lon="13.5697783"><ele>1121.0</ele><time>2026-05-03T07:58:38.747Z</time></trkpt><trkpt lat="42.3469717" lon="13.5698233"><ele>1121.0</ele><time>2026-05-03T07:58:39.746Z</time></trkpt><trkpt lat="42.3468567" lon="13.5698633"><ele>1120.6</ele><time>2026-05-03T07:58:40.747Z</time></trkpt><trkpt lat="42.3467517" lon="13.5698733"><ele>1120.1999999999998</ele><time>2026-05-03T07:58:41.747Z</time></trkpt><trkpt lat="42.34664" lon="13.5698767"><ele>1119.8000000000002</ele><time>2026-05-03T07:58:42.746Z</time></trkpt><trkpt lat="42.3465283" lon="13.5698883"><ele>1119.4</ele><time>2026-05-03T07:58:43.747Z</time></trkpt><trkpt lat="42.3464233" lon="13.5699083"><ele>1119.0</ele><time>2026-05-03T07:58:44.746Z</time></trkpt><trkpt lat="42.346325" lon="13.56995"><ele>1118.2</ele><time>2026-05-03T07:58:45.746Z</time></trkpt><trkpt lat="42.3462317" lon="13.570015"><ele>1117.4</ele><time>2026-05-03T07:58:46.746Z</time></trkpt><trkpt lat="42.3461417" lon="13.5701033"><ele>1116.6</ele><time>2026-05-03T07:58:47.746Z</time></trkpt><trkpt lat="42.3460633" lon="13.570195"><ele>1115.8</ele><time>2026-05-03T07:58:48.747Z</time></trkpt><trkpt lat="42.3459867" lon="13.5702867"><ele>1115.0</ele><time>2026-05-03T07:58:49.746Z</time></trkpt><trkpt lat="42.345915" lon="13.5703617"><ele>1115.0</ele><time>2026-05-03T07:58:50.746Z</time></trkpt><trkpt lat="42.345865" lon="13.57043"><ele>1115.0</ele><time>2026-05-03T07:58:51.747Z</time></trkpt><trkpt lat="42.345825" lon="13.5704967"><ele>1115.0</ele><time>2026-05-03T07:58:52.747Z</time></trkpt><trkpt lat="42.34579" lon="13.5706183"><ele>1115.0</ele><time>2026-05-03T07:58:54.747Z</time></trkpt><trkpt lat="42.3457667" lon="13.5707767"><ele>1115.0</ele><time>2026-05-03T07:58:56.746Z</time></trkpt><trkpt lat="42.34574" lon="13.57095"><ele>1115.0</ele><time>2026-05-03T07:58:58.746Z</time></trkpt><trkpt lat="42.3457083" lon="13.5710333"><ele>1115.0</ele><time>2026-05-03T07:58:59.747Z</time></trkpt><trkpt lat="42.3456533" lon="13.57113"><ele>1115.0</ele><time>2026-05-03T07:59:00.746Z</time></trkpt><trkpt lat="42.3455883" lon="13.57122"><ele>1115.0</ele><time>2026-05-03T07:59:01.747Z</time></trkpt><trkpt lat="42.3455183" lon="13.5712817"><ele>1115.0</ele><time>2026-05-03T07:59:02.747Z</time></trkpt><trkpt lat="42.345455" lon="13.5713383"><ele>1115.0</ele><time>2026-05-03T07:59:03.746Z</time></trkpt><trkpt lat="42.3454" lon="13.5713933"><ele>1113.8333333333335</ele><time>2026-05-03T07:59:04.746Z</time></trkpt><trkpt lat="42.34535" lon="13.5714517"><ele>1112.6666666666667</ele><time>2026-05-03T07:59:05.746Z</time></trkpt><trkpt lat="42.3453033" lon="13.571515"><ele>1111.5</ele><time>2026-05-03T07:59:06.746Z</time></trkpt><trkpt lat="42.345245" lon="13.5715783"><ele>1110.3333333333333</ele><time>2026-05-03T07:59:07.746Z</time></trkpt><trkpt lat="42.3451917" lon="13.571655"><ele>1109.1666666666665</ele><time>2026-05-03T07:59:08.747Z</time></trkpt><trkpt lat="42.3451433" lon="13.57175"><ele>1108.0</ele><time>2026-05-03T07:59:09.747Z</time></trkpt><trkpt lat="42.3450983" lon="13.5718733"><ele>1108.0</ele><time>2026-05-03T07:59:10.747Z</time></trkpt><trkpt lat="42.3450533" lon="13.5720233"><ele>1108.0</ele><time>2026-05-03T07:59:11.747Z</time></trkpt><trkpt lat="42.345005" lon="13.5721783"><ele>1108.0</ele><time>2026-05-03T07:59:12.747Z</time></trkpt><trkpt lat="42.3449417" lon="13.572335"><ele>1108.0</ele><time>2026-05-03T07:59:13.746Z</time></trkpt><trkpt lat="42.3448667" lon="13.572475"><ele>1108.0</ele><time>2026-05-03T07:59:14.746Z</time></trkpt><trkpt lat="42.344775" lon="13.5726133"><ele>1108.0</ele><time>2026-05-03T07:59:15.746Z</time></trkpt><trkpt lat="42.344685" lon="13.5727433"><ele>1108.0</ele><time>2026-05-03T07:59:16.746Z</time></trkpt><trkpt lat="42.3445783" lon="13.5728733"><ele>1108.0</ele><time>2026-05-03T07:59:17.746Z</time></trkpt><trkpt lat="42.3444683" lon="13.5729917"><ele>1107.5</ele><time>2026-05-03T07:59:18.746Z</time></trkpt><trkpt lat="42.3443533" lon="13.5731217"><ele>1107.0</ele><time>2026-05-03T07:59:19.746Z</time></trkpt><trkpt lat="42.3442367" lon="13.57325"><ele>1106.5</ele><time>2026-05-03T07:59:20.746Z</time></trkpt><trkpt lat="42.344125" lon="13.5733783"><ele>1106.0</ele><time>2026-05-03T07:59:21.745Z</time></trkpt><trkpt lat="42.3440167" lon="13.5735033"><ele>1106.0</ele><time>2026-05-03T07:59:22.746Z</time></trkpt><trkpt lat="42.3439083" lon="13.57362"><ele>1106.0</ele><time>2026-05-03T07:59:23.746Z</time></trkpt><trkpt lat="42.343805" lon="13.5737367"><ele>1106.0</ele><time>2026-05-03T07:59:24.746Z</time></trkpt><trkpt lat="42.3437033" lon="13.5738583"><ele>1106.0</ele><time>2026-05-03T07:59:25.746Z</time></trkpt><trkpt lat="42.3436117" lon="13.5740033"><ele>1106.25</ele><time>2026-05-03T07:59:26.746Z</time></trkpt><trkpt lat="42.3435267" lon="13.5741517"><ele>1106.5</ele><time>2026-05-03T07:59:27.746Z</time></trkpt><trkpt lat="42.343435" lon="13.574295"><ele>1106.75</ele><time>2026-05-03T07:59:28.746Z</time></trkpt><trkpt lat="42.34335" lon="13.57444"><ele>1107.0</ele><time>2026-05-03T07:59:29.746Z</time></trkpt><trkpt lat="42.3432533" lon="13.5745783"><ele>1107.0</ele><time>2026-05-03T07:59:30.745Z</time></trkpt><trkpt lat="42.3431533" lon="13.574695"><ele>1107.0</ele><time>2026-05-03T07:59:31.745Z</time></trkpt><trkpt lat="42.3430417" lon="13.574805"><ele>1107.0</ele><time>2026-05-03T07:59:32.746Z</time></trkpt><trkpt lat="42.3429317" lon="13.574905"><ele>1107.0</ele><time>2026-05-03T07:59:33.746Z</time></trkpt><trkpt lat="42.34282" lon="13.57501"><ele>1106.0</ele><time>2026-05-03T07:59:34.745Z</time></trkpt><trkpt lat="42.3427117" lon="13.5751267"><ele>1105.0</ele><time>2026-05-03T07:59:35.745Z</time></trkpt><trkpt lat="42.342615" lon="13.575265"><ele>1104.0</ele><time>2026-05-03T07:59:36.745Z</time></trkpt><trkpt lat="42.3425183" lon="13.5754133"><ele>1103.0</ele><time>2026-05-03T07:59:37.745Z</time></trkpt><trkpt lat="42.3424183" lon="13.5755633"><ele>1103.0</ele><time>2026-05-03T07:59:38.745Z</time></trkpt><trkpt lat="42.3423217" lon="13.5757067"><ele>1103.0</ele><time>2026-05-03T07:59:39.745Z</time></trkpt><trkpt lat="42.342225" lon="13.5758533"><ele>1103.0</ele><time>2026-05-03T07:59:40.745Z</time></trkpt><trkpt lat="42.3421333" lon="13.5760033"><ele>1103.0</ele><time>2026-05-03T07:59:41.746Z</time></trkpt><trkpt lat="42.3420383" lon="13.5761583"><ele>1101.3333333333335</ele><time>2026-05-03T07:59:42.745Z</time></trkpt><trkpt lat="42.3419317" lon="13.5763"><ele>1099.6666666666667</ele><time>2026-05-03T07:59:43.745Z</time></trkpt><trkpt lat="42.3418267" lon="13.576445"><ele>1098.0</ele><time>2026-05-03T07:59:44.746Z</time></trkpt><trkpt lat="42.3417317" lon="13.5766033"><ele>1098.0</ele><time>2026-05-03T07:59:45.746Z</time></trkpt><trkpt lat="42.341635" lon="13.5767633"><ele>1098.0</ele><time>2026-05-03T07:59:46.745Z</time></trkpt><trkpt lat="42.3415217" lon="13.5769333"><ele>1098.0</ele><time>2026-05-03T07:59:47.745Z</time></trkpt><trkpt lat="42.3414067" lon="13.5770983"><ele>1097.3333333333333</ele><time>2026-05-03T07:59:48.746Z</time></trkpt><trkpt lat="42.3413" lon="13.57726"><ele>1096.6666666666665</ele><time>2026-05-03T07:59:49.746Z</time></trkpt><trkpt lat="42.3411917" lon="13.5774217"><ele>1096.0</ele><time>2026-05-03T07:59:50.746Z</time></trkpt><trkpt lat="42.3410817" lon="13.577575"><ele>1096.0</ele><time>2026-05-03T07:59:51.745Z</time></trkpt><trkpt lat="42.34096" lon="13.5777383"><ele>1096.0</ele><time>2026-05-03T07:59:52.746Z</time></trkpt><trkpt lat="42.3408467" lon="13.5778983"><ele>1096.0</ele><time>2026-05-03T07:59:53.746Z</time></trkpt><trkpt lat="42.340735" lon="13.578055"><ele>1097.3333333333333</ele><time>2026-05-03T07:59:54.746Z</time></trkpt><trkpt lat="42.3406183" lon="13.5781967"><ele>1098.6666666666667</ele><time>2026-05-03T07:59:55.746Z</time></trkpt><trkpt lat="42.3405" lon="13.578355"><ele>1100.0</ele><time>2026-05-03T07:59:56.745Z</time></trkpt><trkpt lat="42.340395" lon="13.5785117"><ele>1097.3333333333335</ele><time>2026-05-03T07:59:57.745Z</time></trkpt><trkpt lat="42.3402767" lon="13.578655"><ele>1094.6666666666667</ele><time>2026-05-03T07:59:58.746Z</time></trkpt><trkpt lat="42.340165" lon="13.5788083"><ele>1092.0</ele><time>2026-05-03T07:59:59.746Z</time></trkpt><trkpt lat="42.34005" lon="13.5789633"><ele>1092.0</ele><time>2026-05-03T08:00:00.746Z</time></trkpt><trkpt lat="42.339945" lon="13.5791267"><ele>1092.0</ele><time>2026-05-03T08:00:01.745Z</time></trkpt><trkpt lat="42.3398383" lon="13.5792867"><ele>1092.0</ele><time>2026-05-03T08:00:02.746Z</time></trkpt><trkpt lat="42.339735" lon="13.57945"><ele>1090.75</ele><time>2026-05-03T08:00:03.746Z</time></trkpt><trkpt lat="42.3396317" lon="13.57961"><ele>1089.5</ele><time>2026-05-03T08:00:04.745Z</time></trkpt><trkpt lat="42.339535" lon="13.579765"><ele>1088.25</ele><time>2026-05-03T08:00:05.746Z</time></trkpt><trkpt lat="42.3394383" lon="13.5799067"><ele>1087.0</ele><time>2026-05-03T08:00:06.746Z</time></trkpt><trkpt lat="42.3393517" lon="13.5800383"><ele>1087.0</ele><time>2026-05-03T08:00:07.746Z</time></trkpt><trkpt lat="42.3392617" lon="13.5801633"><ele>1087.0</ele><time>2026-05-03T08:00:08.745Z</time></trkpt><trkpt lat="42.3391783" lon="13.5802783"><ele>1087.0</ele><time>2026-05-03T08:00:09.746Z</time></trkpt><trkpt lat="42.3390783" lon="13.5803733"><ele>1087.0</ele><time>2026-05-03T08:00:10.746Z</time></trkpt><trkpt lat="42.338985" lon="13.580465"><ele>1087.4</ele><time>2026-05-03T08:00:11.746Z</time></trkpt><trkpt lat="42.3388933" lon="13.5805617"><ele>1087.8000000000002</ele><time>2026-05-03T08:00:12.746Z</time></trkpt><trkpt lat="42.3388133" lon="13.5806367"><ele>1088.2</ele><time>2026-05-03T08:00:13.746Z</time></trkpt><trkpt lat="42.338735" lon="13.580705"><ele>1088.6000000000001</ele><time>2026-05-03T08:00:14.745Z</time></trkpt><trkpt lat="42.3386583" lon="13.5807617"><ele>1089.0</ele><time>2026-05-03T08:00:15.746Z</time></trkpt><trkpt lat="42.3385817" lon="13.5807783"><ele>1089.0</ele><time>2026-05-03T08:00:16.746Z</time></trkpt><trkpt lat="42.3385067" lon="13.5807717"><ele>1089.0</ele><time>2026-05-03T08:00:17.746Z</time></trkpt><trkpt lat="42.3384367" lon="13.5807333"><ele>1089.0</ele><time>2026-05-03T08:00:18.746Z</time></trkpt><trkpt lat="42.33837" lon="13.5806833"><ele>1089.0</ele><time>2026-05-03T08:00:19.745Z</time></trkpt><trkpt lat="42.338305" lon="13.58062"><ele>1089.0</ele><time>2026-05-03T08:00:20.745Z</time></trkpt><trkpt lat="42.33824" lon="13.5805483"><ele>1089.0</ele><time>2026-05-03T08:00:21.745Z</time></trkpt><trkpt lat="42.338175" lon="13.5804617"><ele>1089.0</ele><time>2026-05-03T08:00:22.745Z</time></trkpt><trkpt lat="42.3381067" lon="13.580375"><ele>1089.0</ele><time>2026-05-03T08:00:23.746Z</time></trkpt><trkpt lat="42.3380483" lon="13.58029"><ele>1089.0</ele><time>2026-05-03T08:00:24.746Z</time></trkpt><trkpt lat="42.3379983" lon="13.580205"><ele>1089.0</ele><time>2026-05-03T08:00:25.746Z</time></trkpt><trkpt lat="42.3379517" lon="13.5801367"><ele>1089.0</ele><time>2026-05-03T08:00:26.746Z</time></trkpt><trkpt lat="42.3378933" lon="13.5800217"><ele>1089.0</ele><time>2026-05-03T08:00:28.745Z</time></trkpt><trkpt lat="42.3378267" lon="13.57992"><ele>1088.4</ele><time>2026-05-03T08:00:30.745Z</time></trkpt><trkpt lat="42.33774" lon="13.5797867"><ele>1087.8000000000002</ele><time>2026-05-03T08:00:32.746Z</time></trkpt><trkpt lat="42.3376967" lon="13.5797"><ele>1087.1999999999998</ele><time>2026-05-03T08:00:33.746Z</time></trkpt><trkpt lat="42.3376367" lon="13.5796083"><ele>1086.6</ele><time>2026-05-03T08:00:34.745Z</time></trkpt><trkpt lat="42.337555" lon="13.5795233"><ele>1086.0</ele><time>2026-05-03T08:00:35.746Z</time></trkpt><trkpt lat="42.3374583" lon="13.5794517"><ele>1086.0</ele><time>2026-05-03T08:00:36.746Z</time></trkpt><trkpt lat="42.3373483" lon="13.579405"><ele>1086.0</ele><time>2026-05-03T08:00:37.745Z</time></trkpt><trkpt lat="42.337225" lon="13.579385"><ele>1086.0</ele><time>2026-05-03T08:00:38.745Z</time></trkpt><trkpt lat="42.3371" lon="13.5793917"><ele>1086.0</ele><time>2026-05-03T08:00:39.746Z</time></trkpt><trkpt lat="42.33697" lon="13.579425"><ele>1086.25</ele><time>2026-05-03T08:00:40.746Z</time></trkpt><trkpt lat="42.3368267" lon="13.57947"><ele>1086.5</ele><time>2026-05-03T08:00:41.746Z</time></trkpt><trkpt lat="42.3366783" lon="13.5794967"><ele>1086.75</ele><time>2026-05-03T08:00:42.746Z</time></trkpt><trkpt lat="42.33653" lon="13.5795017"><ele>1087.0</ele><time>2026-05-03T08:00:43.746Z</time></trkpt><trkpt lat="42.336375" lon="13.5795067"><ele>1087.0</ele><time>2026-05-03T08:00:44.746Z</time></trkpt><trkpt lat="42.3362217" lon="13.5795067"><ele>1087.0</ele><time>2026-05-03T08:00:45.745Z</time></trkpt><trkpt lat="42.3360633" lon="13.579515"><ele>1087.0</ele><time>2026-05-03T08:00:46.746Z</time></trkpt><trkpt lat="42.335905" lon="13.5795367"><ele>1086.6666666666665</ele><time>2026-05-03T08:00:47.745Z</time></trkpt><trkpt lat="42.3357367" lon="13.579565"><ele>1086.3333333333333</ele><time>2026-05-03T08:00:48.746Z</time></trkpt><trkpt lat="42.3355783" lon="13.579605"><ele>1086.0</ele><time>2026-05-03T08:00:49.746Z</time></trkpt><trkpt lat="42.3354217" lon="13.5796167"><ele>1086.0</ele><time>2026-05-03T08:00:50.745Z</time></trkpt><trkpt lat="42.335265" lon="13.5796067"><ele>1086.0</ele><time>2026-05-03T08:00:51.746Z</time></trkpt><trkpt lat="42.3351117" lon="13.5795833"><ele>1086.0</ele><time>2026-05-03T08:00:52.745Z</time></trkpt><trkpt lat="42.3349567" lon="13.57955"><ele>1082.6666666666667</ele><time>2026-05-03T08:00:53.746Z</time></trkpt><trkpt lat="42.3348067" lon="13.579495"><ele>1079.3333333333335</ele><time>2026-05-03T08:00:54.745Z</time></trkpt><trkpt lat="42.3346617" lon="13.5794367"><ele>1076.0</ele><time>2026-05-03T08:00:55.745Z</time></trkpt><trkpt lat="42.3345133" lon="13.57938"><ele>1073.75</ele><time>2026-05-03T08:00:56.745Z</time></trkpt><trkpt lat="42.3343667" lon="13.5793317"><ele>1071.5</ele><time>2026-05-03T08:00:57.746Z</time></trkpt><trkpt lat="42.33422" lon="13.5793117"><ele>1069.25</ele><time>2026-05-03T08:00:58.745Z</time></trkpt><trkpt lat="42.3340833" lon="13.579305"><ele>1067.0</ele><time>2026-05-03T08:00:59.746Z</time></trkpt><trkpt lat="42.3339483" lon="13.5793033"><ele>1063.25</ele><time>2026-05-03T08:01:00.746Z</time></trkpt><trkpt lat="42.333815" lon="13.5792917"><ele>1059.5</ele><time>2026-05-03T08:01:01.746Z</time></trkpt><trkpt lat="42.3336817" lon="13.5792767"><ele>1055.75</ele><time>2026-05-03T08:01:02.745Z</time></trkpt><trkpt lat="42.3335583" lon="13.5792883"><ele>1052.0</ele><time>2026-05-03T08:01:03.745Z</time></trkpt><trkpt lat="42.3334333" lon="13.5793433"><ele>1052.0</ele><time>2026-05-03T08:01:04.746Z</time></trkpt><trkpt lat="42.3333183" lon="13.57946"><ele>1052.0</ele><time>2026-05-03T08:01:05.746Z</time></trkpt><trkpt lat="42.3332183" lon="13.5795983"><ele>1052.0</ele><time>2026-05-03T08:01:06.745Z</time></trkpt><trkpt lat="42.3331217" lon="13.5797483"><ele>1052.0</ele><time>2026-05-03T08:01:07.746Z</time></trkpt><trkpt lat="42.3330067" lon="13.5798567"><ele>1048.75</ele><time>2026-05-03T08:01:08.746Z</time></trkpt><trkpt lat="42.33288" lon="13.5799383"><ele>1045.5</ele><time>2026-05-03T08:01:09.745Z</time></trkpt><trkpt lat="42.3327467" lon="13.5800083"><ele>1042.25</ele><time>2026-05-03T08:01:10.746Z</time></trkpt><trkpt lat="42.3326017" lon="13.5800817"><ele>1039.0</ele><time>2026-05-03T08:01:11.746Z</time></trkpt><trkpt lat="42.332465" lon="13.5801483"><ele>1039.0</ele><time>2026-05-03T08:01:12.746Z</time></trkpt><trkpt lat="42.3323383" lon="13.5802167"><ele>1039.0</ele><time>2026-05-03T08:01:13.746Z</time></trkpt><trkpt lat="42.3322233" lon="13.5802717"><ele>1039.0</ele><time>2026-05-03T08:01:14.745Z</time></trkpt><trkpt lat="42.3321183" lon="13.5803367"><ele>1039.0</ele><time>2026-05-03T08:01:15.746Z</time></trkpt><trkpt lat="42.3319867" lon="13.5805667"><ele>1037.0</ele><time>2026-05-03T08:01:17.746Z</time></trkpt><trkpt lat="42.331965" lon="13.5807317"><ele>1035.0</ele><time>2026-05-03T08:01:18.746Z</time></trkpt><trkpt lat="42.3319833" lon="13.580905"><ele>1033.0</ele><time>2026-05-03T08:01:19.746Z</time></trkpt><trkpt lat="42.3320167" lon="13.5810933"><ele>1031.0</ele><time>2026-05-03T08:01:20.746Z</time></trkpt><trkpt lat="42.33205" lon="13.5812883"><ele>1031.0</ele><time>2026-05-03T08:01:21.745Z</time></trkpt><trkpt lat="42.3320783" lon="13.581495"><ele>1031.0</ele><time>2026-05-03T08:01:22.745Z</time></trkpt><trkpt lat="42.3320817" lon="13.5817"><ele>1031.0</ele><time>2026-05-03T08:01:23.746Z</time></trkpt><trkpt lat="42.3320683" lon="13.5819117"><ele>1029.3333333333335</ele><time>2026-05-03T08:01:24.746Z</time></trkpt><trkpt lat="42.3320633" lon="13.5821217"><ele>1027.6666666666667</ele><time>2026-05-03T08:01:25.746Z</time></trkpt><trkpt lat="42.3320783" lon="13.5823317"><ele>1026.0</ele><time>2026-05-03T08:01:26.746Z</time></trkpt><trkpt lat="42.3321133" lon="13.5825333"><ele>1026.0</ele><time>2026-05-03T08:01:27.745Z</time></trkpt><trkpt lat="42.3321517" lon="13.5827467"><ele>1026.0</ele><time>2026-05-03T08:01:28.746Z</time></trkpt><trkpt lat="42.3321983" lon="13.58296"><ele>1026.0</ele><time>2026-05-03T08:01:29.745Z</time></trkpt><trkpt lat="42.3322483" lon="13.583175"><ele>1027.3333333333333</ele><time>2026-05-03T08:01:30.746Z</time></trkpt><trkpt lat="42.332285" lon="13.5833783"><ele>1028.6666666666665</ele><time>2026-05-03T08:01:31.745Z</time></trkpt><trkpt lat="42.332335" lon="13.5835783"><ele>1030.0</ele><time>2026-05-03T08:01:32.745Z</time></trkpt><trkpt lat="42.3323817" lon="13.58377"><ele>1030.0</ele><time>2026-05-03T08:01:33.746Z</time></trkpt><trkpt lat="42.3324167" lon="13.5839533"><ele>1030.0</ele><time>2026-05-03T08:01:34.746Z</time></trkpt><trkpt lat="42.3324517" lon="13.5841433"><ele>1030.0</ele><time>2026-05-03T08:01:35.746Z</time></trkpt><trkpt lat="42.3324683" lon="13.584325"><ele>1030.0</ele><time>2026-05-03T08:01:36.746Z</time></trkpt><trkpt lat="42.332475" lon="13.584515"><ele>1029.0</ele><time>2026-05-03T08:01:37.746Z</time></trkpt><trkpt lat="42.3324717" lon="13.5847"><ele>1028.0</ele><time>2026-05-03T08:01:38.746Z</time></trkpt><trkpt lat="42.3324733" lon="13.5848867"><ele>1027.0</ele><time>2026-05-03T08:01:39.746Z</time></trkpt><trkpt lat="42.3324767" lon="13.5850717"><ele>1026.0</ele><time>2026-05-03T08:01:40.746Z</time></trkpt><trkpt lat="42.3324783" lon="13.5852583"><ele>1025.0</ele><time>2026-05-03T08:01:41.746Z</time></trkpt><trkpt lat="42.3324733" lon="13.5854367"><ele>1024.0</ele><time>2026-05-03T08:01:42.746Z</time></trkpt><trkpt lat="42.33245" lon="13.5856133"><ele>1023.0</ele><time>2026-05-03T08:01:43.746Z</time></trkpt><trkpt lat="42.332405" lon="13.585765"><ele>1022.0</ele><time>2026-05-03T08:01:44.746Z</time></trkpt><trkpt lat="42.3323367" lon="13.5859283"><ele>1022.0</ele><time>2026-05-03T08:01:45.746Z</time></trkpt><trkpt lat="42.3322583" lon="13.5860967"><ele>1022.0</ele><time>2026-05-03T08:01:46.746Z</time></trkpt><trkpt lat="42.332175" lon="13.586285"><ele>1022.0</ele><time>2026-05-03T08:01:47.745Z</time></trkpt><trkpt lat="42.3320983" lon="13.586465"><ele>1018.6666666666667</ele><time>2026-05-03T08:01:48.745Z</time></trkpt><trkpt lat="42.3320133" lon="13.5866483"><ele>1015.3333333333333</ele><time>2026-05-03T08:01:49.746Z</time></trkpt><trkpt lat="42.33193" lon="13.5868333"><ele>1012.0</ele><time>2026-05-03T08:01:50.745Z</time></trkpt><trkpt lat="42.3318467" lon="13.587005"><ele>1012.0</ele><time>2026-05-03T08:01:51.745Z</time></trkpt><trkpt lat="42.331765" lon="13.587175"><ele>1012.0</ele><time>2026-05-03T08:01:52.746Z</time></trkpt><trkpt lat="42.3316933" lon="13.587345"><ele>1012.0</ele><time>2026-05-03T08:01:53.746Z</time></trkpt><trkpt lat="42.3316117" lon="13.5875133"><ele>1012.0</ele><time>2026-05-03T08:01:54.745Z</time></trkpt><trkpt lat="42.331535" lon="13.5876783"><ele>1012.0</ele><time>2026-05-03T08:01:55.746Z</time></trkpt><trkpt lat="42.33146" lon="13.5878317"><ele>1012.0</ele><time>2026-05-03T08:01:56.746Z</time></trkpt><trkpt lat="42.3313883" lon="13.5879867"><ele>1012.0</ele><time>2026-05-03T08:01:57.746Z</time></trkpt><trkpt lat="42.3313217" lon="13.5881383"><ele>1012.0</ele><time>2026-05-03T08:01:58.746Z</time></trkpt><trkpt lat="42.3312483" lon="13.588295"><ele>1007.6666666666666</ele><time>2026-05-03T08:01:59.745Z</time></trkpt><trkpt lat="42.3311867" lon="13.58847"><ele>1003.3333333333333</ele><time>2026-05-03T08:02:00.746Z</time></trkpt><trkpt lat="42.3311333" lon="13.5886617"><ele>999.0</ele><time>2026-05-03T08:02:01.745Z</time></trkpt><trkpt lat="42.3310817" lon="13.5888717"><ele>999.0</ele><time>2026-05-03T08:02:02.746Z</time></trkpt><trkpt lat="42.3310217" lon="13.5890917"><ele>999.0</ele><time>2026-05-03T08:02:03.746Z</time></trkpt><trkpt lat="42.3309617" lon="13.5892983"><ele>999.0</ele><time>2026-05-03T08:02:04.746Z</time></trkpt><trkpt lat="42.330895" lon="13.58949"><ele>999.25</ele><time>2026-05-03T08:02:05.745Z</time></trkpt><trkpt lat="42.330825" lon="13.589655"><ele>999.5</ele><time>2026-05-03T08:02:06.745Z</time></trkpt><trkpt lat="42.3307383" lon="13.5897867"><ele>999.75</ele><time>2026-05-03T08:02:07.745Z</time></trkpt><trkpt lat="42.33063" lon="13.5898833"><ele>1000.0</ele><time>2026-05-03T08:02:08.745Z</time></trkpt><trkpt lat="42.3305167" lon="13.5899633"><ele>998.0</ele><time>2026-05-03T08:02:09.746Z</time></trkpt><trkpt lat="42.3304" lon="13.59002"><ele>996.0</ele><time>2026-05-03T08:02:10.745Z</time></trkpt><trkpt lat="42.3302867" lon="13.5900683"><ele>994.0</ele><time>2026-05-03T08:02:11.745Z</time></trkpt><trkpt lat="42.3301767" lon="13.5901"><ele>992.0</ele><time>2026-05-03T08:02:12.745Z</time></trkpt><trkpt lat="42.3300733" lon="13.5901267"><ele>992.0</ele><time>2026-05-03T08:02:13.746Z</time></trkpt><trkpt lat="42.3299867" lon="13.5901583"><ele>992.0</ele><time>2026-05-03T08:02:14.746Z</time></trkpt><trkpt lat="42.32992" lon="13.59018"><ele>992.0</ele><time>2026-05-03T08:02:15.745Z</time></trkpt><trkpt lat="42.32983" lon="13.590275"><ele>992.0</ele><time>2026-05-03T08:02:17.746Z</time></trkpt><trkpt lat="42.3297567" lon="13.590385"><ele>992.0</ele><time>2026-05-03T08:02:19.746Z</time></trkpt><trkpt lat="42.3296883" lon="13.5904983"><ele>991.0</ele><time>2026-05-03T08:02:21.746Z</time></trkpt><trkpt lat="42.329675" lon="13.5906033"><ele>990.0</ele><time>2026-05-03T08:02:23.746Z</time></trkpt><trkpt lat="42.3297467" lon="13.5907033"><ele>989.0</ele><time>2026-05-03T08:02:25.746Z</time></trkpt><trkpt lat="42.32985" lon="13.5907733"><ele>988.0</ele><time>2026-05-03T08:02:27.745Z</time></trkpt><trkpt lat="42.3299117" lon="13.5908083"><ele>987.0</ele><time>2026-05-03T08:02:28.746Z</time></trkpt><trkpt lat="42.33003" lon="13.59087"><ele>989.5</ele><time>2026-05-03T08:02:30.746Z</time></trkpt><trkpt lat="42.33016" lon="13.5909517"><ele>992.0</ele><time>2026-05-03T08:02:32.746Z</time></trkpt><trkpt lat="42.3302433" lon="13.5910133"><ele>994.5</ele><time>2026-05-03T08:02:33.746Z</time></trkpt><trkpt lat="42.33033" lon="13.5910883"><ele>997.0</ele><time>2026-05-03T08:02:34.746Z</time></trkpt><trkpt lat="42.3304317" lon="13.591195"><ele>998.75</ele><time>2026-05-03T08:02:35.745Z</time></trkpt><trkpt lat="42.3305417" lon="13.5913083"><ele>1000.5</ele><time>2026-05-03T08:02:36.745Z</time></trkpt><trkpt lat="42.3306367" lon="13.5914267"><ele>1002.25</ele><time>2026-05-03T08:02:37.746Z</time></trkpt><trkpt lat="42.3307333" lon="13.5915133"><ele>1004.0</ele><time>2026-05-03T08:02:38.745Z</time></trkpt><trkpt lat="42.3308283" lon="13.5916067"><ele>1006.25</ele><time>2026-05-03T08:02:39.745Z</time></trkpt><trkpt lat="42.3309233" lon="13.5916983"><ele>1008.5</ele><time>2026-05-03T08:02:40.745Z</time></trkpt><trkpt lat="42.3310083" lon="13.5918083"><ele>1010.75</ele><time>2026-05-03T08:02:41.745Z</time></trkpt><trkpt lat="42.3310883" lon="13.591915"><ele>1013.0</ele><time>2026-05-03T08:02:42.746Z</time></trkpt><trkpt lat="42.331165" lon="13.5920267"><ele>1014.2</ele><time>2026-05-03T08:02:43.746Z</time></trkpt><trkpt lat="42.33124" lon="13.592145"><ele>1015.4</ele><time>2026-05-03T08:02:44.746Z</time></trkpt><trkpt lat="42.3313083" lon="13.5922617"><ele>1016.6000000000001</ele><time>2026-05-03T08:02:45.746Z</time></trkpt><trkpt lat="42.33137" lon="13.5923783"><ele>1017.8000000000001</ele><time>2026-05-03T08:02:46.745Z</time></trkpt><trkpt lat="42.3314417" lon="13.5924883"><ele>1019.0</ele><time>2026-05-03T08:02:47.746Z</time></trkpt><trkpt lat="42.3315067" lon="13.59261"><ele>1020.4000000000001</ele><time>2026-05-03T08:02:48.745Z</time></trkpt><trkpt lat="42.331575" lon="13.5927333"><ele>1021.8000000000001</ele><time>2026-05-03T08:02:49.746Z</time></trkpt><trkpt lat="42.3316417" lon="13.592855"><ele>1023.1999999999999</ele><time>2026-05-03T08:02:50.745Z</time></trkpt><trkpt lat="42.3316933" lon="13.5929733"><ele>1024.6</ele><time>2026-05-03T08:02:51.745Z</time></trkpt><trkpt lat="42.3317467" lon="13.5930967"><ele>1026.0</ele><time>2026-05-03T08:02:52.746Z</time></trkpt><trkpt lat="42.3318" lon="13.593205"><ele>1027.1666666666667</ele><time>2026-05-03T08:02:53.745Z</time></trkpt><trkpt lat="42.3318483" lon="13.5933083"><ele>1028.3333333333333</ele><time>2026-05-03T08:02:54.746Z</time></trkpt><trkpt lat="42.3318967" lon="13.5934067"><ele>1029.5</ele><time>2026-05-03T08:02:55.746Z</time></trkpt><trkpt lat="42.3319433" lon="13.59351"><ele>1030.6666666666665</ele><time>2026-05-03T08:02:56.746Z</time></trkpt><trkpt lat="42.331995" lon="13.5935917"><ele>1031.8333333333333</ele><time>2026-05-03T08:02:57.745Z</time></trkpt><trkpt lat="42.3320333" lon="13.593665"><ele>1033.0</ele><time>2026-05-03T08:02:58.746Z</time></trkpt><trkpt lat="42.332105" lon="13.5937867"><ele>1034.8</ele><time>2026-05-03T08:03:00.745Z</time></trkpt><trkpt lat="42.3320983" lon="13.5939017"><ele>1036.6</ele><time>2026-05-03T08:03:02.745Z</time></trkpt><trkpt lat="42.332015" lon="13.5939983"><ele>1038.4</ele><time>2026-05-03T08:03:04.746Z</time></trkpt><trkpt lat="42.3319633" lon="13.594125"><ele>1040.2</ele><time>2026-05-03T08:03:06.746Z</time></trkpt><trkpt lat="42.3319167" lon="13.59425"><ele>1042.0</ele><time>2026-05-03T08:03:08.745Z</time></trkpt><trkpt lat="42.33188" lon="13.594325"><ele>1042.0</ele><time>2026-05-03T08:03:09.746Z</time></trkpt><trkpt lat="42.3318333" lon="13.5943933"><ele>1042.0</ele><time>2026-05-03T08:03:10.745Z</time></trkpt><trkpt lat="42.3317867" lon="13.5944683"><ele>1042.0</ele><time>2026-05-03T08:03:11.746Z</time></trkpt><trkpt lat="42.331735" lon="13.5945317"><ele>1042.0</ele><time>2026-05-03T08:03:12.745Z</time></trkpt><trkpt lat="42.3316883" lon="13.59461"><ele>1042.0</ele><time>2026-05-03T08:03:13.746Z</time></trkpt><trkpt lat="42.3316483" lon="13.5946817"><ele>1042.0</ele><time>2026-05-03T08:03:14.745Z</time></trkpt><trkpt lat="42.331605" lon="13.59481"><ele>1041.3333333333333</ele><time>2026-05-03T08:03:16.745Z</time></trkpt><trkpt lat="42.3316367" lon="13.5949083"><ele>1040.6666666666665</ele><time>2026-05-03T08:03:18.746Z</time></trkpt><trkpt lat="42.3317333" lon="13.5949533"><ele>1040.0</ele><time>2026-05-03T08:03:20.745Z</time></trkpt><trkpt lat="42.3318283" lon="13.5950117"><ele>1039.3333333333333</ele><time>2026-05-03T08:03:22.746Z</time></trkpt><trkpt lat="42.3318617" lon="13.595085"><ele>1038.6666666666667</ele><time>2026-05-03T08:03:23.746Z</time></trkpt><trkpt lat="42.3318867" lon="13.5951833"><ele>1038.0</ele><time>2026-05-03T08:03:24.745Z</time></trkpt><trkpt lat="42.3319017" lon="13.5953017"><ele>1037.5</ele><time>2026-05-03T08:03:25.746Z</time></trkpt><trkpt lat="42.3319017" lon="13.595415"><ele>1037.0</ele><time>2026-05-03T08:03:26.746Z</time></trkpt><trkpt lat="42.33191" lon="13.59552"><ele>1036.5</ele><time>2026-05-03T08:03:27.745Z</time></trkpt><trkpt lat="42.3319183" lon="13.595625"><ele>1036.0</ele><time>2026-05-03T08:03:28.745Z</time></trkpt><trkpt lat="42.331925" lon="13.59571"><ele>1035.5</ele><time>2026-05-03T08:03:29.746Z</time></trkpt><trkpt lat="42.3318817" lon="13.5958517"><ele>1035.0</ele><time>2026-05-03T08:03:31.746Z</time></trkpt><trkpt lat="42.331835" lon="13.5959183"><ele>1035.0</ele><time>2026-05-03T08:03:32.746Z</time></trkpt><trkpt lat="42.3317683" lon="13.5959967"><ele>1035.0</ele><time>2026-05-03T08:03:33.746Z</time></trkpt><trkpt lat="42.3317133" lon="13.59609"><ele>1035.0</ele><time>2026-05-03T08:03:34.745Z</time></trkpt><trkpt lat="42.3316567" lon="13.5961783"><ele>1035.0</ele><time>2026-05-03T08:03:35.746Z</time></trkpt><trkpt lat="42.331605" lon="13.5962467"><ele>1035.0</ele><time>2026-05-03T08:03:36.746Z</time></trkpt><trkpt lat="42.3315417" lon="13.5962667"><ele>1035.0</ele><time>2026-05-03T08:03:37.746Z</time></trkpt><trkpt lat="42.3314217" lon="13.5962067"><ele>1034.1666666666667</ele><time>2026-05-03T08:03:39.746Z</time></trkpt><trkpt lat="42.3313617" lon="13.5961733"><ele>1033.3333333333333</ele><time>2026-05-03T08:03:40.745Z</time></trkpt><trkpt lat="42.3312883" lon="13.596155"><ele>1032.5</ele><time>2026-05-03T08:03:41.745Z</time></trkpt><trkpt lat="42.3312133" lon="13.5961583"><ele>1031.6666666666665</ele><time>2026-05-03T08:03:42.745Z</time></trkpt><trkpt lat="42.33113" lon="13.5961767"><ele>1030.8333333333333</ele><time>2026-05-03T08:03:43.745Z</time></trkpt><trkpt lat="42.33105" lon="13.596205"><ele>1030.0</ele><time>2026-05-03T08:03:44.744Z</time></trkpt><trkpt lat="42.33098" lon="13.596255"><ele>1029.5</ele><time>2026-05-03T08:03:45.745Z</time></trkpt><trkpt lat="42.3309133" lon="13.5963167"><ele>1029.0</ele><time>2026-05-03T08:03:46.744Z</time></trkpt><trkpt lat="42.33086" lon="13.5964017"><ele>1028.5</ele><time>2026-05-03T08:03:47.744Z</time></trkpt><trkpt lat="42.3308167" lon="13.5964967"><ele>1028.0</ele><time>2026-05-03T08:03:48.744Z</time></trkpt><trkpt lat="42.330775" lon="13.5965833"><ele>1027.5</ele><time>2026-05-03T08:03:49.745Z</time></trkpt><trkpt lat="42.3307433" lon="13.5966733"><ele>1027.0</ele><time>2026-05-03T08:03:50.745Z</time></trkpt><trkpt lat="42.330715" lon="13.5967683"><ele>1027.0</ele><time>2026-05-03T08:03:51.745Z</time></trkpt><trkpt lat="42.3306933" lon="13.596875"><ele>1027.0</ele><time>2026-05-03T08:03:52.744Z</time></trkpt><trkpt lat="42.3306817" lon="13.5969933"><ele>1027.0</ele><time>2026-05-03T08:03:53.745Z</time></trkpt><trkpt lat="42.3306683" lon="13.5971033"><ele>1027.0</ele><time>2026-05-03T08:03:54.745Z</time></trkpt><trkpt lat="42.3306583" lon="13.5972167"><ele>1027.0</ele><time>2026-05-03T08:03:55.744Z</time></trkpt><trkpt lat="42.33064" lon="13.5973133"><ele>1027.0</ele><time>2026-05-03T08:03:56.745Z</time></trkpt><trkpt lat="42.3306083" lon="13.5973983"><ele>1026.5</ele><time>2026-05-03T08:03:57.744Z</time></trkpt><trkpt lat="42.33051" lon="13.5975"><ele>1026.0</ele><time>2026-05-03T08:03:59.745Z</time></trkpt><trkpt lat="42.330455" lon="13.5975483"><ele>1025.5</ele><time>2026-05-03T08:04:00.744Z</time></trkpt><trkpt lat="42.3304017" lon="13.5976117"><ele>1025.0</ele><time>2026-05-03T08:04:01.744Z</time></trkpt><trkpt lat="42.3303483" lon="13.5976867"><ele>1024.5</ele><time>2026-05-03T08:04:02.744Z</time></trkpt><trkpt lat="42.3302933" lon="13.5977617"><ele>1024.0</ele><time>2026-05-03T08:04:03.745Z</time></trkpt><trkpt lat="42.330235" lon="13.5978383"><ele>1023.9999999999999</ele><time>2026-05-03T08:04:04.745Z</time></trkpt><trkpt lat="42.33017" lon="13.5979"><ele>1024.0</ele><time>2026-05-03T08:04:05.745Z</time></trkpt><trkpt lat="42.3300967" lon="13.5979467"><ele>1024.0</ele><time>2026-05-03T08:04:06.745Z</time></trkpt><trkpt lat="42.33002" lon="13.597985"><ele>1024.0</ele><time>2026-05-03T08:04:07.745Z</time></trkpt><trkpt lat="42.3299383" lon="13.5980133"><ele>1023.9999999999999</ele><time>2026-05-03T08:04:08.745Z</time></trkpt><trkpt lat="42.329855" lon="13.5980383"><ele>1024.0</ele><time>2026-05-03T08:04:09.745Z</time></trkpt><trkpt lat="42.3297783" lon="13.5980967"><ele>1022.8000000000001</ele><time>2026-05-03T08:04:10.745Z</time></trkpt><trkpt lat="42.3296983" lon="13.5981617"><ele>1021.6000000000001</ele><time>2026-05-03T08:04:11.745Z</time></trkpt><trkpt lat="42.32962" lon="13.598225"><ele>1020.4</ele><time>2026-05-03T08:04:12.745Z</time></trkpt><trkpt lat="42.3295433" lon="13.5982883"><ele>1019.2</ele><time>2026-05-03T08:04:13.745Z</time></trkpt><trkpt lat="42.3294767" lon="13.5983633"><ele>1018.0</ele><time>2026-05-03T08:04:14.745Z</time></trkpt><trkpt lat="42.3294133" lon="13.5984533"><ele>1017.9999999999999</ele><time>2026-05-03T08:04:15.745Z</time></trkpt><trkpt lat="42.3293467" lon="13.5985417"><ele>1018.0</ele><time>2026-05-03T08:04:16.745Z</time></trkpt><trkpt lat="42.32929" lon="13.5986"><ele>1017.9999999999999</ele><time>2026-05-03T08:04:17.745Z</time></trkpt><trkpt lat="42.3292283" lon="13.5986317"><ele>1017.9999999999999</ele><time>2026-05-03T08:04:18.744Z</time></trkpt><trkpt lat="42.329165" lon="13.5986483"><ele>1018.0</ele><time>2026-05-03T08:04:19.744Z</time></trkpt><trkpt lat="42.3290917" lon="13.598685"><ele>1017.9999999999999</ele><time>2026-05-03T08:04:20.744Z</time></trkpt><trkpt lat="42.3290267" lon="13.598735"><ele>1017.9999999999999</ele><time>2026-05-03T08:04:21.745Z</time></trkpt><trkpt lat="42.3289733" lon="13.5988033"><ele>1017.6666666666666</ele><time>2026-05-03T08:04:22.744Z</time></trkpt><trkpt lat="42.3289233" lon="13.598875"><ele>1017.3333333333333</ele><time>2026-05-03T08:04:23.744Z</time></trkpt><trkpt lat="42.3288767" lon="13.5989533"><ele>1017.0</ele><time>2026-05-03T08:04:24.744Z</time></trkpt><trkpt lat="42.3288233" lon="13.599035"><ele>1016.6666666666667</ele><time>2026-05-03T08:04:25.745Z</time></trkpt><trkpt lat="42.3287717" lon="13.5991117"><ele>1016.3333333333334</ele><time>2026-05-03T08:04:26.744Z</time></trkpt><trkpt lat="42.3287183" lon="13.5991867"><ele>1016.0</ele><time>2026-05-03T08:04:27.744Z</time></trkpt><trkpt lat="42.32868" lon="13.599275"><ele>1016.0</ele><time>2026-05-03T08:04:28.745Z</time></trkpt><trkpt lat="42.32864" lon="13.5993583"><ele>1015.9999999999999</ele><time>2026-05-03T08:04:29.744Z</time></trkpt><trkpt lat="42.3286017" lon="13.5994283"><ele>1015.9999999999999</ele><time>2026-05-03T08:04:30.744Z</time></trkpt><trkpt lat="42.3285333" lon="13.5995417"><ele>1016.0</ele><time>2026-05-03T08:04:32.744Z</time></trkpt><trkpt lat="42.3284583" lon="13.5996233"><ele>1016.0</ele><time>2026-05-03T08:04:34.745Z</time></trkpt><trkpt lat="42.3283617" lon="13.599715"><ele>1016.5000000000001</ele><time>2026-05-03T08:04:36.745Z</time></trkpt><trkpt lat="42.32826" lon="13.5998083"><ele>1017.0</ele><time>2026-05-03T08:04:38.745Z</time></trkpt><trkpt lat="42.3282033" lon="13.5998667"><ele>1017.5</ele><time>2026-05-03T08:04:39.744Z</time></trkpt><trkpt lat="42.3281467" lon="13.5999267"><ele>1018.0</ele><time>2026-05-03T08:04:40.744Z</time></trkpt><trkpt lat="42.3281" lon="13.5999967"><ele>1018.5000000000001</ele><time>2026-05-03T08:04:41.744Z</time></trkpt><trkpt lat="42.3280583" lon="13.6000733"><ele>1019.0</ele><time>2026-05-03T08:04:42.745Z</time></trkpt><trkpt lat="42.32803" lon="13.6001533"><ele>1019.0000000000001</ele><time>2026-05-03T08:04:43.744Z</time></trkpt><trkpt lat="42.327995" lon="13.600235"><ele>1019.0</ele><time>2026-05-03T08:04:44.745Z</time></trkpt><trkpt lat="42.32796" lon="13.6003067"><ele>1019.0000000000001</ele><time>2026-05-03T08:04:45.745Z</time></trkpt><trkpt lat="42.3279167" lon="13.60038"><ele>1019.0000000000001</ele><time>2026-05-03T08:04:46.745Z</time></trkpt><trkpt lat="42.3278683" lon="13.6004433"><ele>1019.0</ele><time>2026-05-03T08:04:47.744Z</time></trkpt><trkpt lat="42.3278167" lon="13.6004967"><ele>1019.0000000000001</ele><time>2026-05-03T08:04:48.745Z</time></trkpt><trkpt lat="42.327755" lon="13.6005667"><ele>1019.0000000000001</ele><time>2026-05-03T08:04:49.744Z</time></trkpt><trkpt lat="42.3277017" lon="13.60064"><ele>1018.8333333333334</ele><time>2026-05-03T08:04:50.745Z</time></trkpt><trkpt lat="42.32765" lon="13.6007233"><ele>1018.6666666666667</ele><time>2026-05-03T08:04:51.745Z</time></trkpt><trkpt lat="42.3275917" lon="13.6008033"><ele>1018.5</ele><time>2026-05-03T08:04:52.744Z</time></trkpt><trkpt lat="42.327545" lon="13.6008883"><ele>1018.3333333333333</ele><time>2026-05-03T08:04:53.744Z</time></trkpt><trkpt lat="42.3275067" lon="13.6009817"><ele>1018.1666666666666</ele><time>2026-05-03T08:04:54.745Z</time></trkpt><trkpt lat="42.3274667" lon="13.6010683"><ele>1018.0</ele><time>2026-05-03T08:04:55.745Z</time></trkpt><trkpt lat="42.327425" lon="13.6011567"><ele>1017.8333333333333</ele><time>2026-05-03T08:04:56.745Z</time></trkpt><trkpt lat="42.3273717" lon="13.601255"><ele>1017.6666666666666</ele><time>2026-05-03T08:04:57.745Z</time></trkpt><trkpt lat="42.3273333" lon="13.6013383"><ele>1017.5</ele><time>2026-05-03T08:04:58.745Z</time></trkpt><trkpt lat="42.3272917" lon="13.601425"><ele>1017.3333333333333</ele><time>2026-05-03T08:04:59.745Z</time></trkpt><trkpt lat="42.3272483" lon="13.6015167"><ele>1017.1666666666666</ele><time>2026-05-03T08:05:00.745Z</time></trkpt><trkpt lat="42.32721" lon="13.601615"><ele>1017.0</ele><time>2026-05-03T08:05:01.744Z</time></trkpt><trkpt lat="42.32717" lon="13.601695"><ele>1017.0</ele><time>2026-05-03T08:05:02.745Z</time></trkpt><trkpt lat="42.3271267" lon="13.6017833"><ele>1017.0</ele><time>2026-05-03T08:05:03.744Z</time></trkpt><trkpt lat="42.3270783" lon="13.6018883"><ele>1017.0</ele><time>2026-05-03T08:05:04.745Z</time></trkpt><trkpt lat="42.3270383" lon="13.6019967"><ele>1017.0</ele><time>2026-05-03T08:05:05.745Z</time></trkpt><trkpt lat="42.3270017" lon="13.6021067"><ele>1017.0</ele><time>2026-05-03T08:05:06.745Z</time></trkpt><trkpt lat="42.32697" lon="13.6022183"><ele>1017.0</ele><time>2026-05-03T08:05:07.745Z</time></trkpt><trkpt lat="42.3269433" lon="13.6023333"><ele>1017.0</ele><time>2026-05-03T08:05:08.745Z</time></trkpt><trkpt lat="42.326915" lon="13.60245"><ele>1017.0</ele><time>2026-05-03T08:05:09.745Z</time></trkpt><trkpt lat="42.3268917" lon="13.6025733"><ele>1017.0</ele><time>2026-05-03T08:05:10.744Z</time></trkpt><trkpt lat="42.32686" lon="13.6026817"><ele>1017.0</ele><time>2026-05-03T08:05:11.744Z</time></trkpt><trkpt lat="42.326825" lon="13.6027817"><ele>1017.0</ele><time>2026-05-03T08:05:12.745Z</time></trkpt><trkpt lat="42.3267683" lon="13.6028717"><ele>1017.0</ele><time>2026-05-03T08:05:13.745Z</time></trkpt><trkpt lat="42.3267217" lon="13.6029683"><ele>1017.0</ele><time>2026-05-03T08:05:14.744Z</time></trkpt><trkpt lat="42.3266683" lon="13.6030683"><ele>1017.0</ele><time>2026-05-03T08:05:15.745Z</time></trkpt><trkpt lat="42.3266133" lon="13.60316"><ele>1017.0</ele><time>2026-05-03T08:05:16.745Z</time></trkpt><trkpt lat="42.32656" lon="13.6032417"><ele>1017.0</ele><time>2026-05-03T08:05:17.745Z</time></trkpt><trkpt lat="42.3264967" lon="13.6033217"><ele>1017.0</ele><time>2026-05-03T08:05:18.745Z</time></trkpt><trkpt lat="42.3264367" lon="13.603395"><ele>1017.0</ele><time>2026-05-03T08:05:19.744Z</time></trkpt><trkpt lat="42.3263783" lon="13.6034733"><ele>1016.1666666666666</ele><time>2026-05-03T08:05:20.745Z</time></trkpt><trkpt lat="42.3263067" lon="13.603555"><ele>1015.3333333333333</ele><time>2026-05-03T08:05:21.745Z</time></trkpt><trkpt lat="42.3262483" lon="13.6036333"><ele>1014.5</ele><time>2026-05-03T08:05:22.744Z</time></trkpt><trkpt lat="42.3261933" lon="13.60371"><ele>1013.6666666666666</ele><time>2026-05-03T08:05:23.745Z</time></trkpt><trkpt lat="42.32614" lon="13.6037717"><ele>1012.8333333333333</ele><time>2026-05-03T08:05:24.745Z</time></trkpt><trkpt lat="42.326085" lon="13.60385"><ele>1012.0</ele><time>2026-05-03T08:05:25.744Z</time></trkpt><trkpt lat="42.32603" lon="13.603925"><ele>1012.0000000000001</ele><time>2026-05-03T08:05:26.745Z</time></trkpt><trkpt lat="42.3259717" lon="13.6040033"><ele>1012.0</ele><time>2026-05-03T08:05:27.745Z</time></trkpt><trkpt lat="42.32593" lon="13.604085"><ele>1012.0000000000001</ele><time>2026-05-03T08:05:28.745Z</time></trkpt><trkpt lat="42.325885" lon="13.604165"><ele>1012.0000000000001</ele><time>2026-05-03T08:05:29.745Z</time></trkpt><trkpt lat="42.3258383" lon="13.6042483"><ele>1012.0</ele><time>2026-05-03T08:05:30.744Z</time></trkpt><trkpt lat="42.3258067" lon="13.6043317"><ele>1012.0000000000001</ele><time>2026-05-03T08:05:31.745Z</time></trkpt><trkpt lat="42.3257767" lon="13.60442"><ele>1012.0000000000001</ele><time>2026-05-03T08:05:32.745Z</time></trkpt><trkpt lat="42.3257133" lon="13.604475"><ele>1011.8333333333333</ele><time>2026-05-03T08:05:33.744Z</time></trkpt><trkpt lat="42.32565" lon="13.60455"><ele>1011.6666666666666</ele><time>2026-05-03T08:05:34.745Z</time></trkpt><trkpt lat="42.3255817" lon="13.6046167"><ele>1011.5</ele><time>2026-05-03T08:05:35.744Z</time></trkpt><trkpt lat="42.3255267" lon="13.60471"><ele>1011.3333333333333</ele><time>2026-05-03T08:05:36.744Z</time></trkpt><trkpt lat="42.3254767" lon="13.604815"><ele>1011.1666666666666</ele><time>2026-05-03T08:05:37.745Z</time></trkpt><trkpt lat="42.3254383" lon="13.604925"><ele>1011.0</ele><time>2026-05-03T08:05:38.745Z</time></trkpt><trkpt lat="42.325385" lon="13.605025"><ele>1011.0</ele><time>2026-05-03T08:05:39.745Z</time></trkpt><trkpt lat="42.325325" lon="13.6051117"><ele>1011.0</ele><time>2026-05-03T08:05:40.744Z</time></trkpt><trkpt lat="42.3252767" lon="13.6052017"><ele>1011.0</ele><time>2026-05-03T08:05:41.745Z</time></trkpt><trkpt lat="42.3252317" lon="13.6053017"><ele>1011.0</ele><time>2026-05-03T08:05:42.745Z</time></trkpt><trkpt lat="42.32519" lon="13.605415"><ele>1011.0</ele><time>2026-05-03T08:05:43.744Z</time></trkpt><trkpt lat="42.325155" lon="13.605535"><ele>1011.0</ele><time>2026-05-03T08:05:44.745Z</time></trkpt><trkpt lat="42.3251167" lon="13.6056567"><ele>1010.0</ele><time>2026-05-03T08:05:45.745Z</time></trkpt><trkpt lat="42.3250833" lon="13.6057633"><ele>1009.0</ele><time>2026-05-03T08:05:46.744Z</time></trkpt><trkpt lat="42.3250533" lon="13.6058567"><ele>1008.0</ele><time>2026-05-03T08:05:47.745Z</time></trkpt><trkpt lat="42.3250283" lon="13.60594"><ele>1007.0</ele><time>2026-05-03T08:05:48.745Z</time></trkpt><trkpt lat="42.32501" lon="13.6060233"><ele>1006.0</ele><time>2026-05-03T08:05:49.745Z</time></trkpt><trkpt lat="42.3250067" lon="13.60611"><ele>1005.0</ele><time>2026-05-03T08:05:50.745Z</time></trkpt><trkpt lat="42.3249933" lon="13.606245"><ele>1005.0</ele><time>2026-05-03T08:05:52.744Z</time></trkpt><trkpt lat="42.324945" lon="13.60635"><ele>1005.0</ele><time>2026-05-03T08:05:54.744Z</time></trkpt><trkpt lat="42.32489" lon="13.6064067"><ele>1005.0</ele><time>2026-05-03T08:05:55.744Z</time></trkpt><trkpt lat="42.324825" lon="13.6064783"><ele>1005.0</ele><time>2026-05-03T08:05:56.744Z</time></trkpt><trkpt lat="42.324755" lon="13.6065283"><ele>1005.0</ele><time>2026-05-03T08:05:57.745Z</time></trkpt><trkpt lat="42.3247033" lon="13.6065817"><ele>1005.0</ele><time>2026-05-03T08:05:58.745Z</time></trkpt><trkpt lat="42.3246483" lon="13.6066367"><ele>1004.2</ele><time>2026-05-03T08:05:59.745Z</time></trkpt><trkpt lat="42.3245667" lon="13.6067367"><ele>1003.4</ele><time>2026-05-03T08:06:01.745Z</time></trkpt><trkpt lat="42.3244567" lon="13.6068117"><ele>1002.5999999999999</ele><time>2026-05-03T08:06:03.744Z</time></trkpt><trkpt lat="42.3243983" lon="13.606855"><ele>1001.8</ele><time>2026-05-03T08:06:04.745Z</time></trkpt><trkpt lat="42.3243033" lon="13.6069467"><ele>1001.0</ele><time>2026-05-03T08:06:06.744Z</time></trkpt><trkpt lat="42.3242133" lon="13.6070167"><ele>999.0</ele><time>2026-05-03T08:06:08.745Z</time></trkpt><trkpt lat="42.3241267" lon="13.60714"><ele>996.9999999999999</ele><time>2026-05-03T08:06:10.745Z</time></trkpt><trkpt lat="42.32408" lon="13.6072033"><ele>994.9999999999999</ele><time>2026-05-03T08:06:11.744Z</time></trkpt><trkpt lat="42.3240333" lon="13.6072733"><ele>993.0</ele><time>2026-05-03T08:06:12.744Z</time></trkpt><trkpt lat="42.32395" lon="13.6073833"><ele>991.0</ele><time>2026-05-03T08:06:14.745Z</time></trkpt><trkpt lat="42.3238733" lon="13.6074883"><ele>990.6666666666666</ele><time>2026-05-03T08:06:16.745Z</time></trkpt><trkpt lat="42.3238317" lon="13.6076067"><ele>990.3333333333333</ele><time>2026-05-03T08:06:18.745Z</time></trkpt><trkpt lat="42.323825" lon="13.6077717"><ele>990.0</ele><time>2026-05-03T08:06:20.744Z</time></trkpt><trkpt lat="42.3238033" lon="13.6078617"><ele>989.6666666666667</ele><time>2026-05-03T08:06:21.744Z</time></trkpt><trkpt lat="42.3237767" lon="13.607955"><ele>989.3333333333334</ele><time>2026-05-03T08:06:22.745Z</time></trkpt><trkpt lat="42.3237433" lon="13.6080383"><ele>989.0</ele><time>2026-05-03T08:06:23.745Z</time></trkpt><trkpt lat="42.3237117" lon="13.608125"><ele>989.0000000000001</ele><time>2026-05-03T08:06:24.745Z</time></trkpt><trkpt lat="42.3236783" lon="13.6082083"><ele>989.0</ele><time>2026-05-03T08:06:25.744Z</time></trkpt><trkpt lat="42.323645" lon="13.6082983"><ele>989.0</ele><time>2026-05-03T08:06:26.744Z</time></trkpt><trkpt lat="42.3236067" lon="13.6083883"><ele>989.0</ele><time>2026-05-03T08:06:27.744Z</time></trkpt><trkpt lat="42.3235617" lon="13.60848"><ele>989.0000000000001</ele><time>2026-05-03T08:06:28.744Z</time></trkpt><trkpt lat="42.32352" lon="13.60858"><ele>989.0</ele><time>2026-05-03T08:06:29.744Z</time></trkpt><trkpt lat="42.3234783" lon="13.6086917"><ele>986.4000000000001</ele><time>2026-05-03T08:06:30.745Z</time></trkpt><trkpt lat="42.323435" lon="13.6088083"><ele>983.8000000000001</ele><time>2026-05-03T08:06:31.744Z</time></trkpt><trkpt lat="42.3233817" lon="13.6089217"><ele>981.1999999999999</ele><time>2026-05-03T08:06:32.745Z</time></trkpt><trkpt lat="42.3233283" lon="13.6090333"><ele>978.5999999999999</ele><time>2026-05-03T08:06:33.745Z</time></trkpt><trkpt lat="42.3232783" lon="13.6091383"><ele>976.0</ele><time>2026-05-03T08:06:34.745Z</time></trkpt><trkpt lat="42.3232283" lon="13.6092583"><ele>976.0</ele><time>2026-05-03T08:06:35.744Z</time></trkpt><trkpt lat="42.3231867" lon="13.6093833"><ele>975.9999999999999</ele><time>2026-05-03T08:06:36.744Z</time></trkpt><trkpt lat="42.32314" lon="13.6095033"><ele>975.9999999999999</ele><time>2026-05-03T08:06:37.745Z</time></trkpt><trkpt lat="42.3230867" lon="13.60961"><ele>976.0</ele><time>2026-05-03T08:06:38.744Z</time></trkpt><trkpt lat="42.323025" lon="13.6097083"><ele>976.0</ele><time>2026-05-03T08:06:39.745Z</time></trkpt><trkpt lat="42.322965" lon="13.6098033"><ele>976.0</ele><time>2026-05-03T08:06:40.745Z</time></trkpt><trkpt lat="42.3229" lon="13.6099067"><ele>975.9999999999999</ele><time>2026-05-03T08:06:41.745Z</time></trkpt><trkpt lat="42.322835" lon="13.6100133"><ele>975.9999999999999</ele><time>2026-05-03T08:06:42.745Z</time></trkpt><trkpt lat="42.3227667" lon="13.6101167"><ele>976.0</ele><time>2026-05-03T08:06:43.745Z</time></trkpt><trkpt lat="42.322705" lon="13.610215"><ele>976.0</ele><time>2026-05-03T08:06:44.745Z</time></trkpt><trkpt lat="42.322665" lon="13.6103217"><ele>974.1666666666666</ele><time>2026-05-03T08:06:45.744Z</time></trkpt><trkpt lat="42.3226183" lon="13.61044"><ele>972.3333333333333</ele><time>2026-05-03T08:06:46.745Z</time></trkpt><trkpt lat="42.322575" lon="13.610555"><ele>970.5</ele><time>2026-05-03T08:06:47.745Z</time></trkpt><trkpt lat="42.3225283" lon="13.61065"><ele>968.6666666666667</ele><time>2026-05-03T08:06:48.744Z</time></trkpt><trkpt lat="42.322485" lon="13.61073"><ele>966.8333333333334</ele><time>2026-05-03T08:06:49.745Z</time></trkpt><trkpt lat="42.322435" lon="13.6108033"><ele>965.0</ele><time>2026-05-03T08:06:50.745Z</time></trkpt><trkpt lat="42.3223767" lon="13.610875"><ele>965.0000000000001</ele><time>2026-05-03T08:06:51.745Z</time></trkpt><trkpt lat="42.3223183" lon="13.6109433"><ele>965.0</ele><time>2026-05-03T08:06:52.745Z</time></trkpt><trkpt lat="42.3222617" lon="13.6110033"><ele>965.0</ele><time>2026-05-03T08:06:53.744Z</time></trkpt><trkpt lat="42.3222" lon="13.61107"><ele>965.0</ele><time>2026-05-03T08:06:54.745Z</time></trkpt><trkpt lat="42.322155" lon="13.6111417"><ele>965.0000000000001</ele><time>2026-05-03T08:06:55.744Z</time></trkpt><trkpt lat="42.3221117" lon="13.6112133"><ele>965.0</ele><time>2026-05-03T08:06:56.745Z</time></trkpt><trkpt lat="42.3220117" lon="13.6113017"><ele>963.5000000000001</ele><time>2026-05-03T08:06:58.745Z</time></trkpt><trkpt lat="42.3219233" lon="13.6113417"><ele>962.0</ele><time>2026-05-03T08:07:00.745Z</time></trkpt><trkpt lat="42.3218367" lon="13.6114583"><ele>960.5</ele><time>2026-05-03T08:07:02.745Z</time></trkpt><trkpt lat="42.32179" lon="13.61154"><ele>959.0</ele><time>2026-05-03T08:07:03.744Z</time></trkpt><trkpt lat="42.32174" lon="13.611625"><ele>957.5000000000001</ele><time>2026-05-03T08:07:04.745Z</time></trkpt><trkpt lat="42.3216867" lon="13.6117"><ele>956.0</ele><time>2026-05-03T08:07:05.745Z</time></trkpt><trkpt lat="42.3216433" lon="13.6117983"><ele>956.0000000000001</ele><time>2026-05-03T08:07:06.745Z</time></trkpt><trkpt lat="42.3216133" lon="13.6119083"><ele>956.0</ele><time>2026-05-03T08:07:07.745Z</time></trkpt><trkpt lat="42.3215883" lon="13.6120283"><ele>956.0</ele><time>2026-05-03T08:07:08.745Z</time></trkpt><trkpt lat="42.3215617" lon="13.6121483"><ele>956.0</ele><time>2026-05-03T08:07:09.745Z</time></trkpt><trkpt lat="42.32153" lon="13.6122617"><ele>956.0000000000001</ele><time>2026-05-03T08:07:10.744Z</time></trkpt><trkpt lat="42.3214867" lon="13.61236"><ele>956.0</ele><time>2026-05-03T08:07:11.745Z</time></trkpt><trkpt lat="42.321435" lon="13.6124517"><ele>954.3333333333334</ele><time>2026-05-03T08:07:12.744Z</time></trkpt><trkpt lat="42.32138" lon="13.6125267"><ele>952.6666666666667</ele><time>2026-05-03T08:07:13.745Z</time></trkpt><trkpt lat="42.3213267" lon="13.6126133"><ele>951.0</ele><time>2026-05-03T08:07:14.744Z</time></trkpt><trkpt lat="42.3212817" lon="13.612715"><ele>949.3333333333333</ele><time>2026-05-03T08:07:15.744Z</time></trkpt><trkpt lat="42.32123" lon="13.6128067"><ele>947.6666666666666</ele><time>2026-05-03T08:07:16.744Z</time></trkpt><trkpt lat="42.3211717" lon="13.6129117"><ele>946.0</ele><time>2026-05-03T08:07:17.744Z</time></trkpt><trkpt lat="42.3211083" lon="13.6130083"><ele>945.9999999999999</ele><time>2026-05-03T08:07:18.744Z</time></trkpt><trkpt lat="42.3210283" lon="13.6131033"><ele>946.0</ele><time>2026-05-03T08:07:19.744Z</time></trkpt><trkpt lat="42.320955" lon="13.61319"><ele>946.0</ele><time>2026-05-03T08:07:20.745Z</time></trkpt><trkpt lat="42.3208933" lon="13.6132783"><ele>946.0</ele><time>2026-05-03T08:07:21.745Z</time></trkpt><trkpt lat="42.320835" lon="13.61335"><ele>945.9999999999999</ele><time>2026-05-03T08:07:22.744Z</time></trkpt><trkpt lat="42.3207783" lon="13.6133933"><ele>946.0</ele><time>2026-05-03T08:07:23.745Z</time></trkpt><trkpt lat="42.3206867" lon="13.61339"><ele>946.0</ele><time>2026-05-03T08:07:25.745Z</time></trkpt><trkpt lat="42.3206067" lon="13.6132617"><ele>945.9999999999999</ele><time>2026-05-03T08:07:27.744Z</time></trkpt><trkpt lat="42.3205267" lon="13.6131383"><ele>945.9999999999999</ele><time>2026-05-03T08:07:29.744Z</time></trkpt><trkpt lat="42.320465" lon="13.613115"><ele>946.0</ele><time>2026-05-03T08:07:31.744Z</time></trkpt><trkpt lat="42.32044" lon="13.6132383"><ele>946.0</ele><time>2026-05-03T08:07:33.745Z</time></trkpt><trkpt lat="42.3203917" lon="13.6133883"><ele>946.4999999999999</ele><time>2026-05-03T08:07:35.744Z</time></trkpt><trkpt lat="42.3203417" lon="13.6134783"><ele>947.0</ele><time>2026-05-03T08:07:36.745Z</time></trkpt><trkpt lat="42.3202933" lon="13.6135683"><ele>947.5</ele><time>2026-05-03T08:07:37.744Z</time></trkpt><trkpt lat="42.3202567" lon="13.6136633"><ele>948.0</ele><time>2026-05-03T08:07:38.745Z</time></trkpt><trkpt lat="42.3202283" lon="13.6137667"><ele>948.4999999999999</ele><time>2026-05-03T08:07:39.744Z</time></trkpt><trkpt lat="42.320205" lon="13.6138717"><ele>949.0</ele><time>2026-05-03T08:07:40.744Z</time></trkpt><trkpt lat="42.3201867" lon="13.6139867"><ele>948.9999999999999</ele><time>2026-05-03T08:07:41.745Z</time></trkpt><trkpt lat="42.3201683" lon="13.6141017"><ele>949.0</ele><time>2026-05-03T08:07:42.745Z</time></trkpt><trkpt lat="42.3201383" lon="13.6141983"><ele>949.0</ele><time>2026-05-03T08:07:43.744Z</time></trkpt><trkpt lat="42.3200967" lon="13.6142917"><ele>949.0</ele><time>2026-05-03T08:07:44.745Z</time></trkpt><trkpt lat="42.32004" lon="13.614375"><ele>948.9999999999999</ele><time>2026-05-03T08:07:45.744Z</time></trkpt><trkpt lat="42.3199833" lon="13.6144317"><ele>949.0</ele><time>2026-05-03T08:07:46.745Z</time></trkpt><trkpt lat="42.319935" lon="13.6144917"><ele>948.6666666666666</ele><time>2026-05-03T08:07:47.745Z</time></trkpt><trkpt lat="42.3198917" lon="13.6145567"><ele>948.3333333333333</ele><time>2026-05-03T08:07:48.744Z</time></trkpt><trkpt lat="42.3198567" lon="13.6146367"><ele>948.0</ele><time>2026-05-03T08:07:49.745Z</time></trkpt><trkpt lat="42.3198167" lon="13.6147383"><ele>947.6666666666667</ele><time>2026-05-03T08:07:50.744Z</time></trkpt><trkpt lat="42.319765" lon="13.6148467"><ele>947.3333333333334</ele><time>2026-05-03T08:07:51.745Z</time></trkpt><trkpt lat="42.3196967" lon="13.6149767"><ele>947.0</ele><time>2026-05-03T08:07:52.745Z</time></trkpt><trkpt lat="42.3196267" lon="13.6151183"><ele>948.3333333333334</ele><time>2026-05-03T08:07:53.745Z</time></trkpt><trkpt lat="42.3195717" lon="13.6152383"><ele>949.6666666666667</ele><time>2026-05-03T08:07:54.745Z</time></trkpt><trkpt lat="42.3195233" lon="13.61534"><ele>951.0</ele><time>2026-05-03T08:07:55.744Z</time></trkpt><trkpt lat="42.3194767" lon="13.615425"><ele>952.3333333333333</ele><time>2026-05-03T08:07:56.745Z</time></trkpt><trkpt lat="42.3194283" lon="13.6154983"><ele>953.6666666666666</ele><time>2026-05-03T08:07:57.745Z</time></trkpt><trkpt lat="42.3193717" lon="13.6155817"><ele>955.0</ele><time>2026-05-03T08:07:58.745Z</time></trkpt><trkpt lat="42.3193033" lon="13.615655"><ele>954.9999999999999</ele><time>2026-05-03T08:07:59.745Z</time></trkpt><trkpt lat="42.3192517" lon="13.6157233"><ele>955.0</ele><time>2026-05-03T08:08:00.744Z</time></trkpt><trkpt lat="42.3192033" lon="13.6157917"><ele>955.0</ele><time>2026-05-03T08:08:01.744Z</time></trkpt><trkpt lat="42.3191683" lon="13.615865"><ele>955.0</ele><time>2026-05-03T08:08:02.745Z</time></trkpt><trkpt lat="42.3191483" lon="13.61595"><ele>954.9999999999999</ele><time>2026-05-03T08:08:03.745Z</time></trkpt><trkpt lat="42.3191117" lon="13.616105"><ele>955.0</ele><time>2026-05-03T08:08:05.745Z</time></trkpt><trkpt lat="42.3190783" lon="13.6161867"><ele>954.8333333333333</ele><time>2026-05-03T08:08:06.745Z</time></trkpt><trkpt lat="42.3190383" lon="13.6162783"><ele>954.6666666666666</ele><time>2026-05-03T08:08:07.745Z</time></trkpt><trkpt lat="42.3189983" lon="13.616375"><ele>954.5</ele><time>2026-05-03T08:08:08.744Z</time></trkpt><trkpt lat="42.3189467" lon="13.6164633"><ele>954.3333333333333</ele><time>2026-05-03T08:08:09.744Z</time></trkpt><trkpt lat="42.3188933" lon="13.6165383"><ele>954.1666666666666</ele><time>2026-05-03T08:08:10.745Z</time></trkpt><trkpt lat="42.318835" lon="13.616615"><ele>954.0</ele><time>2026-05-03T08:08:11.744Z</time></trkpt><trkpt lat="42.3187767" lon="13.6166783"><ele>954.8333333333334</ele><time>2026-05-03T08:08:12.745Z</time></trkpt><trkpt lat="42.3187133" lon="13.6167333"><ele>955.6666666666667</ele><time>2026-05-03T08:08:13.744Z</time></trkpt><trkpt lat="42.3186533" lon="13.6167717"><ele>956.5</ele><time>2026-05-03T08:08:14.744Z</time></trkpt><trkpt lat="42.31858" lon="13.6168767"><ele>957.3333333333334</ele><time>2026-05-03T08:08:16.744Z</time></trkpt><trkpt lat="42.318505" lon="13.617015"><ele>958.1666666666667</ele><time>2026-05-03T08:08:18.744Z</time></trkpt><trkpt lat="42.3184467" lon="13.6170767"><ele>959.0</ele><time>2026-05-03T08:08:19.743Z</time></trkpt><trkpt lat="42.3183817" lon="13.617125"><ele>959.0000000000001</ele><time>2026-05-03T08:08:20.744Z</time></trkpt><trkpt lat="42.3183117" lon="13.6171917"><ele>959.0</ele><time>2026-05-03T08:08:21.744Z</time></trkpt><trkpt lat="42.3182317" lon="13.6172517"><ele>959.0</ele><time>2026-05-03T08:08:22.744Z</time></trkpt><trkpt lat="42.318155" lon="13.6173217"><ele>959.0</ele><time>2026-05-03T08:08:23.744Z</time></trkpt><trkpt lat="42.31808" lon="13.6173883"><ele>959.0000000000001</ele><time>2026-05-03T08:08:24.744Z</time></trkpt><trkpt lat="42.3180017" lon="13.6174417"><ele>959.0</ele><time>2026-05-03T08:08:25.744Z</time></trkpt><trkpt lat="42.31793" lon="13.617495"><ele>959.5000000000001</ele><time>2026-05-03T08:08:26.743Z</time></trkpt><trkpt lat="42.3178483" lon="13.6175533"><ele>960.0</ele><time>2026-05-03T08:08:27.743Z</time></trkpt><trkpt lat="42.3177683" lon="13.61762"><ele>960.5</ele><time>2026-05-03T08:08:28.744Z</time></trkpt><trkpt lat="42.3176967" lon="13.6177067"><ele>961.0</ele><time>2026-05-03T08:08:29.744Z</time></trkpt><trkpt lat="42.3176267" lon="13.6177717"><ele>961.5000000000001</ele><time>2026-05-03T08:08:30.743Z</time></trkpt><trkpt lat="42.3175633" lon="13.6178333"><ele>962.0</ele><time>2026-05-03T08:08:31.744Z</time></trkpt><trkpt lat="42.3175033" lon="13.6179117"><ele>962.0</ele><time>2026-05-03T08:08:32.743Z</time></trkpt><trkpt lat="42.317445" lon="13.6179817"><ele>962.0</ele><time>2026-05-03T08:08:33.743Z</time></trkpt><trkpt lat="42.3173767" lon="13.61806"><ele>962.0</ele><time>2026-05-03T08:08:34.744Z</time></trkpt><trkpt lat="42.3172983" lon="13.6181367"><ele>962.0</ele><time>2026-05-03T08:08:35.744Z</time></trkpt><trkpt lat="42.3172133" lon="13.61821"><ele>962.0</ele><time>2026-05-03T08:08:36.743Z</time></trkpt><trkpt lat="42.31713" lon="13.6182867"><ele>963.4000000000001</ele><time>2026-05-03T08:08:37.744Z</time></trkpt><trkpt lat="42.3170533" lon="13.6183667"><ele>964.8000000000001</ele><time>2026-05-03T08:08:38.744Z</time></trkpt><trkpt lat="42.3169767" lon="13.6184533"><ele>966.2</ele><time>2026-05-03T08:08:39.743Z</time></trkpt><trkpt lat="42.3169" lon="13.61854"><ele>967.6</ele><time>2026-05-03T08:08:40.743Z</time></trkpt><trkpt lat="42.316815" lon="13.61861"><ele>969.0</ele><time>2026-05-03T08:08:41.744Z</time></trkpt><trkpt lat="42.3167417" lon="13.6186833"><ele>969.0</ele><time>2026-05-03T08:08:42.743Z</time></trkpt><trkpt lat="42.3166667" lon="13.6187383"><ele>969.0</ele><time>2026-05-03T08:08:43.743Z</time></trkpt><trkpt lat="42.3165983" lon="13.6188017"><ele>969.0</ele><time>2026-05-03T08:08:44.743Z</time></trkpt><trkpt lat="42.3165383" lon="13.6188633"><ele>969.0</ele><time>2026-05-03T08:08:45.744Z</time></trkpt><trkpt lat="42.3164767" lon="13.618925"><ele>969.0</ele><time>2026-05-03T08:08:46.744Z</time></trkpt><trkpt lat="42.3164117" lon="13.6189817"><ele>969.0</ele><time>2026-05-03T08:08:47.743Z</time></trkpt><trkpt lat="42.3163583" lon="13.6190417"><ele>970.4285714285713</ele><time>2026-05-03T08:08:48.744Z</time></trkpt><trkpt lat="42.316315" lon="13.6191067"><ele>971.8571428571429</ele><time>2026-05-03T08:08:49.744Z</time></trkpt><trkpt lat="42.316275" lon="13.6191817"><ele>973.2857142857142</ele><time>2026-05-03T08:08:50.744Z</time></trkpt><trkpt lat="42.3162467" lon="13.6192617"><ele>974.7142857142857</ele><time>2026-05-03T08:08:51.743Z</time></trkpt><trkpt lat="42.31623" lon="13.61936"><ele>976.1428571428571</ele><time>2026-05-03T08:08:52.743Z</time></trkpt><trkpt lat="42.3162217" lon="13.61945"><ele>977.5714285714286</ele><time>2026-05-03T08:08:53.743Z</time></trkpt><trkpt lat="42.3162133" lon="13.6195383"><ele>979.0</ele><time>2026-05-03T08:08:54.744Z</time></trkpt><trkpt lat="42.3162133" lon="13.6196317"><ele>979.0</ele><time>2026-05-03T08:08:55.744Z</time></trkpt><trkpt lat="42.3161867" lon="13.619775"><ele>979.0000000000001</ele><time>2026-05-03T08:08:57.744Z</time></trkpt><trkpt lat="42.3161083" lon="13.619845"><ele>979.0000000000001</ele><time>2026-05-03T08:08:59.744Z</time></trkpt><trkpt lat="42.31601" lon="13.61992"><ele>979.0</ele><time>2026-05-03T08:09:01.744Z</time></trkpt><trkpt lat="42.3159567" lon="13.6199683"><ele>979.0</ele><time>2026-05-03T08:09:02.744Z</time></trkpt><trkpt lat="42.3158967" lon="13.620035"><ele>978.9999999999999</ele><time>2026-05-03T08:09:03.743Z</time></trkpt><trkpt lat="42.31584" lon="13.6201033"><ele>979.0</ele><time>2026-05-03T08:09:04.744Z</time></trkpt><trkpt lat="42.3157933" lon="13.620175"><ele>979.0</ele><time>2026-05-03T08:09:05.744Z</time></trkpt><trkpt lat="42.3157483" lon="13.6202483"><ele>979.0</ele><time>2026-05-03T08:09:06.744Z</time></trkpt><trkpt lat="42.3156683" lon="13.6203767"><ele>978.9999999999999</ele><time>2026-05-03T08:09:08.744Z</time></trkpt><trkpt lat="42.3155783" lon="13.6204467"><ele>979.0</ele><time>2026-05-03T08:09:10.743Z</time></trkpt><trkpt lat="42.3154933" lon="13.6204433"><ele>979.1666666666666</ele><time>2026-05-03T08:09:12.744Z</time></trkpt><trkpt lat="42.3153883" lon="13.6205133"><ele>979.3333333333333</ele><time>2026-05-03T08:09:14.744Z</time></trkpt><trkpt lat="42.315335" lon="13.620585"><ele>979.5</ele><time>2026-05-03T08:09:15.744Z</time></trkpt><trkpt lat="42.3152767" lon="13.620665"><ele>979.6666666666667</ele><time>2026-05-03T08:09:16.743Z</time></trkpt><trkpt lat="42.3152217" lon="13.6207517"><ele>979.8333333333334</ele><time>2026-05-03T08:09:17.744Z</time></trkpt><trkpt lat="42.3151583" lon="13.6208283"><ele>980.0</ele><time>2026-05-03T08:09:18.743Z</time></trkpt><trkpt lat="42.315085" lon="13.6208967"><ele>980.0000000000001</ele><time>2026-05-03T08:09:19.743Z</time></trkpt><trkpt lat="42.315005" lon="13.62095"><ele>980.0</ele><time>2026-05-03T08:09:20.744Z</time></trkpt><trkpt lat="42.3149233" lon="13.6210017"><ele>980.0</ele><time>2026-05-03T08:09:21.744Z</time></trkpt><trkpt lat="42.3148417" lon="13.6210467"><ele>980.0</ele><time>2026-05-03T08:09:22.744Z</time></trkpt><trkpt lat="42.31476" lon="13.62108"><ele>980.0000000000001</ele><time>2026-05-03T08:09:23.744Z</time></trkpt><trkpt lat="42.3146833" lon="13.62113"><ele>980.0</ele><time>2026-05-03T08:09:24.744Z</time></trkpt><trkpt lat="42.3146083" lon="13.6211967"><ele>980.1666666666667</ele><time>2026-05-03T08:09:25.743Z</time></trkpt><trkpt lat="42.31453" lon="13.6212583"><ele>980.3333333333334</ele><time>2026-05-03T08:09:26.744Z</time></trkpt><trkpt lat="42.3144567" lon="13.6213233"><ele>980.5</ele><time>2026-05-03T08:09:27.744Z</time></trkpt><trkpt lat="42.3143933" lon="13.621375"><ele>980.6666666666667</ele><time>2026-05-03T08:09:28.743Z</time></trkpt><trkpt lat="42.3143283" lon="13.621425"><ele>980.8333333333334</ele><time>2026-05-03T08:09:29.743Z</time></trkpt><trkpt lat="42.3142583" lon="13.6214733"><ele>981.0</ele><time>2026-05-03T08:09:30.743Z</time></trkpt><trkpt lat="42.3141883" lon="13.621525"><ele>981.0</ele><time>2026-05-03T08:09:31.743Z</time></trkpt><trkpt lat="42.3141217" lon="13.621575"><ele>981.0</ele><time>2026-05-03T08:09:32.744Z</time></trkpt><trkpt lat="42.314065" lon="13.6216317"><ele>981.0</ele><time>2026-05-03T08:09:33.744Z</time></trkpt><trkpt lat="42.313985" lon="13.62173"><ele>981.0</ele><time>2026-05-03T08:09:35.743Z</time></trkpt><trkpt lat="42.31392" lon="13.62174"><ele>981.0</ele><time>2026-05-03T08:09:37.744Z</time></trkpt><trkpt lat="42.3138267" lon="13.621675"><ele>981.0</ele><time>2026-05-03T08:09:39.744Z</time></trkpt><trkpt lat="42.313705" lon="13.6216783"><ele>981.3333333333334</ele><time>2026-05-03T08:09:41.744Z</time></trkpt><trkpt lat="42.3135917" lon="13.621755"><ele>981.6666666666667</ele><time>2026-05-03T08:09:43.744Z</time></trkpt><trkpt lat="42.3135333" lon="13.6218033"><ele>982.0</ele><time>2026-05-03T08:09:44.744Z</time></trkpt><trkpt lat="42.3134783" lon="13.6218583"><ele>982.3333333333334</ele><time>2026-05-03T08:09:45.744Z</time></trkpt><trkpt lat="42.3134267" lon="13.6219083"><ele>982.6666666666667</ele><time>2026-05-03T08:09:46.743Z</time></trkpt><trkpt lat="42.313335" lon="13.6220117"><ele>983.0</ele><time>2026-05-03T08:09:48.744Z</time></trkpt><trkpt lat="42.313265" lon="13.6221333"><ele>983.0</ele><time>2026-05-03T08:09:50.743Z</time></trkpt><trkpt lat="42.3131683" lon="13.6222617"><ele>983.0</ele><time>2026-05-03T08:09:52.743Z</time></trkpt><trkpt lat="42.3131067" lon="13.62234"><ele>983.0</ele><time>2026-05-03T08:09:53.744Z</time></trkpt><trkpt lat="42.3130467" lon="13.62241"><ele>983.0</ele><time>2026-05-03T08:09:54.744Z</time></trkpt><trkpt lat="42.3129933" lon="13.622465"><ele>983.0</ele><time>2026-05-03T08:09:55.743Z</time></trkpt><trkpt lat="42.3129083" lon="13.6225367"><ele>984.5999999999999</ele><time>2026-05-03T08:09:57.744Z</time></trkpt><trkpt lat="42.3128183" lon="13.622625"><ele>986.1999999999999</ele><time>2026-05-03T08:09:59.743Z</time></trkpt><trkpt lat="42.3127683" lon="13.6226867"><ele>987.8</ele><time>2026-05-03T08:10:00.743Z</time></trkpt><trkpt lat="42.31269" lon="13.62282"><ele>989.4</ele><time>2026-05-03T08:10:02.744Z</time></trkpt><trkpt lat="42.3126567" lon="13.6228967"><ele>991.0</ele><time>2026-05-03T08:10:03.743Z</time></trkpt><trkpt lat="42.3126033" lon="13.623055"><ele>991.0</ele><time>2026-05-03T08:10:05.743Z</time></trkpt><trkpt lat="42.3125567" lon="13.6231883"><ele>990.9999999999999</ele><time>2026-05-03T08:10:07.743Z</time></trkpt><trkpt lat="42.3124783" lon="13.623255"><ele>990.9999999999999</ele><time>2026-05-03T08:10:09.743Z</time></trkpt><trkpt lat="42.312385" lon="13.6233467"><ele>991.0</ele><time>2026-05-03T08:10:11.743Z</time></trkpt><trkpt lat="42.31235" lon="13.62343"><ele>991.0</ele><time>2026-05-03T08:10:12.744Z</time></trkpt><trkpt lat="42.3123167" lon="13.6235067"><ele>990.3333333333333</ele><time>2026-05-03T08:10:13.743Z</time></trkpt><trkpt lat="42.3122467" lon="13.6236533"><ele>989.6666666666666</ele><time>2026-05-03T08:10:15.743Z</time></trkpt><trkpt lat="42.3122083" lon="13.623735"><ele>989.0</ele><time>2026-05-03T08:10:16.743Z</time></trkpt><trkpt lat="42.3121683" lon="13.62381"><ele>988.3333333333333</ele><time>2026-05-03T08:10:17.743Z</time></trkpt><trkpt lat="42.312125" lon="13.6238883"><ele>987.6666666666666</ele><time>2026-05-03T08:10:18.743Z</time></trkpt><trkpt lat="42.3120867" lon="13.6239567"><ele>987.0</ele><time>2026-05-03T08:10:19.744Z</time></trkpt><trkpt lat="42.3120183" lon="13.624095"><ele>988.0</ele><time>2026-05-03T08:10:21.744Z</time></trkpt><trkpt lat="42.311985" lon="13.62417"><ele>989.0</ele><time>2026-05-03T08:10:22.744Z</time></trkpt><trkpt lat="42.3119533" lon="13.62425"><ele>990.0</ele><time>2026-05-03T08:10:23.744Z</time></trkpt><trkpt lat="42.3119333" lon="13.6243333"><ele>991.0</ele><time>2026-05-03T08:10:24.744Z</time></trkpt><trkpt lat="42.3119033" lon="13.6244183"><ele>992.0</ele><time>2026-05-03T08:10:25.744Z</time></trkpt><trkpt lat="42.3118683" lon="13.6244967"><ele>993.0</ele><time>2026-05-03T08:10:26.744Z</time></trkpt><trkpt lat="42.3118417" lon="13.6245767"><ele>994.0</ele><time>2026-05-03T08:10:27.744Z</time></trkpt><trkpt lat="42.311795" lon="13.6246667"><ele>993.9999999999999</ele><time>2026-05-03T08:10:28.744Z</time></trkpt><trkpt lat="42.31175" lon="13.624745"><ele>994.0</ele><time>2026-05-03T08:10:29.744Z</time></trkpt><trkpt lat="42.3117" lon="13.62482"><ele>994.0</ele><time>2026-05-03T08:10:30.744Z</time></trkpt><trkpt lat="42.3116433" lon="13.6248833"><ele>994.0</ele><time>2026-05-03T08:10:31.743Z</time></trkpt><trkpt lat="42.31158" lon="13.62495"><ele>993.9999999999999</ele><time>2026-05-03T08:10:32.743Z</time></trkpt><trkpt lat="42.3115233" lon="13.6250233"><ele>994.0</ele><time>2026-05-03T08:10:33.744Z</time></trkpt><trkpt lat="42.311465" lon="13.6250933"><ele>993.9999999999999</ele><time>2026-05-03T08:10:34.743Z</time></trkpt><trkpt lat="42.3114083" lon="13.62518"><ele>994.0</ele><time>2026-05-03T08:10:35.744Z</time></trkpt><trkpt lat="42.3113467" lon="13.625265"><ele>994.0</ele><time>2026-05-03T08:10:36.743Z</time></trkpt><trkpt lat="42.3112983" lon="13.62536"><ele>994.0</ele><time>2026-05-03T08:10:37.743Z</time></trkpt><trkpt lat="42.311245" lon="13.6254717"><ele>993.9999999999999</ele><time>2026-05-03T08:10:38.743Z</time></trkpt><trkpt lat="42.3111967" lon="13.6255767"><ele>994.0</ele><time>2026-05-03T08:10:39.743Z</time></trkpt><trkpt lat="42.3111483" lon="13.6256717"><ele>995.3333333333333</ele><time>2026-05-03T08:10:40.743Z</time></trkpt><trkpt lat="42.3111083" lon="13.625765"><ele>996.6666666666666</ele><time>2026-05-03T08:10:41.744Z</time></trkpt><trkpt lat="42.3110817" lon="13.6258717"><ele>998.0</ele><time>2026-05-03T08:10:42.744Z</time></trkpt><trkpt lat="42.31105" lon="13.6259683"><ele>999.3333333333333</ele><time>2026-05-03T08:10:43.744Z</time></trkpt><trkpt lat="42.311015" lon="13.6260767"><ele>1000.6666666666666</ele><time>2026-05-03T08:10:44.744Z</time></trkpt><trkpt lat="42.3109833" lon="13.6261883"><ele>1002.0</ele><time>2026-05-03T08:10:45.744Z</time></trkpt><trkpt lat="42.31095" lon="13.6262917"><ele>1002.0</ele><time>2026-05-03T08:10:46.744Z</time></trkpt><trkpt lat="42.31091" lon="13.6263967"><ele>1002.0</ele><time>2026-05-03T08:10:47.744Z</time></trkpt><trkpt lat="42.3108583" lon="13.6264817"><ele>1002.0</ele><time>2026-05-03T08:10:48.744Z</time></trkpt><trkpt lat="42.3107933" lon="13.62656"><ele>1002.0</ele><time>2026-05-03T08:10:49.744Z</time></trkpt><trkpt lat="42.3107417" lon="13.6266433"><ele>1002.0</ele><time>2026-05-03T08:10:50.743Z</time></trkpt><trkpt lat="42.3106867" lon="13.62674"><ele>1002.0</ele><time>2026-05-03T08:10:51.743Z</time></trkpt><trkpt lat="42.310625" lon="13.6268283"><ele>1003.0</ele><time>2026-05-03T08:10:52.744Z</time></trkpt><trkpt lat="42.3105633" lon="13.6269217"><ele>1004.0</ele><time>2026-05-03T08:10:53.744Z</time></trkpt><trkpt lat="42.3105017" lon="13.6270167"><ele>1005.0</ele><time>2026-05-03T08:10:54.744Z</time></trkpt><trkpt lat="42.3104483" lon="13.62712"><ele>1006.0</ele><time>2026-05-03T08:10:55.744Z</time></trkpt><trkpt lat="42.3104067" lon="13.6272367"><ele>1007.0</ele><time>2026-05-03T08:10:56.744Z</time></trkpt><trkpt lat="42.310365" lon="13.62734"><ele>1007.0</ele><time>2026-05-03T08:10:57.744Z</time></trkpt><trkpt lat="42.310325" lon="13.627445"><ele>1007.0</ele><time>2026-05-03T08:10:58.743Z</time></trkpt><trkpt lat="42.3102817" lon="13.6275367"><ele>1007.0</ele><time>2026-05-03T08:10:59.743Z</time></trkpt><trkpt lat="42.3102283" lon="13.6276183"><ele>1007.0</ele><time>2026-05-03T08:11:00.744Z</time></trkpt><trkpt lat="42.3101733" lon="13.6276833"><ele>1007.0</ele><time>2026-05-03T08:11:01.743Z</time></trkpt><trkpt lat="42.3100783" lon="13.6278"><ele>1005.6666666666667</ele><time>2026-05-03T08:11:03.744Z</time></trkpt><trkpt lat="42.310035" lon="13.627875"><ele>1004.3333333333334</ele><time>2026-05-03T08:11:04.744Z</time></trkpt><trkpt lat="42.30999" lon="13.62796"><ele>1003.0</ele><time>2026-05-03T08:11:05.744Z</time></trkpt><trkpt lat="42.3099533" lon="13.6280467"><ele>1001.6666666666667</ele><time>2026-05-03T08:11:06.744Z</time></trkpt><trkpt lat="42.3099067" lon="13.6281367"><ele>1000.3333333333334</ele><time>2026-05-03T08:11:07.744Z</time></trkpt><trkpt lat="42.3098667" lon="13.628225"><ele>999.0</ele><time>2026-05-03T08:11:08.743Z</time></trkpt><trkpt lat="42.3098217" lon="13.6283233"><ele>999.0</ele><time>2026-05-03T08:11:09.743Z</time></trkpt><trkpt lat="42.3097733" lon="13.6284167"><ele>999.0</ele><time>2026-05-03T08:11:10.743Z</time></trkpt><trkpt lat="42.3097317" lon="13.6285033"><ele>999.0</ele><time>2026-05-03T08:11:11.744Z</time></trkpt><trkpt lat="42.30969" lon="13.6285967"><ele>999.0</ele><time>2026-05-03T08:11:12.743Z</time></trkpt><trkpt lat="42.3096517" lon="13.6286817"><ele>999.0</ele><time>2026-05-03T08:11:13.744Z</time></trkpt><trkpt lat="42.3096083" lon="13.6287667"><ele>999.0</ele><time>2026-05-03T08:11:14.744Z</time></trkpt><trkpt lat="42.30957" lon="13.6288383"><ele>1001.3333333333334</ele><time>2026-05-03T08:11:15.743Z</time></trkpt><trkpt lat="42.3095283" lon="13.6289117"><ele>1003.6666666666667</ele><time>2026-05-03T08:11:16.744Z</time></trkpt><trkpt lat="42.3094933" lon="13.6290017"><ele>1006.0</ele><time>2026-05-03T08:11:17.744Z</time></trkpt><trkpt lat="42.309455" lon="13.6290983"><ele>1008.3333333333334</ele><time>2026-05-03T08:11:18.743Z</time></trkpt><trkpt lat="42.30941" lon="13.6291867"><ele>1010.6666666666667</ele><time>2026-05-03T08:11:19.744Z</time></trkpt><trkpt lat="42.30937" lon="13.62926"><ele>1013.0</ele><time>2026-05-03T08:11:20.744Z</time></trkpt><trkpt lat="42.3092967" lon="13.6293983"><ele>1012.5000000000001</ele><time>2026-05-03T08:11:22.744Z</time></trkpt><trkpt lat="42.30926" lon="13.6294767"><ele>1012.0</ele><time>2026-05-03T08:11:23.744Z</time></trkpt><trkpt lat="42.3092317" lon="13.62956"><ele>1011.5</ele><time>2026-05-03T08:11:24.743Z</time></trkpt><trkpt lat="42.3091933" lon="13.6296433"><ele>1011.0</ele><time>2026-05-03T08:11:25.743Z</time></trkpt><trkpt lat="42.309145" lon="13.629715"><ele>1010.5000000000001</ele><time>2026-05-03T08:11:26.744Z</time></trkpt><trkpt lat="42.3091017" lon="13.6297783"><ele>1010.0</ele><time>2026-05-03T08:11:27.744Z</time></trkpt><trkpt lat="42.309025" lon="13.6298833"><ele>1010.0</ele><time>2026-05-03T08:11:29.743Z</time></trkpt><trkpt lat="42.30896" lon="13.6300483"><ele>1010.0</ele><time>2026-05-03T08:11:31.744Z</time></trkpt><trkpt lat="42.3089283" lon="13.6301417"><ele>1010.0</ele><time>2026-05-03T08:11:32.744Z</time></trkpt><trkpt lat="42.3089033" lon="13.6302283"><ele>1010.0</ele><time>2026-05-03T08:11:33.744Z</time></trkpt><trkpt lat="42.3088717" lon="13.6303817"><ele>1010.0</ele><time>2026-05-03T08:11:35.743Z</time></trkpt><trkpt lat="42.3088467" lon="13.6304717"><ele>1009.8</ele><time>2026-05-03T08:11:36.744Z</time></trkpt><trkpt lat="42.3088283" lon="13.630625"><ele>1009.6</ele><time>2026-05-03T08:11:38.744Z</time></trkpt><trkpt lat="42.3088483" lon="13.630815"><ele>1009.4000000000001</ele><time>2026-05-03T08:11:40.744Z</time></trkpt><trkpt lat="42.3088733" lon="13.6309117"><ele>1009.2</ele><time>2026-05-03T08:11:41.744Z</time></trkpt><trkpt lat="42.3089" lon="13.6310017"><ele>1009.0</ele><time>2026-05-03T08:11:42.743Z</time></trkpt><trkpt lat="42.308925" lon="13.63108"><ele>1009.6666666666666</ele><time>2026-05-03T08:11:43.743Z</time></trkpt><trkpt lat="42.30896" lon="13.631215"><ele>1010.3333333333333</ele><time>2026-05-03T08:11:45.743Z</time></trkpt><trkpt lat="42.308945" lon="13.63136"><ele>1011.0</ele><time>2026-05-03T08:11:47.744Z</time></trkpt><trkpt lat="42.3089233" lon="13.63144"><ele>1011.6666666666667</ele><time>2026-05-03T08:11:48.743Z</time></trkpt><trkpt lat="42.3088917" lon="13.63152"><ele>1012.3333333333334</ele><time>2026-05-03T08:11:49.744Z</time></trkpt><trkpt lat="42.3088617" lon="13.6316183"><ele>1013.0</ele><time>2026-05-03T08:11:50.744Z</time></trkpt><trkpt lat="42.3088383" lon="13.63172"><ele>1010.6666666666667</ele><time>2026-05-03T08:11:51.744Z</time></trkpt><trkpt lat="42.3088133" lon="13.6318133"><ele>1008.3333333333334</ele><time>2026-05-03T08:11:52.744Z</time></trkpt><trkpt lat="42.30879" lon="13.63191"><ele>1006.0</ele><time>2026-05-03T08:11:53.744Z</time></trkpt><trkpt lat="42.3087583" lon="13.6320017"><ele>1003.6666666666667</ele><time>2026-05-03T08:11:54.743Z</time></trkpt><trkpt lat="42.30872" lon="13.6320933"><ele>1001.3333333333334</ele><time>2026-05-03T08:11:55.744Z</time></trkpt><trkpt lat="42.308675" lon="13.632195"><ele>999.0</ele><time>2026-05-03T08:11:56.744Z</time></trkpt><trkpt lat="42.3086317" lon="13.6322917"><ele>999.0</ele><time>2026-05-03T08:11:57.743Z</time></trkpt><trkpt lat="42.30859" lon="13.632385"><ele>999.0</ele><time>2026-05-03T08:11:58.743Z</time></trkpt><trkpt lat="42.3085367" lon="13.6324783"><ele>999.0</ele><time>2026-05-03T08:11:59.743Z</time></trkpt><trkpt lat="42.3084883" lon="13.6325617"><ele>999.0</ele><time>2026-05-03T08:12:00.744Z</time></trkpt><trkpt lat="42.30845" lon="13.63266"><ele>999.0</ele><time>2026-05-03T08:12:01.743Z</time></trkpt><trkpt lat="42.3084133" lon="13.6327717"><ele>999.0</ele><time>2026-05-03T08:12:02.743Z</time></trkpt><trkpt lat="42.30838" lon="13.6328767"><ele>999.0</ele><time>2026-05-03T08:12:03.743Z</time></trkpt><trkpt lat="42.3083483" lon="13.6329633"><ele>999.0</ele><time>2026-05-03T08:12:04.743Z</time></trkpt><trkpt lat="42.308305" lon="13.633045"><ele>999.0</ele><time>2026-05-03T08:12:05.743Z</time></trkpt><trkpt lat="42.3082617" lon="13.63314"><ele>999.0</ele><time>2026-05-03T08:12:06.744Z</time></trkpt><trkpt lat="42.3082167" lon="13.6332367"><ele>999.0</ele><time>2026-05-03T08:12:07.744Z</time></trkpt><trkpt lat="42.3081683" lon="13.6333183"><ele>999.0</ele><time>2026-05-03T08:12:08.744Z</time></trkpt><trkpt lat="42.30813" lon="13.6333967"><ele>999.0</ele><time>2026-05-03T08:12:09.744Z</time></trkpt><trkpt lat="42.3080967" lon="13.6334717"><ele>999.0</ele><time>2026-05-03T08:12:10.744Z</time></trkpt><trkpt lat="42.3080583" lon="13.6335617"><ele>999.0</ele><time>2026-05-03T08:12:11.744Z</time></trkpt><trkpt lat="42.3080233" lon="13.63365"><ele>999.0</ele><time>2026-05-03T08:12:12.743Z</time></trkpt><trkpt lat="42.3079683" lon="13.6337883"><ele>999.0</ele><time>2026-05-03T08:12:14.743Z</time></trkpt><trkpt lat="42.307925" lon="13.6338533"><ele>999.0</ele><time>2026-05-03T08:12:15.743Z</time></trkpt><trkpt lat="42.3078483" lon="13.633895"><ele>997.1666666666666</ele><time>2026-05-03T08:12:16.743Z</time></trkpt><trkpt lat="42.3077733" lon="13.6339267"><ele>995.3333333333333</ele><time>2026-05-03T08:12:17.743Z</time></trkpt><trkpt lat="42.3077" lon="13.6339617"><ele>993.5</ele><time>2026-05-03T08:12:18.743Z</time></trkpt><trkpt lat="42.3076333" lon="13.6339967"><ele>991.6666666666666</ele><time>2026-05-03T08:12:19.743Z</time></trkpt><trkpt lat="42.3075683" lon="13.6340483"><ele>989.8333333333333</ele><time>2026-05-03T08:12:20.744Z</time></trkpt><trkpt lat="42.3075" lon="13.6341267"><ele>988.0</ele><time>2026-05-03T08:12:21.743Z</time></trkpt><trkpt lat="42.30743" lon="13.6342017"><ele>988.0</ele><time>2026-05-03T08:12:22.743Z</time></trkpt><trkpt lat="42.3073317" lon="13.6343283"><ele>988.0</ele><time>2026-05-03T08:12:23.743Z</time></trkpt><trkpt lat="42.30726" lon="13.6344183"><ele>988.0</ele><time>2026-05-03T08:12:24.744Z</time></trkpt><trkpt lat="42.3072" lon="13.6345333"><ele>988.0</ele><time>2026-05-03T08:12:25.744Z</time></trkpt><trkpt lat="42.3071483" lon="13.6346917"><ele>987.25</ele><time>2026-05-03T08:12:26.744Z</time></trkpt><trkpt lat="42.307085" lon="13.6348533"><ele>986.5</ele><time>2026-05-03T08:12:27.744Z</time></trkpt><trkpt lat="42.3070283" lon="13.6349867"><ele>985.75</ele><time>2026-05-03T08:12:28.743Z</time></trkpt><trkpt lat="42.30696" lon="13.635155"><ele>985.0</ele><time>2026-05-03T08:12:29.743Z</time></trkpt><trkpt lat="42.3069" lon="13.6353"><ele>984.0</ele><time>2026-05-03T08:12:30.743Z</time></trkpt><trkpt lat="42.3068433" lon="13.635445"><ele>983.0</ele><time>2026-05-03T08:12:31.743Z</time></trkpt><trkpt lat="42.3067783" lon="13.63558"><ele>982.0</ele><time>2026-05-03T08:12:32.744Z</time></trkpt><trkpt lat="42.3067117" lon="13.63571"><ele>981.0</ele><time>2026-05-03T08:12:33.743Z</time></trkpt><trkpt lat="42.3066433" lon="13.6358267"><ele>981.0</ele><time>2026-05-03T08:12:34.744Z</time></trkpt><trkpt lat="42.3065983" lon="13.6359317"><ele>980.9999999999999</ele><time>2026-05-03T08:12:35.744Z</time></trkpt><trkpt lat="42.306545" lon="13.6360333"><ele>980.9999999999999</ele><time>2026-05-03T08:12:36.744Z</time></trkpt><trkpt lat="42.30649" lon="13.6361367"><ele>981.0</ele><time>2026-05-03T08:12:37.743Z</time></trkpt><trkpt lat="42.3064283" lon="13.636245"><ele>981.0</ele><time>2026-05-03T08:12:38.744Z</time></trkpt><trkpt lat="42.3063717" lon="13.6363733"><ele>980.4</ele><time>2026-05-03T08:12:39.743Z</time></trkpt><trkpt lat="42.3063267" lon="13.6365"><ele>979.8</ele><time>2026-05-03T08:12:40.744Z</time></trkpt><trkpt lat="42.3062917" lon="13.6366183"><ele>979.1999999999999</ele><time>2026-05-03T08:12:41.743Z</time></trkpt><trkpt lat="42.3062583" lon="13.6367467"><ele>978.5999999999999</ele><time>2026-05-03T08:12:42.744Z</time></trkpt><trkpt lat="42.306215" lon="13.6368683"><ele>978.0</ele><time>2026-05-03T08:12:43.743Z</time></trkpt><trkpt lat="42.3061833" lon="13.6369983"><ele>977.1666666666666</ele><time>2026-05-03T08:12:44.742Z</time></trkpt><trkpt lat="42.3061433" lon="13.63711"><ele>976.3333333333333</ele><time>2026-05-03T08:12:45.743Z</time></trkpt><trkpt lat="42.3061117" lon="13.6372167"><ele>975.5</ele><time>2026-05-03T08:12:46.743Z</time></trkpt><trkpt lat="42.3060883" lon="13.6373183"><ele>974.6666666666666</ele><time>2026-05-03T08:12:47.743Z</time></trkpt><trkpt lat="42.306055" lon="13.6374183"><ele>973.8333333333333</ele><time>2026-05-03T08:12:48.743Z</time></trkpt><trkpt lat="42.306015" lon="13.6375217"><ele>973.0</ele><time>2026-05-03T08:12:49.743Z</time></trkpt><trkpt lat="42.30597" lon="13.63764"><ele>972.9999999999999</ele><time>2026-05-03T08:12:50.743Z</time></trkpt><trkpt lat="42.305945" lon="13.6377617"><ele>973.0</ele><time>2026-05-03T08:12:51.743Z</time></trkpt><trkpt lat="42.3059183" lon="13.6378683"><ele>973.0</ele><time>2026-05-03T08:12:52.742Z</time></trkpt><trkpt lat="42.3058867" lon="13.6379717"><ele>973.0</ele><time>2026-05-03T08:12:53.743Z</time></trkpt><trkpt lat="42.3058717" lon="13.6380683"><ele>972.9999999999999</ele><time>2026-05-03T08:12:54.743Z</time></trkpt><trkpt lat="42.3058667" lon="13.6381667"><ele>973.0</ele><time>2026-05-03T08:12:55.743Z</time></trkpt><trkpt lat="42.3058717" lon="13.6382617"><ele>972.3333333333333</ele><time>2026-05-03T08:12:56.743Z</time></trkpt><trkpt lat="42.305865" lon="13.638365"><ele>971.6666666666666</ele><time>2026-05-03T08:12:57.742Z</time></trkpt><trkpt lat="42.3058383" lon="13.6384583"><ele>971.0</ele><time>2026-05-03T08:12:58.743Z</time></trkpt><trkpt lat="42.3057983" lon="13.6385417"><ele>970.3333333333333</ele><time>2026-05-03T08:12:59.742Z</time></trkpt><trkpt lat="42.3057567" lon="13.6386167"><ele>969.6666666666666</ele><time>2026-05-03T08:13:00.742Z</time></trkpt><trkpt lat="42.3057283" lon="13.6387033"><ele>969.0</ele><time>2026-05-03T08:13:01.743Z</time></trkpt><trkpt lat="42.3057083" lon="13.638865"><ele>968.8333333333334</ele><time>2026-05-03T08:13:03.742Z</time></trkpt><trkpt lat="42.305675" lon="13.6390117"><ele>968.6666666666667</ele><time>2026-05-03T08:13:05.743Z</time></trkpt><trkpt lat="42.3056367" lon="13.639085"><ele>968.5</ele><time>2026-05-03T08:13:06.742Z</time></trkpt><trkpt lat="42.3056067" lon="13.63916"><ele>968.3333333333334</ele><time>2026-05-03T08:13:07.743Z</time></trkpt><trkpt lat="42.3055283" lon="13.6393033"><ele>968.1666666666667</ele><time>2026-05-03T08:13:09.742Z</time></trkpt><trkpt lat="42.3054833" lon="13.6393783"><ele>968.0</ele><time>2026-05-03T08:13:10.742Z</time></trkpt><trkpt lat="42.305445" lon="13.6394567"><ele>966.0</ele><time>2026-05-03T08:13:11.743Z</time></trkpt><trkpt lat="42.3054117" lon="13.6395433"><ele>963.9999999999999</ele><time>2026-05-03T08:13:12.743Z</time></trkpt><trkpt lat="42.3053783" lon="13.63963"><ele>962.0</ele><time>2026-05-03T08:13:13.742Z</time></trkpt><trkpt lat="42.3053517" lon="13.639725"><ele>960.0</ele><time>2026-05-03T08:13:14.743Z</time></trkpt><trkpt lat="42.30534" lon="13.6398133"><ele>957.9999999999999</ele><time>2026-05-03T08:13:15.743Z</time></trkpt><trkpt lat="42.3053217" lon="13.6399033"><ele>956.0</ele><time>2026-05-03T08:13:16.742Z</time></trkpt><trkpt lat="42.3053067" lon="13.6399983"><ele>954.0</ele><time>2026-05-03T08:13:17.743Z</time></trkpt><trkpt lat="42.3052883" lon="13.6400867"><ele>954.0</ele><time>2026-05-03T08:13:18.742Z</time></trkpt><trkpt lat="42.3052683" lon="13.640175"><ele>953.9999999999999</ele><time>2026-05-03T08:13:19.743Z</time></trkpt><trkpt lat="42.305245" lon="13.6402683"><ele>954.0</ele><time>2026-05-03T08:13:20.742Z</time></trkpt><trkpt lat="42.3052233" lon="13.640355"><ele>954.0</ele><time>2026-05-03T08:13:21.743Z</time></trkpt><trkpt lat="42.3051917" lon="13.6404433"><ele>953.9999999999999</ele><time>2026-05-03T08:13:22.743Z</time></trkpt><trkpt lat="42.305155" lon="13.6405333"><ele>954.0</ele><time>2026-05-03T08:13:23.743Z</time></trkpt><trkpt lat="42.3051133" lon="13.64061"><ele>954.0</ele><time>2026-05-03T08:13:24.742Z</time></trkpt><trkpt lat="42.3050617" lon="13.6406717"><ele>951.6</ele><time>2026-05-03T08:13:25.742Z</time></trkpt><trkpt lat="42.304985" lon="13.6407933"><ele>949.2</ele><time>2026-05-03T08:13:27.742Z</time></trkpt><trkpt lat="42.30495" lon="13.6409433"><ele>946.8000000000001</ele><time>2026-05-03T08:13:29.743Z</time></trkpt><trkpt lat="42.3049533" lon="13.641045"><ele>944.4000000000001</ele><time>2026-05-03T08:13:30.742Z</time></trkpt><trkpt lat="42.30496" lon="13.6411483"><ele>942.0</ele><time>2026-05-03T08:13:31.743Z</time></trkpt><trkpt lat="42.3049633" lon="13.6412433"><ele>941.0000000000001</ele><time>2026-05-03T08:13:32.743Z</time></trkpt><trkpt lat="42.3049433" lon="13.64133"><ele>940.0</ele><time>2026-05-03T08:13:33.743Z</time></trkpt><trkpt lat="42.304925" lon="13.64142"><ele>939.0000000000001</ele><time>2026-05-03T08:13:34.743Z</time></trkpt><trkpt lat="42.3048967" lon="13.6414983"><ele>938.0000000000001</ele><time>2026-05-03T08:13:35.743Z</time></trkpt><trkpt lat="42.3048733" lon="13.6415833"><ele>937.0</ele><time>2026-05-03T08:13:36.743Z</time></trkpt><trkpt lat="42.3048483" lon="13.6416717"><ele>936.0000000000001</ele><time>2026-05-03T08:13:37.742Z</time></trkpt><trkpt lat="42.3048283" lon="13.64177"><ele>935.0000000000001</ele><time>2026-05-03T08:13:38.742Z</time></trkpt><trkpt lat="42.3048033" lon="13.6418517"><ele>935.0000000000001</ele><time>2026-05-03T08:13:39.743Z</time></trkpt><trkpt lat="42.30478" lon="13.641935"><ele>935.0</ele><time>2026-05-03T08:13:40.743Z</time></trkpt><trkpt lat="42.3047333" lon="13.642065"><ele>935.0</ele><time>2026-05-03T08:13:42.743Z</time></trkpt><trkpt lat="42.304645" lon="13.642165"><ele>935.0</ele><time>2026-05-03T08:13:44.742Z</time></trkpt><trkpt lat="42.30458" lon="13.64222"><ele>935.0000000000001</ele><time>2026-05-03T08:13:45.743Z</time></trkpt><trkpt lat="42.3045283" lon="13.64229"><ele>935.0</ele><time>2026-05-03T08:13:46.742Z</time></trkpt><trkpt lat="42.3044667" lon="13.64237"><ele>932.1666666666667</ele><time>2026-05-03T08:13:47.742Z</time></trkpt><trkpt lat="42.3044133" lon="13.6424417"><ele>929.3333333333334</ele><time>2026-05-03T08:13:48.743Z</time></trkpt><trkpt lat="42.30436" lon="13.6425117"><ele>926.5</ele><time>2026-05-03T08:13:49.742Z</time></trkpt><trkpt lat="42.3043133" lon="13.6425783"><ele>923.6666666666667</ele><time>2026-05-03T08:13:50.742Z</time></trkpt><trkpt lat="42.3042667" lon="13.64264"><ele>920.8333333333334</ele><time>2026-05-03T08:13:51.743Z</time></trkpt><trkpt lat="42.3042217" lon="13.642705"><ele>918.0</ele><time>2026-05-03T08:13:52.743Z</time></trkpt><trkpt lat="42.30413" lon="13.6427783"><ele>918.8333333333334</ele><time>2026-05-03T08:13:54.742Z</time></trkpt><trkpt lat="42.30404" lon="13.6428"><ele>919.6666666666667</ele><time>2026-05-03T08:13:56.742Z</time></trkpt><trkpt lat="42.3039783" lon="13.6428267"><ele>920.5</ele><time>2026-05-03T08:13:58.743Z</time></trkpt><trkpt lat="42.3038933" lon="13.6428717"><ele>921.3333333333334</ele><time>2026-05-03T08:14:01.743Z</time></trkpt><trkpt lat="42.30382" lon="13.6429233"><ele>922.1666666666667</ele><time>2026-05-03T08:14:03.742Z</time></trkpt><trkpt lat="42.3037117" lon="13.6429683"><ele>923.0</ele><time>2026-05-03T08:14:05.743Z</time></trkpt><trkpt lat="42.3036433" lon="13.6429983"><ele>920.3333333333334</ele><time>2026-05-03T08:14:06.743Z</time></trkpt><trkpt lat="42.3035717" lon="13.6430083"><ele>917.6666666666667</ele><time>2026-05-03T08:14:07.742Z</time></trkpt><trkpt lat="42.30349" lon="13.6430217"><ele>915.0</ele><time>2026-05-03T08:14:08.742Z</time></trkpt><trkpt lat="42.3034083" lon="13.643045"><ele>912.3333333333333</ele><time>2026-05-03T08:14:09.743Z</time></trkpt><trkpt lat="42.3033333" lon="13.643075"><ele>909.6666666666666</ele><time>2026-05-03T08:14:10.743Z</time></trkpt><trkpt lat="42.3032583" lon="13.6431"><ele>907.0</ele><time>2026-05-03T08:14:11.742Z</time></trkpt><trkpt lat="42.303185" lon="13.6431317"><ele>907.0000000000001</ele><time>2026-05-03T08:14:12.742Z</time></trkpt><trkpt lat="42.30311" lon="13.6431567"><ele>907.0</ele><time>2026-05-03T08:14:13.743Z</time></trkpt><trkpt lat="42.3030417" lon="13.643175"><ele>907.0000000000001</ele><time>2026-05-03T08:14:14.743Z</time></trkpt><trkpt lat="42.3029717" lon="13.6431833"><ele>907.0000000000001</ele><time>2026-05-03T08:14:15.742Z</time></trkpt><trkpt lat="42.302905" lon="13.64319"><ele>907.0</ele><time>2026-05-03T08:14:16.743Z</time></trkpt><trkpt lat="42.3028367" lon="13.643185"><ele>907.0000000000001</ele><time>2026-05-03T08:14:17.742Z</time></trkpt><trkpt lat="42.3027583" lon="13.643175"><ele>907.0000000000001</ele><time>2026-05-03T08:14:18.743Z</time></trkpt><trkpt lat="42.3026817" lon="13.6431617"><ele>904.7142857142859</ele><time>2026-05-03T08:14:19.743Z</time></trkpt><trkpt lat="42.30261" lon="13.6431367"><ele>902.4285714285714</ele><time>2026-05-03T08:14:20.743Z</time></trkpt><trkpt lat="42.30254" lon="13.643105"><ele>900.1428571428572</ele><time>2026-05-03T08:14:21.742Z</time></trkpt><trkpt lat="42.30247" lon="13.643075"><ele>897.8571428571429</ele><time>2026-05-03T08:14:22.743Z</time></trkpt><trkpt lat="42.3023983" lon="13.6430533"><ele>895.5714285714287</ele><time>2026-05-03T08:14:23.742Z</time></trkpt><trkpt lat="42.30233" lon="13.643055"><ele>893.2857142857143</ele><time>2026-05-03T08:14:24.743Z</time></trkpt><trkpt lat="42.3022667" lon="13.643075"><ele>891.0</ele><time>2026-05-03T08:14:25.743Z</time></trkpt><trkpt lat="42.3021967" lon="13.64311"><ele>889.3333333333334</ele><time>2026-05-03T08:14:26.742Z</time></trkpt><trkpt lat="42.3021267" lon="13.643165"><ele>887.6666666666667</ele><time>2026-05-03T08:14:27.743Z</time></trkpt><trkpt lat="42.3020583" lon="13.6432217"><ele>886.0</ele><time>2026-05-03T08:14:28.742Z</time></trkpt><trkpt lat="42.3019933" lon="13.6432683"><ele>884.3333333333334</ele><time>2026-05-03T08:14:29.743Z</time></trkpt><trkpt lat="42.3019117" lon="13.6432967"><ele>882.6666666666667</ele><time>2026-05-03T08:14:30.742Z</time></trkpt><trkpt lat="42.301835" lon="13.643315"><ele>881.0</ele><time>2026-05-03T08:14:31.743Z</time></trkpt><trkpt lat="42.3017583" lon="13.6433283"><ele>881.0000000000001</ele><time>2026-05-03T08:14:32.742Z</time></trkpt><trkpt lat="42.30168" lon="13.6433383"><ele>881.0</ele><time>2026-05-03T08:14:33.743Z</time></trkpt><trkpt lat="42.3015967" lon="13.6433567"><ele>881.0</ele><time>2026-05-03T08:14:34.742Z</time></trkpt><trkpt lat="42.3015017" lon="13.6433833"><ele>881.0</ele><time>2026-05-03T08:14:35.743Z</time></trkpt><trkpt lat="42.301405" lon="13.6434117"><ele>881.0000000000001</ele><time>2026-05-03T08:14:36.743Z</time></trkpt><trkpt lat="42.301325" lon="13.643445"><ele>881.0</ele><time>2026-05-03T08:14:37.743Z</time></trkpt><trkpt lat="42.3012433" lon="13.643485"><ele>880.0</ele><time>2026-05-03T08:14:38.743Z</time></trkpt><trkpt lat="42.3011633" lon="13.6435217"><ele>879.0</ele><time>2026-05-03T08:14:39.743Z</time></trkpt><trkpt lat="42.3010933" lon="13.6435517"><ele>878.0</ele><time>2026-05-03T08:14:40.743Z</time></trkpt><trkpt lat="42.3010233" lon="13.6435733"><ele>877.0</ele><time>2026-05-03T08:14:41.743Z</time></trkpt><trkpt lat="42.3009533" lon="13.643595"><ele>876.0</ele><time>2026-05-03T08:14:42.743Z</time></trkpt><trkpt lat="42.30089" lon="13.6436217"><ele>875.0</ele><time>2026-05-03T08:14:43.743Z</time></trkpt><trkpt lat="42.30082" lon="13.6436433"><ele>874.0</ele><time>2026-05-03T08:14:44.742Z</time></trkpt><trkpt lat="42.3007467" lon="13.6436683"><ele>873.4999999999999</ele><time>2026-05-03T08:14:45.743Z</time></trkpt><trkpt lat="42.3006833" lon="13.6437017"><ele>873.0</ele><time>2026-05-03T08:14:46.743Z</time></trkpt><trkpt lat="42.30061" lon="13.6437467"><ele>872.5</ele><time>2026-05-03T08:14:47.742Z</time></trkpt><trkpt lat="42.3005333" lon="13.6437983"><ele>872.0</ele><time>2026-05-03T08:14:48.742Z</time></trkpt><trkpt lat="42.3004533" lon="13.643835"><ele>871.4999999999999</ele><time>2026-05-03T08:14:49.742Z</time></trkpt><trkpt lat="42.3003717" lon="13.643865"><ele>871.0</ele><time>2026-05-03T08:14:50.743Z</time></trkpt><trkpt lat="42.30029" lon="13.643875"><ele>869.9999999999999</ele><time>2026-05-03T08:14:51.743Z</time></trkpt><trkpt lat="42.300215" lon="13.6438833"><ele>869.0</ele><time>2026-05-03T08:14:52.743Z</time></trkpt><trkpt lat="42.300135" lon="13.6438983"><ele>868.0</ele><time>2026-05-03T08:14:53.742Z</time></trkpt><trkpt lat="42.30006" lon="13.643905"><ele>867.0</ele><time>2026-05-03T08:14:54.743Z</time></trkpt><trkpt lat="42.2999867" lon="13.643905"><ele>865.9999999999999</ele><time>2026-05-03T08:14:55.743Z</time></trkpt><trkpt lat="42.2999167" lon="13.643895"><ele>865.0</ele><time>2026-05-03T08:14:56.743Z</time></trkpt><trkpt lat="42.2997883" lon="13.6438633"><ele>864.3333333333333</ele><time>2026-05-03T08:14:58.743Z</time></trkpt><trkpt lat="42.2997183" lon="13.6438317"><ele>863.6666666666666</ele><time>2026-05-03T08:14:59.742Z</time></trkpt><trkpt lat="42.299645" lon="13.6437733"><ele>863.0</ele><time>2026-05-03T08:15:00.743Z</time></trkpt><trkpt lat="42.2995667" lon="13.6437067"><ele>862.3333333333333</ele><time>2026-05-03T08:15:01.742Z</time></trkpt><trkpt lat="42.2994883" lon="13.643635"><ele>861.6666666666666</ele><time>2026-05-03T08:15:02.742Z</time></trkpt><trkpt lat="42.2994117" lon="13.6435517"><ele>861.0</ele><time>2026-05-03T08:15:03.742Z</time></trkpt><trkpt lat="42.299325" lon="13.6434683"><ele>860.0</ele><time>2026-05-03T08:15:04.743Z</time></trkpt><trkpt lat="42.2992483" lon="13.6433983"><ele>858.9999999999999</ele><time>2026-05-03T08:15:05.743Z</time></trkpt><trkpt lat="42.2991633" lon="13.6433267"><ele>857.9999999999999</ele><time>2026-05-03T08:15:06.743Z</time></trkpt><trkpt lat="42.2990733" lon="13.6432483"><ele>857.0</ele><time>2026-05-03T08:15:07.743Z</time></trkpt><trkpt lat="42.2989867" lon="13.64317"><ele>856.0</ele><time>2026-05-03T08:15:08.742Z</time></trkpt><trkpt lat="42.2989067" lon="13.6430917"><ele>854.5999999999999</ele><time>2026-05-03T08:15:09.743Z</time></trkpt><trkpt lat="42.298825" lon="13.64301"><ele>853.1999999999999</ele><time>2026-05-03T08:15:10.742Z</time></trkpt><trkpt lat="42.29875" lon="13.642925"><ele>851.8</ele><time>2026-05-03T08:15:11.743Z</time></trkpt><trkpt lat="42.2986883" lon="13.64283"><ele>850.4000000000001</ele><time>2026-05-03T08:15:12.742Z</time></trkpt><trkpt lat="42.29862" lon="13.6427333"><ele>849.0</ele><time>2026-05-03T08:15:13.743Z</time></trkpt><trkpt lat="42.2985417" lon="13.642635"><ele>847.8000000000001</ele><time>2026-05-03T08:15:14.742Z</time></trkpt><trkpt lat="42.298465" lon="13.6425217"><ele>846.6</ele><time>2026-05-03T08:15:15.742Z</time></trkpt><trkpt lat="42.2983933" lon="13.6424083"><ele>845.4</ele><time>2026-05-03T08:15:16.742Z</time></trkpt><trkpt lat="42.29832" lon="13.6423067"><ele>844.2</ele><time>2026-05-03T08:15:17.742Z</time></trkpt><trkpt lat="42.29824" lon="13.6421883"><ele>843.0</ele><time>2026-05-03T08:15:18.743Z</time></trkpt><trkpt lat="42.298155" lon="13.6420617"><ele>842.3333333333334</ele><time>2026-05-03T08:15:19.742Z</time></trkpt><trkpt lat="42.2980917" lon="13.64196"><ele>841.6666666666667</ele><time>2026-05-03T08:15:20.742Z</time></trkpt><trkpt lat="42.2980383" lon="13.6418883"><ele>841.0</ele><time>2026-05-03T08:15:21.743Z</time></trkpt><trkpt lat="42.2979867" lon="13.6418233"><ele>840.3333333333334</ele><time>2026-05-03T08:15:22.742Z</time></trkpt><trkpt lat="42.2979367" lon="13.641755"><ele>839.6666666666667</ele><time>2026-05-03T08:15:23.742Z</time></trkpt><trkpt lat="42.29789" lon="13.6416883"><ele>839.0</ele><time>2026-05-03T08:15:24.742Z</time></trkpt><trkpt lat="42.29783" lon="13.6415967"><ele>837.6666666666667</ele><time>2026-05-03T08:15:26.743Z</time></trkpt><trkpt lat="42.2977667" lon="13.64158"><ele>836.3333333333334</ele><time>2026-05-03T08:15:28.742Z</time></trkpt><trkpt lat="42.2976717" lon="13.6416233"><ele>835.0</ele><time>2026-05-03T08:15:30.743Z</time></trkpt><trkpt lat="42.2975983" lon="13.6416417"><ele>833.6666666666667</ele><time>2026-05-03T08:15:31.743Z</time></trkpt><trkpt lat="42.2974967" lon="13.6416417"><ele>832.3333333333334</ele><time>2026-05-03T08:15:32.742Z</time></trkpt><trkpt lat="42.2973917" lon="13.641645"><ele>831.0</ele><time>2026-05-03T08:15:33.742Z</time></trkpt><trkpt lat="42.2972933" lon="13.641645"><ele>829.1999999999999</ele><time>2026-05-03T08:15:34.742Z</time></trkpt><trkpt lat="42.2971883" lon="13.64162"><ele>827.4</ele><time>2026-05-03T08:15:35.743Z</time></trkpt><trkpt lat="42.29709" lon="13.6415883"><ele>825.6</ele><time>2026-05-03T08:15:36.742Z</time></trkpt><trkpt lat="42.29699" lon="13.6415617"><ele>823.8</ele><time>2026-05-03T08:15:37.743Z</time></trkpt><trkpt lat="42.2968983" lon="13.6415317"><ele>822.0</ele><time>2026-05-03T08:15:38.743Z</time></trkpt><trkpt lat="42.29682" lon="13.641505"><ele>822.0</ele><time>2026-05-03T08:15:39.742Z</time></trkpt><trkpt lat="42.2967433" lon="13.6414867"><ele>822.0</ele><time>2026-05-03T08:15:40.743Z</time></trkpt><trkpt lat="42.29667" lon="13.6414917"><ele>822.0</ele><time>2026-05-03T08:15:41.743Z</time></trkpt><trkpt lat="42.2965833" lon="13.6415183"><ele>822.0</ele><time>2026-05-03T08:15:42.743Z</time></trkpt><trkpt lat="42.2964967" lon="13.6415433"><ele>822.0</ele><time>2026-05-03T08:15:43.742Z</time></trkpt><trkpt lat="42.2964017" lon="13.6415517"><ele>822.0</ele><time>2026-05-03T08:15:44.743Z</time></trkpt><trkpt lat="42.2963017" lon="13.6415533"><ele>820.2</ele><time>2026-05-03T08:15:45.743Z</time></trkpt><trkpt lat="42.2962083" lon="13.6415267"><ele>818.4000000000001</ele><time>2026-05-03T08:15:46.743Z</time></trkpt><trkpt lat="42.2961217" lon="13.6414867"><ele>816.5999999999999</ele><time>2026-05-03T08:15:47.743Z</time></trkpt><trkpt lat="42.2960333" lon="13.6414417"><ele>814.8</ele><time>2026-05-03T08:15:48.743Z</time></trkpt><trkpt lat="42.2959483" lon="13.6413917"><ele>813.0</ele><time>2026-05-03T08:15:49.743Z</time></trkpt><trkpt lat="42.29585" lon="13.6413467"><ele>813.0</ele><time>2026-05-03T08:15:50.742Z</time></trkpt><trkpt lat="42.295745" lon="13.6413133"><ele>813.0</ele><time>2026-05-03T08:15:51.743Z</time></trkpt><trkpt lat="42.2956333" lon="13.6412917"><ele>813.0</ele><time>2026-05-03T08:15:52.742Z</time></trkpt><trkpt lat="42.2955167" lon="13.6412783"><ele>813.0</ele><time>2026-05-03T08:15:53.742Z</time></trkpt><trkpt lat="42.29541" lon="13.64126"><ele>813.0</ele><time>2026-05-03T08:15:54.743Z</time></trkpt><trkpt lat="42.2952967" lon="13.6412383"><ele>811.2</ele><time>2026-05-03T08:15:55.743Z</time></trkpt><trkpt lat="42.2951933" lon="13.641235"><ele>809.4</ele><time>2026-05-03T08:15:56.742Z</time></trkpt><trkpt lat="42.295085" lon="13.6412333"><ele>807.6</ele><time>2026-05-03T08:15:57.743Z</time></trkpt><trkpt lat="42.2949817" lon="13.6412367"><ele>805.8000000000001</ele><time>2026-05-03T08:15:58.743Z</time></trkpt><trkpt lat="42.294885" lon="13.6412333"><ele>804.0</ele><time>2026-05-03T08:15:59.742Z</time></trkpt><trkpt lat="42.2948083" lon="13.6412233"><ele>803.0</ele><time>2026-05-03T08:16:00.743Z</time></trkpt><trkpt lat="42.2947233" lon="13.6412067"><ele>802.0</ele><time>2026-05-03T08:16:01.742Z</time></trkpt><trkpt lat="42.2946417" lon="13.6411817"><ele>801.0</ele><time>2026-05-03T08:16:02.743Z</time></trkpt><trkpt lat="42.2945717" lon="13.6411367"><ele>800.0</ele><time>2026-05-03T08:16:03.743Z</time></trkpt><trkpt lat="42.2944733" lon="13.641065"><ele>799.0</ele><time>2026-05-03T08:16:05.742Z</time></trkpt><trkpt lat="42.2944117" lon="13.641015"><ele>798.0</ele><time>2026-05-03T08:16:07.743Z</time></trkpt><trkpt lat="42.294355" lon="13.6410533"><ele>798.0</ele><time>2026-05-03T08:16:09.742Z</time></trkpt><trkpt lat="42.29427" lon="13.641155"><ele>798.0</ele><time>2026-05-03T08:16:11.743Z</time></trkpt><trkpt lat="42.2942183" lon="13.6412317"><ele>798.0</ele><time>2026-05-03T08:16:12.743Z</time></trkpt><trkpt lat="42.294165" lon="13.641305"><ele>798.0</ele><time>2026-05-03T08:16:13.743Z</time></trkpt><trkpt lat="42.2940967" lon="13.6413867"><ele>798.0</ele><time>2026-05-03T08:16:14.742Z</time></trkpt><trkpt lat="42.2940167" lon="13.6414667"><ele>798.0</ele><time>2026-05-03T08:16:15.743Z</time></trkpt><trkpt lat="42.293935" lon="13.64156"><ele>798.0</ele><time>2026-05-03T08:16:16.742Z</time></trkpt><trkpt lat="42.2938483" lon="13.6416733"><ele>798.0</ele><time>2026-05-03T08:16:17.742Z</time></trkpt><trkpt lat="42.2937783" lon="13.6418067"><ele>798.0</ele><time>2026-05-03T08:16:18.743Z</time></trkpt><trkpt lat="42.2937283" lon="13.64197"><ele>798.0</ele><time>2026-05-03T08:16:19.743Z</time></trkpt><trkpt lat="42.2936683" lon="13.6421267"><ele>798.0</ele><time>2026-05-03T08:16:20.743Z</time></trkpt><trkpt lat="42.2935867" lon="13.6422567"><ele>798.0</ele><time>2026-05-03T08:16:21.743Z</time></trkpt><trkpt lat="42.2934833" lon="13.642355"><ele>798.0</ele><time>2026-05-03T08:16:22.743Z</time></trkpt><trkpt lat="42.2933517" lon="13.642435"><ele>798.0</ele><time>2026-05-03T08:16:23.743Z</time></trkpt><trkpt lat="42.2932033" lon="13.64251"><ele>798.0</ele><time>2026-05-03T08:16:24.742Z</time></trkpt><trkpt lat="42.2930517" lon="13.6425967"><ele>798.0</ele><time>2026-05-03T08:16:25.743Z</time></trkpt><trkpt lat="42.2929033" lon="13.6426767"><ele>797.6666666666667</ele><time>2026-05-03T08:16:26.742Z</time></trkpt><trkpt lat="42.2927417" lon="13.642755"><ele>797.3333333333334</ele><time>2026-05-03T08:16:27.743Z</time></trkpt><trkpt lat="42.2925717" lon="13.6428417"><ele>797.0</ele><time>2026-05-03T08:16:28.743Z</time></trkpt><trkpt lat="42.2924033" lon="13.6429283"><ele>796.3333333333334</ele><time>2026-05-03T08:16:29.743Z</time></trkpt><trkpt lat="42.2922467" lon="13.6430033"><ele>795.6666666666667</ele><time>2026-05-03T08:16:30.743Z</time></trkpt><trkpt lat="42.292095" lon="13.6430783"><ele>795.0</ele><time>2026-05-03T08:16:31.742Z</time></trkpt><trkpt lat="42.2919433" lon="13.64313"><ele>795.0</ele><time>2026-05-03T08:16:32.743Z</time></trkpt><trkpt lat="42.291795" lon="13.6431617"><ele>795.0</ele><time>2026-05-03T08:16:33.742Z</time></trkpt><trkpt lat="42.2916583" lon="13.6431883"><ele>795.0</ele><time>2026-05-03T08:16:34.742Z</time></trkpt><trkpt lat="42.2915267" lon="13.6431733"><ele>795.0</ele><time>2026-05-03T08:16:35.743Z</time></trkpt><trkpt lat="42.2914" lon="13.6431167"><ele>794.0</ele><time>2026-05-03T08:16:36.743Z</time></trkpt><trkpt lat="42.29128" lon="13.6430517"><ele>793.0</ele><time>2026-05-03T08:16:37.743Z</time></trkpt><trkpt lat="42.291155" lon="13.643045"><ele>792.0</ele><time>2026-05-03T08:16:38.743Z</time></trkpt><trkpt lat="42.29101" lon="13.6430833"><ele>791.0</ele><time>2026-05-03T08:16:39.743Z</time></trkpt><trkpt lat="42.2908617" lon="13.6431367"><ele>791.0</ele><time>2026-05-03T08:16:40.743Z</time></trkpt><trkpt lat="42.29072" lon="13.6431733"><ele>791.0</ele><time>2026-05-03T08:16:41.743Z</time></trkpt><trkpt lat="42.2905767" lon="13.6432017"><ele>791.0</ele><time>2026-05-03T08:16:42.742Z</time></trkpt><trkpt lat="42.2904367" lon="13.6432117"><ele>791.0</ele><time>2026-05-03T08:16:43.743Z</time></trkpt><trkpt lat="42.2903" lon="13.6432117"><ele>789.75</ele><time>2026-05-03T08:16:44.742Z</time></trkpt><trkpt lat="42.2901667" lon="13.64322"><ele>788.5</ele><time>2026-05-03T08:16:45.742Z</time></trkpt><trkpt lat="42.290025" lon="13.643235"><ele>787.25</ele><time>2026-05-03T08:16:46.743Z</time></trkpt><trkpt lat="42.289895" lon="13.6432633"><ele>786.0</ele><time>2026-05-03T08:16:47.743Z</time></trkpt><trkpt lat="42.2897833" lon="13.6432967"><ele>787.0</ele><time>2026-05-03T08:16:48.743Z</time></trkpt><trkpt lat="42.2897033" lon="13.6433633"><ele>788.0</ele><time>2026-05-03T08:16:49.743Z</time></trkpt><trkpt lat="42.2896633" lon="13.6434483"><ele>789.0</ele><time>2026-05-03T08:16:50.743Z</time></trkpt><trkpt lat="42.28966" lon="13.6435733"><ele>790.0</ele><time>2026-05-03T08:16:51.743Z</time></trkpt><trkpt lat="42.289705" lon="13.643715"><ele>791.0</ele><time>2026-05-03T08:16:52.743Z</time></trkpt><trkpt lat="42.28976" lon="13.64389"><ele>791.0</ele><time>2026-05-03T08:16:53.742Z</time></trkpt><trkpt lat="42.2898067" lon="13.64407"><ele>791.0</ele><time>2026-05-03T08:16:54.742Z</time></trkpt><trkpt lat="42.2898333" lon="13.6442433"><ele>791.0</ele><time>2026-05-03T08:16:55.743Z</time></trkpt><trkpt lat="42.28986" lon="13.64444"><ele>791.0</ele><time>2026-05-03T08:16:56.742Z</time></trkpt><trkpt lat="42.2898817" lon="13.6446383"><ele>792.0</ele><time>2026-05-03T08:16:57.743Z</time></trkpt><trkpt lat="42.2899167" lon="13.644825"><ele>793.0</ele><time>2026-05-03T08:16:58.742Z</time></trkpt><trkpt lat="42.289965" lon="13.6450167"><ele>794.0</ele><time>2026-05-03T08:16:59.742Z</time></trkpt><trkpt lat="42.29002" lon="13.6451967"><ele>795.0</ele><time>2026-05-03T08:17:00.743Z</time></trkpt><trkpt lat="42.2900633" lon="13.64537"><ele>795.25</ele><time>2026-05-03T08:17:01.742Z</time></trkpt><trkpt lat="42.2900967" lon="13.6455467"><ele>795.5</ele><time>2026-05-03T08:17:02.742Z</time></trkpt><trkpt lat="42.2901133" lon="13.64572"><ele>795.75</ele><time>2026-05-03T08:17:03.742Z</time></trkpt><trkpt lat="42.2901133" lon="13.6458983"><ele>796.0</ele><time>2026-05-03T08:17:04.741Z</time></trkpt><trkpt lat="42.2901017" lon="13.6460717"><ele>797.5</ele><time>2026-05-03T08:17:05.741Z</time></trkpt><trkpt lat="42.290065" lon="13.64626"><ele>799.0</ele><time>2026-05-03T08:17:06.742Z</time></trkpt><trkpt lat="42.2899983" lon="13.6464333"><ele>800.5</ele><time>2026-05-03T08:17:07.741Z</time></trkpt><trkpt lat="42.289905" lon="13.6465917"><ele>802.0</ele><time>2026-05-03T08:17:08.742Z</time></trkpt><trkpt lat="42.28981" lon="13.6467483"><ele>799.25</ele><time>2026-05-03T08:17:09.741Z</time></trkpt><trkpt lat="42.2897267" lon="13.64691"><ele>796.5</ele><time>2026-05-03T08:17:10.742Z</time></trkpt><trkpt lat="42.28966" lon="13.6470833"><ele>793.75</ele><time>2026-05-03T08:17:11.741Z</time></trkpt><trkpt lat="42.2896017" lon="13.64727"><ele>791.0</ele><time>2026-05-03T08:17:12.742Z</time></trkpt><trkpt lat="42.289555" lon="13.6474667"><ele>791.0</ele><time>2026-05-03T08:17:13.741Z</time></trkpt><trkpt lat="42.289515" lon="13.6476583"><ele>791.0</ele><time>2026-05-03T08:17:14.741Z</time></trkpt><trkpt lat="42.2894517" lon="13.647825"><ele>791.0</ele><time>2026-05-03T08:17:15.741Z</time></trkpt><trkpt lat="42.2893617" lon="13.6479883"><ele>791.0</ele><time>2026-05-03T08:17:16.742Z</time></trkpt><trkpt lat="42.2892567" lon="13.64814"><ele>790.25</ele><time>2026-05-03T08:17:17.742Z</time></trkpt><trkpt lat="42.2891467" lon="13.6482733"><ele>789.5</ele><time>2026-05-03T08:17:18.742Z</time></trkpt><trkpt lat="42.2890333" lon="13.6483983"><ele>788.75</ele><time>2026-05-03T08:17:19.741Z</time></trkpt><trkpt lat="42.28893" lon="13.6485183"><ele>788.0</ele><time>2026-05-03T08:17:20.741Z</time></trkpt><trkpt lat="42.2888317" lon="13.64864"><ele>788.0</ele><time>2026-05-03T08:17:21.742Z</time></trkpt><trkpt lat="42.288725" lon="13.6487567"><ele>788.0</ele><time>2026-05-03T08:17:22.742Z</time></trkpt><trkpt lat="42.28861" lon="13.64887"><ele>788.0</ele><time>2026-05-03T08:17:23.742Z</time></trkpt><trkpt lat="42.288505" lon="13.64899"><ele>788.0</ele><time>2026-05-03T08:17:24.742Z</time></trkpt><trkpt lat="42.288385" lon="13.6490967"><ele>788.0</ele><time>2026-05-03T08:17:25.742Z</time></trkpt><trkpt lat="42.2882667" lon="13.6492167"><ele>788.0</ele><time>2026-05-03T08:17:26.742Z</time></trkpt><trkpt lat="42.2881533" lon="13.6493417"><ele>788.0</ele><time>2026-05-03T08:17:27.741Z</time></trkpt><trkpt lat="42.2880433" lon="13.6494833"><ele>788.0</ele><time>2026-05-03T08:17:28.741Z</time></trkpt><trkpt lat="42.2879517" lon="13.6496533"><ele>785.3333333333334</ele><time>2026-05-03T08:17:29.741Z</time></trkpt><trkpt lat="42.28786" lon="13.6498367"><ele>782.6666666666667</ele><time>2026-05-03T08:17:30.742Z</time></trkpt><trkpt lat="42.2877833" lon="13.6500333"><ele>780.0</ele><time>2026-05-03T08:17:31.742Z</time></trkpt><trkpt lat="42.28771" lon="13.6502267"><ele>781.25</ele><time>2026-05-03T08:17:32.742Z</time></trkpt><trkpt lat="42.2876483" lon="13.6504083"><ele>782.5</ele><time>2026-05-03T08:17:33.741Z</time></trkpt><trkpt lat="42.2875983" lon="13.650585"><ele>783.75</ele><time>2026-05-03T08:17:34.742Z</time></trkpt><trkpt lat="42.2875533" lon="13.6507667"><ele>785.0</ele><time>2026-05-03T08:17:35.742Z</time></trkpt><trkpt lat="42.2875283" lon="13.650955"><ele>785.75</ele><time>2026-05-03T08:17:36.742Z</time></trkpt><trkpt lat="42.287515" lon="13.6511467"><ele>786.5</ele><time>2026-05-03T08:17:37.742Z</time></trkpt><trkpt lat="42.28749" lon="13.6513283"><ele>787.25</ele><time>2026-05-03T08:17:38.742Z</time></trkpt><trkpt lat="42.287495" lon="13.6515217"><ele>788.0</ele><time>2026-05-03T08:17:39.742Z</time></trkpt><trkpt lat="42.2875183" lon="13.651705"><ele>788.0</ele><time>2026-05-03T08:17:40.742Z</time></trkpt><trkpt lat="42.2875417" lon="13.65188"><ele>788.0</ele><time>2026-05-03T08:17:41.741Z</time></trkpt><trkpt lat="42.2875483" lon="13.6520317"><ele>788.0</ele><time>2026-05-03T08:17:42.741Z</time></trkpt><trkpt lat="42.2875117" lon="13.6521633"><ele>788.0</ele><time>2026-05-03T08:17:43.742Z</time></trkpt><trkpt lat="42.28744" lon="13.6522967"><ele>789.25</ele><time>2026-05-03T08:17:44.742Z</time></trkpt><trkpt lat="42.287355" lon="13.6524233"><ele>790.5</ele><time>2026-05-03T08:17:45.742Z</time></trkpt><trkpt lat="42.2872767" lon="13.6525567"><ele>791.75</ele><time>2026-05-03T08:17:46.742Z</time></trkpt><trkpt lat="42.28721" lon="13.6526933"><ele>793.0</ele><time>2026-05-03T08:17:47.742Z</time></trkpt><trkpt lat="42.28715" lon="13.6528367"><ele>789.75</ele><time>2026-05-03T08:17:48.742Z</time></trkpt><trkpt lat="42.2871067" lon="13.6529983"><ele>786.5</ele><time>2026-05-03T08:17:49.742Z</time></trkpt><trkpt lat="42.287075" lon="13.6531683"><ele>783.25</ele><time>2026-05-03T08:17:50.741Z</time></trkpt><trkpt lat="42.28705" lon="13.6533633"><ele>780.0</ele><time>2026-05-03T08:17:51.742Z</time></trkpt><trkpt lat="42.2870167" lon="13.6535567"><ele>781.75</ele><time>2026-05-03T08:17:52.742Z</time></trkpt><trkpt lat="42.286985" lon="13.6537317"><ele>783.5</ele><time>2026-05-03T08:17:53.742Z</time></trkpt><trkpt lat="42.2869533" lon="13.653895"><ele>785.25</ele><time>2026-05-03T08:17:54.742Z</time></trkpt><trkpt lat="42.2869217" lon="13.6540333"><ele>787.0</ele><time>2026-05-03T08:17:55.742Z</time></trkpt><trkpt lat="42.28687" lon="13.6541417"><ele>787.0</ele><time>2026-05-03T08:17:56.742Z</time></trkpt><trkpt lat="42.2868067" lon="13.6542317"><ele>787.0</ele><time>2026-05-03T08:17:57.742Z</time></trkpt><trkpt lat="42.2867417" lon="13.6543333"><ele>787.0</ele><time>2026-05-03T08:17:58.742Z</time></trkpt><trkpt lat="42.286675" lon="13.6544383"><ele>787.0</ele><time>2026-05-03T08:17:59.742Z</time></trkpt><trkpt lat="42.286605" lon="13.654535"><ele>787.0</ele><time>2026-05-03T08:18:00.742Z</time></trkpt><trkpt lat="42.286535" lon="13.65463"><ele>788.0</ele><time>2026-05-03T08:18:01.742Z</time></trkpt><trkpt lat="42.2864683" lon="13.654725"><ele>789.0</ele><time>2026-05-03T08:18:02.742Z</time></trkpt><trkpt lat="42.2863983" lon="13.654815"><ele>790.0</ele><time>2026-05-03T08:18:03.742Z</time></trkpt><trkpt lat="42.2863333" lon="13.6548917"><ele>791.0</ele><time>2026-05-03T08:18:04.742Z</time></trkpt><trkpt lat="42.2862717" lon="13.6549633"><ele>792.0</ele><time>2026-05-03T08:18:05.741Z</time></trkpt><trkpt lat="42.2862133" lon="13.6550667"><ele>790.5</ele><time>2026-05-03T08:18:07.741Z</time></trkpt><trkpt lat="42.2861783" lon="13.655155"><ele>789.0</ele><time>2026-05-03T08:18:10.742Z</time></trkpt><trkpt lat="42.28618" lon="13.6552683"><ele>787.5</ele><time>2026-05-03T08:18:12.742Z</time></trkpt><trkpt lat="42.2861717" lon="13.6553817"><ele>786.0</ele><time>2026-05-03T08:18:14.741Z</time></trkpt><trkpt lat="42.286145" lon="13.6555067"><ele>784.5</ele><time>2026-05-03T08:18:16.741Z</time></trkpt><trkpt lat="42.2861133" lon="13.6556217"><ele>783.0</ele><time>2026-05-03T08:18:18.742Z</time></trkpt><trkpt lat="42.2860883" lon="13.6557267"><ele>783.0</ele><time>2026-05-03T08:18:20.742Z</time></trkpt><trkpt lat="42.2860633" lon="13.6558083"><ele>783.0</ele><time>2026-05-03T08:18:22.742Z</time></trkpt><trkpt lat="42.2860533" lon="13.65592"><ele>783.0</ele><time>2026-05-03T08:18:25.742Z</time></trkpt><trkpt lat="42.2860917" lon="13.6558383"><ele>783.0</ele><time>2026-05-03T08:18:32.741Z</time></trkpt><trkpt lat="42.2860983" lon="13.655705"><ele>783.0</ele><time>2026-05-03T08:18:34.742Z</time></trkpt><trkpt lat="42.2861133" lon="13.6556083"><ele>783.0</ele><time>2026-05-03T08:18:35.741Z</time></trkpt><trkpt lat="42.2861333" lon="13.655515"><ele>783.0</ele><time>2026-05-03T08:18:36.742Z</time></trkpt><trkpt lat="42.286185" lon="13.6553617"><ele>783.0</ele><time>2026-05-03T08:18:38.741Z</time></trkpt><trkpt lat="42.28622" lon="13.65525"><ele>783.0</ele><time>2026-05-03T08:18:40.741Z</time></trkpt><trkpt lat="42.2863067" lon="13.6552767"><ele>783.0</ele><time>2026-05-03T08:18:43.742Z</time></trkpt><trkpt lat="42.2863483" lon="13.6553467"><ele>783.0</ele><time>2026-05-03T08:18:45.742Z</time></trkpt><trkpt lat="42.2863883" lon="13.6554317"><ele>783.0</ele><time>2026-05-03T08:18:47.742Z</time></trkpt><trkpt lat="42.286405" lon="13.6555833"><ele>783.0</ele><time>2026-05-03T08:18:49.741Z</time></trkpt><trkpt lat="42.2863983" lon="13.6556833"><ele>783.0</ele><time>2026-05-03T08:18:50.742Z</time></trkpt><trkpt lat="42.2863917" lon="13.655785"><ele>783.0</ele><time>2026-05-03T08:18:51.741Z</time></trkpt><trkpt lat="42.28639" lon="13.6559017"><ele>783.0</ele><time>2026-05-03T08:18:52.742Z</time></trkpt><trkpt lat="42.2863817" lon="13.6560217"><ele>783.0</ele><time>2026-05-03T08:18:53.742Z</time></trkpt><trkpt lat="42.286375" lon="13.6561517"><ele>783.0</ele><time>2026-05-03T08:18:54.741Z</time></trkpt><trkpt lat="42.2863683" lon="13.6562733"><ele>783.6666666666666</ele><time>2026-05-03T08:18:55.742Z</time></trkpt><trkpt lat="42.286375" lon="13.6563817"><ele>784.3333333333333</ele><time>2026-05-03T08:18:56.742Z</time></trkpt><trkpt lat="42.2863867" lon="13.6564867"><ele>785.0</ele><time>2026-05-03T08:18:57.741Z</time></trkpt><trkpt lat="42.28642" lon="13.6565633"><ele>785.6666666666666</ele><time>2026-05-03T08:18:58.741Z</time></trkpt><trkpt lat="42.2865233" lon="13.6566267"><ele>786.3333333333333</ele><time>2026-05-03T08:19:00.741Z</time></trkpt><trkpt lat="42.2866233" lon="13.656665"><ele>787.0</ele><time>2026-05-03T08:19:02.741Z</time></trkpt><trkpt lat="42.2866883" lon="13.6567417"><ele>790.6</ele><time>2026-05-03T08:19:04.742Z</time></trkpt><trkpt lat="42.2867083" lon="13.656835"><ele>794.2</ele><time>2026-05-03T08:19:06.742Z</time></trkpt><trkpt lat="42.2866317" lon="13.6569817"><ele>797.8</ele><time>2026-05-03T08:19:08.742Z</time></trkpt><trkpt lat="42.28658" lon="13.657085"><ele>801.4</ele><time>2026-05-03T08:19:09.742Z</time></trkpt><trkpt lat="42.286525" lon="13.65718"><ele>805.0</ele><time>2026-05-03T08:19:10.741Z</time></trkpt><trkpt lat="42.2864533" lon="13.6572983"><ele>803.4999999999999</ele><time>2026-05-03T08:19:11.742Z</time></trkpt><trkpt lat="42.28639" lon="13.6573933"><ele>802.0</ele><time>2026-05-03T08:19:12.741Z</time></trkpt><trkpt lat="42.2863283" lon="13.6574733"><ele>800.5</ele><time>2026-05-03T08:19:13.742Z</time></trkpt><trkpt lat="42.2862683" lon="13.6575567"><ele>799.0</ele><time>2026-05-03T08:19:14.742Z</time></trkpt><trkpt lat="42.28621" lon="13.6576167"><ele>797.4999999999999</ele><time>2026-05-03T08:19:15.741Z</time></trkpt><trkpt lat="42.28617" lon="13.6577"><ele>796.0</ele><time>2026-05-03T08:19:16.742Z</time></trkpt><trkpt lat="42.286125" lon="13.65778"><ele>797.8333333333333</ele><time>2026-05-03T08:19:17.742Z</time></trkpt><trkpt lat="42.28608" lon="13.657865"><ele>799.6666666666666</ele><time>2026-05-03T08:19:18.742Z</time></trkpt><trkpt lat="42.2860233" lon="13.6579283"><ele>801.5</ele><time>2026-05-03T08:19:19.741Z</time></trkpt><trkpt lat="42.285975" lon="13.658005"><ele>803.3333333333333</ele><time>2026-05-03T08:19:20.742Z</time></trkpt><trkpt lat="42.28592" lon="13.6580783"><ele>805.1666666666666</ele><time>2026-05-03T08:19:21.742Z</time></trkpt><trkpt lat="42.2858733" lon="13.6581633"><ele>807.0</ele><time>2026-05-03T08:19:22.742Z</time></trkpt><trkpt lat="42.2858267" lon="13.65825"><ele>807.0</ele><time>2026-05-03T08:19:23.742Z</time></trkpt><trkpt lat="42.2857733" lon="13.65833"><ele>807.0</ele><time>2026-05-03T08:19:24.741Z</time></trkpt><trkpt lat="42.2857267" lon="13.6584067"><ele>807.0</ele><time>2026-05-03T08:19:25.742Z</time></trkpt><trkpt lat="42.2856683" lon="13.6584917"><ele>807.0</ele><time>2026-05-03T08:19:26.742Z</time></trkpt><trkpt lat="42.2856183" lon="13.6585717"><ele>807.0</ele><time>2026-05-03T08:19:27.741Z</time></trkpt><trkpt lat="42.2855767" lon="13.65865"><ele>807.0</ele><time>2026-05-03T08:19:28.742Z</time></trkpt><trkpt lat="42.2855417" lon="13.6587267"><ele>805.2</ele><time>2026-05-03T08:19:29.742Z</time></trkpt><trkpt lat="42.2854967" lon="13.6587867"><ele>803.4000000000001</ele><time>2026-05-03T08:19:30.741Z</time></trkpt><trkpt lat="42.2854217" lon="13.65888"><ele>801.5999999999999</ele><time>2026-05-03T08:19:32.741Z</time></trkpt><trkpt lat="42.2853967" lon="13.6589767"><ele>799.8</ele><time>2026-05-03T08:19:34.742Z</time></trkpt><trkpt lat="42.2853267" lon="13.65907"><ele>798.0</ele><time>2026-05-03T08:19:36.742Z</time></trkpt><trkpt lat="42.2852317" lon="13.6591867"><ele>798.0</ele><time>2026-05-03T08:19:38.742Z</time></trkpt><trkpt lat="42.28518" lon="13.65925"><ele>798.0</ele><time>2026-05-03T08:19:39.742Z</time></trkpt><trkpt lat="42.28508" lon="13.6593533"><ele>798.0</ele><time>2026-05-03T08:19:41.742Z</time></trkpt><trkpt lat="42.2850183" lon="13.6594067"><ele>798.0</ele><time>2026-05-03T08:19:42.742Z</time></trkpt><trkpt lat="42.2849767" lon="13.65948"><ele>798.0</ele><time>2026-05-03T08:19:43.742Z</time></trkpt><trkpt lat="42.284945" lon="13.65956"><ele>798.0</ele><time>2026-05-03T08:19:44.742Z</time></trkpt><trkpt lat="42.2849183" lon="13.65965"><ele>797.5</ele><time>2026-05-03T08:19:45.742Z</time></trkpt><trkpt lat="42.28491" lon="13.6597383"><ele>797.0</ele><time>2026-05-03T08:19:46.742Z</time></trkpt><trkpt lat="42.2848867" lon="13.6598367"><ele>796.5</ele><time>2026-05-03T08:19:47.742Z</time></trkpt><trkpt lat="42.2848517" lon="13.65993"><ele>796.0</ele><time>2026-05-03T08:19:48.742Z</time></trkpt><trkpt lat="42.28481" lon="13.6600183"><ele>795.5</ele><time>2026-05-03T08:19:49.741Z</time></trkpt><trkpt lat="42.284755" lon="13.6601"><ele>795.0</ele><time>2026-05-03T08:19:50.742Z</time></trkpt><trkpt lat="42.284685" lon="13.6601833"><ele>795.0</ele><time>2026-05-03T08:19:51.741Z</time></trkpt><trkpt lat="42.2846033" lon="13.6602683"><ele>795.0</ele><time>2026-05-03T08:19:52.741Z</time></trkpt><trkpt lat="42.2845233" lon="13.660345"><ele>795.0</ele><time>2026-05-03T08:19:53.742Z</time></trkpt><trkpt lat="42.2844433" lon="13.66041"><ele>795.0</ele><time>2026-05-03T08:19:54.742Z</time></trkpt><trkpt lat="42.2843467" lon="13.660475"><ele>795.0</ele><time>2026-05-03T08:19:55.742Z</time></trkpt><trkpt lat="42.2842567" lon="13.66055"><ele>800.25</ele><time>2026-05-03T08:19:56.741Z</time></trkpt><trkpt lat="42.2841683" lon="13.6606517"><ele>805.5</ele><time>2026-05-03T08:19:57.742Z</time></trkpt><trkpt lat="42.2840917" lon="13.66077"><ele>810.75</ele><time>2026-05-03T08:19:58.742Z</time></trkpt><trkpt lat="42.2840283" lon="13.660895"><ele>816.0</ele><time>2026-05-03T08:19:59.742Z</time></trkpt><trkpt lat="42.283965" lon="13.661035"><ele>814.75</ele><time>2026-05-03T08:20:00.741Z</time></trkpt><trkpt lat="42.2839117" lon="13.6611783"><ele>813.5</ele><time>2026-05-03T08:20:01.742Z</time></trkpt><trkpt lat="42.2838567" lon="13.66131"><ele>812.25</ele><time>2026-05-03T08:20:02.742Z</time></trkpt><trkpt lat="42.2838067" lon="13.661445"><ele>811.0</ele><time>2026-05-03T08:20:03.742Z</time></trkpt><trkpt lat="42.2837567" lon="13.66159"><ele>811.0</ele><time>2026-05-03T08:20:04.742Z</time></trkpt><trkpt lat="42.2837117" lon="13.6617417"><ele>811.0</ele><time>2026-05-03T08:20:05.741Z</time></trkpt><trkpt lat="42.2836583" lon="13.6619133"><ele>811.0</ele><time>2026-05-03T08:20:06.742Z</time></trkpt><trkpt lat="42.2836083" lon="13.6620983"><ele>811.0</ele><time>2026-05-03T08:20:07.742Z</time></trkpt><trkpt lat="42.2835583" lon="13.66228"><ele>815.75</ele><time>2026-05-03T08:20:08.742Z</time></trkpt><trkpt lat="42.2834967" lon="13.6624467"><ele>820.5</ele><time>2026-05-03T08:20:09.742Z</time></trkpt><trkpt lat="42.2834383" lon="13.662605"><ele>825.25</ele><time>2026-05-03T08:20:10.741Z</time></trkpt><trkpt lat="42.2833833" lon="13.662755"><ele>830.0</ele><time>2026-05-03T08:20:11.741Z</time></trkpt><trkpt lat="42.283335" lon="13.6629083"><ele>834.0</ele><time>2026-05-03T08:20:12.742Z</time></trkpt><trkpt lat="42.283275" lon="13.6630483"><ele>838.0</ele><time>2026-05-03T08:20:13.741Z</time></trkpt><trkpt lat="42.2832233" lon="13.6631717"><ele>842.0</ele><time>2026-05-03T08:20:14.742Z</time></trkpt><trkpt lat="42.2831633" lon="13.66331"><ele>846.0</ele><time>2026-05-03T08:20:15.741Z</time></trkpt><trkpt lat="42.2830983" lon="13.6634383"><ele>841.5</ele><time>2026-05-03T08:20:16.742Z</time></trkpt><trkpt lat="42.2830517" lon="13.6635817"><ele>837.0</ele><time>2026-05-03T08:20:17.741Z</time></trkpt><trkpt lat="42.28299" lon="13.66373"><ele>832.5</ele><time>2026-05-03T08:20:18.742Z</time></trkpt><trkpt lat="42.2829283" lon="13.6638733"><ele>828.0</ele><time>2026-05-03T08:20:19.742Z</time></trkpt><trkpt lat="42.28286" lon="13.6640183"><ele>828.0</ele><time>2026-05-03T08:20:20.742Z</time></trkpt><trkpt lat="42.2827883" lon="13.6641733"><ele>828.0</ele><time>2026-05-03T08:20:21.742Z</time></trkpt><trkpt lat="42.2827267" lon="13.6643217"><ele>828.0</ele><time>2026-05-03T08:20:22.742Z</time></trkpt><trkpt lat="42.28266" lon="13.6644733"><ele>828.0</ele><time>2026-05-03T08:20:23.742Z</time></trkpt><trkpt lat="42.2825967" lon="13.6646183"><ele>831.75</ele><time>2026-05-03T08:20:24.742Z</time></trkpt><trkpt lat="42.28253" lon="13.6647683"><ele>835.5</ele><time>2026-05-03T08:20:25.742Z</time></trkpt><trkpt lat="42.2824683" lon="13.6649167"><ele>839.25</ele><time>2026-05-03T08:20:26.742Z</time></trkpt><trkpt lat="42.2824083" lon="13.6650683"><ele>843.0</ele><time>2026-05-03T08:20:27.742Z</time></trkpt><trkpt lat="42.2823483" lon="13.66521"><ele>846.75</ele><time>2026-05-03T08:20:28.742Z</time></trkpt><trkpt lat="42.2822933" lon="13.66536"><ele>850.5</ele><time>2026-05-03T08:20:29.741Z</time></trkpt><trkpt lat="42.2822233" lon="13.665525"><ele>854.25</ele><time>2026-05-03T08:20:30.741Z</time></trkpt><trkpt lat="42.2821567" lon="13.665685"><ele>858.0</ele><time>2026-05-03T08:20:31.741Z</time></trkpt><trkpt lat="42.2820867" lon="13.6658483"><ele>854.0</ele><time>2026-05-03T08:20:32.742Z</time></trkpt><trkpt lat="42.2820183" lon="13.6660067"><ele>850.0</ele><time>2026-05-03T08:20:33.741Z</time></trkpt><trkpt lat="42.2819483" lon="13.666165"><ele>846.0</ele><time>2026-05-03T08:20:34.742Z</time></trkpt><trkpt lat="42.2818667" lon="13.6663183"><ele>842.0</ele><time>2026-05-03T08:20:35.742Z</time></trkpt><trkpt lat="42.281805" lon="13.6664567"><ele>842.0</ele><time>2026-05-03T08:20:36.742Z</time></trkpt><trkpt lat="42.28176" lon="13.6666067"><ele>842.0</ele><time>2026-05-03T08:20:37.742Z</time></trkpt><trkpt lat="42.2817017" lon="13.66675"><ele>842.0</ele><time>2026-05-03T08:20:38.742Z</time></trkpt><trkpt lat="42.2816433" lon="13.6668917"><ele>842.0</ele><time>2026-05-03T08:20:39.742Z</time></trkpt><trkpt lat="42.2815883" lon="13.6670233"><ele>839.25</ele><time>2026-05-03T08:20:40.742Z</time></trkpt><trkpt lat="42.2815417" lon="13.667165"><ele>836.5</ele><time>2026-05-03T08:20:41.742Z</time></trkpt><trkpt lat="42.281485" lon="13.6673117"><ele>833.75</ele><time>2026-05-03T08:20:42.742Z</time></trkpt><trkpt lat="42.2814317" lon="13.6674633"><ele>831.0</ele><time>2026-05-03T08:20:43.742Z</time></trkpt><trkpt lat="42.2813733" lon="13.6676067"><ele>831.0</ele><time>2026-05-03T08:20:44.742Z</time></trkpt><trkpt lat="42.2813083" lon="13.6677633"><ele>831.0</ele><time>2026-05-03T08:20:45.741Z</time></trkpt><trkpt lat="42.2812383" lon="13.6679133"><ele>831.0</ele><time>2026-05-03T08:20:46.741Z</time></trkpt><trkpt lat="42.2811583" lon="13.6680633"><ele>831.0</ele><time>2026-05-03T08:20:47.742Z</time></trkpt><trkpt lat="42.2810833" lon="13.668205"><ele>834.0</ele><time>2026-05-03T08:20:48.742Z</time></trkpt><trkpt lat="42.28101" lon="13.6683367"><ele>837.0</ele><time>2026-05-03T08:20:49.741Z</time></trkpt><trkpt lat="42.2809267" lon="13.6684783"><ele>840.0</ele><time>2026-05-03T08:20:50.742Z</time></trkpt><trkpt lat="42.2808617" lon="13.6686083"><ele>843.0</ele><time>2026-05-03T08:20:51.742Z</time></trkpt><trkpt lat="42.2807883" lon="13.6687283"><ele>841.0</ele><time>2026-05-03T08:20:52.742Z</time></trkpt><trkpt lat="42.2806933" lon="13.668845"><ele>839.0</ele><time>2026-05-03T08:20:53.742Z</time></trkpt><trkpt lat="42.2805933" lon="13.6689767"><ele>837.0</ele><time>2026-05-03T08:20:54.742Z</time></trkpt><trkpt lat="42.28051" lon="13.6691067"><ele>835.0</ele><time>2026-05-03T08:20:55.741Z</time></trkpt><trkpt lat="42.2804167" lon="13.66923"><ele>835.0</ele><time>2026-05-03T08:20:56.741Z</time></trkpt><trkpt lat="42.2803167" lon="13.669365"><ele>835.0</ele><time>2026-05-03T08:20:57.741Z</time></trkpt><trkpt lat="42.2802267" lon="13.669495"><ele>835.0</ele><time>2026-05-03T08:20:58.741Z</time></trkpt><trkpt lat="42.2801383" lon="13.669625"><ele>835.0</ele><time>2026-05-03T08:20:59.742Z</time></trkpt><trkpt lat="42.2800367" lon="13.66974"><ele>833.25</ele><time>2026-05-03T08:21:00.741Z</time></trkpt><trkpt lat="42.27994" lon="13.669885"><ele>831.5</ele><time>2026-05-03T08:21:01.741Z</time></trkpt><trkpt lat="42.279855" lon="13.6700317"><ele>829.75</ele><time>2026-05-03T08:21:02.741Z</time></trkpt><trkpt lat="42.2797567" lon="13.67018"><ele>828.0</ele><time>2026-05-03T08:21:03.741Z</time></trkpt><trkpt lat="42.2796617" lon="13.6702967"><ele>831.75</ele><time>2026-05-03T08:21:04.742Z</time></trkpt><trkpt lat="42.27957" lon="13.67043"><ele>835.5</ele><time>2026-05-03T08:21:05.742Z</time></trkpt><trkpt lat="42.2794767" lon="13.6705667"><ele>839.25</ele><time>2026-05-03T08:21:06.742Z</time></trkpt><trkpt lat="42.27939" lon="13.6707133"><ele>843.0</ele><time>2026-05-03T08:21:07.741Z</time></trkpt><trkpt lat="42.2793" lon="13.6708633"><ele>843.0</ele><time>2026-05-03T08:21:08.741Z</time></trkpt><trkpt lat="42.2792067" lon="13.6709933"><ele>843.0</ele><time>2026-05-03T08:21:09.741Z</time></trkpt><trkpt lat="42.2791067" lon="13.67113"><ele>843.0</ele><time>2026-05-03T08:21:10.741Z</time></trkpt><trkpt lat="42.27901" lon="13.6712617"><ele>843.0</ele><time>2026-05-03T08:21:11.741Z</time></trkpt><trkpt lat="42.2789067" lon="13.6713967"><ele>841.5</ele><time>2026-05-03T08:21:12.742Z</time></trkpt><trkpt lat="42.2788083" lon="13.6715233"><ele>840.0</ele><time>2026-05-03T08:21:13.742Z</time></trkpt><trkpt lat="42.2787133" lon="13.6716667"><ele>838.5</ele><time>2026-05-03T08:21:14.741Z</time></trkpt><trkpt lat="42.278625" lon="13.6718017"><ele>837.0</ele><time>2026-05-03T08:21:15.742Z</time></trkpt><trkpt lat="42.2785383" lon="13.671925"><ele>840.75</ele><time>2026-05-03T08:21:16.741Z</time></trkpt><trkpt lat="42.2784517" lon="13.6720667"><ele>844.5</ele><time>2026-05-03T08:21:17.742Z</time></trkpt><trkpt lat="42.2783683" lon="13.672225"><ele>848.25</ele><time>2026-05-03T08:21:18.741Z</time></trkpt><trkpt lat="42.2782817" lon="13.6723733"><ele>852.0</ele><time>2026-05-03T08:21:19.742Z</time></trkpt><trkpt lat="42.2781933" lon="13.6725133"><ele>849.25</ele><time>2026-05-03T08:21:20.742Z</time></trkpt><trkpt lat="42.2780983" lon="13.6726683"><ele>846.5</ele><time>2026-05-03T08:21:21.741Z</time></trkpt><trkpt lat="42.2780017" lon="13.67281"><ele>843.75</ele><time>2026-05-03T08:21:22.741Z</time></trkpt><trkpt lat="42.2778983" lon="13.67296"><ele>841.0</ele><time>2026-05-03T08:21:23.74Z</time></trkpt><trkpt lat="42.2777933" lon="13.6730917"><ele>841.0</ele><time>2026-05-03T08:21:24.741Z</time></trkpt><trkpt lat="42.277695" lon="13.6732217"><ele>841.0</ele><time>2026-05-03T08:21:25.741Z</time></trkpt><trkpt lat="42.2775983" lon="13.6733533"><ele>841.0</ele><time>2026-05-03T08:21:26.741Z</time></trkpt><trkpt lat="42.2775017" lon="13.6734783"><ele>841.0</ele><time>2026-05-03T08:21:27.74Z</time></trkpt><trkpt lat="42.2774133" lon="13.67362"><ele>840.5</ele><time>2026-05-03T08:21:28.74Z</time></trkpt><trkpt lat="42.277315" lon="13.67377"><ele>840.0</ele><time>2026-05-03T08:21:29.741Z</time></trkpt><trkpt lat="42.2772133" lon="13.6739133"><ele>839.5</ele><time>2026-05-03T08:21:30.74Z</time></trkpt><trkpt lat="42.277105" lon="13.6740483"><ele>839.0</ele><time>2026-05-03T08:21:31.74Z</time></trkpt><trkpt lat="42.27701" lon="13.67419"><ele>839.0</ele><time>2026-05-03T08:21:32.74Z</time></trkpt><trkpt lat="42.27693" lon="13.6743233"><ele>839.0</ele><time>2026-05-03T08:21:33.741Z</time></trkpt><trkpt lat="42.2768467" lon="13.674455"><ele>839.0</ele><time>2026-05-03T08:21:34.741Z</time></trkpt><trkpt lat="42.2767567" lon="13.6745817"><ele>839.0</ele><time>2026-05-03T08:21:35.741Z</time></trkpt><trkpt lat="42.2766633" lon="13.6747217"><ele>837.75</ele><time>2026-05-03T08:21:36.741Z</time></trkpt><trkpt lat="42.2765767" lon="13.6748417"><ele>836.5</ele><time>2026-05-03T08:21:37.74Z</time></trkpt><trkpt lat="42.276495" lon="13.67496"><ele>835.25</ele><time>2026-05-03T08:21:38.741Z</time></trkpt><trkpt lat="42.2764033" lon="13.6750833"><ele>834.0</ele><time>2026-05-03T08:21:39.74Z</time></trkpt><trkpt lat="42.27631" lon="13.6752083"><ele>837.5</ele><time>2026-05-03T08:21:40.741Z</time></trkpt><trkpt lat="42.276215" lon="13.6753383"><ele>841.0</ele><time>2026-05-03T08:21:41.74Z</time></trkpt><trkpt lat="42.2761183" lon="13.6754683"><ele>844.5</ele><time>2026-05-03T08:21:42.74Z</time></trkpt><trkpt lat="42.276015" lon="13.6755867"><ele>848.0</ele><time>2026-05-03T08:21:43.741Z</time></trkpt><trkpt lat="42.2759167" lon="13.6757083"><ele>848.0</ele><time>2026-05-03T08:21:44.741Z</time></trkpt><trkpt lat="42.2758183" lon="13.675835"><ele>848.0</ele><time>2026-05-03T08:21:45.741Z</time></trkpt><trkpt lat="42.275725" lon="13.675965"><ele>848.0</ele><time>2026-05-03T08:21:46.741Z</time></trkpt><trkpt lat="42.2756417" lon="13.676085"><ele>848.0</ele><time>2026-05-03T08:21:47.741Z</time></trkpt><trkpt lat="42.27556" lon="13.676215"><ele>847.5</ele><time>2026-05-03T08:21:48.741Z</time></trkpt><trkpt lat="42.27547" lon="13.6763333"><ele>847.0</ele><time>2026-05-03T08:21:49.74Z</time></trkpt><trkpt lat="42.27538" lon="13.6764467"><ele>846.5</ele><time>2026-05-03T08:21:50.74Z</time></trkpt><trkpt lat="42.2752967" lon="13.67656"><ele>846.0</ele><time>2026-05-03T08:21:51.741Z</time></trkpt><trkpt lat="42.2752217" lon="13.676675"><ele>846.0</ele><time>2026-05-03T08:21:52.741Z</time></trkpt><trkpt lat="42.275145" lon="13.6767833"><ele>846.0</ele><time>2026-05-03T08:21:53.74Z</time></trkpt><trkpt lat="42.2750667" lon="13.676895"><ele>846.0</ele><time>2026-05-03T08:21:54.741Z</time></trkpt><trkpt lat="42.2749883" lon="13.677"><ele>846.0</ele><time>2026-05-03T08:21:55.741Z</time></trkpt><trkpt lat="42.2749133" lon="13.6770933"><ele>846.0</ele><time>2026-05-03T08:21:56.741Z</time></trkpt><trkpt lat="42.2748417" lon="13.67719"><ele>846.5999999999999</ele><time>2026-05-03T08:21:57.74Z</time></trkpt><trkpt lat="42.274775" lon="13.6772933"><ele>847.2</ele><time>2026-05-03T08:21:58.741Z</time></trkpt><trkpt lat="42.2747067" lon="13.6773917"><ele>847.8</ele><time>2026-05-03T08:21:59.74Z</time></trkpt><trkpt lat="42.27463" lon="13.6774933"><ele>848.4000000000001</ele><time>2026-05-03T08:22:00.741Z</time></trkpt><trkpt lat="42.27454" lon="13.6776"><ele>849.0</ele><time>2026-05-03T08:22:01.741Z</time></trkpt><trkpt lat="42.2744517" lon="13.6776983"><ele>852.8000000000001</ele><time>2026-05-03T08:22:02.741Z</time></trkpt><trkpt lat="42.2743717" lon="13.6777967"><ele>856.6</ele><time>2026-05-03T08:22:03.74Z</time></trkpt><trkpt lat="42.2742933" lon="13.6778983"><ele>860.4</ele><time>2026-05-03T08:22:04.74Z</time></trkpt><trkpt lat="42.274215" lon="13.6779967"><ele>864.2</ele><time>2026-05-03T08:22:05.74Z</time></trkpt><trkpt lat="42.2741367" lon="13.6780933"><ele>868.0</ele><time>2026-05-03T08:22:06.74Z</time></trkpt><trkpt lat="42.2740583" lon="13.678205"><ele>868.0</ele><time>2026-05-03T08:22:07.741Z</time></trkpt><trkpt lat="42.2739783" lon="13.67832"><ele>868.0</ele><time>2026-05-03T08:22:08.74Z</time></trkpt><trkpt lat="42.2738917" lon="13.6784317"><ele>868.0</ele><time>2026-05-03T08:22:09.741Z</time></trkpt><trkpt lat="42.2738" lon="13.6785483"><ele>868.0</ele><time>2026-05-03T08:22:10.741Z</time></trkpt><trkpt lat="42.2737183" lon="13.6786683"><ele>867.25</ele><time>2026-05-03T08:22:11.74Z</time></trkpt><trkpt lat="42.2736233" lon="13.6788017"><ele>866.5</ele><time>2026-05-03T08:22:12.741Z</time></trkpt><trkpt lat="42.2735467" lon="13.678935"><ele>865.75</ele><time>2026-05-03T08:22:13.74Z</time></trkpt><trkpt lat="42.2734617" lon="13.6790717"><ele>865.0</ele><time>2026-05-03T08:22:14.741Z</time></trkpt><trkpt lat="42.2733917" lon="13.679215"><ele>865.0</ele><time>2026-05-03T08:22:15.741Z</time></trkpt><trkpt lat="42.2733117" lon="13.6793667"><ele>865.0</ele><time>2026-05-03T08:22:16.741Z</time></trkpt><trkpt lat="42.2732433" lon="13.6795267"><ele>865.0</ele><time>2026-05-03T08:22:17.74Z</time></trkpt><trkpt lat="42.2731783" lon="13.679675"><ele>865.0</ele><time>2026-05-03T08:22:18.741Z</time></trkpt><trkpt lat="42.2731217" lon="13.67984"><ele>864.5</ele><time>2026-05-03T08:22:19.741Z</time></trkpt><trkpt lat="42.273065" lon="13.6800067"><ele>864.0</ele><time>2026-05-03T08:22:20.74Z</time></trkpt><trkpt lat="42.2730067" lon="13.6801767"><ele>863.5</ele><time>2026-05-03T08:22:21.741Z</time></trkpt><trkpt lat="42.2729533" lon="13.6803467"><ele>863.0</ele><time>2026-05-03T08:22:22.74Z</time></trkpt><trkpt lat="42.272895" lon="13.6805167"><ele>863.0</ele><time>2026-05-03T08:22:23.741Z</time></trkpt><trkpt lat="42.2728267" lon="13.68068"><ele>863.0</ele><time>2026-05-03T08:22:24.74Z</time></trkpt><trkpt lat="42.27275" lon="13.6808433"><ele>863.0</ele><time>2026-05-03T08:22:25.741Z</time></trkpt><trkpt lat="42.2726883" lon="13.6810217"><ele>863.0</ele><time>2026-05-03T08:22:26.74Z</time></trkpt><trkpt lat="42.27263" lon="13.68119"><ele>865.75</ele><time>2026-05-03T08:22:27.741Z</time></trkpt><trkpt lat="42.2725617" lon="13.6813533"><ele>868.5</ele><time>2026-05-03T08:22:28.741Z</time></trkpt><trkpt lat="42.2725067" lon="13.6815033"><ele>871.25</ele><time>2026-05-03T08:22:29.741Z</time></trkpt><trkpt lat="42.27245" lon="13.6816567"><ele>874.0</ele><time>2026-05-03T08:22:30.741Z</time></trkpt><trkpt lat="42.2723883" lon="13.68181"><ele>871.25</ele><time>2026-05-03T08:22:31.741Z</time></trkpt><trkpt lat="42.2723117" lon="13.6819667"><ele>868.5</ele><time>2026-05-03T08:22:32.741Z</time></trkpt><trkpt lat="42.2722483" lon="13.6821217"><ele>865.75</ele><time>2026-05-03T08:22:33.741Z</time></trkpt><trkpt lat="42.2721933" lon="13.682275"><ele>863.0</ele><time>2026-05-03T08:22:34.74Z</time></trkpt><trkpt lat="42.2721183" lon="13.6824083"><ele>863.0</ele><time>2026-05-03T08:22:35.74Z</time></trkpt><trkpt lat="42.2720467" lon="13.6825583"><ele>863.0</ele><time>2026-05-03T08:22:36.741Z</time></trkpt><trkpt lat="42.27199" lon="13.68271"><ele>863.0</ele><time>2026-05-03T08:22:37.74Z</time></trkpt><trkpt lat="42.2719333" lon="13.68286"><ele>863.0</ele><time>2026-05-03T08:22:38.74Z</time></trkpt><trkpt lat="42.271875" lon="13.6830033"><ele>864.8</ele><time>2026-05-03T08:22:39.74Z</time></trkpt><trkpt lat="42.2718283" lon="13.6831283"><ele>866.5999999999999</ele><time>2026-05-03T08:22:40.741Z</time></trkpt><trkpt lat="42.2717883" lon="13.6832667"><ele>868.4000000000001</ele><time>2026-05-03T08:22:41.741Z</time></trkpt><trkpt lat="42.271755" lon="13.6834083"><ele>870.2</ele><time>2026-05-03T08:22:42.741Z</time></trkpt><trkpt lat="42.271715" lon="13.68355"><ele>872.0</ele><time>2026-05-03T08:22:43.741Z</time></trkpt><trkpt lat="42.2716833" lon="13.683675"><ele>875.4000000000001</ele><time>2026-05-03T08:22:44.741Z</time></trkpt><trkpt lat="42.2716483" lon="13.683785"><ele>878.8000000000001</ele><time>2026-05-03T08:22:45.74Z</time></trkpt><trkpt lat="42.2716117" lon="13.683895"><ele>882.2</ele><time>2026-05-03T08:22:46.741Z</time></trkpt><trkpt lat="42.2715767" lon="13.684005"><ele>885.6</ele><time>2026-05-03T08:22:47.741Z</time></trkpt><trkpt lat="42.2715417" lon="13.6841267"><ele>889.0</ele><time>2026-05-03T08:22:48.74Z</time></trkpt><trkpt lat="42.2714967" lon="13.6842517"><ele>888.4000000000001</ele><time>2026-05-03T08:22:49.741Z</time></trkpt><trkpt lat="42.2714333" lon="13.6843617"><ele>887.8000000000001</ele><time>2026-05-03T08:22:50.741Z</time></trkpt><trkpt lat="42.27136" lon="13.684475"><ele>887.1999999999999</ele><time>2026-05-03T08:22:51.74Z</time></trkpt><trkpt lat="42.27128" lon="13.6845817"><ele>886.5999999999999</ele><time>2026-05-03T08:22:52.741Z</time></trkpt><trkpt lat="42.2712017" lon="13.684695"><ele>886.0</ele><time>2026-05-03T08:22:53.741Z</time></trkpt><trkpt lat="42.2711333" lon="13.6848067"><ele>885.9999999999999</ele><time>2026-05-03T08:22:54.741Z</time></trkpt><trkpt lat="42.271065" lon="13.6849117"><ele>886.0</ele><time>2026-05-03T08:22:55.741Z</time></trkpt><trkpt lat="42.2710017" lon="13.6850083"><ele>886.0</ele><time>2026-05-03T08:22:56.74Z</time></trkpt><trkpt lat="42.27095" lon="13.6850983"><ele>886.0</ele><time>2026-05-03T08:22:57.741Z</time></trkpt><trkpt lat="42.2709067" lon="13.68519"><ele>885.9999999999999</ele><time>2026-05-03T08:22:58.74Z</time></trkpt><trkpt lat="42.2708633" lon="13.6852833"><ele>886.0</ele><time>2026-05-03T08:22:59.74Z</time></trkpt><trkpt lat="42.27082" lon="13.6853783"><ele>888.8333333333333</ele><time>2026-05-03T08:23:00.74Z</time></trkpt><trkpt lat="42.2707733" lon="13.6854783"><ele>891.6666666666666</ele><time>2026-05-03T08:23:01.74Z</time></trkpt><trkpt lat="42.2707367" lon="13.6855767"><ele>894.5</ele><time>2026-05-03T08:23:02.741Z</time></trkpt><trkpt lat="42.2707" lon="13.6856767"><ele>897.3333333333333</ele><time>2026-05-03T08:23:03.741Z</time></trkpt><trkpt lat="42.2706683" lon="13.6857683"><ele>900.1666666666666</ele><time>2026-05-03T08:23:04.74Z</time></trkpt><trkpt lat="42.270645" lon="13.6858683"><ele>903.0</ele><time>2026-05-03T08:23:05.741Z</time></trkpt><trkpt lat="42.2706283" lon="13.6859783"><ele>905.8</ele><time>2026-05-03T08:23:06.74Z</time></trkpt><trkpt lat="42.2706183" lon="13.6860967"><ele>908.5999999999999</ele><time>2026-05-03T08:23:07.741Z</time></trkpt><trkpt lat="42.2706133" lon="13.6862267"><ele>911.4000000000001</ele><time>2026-05-03T08:23:08.741Z</time></trkpt><trkpt lat="42.2706217" lon="13.6863617"><ele>914.2</ele><time>2026-05-03T08:23:09.741Z</time></trkpt><trkpt lat="42.2706433" lon="13.6865067"><ele>917.0</ele><time>2026-05-03T08:23:10.741Z</time></trkpt><trkpt lat="42.2706733" lon="13.6866333"><ele>917.0</ele><time>2026-05-03T08:23:11.74Z</time></trkpt><trkpt lat="42.2707167" lon="13.68676"><ele>917.0</ele><time>2026-05-03T08:23:12.74Z</time></trkpt><trkpt lat="42.2707583" lon="13.6868767"><ele>917.0</ele><time>2026-05-03T08:23:13.741Z</time></trkpt><trkpt lat="42.2707883" lon="13.686985"><ele>917.0</ele><time>2026-05-03T08:23:14.741Z</time></trkpt><trkpt lat="42.2708083" lon="13.6871017"><ele>917.0</ele><time>2026-05-03T08:23:15.741Z</time></trkpt><trkpt lat="42.2708283" lon="13.6872283"><ele>917.6</ele><time>2026-05-03T08:23:16.741Z</time></trkpt><trkpt lat="42.2708383" lon="13.687365"><ele>918.2</ele><time>2026-05-03T08:23:17.74Z</time></trkpt><trkpt lat="42.2708333" lon="13.6875083"><ele>918.8</ele><time>2026-05-03T08:23:18.74Z</time></trkpt><trkpt lat="42.2708183" lon="13.6876533"><ele>919.4</ele><time>2026-05-03T08:23:19.74Z</time></trkpt><trkpt lat="42.2707983" lon="13.6878117"><ele>920.0</ele><time>2026-05-03T08:23:20.741Z</time></trkpt><trkpt lat="42.2707783" lon="13.687945"><ele>920.0000000000001</ele><time>2026-05-03T08:23:21.741Z</time></trkpt><trkpt lat="42.2707783" lon="13.6880583"><ele>920.0</ele><time>2026-05-03T08:23:22.741Z</time></trkpt><trkpt lat="42.2707983" lon="13.688145"><ele>920.0</ele><time>2026-05-03T08:23:23.741Z</time></trkpt><trkpt lat="42.2708883" lon="13.6881833"><ele>920.0</ele><time>2026-05-03T08:23:25.74Z</time></trkpt><trkpt lat="42.27096" lon="13.68813"><ele>920.0000000000001</ele><time>2026-05-03T08:23:27.74Z</time></trkpt><trkpt lat="42.2709933" lon="13.6880517"><ele>920.0</ele><time>2026-05-03T08:23:28.74Z</time></trkpt><trkpt lat="42.2710233" lon="13.6879533"><ele>920.0</ele><time>2026-05-03T08:23:29.741Z</time></trkpt><trkpt lat="42.2710433" lon="13.6878417"><ele>920.0</ele><time>2026-05-03T08:23:30.741Z</time></trkpt><trkpt lat="42.2710667" lon="13.68772"><ele>920.0</ele><time>2026-05-03T08:23:31.741Z</time></trkpt><trkpt lat="42.2710817" lon="13.6875833"><ele>920.0</ele><time>2026-05-03T08:23:32.74Z</time></trkpt><trkpt lat="42.27111" lon="13.6874583"><ele>920.0</ele><time>2026-05-03T08:23:33.74Z</time></trkpt><trkpt lat="42.2711383" lon="13.6873283"><ele>919.5000000000001</ele><time>2026-05-03T08:23:34.741Z</time></trkpt><trkpt lat="42.27117" lon="13.6871967"><ele>919.0</ele><time>2026-05-03T08:23:35.74Z</time></trkpt><trkpt lat="42.271205" lon="13.6870767"><ele>918.5</ele><time>2026-05-03T08:23:36.74Z</time></trkpt><trkpt lat="42.27124" lon="13.6869583"><ele>918.0</ele><time>2026-05-03T08:23:37.74Z</time></trkpt><trkpt lat="42.2712733" lon="13.6868567"><ele>917.5000000000001</ele><time>2026-05-03T08:23:38.741Z</time></trkpt><trkpt lat="42.2713117" lon="13.68678"><ele>917.0</ele><time>2026-05-03T08:23:39.741Z</time></trkpt><trkpt lat="42.2713983" lon="13.6868133"><ele>918.4000000000001</ele><time>2026-05-03T08:23:41.741Z</time></trkpt><trkpt lat="42.2714533" lon="13.6869117"><ele>919.8000000000001</ele><time>2026-05-03T08:23:43.74Z</time></trkpt><trkpt lat="42.271445" lon="13.6870583"><ele>921.2</ele><time>2026-05-03T08:23:45.74Z</time></trkpt><trkpt lat="42.271415" lon="13.6871533"><ele>922.6</ele><time>2026-05-03T08:23:46.741Z</time></trkpt><trkpt lat="42.271395" lon="13.6872583"><ele>924.0</ele><time>2026-05-03T08:23:47.741Z</time></trkpt><trkpt lat="42.2713767" lon="13.687395"><ele>924.0</ele><time>2026-05-03T08:23:48.74Z</time></trkpt><trkpt lat="42.271375" lon="13.6875433"><ele>924.0000000000001</ele><time>2026-05-03T08:23:49.74Z</time></trkpt><trkpt lat="42.2713833" lon="13.68769"><ele>924.0000000000001</ele><time>2026-05-03T08:23:50.74Z</time></trkpt><trkpt lat="42.2714" lon="13.6878317"><ele>924.0</ele><time>2026-05-03T08:23:51.741Z</time></trkpt><trkpt lat="42.2714183" lon="13.68796"><ele>924.0</ele><time>2026-05-03T08:23:52.741Z</time></trkpt><trkpt lat="42.27147" lon="13.6880717"><ele>927.6</ele><time>2026-05-03T08:23:53.741Z</time></trkpt><trkpt lat="42.2715333" lon="13.6881683"><ele>931.2</ele><time>2026-05-03T08:23:54.741Z</time></trkpt><trkpt lat="42.27161" lon="13.6882433"><ele>934.8000000000001</ele><time>2026-05-03T08:23:55.741Z</time></trkpt><trkpt lat="42.2716933" lon="13.6882967"><ele>938.4000000000001</ele><time>2026-05-03T08:23:56.741Z</time></trkpt><trkpt lat="42.2717833" lon="13.6883333"><ele>942.0</ele><time>2026-05-03T08:23:57.741Z</time></trkpt><trkpt lat="42.2718833" lon="13.6883633"><ele>942.0</ele><time>2026-05-03T08:23:58.74Z</time></trkpt><trkpt lat="42.27198" lon="13.6884"><ele>942.0</ele><time>2026-05-03T08:23:59.74Z</time></trkpt><trkpt lat="42.2720717" lon="13.6884333"><ele>942.0</ele><time>2026-05-03T08:24:00.74Z</time></trkpt><trkpt lat="42.27217" lon="13.68848"><ele>942.0</ele><time>2026-05-03T08:24:01.741Z</time></trkpt><trkpt lat="42.2722767" lon="13.6885217"><ele>942.0</ele><time>2026-05-03T08:24:02.741Z</time></trkpt><trkpt lat="42.2723917" lon="13.6885617"><ele>940.5</ele><time>2026-05-03T08:24:03.74Z</time></trkpt><trkpt lat="42.272495" lon="13.688615"><ele>939.0</ele><time>2026-05-03T08:24:04.74Z</time></trkpt><trkpt lat="42.2726" lon="13.6886867"><ele>937.5</ele><time>2026-05-03T08:24:05.741Z</time></trkpt><trkpt lat="42.2726983" lon="13.688765"><ele>936.0</ele><time>2026-05-03T08:24:06.741Z</time></trkpt><trkpt lat="42.27279" lon="13.6888533"><ele>936.0</ele><time>2026-05-03T08:24:07.741Z</time></trkpt><trkpt lat="42.2728817" lon="13.68894"><ele>936.0</ele><time>2026-05-03T08:24:08.741Z</time></trkpt><trkpt lat="42.2729867" lon="13.6890383"><ele>936.0</ele><time>2026-05-03T08:24:09.741Z</time></trkpt><trkpt lat="42.273095" lon="13.689145"><ele>936.0</ele><time>2026-05-03T08:24:10.741Z</time></trkpt><trkpt lat="42.2731917" lon="13.68925"><ele>936.1999999999999</ele><time>2026-05-03T08:24:11.741Z</time></trkpt><trkpt lat="42.2732867" lon="13.6893383"><ele>936.3999999999999</ele><time>2026-05-03T08:24:12.741Z</time></trkpt><trkpt lat="42.2733667" lon="13.6894233"><ele>936.6</ele><time>2026-05-03T08:24:13.74Z</time></trkpt><trkpt lat="42.27345" lon="13.689485"><ele>936.8</ele><time>2026-05-03T08:24:14.741Z</time></trkpt><trkpt lat="42.27353" lon="13.6895183"><ele>937.0</ele><time>2026-05-03T08:24:15.74Z</time></trkpt><trkpt lat="42.2736183" lon="13.6895267"><ele>937.0</ele><time>2026-05-03T08:24:16.74Z</time></trkpt><trkpt lat="42.2737083" lon="13.689525"><ele>937.0</ele><time>2026-05-03T08:24:17.741Z</time></trkpt><trkpt lat="42.273805" lon="13.689495"><ele>937.0</ele><time>2026-05-03T08:24:18.74Z</time></trkpt><trkpt lat="42.2739" lon="13.6894517"><ele>937.0</ele><time>2026-05-03T08:24:19.741Z</time></trkpt><trkpt lat="42.273985" lon="13.689375"><ele>937.0</ele><time>2026-05-03T08:24:20.74Z</time></trkpt><trkpt lat="42.274065" lon="13.6892983"><ele>941.4000000000001</ele><time>2026-05-03T08:24:21.741Z</time></trkpt><trkpt lat="42.27415" lon="13.6892083"><ele>945.8000000000001</ele><time>2026-05-03T08:24:22.741Z</time></trkpt><trkpt lat="42.2742317" lon="13.6891283"><ele>950.2</ele><time>2026-05-03T08:24:23.741Z</time></trkpt><trkpt lat="42.2743133" lon="13.6890467"><ele>954.6</ele><time>2026-05-03T08:24:24.74Z</time></trkpt><trkpt lat="42.2743933" lon="13.688975"><ele>959.0</ele><time>2026-05-03T08:24:25.74Z</time></trkpt><trkpt lat="42.274475" lon="13.6889067"><ele>959.0</ele><time>2026-05-03T08:24:26.74Z</time></trkpt><trkpt lat="42.2745617" lon="13.6888417"><ele>959.0000000000001</ele><time>2026-05-03T08:24:27.74Z</time></trkpt><trkpt lat="42.27466" lon="13.6887833"><ele>959.0000000000001</ele><time>2026-05-03T08:24:28.741Z</time></trkpt><trkpt lat="42.2747633" lon="13.6887267"><ele>959.0</ele><time>2026-05-03T08:24:29.74Z</time></trkpt><trkpt lat="42.2748633" lon="13.6886717"><ele>959.0</ele><time>2026-05-03T08:24:30.74Z</time></trkpt><trkpt lat="42.274965" lon="13.688615"><ele>961.6</ele><time>2026-05-03T08:24:31.741Z</time></trkpt><trkpt lat="42.2750717" lon="13.688555"><ele>964.2</ele><time>2026-05-03T08:24:32.74Z</time></trkpt><trkpt lat="42.2751733" lon="13.6884933"><ele>966.8000000000001</ele><time>2026-05-03T08:24:33.741Z</time></trkpt><trkpt lat="42.2752767" lon="13.68843"><ele>969.4000000000001</ele><time>2026-05-03T08:24:34.741Z</time></trkpt><trkpt lat="42.275375" lon="13.6883717"><ele>972.0</ele><time>2026-05-03T08:24:35.74Z</time></trkpt><trkpt lat="42.2754833" lon="13.68833"><ele>972.0</ele><time>2026-05-03T08:24:36.741Z</time></trkpt><trkpt lat="42.2755933" lon="13.6882983"><ele>972.0</ele><time>2026-05-03T08:24:37.741Z</time></trkpt><trkpt lat="42.2757017" lon="13.688255"><ele>972.0</ele><time>2026-05-03T08:24:38.741Z</time></trkpt><trkpt lat="42.2758083" lon="13.6882"><ele>972.0</ele><time>2026-05-03T08:24:39.74Z</time></trkpt><trkpt lat="42.2759167" lon="13.6881333"><ele>969.5</ele><time>2026-05-03T08:24:40.741Z</time></trkpt><trkpt lat="42.2760233" lon="13.6880633"><ele>967.0</ele><time>2026-05-03T08:24:41.741Z</time></trkpt><trkpt lat="42.2761217" lon="13.6879883"><ele>964.5</ele><time>2026-05-03T08:24:42.741Z</time></trkpt><trkpt lat="42.2762233" lon="13.687915"><ele>962.0</ele><time>2026-05-03T08:24:43.741Z</time></trkpt><trkpt lat="42.2763283" lon="13.6878333"><ele>963.75</ele><time>2026-05-03T08:24:44.741Z</time></trkpt><trkpt lat="42.2764333" lon="13.687745"><ele>965.5</ele><time>2026-05-03T08:24:45.741Z</time></trkpt><trkpt lat="42.276535" lon="13.6876667"><ele>967.25</ele><time>2026-05-03T08:24:46.741Z</time></trkpt><trkpt lat="42.2766383" lon="13.687595"><ele>969.0</ele><time>2026-05-03T08:24:47.741Z</time></trkpt><trkpt lat="42.2767483" lon="13.687515"><ele>969.0</ele><time>2026-05-03T08:24:48.74Z</time></trkpt><trkpt lat="42.2768583" lon="13.687435"><ele>969.0</ele><time>2026-05-03T08:24:49.74Z</time></trkpt><trkpt lat="42.27697" lon="13.6873617"><ele>969.0</ele><time>2026-05-03T08:24:50.741Z</time></trkpt><trkpt lat="42.27709" lon="13.6872967"><ele>969.0</ele><time>2026-05-03T08:24:51.741Z</time></trkpt><trkpt lat="42.27721" lon="13.6872383"><ele>968.1666666666666</ele><time>2026-05-03T08:24:52.74Z</time></trkpt><trkpt lat="42.2773117" lon="13.68718"><ele>967.3333333333333</ele><time>2026-05-03T08:24:53.74Z</time></trkpt><trkpt lat="42.2773967" lon="13.6871217"><ele>966.5</ele><time>2026-05-03T08:24:54.741Z</time></trkpt><trkpt lat="42.2774683" lon="13.6870517"><ele>965.6666666666666</ele><time>2026-05-03T08:24:55.741Z</time></trkpt><trkpt lat="42.2775317" lon="13.6869833"><ele>964.8333333333333</ele><time>2026-05-03T08:24:56.741Z</time></trkpt><trkpt lat="42.2775817" lon="13.6869217"><ele>964.0</ele><time>2026-05-03T08:24:57.741Z</time></trkpt><trkpt lat="42.2776667" lon="13.6868533"><ele>964.0</ele><time>2026-05-03T08:24:59.741Z</time></trkpt><trkpt lat="42.27771" lon="13.6869283"><ele>964.0000000000001</ele><time>2026-05-03T08:25:02.741Z</time></trkpt><trkpt lat="42.2777267" lon="13.6870383"><ele>964.0000000000001</ele><time>2026-05-03T08:25:04.74Z</time></trkpt><trkpt lat="42.2777517" lon="13.6872017"><ele>964.0</ele><time>2026-05-03T08:25:06.741Z</time></trkpt><trkpt lat="42.2777617" lon="13.687355"><ele>964.0</ele><time>2026-05-03T08:25:08.741Z</time></trkpt><trkpt lat="42.2777033" lon="13.6874967"><ele>963.9999999999999</ele><time>2026-05-03T08:25:10.741Z</time></trkpt><trkpt lat="42.2776733" lon="13.6875717"><ele>964.0</ele><time>2026-05-03T08:25:11.741Z</time></trkpt><trkpt lat="42.2776417" lon="13.6876717"><ele>964.0</ele><time>2026-05-03T08:25:12.741Z</time></trkpt><trkpt lat="42.27762" lon="13.68777"><ele>964.0</ele><time>2026-05-03T08:25:13.741Z</time></trkpt><trkpt lat="42.2776" lon="13.687865"><ele>963.9999999999999</ele><time>2026-05-03T08:25:14.741Z</time></trkpt><trkpt lat="42.2775367" lon="13.6879883"><ele>964.0</ele><time>2026-05-03T08:25:16.741Z</time></trkpt><trkpt lat="42.27745" lon="13.6881117"><ele>963.1666666666666</ele><time>2026-05-03T08:25:18.74Z</time></trkpt><trkpt lat="42.277415" lon="13.6882033"><ele>962.3333333333333</ele><time>2026-05-03T08:25:20.741Z</time></trkpt><trkpt lat="42.2774317" lon="13.6882917"><ele>961.5</ele><time>2026-05-03T08:25:24.741Z</time></trkpt><trkpt lat="42.2775017" lon="13.68835"><ele>960.6666666666667</ele><time>2026-05-03T08:25:26.741Z</time></trkpt><trkpt lat="42.2776283" lon="13.6883667"><ele>959.8333333333334</ele><time>2026-05-03T08:25:28.74Z</time></trkpt><trkpt lat="42.2777017" lon="13.6883683"><ele>959.0</ele><time>2026-05-03T08:25:29.741Z</time></trkpt><trkpt lat="42.2777733" lon="13.6883733"><ele>959.0000000000001</ele><time>2026-05-03T08:25:30.741Z</time></trkpt><trkpt lat="42.27784" lon="13.68841"><ele>959.0</ele><time>2026-05-03T08:25:31.741Z</time></trkpt><trkpt lat="42.2778967" lon="13.68847"><ele>959.0</ele><time>2026-05-03T08:25:32.74Z</time></trkpt><trkpt lat="42.27796" lon="13.6885033"><ele>959.0</ele><time>2026-05-03T08:25:33.74Z</time></trkpt><trkpt lat="42.278085" lon="13.6885617"><ele>959.0000000000001</ele><time>2026-05-03T08:25:35.74Z</time></trkpt><trkpt lat="42.27816" lon="13.68859"><ele>959.0</ele><time>2026-05-03T08:25:36.74Z</time></trkpt><trkpt lat="42.2782317" lon="13.688625"><ele>958.2</ele><time>2026-05-03T08:25:37.741Z</time></trkpt><trkpt lat="42.27831" lon="13.68867"><ele>957.4000000000001</ele><time>2026-05-03T08:25:38.741Z</time></trkpt><trkpt lat="42.2783933" lon="13.6887183"><ele>956.6</ele><time>2026-05-03T08:25:39.739Z</time></trkpt><trkpt lat="42.278465" lon="13.68877"><ele>955.8</ele><time>2026-05-03T08:25:40.739Z</time></trkpt><trkpt lat="42.27855" lon="13.6888533"><ele>955.0</ele><time>2026-05-03T08:25:41.739Z</time></trkpt><trkpt lat="42.2786317" lon="13.6889517"><ele>955.0</ele><time>2026-05-03T08:25:42.74Z</time></trkpt><trkpt lat="42.2787067" lon="13.68907"><ele>955.0</ele><time>2026-05-03T08:25:43.739Z</time></trkpt><trkpt lat="42.2787833" lon="13.689165"><ele>955.0</ele><time>2026-05-03T08:25:44.74Z</time></trkpt><trkpt lat="42.2788517" lon="13.6892833"><ele>955.0</ele><time>2026-05-03T08:25:45.74Z</time></trkpt><trkpt lat="42.2789283" lon="13.68937"><ele>955.0</ele><time>2026-05-03T08:25:46.739Z</time></trkpt><trkpt lat="42.279" lon="13.6894533"><ele>955.6666666666666</ele><time>2026-05-03T08:25:47.74Z</time></trkpt><trkpt lat="42.2790567" lon="13.68956"><ele>956.3333333333333</ele><time>2026-05-03T08:25:48.74Z</time></trkpt><trkpt lat="42.2791217" lon="13.68965"><ele>957.0</ele><time>2026-05-03T08:25:49.74Z</time></trkpt><trkpt lat="42.27919" lon="13.689725"><ele>957.6666666666667</ele><time>2026-05-03T08:25:50.74Z</time></trkpt><trkpt lat="42.27926" lon="13.68979"><ele>958.3333333333334</ele><time>2026-05-03T08:25:51.739Z</time></trkpt><trkpt lat="42.2793283" lon="13.6898283"><ele>959.0</ele><time>2026-05-03T08:25:52.74Z</time></trkpt><trkpt lat="42.2794117" lon="13.68984"><ele>959.0000000000001</ele><time>2026-05-03T08:25:53.74Z</time></trkpt><trkpt lat="42.2794917" lon="13.6898633"><ele>959.0</ele><time>2026-05-03T08:25:54.74Z</time></trkpt><trkpt lat="42.2795733" lon="13.68988"><ele>959.0</ele><time>2026-05-03T08:25:55.74Z</time></trkpt><trkpt lat="42.27964" lon="13.6899267"><ele>959.0</ele><time>2026-05-03T08:25:56.739Z</time></trkpt><trkpt lat="42.2796883" lon="13.6900033"><ele>959.0000000000001</ele><time>2026-05-03T08:25:57.74Z</time></trkpt><trkpt lat="42.2797333" lon="13.69008"><ele>959.0</ele><time>2026-05-03T08:25:58.739Z</time></trkpt><trkpt lat="42.2797817" lon="13.6901517"><ele>959.5000000000001</ele><time>2026-05-03T08:25:59.739Z</time></trkpt><trkpt lat="42.2798483" lon="13.690205"><ele>960.0</ele><time>2026-05-03T08:26:00.74Z</time></trkpt><trkpt lat="42.2799283" lon="13.690245"><ele>960.5</ele><time>2026-05-03T08:26:01.739Z</time></trkpt><trkpt lat="42.280005" lon="13.6902733"><ele>961.0</ele><time>2026-05-03T08:26:02.74Z</time></trkpt><trkpt lat="42.2800783" lon="13.6902817"><ele>961.5000000000001</ele><time>2026-05-03T08:26:03.739Z</time></trkpt><trkpt lat="42.2801567" lon="13.690285"><ele>962.0</ele><time>2026-05-03T08:26:04.739Z</time></trkpt><trkpt lat="42.2802483" lon="13.6902833"><ele>962.0000000000001</ele><time>2026-05-03T08:26:05.739Z</time></trkpt><trkpt lat="42.280325" lon="13.6902933"><ele>962.0</ele><time>2026-05-03T08:26:06.739Z</time></trkpt><trkpt lat="42.2804" lon="13.690335"><ele>962.0</ele><time>2026-05-03T08:26:07.74Z</time></trkpt><trkpt lat="42.2804583" lon="13.69042"><ele>962.0</ele><time>2026-05-03T08:26:08.739Z</time></trkpt><trkpt lat="42.2805083" lon="13.690535"><ele>962.0000000000001</ele><time>2026-05-03T08:26:09.74Z</time></trkpt><trkpt lat="42.280545" lon="13.6906483"><ele>962.0</ele><time>2026-05-03T08:26:10.74Z</time></trkpt><trkpt lat="42.28057" lon="13.69077"><ele>962.0</ele><time>2026-05-03T08:26:11.74Z</time></trkpt><trkpt lat="42.2805783" lon="13.6908967"><ele>962.0</ele><time>2026-05-03T08:26:12.74Z</time></trkpt><trkpt lat="42.2805767" lon="13.6910217"><ele>962.0</ele><time>2026-05-03T08:26:13.74Z</time></trkpt><trkpt lat="42.2805633" lon="13.6911517"><ele>962.0</ele><time>2026-05-03T08:26:14.739Z</time></trkpt><trkpt lat="42.2805483" lon="13.6912767"><ele>962.0</ele><time>2026-05-03T08:26:15.74Z</time></trkpt><trkpt lat="42.280525" lon="13.6914067"><ele>962.6</ele><time>2026-05-03T08:26:16.74Z</time></trkpt><trkpt lat="42.2804983" lon="13.6915383"><ele>963.2</ele><time>2026-05-03T08:26:17.74Z</time></trkpt><trkpt lat="42.2804633" lon="13.691665"><ele>963.8</ele><time>2026-05-03T08:26:18.74Z</time></trkpt><trkpt lat="42.2804283" lon="13.6917783"><ele>964.4</ele><time>2026-05-03T08:26:19.74Z</time></trkpt><trkpt lat="42.2803883" lon="13.6919"><ele>965.0</ele><time>2026-05-03T08:26:20.74Z</time></trkpt><trkpt lat="42.2803483" lon="13.692025"><ele>967.6</ele><time>2026-05-03T08:26:21.739Z</time></trkpt><trkpt lat="42.2803067" lon="13.6921417"><ele>970.2</ele><time>2026-05-03T08:26:22.739Z</time></trkpt><trkpt lat="42.2802717" lon="13.6922667"><ele>972.8</ele><time>2026-05-03T08:26:23.739Z</time></trkpt><trkpt lat="42.28023" lon="13.6923767"><ele>975.4</ele><time>2026-05-03T08:26:24.74Z</time></trkpt><trkpt lat="42.2801883" lon="13.6924867"><ele>978.0</ele><time>2026-05-03T08:26:25.74Z</time></trkpt><trkpt lat="42.2801483" lon="13.6925933"><ele>978.0</ele><time>2026-05-03T08:26:26.74Z</time></trkpt><trkpt lat="42.2801117" lon="13.6926883"><ele>978.0</ele><time>2026-05-03T08:26:27.74Z</time></trkpt><trkpt lat="42.2800833" lon="13.6927783"><ele>978.0</ele><time>2026-05-03T08:26:28.739Z</time></trkpt><trkpt lat="42.2800633" lon="13.6928667"><ele>978.0</ele><time>2026-05-03T08:26:29.74Z</time></trkpt><trkpt lat="42.2800433" lon="13.6929717"><ele>978.0</ele><time>2026-05-03T08:26:30.74Z</time></trkpt><trkpt lat="42.280045" lon="13.6930833"><ele>978.0</ele><time>2026-05-03T08:26:31.739Z</time></trkpt><trkpt lat="42.2800567" lon="13.6931983"><ele>978.6666666666666</ele><time>2026-05-03T08:26:32.74Z</time></trkpt><trkpt lat="42.2800733" lon="13.693295"><ele>979.3333333333333</ele><time>2026-05-03T08:26:33.739Z</time></trkpt><trkpt lat="42.28008" lon="13.6933933"><ele>980.0</ele><time>2026-05-03T08:26:34.74Z</time></trkpt><trkpt lat="42.28009" lon="13.69349"><ele>980.6666666666666</ele><time>2026-05-03T08:26:35.74Z</time></trkpt><trkpt lat="42.2800933" lon="13.69359"><ele>981.3333333333333</ele><time>2026-05-03T08:26:36.74Z</time></trkpt><trkpt lat="42.28009" lon="13.6936917"><ele>982.0</ele><time>2026-05-03T08:26:37.739Z</time></trkpt><trkpt lat="42.2800917" lon="13.693805"><ele>981.9999999999999</ele><time>2026-05-03T08:26:38.74Z</time></trkpt><trkpt lat="42.280095" lon="13.6939117"><ele>982.0</ele><time>2026-05-03T08:26:39.74Z</time></trkpt><trkpt lat="42.2800917" lon="13.694025"><ele>982.0</ele><time>2026-05-03T08:26:40.74Z</time></trkpt><trkpt lat="42.280085" lon="13.6941367"><ele>982.0</ele><time>2026-05-03T08:26:41.74Z</time></trkpt><trkpt lat="42.28008" lon="13.6942417"><ele>981.9999999999999</ele><time>2026-05-03T08:26:42.74Z</time></trkpt><trkpt lat="42.280065" lon="13.6943467"><ele>982.0</ele><time>2026-05-03T08:26:43.739Z</time></trkpt><trkpt lat="42.28005" lon="13.6944417"><ele>981.2857142857142</ele><time>2026-05-03T08:26:44.74Z</time></trkpt><trkpt lat="42.2800433" lon="13.69453"><ele>980.5714285714284</ele><time>2026-05-03T08:26:45.739Z</time></trkpt><trkpt lat="42.2800367" lon="13.694625"><ele>979.8571428571429</ele><time>2026-05-03T08:26:46.74Z</time></trkpt><trkpt lat="42.2800267" lon="13.6947283"><ele>979.1428571428571</ele><time>2026-05-03T08:26:47.739Z</time></trkpt><trkpt lat="42.2800117" lon="13.6948267"><ele>978.4285714285714</ele><time>2026-05-03T08:26:48.74Z</time></trkpt><trkpt lat="42.279995" lon="13.694915"><ele>977.7142857142858</ele><time>2026-05-03T08:26:49.74Z</time></trkpt><trkpt lat="42.2799867" lon="13.6950083"><ele>977.0000000000001</ele><time>2026-05-03T08:26:50.74Z</time></trkpt><trkpt lat="42.279985" lon="13.6951033"><ele>977.0000000000001</ele><time>2026-05-03T08:26:51.739Z</time></trkpt><trkpt lat="42.2800017" lon="13.6952067"><ele>977.0</ele><time>2026-05-03T08:26:52.74Z</time></trkpt><trkpt lat="42.2800317" lon="13.695305"><ele>977.0000000000001</ele><time>2026-05-03T08:26:53.74Z</time></trkpt><trkpt lat="42.2800683" lon="13.69539"><ele>977.0000000000001</ele><time>2026-05-03T08:26:54.74Z</time></trkpt><trkpt lat="42.280105" lon="13.6954683"><ele>977.0</ele><time>2026-05-03T08:26:55.739Z</time></trkpt><trkpt lat="42.280155" lon="13.6955317"><ele>977.0000000000001</ele><time>2026-05-03T08:26:56.74Z</time></trkpt><trkpt lat="42.2802083" lon="13.6955917"><ele>977.0000000000001</ele><time>2026-05-03T08:26:57.74Z</time></trkpt><trkpt lat="42.2802717" lon="13.69564"><ele>976.0000000000001</ele><time>2026-05-03T08:26:58.74Z</time></trkpt><trkpt lat="42.2803383" lon="13.6956917"><ele>975.0</ele><time>2026-05-03T08:26:59.739Z</time></trkpt><trkpt lat="42.2804" lon="13.695745"><ele>974.0000000000001</ele><time>2026-05-03T08:27:00.739Z</time></trkpt><trkpt lat="42.280455" lon="13.695795"><ele>973.0000000000001</ele><time>2026-05-03T08:27:01.739Z</time></trkpt><trkpt lat="42.280515" lon="13.6958417"><ele>972.0</ele><time>2026-05-03T08:27:02.74Z</time></trkpt><trkpt lat="42.2805833" lon="13.6958933"><ele>971.0000000000001</ele><time>2026-05-03T08:27:03.739Z</time></trkpt><trkpt lat="42.2806433" lon="13.6959367"><ele>970.0000000000001</ele><time>2026-05-03T08:27:04.74Z</time></trkpt><trkpt lat="42.2807067" lon="13.6959683"><ele>972.6666666666666</ele><time>2026-05-03T08:27:05.739Z</time></trkpt><trkpt lat="42.28077" lon="13.695975"><ele>975.3333333333333</ele><time>2026-05-03T08:27:06.74Z</time></trkpt><trkpt lat="42.28084" lon="13.695965"><ele>978.0</ele><time>2026-05-03T08:27:07.739Z</time></trkpt><trkpt lat="42.2809117" lon="13.6959433"><ele>980.6666666666667</ele><time>2026-05-03T08:27:08.74Z</time></trkpt><trkpt lat="42.28099" lon="13.6959167"><ele>983.3333333333334</ele><time>2026-05-03T08:27:09.74Z</time></trkpt><trkpt lat="42.281065" lon="13.6958767"><ele>986.0</ele><time>2026-05-03T08:27:10.739Z</time></trkpt><trkpt lat="42.2811383" lon="13.6958167"><ele>986.0000000000001</ele><time>2026-05-03T08:27:11.74Z</time></trkpt><trkpt lat="42.2812067" lon="13.6957683"><ele>986.0</ele><time>2026-05-03T08:27:12.74Z</time></trkpt><trkpt lat="42.28127" lon="13.6957367"><ele>986.0</ele><time>2026-05-03T08:27:13.739Z</time></trkpt><trkpt lat="42.2813783" lon="13.69575"><ele>986.0</ele><time>2026-05-03T08:27:15.739Z</time></trkpt><trkpt lat="42.2814317" lon="13.6958733"><ele>986.0000000000001</ele><time>2026-05-03T08:27:17.74Z</time></trkpt><trkpt lat="42.281455" lon="13.6959567"><ele>986.0</ele><time>2026-05-03T08:27:18.74Z</time></trkpt><trkpt lat="42.2814883" lon="13.6960483"><ele>986.6666666666667</ele><time>2026-05-03T08:27:19.74Z</time></trkpt><trkpt lat="42.281535" lon="13.6961517"><ele>987.3333333333334</ele><time>2026-05-03T08:27:20.74Z</time></trkpt><trkpt lat="42.281575" lon="13.696255"><ele>988.0</ele><time>2026-05-03T08:27:21.74Z</time></trkpt><trkpt lat="42.2816233" lon="13.6963467"><ele>988.6666666666667</ele><time>2026-05-03T08:27:22.74Z</time></trkpt><trkpt lat="42.2816717" lon="13.696425"><ele>989.3333333333334</ele><time>2026-05-03T08:27:23.74Z</time></trkpt><trkpt lat="42.2817233" lon="13.6964917"><ele>990.0</ele><time>2026-05-03T08:27:24.74Z</time></trkpt><trkpt lat="42.2817783" lon="13.69655"><ele>990.0</ele><time>2026-05-03T08:27:25.74Z</time></trkpt><trkpt lat="42.281875" lon="13.6966517"><ele>990.0</ele><time>2026-05-03T08:27:27.74Z</time></trkpt><trkpt lat="42.281955" lon="13.6967567"><ele>990.0</ele><time>2026-05-03T08:27:29.74Z</time></trkpt><trkpt lat="42.2820133" lon="13.6968483"><ele>990.0</ele><time>2026-05-03T08:27:31.74Z</time></trkpt><trkpt lat="42.28209" lon="13.6968633"><ele>990.0</ele><time>2026-05-03T08:27:34.74Z</time></trkpt><trkpt lat="42.2821117" lon="13.6967733"><ele>990.0</ele><time>2026-05-03T08:27:36.739Z</time></trkpt><trkpt lat="42.2820783" lon="13.6966067"><ele>990.0</ele><time>2026-05-03T08:27:38.74Z</time></trkpt><trkpt lat="42.282065" lon="13.6965183"><ele>990.0</ele><time>2026-05-03T08:27:39.74Z</time></trkpt><trkpt lat="42.282085" lon="13.6963517"><ele>990.0</ele><time>2026-05-03T08:27:41.74Z</time></trkpt><trkpt lat="42.2821233" lon="13.6962783"><ele>990.0</ele><time>2026-05-03T08:27:42.739Z</time></trkpt><trkpt lat="42.28217" lon="13.6962133"><ele>990.0</ele><time>2026-05-03T08:27:43.74Z</time></trkpt><trkpt lat="42.2822117" lon="13.6961433"><ele>990.0</ele><time>2026-05-03T08:27:44.739Z</time></trkpt><trkpt lat="42.2822567" lon="13.696055"><ele>990.0</ele><time>2026-05-03T08:27:45.74Z</time></trkpt><trkpt lat="42.2822867" lon="13.6959367"><ele>990.0</ele><time>2026-05-03T08:27:46.74Z</time></trkpt><trkpt lat="42.2823033" lon="13.6958017"><ele>990.0</ele><time>2026-05-03T08:27:47.739Z</time></trkpt><trkpt lat="42.2823117" lon="13.69567"><ele>990.0</ele><time>2026-05-03T08:27:48.74Z</time></trkpt><trkpt lat="42.282315" lon="13.6955367"><ele>985.6</ele><time>2026-05-03T08:27:49.74Z</time></trkpt><trkpt lat="42.2823183" lon="13.6954017"><ele>981.2</ele><time>2026-05-03T08:27:50.739Z</time></trkpt><trkpt lat="42.2823183" lon="13.6952783"><ele>976.8</ele><time>2026-05-03T08:27:51.74Z</time></trkpt><trkpt lat="42.2823183" lon="13.695145"><ele>972.4</ele><time>2026-05-03T08:27:52.739Z</time></trkpt><trkpt lat="42.282325" lon="13.695015"><ele>968.0</ele><time>2026-05-03T08:27:53.74Z</time></trkpt><trkpt lat="42.2823267" lon="13.694885"><ele>967.5000000000001</ele><time>2026-05-03T08:27:54.74Z</time></trkpt><trkpt lat="42.2823233" lon="13.6947683"><ele>967.0</ele><time>2026-05-03T08:27:55.74Z</time></trkpt><trkpt lat="42.2823167" lon="13.6946517"><ele>966.5</ele><time>2026-05-03T08:27:56.74Z</time></trkpt><trkpt lat="42.2823033" lon="13.6945333"><ele>966.0</ele><time>2026-05-03T08:27:57.74Z</time></trkpt><trkpt lat="42.2822817" lon="13.6944183"><ele>965.5000000000001</ele><time>2026-05-03T08:27:58.74Z</time></trkpt><trkpt lat="42.2822617" lon="13.6943083"><ele>965.0</ele><time>2026-05-03T08:27:59.739Z</time></trkpt><trkpt lat="42.282235" lon="13.6942033"><ele>963.6666666666667</ele><time>2026-05-03T08:28:00.74Z</time></trkpt><trkpt lat="42.282215" lon="13.6940917"><ele>962.3333333333334</ele><time>2026-05-03T08:28:01.739Z</time></trkpt><trkpt lat="42.2822183" lon="13.6939833"><ele>961.0</ele><time>2026-05-03T08:28:02.74Z</time></trkpt><trkpt lat="42.2822317" lon="13.693865"><ele>959.6666666666667</ele><time>2026-05-03T08:28:03.739Z</time></trkpt><trkpt lat="42.2822667" lon="13.6937483"><ele>958.3333333333334</ele><time>2026-05-03T08:28:04.74Z</time></trkpt><trkpt lat="42.2823083" lon="13.69364"><ele>957.0</ele><time>2026-05-03T08:28:05.74Z</time></trkpt><trkpt lat="42.2823367" lon="13.6935217"><ele>956.0</ele><time>2026-05-03T08:28:06.74Z</time></trkpt><trkpt lat="42.2823483" lon="13.693405"><ele>955.0</ele><time>2026-05-03T08:28:07.739Z</time></trkpt><trkpt lat="42.2823683" lon="13.69328"><ele>954.0</ele><time>2026-05-03T08:28:08.74Z</time></trkpt><trkpt lat="42.2823817" lon="13.6931583"><ele>953.0</ele><time>2026-05-03T08:28:09.739Z</time></trkpt><trkpt lat="42.282395" lon="13.6930333"><ele>952.0</ele><time>2026-05-03T08:28:10.739Z</time></trkpt><trkpt lat="42.2824167" lon="13.6929117"><ele>952.0</ele><time>2026-05-03T08:28:11.74Z</time></trkpt><trkpt lat="42.2824483" lon="13.6927967"><ele>952.0</ele><time>2026-05-03T08:28:12.74Z</time></trkpt><trkpt lat="42.282485" lon="13.6926883"><ele>952.0</ele><time>2026-05-03T08:28:13.74Z</time></trkpt><trkpt lat="42.2825167" lon="13.6925733"><ele>952.0</ele><time>2026-05-03T08:28:14.739Z</time></trkpt><trkpt lat="42.2825483" lon="13.6924567"><ele>952.0</ele><time>2026-05-03T08:28:15.739Z</time></trkpt><trkpt lat="42.282585" lon="13.6923433"><ele>953.2</ele><time>2026-05-03T08:28:16.739Z</time></trkpt><trkpt lat="42.2826283" lon="13.69223"><ele>954.4000000000001</ele><time>2026-05-03T08:28:17.739Z</time></trkpt><trkpt lat="42.2826733" lon="13.6921233"><ele>955.5999999999999</ele><time>2026-05-03T08:28:18.74Z</time></trkpt><trkpt lat="42.2827233" lon="13.6920167"><ele>956.8</ele><time>2026-05-03T08:28:19.739Z</time></trkpt><trkpt lat="42.2827667" lon="13.6919183"><ele>958.0</ele><time>2026-05-03T08:28:20.739Z</time></trkpt><trkpt lat="42.2828183" lon="13.691825"><ele>961.2</ele><time>2026-05-03T08:28:21.74Z</time></trkpt><trkpt lat="42.282885" lon="13.6917417"><ele>964.4</ele><time>2026-05-03T08:28:22.74Z</time></trkpt><trkpt lat="42.2829467" lon="13.6916667"><ele>967.6000000000001</ele><time>2026-05-03T08:28:23.74Z</time></trkpt><trkpt lat="42.2830183" lon="13.6915833"><ele>970.8000000000001</ele><time>2026-05-03T08:28:24.74Z</time></trkpt><trkpt lat="42.2831033" lon="13.69151"><ele>974.0</ele><time>2026-05-03T08:28:25.739Z</time></trkpt><trkpt lat="42.2832017" lon="13.6914433"><ele>967.0</ele><time>2026-05-03T08:28:26.74Z</time></trkpt><trkpt lat="42.283305" lon="13.6913733"><ele>960.0000000000001</ele><time>2026-05-03T08:28:27.74Z</time></trkpt><trkpt lat="42.2834167" lon="13.691315"><ele>953.0000000000001</ele><time>2026-05-03T08:28:28.739Z</time></trkpt><trkpt lat="42.2835183" lon="13.6912633"><ele>946.0</ele><time>2026-05-03T08:28:29.74Z</time></trkpt><trkpt lat="42.2836083" lon="13.6912133"><ele>939.0</ele><time>2026-05-03T08:28:30.74Z</time></trkpt><trkpt lat="42.2837" lon="13.6911633"><ele>939.0</ele><time>2026-05-03T08:28:31.74Z</time></trkpt><trkpt lat="42.2837833" lon="13.6911067"><ele>939.0000000000001</ele><time>2026-05-03T08:28:32.74Z</time></trkpt><trkpt lat="42.2838617" lon="13.6910533"><ele>939.0000000000001</ele><time>2026-05-03T08:28:33.74Z</time></trkpt><trkpt lat="42.28395" lon="13.691005"><ele>939.0</ele><time>2026-05-03T08:28:34.74Z</time></trkpt><trkpt lat="42.2840317" lon="13.69095"><ele>939.0</ele><time>2026-05-03T08:28:35.74Z</time></trkpt><trkpt lat="42.28411" lon="13.6908983"><ele>939.8000000000001</ele><time>2026-05-03T08:28:36.74Z</time></trkpt><trkpt lat="42.2841867" lon="13.690865"><ele>940.6000000000001</ele><time>2026-05-03T08:28:37.739Z</time></trkpt><trkpt lat="42.28427" lon="13.690885"><ele>941.4</ele><time>2026-05-03T08:28:38.739Z</time></trkpt><trkpt lat="42.2843617" lon="13.69091"><ele>942.2</ele><time>2026-05-03T08:28:39.74Z</time></trkpt><trkpt lat="42.2844467" lon="13.690955"><ele>943.0</ele><time>2026-05-03T08:28:40.739Z</time></trkpt><trkpt lat="42.2845433" lon="13.6910083"><ele>943.0</ele><time>2026-05-03T08:28:41.739Z</time></trkpt><trkpt lat="42.2846417" lon="13.69106"><ele>943.0</ele><time>2026-05-03T08:28:42.74Z</time></trkpt><trkpt lat="42.2847367" lon="13.69111"><ele>943.0</ele><time>2026-05-03T08:28:43.74Z</time></trkpt><trkpt lat="42.2848467" lon="13.6911533"><ele>943.0</ele><time>2026-05-03T08:28:44.739Z</time></trkpt><trkpt lat="42.28496" lon="13.6911783"><ele>943.0</ele><time>2026-05-03T08:28:45.74Z</time></trkpt><trkpt lat="42.2850667" lon="13.691205"><ele>936.2</ele><time>2026-05-03T08:28:46.74Z</time></trkpt><trkpt lat="42.2851733" lon="13.691225"><ele>929.4</ele><time>2026-05-03T08:28:47.74Z</time></trkpt><trkpt lat="42.2852733" lon="13.6912583"><ele>922.6000000000001</ele><time>2026-05-03T08:28:48.739Z</time></trkpt><trkpt lat="42.28538" lon="13.6912783"><ele>915.8000000000001</ele><time>2026-05-03T08:28:49.739Z</time></trkpt><trkpt lat="42.285475" lon="13.6912967"><ele>909.0</ele><time>2026-05-03T08:28:50.739Z</time></trkpt><trkpt lat="42.2855733" lon="13.6912983"><ele>909.4000000000001</ele><time>2026-05-03T08:28:51.74Z</time></trkpt><trkpt lat="42.285675" lon="13.691275"><ele>909.8000000000001</ele><time>2026-05-03T08:28:52.739Z</time></trkpt><trkpt lat="42.285775" lon="13.691245"><ele>910.1999999999999</ele><time>2026-05-03T08:28:53.74Z</time></trkpt><trkpt lat="42.285885" lon="13.6912083"><ele>910.5999999999999</ele><time>2026-05-03T08:28:54.74Z</time></trkpt><trkpt lat="42.2859933" lon="13.6911717"><ele>911.0</ele><time>2026-05-03T08:28:55.739Z</time></trkpt><trkpt lat="42.286105" lon="13.691155"><ele>911.0</ele><time>2026-05-03T08:28:56.739Z</time></trkpt><trkpt lat="42.2862183" lon="13.6911167"><ele>911.0</ele><time>2026-05-03T08:28:57.739Z</time></trkpt><trkpt lat="42.2863233" lon="13.6910833"><ele>911.0</ele><time>2026-05-03T08:28:58.739Z</time></trkpt><trkpt lat="42.2864333" lon="13.6910517"><ele>911.0</ele><time>2026-05-03T08:28:59.74Z</time></trkpt><trkpt lat="42.2865467" lon="13.691035"><ele>916.5999999999999</ele><time>2026-05-03T08:29:00.74Z</time></trkpt><trkpt lat="42.2866633" lon="13.691015"><ele>922.1999999999999</ele><time>2026-05-03T08:29:01.74Z</time></trkpt><trkpt lat="42.2867667" lon="13.6909833"><ele>927.8000000000001</ele><time>2026-05-03T08:29:02.74Z</time></trkpt><trkpt lat="42.2868717" lon="13.6909617"><ele>933.4000000000001</ele><time>2026-05-03T08:29:03.739Z</time></trkpt><trkpt lat="42.286985" lon="13.69093"><ele>939.0</ele><time>2026-05-03T08:29:04.739Z</time></trkpt><trkpt lat="42.28709" lon="13.6908867"><ele>939.0</ele><time>2026-05-03T08:29:05.739Z</time></trkpt><trkpt lat="42.287195" lon="13.6908283"><ele>939.0000000000001</ele><time>2026-05-03T08:29:06.739Z</time></trkpt><trkpt lat="42.2872967" lon="13.6907833"><ele>939.0000000000001</ele><time>2026-05-03T08:29:07.739Z</time></trkpt><trkpt lat="42.28739" lon="13.690735"><ele>939.0</ele><time>2026-05-03T08:29:08.74Z</time></trkpt><trkpt lat="42.2874833" lon="13.690695"><ele>939.0</ele><time>2026-05-03T08:29:09.74Z</time></trkpt><trkpt lat="42.287575" lon="13.69066"><ele>935.8000000000001</ele><time>2026-05-03T08:29:10.739Z</time></trkpt><trkpt lat="42.2876717" lon="13.690635"><ele>932.6000000000001</ele><time>2026-05-03T08:29:11.74Z</time></trkpt><trkpt lat="42.2877583" lon="13.6906167"><ele>929.4</ele><time>2026-05-03T08:29:12.74Z</time></trkpt><trkpt lat="42.287855" lon="13.6905917"><ele>926.2</ele><time>2026-05-03T08:29:13.74Z</time></trkpt><trkpt lat="42.2879417" lon="13.6905617"><ele>923.0</ele><time>2026-05-03T08:29:14.739Z</time></trkpt><trkpt lat="42.2880317" lon="13.6905267"><ele>919.5999999999999</ele><time>2026-05-03T08:29:15.739Z</time></trkpt><trkpt lat="42.28812" lon="13.6904817"><ele>916.1999999999999</ele><time>2026-05-03T08:29:16.74Z</time></trkpt><trkpt lat="42.28822" lon="13.6904367"><ele>912.8</ele><time>2026-05-03T08:29:17.74Z</time></trkpt><trkpt lat="42.2883183" lon="13.690385"><ele>909.4</ele><time>2026-05-03T08:29:18.739Z</time></trkpt><trkpt lat="42.2884133" lon="13.690355"><ele>906.0</ele><time>2026-05-03T08:29:19.74Z</time></trkpt><trkpt lat="42.2885033" lon="13.6903383"><ele>906.0</ele><time>2026-05-03T08:29:20.74Z</time></trkpt><trkpt lat="42.2885833" lon="13.6903317"><ele>906.0</ele><time>2026-05-03T08:29:21.74Z</time></trkpt><trkpt lat="42.2886667" lon="13.690345"><ele>906.0</ele><time>2026-05-03T08:29:22.739Z</time></trkpt><trkpt lat="42.2887467" lon="13.69037"><ele>906.0</ele><time>2026-05-03T08:29:23.739Z</time></trkpt><trkpt lat="42.2888117" lon="13.6904117"><ele>906.0</ele><time>2026-05-03T08:29:24.739Z</time></trkpt><trkpt lat="42.2888717" lon="13.6904767"><ele>906.0</ele><time>2026-05-03T08:29:25.739Z</time></trkpt><trkpt lat="42.2889283" lon="13.6905217"><ele>905.2857142857142</ele><time>2026-05-03T08:29:26.739Z</time></trkpt><trkpt lat="42.2889883" lon="13.69056"><ele>904.5714285714286</ele><time>2026-05-03T08:29:27.739Z</time></trkpt><trkpt lat="42.2890517" lon="13.6905883"><ele>903.8571428571429</ele><time>2026-05-03T08:29:28.74Z</time></trkpt><trkpt lat="42.289115" lon="13.6905967"><ele>903.1428571428571</ele><time>2026-05-03T08:29:29.74Z</time></trkpt><trkpt lat="42.28919" lon="13.69059"><ele>902.4285714285716</ele><time>2026-05-03T08:29:30.739Z</time></trkpt><trkpt lat="42.2892767" lon="13.690575"><ele>901.7142857142858</ele><time>2026-05-03T08:29:31.739Z</time></trkpt><trkpt lat="42.2893617" lon="13.69055"><ele>901.0</ele><time>2026-05-03T08:29:32.739Z</time></trkpt><trkpt lat="42.289445" lon="13.6905267"><ele>901.0</ele><time>2026-05-03T08:29:33.74Z</time></trkpt><trkpt lat="42.2895267" lon="13.6905167"><ele>900.9999999999999</ele><time>2026-05-03T08:29:34.74Z</time></trkpt><trkpt lat="42.2896117" lon="13.6905383"><ele>900.9999999999999</ele><time>2026-05-03T08:29:35.739Z</time></trkpt><trkpt lat="42.2896967" lon="13.6905583"><ele>901.0</ele><time>2026-05-03T08:29:36.74Z</time></trkpt><trkpt lat="42.2897933" lon="13.6906017"><ele>901.0</ele><time>2026-05-03T08:29:37.74Z</time></trkpt><trkpt lat="42.2898867" lon="13.69064"><ele>900.3333333333333</ele><time>2026-05-03T08:29:38.739Z</time></trkpt><trkpt lat="42.289975" lon="13.690655"><ele>899.6666666666666</ele><time>2026-05-03T08:29:39.74Z</time></trkpt><trkpt lat="42.2900617" lon="13.690655"><ele>899.0</ele><time>2026-05-03T08:29:40.739Z</time></trkpt><trkpt lat="42.2901483" lon="13.6906583"><ele>898.3333333333333</ele><time>2026-05-03T08:29:41.739Z</time></trkpt><trkpt lat="42.2902317" lon="13.6906417"><ele>897.6666666666666</ele><time>2026-05-03T08:29:42.739Z</time></trkpt><trkpt lat="42.2903183" lon="13.6906283"><ele>897.0</ele><time>2026-05-03T08:29:43.74Z</time></trkpt><trkpt lat="42.2903983" lon="13.6905917"><ele>897.0</ele><time>2026-05-03T08:29:44.74Z</time></trkpt><trkpt lat="42.2904767" lon="13.690555"><ele>897.0</ele><time>2026-05-03T08:29:45.739Z</time></trkpt><trkpt lat="42.2905517" lon="13.69053"><ele>897.0</ele><time>2026-05-03T08:29:46.74Z</time></trkpt><trkpt lat="42.2906183" lon="13.6905067"><ele>897.0</ele><time>2026-05-03T08:29:47.74Z</time></trkpt><trkpt lat="42.2906883" lon="13.690495"><ele>897.0</ele><time>2026-05-03T08:29:48.74Z</time></trkpt><trkpt lat="42.2907583" lon="13.6904917"><ele>897.0</ele><time>2026-05-03T08:29:49.74Z</time></trkpt><trkpt lat="42.2908317" lon="13.6905"><ele>897.0</ele><time>2026-05-03T08:29:50.74Z</time></trkpt><trkpt lat="42.290915" lon="13.6905033"><ele>895.3333333333334</ele><time>2026-05-03T08:29:51.74Z</time></trkpt><trkpt lat="42.291" lon="13.6904917"><ele>893.6666666666667</ele><time>2026-05-03T08:29:52.74Z</time></trkpt><trkpt lat="42.29108" lon="13.6904817"><ele>892.0</ele><time>2026-05-03T08:29:53.74Z</time></trkpt><trkpt lat="42.29116" lon="13.690465"><ele>890.3333333333334</ele><time>2026-05-03T08:29:54.739Z</time></trkpt><trkpt lat="42.2912367" lon="13.6904167"><ele>888.6666666666667</ele><time>2026-05-03T08:29:55.74Z</time></trkpt><trkpt lat="42.291315" lon="13.6903633"><ele>887.0</ele><time>2026-05-03T08:29:56.739Z</time></trkpt><trkpt lat="42.2913867" lon="13.6903"><ele>885.3333333333334</ele><time>2026-05-03T08:29:57.738Z</time></trkpt><trkpt lat="42.29145" lon="13.690225"><ele>883.6666666666667</ele><time>2026-05-03T08:29:58.738Z</time></trkpt><trkpt lat="42.2915217" lon="13.6901417"><ele>882.0</ele><time>2026-05-03T08:29:59.739Z</time></trkpt><trkpt lat="42.2915917" lon="13.6900633"><ele>880.3333333333333</ele><time>2026-05-03T08:30:00.739Z</time></trkpt><trkpt lat="42.2916583" lon="13.6899933"><ele>878.6666666666666</ele><time>2026-05-03T08:30:01.739Z</time></trkpt><trkpt lat="42.2917217" lon="13.68992"><ele>877.0</ele><time>2026-05-03T08:30:02.738Z</time></trkpt><trkpt lat="42.2917833" lon="13.6898517"><ele>876.9999999999999</ele><time>2026-05-03T08:30:03.739Z</time></trkpt><trkpt lat="42.29186" lon="13.6898"><ele>877.0</ele><time>2026-05-03T08:30:04.738Z</time></trkpt><trkpt lat="42.2919383" lon="13.689755"><ele>877.0</ele><time>2026-05-03T08:30:05.738Z</time></trkpt><trkpt lat="42.2920267" lon="13.68972"><ele>877.0</ele><time>2026-05-03T08:30:06.739Z</time></trkpt><trkpt lat="42.292095" lon="13.6896767"><ele>876.9999999999999</ele><time>2026-05-03T08:30:07.739Z</time></trkpt><trkpt lat="42.2921567" lon="13.6896133"><ele>877.0</ele><time>2026-05-03T08:30:08.739Z</time></trkpt><trkpt lat="42.292225" lon="13.68952"><ele>875.4000000000001</ele><time>2026-05-03T08:30:09.739Z</time></trkpt><trkpt lat="42.2922817" lon="13.6894083"><ele>873.8000000000001</ele><time>2026-05-03T08:30:10.739Z</time></trkpt><trkpt lat="42.2923433" lon="13.6892933"><ele>872.2</ele><time>2026-05-03T08:30:11.738Z</time></trkpt><trkpt lat="42.2924083" lon="13.6891983"><ele>870.6</ele><time>2026-05-03T08:30:12.739Z</time></trkpt><trkpt lat="42.2924717" lon="13.6891133"><ele>869.0</ele><time>2026-05-03T08:30:13.738Z</time></trkpt><trkpt lat="42.29254" lon="13.6890467"><ele>869.0000000000001</ele><time>2026-05-03T08:30:14.739Z</time></trkpt><trkpt lat="42.2926017" lon="13.688975"><ele>869.0</ele><time>2026-05-03T08:30:15.739Z</time></trkpt><trkpt lat="42.292665" lon="13.6889133"><ele>869.0</ele><time>2026-05-03T08:30:16.739Z</time></trkpt><trkpt lat="42.2927267" lon="13.6888483"><ele>869.0</ele><time>2026-05-03T08:30:17.739Z</time></trkpt><trkpt lat="42.2927917" lon="13.6887917"><ele>869.0000000000001</ele><time>2026-05-03T08:30:18.739Z</time></trkpt><trkpt lat="42.2928567" lon="13.6887333"><ele>869.0</ele><time>2026-05-03T08:30:19.739Z</time></trkpt><trkpt lat="42.2929233" lon="13.68869"><ele>869.0000000000001</ele><time>2026-05-03T08:30:20.739Z</time></trkpt><trkpt lat="42.2929933" lon="13.6886433"><ele>869.0</ele><time>2026-05-03T08:30:21.738Z</time></trkpt><trkpt lat="42.2930667" lon="13.6886083"><ele>869.0</ele><time>2026-05-03T08:30:22.739Z</time></trkpt><trkpt lat="42.2931367" lon="13.6885833"><ele>869.0</ele><time>2026-05-03T08:30:23.738Z</time></trkpt><trkpt lat="42.2932517" lon="13.6885617"><ele>869.0000000000001</ele><time>2026-05-03T08:30:25.738Z</time></trkpt><trkpt lat="42.2933483" lon="13.6885633"><ele>869.0</ele><time>2026-05-03T08:30:27.739Z</time></trkpt><trkpt lat="42.2934133" lon="13.688595"><ele>869.0</ele><time>2026-05-03T08:30:30.739Z</time></trkpt><trkpt lat="42.2933717" lon="13.6887017"><ele>869.0000000000001</ele><time>2026-05-03T08:30:33.738Z</time></trkpt><trkpt lat="42.2932617" lon="13.68881"><ele>869.0000000000001</ele><time>2026-05-03T08:30:35.739Z</time></trkpt><trkpt lat="42.2931917" lon="13.6889017"><ele>869.0</ele><time>2026-05-03T08:30:36.739Z</time></trkpt><trkpt lat="42.2931167" lon="13.68901"><ele>869.0</ele><time>2026-05-03T08:30:37.738Z</time></trkpt><trkpt lat="42.2930467" lon="13.6891333"><ele>869.0</ele><time>2026-05-03T08:30:38.739Z</time></trkpt><trkpt lat="42.2929633" lon="13.6892483"><ele>869.0</ele><time>2026-05-03T08:30:39.738Z</time></trkpt><trkpt lat="42.292895" lon="13.6893833"><ele>869.0</ele><time>2026-05-03T08:30:40.739Z</time></trkpt><trkpt lat="42.2928317" lon="13.6895033"><ele>869.0</ele><time>2026-05-03T08:30:41.739Z</time></trkpt><trkpt lat="42.2927717" lon="13.689625"><ele>867.3333333333334</ele><time>2026-05-03T08:30:42.738Z</time></trkpt><trkpt lat="42.2927317" lon="13.6897417"><ele>865.6666666666667</ele><time>2026-05-03T08:30:43.739Z</time></trkpt><trkpt lat="42.2926967" lon="13.6898467"><ele>864.0</ele><time>2026-05-03T08:30:44.738Z</time></trkpt><trkpt lat="42.2926633" lon="13.689955"><ele>862.3333333333333</ele><time>2026-05-03T08:30:45.738Z</time></trkpt><trkpt lat="42.2926283" lon="13.6900483"><ele>860.6666666666666</ele><time>2026-05-03T08:30:46.739Z</time></trkpt><trkpt lat="42.2925917" lon="13.690145"><ele>859.0</ele><time>2026-05-03T08:30:47.738Z</time></trkpt><trkpt lat="42.2925517" lon="13.6902383"><ele>858.4999999999999</ele><time>2026-05-03T08:30:48.738Z</time></trkpt><trkpt lat="42.2925167" lon="13.6903367"><ele>858.0</ele><time>2026-05-03T08:30:49.739Z</time></trkpt><trkpt lat="42.2924933" lon="13.6904283"><ele>857.5</ele><time>2026-05-03T08:30:50.738Z</time></trkpt><trkpt lat="42.2924633" lon="13.69052"><ele>857.0</ele><time>2026-05-03T08:30:51.739Z</time></trkpt><trkpt lat="42.2924417" lon="13.690615"><ele>856.4999999999999</ele><time>2026-05-03T08:30:52.738Z</time></trkpt><trkpt lat="42.2924383" lon="13.6907733"><ele>856.0</ele><time>2026-05-03T08:30:54.738Z</time></trkpt><trkpt lat="42.2924383" lon="13.6908617"><ele>855.9999999999999</ele><time>2026-05-03T08:30:55.739Z</time></trkpt><trkpt lat="42.29244" lon="13.690965"><ele>856.0</ele><time>2026-05-03T08:30:56.739Z</time></trkpt><trkpt lat="42.2924367" lon="13.6910667"><ele>856.0</ele><time>2026-05-03T08:30:57.739Z</time></trkpt><trkpt lat="42.2924167" lon="13.6911817"><ele>856.0</ele><time>2026-05-03T08:30:58.739Z</time></trkpt><trkpt lat="42.2923833" lon="13.6913"><ele>855.9999999999999</ele><time>2026-05-03T08:30:59.739Z</time></trkpt><trkpt lat="42.2923483" lon="13.69141"><ele>856.0</ele><time>2026-05-03T08:31:00.739Z</time></trkpt><trkpt lat="42.2923117" lon="13.69153"><ele>857.0</ele><time>2026-05-03T08:31:01.739Z</time></trkpt><trkpt lat="42.2922667" lon="13.6916383"><ele>857.9999999999999</ele><time>2026-05-03T08:31:02.738Z</time></trkpt><trkpt lat="42.2922067" lon="13.691745"><ele>858.9999999999999</ele><time>2026-05-03T08:31:03.739Z</time></trkpt><trkpt lat="42.29214" lon="13.6918467"><ele>860.0</ele><time>2026-05-03T08:31:04.738Z</time></trkpt><trkpt lat="42.2920733" lon="13.6919433"><ele>861.0</ele><time>2026-05-03T08:31:05.739Z</time></trkpt><trkpt lat="42.2919983" lon="13.692045"><ele>861.25</ele><time>2026-05-03T08:31:06.739Z</time></trkpt><trkpt lat="42.2919083" lon="13.6921367"><ele>861.5</ele><time>2026-05-03T08:31:07.739Z</time></trkpt><trkpt lat="42.29181" lon="13.692225"><ele>861.75</ele><time>2026-05-03T08:31:08.738Z</time></trkpt><trkpt lat="42.2917017" lon="13.6923267"><ele>862.0</ele><time>2026-05-03T08:31:09.739Z</time></trkpt><trkpt lat="42.2915933" lon="13.6924217"><ele>862.0</ele><time>2026-05-03T08:31:10.739Z</time></trkpt><trkpt lat="42.2914883" lon="13.6925183"><ele>862.0</ele><time>2026-05-03T08:31:11.739Z</time></trkpt><trkpt lat="42.2913967" lon="13.6926283"><ele>862.0</ele><time>2026-05-03T08:31:12.739Z</time></trkpt><trkpt lat="42.2913083" lon="13.69274"><ele>862.0</ele><time>2026-05-03T08:31:13.739Z</time></trkpt><trkpt lat="42.2912367" lon="13.6928433"><ele>862.0</ele><time>2026-05-03T08:31:14.739Z</time></trkpt><trkpt lat="42.2911817" lon="13.6929417"><ele>862.0</ele><time>2026-05-03T08:31:15.739Z</time></trkpt><trkpt lat="42.291145" lon="13.69302"><ele>862.0</ele><time>2026-05-03T08:31:16.738Z</time></trkpt><trkpt lat="42.2911017" lon="13.6930883"><ele>862.0</ele><time>2026-05-03T08:31:17.739Z</time></trkpt><trkpt lat="42.29106" lon="13.6931583"><ele>862.0</ele><time>2026-05-03T08:31:18.738Z</time></trkpt><trkpt lat="42.2910167" lon="13.693225"><ele>862.0</ele><time>2026-05-03T08:31:19.739Z</time></trkpt><trkpt lat="42.2909683" lon="13.6932917"><ele>862.0</ele><time>2026-05-03T08:31:20.739Z</time></trkpt><trkpt lat="42.29089" lon="13.69338"><ele>861.9999999999999</ele><time>2026-05-03T08:31:22.738Z</time></trkpt><trkpt lat="42.2908167" lon="13.6934517"><ele>862.0</ele><time>2026-05-03T08:31:24.738Z</time></trkpt><trkpt lat="42.2907383" lon="13.6935233"><ele>862.0</ele><time>2026-05-03T08:31:26.739Z</time></trkpt><trkpt lat="42.2906833" lon="13.6935817"><ele>862.0</ele><time>2026-05-03T08:31:28.739Z</time></trkpt><trkpt lat="42.2907733" lon="13.6935633"><ele>861.9999999999999</ele><time>2026-05-03T08:33:55.738Z</time></trkpt><trkpt lat="42.2908217" lon="13.6935083"><ele>862.0</ele><time>2026-05-03T08:33:56.739Z</time></trkpt><trkpt lat="42.29087" lon="13.69345"><ele>862.0</ele><time>2026-05-03T08:33:57.738Z</time></trkpt><trkpt lat="42.2909633" lon="13.6933517"><ele>862.0</ele><time>2026-05-03T08:33:59.739Z</time></trkpt><trkpt lat="42.29104" lon="13.6932517"><ele>862.0</ele><time>2026-05-03T08:34:01.739Z</time></trkpt><trkpt lat="42.29111" lon="13.6931817"><ele>862.0</ele><time>2026-05-03T08:34:03.738Z</time></trkpt><trkpt lat="42.2911617" lon="13.69313"><ele>862.0</ele><time>2026-05-03T08:34:05.739Z</time></trkpt><trkpt lat="42.2911617" lon="13.6930083"><ele>862.0</ele><time>2026-05-03T08:34:36.737Z</time></trkpt><trkpt lat="42.2910683" lon="13.6929533"><ele>862.0</ele><time>2026-05-03T08:34:38.738Z</time></trkpt><trkpt lat="42.2909333" lon="13.692975"><ele>862.0</ele><time>2026-05-03T08:34:40.738Z</time></trkpt><trkpt lat="42.29085" lon="13.6930267"><ele>862.0</ele><time>2026-05-03T08:34:41.738Z</time></trkpt><trkpt lat="42.290765" lon="13.6930717"><ele>862.0</ele><time>2026-05-03T08:34:42.738Z</time></trkpt><trkpt lat="42.2906917" lon="13.69309"><ele>861.9999999999999</ele><time>2026-05-03T08:34:43.737Z</time></trkpt><trkpt lat="42.2906183" lon="13.6930883"><ele>862.0</ele><time>2026-05-03T08:34:44.737Z</time></trkpt><trkpt lat="42.290545" lon="13.6930933"><ele>862.0</ele><time>2026-05-03T08:34:45.738Z</time></trkpt><trkpt lat="42.290475" lon="13.693115"><ele>862.0</ele><time>2026-05-03T08:34:46.737Z</time></trkpt><trkpt lat="42.290405" lon="13.69315"><ele>861.9999999999999</ele><time>2026-05-03T08:34:47.737Z</time></trkpt><trkpt lat="42.2903333" lon="13.6932067"><ele>862.0</ele><time>2026-05-03T08:34:48.737Z</time></trkpt><trkpt lat="42.290255" lon="13.6932617"><ele>860.6666666666666</ele><time>2026-05-03T08:34:49.737Z</time></trkpt><trkpt lat="42.2901917" lon="13.6933083"><ele>859.3333333333333</ele><time>2026-05-03T08:34:50.738Z</time></trkpt><trkpt lat="42.2901267" lon="13.693365"><ele>858.0</ele><time>2026-05-03T08:34:51.738Z</time></trkpt><trkpt lat="42.2900617" lon="13.693425"><ele>856.6666666666667</ele><time>2026-05-03T08:34:52.738Z</time></trkpt><trkpt lat="42.29" lon="13.69348"><ele>855.3333333333334</ele><time>2026-05-03T08:34:53.737Z</time></trkpt><trkpt lat="42.289935" lon="13.6935333"><ele>854.0</ele><time>2026-05-03T08:34:54.738Z</time></trkpt><trkpt lat="42.289865" lon="13.693585"><ele>853.6666666666667</ele><time>2026-05-03T08:34:55.738Z</time></trkpt><trkpt lat="42.2897967" lon="13.6936417"><ele>853.3333333333334</ele><time>2026-05-03T08:34:56.738Z</time></trkpt><trkpt lat="42.2897317" lon="13.6936933"><ele>853.0</ele><time>2026-05-03T08:34:57.737Z</time></trkpt><trkpt lat="42.2896633" lon="13.6937567"><ele>852.6666666666667</ele><time>2026-05-03T08:34:58.737Z</time></trkpt><trkpt lat="42.2896083" lon="13.6938367"><ele>852.3333333333334</ele><time>2026-05-03T08:34:59.738Z</time></trkpt><trkpt lat="42.28956" lon="13.6939417"><ele>852.0</ele><time>2026-05-03T08:35:00.738Z</time></trkpt><trkpt lat="42.2895217" lon="13.69405"><ele>849.4000000000001</ele><time>2026-05-03T08:35:01.737Z</time></trkpt><trkpt lat="42.289475" lon="13.6941683"><ele>846.8000000000001</ele><time>2026-05-03T08:35:02.737Z</time></trkpt><trkpt lat="42.2894333" lon="13.694295"><ele>844.2</ele><time>2026-05-03T08:35:03.738Z</time></trkpt><trkpt lat="42.2893733" lon="13.6944217"><ele>841.6</ele><time>2026-05-03T08:35:04.738Z</time></trkpt><trkpt lat="42.2893167" lon="13.69454"><ele>839.0</ele><time>2026-05-03T08:35:05.738Z</time></trkpt><trkpt lat="42.2892517" lon="13.6946717"><ele>838.0</ele><time>2026-05-03T08:35:06.737Z</time></trkpt><trkpt lat="42.2891933" lon="13.6947917"><ele>837.0</ele><time>2026-05-03T08:35:07.738Z</time></trkpt><trkpt lat="42.2891367" lon="13.6949167"><ele>836.0</ele><time>2026-05-03T08:35:08.737Z</time></trkpt><trkpt lat="42.2890717" lon="13.6950367"><ele>835.0</ele><time>2026-05-03T08:35:09.738Z</time></trkpt><trkpt lat="42.2890117" lon="13.69515"><ele>834.0</ele><time>2026-05-03T08:35:10.737Z</time></trkpt><trkpt lat="42.2889617" lon="13.6952567"><ele>831.0</ele><time>2026-05-03T08:35:11.738Z</time></trkpt><trkpt lat="42.288915" lon="13.6953567"><ele>828.0</ele><time>2026-05-03T08:35:12.738Z</time></trkpt><trkpt lat="42.2888767" lon="13.6954783"><ele>825.0</ele><time>2026-05-03T08:35:13.737Z</time></trkpt><trkpt lat="42.2888367" lon="13.69559"><ele>822.0</ele><time>2026-05-03T08:35:14.737Z</time></trkpt><trkpt lat="42.2887967" lon="13.6956983"><ele>819.0</ele><time>2026-05-03T08:35:15.738Z</time></trkpt><trkpt lat="42.288745" lon="13.6958"><ele>819.0</ele><time>2026-05-03T08:35:16.737Z</time></trkpt><trkpt lat="42.2886817" lon="13.6958867"><ele>819.0</ele><time>2026-05-03T08:35:17.738Z</time></trkpt><trkpt lat="42.28861" lon="13.6959467"><ele>819.0</ele><time>2026-05-03T08:35:18.738Z</time></trkpt><trkpt lat="42.2885383" lon="13.6959867"><ele>819.0</ele><time>2026-05-03T08:35:19.738Z</time></trkpt><trkpt lat="42.2884683" lon="13.6960183"><ele>819.0</ele><time>2026-05-03T08:35:20.737Z</time></trkpt><trkpt lat="42.2883983" lon="13.6960517"><ele>819.0</ele><time>2026-05-03T08:35:21.738Z</time></trkpt><trkpt lat="42.2883317" lon="13.696095"><ele>818.3333333333334</ele><time>2026-05-03T08:35:22.738Z</time></trkpt><trkpt lat="42.2882633" lon="13.6961467"><ele>817.6666666666667</ele><time>2026-05-03T08:35:23.737Z</time></trkpt><trkpt lat="42.2882017" lon="13.6962083"><ele>817.0</ele><time>2026-05-03T08:35:24.738Z</time></trkpt><trkpt lat="42.2881483" lon="13.6962667"><ele>816.3333333333334</ele><time>2026-05-03T08:35:25.738Z</time></trkpt><trkpt lat="42.288085" lon="13.6963433"><ele>815.6666666666667</ele><time>2026-05-03T08:35:26.738Z</time></trkpt><trkpt lat="42.2880217" lon="13.696415"><ele>815.0</ele><time>2026-05-03T08:35:27.738Z</time></trkpt><trkpt lat="42.2879667" lon="13.696475"><ele>813.2857142857142</ele><time>2026-05-03T08:35:28.738Z</time></trkpt><trkpt lat="42.2879183" lon="13.6965333"><ele>811.5714285714286</ele><time>2026-05-03T08:35:29.738Z</time></trkpt><trkpt lat="42.2878633" lon="13.6966017"><ele>809.8571428571429</ele><time>2026-05-03T08:35:30.738Z</time></trkpt><trkpt lat="42.287795" lon="13.6966633"><ele>808.1428571428571</ele><time>2026-05-03T08:35:31.738Z</time></trkpt><trkpt lat="42.2877417" lon="13.696715"><ele>806.4285714285714</ele><time>2026-05-03T08:35:32.738Z</time></trkpt><trkpt lat="42.2876817" lon="13.696765"><ele>804.7142857142857</ele><time>2026-05-03T08:35:33.738Z</time></trkpt><trkpt lat="42.287635" lon="13.69684"><ele>803.0</ele><time>2026-05-03T08:35:34.737Z</time></trkpt><trkpt lat="42.2876067" lon="13.696925"><ele>802.5714285714286</ele><time>2026-05-03T08:35:35.737Z</time></trkpt><trkpt lat="42.28759" lon="13.6970117"><ele>802.1428571428571</ele><time>2026-05-03T08:35:36.737Z</time></trkpt><trkpt lat="42.2875833" lon="13.6971133"><ele>801.7142857142858</ele><time>2026-05-03T08:35:37.738Z</time></trkpt><trkpt lat="42.287585" lon="13.69722"><ele>801.2857142857142</ele><time>2026-05-03T08:35:38.738Z</time></trkpt><trkpt lat="42.287585" lon="13.6973217"><ele>800.8571428571429</ele><time>2026-05-03T08:35:39.738Z</time></trkpt><trkpt lat="42.2875767" lon="13.6974067"><ele>800.4285714285714</ele><time>2026-05-03T08:35:40.738Z</time></trkpt><trkpt lat="42.2875567" lon="13.6974883"><ele>800.0</ele><time>2026-05-03T08:35:41.738Z</time></trkpt><trkpt lat="42.2875267" lon="13.6975633"><ele>800.0000000000001</ele><time>2026-05-03T08:35:42.737Z</time></trkpt><trkpt lat="42.28745" lon="13.6977"><ele>800.0</ele><time>2026-05-03T08:35:44.738Z</time></trkpt><trkpt lat="42.28741" lon="13.6977933"><ele>800.0</ele><time>2026-05-03T08:35:45.738Z</time></trkpt><trkpt lat="42.2873733" lon="13.697895"><ele>800.0</ele><time>2026-05-03T08:35:46.738Z</time></trkpt><trkpt lat="42.2873483" lon="13.6979967"><ele>800.0000000000001</ele><time>2026-05-03T08:35:47.738Z</time></trkpt><trkpt lat="42.28733" lon="13.6980983"><ele>800.0</ele><time>2026-05-03T08:35:48.738Z</time></trkpt><trkpt lat="42.2873033" lon="13.6982033"><ele>799.8</ele><time>2026-05-03T08:35:49.737Z</time></trkpt><trkpt lat="42.287285" lon="13.6983017"><ele>799.6</ele><time>2026-05-03T08:35:50.738Z</time></trkpt><trkpt lat="42.2872483" lon="13.6984383"><ele>799.4000000000001</ele><time>2026-05-03T08:36:08.738Z</time></trkpt><trkpt lat="42.2872817" lon="13.6985333"><ele>799.2</ele><time>2026-05-03T08:36:10.738Z</time></trkpt><trkpt lat="42.2873117" lon="13.69867"><ele>799.0</ele><time>2026-05-03T08:36:12.737Z</time></trkpt><trkpt lat="42.2873067" lon="13.6988233"><ele>798.4000000000001</ele><time>2026-05-03T08:36:14.737Z</time></trkpt><trkpt lat="42.28727" lon="13.6989867"><ele>797.8</ele><time>2026-05-03T08:36:16.738Z</time></trkpt><trkpt lat="42.2872283" lon="13.6991267"><ele>797.2</ele><time>2026-05-03T08:36:18.737Z</time></trkpt><trkpt lat="42.2872117" lon="13.69925"><ele>796.5999999999999</ele><time>2026-05-03T08:36:20.738Z</time></trkpt><trkpt lat="42.2872183" lon="13.69937"><ele>796.0</ele><time>2026-05-03T08:36:22.738Z</time></trkpt><trkpt lat="42.28727" lon="13.6995117"><ele>795.4999999999999</ele><time>2026-05-03T08:36:24.738Z</time></trkpt><trkpt lat="42.287315" lon="13.6995767"><ele>795.0</ele><time>2026-05-03T08:36:25.738Z</time></trkpt><trkpt lat="42.287365" lon="13.6996367"><ele>794.5</ele><time>2026-05-03T08:36:26.738Z</time></trkpt><trkpt lat="42.287405" lon="13.6997533"><ele>794.0</ele><time>2026-05-03T08:36:28.738Z</time></trkpt><trkpt lat="42.28738" lon="13.6998733"><ele>793.4999999999999</ele><time>2026-05-03T08:36:30.738Z</time></trkpt><trkpt lat="42.2873783" lon="13.700035"><ele>793.0</ele><time>2026-05-03T08:36:32.738Z</time></trkpt><trkpt lat="42.2873633" lon="13.7001933"><ele>793.2</ele><time>2026-05-03T08:36:34.738Z</time></trkpt><trkpt lat="42.2873117" lon="13.7002917"><ele>793.4</ele><time>2026-05-03T08:36:36.737Z</time></trkpt><trkpt lat="42.2872467" lon="13.700435"><ele>793.6</ele><time>2026-05-03T08:36:38.738Z</time></trkpt><trkpt lat="42.2872083" lon="13.7005417"><ele>793.8000000000001</ele><time>2026-05-03T08:36:39.738Z</time></trkpt><trkpt lat="42.2871717" lon="13.700655"><ele>794.0</ele><time>2026-05-03T08:36:40.737Z</time></trkpt><trkpt lat="42.2871517" lon="13.70077"><ele>792.1666666666667</ele><time>2026-05-03T08:36:41.738Z</time></trkpt><trkpt lat="42.2871417" lon="13.7008833"><ele>790.3333333333334</ele><time>2026-05-03T08:36:42.737Z</time></trkpt><trkpt lat="42.287135" lon="13.700995"><ele>788.5</ele><time>2026-05-03T08:36:43.738Z</time></trkpt><trkpt lat="42.28714" lon="13.701115"><ele>786.6666666666667</ele><time>2026-05-03T08:36:44.738Z</time></trkpt><trkpt lat="42.287145" lon="13.701235"><ele>784.8333333333334</ele><time>2026-05-03T08:36:45.737Z</time></trkpt><trkpt lat="42.2871433" lon="13.7013517"><ele>783.0</ele><time>2026-05-03T08:36:46.738Z</time></trkpt><trkpt lat="42.28714" lon="13.7014733"><ele>783.0</ele><time>2026-05-03T08:36:47.738Z</time></trkpt><trkpt lat="42.2871267" lon="13.70159"><ele>783.0</ele><time>2026-05-03T08:36:48.738Z</time></trkpt><trkpt lat="42.2871017" lon="13.70171"><ele>783.0</ele><time>2026-05-03T08:36:49.737Z</time></trkpt><trkpt lat="42.2870617" lon="13.701825"><ele>783.0</ele><time>2026-05-03T08:36:50.737Z</time></trkpt><trkpt lat="42.2870133" lon="13.7019417"><ele>783.0</ele><time>2026-05-03T08:36:51.737Z</time></trkpt><trkpt lat="42.2869633" lon="13.702045"><ele>782.8</ele><time>2026-05-03T08:36:52.737Z</time></trkpt><trkpt lat="42.2869117" lon="13.7021583"><ele>782.5999999999999</ele><time>2026-05-03T08:36:53.737Z</time></trkpt><trkpt lat="42.2868583" lon="13.7022767"><ele>782.4000000000001</ele><time>2026-05-03T08:36:54.738Z</time></trkpt><trkpt lat="42.286815" lon="13.70239"><ele>782.2</ele><time>2026-05-03T08:36:55.738Z</time></trkpt><trkpt lat="42.2867783" lon="13.7025067"><ele>782.0</ele><time>2026-05-03T08:36:56.737Z</time></trkpt><trkpt lat="42.2867467" lon="13.70261"><ele>782.0</ele><time>2026-05-03T08:36:57.738Z</time></trkpt><trkpt lat="42.2867167" lon="13.7027117"><ele>782.0</ele><time>2026-05-03T08:36:58.737Z</time></trkpt><trkpt lat="42.28668" lon="13.7028217"><ele>782.0</ele><time>2026-05-03T08:36:59.738Z</time></trkpt><trkpt lat="42.2866283" lon="13.7029283"><ele>782.0</ele><time>2026-05-03T08:37:00.737Z</time></trkpt><trkpt lat="42.28657" lon="13.70304"><ele>782.0</ele><time>2026-05-03T08:37:01.738Z</time></trkpt><trkpt lat="42.2865167" lon="13.703155"><ele>782.8</ele><time>2026-05-03T08:37:02.737Z</time></trkpt><trkpt lat="42.286475" lon="13.7032833"><ele>783.6</ele><time>2026-05-03T08:37:03.738Z</time></trkpt><trkpt lat="42.2864367" lon="13.703395"><ele>784.4</ele><time>2026-05-03T08:37:04.737Z</time></trkpt><trkpt lat="42.2864017" lon="13.7034983"><ele>785.1999999999999</ele><time>2026-05-03T08:37:05.737Z</time></trkpt><trkpt lat="42.2863683" lon="13.70359"><ele>786.0</ele><time>2026-05-03T08:37:06.738Z</time></trkpt><trkpt lat="42.2863167" lon="13.7037283"><ele>784.3333333333334</ele><time>2026-05-03T08:37:08.738Z</time></trkpt><trkpt lat="42.286265" lon="13.7038283"><ele>782.6666666666667</ele><time>2026-05-03T08:37:10.737Z</time></trkpt><trkpt lat="42.2861917" lon="13.70387"><ele>781.0</ele><time>2026-05-03T08:37:12.737Z</time></trkpt><trkpt lat="42.2861267" lon="13.7038583"><ele>779.3333333333334</ele><time>2026-05-03T08:37:14.738Z</time></trkpt><trkpt lat="42.2860517" lon="13.7037883"><ele>777.6666666666667</ele><time>2026-05-03T08:37:28.737Z</time></trkpt><trkpt lat="42.285975" lon="13.7037817"><ele>776.0</ele><time>2026-05-03T08:37:29.738Z</time></trkpt><trkpt lat="42.28588" lon="13.7037667"><ele>776.0000000000001</ele><time>2026-05-03T08:37:30.737Z</time></trkpt><trkpt lat="42.2857767" lon="13.703755"><ele>776.0</ele><time>2026-05-03T08:37:31.738Z</time></trkpt><trkpt lat="42.285675" lon="13.7037517"><ele>776.0</ele><time>2026-05-03T08:37:32.738Z</time></trkpt><trkpt lat="42.2855883" lon="13.7037683"><ele>776.0</ele><time>2026-05-03T08:37:33.738Z</time></trkpt><trkpt lat="42.2855183" lon="13.7038067"><ele>776.0000000000001</ele><time>2026-05-03T08:37:34.737Z</time></trkpt><trkpt lat="42.2854533" lon="13.70387"><ele>776.0</ele><time>2026-05-03T08:37:35.737Z</time></trkpt><trkpt lat="42.28539" lon="13.7039533"><ele>778.8</ele><time>2026-05-03T08:37:36.738Z</time></trkpt><trkpt lat="42.28533" lon="13.7040567"><ele>781.5999999999999</ele><time>2026-05-03T08:37:37.737Z</time></trkpt><trkpt lat="42.2852717" lon="13.704185"><ele>784.4</ele><time>2026-05-03T08:37:38.738Z</time></trkpt><trkpt lat="42.2852233" lon="13.7043233"><ele>787.2</ele><time>2026-05-03T08:37:39.738Z</time></trkpt><trkpt lat="42.2851833" lon="13.7044533"><ele>790.0</ele><time>2026-05-03T08:37:40.738Z</time></trkpt><trkpt lat="42.285145" lon="13.7045917"><ele>790.0</ele><time>2026-05-03T08:37:41.738Z</time></trkpt><trkpt lat="42.2851117" lon="13.7047317"><ele>790.0</ele><time>2026-05-03T08:37:42.737Z</time></trkpt><trkpt lat="42.2850817" lon="13.7048767"><ele>790.0</ele><time>2026-05-03T08:37:43.737Z</time></trkpt><trkpt lat="42.2850567" lon="13.705025"><ele>790.0</ele><time>2026-05-03T08:37:44.738Z</time></trkpt><trkpt lat="42.2850217" lon="13.7051717"><ele>790.0</ele><time>2026-05-03T08:37:45.737Z</time></trkpt><trkpt lat="42.2849767" lon="13.7053183"><ele>789.0</ele><time>2026-05-03T08:37:46.737Z</time></trkpt><trkpt lat="42.2849367" lon="13.7054567"><ele>788.0</ele><time>2026-05-03T08:37:47.738Z</time></trkpt><trkpt lat="42.2848833" lon="13.7055967"><ele>787.0</ele><time>2026-05-03T08:37:48.738Z</time></trkpt><trkpt lat="42.2848483" lon="13.70574"><ele>786.0</ele><time>2026-05-03T08:37:49.738Z</time></trkpt><trkpt lat="42.2848167" lon="13.70588"><ele>785.0</ele><time>2026-05-03T08:37:50.738Z</time></trkpt><trkpt lat="42.28478" lon="13.7060083"><ele>789.8</ele><time>2026-05-03T08:37:51.737Z</time></trkpt><trkpt lat="42.2847467" lon="13.70614"><ele>794.6</ele><time>2026-05-03T08:37:52.738Z</time></trkpt><trkpt lat="42.2847" lon="13.706275"><ele>799.4000000000001</ele><time>2026-05-03T08:37:53.738Z</time></trkpt><trkpt lat="42.2846517" lon="13.7064017"><ele>804.2</ele><time>2026-05-03T08:37:54.737Z</time></trkpt><trkpt lat="42.284595" lon="13.7065233"><ele>809.0</ele><time>2026-05-03T08:37:55.738Z</time></trkpt><trkpt lat="42.2845383" lon="13.7066233"><ele>809.0</ele><time>2026-05-03T08:37:56.738Z</time></trkpt><trkpt lat="42.2844683" lon="13.70672"><ele>809.0</ele><time>2026-05-03T08:37:57.737Z</time></trkpt><trkpt lat="42.2843917" lon="13.7068033"><ele>809.0</ele><time>2026-05-03T08:37:58.737Z</time></trkpt><trkpt lat="42.2843117" lon="13.7068967"><ele>809.0</ele><time>2026-05-03T08:37:59.738Z</time></trkpt><trkpt lat="42.284245" lon="13.7069817"><ele>809.0</ele><time>2026-05-03T08:38:00.737Z</time></trkpt><trkpt lat="42.2841683" lon="13.7070717"><ele>808.2</ele><time>2026-05-03T08:38:01.738Z</time></trkpt><trkpt lat="42.284085" lon="13.7071583"><ele>807.4000000000001</ele><time>2026-05-03T08:38:02.738Z</time></trkpt><trkpt lat="42.284005" lon="13.7072533"><ele>806.6</ele><time>2026-05-03T08:38:03.737Z</time></trkpt><trkpt lat="42.2839333" lon="13.7073467"><ele>805.8</ele><time>2026-05-03T08:38:04.737Z</time></trkpt><trkpt lat="42.28386" lon="13.7074417"><ele>805.0</ele><time>2026-05-03T08:38:05.737Z</time></trkpt><trkpt lat="42.28379" lon="13.7075517"><ele>807.6</ele><time>2026-05-03T08:38:06.737Z</time></trkpt><trkpt lat="42.2837267" lon="13.707665"><ele>810.2</ele><time>2026-05-03T08:38:07.738Z</time></trkpt><trkpt lat="42.2836717" lon="13.7077767"><ele>812.8</ele><time>2026-05-03T08:38:08.737Z</time></trkpt><trkpt lat="42.2836167" lon="13.7078883"><ele>815.4</ele><time>2026-05-03T08:38:09.737Z</time></trkpt><trkpt lat="42.283555" lon="13.7079933"><ele>818.0</ele><time>2026-05-03T08:38:10.737Z</time></trkpt><trkpt lat="42.28349" lon="13.7081017"><ele>818.0</ele><time>2026-05-03T08:38:11.737Z</time></trkpt><trkpt lat="42.28342" lon="13.7082033"><ele>818.0</ele><time>2026-05-03T08:38:12.737Z</time></trkpt><trkpt lat="42.28334" lon="13.7083083"><ele>818.0</ele><time>2026-05-03T08:38:13.738Z</time></trkpt><trkpt lat="42.2832517" lon="13.7084233"><ele>818.0</ele><time>2026-05-03T08:38:14.737Z</time></trkpt><trkpt lat="42.283165" lon="13.7085217"><ele>818.5999999999999</ele><time>2026-05-03T08:38:15.738Z</time></trkpt><trkpt lat="42.283075" lon="13.708625"><ele>819.1999999999999</ele><time>2026-05-03T08:38:16.736Z</time></trkpt><trkpt lat="42.2829867" lon="13.7087"><ele>819.8</ele><time>2026-05-03T08:38:17.737Z</time></trkpt><trkpt lat="42.28291" lon="13.7087633"><ele>820.4</ele><time>2026-05-03T08:38:18.737Z</time></trkpt><trkpt lat="42.2828417" lon="13.708815"><ele>821.0</ele><time>2026-05-03T08:38:19.737Z</time></trkpt><trkpt lat="42.28278" lon="13.7088367"><ele>821.0000000000001</ele><time>2026-05-03T08:38:20.737Z</time></trkpt><trkpt lat="42.2826583" lon="13.7088833"><ele>821.0</ele><time>2026-05-03T08:38:22.737Z</time></trkpt><trkpt lat="42.2825967" lon="13.7089233"><ele>821.0</ele><time>2026-05-03T08:38:23.737Z</time></trkpt><trkpt lat="42.28253" lon="13.7089733"><ele>821.0</ele><time>2026-05-03T08:38:24.736Z</time></trkpt><trkpt lat="42.2824617" lon="13.70903"><ele>821.0000000000001</ele><time>2026-05-03T08:38:25.737Z</time></trkpt><trkpt lat="42.28239" lon="13.70908"><ele>821.0</ele><time>2026-05-03T08:38:26.737Z</time></trkpt><trkpt lat="42.2823133" lon="13.70913"><ele>821.1666666666667</ele><time>2026-05-03T08:38:27.737Z</time></trkpt><trkpt lat="42.28224" lon="13.7091783"><ele>821.3333333333334</ele><time>2026-05-03T08:38:28.736Z</time></trkpt><trkpt lat="42.2821583" lon="13.7092267"><ele>821.5</ele><time>2026-05-03T08:38:29.736Z</time></trkpt><trkpt lat="42.2820783" lon="13.7092783"><ele>821.6666666666667</ele><time>2026-05-03T08:38:30.737Z</time></trkpt><trkpt lat="42.2819933" lon="13.7093333"><ele>821.8333333333334</ele><time>2026-05-03T08:38:31.737Z</time></trkpt><trkpt lat="42.2819267" lon="13.7093883"><ele>822.0</ele><time>2026-05-03T08:38:32.736Z</time></trkpt><trkpt lat="42.281855" lon="13.7094367"><ele>822.0</ele><time>2026-05-03T08:38:33.737Z</time></trkpt><trkpt lat="42.2817733" lon="13.70948"><ele>822.0</ele><time>2026-05-03T08:38:34.736Z</time></trkpt><trkpt lat="42.2816917" lon="13.709525"><ele>822.0</ele><time>2026-05-03T08:38:35.736Z</time></trkpt><trkpt lat="42.2816133" lon="13.7095783"><ele>822.0</ele><time>2026-05-03T08:38:36.737Z</time></trkpt><trkpt lat="42.2815333" lon="13.7096283"><ele>822.0</ele><time>2026-05-03T08:38:37.736Z</time></trkpt><trkpt lat="42.281455" lon="13.7096917"><ele>822.0</ele><time>2026-05-03T08:38:38.737Z</time></trkpt><trkpt lat="42.2813667" lon="13.7097567"><ele>826.2</ele><time>2026-05-03T08:38:39.736Z</time></trkpt><trkpt lat="42.2812867" lon="13.70981"><ele>830.4000000000001</ele><time>2026-05-03T08:38:40.737Z</time></trkpt><trkpt lat="42.2812033" lon="13.709855"><ele>834.5999999999999</ele><time>2026-05-03T08:38:41.737Z</time></trkpt><trkpt lat="42.2811083" lon="13.7099033"><ele>838.8</ele><time>2026-05-03T08:38:42.736Z</time></trkpt><trkpt lat="42.2810167" lon="13.709945"><ele>843.0</ele><time>2026-05-03T08:38:43.737Z</time></trkpt><trkpt lat="42.2809267" lon="13.7099867"><ele>843.0</ele><time>2026-05-03T08:38:44.737Z</time></trkpt><trkpt lat="42.2808433" lon="13.71002"><ele>843.0</ele><time>2026-05-03T08:38:45.737Z</time></trkpt><trkpt lat="42.280765" lon="13.7100567"><ele>843.0</ele><time>2026-05-03T08:38:46.737Z</time></trkpt><trkpt lat="42.2806867" lon="13.710085"><ele>843.0</ele><time>2026-05-03T08:38:47.736Z</time></trkpt><trkpt lat="42.2805983" lon="13.7101"><ele>843.0</ele><time>2026-05-03T08:38:48.736Z</time></trkpt><trkpt lat="42.2805033" lon="13.7101117"><ele>843.0</ele><time>2026-05-03T08:38:49.736Z</time></trkpt><trkpt lat="42.28041" lon="13.7101133"><ele>844.8333333333334</ele><time>2026-05-03T08:38:50.737Z</time></trkpt><trkpt lat="42.2803167" lon="13.7101133"><ele>846.6666666666667</ele><time>2026-05-03T08:38:51.736Z</time></trkpt><trkpt lat="42.2802233" lon="13.7101033"><ele>848.5</ele><time>2026-05-03T08:38:52.737Z</time></trkpt><trkpt lat="42.280135" lon="13.7101067"><ele>850.3333333333334</ele><time>2026-05-03T08:38:53.737Z</time></trkpt><trkpt lat="42.2800517" lon="13.7101233"><ele>852.1666666666667</ele><time>2026-05-03T08:38:54.736Z</time></trkpt><trkpt lat="42.2799667" lon="13.7101483"><ele>854.0</ele><time>2026-05-03T08:38:55.737Z</time></trkpt><trkpt lat="42.2798833" lon="13.7101633"><ele>854.0000000000001</ele><time>2026-05-03T08:38:56.736Z</time></trkpt><trkpt lat="42.2798" lon="13.7101783"><ele>854.0</ele><time>2026-05-03T08:38:57.737Z</time></trkpt><trkpt lat="42.2797167" lon="13.7101833"><ele>854.0</ele><time>2026-05-03T08:38:58.737Z</time></trkpt><trkpt lat="42.279635" lon="13.7101817"><ele>854.0</ele><time>2026-05-03T08:38:59.736Z</time></trkpt><trkpt lat="42.2795617" lon="13.7101717"><ele>854.0000000000001</ele><time>2026-05-03T08:39:00.737Z</time></trkpt><trkpt lat="42.2794967" lon="13.710165"><ele>854.0</ele><time>2026-05-03T08:39:01.737Z</time></trkpt><trkpt lat="42.279375" lon="13.7101767"><ele>855.4000000000001</ele><time>2026-05-03T08:39:03.736Z</time></trkpt><trkpt lat="42.2792517" lon="13.7101567"><ele>856.8000000000001</ele><time>2026-05-03T08:39:05.737Z</time></trkpt><trkpt lat="42.2791833" lon="13.7101183"><ele>858.1999999999999</ele><time>2026-05-03T08:39:06.736Z</time></trkpt><trkpt lat="42.2791067" lon="13.7100683"><ele>859.5999999999999</ele><time>2026-05-03T08:39:07.736Z</time></trkpt><trkpt lat="42.2790317" lon="13.71004"><ele>861.0</ele><time>2026-05-03T08:39:08.736Z</time></trkpt><trkpt lat="42.2789433" lon="13.710035"><ele>863.5999999999999</ele><time>2026-05-03T08:39:09.737Z</time></trkpt><trkpt lat="42.2788483" lon="13.7100483"><ele>866.1999999999999</ele><time>2026-05-03T08:39:10.736Z</time></trkpt><trkpt lat="42.2787567" lon="13.7100683"><ele>868.8000000000001</ele><time>2026-05-03T08:39:11.737Z</time></trkpt><trkpt lat="42.27867" lon="13.710095"><ele>871.4000000000001</ele><time>2026-05-03T08:39:12.736Z</time></trkpt><trkpt lat="42.2785817" lon="13.7101167"><ele>874.0</ele><time>2026-05-03T08:39:13.737Z</time></trkpt><trkpt lat="42.278495" lon="13.7101267"><ele>874.0</ele><time>2026-05-03T08:39:14.736Z</time></trkpt><trkpt lat="42.2784033" lon="13.7101267"><ele>874.0000000000001</ele><time>2026-05-03T08:39:15.736Z</time></trkpt><trkpt lat="42.2783167" lon="13.71014"><ele>874.0000000000001</ele><time>2026-05-03T08:39:16.737Z</time></trkpt><trkpt lat="42.2782267" lon="13.7101733"><ele>874.0</ele><time>2026-05-03T08:39:17.737Z</time></trkpt><trkpt lat="42.2781333" lon="13.710205"><ele>874.0</ele><time>2026-05-03T08:39:18.736Z</time></trkpt><trkpt lat="42.2780433" lon="13.7102317"><ele>874.9999999999999</ele><time>2026-05-03T08:39:19.737Z</time></trkpt><trkpt lat="42.2779583" lon="13.7102567"><ele>876.0</ele><time>2026-05-03T08:39:20.737Z</time></trkpt><trkpt lat="42.2778767" lon="13.71028"><ele>877.0</ele><time>2026-05-03T08:39:21.737Z</time></trkpt><trkpt lat="42.2777967" lon="13.7102917"><ele>878.0</ele><time>2026-05-03T08:39:22.736Z</time></trkpt><trkpt lat="42.2777067" lon="13.7102917"><ele>878.9999999999999</ele><time>2026-05-03T08:39:23.736Z</time></trkpt><trkpt lat="42.2776333" lon="13.7103"><ele>880.0</ele><time>2026-05-03T08:39:24.736Z</time></trkpt><trkpt lat="42.2775617" lon="13.7103017"><ele>880.0</ele><time>2026-05-03T08:39:25.737Z</time></trkpt><trkpt lat="42.2774867" lon="13.710315"><ele>880.0</ele><time>2026-05-03T08:39:26.737Z</time></trkpt><trkpt lat="42.2773767" lon="13.7103883"><ele>880.0</ele><time>2026-05-03T08:39:28.736Z</time></trkpt><trkpt lat="42.2773067" lon="13.710495"><ele>880.0</ele><time>2026-05-03T08:39:30.736Z</time></trkpt><trkpt lat="42.2772367" lon="13.7105517"><ele>880.0</ele><time>2026-05-03T08:39:32.737Z</time></trkpt><trkpt lat="42.2771667" lon="13.710575"><ele>879.1666666666666</ele><time>2026-05-03T08:39:35.737Z</time></trkpt><trkpt lat="42.2770867" lon="13.7105833"><ele>878.3333333333333</ele><time>2026-05-03T08:39:46.736Z</time></trkpt><trkpt lat="42.276985" lon="13.7106067"><ele>877.5</ele><time>2026-05-03T08:39:48.736Z</time></trkpt><trkpt lat="42.2769233" lon="13.7106317"><ele>876.6666666666667</ele><time>2026-05-03T08:39:49.737Z</time></trkpt><trkpt lat="42.27686" lon="13.7106667"><ele>875.8333333333334</ele><time>2026-05-03T08:39:50.737Z</time></trkpt><trkpt lat="42.276795" lon="13.7107033"><ele>875.0</ele><time>2026-05-03T08:39:51.737Z</time></trkpt><trkpt lat="42.2767283" lon="13.7107267"><ele>875.0</ele><time>2026-05-03T08:39:52.737Z</time></trkpt><trkpt lat="42.2766583" lon="13.7107367"><ele>875.0</ele><time>2026-05-03T08:39:53.737Z</time></trkpt><trkpt lat="42.276595" lon="13.71072"><ele>875.0</ele><time>2026-05-03T08:39:54.736Z</time></trkpt><trkpt lat="42.2765317" lon="13.710705"><ele>875.0</ele><time>2026-05-03T08:39:55.736Z</time></trkpt><trkpt lat="42.2764617" lon="13.7106933"><ele>875.0</ele><time>2026-05-03T08:39:56.736Z</time></trkpt><trkpt lat="42.2763917" lon="13.71068"><ele>875.0</ele><time>2026-05-03T08:39:57.737Z</time></trkpt><trkpt lat="42.2763233" lon="13.7106683"><ele>875.0</ele><time>2026-05-03T08:39:58.737Z</time></trkpt><trkpt lat="42.2762567" lon="13.71067"><ele>873.6666666666667</ele><time>2026-05-03T08:39:59.737Z</time></trkpt><trkpt lat="42.2761467" lon="13.7107267"><ele>872.3333333333334</ele><time>2026-05-03T08:40:01.737Z</time></trkpt><trkpt lat="42.2760883" lon="13.7107817"><ele>871.0</ele><time>2026-05-03T08:40:02.737Z</time></trkpt><trkpt lat="42.27603" lon="13.7108367"><ele>869.6666666666667</ele><time>2026-05-03T08:40:03.737Z</time></trkpt><trkpt lat="42.2759667" lon="13.7108867"><ele>868.3333333333334</ele><time>2026-05-03T08:40:04.737Z</time></trkpt><trkpt lat="42.275895" lon="13.7109267"><ele>867.0</ele><time>2026-05-03T08:40:05.737Z</time></trkpt><trkpt lat="42.275825" lon="13.7109567"><ele>867.0</ele><time>2026-05-03T08:40:06.737Z</time></trkpt><trkpt lat="42.27575" lon="13.7109867"><ele>867.0</ele><time>2026-05-03T08:40:07.736Z</time></trkpt><trkpt lat="42.2756683" lon="13.7110167"><ele>867.0</ele><time>2026-05-03T08:40:08.737Z</time></trkpt><trkpt lat="42.2755917" lon="13.711045"><ele>867.0</ele><time>2026-05-03T08:40:09.736Z</time></trkpt><trkpt lat="42.275515" lon="13.7110867"><ele>867.0</ele><time>2026-05-03T08:40:10.737Z</time></trkpt><trkpt lat="42.2754467" lon="13.71114"><ele>867.0</ele><time>2026-05-03T08:40:11.737Z</time></trkpt><trkpt lat="42.27537" lon="13.7111917"><ele>868.0</ele><time>2026-05-03T08:40:12.737Z</time></trkpt><trkpt lat="42.275295" lon="13.7112417"><ele>869.0</ele><time>2026-05-03T08:40:13.736Z</time></trkpt><trkpt lat="42.275225" lon="13.7112967"><ele>870.0</ele><time>2026-05-03T08:40:14.737Z</time></trkpt><trkpt lat="42.2751633" lon="13.71134"><ele>871.0</ele><time>2026-05-03T08:40:15.736Z</time></trkpt><trkpt lat="42.27511" lon="13.7113883"><ele>872.0</ele><time>2026-05-03T08:40:16.737Z</time></trkpt><trkpt lat="42.27501" lon="13.71149"><ele>873.0</ele><time>2026-05-03T08:40:18.736Z</time></trkpt><trkpt lat="42.2749333" lon="13.7116"><ele>873.0</ele><time>2026-05-03T08:40:20.736Z</time></trkpt><trkpt lat="42.2748517" lon="13.711685"><ele>873.0</ele><time>2026-05-03T08:40:22.737Z</time></trkpt><trkpt lat="42.2747717" lon="13.7117883"><ele>873.0</ele><time>2026-05-03T08:40:24.737Z</time></trkpt><trkpt lat="42.2747017" lon="13.7118783"><ele>873.0</ele><time>2026-05-03T08:40:26.737Z</time></trkpt><trkpt lat="42.2745983" lon="13.7119733"><ele>873.0</ele><time>2026-05-03T08:40:28.737Z</time></trkpt><trkpt lat="42.274535" lon="13.712035"><ele>873.1666666666666</ele><time>2026-05-03T08:40:29.737Z</time></trkpt><trkpt lat="42.2744717" lon="13.7120883"><ele>873.3333333333333</ele><time>2026-05-03T08:40:30.737Z</time></trkpt><trkpt lat="42.2744033" lon="13.7121367"><ele>873.5</ele><time>2026-05-03T08:40:31.737Z</time></trkpt><trkpt lat="42.274335" lon="13.712185"><ele>873.6666666666666</ele><time>2026-05-03T08:40:32.736Z</time></trkpt><trkpt lat="42.2742317" lon="13.7122217"><ele>873.8333333333333</ele><time>2026-05-03T08:40:34.737Z</time></trkpt><trkpt lat="42.2741517" lon="13.7121883"><ele>874.0</ele><time>2026-05-03T08:40:36.737Z</time></trkpt><trkpt lat="42.2740617" lon="13.7122567"><ele>873.9999999999999</ele><time>2026-05-03T08:40:38.736Z</time></trkpt><trkpt lat="42.2740167" lon="13.7123283"><ele>874.0</ele><time>2026-05-03T08:40:39.737Z</time></trkpt><trkpt lat="42.2739767" lon="13.71242"><ele>874.0</ele><time>2026-05-03T08:40:40.737Z</time></trkpt><trkpt lat="42.2739433" lon="13.7125083"><ele>874.0</ele><time>2026-05-03T08:40:41.737Z</time></trkpt><trkpt lat="42.273885" lon="13.71257"><ele>873.9999999999999</ele><time>2026-05-03T08:40:43.737Z</time></trkpt><trkpt lat="42.27384" lon="13.7124217"><ele>874.0</ele><time>2026-05-03T08:40:46.737Z</time></trkpt><trkpt lat="42.2738283" lon="13.7122817"><ele>875.2</ele><time>2026-05-03T08:40:47.736Z</time></trkpt><trkpt lat="42.2738117" lon="13.712135"><ele>876.4000000000001</ele><time>2026-05-03T08:40:48.737Z</time></trkpt><trkpt lat="42.2737917" lon="13.71199"><ele>877.6</ele><time>2026-05-03T08:40:49.737Z</time></trkpt><trkpt lat="42.2737617" lon="13.7118567"><ele>878.8</ele><time>2026-05-03T08:40:50.737Z</time></trkpt><trkpt lat="42.273725" lon="13.71172"><ele>880.0</ele><time>2026-05-03T08:40:51.736Z</time></trkpt><trkpt lat="42.2736833" lon="13.7116017"><ele>879.9999999999999</ele><time>2026-05-03T08:40:52.737Z</time></trkpt><trkpt lat="42.2736433" lon="13.7114917"><ele>880.0</ele><time>2026-05-03T08:40:53.736Z</time></trkpt><trkpt lat="42.2736067" lon="13.7113883"><ele>880.0</ele><time>2026-05-03T08:40:54.737Z</time></trkpt><trkpt lat="42.2735767" lon="13.7112867"><ele>880.0</ele><time>2026-05-03T08:40:55.737Z</time></trkpt><trkpt lat="42.27354" lon="13.7111933"><ele>879.9999999999999</ele><time>2026-05-03T08:40:56.736Z</time></trkpt><trkpt lat="42.27349" lon="13.7110883"><ele>880.0</ele><time>2026-05-03T08:40:57.736Z</time></trkpt><trkpt lat="42.2734433" lon="13.7109933"><ele>879.3333333333333</ele><time>2026-05-03T08:40:58.737Z</time></trkpt><trkpt lat="42.2734083" lon="13.7109033"><ele>878.6666666666666</ele><time>2026-05-03T08:40:59.736Z</time></trkpt><trkpt lat="42.27337" lon="13.7108017"><ele>878.0</ele><time>2026-05-03T08:41:00.737Z</time></trkpt><trkpt lat="42.2733317" lon="13.7107083"><ele>877.3333333333333</ele><time>2026-05-03T08:41:01.737Z</time></trkpt><trkpt lat="42.2732917" lon="13.7106117"><ele>876.6666666666666</ele><time>2026-05-03T08:41:02.737Z</time></trkpt><trkpt lat="42.2732517" lon="13.7105333"><ele>876.0</ele><time>2026-05-03T08:41:03.737Z</time></trkpt><trkpt lat="42.273195" lon="13.7104733"><ele>877.4</ele><time>2026-05-03T08:41:04.736Z</time></trkpt><trkpt lat="42.2730917" lon="13.710375"><ele>878.8</ele><time>2026-05-03T08:41:06.737Z</time></trkpt><trkpt lat="42.2729667" lon="13.7103417"><ele>880.1999999999999</ele><time>2026-05-03T08:41:08.737Z</time></trkpt><trkpt lat="42.27289" lon="13.7103517"><ele>881.5999999999999</ele><time>2026-05-03T08:41:09.737Z</time></trkpt><trkpt lat="42.2728067" lon="13.7103717"><ele>883.0</ele><time>2026-05-03T08:41:10.736Z</time></trkpt><trkpt lat="42.272715" lon="13.710385"><ele>882.9999999999999</ele><time>2026-05-03T08:41:11.736Z</time></trkpt><trkpt lat="42.27262" lon="13.7104017"><ele>883.0</ele><time>2026-05-03T08:41:12.737Z</time></trkpt><trkpt lat="42.272535" lon="13.7104133"><ele>883.0</ele><time>2026-05-03T08:41:13.737Z</time></trkpt><trkpt lat="42.27247" lon="13.7104017"><ele>883.0</ele><time>2026-05-03T08:41:14.737Z</time></trkpt><trkpt lat="42.2724" lon="13.71034"><ele>882.9999999999999</ele><time>2026-05-03T08:41:16.736Z</time></trkpt><trkpt lat="42.272375" lon="13.710215"><ele>883.0</ele><time>2026-05-03T08:41:18.736Z</time></trkpt><trkpt lat="42.2723233" lon="13.7100917"><ele>882.0</ele><time>2026-05-03T08:41:20.737Z</time></trkpt><trkpt lat="42.27223" lon="13.7100217"><ele>881.0</ele><time>2026-05-03T08:41:22.737Z</time></trkpt><trkpt lat="42.2721267" lon="13.709975"><ele>880.0</ele><time>2026-05-03T08:41:24.736Z</time></trkpt><trkpt lat="42.2720283" lon="13.70988"><ele>879.0</ele><time>2026-05-03T08:41:26.737Z</time></trkpt><trkpt lat="42.2719417" lon="13.7097567"><ele>879.0</ele><time>2026-05-03T08:41:28.737Z</time></trkpt><trkpt lat="42.2718967" lon="13.7096817"><ele>879.0</ele><time>2026-05-03T08:41:29.736Z</time></trkpt><trkpt lat="42.2718533" lon="13.7096117"><ele>879.0</ele><time>2026-05-03T08:41:30.737Z</time></trkpt><trkpt lat="42.2718133" lon="13.70954"><ele>879.0</ele><time>2026-05-03T08:41:31.736Z</time></trkpt><trkpt lat="42.2717733" lon="13.7094"><ele>879.0</ele><time>2026-05-03T08:41:33.737Z</time></trkpt><trkpt lat="42.2717483" lon="13.7092783"><ele>879.0</ele><time>2026-05-03T08:41:35.736Z</time></trkpt><trkpt lat="42.27173" lon="13.7091633"><ele>878.8333333333334</ele><time>2026-05-03T08:41:37.737Z</time></trkpt><trkpt lat="42.271715" lon="13.7090667"><ele>878.6666666666667</ele><time>2026-05-03T08:41:39.737Z</time></trkpt><trkpt lat="42.2716883" lon="13.70897"><ele>878.5</ele><time>2026-05-03T08:41:41.736Z</time></trkpt><trkpt lat="42.2716533" lon="13.708825"><ele>878.3333333333334</ele><time>2026-05-03T08:41:43.737Z</time></trkpt><trkpt lat="42.2716333" lon="13.7087383"><ele>878.1666666666667</ele><time>2026-05-03T08:41:44.737Z</time></trkpt><trkpt lat="42.2716183" lon="13.70864"><ele>878.0</ele><time>2026-05-03T08:41:45.736Z</time></trkpt><trkpt lat="42.2716017" lon="13.7085267"><ele>877.4</ele><time>2026-05-03T08:41:46.736Z</time></trkpt><trkpt lat="42.2715933" lon="13.7084067"><ele>876.8</ele><time>2026-05-03T08:41:47.737Z</time></trkpt><trkpt lat="42.27159" lon="13.7082783"><ele>876.2</ele><time>2026-05-03T08:41:48.737Z</time></trkpt><trkpt lat="42.2715917" lon="13.7081383"><ele>875.6</ele><time>2026-05-03T08:41:49.737Z</time></trkpt><trkpt lat="42.2715967" lon="13.70801"><ele>875.0</ele><time>2026-05-03T08:41:50.736Z</time></trkpt><trkpt lat="42.2715967" lon="13.7078833"><ele>875.0</ele><time>2026-05-03T08:41:51.736Z</time></trkpt><trkpt lat="42.2715817" lon="13.707755"><ele>875.0</ele><time>2026-05-03T08:41:52.737Z</time></trkpt><trkpt lat="42.27156" lon="13.7076417"><ele>875.0</ele><time>2026-05-03T08:41:53.737Z</time></trkpt><trkpt lat="42.271555" lon="13.7075317"><ele>875.0</ele><time>2026-05-03T08:41:54.737Z</time></trkpt><trkpt lat="42.2715717" lon="13.7074133"><ele>875.0</ele><time>2026-05-03T08:41:55.737Z</time></trkpt><trkpt lat="42.2716033" lon="13.70729"><ele>874.1666666666667</ele><time>2026-05-03T08:41:56.737Z</time></trkpt><trkpt lat="42.2716317" lon="13.70717"><ele>873.3333333333334</ele><time>2026-05-03T08:41:57.737Z</time></trkpt><trkpt lat="42.27165" lon="13.7070483"><ele>872.5</ele><time>2026-05-03T08:41:58.737Z</time></trkpt><trkpt lat="42.2716583" lon="13.706935"><ele>871.6666666666667</ele><time>2026-05-03T08:41:59.736Z</time></trkpt><trkpt lat="42.2716717" lon="13.706815"><ele>870.8333333333334</ele><time>2026-05-03T08:42:00.736Z</time></trkpt><trkpt lat="42.2716833" lon="13.7066967"><ele>870.0</ele><time>2026-05-03T08:42:01.737Z</time></trkpt><trkpt lat="42.271695" lon="13.706585"><ele>868.5</ele><time>2026-05-03T08:42:02.737Z</time></trkpt><trkpt lat="42.2717083" lon="13.7064833"><ele>867.0</ele><time>2026-05-03T08:42:03.737Z</time></trkpt><trkpt lat="42.27172" lon="13.70638"><ele>865.5</ele><time>2026-05-03T08:42:04.736Z</time></trkpt><trkpt lat="42.2717217" lon="13.7062783"><ele>864.0</ele><time>2026-05-03T08:42:05.736Z</time></trkpt><trkpt lat="42.2717233" lon="13.7061667"><ele>862.5</ele><time>2026-05-03T08:42:06.736Z</time></trkpt><trkpt lat="42.2717167" lon="13.7060533"><ele>861.0</ele><time>2026-05-03T08:42:07.736Z</time></trkpt><trkpt lat="42.271715" lon="13.7059467"><ele>859.8333333333334</ele><time>2026-05-03T08:42:08.737Z</time></trkpt><trkpt lat="42.27171" lon="13.7058417"><ele>858.6666666666667</ele><time>2026-05-03T08:42:09.737Z</time></trkpt><trkpt lat="42.27171" lon="13.7057217"><ele>857.5</ele><time>2026-05-03T08:42:10.736Z</time></trkpt><trkpt lat="42.2717" lon="13.70562"><ele>856.3333333333334</ele><time>2026-05-03T08:42:11.737Z</time></trkpt><trkpt lat="42.2716867" lon="13.70551"><ele>855.1666666666667</ele><time>2026-05-03T08:42:12.737Z</time></trkpt><trkpt lat="42.2716667" lon="13.7054133"><ele>854.0</ele><time>2026-05-03T08:42:13.737Z</time></trkpt><trkpt lat="42.2716417" lon="13.7053333"><ele>853.1666666666667</ele><time>2026-05-03T08:42:14.737Z</time></trkpt><trkpt lat="42.2716183" lon="13.705245"><ele>852.3333333333334</ele><time>2026-05-03T08:42:15.736Z</time></trkpt><trkpt lat="42.271555" lon="13.705135"><ele>851.5</ele><time>2026-05-03T08:42:17.736Z</time></trkpt><trkpt lat="42.271435" lon="13.705085"><ele>850.6666666666667</ele><time>2026-05-03T08:42:19.737Z</time></trkpt><trkpt lat="42.2713783" lon="13.705035"><ele>849.8333333333334</ele><time>2026-05-03T08:42:20.736Z</time></trkpt><trkpt lat="42.2713267" lon="13.704975"><ele>849.0</ele><time>2026-05-03T08:42:21.736Z</time></trkpt><trkpt lat="42.271265" lon="13.7049217"><ele>848.1666666666666</ele><time>2026-05-03T08:42:22.736Z</time></trkpt><trkpt lat="42.2711633" lon="13.70482"><ele>847.3333333333333</ele><time>2026-05-03T08:42:24.736Z</time></trkpt><trkpt lat="42.2711133" lon="13.7047483"><ele>846.5</ele><time>2026-05-03T08:42:25.736Z</time></trkpt><trkpt lat="42.2710683" lon="13.70467"><ele>845.6666666666666</ele><time>2026-05-03T08:42:26.736Z</time></trkpt><trkpt lat="42.2710267" lon="13.70458"><ele>844.8333333333333</ele><time>2026-05-03T08:42:27.736Z</time></trkpt><trkpt lat="42.2709883" lon="13.70449"><ele>844.0</ele><time>2026-05-03T08:42:28.736Z</time></trkpt><trkpt lat="42.2709433" lon="13.7043933"><ele>842.8333333333333</ele><time>2026-05-03T08:42:29.736Z</time></trkpt><trkpt lat="42.2709083" lon="13.7042883"><ele>841.6666666666666</ele><time>2026-05-03T08:42:30.736Z</time></trkpt><trkpt lat="42.2708783" lon="13.70419"><ele>840.5</ele><time>2026-05-03T08:42:31.735Z</time></trkpt><trkpt lat="42.270845" lon="13.7041067"><ele>839.3333333333333</ele><time>2026-05-03T08:42:32.735Z</time></trkpt><trkpt lat="42.2708033" lon="13.7040317"><ele>838.1666666666666</ele><time>2026-05-03T08:42:33.735Z</time></trkpt><trkpt lat="42.2707533" lon="13.70398"><ele>837.0</ele><time>2026-05-03T08:42:34.735Z</time></trkpt><trkpt lat="42.2706483" lon="13.7039683"><ele>836.6666666666666</ele><time>2026-05-03T08:42:36.735Z</time></trkpt><trkpt lat="42.2705583" lon="13.70395"><ele>836.3333333333333</ele><time>2026-05-03T08:42:38.736Z</time></trkpt><trkpt lat="42.27047" lon="13.7039233"><ele>836.0</ele><time>2026-05-03T08:42:41.736Z</time></trkpt><trkpt lat="42.2703717" lon="13.70393"><ele>835.6666666666666</ele><time>2026-05-03T08:42:43.736Z</time></trkpt><trkpt lat="42.2703033" lon="13.703925"><ele>835.3333333333333</ele><time>2026-05-03T08:42:44.736Z</time></trkpt><trkpt lat="42.2702317" lon="13.70392"><ele>835.0</ele><time>2026-05-03T08:42:45.736Z</time></trkpt><trkpt lat="42.2701567" lon="13.7039267"><ele>834.9999999999999</ele><time>2026-05-03T08:42:46.736Z</time></trkpt><trkpt lat="42.2700917" lon="13.7039167"><ele>835.0</ele><time>2026-05-03T08:42:47.736Z</time></trkpt><trkpt lat="42.269995" lon="13.7038483"><ele>835.0</ele><time>2026-05-03T08:42:49.735Z</time></trkpt><trkpt lat="42.2699583" lon="13.703775"><ele>835.0</ele><time>2026-05-03T08:42:50.735Z</time></trkpt><trkpt lat="42.2699133" lon="13.703705"><ele>834.9999999999999</ele><time>2026-05-03T08:42:51.736Z</time></trkpt><trkpt lat="42.2698433" lon="13.7036417"><ele>835.0</ele><time>2026-05-03T08:42:52.736Z</time></trkpt><trkpt lat="42.2697683" lon="13.7035933"><ele>833.3333333333333</ele><time>2026-05-03T08:42:53.736Z</time></trkpt><trkpt lat="42.2696917" lon="13.7035583"><ele>831.6666666666666</ele><time>2026-05-03T08:42:54.735Z</time></trkpt><trkpt lat="42.269615" lon="13.7035283"><ele>830.0</ele><time>2026-05-03T08:42:55.736Z</time></trkpt><trkpt lat="42.26954" lon="13.7034933"><ele>828.3333333333333</ele><time>2026-05-03T08:42:56.735Z</time></trkpt><trkpt lat="42.26946" lon="13.7034767"><ele>826.6666666666666</ele><time>2026-05-03T08:42:57.736Z</time></trkpt><trkpt lat="42.2693883" lon="13.703465"><ele>825.0</ele><time>2026-05-03T08:42:58.735Z</time></trkpt><trkpt lat="42.2693167" lon="13.703455"><ele>825.0</ele><time>2026-05-03T08:42:59.735Z</time></trkpt><trkpt lat="42.2692517" lon="13.703425"><ele>825.0</ele><time>2026-05-03T08:43:00.736Z</time></trkpt><trkpt lat="42.2691917" lon="13.7033783"><ele>825.0</ele><time>2026-05-03T08:43:01.736Z</time></trkpt><trkpt lat="42.2691383" lon="13.70333"><ele>825.0</ele><time>2026-05-03T08:43:02.735Z</time></trkpt><trkpt lat="42.2690433" lon="13.70325"><ele>825.0</ele><time>2026-05-03T08:43:04.736Z</time></trkpt><trkpt lat="42.2689383" lon="13.7031817"><ele>825.0</ele><time>2026-05-03T08:43:06.736Z</time></trkpt><trkpt lat="42.2688417" lon="13.7031167"><ele>823.4</ele><time>2026-05-03T08:43:08.736Z</time></trkpt><trkpt lat="42.268765" lon="13.703115"><ele>821.8</ele><time>2026-05-03T08:43:10.736Z</time></trkpt><trkpt lat="42.2687033" lon="13.7031733"><ele>820.2</ele><time>2026-05-03T08:43:12.736Z</time></trkpt><trkpt lat="42.2686267" lon="13.703255"><ele>818.6</ele><time>2026-05-03T08:43:14.735Z</time></trkpt><trkpt lat="42.26855" lon="13.70334"><ele>817.0</ele><time>2026-05-03T08:43:16.736Z</time></trkpt><trkpt lat="42.268465" lon="13.703445"><ele>817.0</ele><time>2026-05-03T08:43:18.736Z</time></trkpt><trkpt lat="42.268405" lon="13.7035383"><ele>817.0</ele><time>2026-05-03T08:43:20.736Z</time></trkpt><trkpt lat="42.26835" lon="13.7036333"><ele>817.0</ele><time>2026-05-03T08:43:22.736Z</time></trkpt><trkpt lat="42.2683117" lon="13.703715"><ele>817.0</ele><time>2026-05-03T08:43:25.735Z</time></trkpt><trkpt lat="42.2682533" lon="13.7038367"><ele>817.0</ele><time>2026-05-03T08:44:13.735Z</time></trkpt><trkpt lat="42.2681883" lon="13.7039733"><ele>817.0</ele><time>2026-05-03T08:44:15.735Z</time></trkpt><trkpt lat="42.2681367" lon="13.704125"><ele>817.0</ele><time>2026-05-03T08:44:17.735Z</time></trkpt><trkpt lat="42.26811" lon="13.704205"><ele>817.0</ele><time>2026-05-03T08:44:18.735Z</time></trkpt><trkpt lat="42.26809" lon="13.7042917"><ele>817.0</ele><time>2026-05-03T08:44:19.735Z</time></trkpt><trkpt lat="42.2680533" lon="13.7044483"><ele>817.0</ele><time>2026-05-03T08:44:21.736Z</time></trkpt><trkpt lat="42.2680167" lon="13.7045883"><ele>816.9999999999999</ele><time>2026-05-03T08:44:23.735Z</time></trkpt><trkpt lat="42.2679967" lon="13.7047183"><ele>817.0</ele><time>2026-05-03T08:44:25.735Z</time></trkpt><trkpt lat="42.2679767" lon="13.7048183"><ele>817.0</ele><time>2026-05-03T08:44:27.736Z</time></trkpt><trkpt lat="42.2679167" lon="13.7046933"><ele>817.0</ele><time>2026-05-03T08:45:00.736Z</time></trkpt><trkpt lat="42.267905" lon="13.7046"><ele>816.9999999999999</ele><time>2026-05-03T08:45:01.735Z</time></trkpt><trkpt lat="42.2679" lon="13.7044917"><ele>817.0</ele><time>2026-05-03T08:45:02.736Z</time></trkpt><trkpt lat="42.2678883" lon="13.7043933"><ele>816.9999999999999</ele><time>2026-05-03T08:45:03.736Z</time></trkpt><trkpt lat="42.2678767" lon="13.7043083"><ele>817.0</ele><time>2026-05-03T08:45:04.735Z</time></trkpt><trkpt lat="42.2678283" lon="13.704185"><ele>817.0</ele><time>2026-05-03T08:45:06.736Z</time></trkpt><trkpt lat="42.2677267" lon="13.7041283"><ele>817.0</ele><time>2026-05-03T08:45:08.735Z</time></trkpt><trkpt lat="42.267655" lon="13.70412"><ele>816.9999999999999</ele><time>2026-05-03T08:45:09.736Z</time></trkpt><trkpt lat="42.26759" lon="13.7041"><ele>817.0</ele><time>2026-05-03T08:45:10.735Z</time></trkpt><trkpt lat="42.2675267" lon="13.704065"><ele>817.0</ele><time>2026-05-03T08:45:11.736Z</time></trkpt><trkpt lat="42.267465" lon="13.7040067"><ele>817.0</ele><time>2026-05-03T08:45:12.735Z</time></trkpt><trkpt lat="42.267395" lon="13.7039283"><ele>817.0</ele><time>2026-05-03T08:45:13.736Z</time></trkpt><trkpt lat="42.2673217" lon="13.703845"><ele>817.0</ele><time>2026-05-03T08:45:14.736Z</time></trkpt><trkpt lat="42.267235" lon="13.703755"><ele>817.0</ele><time>2026-05-03T08:45:15.735Z</time></trkpt><trkpt lat="42.2671483" lon="13.703655"><ele>816.0</ele><time>2026-05-03T08:45:16.736Z</time></trkpt><trkpt lat="42.2670633" lon="13.7035517"><ele>815.0</ele><time>2026-05-03T08:45:17.736Z</time></trkpt><trkpt lat="42.2669867" lon="13.7034433"><ele>814.0</ele><time>2026-05-03T08:45:18.735Z</time></trkpt><trkpt lat="42.26692" lon="13.7033433"><ele>813.0</ele><time>2026-05-03T08:45:19.736Z</time></trkpt><trkpt lat="42.266855" lon="13.703265"><ele>812.0</ele><time>2026-05-03T08:45:20.736Z</time></trkpt><trkpt lat="42.26681" lon="13.7031817"><ele>812.0000000000001</ele><time>2026-05-03T08:45:21.736Z</time></trkpt><trkpt lat="42.2667583" lon="13.7031017"><ele>812.0</ele><time>2026-05-03T08:45:22.736Z</time></trkpt><trkpt lat="42.2667267" lon="13.7030233"><ele>812.0</ele><time>2026-05-03T08:45:23.736Z</time></trkpt><trkpt lat="42.266695" lon="13.7029467"><ele>812.0</ele><time>2026-05-03T08:45:24.736Z</time></trkpt><trkpt lat="42.2666017" lon="13.7028783"><ele>812.0000000000001</ele><time>2026-05-03T08:45:26.736Z</time></trkpt><trkpt lat="42.2664833" lon="13.7029283"><ele>812.0</ele><time>2026-05-03T08:45:28.736Z</time></trkpt><trkpt lat="42.2663883" lon="13.702995"><ele>810.5</ele><time>2026-05-03T08:45:29.735Z</time></trkpt><trkpt lat="42.2662867" lon="13.7030733"><ele>809.0</ele><time>2026-05-03T08:45:30.736Z</time></trkpt><trkpt lat="42.2661817" lon="13.70316"><ele>807.5</ele><time>2026-05-03T08:45:31.736Z</time></trkpt><trkpt lat="42.26608" lon="13.7032467"><ele>806.0</ele><time>2026-05-03T08:45:32.736Z</time></trkpt><trkpt lat="42.2659783" lon="13.7033133"><ele>806.0</ele><time>2026-05-03T08:45:33.735Z</time></trkpt><trkpt lat="42.2658783" lon="13.70337"><ele>806.0</ele><time>2026-05-03T08:45:34.735Z</time></trkpt><trkpt lat="42.2657733" lon="13.7034133"><ele>806.0</ele><time>2026-05-03T08:45:35.735Z</time></trkpt><trkpt lat="42.2656533" lon="13.7034333"><ele>806.0</ele><time>2026-05-03T08:45:36.735Z</time></trkpt><trkpt lat="42.2655283" lon="13.7034317"><ele>805.75</ele><time>2026-05-03T08:45:37.735Z</time></trkpt><trkpt lat="42.2653933" lon="13.7034317"><ele>805.5</ele><time>2026-05-03T08:45:38.736Z</time></trkpt><trkpt lat="42.2652567" lon="13.703425"><ele>805.25</ele><time>2026-05-03T08:45:39.736Z</time></trkpt><trkpt lat="42.2651283" lon="13.7034383"><ele>805.0</ele><time>2026-05-03T08:45:40.736Z</time></trkpt><trkpt lat="42.2650017" lon="13.7034517"><ele>805.0</ele><time>2026-05-03T08:45:41.735Z</time></trkpt><trkpt lat="42.2648783" lon="13.7034517"><ele>805.0</ele><time>2026-05-03T08:45:42.736Z</time></trkpt><trkpt lat="42.2647583" lon="13.703445"><ele>805.0</ele><time>2026-05-03T08:45:43.736Z</time></trkpt><trkpt lat="42.2646267" lon="13.7034067"><ele>805.0</ele><time>2026-05-03T08:45:44.736Z</time></trkpt><trkpt lat="42.2645" lon="13.7033617"><ele>805.4</ele><time>2026-05-03T08:45:45.736Z</time></trkpt><trkpt lat="42.2643883" lon="13.7033033"><ele>805.8</ele><time>2026-05-03T08:45:46.736Z</time></trkpt><trkpt lat="42.2642917" lon="13.7032517"><ele>806.2</ele><time>2026-05-03T08:45:47.736Z</time></trkpt><trkpt lat="42.2642033" lon="13.70319"><ele>806.6</ele><time>2026-05-03T08:45:48.736Z</time></trkpt><trkpt lat="42.2641233" lon="13.7031267"><ele>807.0</ele><time>2026-05-03T08:45:49.735Z</time></trkpt><trkpt lat="42.2640517" lon="13.7030383"><ele>807.0</ele><time>2026-05-03T08:45:50.735Z</time></trkpt><trkpt lat="42.2639883" lon="13.70295"><ele>807.0</ele><time>2026-05-03T08:45:51.736Z</time></trkpt><trkpt lat="42.2639417" lon="13.70283"><ele>807.0</ele><time>2026-05-03T08:45:52.736Z</time></trkpt><trkpt lat="42.2638967" lon="13.7027"><ele>807.0</ele><time>2026-05-03T08:45:53.736Z</time></trkpt><trkpt lat="42.2638533" lon="13.7025783"><ele>807.0</ele><time>2026-05-03T08:45:54.735Z</time></trkpt><trkpt lat="42.2638067" lon="13.70244"><ele>806.6</ele><time>2026-05-03T08:45:55.736Z</time></trkpt><trkpt lat="42.2637667" lon="13.7023083"><ele>806.2</ele><time>2026-05-03T08:45:56.736Z</time></trkpt><trkpt lat="42.2637217" lon="13.7021983"><ele>805.8</ele><time>2026-05-03T08:45:57.736Z</time></trkpt><trkpt lat="42.26368" lon="13.7020917"><ele>805.4</ele><time>2026-05-03T08:45:58.735Z</time></trkpt><trkpt lat="42.2636283" lon="13.702"><ele>805.0</ele><time>2026-05-03T08:45:59.735Z</time></trkpt><trkpt lat="42.2635667" lon="13.7018967"><ele>804.6</ele><time>2026-05-03T08:46:00.736Z</time></trkpt><trkpt lat="42.2635017" lon="13.7017867"><ele>804.2</ele><time>2026-05-03T08:46:01.736Z</time></trkpt><trkpt lat="42.2634517" lon="13.701695"><ele>803.8</ele><time>2026-05-03T08:46:02.735Z</time></trkpt><trkpt lat="42.263335" lon="13.7016"><ele>803.4</ele><time>2026-05-03T08:46:04.736Z</time></trkpt><trkpt lat="42.2632667" lon="13.7016067"><ele>803.0</ele><time>2026-05-03T08:46:05.736Z</time></trkpt><trkpt lat="42.2631833" lon="13.7016267"><ele>806.8</ele><time>2026-05-03T08:46:06.736Z</time></trkpt><trkpt lat="42.2630867" lon="13.7016383"><ele>810.5999999999999</ele><time>2026-05-03T08:46:07.735Z</time></trkpt><trkpt lat="42.2629917" lon="13.7016517"><ele>814.4000000000001</ele><time>2026-05-03T08:46:08.736Z</time></trkpt><trkpt lat="42.2629117" lon="13.7016767"><ele>818.2</ele><time>2026-05-03T08:46:09.736Z</time></trkpt><trkpt lat="42.26283" lon="13.7017267"><ele>822.0</ele><time>2026-05-03T08:46:10.735Z</time></trkpt><trkpt lat="42.2627567" lon="13.7018033"><ele>822.0</ele><time>2026-05-03T08:46:11.736Z</time></trkpt><trkpt lat="42.2626767" lon="13.7018767"><ele>822.0</ele><time>2026-05-03T08:46:12.736Z</time></trkpt><trkpt lat="42.2625933" lon="13.7019483"><ele>822.0</ele><time>2026-05-03T08:46:13.736Z</time></trkpt><trkpt lat="42.26252" lon="13.7020167"><ele>822.0</ele><time>2026-05-03T08:46:14.735Z</time></trkpt><trkpt lat="42.2624417" lon="13.7020717"><ele>822.0</ele><time>2026-05-03T08:46:15.736Z</time></trkpt><trkpt lat="42.2623667" lon="13.7021217"><ele>824.2</ele><time>2026-05-03T08:46:16.736Z</time></trkpt><trkpt lat="42.2622783" lon="13.7021733"><ele>826.4000000000001</ele><time>2026-05-03T08:46:17.736Z</time></trkpt><trkpt lat="42.262185" lon="13.7022367"><ele>828.5999999999999</ele><time>2026-05-03T08:46:18.736Z</time></trkpt><trkpt lat="42.2620933" lon="13.7023133"><ele>830.8</ele><time>2026-05-03T08:46:19.735Z</time></trkpt><trkpt lat="42.2620033" lon="13.70239"><ele>833.0</ele><time>2026-05-03T08:46:20.736Z</time></trkpt><trkpt lat="42.26191" lon="13.7024783"><ele>833.0</ele><time>2026-05-03T08:46:21.736Z</time></trkpt><trkpt lat="42.2618067" lon="13.7025617"><ele>833.0</ele><time>2026-05-03T08:46:22.736Z</time></trkpt><trkpt lat="42.2617117" lon="13.7026517"><ele>833.0</ele><time>2026-05-03T08:46:23.735Z</time></trkpt><trkpt lat="42.2616067" lon="13.7027433"><ele>833.0</ele><time>2026-05-03T08:46:24.736Z</time></trkpt><trkpt lat="42.26151" lon="13.7028317"><ele>832.4</ele><time>2026-05-03T08:46:25.735Z</time></trkpt><trkpt lat="42.2614133" lon="13.7029017"><ele>831.8</ele><time>2026-05-03T08:46:26.735Z</time></trkpt><trkpt lat="42.2613167" lon="13.7029683"><ele>831.2</ele><time>2026-05-03T08:46:27.734Z</time></trkpt><trkpt lat="42.26122" lon="13.7030333"><ele>830.6</ele><time>2026-05-03T08:46:28.734Z</time></trkpt><trkpt lat="42.2611217" lon="13.703105"><ele>830.0</ele><time>2026-05-03T08:46:29.734Z</time></trkpt><trkpt lat="42.2610117" lon="13.7031783"><ele>830.0</ele><time>2026-05-03T08:46:30.735Z</time></trkpt><trkpt lat="42.2608967" lon="13.7032517"><ele>830.0</ele><time>2026-05-03T08:46:31.735Z</time></trkpt><trkpt lat="42.2607783" lon="13.7033233"><ele>830.0</ele><time>2026-05-03T08:46:32.735Z</time></trkpt><trkpt lat="42.2606567" lon="13.7033783"><ele>830.0</ele><time>2026-05-03T08:46:33.734Z</time></trkpt><trkpt lat="42.2605517" lon="13.7034167"><ele>830.0</ele><time>2026-05-03T08:46:34.735Z</time></trkpt><trkpt lat="42.260435" lon="13.70345"><ele>830.0</ele><time>2026-05-03T08:46:35.735Z</time></trkpt><trkpt lat="42.2603217" lon="13.7034833"><ele>830.0</ele><time>2026-05-03T08:46:36.735Z</time></trkpt><trkpt lat="42.2602083" lon="13.7035133"><ele>830.0</ele><time>2026-05-03T08:46:37.734Z</time></trkpt><trkpt lat="42.26011" lon="13.7035433"><ele>830.0000000000001</ele><time>2026-05-03T08:46:38.735Z</time></trkpt><trkpt lat="42.260035" lon="13.7035317"><ele>830.0</ele><time>2026-05-03T08:46:39.735Z</time></trkpt><trkpt lat="42.2599383" lon="13.70348"><ele>830.0</ele><time>2026-05-03T08:46:41.735Z</time></trkpt><trkpt lat="42.2599183" lon="13.703385"><ele>830.0</ele><time>2026-05-03T08:46:42.734Z</time></trkpt><trkpt lat="42.2599083" lon="13.703275"><ele>830.0000000000001</ele><time>2026-05-03T08:46:43.734Z</time></trkpt><trkpt lat="42.2598983" lon="13.7031433"><ele>830.0</ele><time>2026-05-03T08:46:44.734Z</time></trkpt><trkpt lat="42.2598867" lon="13.7030033"><ele>830.0</ele><time>2026-05-03T08:46:45.734Z</time></trkpt><trkpt lat="42.2598767" lon="13.7028433"><ele>830.0</ele><time>2026-05-03T08:46:46.735Z</time></trkpt><trkpt lat="42.25986" lon="13.7026717"><ele>830.0</ele><time>2026-05-03T08:46:47.735Z</time></trkpt><trkpt lat="42.2598583" lon="13.7024967"><ele>830.0</ele><time>2026-05-03T08:46:48.735Z</time></trkpt><trkpt lat="42.25986" lon="13.7023233"><ele>831.75</ele><time>2026-05-03T08:46:49.734Z</time></trkpt><trkpt lat="42.2598683" lon="13.70215"><ele>833.5</ele><time>2026-05-03T08:46:50.735Z</time></trkpt><trkpt lat="42.2599" lon="13.70198"><ele>835.25</ele><time>2026-05-03T08:46:51.735Z</time></trkpt><trkpt lat="42.2599183" lon="13.70183"><ele>837.0</ele><time>2026-05-03T08:46:52.734Z</time></trkpt><trkpt lat="42.2599133" lon="13.7017"><ele>835.8</ele><time>2026-05-03T08:46:53.734Z</time></trkpt><trkpt lat="42.2598833" lon="13.7015733"><ele>834.6</ele><time>2026-05-03T08:46:54.735Z</time></trkpt><trkpt lat="42.25984" lon="13.7014667"><ele>833.4</ele><time>2026-05-03T08:46:55.735Z</time></trkpt><trkpt lat="42.2597867" lon="13.701375"><ele>832.1999999999999</ele><time>2026-05-03T08:46:56.734Z</time></trkpt><trkpt lat="42.2596967" lon="13.7013083"><ele>831.0</ele><time>2026-05-03T08:46:57.734Z</time></trkpt><trkpt lat="42.259585" lon="13.7012567"><ele>831.0</ele><time>2026-05-03T08:46:58.735Z</time></trkpt><trkpt lat="42.2594683" lon="13.7011933"><ele>831.0</ele><time>2026-05-03T08:46:59.734Z</time></trkpt><trkpt lat="42.2593467" lon="13.701135"><ele>831.0</ele><time>2026-05-03T08:47:00.734Z</time></trkpt><trkpt lat="42.2592233" lon="13.701065"><ele>831.0</ele><time>2026-05-03T08:47:01.735Z</time></trkpt><trkpt lat="42.2591067" lon="13.700985"><ele>836.0</ele><time>2026-05-03T08:47:02.734Z</time></trkpt><trkpt lat="42.2589717" lon="13.700905"><ele>841.0</ele><time>2026-05-03T08:47:03.734Z</time></trkpt><trkpt lat="42.25883" lon="13.7008533"><ele>846.0</ele><time>2026-05-03T08:47:04.735Z</time></trkpt><trkpt lat="42.2586933" lon="13.7007633"><ele>851.0</ele><time>2026-05-03T08:47:05.735Z</time></trkpt><trkpt lat="42.258555" lon="13.7006917"><ele>851.0</ele><time>2026-05-03T08:47:06.735Z</time></trkpt><trkpt lat="42.25842" lon="13.7006167"><ele>851.0</ele><time>2026-05-03T08:47:07.735Z</time></trkpt><trkpt lat="42.25829" lon="13.7005467"><ele>851.0</ele><time>2026-05-03T08:47:08.734Z</time></trkpt><trkpt lat="42.258145" lon="13.700505"><ele>851.0</ele><time>2026-05-03T08:47:09.734Z</time></trkpt><trkpt lat="42.2580083" lon="13.700485"><ele>853.0</ele><time>2026-05-03T08:47:10.734Z</time></trkpt><trkpt lat="42.2578817" lon="13.7004717"><ele>855.0</ele><time>2026-05-03T08:47:11.735Z</time></trkpt><trkpt lat="42.2577633" lon="13.700475"><ele>857.0</ele><time>2026-05-03T08:47:12.735Z</time></trkpt><trkpt lat="42.257645" lon="13.700505"><ele>859.0</ele><time>2026-05-03T08:47:13.734Z</time></trkpt><trkpt lat="42.2575367" lon="13.7005633"><ele>859.0</ele><time>2026-05-03T08:47:14.734Z</time></trkpt><trkpt lat="42.2574267" lon="13.700625"><ele>859.0000000000001</ele><time>2026-05-03T08:47:15.734Z</time></trkpt><trkpt lat="42.257325" lon="13.7007067"><ele>859.0000000000001</ele><time>2026-05-03T08:47:16.735Z</time></trkpt><trkpt lat="42.25724" lon="13.7007717"><ele>859.0</ele><time>2026-05-03T08:47:17.735Z</time></trkpt><trkpt lat="42.2571733" lon="13.7007817"><ele>859.0</ele><time>2026-05-03T08:47:18.734Z</time></trkpt><trkpt lat="42.2571" lon="13.70074"><ele>858.1666666666666</ele><time>2026-05-03T08:47:20.735Z</time></trkpt><trkpt lat="42.25711" lon="13.7005883"><ele>857.3333333333333</ele><time>2026-05-03T08:47:22.734Z</time></trkpt><trkpt lat="42.2571017" lon="13.70048"><ele>856.5</ele><time>2026-05-03T08:47:23.735Z</time></trkpt><trkpt lat="42.2570867" lon="13.7003683"><ele>855.6666666666667</ele><time>2026-05-03T08:47:24.734Z</time></trkpt><trkpt lat="42.25707" lon="13.7002583"><ele>854.8333333333334</ele><time>2026-05-03T08:47:25.735Z</time></trkpt><trkpt lat="42.2570417" lon="13.7001567"><ele>854.0</ele><time>2026-05-03T08:47:26.735Z</time></trkpt><trkpt lat="42.256955" lon="13.7000717"><ele>854.0</ele><time>2026-05-03T08:47:28.735Z</time></trkpt><trkpt lat="42.256885" lon="13.7000917"><ele>854.0000000000001</ele><time>2026-05-03T08:47:29.735Z</time></trkpt><trkpt lat="42.2567933" lon="13.7001417"><ele>854.0000000000001</ele><time>2026-05-03T08:47:30.734Z</time></trkpt><trkpt lat="42.25669" lon="13.7002133"><ele>854.0</ele><time>2026-05-03T08:47:31.735Z</time></trkpt><trkpt lat="42.2565867" lon="13.7002767"><ele>854.0</ele><time>2026-05-03T08:47:32.735Z</time></trkpt><trkpt lat="42.2564917" lon="13.70032"><ele>853.5</ele><time>2026-05-03T08:47:33.735Z</time></trkpt><trkpt lat="42.2563967" lon="13.7003717"><ele>853.0</ele><time>2026-05-03T08:47:34.735Z</time></trkpt><trkpt lat="42.2562883" lon="13.700445"><ele>852.5</ele><time>2026-05-03T08:47:35.735Z</time></trkpt><trkpt lat="42.2561833" lon="13.7005333"><ele>852.0</ele><time>2026-05-03T08:47:36.734Z</time></trkpt><trkpt lat="42.2560717" lon="13.7006283"><ele>852.0</ele><time>2026-05-03T08:47:37.735Z</time></trkpt><trkpt lat="42.25596" lon="13.7006983"><ele>852.0</ele><time>2026-05-03T08:47:38.734Z</time></trkpt><trkpt lat="42.2558533" lon="13.7007767"><ele>852.0</ele><time>2026-05-03T08:47:39.735Z</time></trkpt><trkpt lat="42.2557533" lon="13.7008467"><ele>852.0</ele><time>2026-05-03T08:47:40.734Z</time></trkpt><trkpt lat="42.2556467" lon="13.70093"><ele>854.25</ele><time>2026-05-03T08:47:41.734Z</time></trkpt><trkpt lat="42.25554" lon="13.701"><ele>856.5</ele><time>2026-05-03T08:47:42.735Z</time></trkpt><trkpt lat="42.25543" lon="13.7010617"><ele>858.75</ele><time>2026-05-03T08:47:43.735Z</time></trkpt><trkpt lat="42.2553167" lon="13.7011083"><ele>861.0</ele><time>2026-05-03T08:47:44.735Z</time></trkpt><trkpt lat="42.2551967" lon="13.701165"><ele>861.0</ele><time>2026-05-03T08:47:45.735Z</time></trkpt><trkpt lat="42.255075" lon="13.7012117"><ele>861.0</ele><time>2026-05-03T08:47:46.734Z</time></trkpt><trkpt lat="42.2549517" lon="13.70125"><ele>861.0</ele><time>2026-05-03T08:47:47.734Z</time></trkpt><trkpt lat="42.2548133" lon="13.7012717"><ele>861.0</ele><time>2026-05-03T08:47:48.734Z</time></trkpt><trkpt lat="42.2546767" lon="13.701295"><ele>858.25</ele><time>2026-05-03T08:47:49.734Z</time></trkpt><trkpt lat="42.2545467" lon="13.7013083"><ele>855.5</ele><time>2026-05-03T08:47:50.734Z</time></trkpt><trkpt lat="42.2544217" lon="13.7013033"><ele>852.75</ele><time>2026-05-03T08:47:51.735Z</time></trkpt><trkpt lat="42.2542917" lon="13.7012883"><ele>850.0</ele><time>2026-05-03T08:47:52.735Z</time></trkpt><trkpt lat="42.2541633" lon="13.701295"><ele>850.0</ele><time>2026-05-03T08:47:53.735Z</time></trkpt><trkpt lat="42.2540467" lon="13.70128"><ele>850.0</ele><time>2026-05-03T08:47:54.735Z</time></trkpt><trkpt lat="42.2539467" lon="13.70128"><ele>850.0</ele><time>2026-05-03T08:47:55.735Z</time></trkpt><trkpt lat="42.2538533" lon="13.701295"><ele>850.0</ele><time>2026-05-03T08:47:56.735Z</time></trkpt><trkpt lat="42.2537633" lon="13.70133"><ele>850.0</ele><time>2026-05-03T08:47:57.735Z</time></trkpt><trkpt lat="42.2536567" lon="13.70139"><ele>845.0</ele><time>2026-05-03T08:47:58.735Z</time></trkpt><trkpt lat="42.2535483" lon="13.7014433"><ele>840.0</ele><time>2026-05-03T08:47:59.735Z</time></trkpt><trkpt lat="42.2534467" lon="13.7015033"><ele>835.0</ele><time>2026-05-03T08:48:00.735Z</time></trkpt><trkpt lat="42.2533467" lon="13.7015667"><ele>830.0</ele><time>2026-05-03T08:48:01.735Z</time></trkpt><trkpt lat="42.2532433" lon="13.701665"><ele>830.0</ele><time>2026-05-03T08:48:02.734Z</time></trkpt><trkpt lat="42.2531483" lon="13.7017617"><ele>830.0</ele><time>2026-05-03T08:48:03.735Z</time></trkpt><trkpt lat="42.25305" lon="13.7018483"><ele>830.0</ele><time>2026-05-03T08:48:04.735Z</time></trkpt><trkpt lat="42.2529417" lon="13.70196"><ele>830.0</ele><time>2026-05-03T08:48:05.735Z</time></trkpt><trkpt lat="42.2528333" lon="13.702065"><ele>828.25</ele><time>2026-05-03T08:48:06.735Z</time></trkpt><trkpt lat="42.25272" lon="13.702165"><ele>826.5</ele><time>2026-05-03T08:48:07.735Z</time></trkpt><trkpt lat="42.2526083" lon="13.7022667"><ele>824.75</ele><time>2026-05-03T08:48:08.734Z</time></trkpt><trkpt lat="42.2525" lon="13.7023617"><ele>823.0</ele><time>2026-05-03T08:48:09.734Z</time></trkpt><trkpt lat="42.2523983" lon="13.7024683"><ele>823.0</ele><time>2026-05-03T08:48:10.735Z</time></trkpt><trkpt lat="42.2522967" lon="13.7025583"><ele>823.0</ele><time>2026-05-03T08:48:11.734Z</time></trkpt><trkpt lat="42.252195" lon="13.7026617"><ele>823.0</ele><time>2026-05-03T08:48:12.735Z</time></trkpt><trkpt lat="42.25209" lon="13.7027433"><ele>823.0</ele><time>2026-05-03T08:48:13.735Z</time></trkpt><trkpt lat="42.2519867" lon="13.7028233"><ele>822.5</ele><time>2026-05-03T08:48:14.735Z</time></trkpt><trkpt lat="42.2518767" lon="13.70289"><ele>822.0</ele><time>2026-05-03T08:48:15.735Z</time></trkpt><trkpt lat="42.2517717" lon="13.7029317"><ele>821.5</ele><time>2026-05-03T08:48:16.735Z</time></trkpt><trkpt lat="42.2516633" lon="13.70296"><ele>821.0</ele><time>2026-05-03T08:48:17.734Z</time></trkpt><trkpt lat="42.2515533" lon="13.7029817"><ele>819.6666666666667</ele><time>2026-05-03T08:48:18.735Z</time></trkpt><trkpt lat="42.2514567" lon="13.7029867"><ele>818.3333333333334</ele><time>2026-05-03T08:48:19.735Z</time></trkpt><trkpt lat="42.2513667" lon="13.702995"><ele>817.0</ele><time>2026-05-03T08:48:20.734Z</time></trkpt><trkpt lat="42.2512783" lon="13.70299"><ele>815.6666666666667</ele><time>2026-05-03T08:48:21.735Z</time></trkpt><trkpt lat="42.2511967" lon="13.7029967"><ele>814.3333333333334</ele><time>2026-05-03T08:48:22.735Z</time></trkpt><trkpt lat="42.2511167" lon="13.703005"><ele>813.0</ele><time>2026-05-03T08:48:23.734Z</time></trkpt><trkpt lat="42.2510267" lon="13.70304"><ele>813.0</ele><time>2026-05-03T08:48:24.735Z</time></trkpt><trkpt lat="42.250935" lon="13.7030917"><ele>813.0</ele><time>2026-05-03T08:48:25.735Z</time></trkpt><trkpt lat="42.2508383" lon="13.7031733"><ele>813.0</ele><time>2026-05-03T08:48:26.734Z</time></trkpt><trkpt lat="42.2507417" lon="13.7032483"><ele>813.0</ele><time>2026-05-03T08:48:27.734Z</time></trkpt><trkpt lat="42.25064" lon="13.703335"><ele>813.0</ele><time>2026-05-03T08:48:28.734Z</time></trkpt><trkpt lat="42.250535" lon="13.70343"><ele>812.0</ele><time>2026-05-03T08:48:29.734Z</time></trkpt><trkpt lat="42.2504417" lon="13.7035217"><ele>811.0</ele><time>2026-05-03T08:48:30.735Z</time></trkpt><trkpt lat="42.2503667" lon="13.7036"><ele>810.0</ele><time>2026-05-03T08:48:31.735Z</time></trkpt><trkpt lat="42.2503033" lon="13.7036833"><ele>809.0</ele><time>2026-05-03T08:48:32.735Z</time></trkpt><trkpt lat="42.2502567" lon="13.7037483"><ele>808.0</ele><time>2026-05-03T08:48:33.734Z</time></trkpt><trkpt lat="42.25018" lon="13.7038567"><ele>807.9999999999999</ele><time>2026-05-03T08:48:35.734Z</time></trkpt><trkpt lat="42.25011" lon="13.7039933"><ele>808.0</ele><time>2026-05-03T08:48:37.735Z</time></trkpt><trkpt lat="42.25008" lon="13.7040833"><ele>808.0</ele><time>2026-05-03T08:48:38.735Z</time></trkpt><trkpt lat="42.2500467" lon="13.70418"><ele>808.0</ele><time>2026-05-03T08:48:39.735Z</time></trkpt><trkpt lat="42.250005" lon="13.7042717"><ele>807.9999999999999</ele><time>2026-05-03T08:48:40.734Z</time></trkpt><trkpt lat="42.2499683" lon="13.7043667"><ele>808.0</ele><time>2026-05-03T08:48:41.734Z</time></trkpt><trkpt lat="42.2499283" lon="13.7044617"><ele>807.8</ele><time>2026-05-03T08:48:42.734Z</time></trkpt><trkpt lat="42.2498917" lon="13.7045667"><ele>807.5999999999999</ele><time>2026-05-03T08:48:43.735Z</time></trkpt><trkpt lat="42.2498567" lon="13.7046783"><ele>807.4000000000001</ele><time>2026-05-03T08:48:44.735Z</time></trkpt><trkpt lat="42.249825" lon="13.7047933"><ele>807.2</ele><time>2026-05-03T08:48:45.735Z</time></trkpt><trkpt lat="42.249795" lon="13.7049167"><ele>807.0</ele><time>2026-05-03T08:48:46.735Z</time></trkpt><trkpt lat="42.2497633" lon="13.705035"><ele>807.0</ele><time>2026-05-03T08:48:47.734Z</time></trkpt><trkpt lat="42.2497183" lon="13.7051383"><ele>807.0</ele><time>2026-05-03T08:48:48.735Z</time></trkpt><trkpt lat="42.2496683" lon="13.7052367"><ele>807.0</ele><time>2026-05-03T08:48:49.735Z</time></trkpt><trkpt lat="42.2495967" lon="13.7053317"><ele>807.0</ele><time>2026-05-03T08:48:50.734Z</time></trkpt><trkpt lat="42.2495117" lon="13.7054217"><ele>807.0</ele><time>2026-05-03T08:48:51.735Z</time></trkpt><trkpt lat="42.24942" lon="13.70551"><ele>810.2</ele><time>2026-05-03T08:48:52.735Z</time></trkpt><trkpt lat="42.2493283" lon="13.7055983"><ele>813.4000000000001</ele><time>2026-05-03T08:48:53.734Z</time></trkpt><trkpt lat="42.24924" lon="13.7056683"><ele>816.5999999999999</ele><time>2026-05-03T08:48:54.734Z</time></trkpt><trkpt lat="42.2491533" lon="13.7057267"><ele>819.8</ele><time>2026-05-03T08:48:55.735Z</time></trkpt><trkpt lat="42.24907" lon="13.7057833"><ele>823.0</ele><time>2026-05-03T08:48:56.735Z</time></trkpt><trkpt lat="42.2489833" lon="13.7058583"><ele>822.2</ele><time>2026-05-03T08:48:57.734Z</time></trkpt><trkpt lat="42.2489" lon="13.70594"><ele>821.4</ele><time>2026-05-03T08:48:58.734Z</time></trkpt><trkpt lat="42.2488233" lon="13.70601"><ele>820.6</ele><time>2026-05-03T08:48:59.734Z</time></trkpt><trkpt lat="42.2487467" lon="13.7060817"><ele>819.8000000000001</ele><time>2026-05-03T08:49:00.734Z</time></trkpt><trkpt lat="42.2486667" lon="13.7061533"><ele>819.0</ele><time>2026-05-03T08:49:01.734Z</time></trkpt><trkpt lat="42.248595" lon="13.7062217"><ele>821.1666666666666</ele><time>2026-05-03T08:49:02.735Z</time></trkpt><trkpt lat="42.2485217" lon="13.70628"><ele>823.3333333333333</ele><time>2026-05-03T08:49:03.735Z</time></trkpt><trkpt lat="42.2484567" lon="13.7063333"><ele>825.5</ele><time>2026-05-03T08:49:04.735Z</time></trkpt><trkpt lat="42.2484017" lon="13.7063983"><ele>827.6666666666666</ele><time>2026-05-03T08:49:05.734Z</time></trkpt><trkpt lat="42.2483583" lon="13.7064767"><ele>829.8333333333333</ele><time>2026-05-03T08:49:06.734Z</time></trkpt><trkpt lat="42.248325" lon="13.70656"><ele>832.0</ele><time>2026-05-03T08:49:07.734Z</time></trkpt><trkpt lat="42.24829" lon="13.7066617"><ele>831.9999999999999</ele><time>2026-05-03T08:49:08.735Z</time></trkpt><trkpt lat="42.2482617" lon="13.7067767"><ele>832.0</ele><time>2026-05-03T08:49:09.734Z</time></trkpt><trkpt lat="42.248245" lon="13.7068733"><ele>832.0</ele><time>2026-05-03T08:49:10.735Z</time></trkpt><trkpt lat="42.2482533" lon="13.706965"><ele>832.0</ele><time>2026-05-03T08:49:11.735Z</time></trkpt><trkpt lat="42.2482867" lon="13.7070933"><ele>831.9999999999999</ele><time>2026-05-03T08:49:13.735Z</time></trkpt><trkpt lat="42.248315" lon="13.707185"><ele>832.0</ele><time>2026-05-03T08:49:15.735Z</time></trkpt><trkpt lat="42.24831" lon="13.7072767"><ele>831.9999999999999</ele><time>2026-05-03T08:49:17.735Z</time></trkpt><trkpt lat="42.2482867" lon="13.7074267"><ele>832.0</ele><time>2026-05-03T08:49:19.735Z</time></trkpt><trkpt lat="42.2482733" lon="13.7075167"><ele>832.0</ele><time>2026-05-03T08:49:20.734Z</time></trkpt><trkpt lat="42.2482517" lon="13.7076067"><ele>832.0</ele><time>2026-05-03T08:49:21.735Z</time></trkpt><trkpt lat="42.24823" lon="13.7076967"><ele>831.9999999999999</ele><time>2026-05-03T08:49:22.735Z</time></trkpt><trkpt lat="42.2482" lon="13.7077833"><ele>832.0</ele><time>2026-05-03T08:49:23.734Z</time></trkpt><trkpt lat="42.24817" lon="13.70787"><ele>830.4285714285714</ele><time>2026-05-03T08:49:24.734Z</time></trkpt><trkpt lat="42.2481367" lon="13.7079533"><ele>828.8571428571429</ele><time>2026-05-03T08:49:25.735Z</time></trkpt><trkpt lat="42.2481017" lon="13.7080517"><ele>827.2857142857143</ele><time>2026-05-03T08:49:26.735Z</time></trkpt><trkpt lat="42.2480617" lon="13.7081383"><ele>825.7142857142858</ele><time>2026-05-03T08:49:27.734Z</time></trkpt><trkpt lat="42.248005" lon="13.708215"><ele>824.1428571428571</ele><time>2026-05-03T08:49:28.735Z</time></trkpt><trkpt lat="42.2479483" lon="13.7082683"><ele>822.5714285714287</ele><time>2026-05-03T08:49:29.735Z</time></trkpt><trkpt lat="42.2478867" lon="13.7083133"><ele>821.0</ele><time>2026-05-03T08:49:30.735Z</time></trkpt><trkpt lat="42.24782" lon="13.7083617"><ele>820.4</ele><time>2026-05-03T08:49:31.734Z</time></trkpt><trkpt lat="42.247705" lon="13.7084533"><ele>819.8</ele><time>2026-05-03T08:49:33.734Z</time></trkpt><trkpt lat="42.2476467" lon="13.7085017"><ele>819.1999999999999</ele><time>2026-05-03T08:49:34.735Z</time></trkpt><trkpt lat="42.2475867" lon="13.7085467"><ele>818.5999999999999</ele><time>2026-05-03T08:49:35.734Z</time></trkpt><trkpt lat="42.2474817" lon="13.7085917"><ele>818.0</ele><time>2026-05-03T08:49:37.734Z</time></trkpt><trkpt lat="42.24741" lon="13.708585"><ele>818.0</ele><time>2026-05-03T08:49:39.735Z</time></trkpt><trkpt lat="42.247335" lon="13.7085217"><ele>818.0</ele><time>2026-05-03T08:49:42.735Z</time></trkpt><trkpt lat="42.247275" lon="13.7084033"><ele>818.0</ele><time>2026-05-03T08:49:44.735Z</time></trkpt><trkpt lat="42.24724" lon="13.708245"><ele>818.0</ele><time>2026-05-03T08:49:46.734Z</time></trkpt><trkpt lat="42.24723" lon="13.7081567"><ele>818.0</ele><time>2026-05-03T08:49:47.734Z</time></trkpt><trkpt lat="42.2472267" lon="13.7080667"><ele>816.0000000000001</ele><time>2026-05-03T08:49:48.735Z</time></trkpt><trkpt lat="42.2472167" lon="13.7079733"><ele>814.0</ele><time>2026-05-03T08:49:49.735Z</time></trkpt><trkpt lat="42.2472017" lon="13.707865"><ele>812.0</ele><time>2026-05-03T08:49:50.735Z</time></trkpt><trkpt lat="42.2471967" lon="13.7077333"><ele>810.0</ele><time>2026-05-03T08:49:51.735Z</time></trkpt><trkpt lat="42.24719" lon="13.707615"><ele>808.0000000000001</ele><time>2026-05-03T08:49:52.734Z</time></trkpt><trkpt lat="42.247185" lon="13.707505"><ele>806.0</ele><time>2026-05-03T08:49:53.734Z</time></trkpt><trkpt lat="42.24718" lon="13.7074083"><ele>806.0</ele><time>2026-05-03T08:49:54.735Z</time></trkpt><trkpt lat="42.2471733" lon="13.7072633"><ele>806.0</ele><time>2026-05-03T08:49:56.734Z</time></trkpt><trkpt lat="42.2471317" lon="13.707175"><ele>806.0</ele><time>2026-05-03T08:49:58.735Z</time></trkpt><trkpt lat="42.2470533" lon="13.7071317"><ele>806.0</ele><time>2026-05-03T08:50:00.734Z</time></trkpt><trkpt lat="42.246925" lon="13.707135"><ele>806.0</ele><time>2026-05-03T08:50:02.734Z</time></trkpt><trkpt lat="42.2468" lon="13.7071483"><ele>806.0000000000001</ele><time>2026-05-03T08:50:04.735Z</time></trkpt><trkpt lat="42.2467333" lon="13.70713"><ele>806.0</ele><time>2026-05-03T08:50:06.735Z</time></trkpt><trkpt lat="42.2466633" lon="13.707125"><ele>806.0</ele><time>2026-05-03T08:50:10.734Z</time></trkpt><trkpt lat="42.2465817" lon="13.707085"><ele>806.0</ele><time>2026-05-03T08:50:13.735Z</time></trkpt><trkpt lat="42.24651" lon="13.7070867"><ele>806.0000000000001</ele><time>2026-05-03T08:50:15.734Z</time></trkpt><trkpt lat="42.2464217" lon="13.7070533"><ele>806.0</ele><time>2026-05-03T08:50:17.734Z</time></trkpt><trkpt lat="42.2463317" lon="13.7070383"><ele>803.8333333333334</ele><time>2026-05-03T08:50:19.734Z</time></trkpt><trkpt lat="42.24626" lon="13.7070417"><ele>801.6666666666667</ele><time>2026-05-03T08:50:21.734Z</time></trkpt><trkpt lat="42.2461917" lon="13.7070533"><ele>799.5</ele><time>2026-05-03T08:50:23.734Z</time></trkpt><trkpt lat="42.246125" lon="13.7070183"><ele>797.3333333333333</ele><time>2026-05-03T08:50:26.733Z</time></trkpt><trkpt lat="42.2461367" lon="13.7071333"><ele>795.1666666666666</ele><time>2026-05-03T08:50:29.734Z</time></trkpt><trkpt lat="42.2461517" lon="13.7072317"><ele>793.0</ele><time>2026-05-03T08:50:30.734Z</time></trkpt><trkpt lat="42.2461583" lon="13.7073467"><ele>793.0</ele><time>2026-05-03T08:50:31.733Z</time></trkpt><trkpt lat="42.2461533" lon="13.7074967"><ele>793.0</ele><time>2026-05-03T08:50:32.734Z</time></trkpt><trkpt lat="42.24615" lon="13.70764"><ele>793.0</ele><time>2026-05-03T08:50:33.734Z</time></trkpt><trkpt lat="42.2461467" lon="13.7077933"><ele>793.0</ele><time>2026-05-03T08:50:34.734Z</time></trkpt><trkpt lat="42.2461383" lon="13.70794"><ele>793.0</ele><time>2026-05-03T08:50:35.733Z</time></trkpt><trkpt lat="42.2461217" lon="13.7080683"><ele>792.4</ele><time>2026-05-03T08:50:36.734Z</time></trkpt><trkpt lat="42.2461" lon="13.70821"><ele>791.8</ele><time>2026-05-03T08:50:37.734Z</time></trkpt><trkpt lat="42.246085" lon="13.7083367"><ele>791.2</ele><time>2026-05-03T08:50:38.734Z</time></trkpt><trkpt lat="42.2460717" lon="13.70847"><ele>790.6</ele><time>2026-05-03T08:50:39.734Z</time></trkpt><trkpt lat="42.2460567" lon="13.7086117"><ele>790.0</ele><time>2026-05-03T08:50:40.733Z</time></trkpt><trkpt lat="42.2460417" lon="13.7087617"><ele>789.2</ele><time>2026-05-03T08:50:41.733Z</time></trkpt><trkpt lat="42.24603" lon="13.708895"><ele>788.4</ele><time>2026-05-03T08:50:42.734Z</time></trkpt><trkpt lat="42.24602" lon="13.7090267"><ele>787.5999999999999</ele><time>2026-05-03T08:50:43.734Z</time></trkpt><trkpt lat="42.24601" lon="13.709145"><ele>786.8</ele><time>2026-05-03T08:50:44.734Z</time></trkpt><trkpt lat="42.2460267" lon="13.7092633"><ele>786.0</ele><time>2026-05-03T08:50:45.734Z</time></trkpt><trkpt lat="42.246045" lon="13.7093817"><ele>785.8</ele><time>2026-05-03T08:50:46.734Z</time></trkpt><trkpt lat="42.2460733" lon="13.7095033"><ele>785.5999999999999</ele><time>2026-05-03T08:50:47.733Z</time></trkpt><trkpt lat="42.2461167" lon="13.7096217"><ele>785.4</ele><time>2026-05-03T08:50:48.733Z</time></trkpt><trkpt lat="42.2461683" lon="13.709725"><ele>785.2</ele><time>2026-05-03T08:50:49.733Z</time></trkpt><trkpt lat="42.2462283" lon="13.7098183"><ele>785.0</ele><time>2026-05-03T08:50:50.734Z</time></trkpt><trkpt lat="42.2462917" lon="13.709905"><ele>785.0</ele><time>2026-05-03T08:50:51.734Z</time></trkpt><trkpt lat="42.2463783" lon="13.7099817"><ele>785.0</ele><time>2026-05-03T08:50:52.733Z</time></trkpt><trkpt lat="42.24647" lon="13.7100533"><ele>785.0</ele><time>2026-05-03T08:50:53.734Z</time></trkpt><trkpt lat="42.2465667" lon="13.7101067"><ele>785.0</ele><time>2026-05-03T08:50:54.734Z</time></trkpt><trkpt lat="42.2466783" lon="13.7101483"><ele>785.0</ele><time>2026-05-03T08:50:55.734Z</time></trkpt><trkpt lat="42.24679" lon="13.7101633"><ele>784.5</ele><time>2026-05-03T08:50:56.734Z</time></trkpt><trkpt lat="42.2469233" lon="13.71014"><ele>784.0</ele><time>2026-05-03T08:50:57.733Z</time></trkpt><trkpt lat="42.2470517" lon="13.7101"><ele>783.5</ele><time>2026-05-03T08:50:58.734Z</time></trkpt><trkpt lat="42.2471817" lon="13.7100583"><ele>783.0</ele><time>2026-05-03T08:50:59.734Z</time></trkpt><trkpt lat="42.2473133" lon="13.7100067"><ele>783.0</ele><time>2026-05-03T08:51:00.734Z</time></trkpt><trkpt lat="42.2474517" lon="13.7099617"><ele>783.0</ele><time>2026-05-03T08:51:01.734Z</time></trkpt><trkpt lat="42.2475867" lon="13.7099233"><ele>783.0</ele><time>2026-05-03T08:51:02.734Z</time></trkpt><trkpt lat="42.2477183" lon="13.7099"><ele>783.0</ele><time>2026-05-03T08:51:03.734Z</time></trkpt><trkpt lat="42.2478383" lon="13.70989"><ele>783.0</ele><time>2026-05-03T08:51:04.734Z</time></trkpt><trkpt lat="42.2479517" lon="13.709915"><ele>783.0</ele><time>2026-05-03T08:51:05.734Z</time></trkpt><trkpt lat="42.2480483" lon="13.7099783"><ele>783.0</ele><time>2026-05-03T08:51:06.734Z</time></trkpt><trkpt lat="42.248125" lon="13.7100617"><ele>783.0</ele><time>2026-05-03T08:51:07.733Z</time></trkpt><trkpt lat="42.2481633" lon="13.71018"><ele>783.0</ele><time>2026-05-03T08:51:08.733Z</time></trkpt><trkpt lat="42.2481717" lon="13.7103117"><ele>783.75</ele><time>2026-05-03T08:51:09.734Z</time></trkpt><trkpt lat="42.2481483" lon="13.71045"><ele>784.5</ele><time>2026-05-03T08:51:10.734Z</time></trkpt><trkpt lat="42.248105" lon="13.7106017"><ele>785.25</ele><time>2026-05-03T08:51:11.733Z</time></trkpt><trkpt lat="42.2480567" lon="13.7107517"><ele>786.0</ele><time>2026-05-03T08:51:12.734Z</time></trkpt><trkpt lat="42.2480083" lon="13.7109017"><ele>782.1999999999999</ele><time>2026-05-03T08:51:13.734Z</time></trkpt><trkpt lat="42.2479617" lon="13.7110483"><ele>778.4</ele><time>2026-05-03T08:51:14.733Z</time></trkpt><trkpt lat="42.2479217" lon="13.7111967"><ele>774.6</ele><time>2026-05-03T08:51:15.734Z</time></trkpt><trkpt lat="42.2478767" lon="13.7113383"><ele>770.8</ele><time>2026-05-03T08:51:16.734Z</time></trkpt><trkpt lat="42.2478417" lon="13.7114567"><ele>767.0</ele><time>2026-05-03T08:51:17.733Z</time></trkpt><trkpt lat="42.2478167" lon="13.71156"><ele>767.0</ele><time>2026-05-03T08:51:18.734Z</time></trkpt><trkpt lat="42.2477883" lon="13.7116633"><ele>767.0</ele><time>2026-05-03T08:51:19.733Z</time></trkpt><trkpt lat="42.2477633" lon="13.71176"><ele>767.0</ele><time>2026-05-03T08:51:20.734Z</time></trkpt><trkpt lat="42.2477467" lon="13.7118517"><ele>767.0</ele><time>2026-05-03T08:51:21.734Z</time></trkpt><trkpt lat="42.2477317" lon="13.7119417"><ele>767.0</ele><time>2026-05-03T08:51:22.734Z</time></trkpt><trkpt lat="42.2477333" lon="13.712055"><ele>767.0</ele><time>2026-05-03T08:51:23.734Z</time></trkpt><trkpt lat="42.2477383" lon="13.7121733"><ele>767.0</ele><time>2026-05-03T08:51:24.734Z</time></trkpt><trkpt lat="42.2477417" lon="13.7123067"><ele>767.0</ele><time>2026-05-03T08:51:25.733Z</time></trkpt><trkpt lat="42.2477383" lon="13.7124283"><ele>767.0</ele><time>2026-05-03T08:51:26.734Z</time></trkpt><trkpt lat="42.2477283" lon="13.7125417"><ele>767.0</ele><time>2026-05-03T08:51:27.734Z</time></trkpt><trkpt lat="42.2477167" lon="13.7126517"><ele>767.0</ele><time>2026-05-03T08:51:28.734Z</time></trkpt><trkpt lat="42.24771" lon="13.71277"><ele>767.0</ele><time>2026-05-03T08:51:29.734Z</time></trkpt><trkpt lat="42.24771" lon="13.7128983"><ele>767.2</ele><time>2026-05-03T08:51:30.734Z</time></trkpt><trkpt lat="42.2477083" lon="13.7130267"><ele>767.4000000000001</ele><time>2026-05-03T08:51:31.734Z</time></trkpt><trkpt lat="42.2476967" lon="13.713165"><ele>767.5999999999999</ele><time>2026-05-03T08:51:32.733Z</time></trkpt><trkpt lat="42.247675" lon="13.7133017"><ele>767.8</ele><time>2026-05-03T08:51:33.734Z</time></trkpt><trkpt lat="42.2476517" lon="13.713445"><ele>768.0</ele><time>2026-05-03T08:51:34.733Z</time></trkpt><trkpt lat="42.2476417" lon="13.7135883"><ele>767.5999999999999</ele><time>2026-05-03T08:51:35.734Z</time></trkpt><trkpt lat="42.2476383" lon="13.713735"><ele>767.1999999999999</ele><time>2026-05-03T08:51:36.733Z</time></trkpt><trkpt lat="42.247645" lon="13.7138767"><ele>766.8</ele><time>2026-05-03T08:51:37.733Z</time></trkpt><trkpt lat="42.24766" lon="13.7140183"><ele>766.4</ele><time>2026-05-03T08:51:38.733Z</time></trkpt><trkpt lat="42.2476867" lon="13.7141717"><ele>766.0</ele><time>2026-05-03T08:51:39.733Z</time></trkpt><trkpt lat="42.24773" lon="13.71433"><ele>764.0</ele><time>2026-05-03T08:51:40.733Z</time></trkpt><trkpt lat="42.2477717" lon="13.7144867"><ele>762.0</ele><time>2026-05-03T08:51:41.734Z</time></trkpt><trkpt lat="42.2478217" lon="13.7146367"><ele>760.0</ele><time>2026-05-03T08:51:42.734Z</time></trkpt><trkpt lat="42.2478767" lon="13.7147783"><ele>758.0</ele><time>2026-05-03T08:51:43.733Z</time></trkpt><trkpt lat="42.2479383" lon="13.7149133"><ele>758.0</ele><time>2026-05-03T08:51:44.733Z</time></trkpt><trkpt lat="42.2479933" lon="13.7150383"><ele>758.0</ele><time>2026-05-03T08:51:45.733Z</time></trkpt><trkpt lat="42.248045" lon="13.7151733"><ele>758.0</ele><time>2026-05-03T08:51:46.734Z</time></trkpt><trkpt lat="42.2480967" lon="13.71529"><ele>758.0</ele><time>2026-05-03T08:51:47.733Z</time></trkpt><trkpt lat="42.2481567" lon="13.71538"><ele>758.0</ele><time>2026-05-03T08:51:48.733Z</time></trkpt><trkpt lat="42.2482217" lon="13.7154683"><ele>760.5</ele><time>2026-05-03T08:51:49.734Z</time></trkpt><trkpt lat="42.2482983" lon="13.7155617"><ele>763.0</ele><time>2026-05-03T08:51:50.733Z</time></trkpt><trkpt lat="42.2483883" lon="13.7156467"><ele>765.5</ele><time>2026-05-03T08:51:51.733Z</time></trkpt><trkpt lat="42.2484983" lon="13.71573"><ele>768.0</ele><time>2026-05-03T08:51:52.734Z</time></trkpt><trkpt lat="42.2486017" lon="13.7158233"><ele>768.0</ele><time>2026-05-03T08:51:53.734Z</time></trkpt><trkpt lat="42.248705" lon="13.71593"><ele>768.0</ele><time>2026-05-03T08:51:54.734Z</time></trkpt><trkpt lat="42.248815" lon="13.7160283"><ele>768.0</ele><time>2026-05-03T08:51:55.734Z</time></trkpt><trkpt lat="42.248915" lon="13.7161283"><ele>768.0</ele><time>2026-05-03T08:51:56.733Z</time></trkpt><trkpt lat="42.2490217" lon="13.71621"><ele>767.4</ele><time>2026-05-03T08:51:57.733Z</time></trkpt><trkpt lat="42.2491233" lon="13.7162817"><ele>766.8</ele><time>2026-05-03T08:51:58.734Z</time></trkpt><trkpt lat="42.2492283" lon="13.7163483"><ele>766.2</ele><time>2026-05-03T08:51:59.733Z</time></trkpt><trkpt lat="42.24931" lon="13.7164183"><ele>765.6</ele><time>2026-05-03T08:52:00.733Z</time></trkpt><trkpt lat="42.2493667" lon="13.71651"><ele>765.0</ele><time>2026-05-03T08:52:01.733Z</time></trkpt><trkpt lat="42.2493967" lon="13.7166067"><ele>765.0</ele><time>2026-05-03T08:52:02.733Z</time></trkpt><trkpt lat="42.24941" lon="13.7167267"><ele>765.0</ele><time>2026-05-03T08:52:03.734Z</time></trkpt><trkpt lat="42.2494333" lon="13.7168517"><ele>765.0</ele><time>2026-05-03T08:52:04.734Z</time></trkpt><trkpt lat="42.2494733" lon="13.71699"><ele>765.0</ele><time>2026-05-03T08:52:05.734Z</time></trkpt><trkpt lat="42.2495333" lon="13.71711"><ele>765.0</ele><time>2026-05-03T08:52:06.734Z</time></trkpt><trkpt lat="42.2496133" lon="13.7172183"><ele>764.0</ele><time>2026-05-03T08:52:07.734Z</time></trkpt><trkpt lat="42.2497033" lon="13.7173217"><ele>763.0</ele><time>2026-05-03T08:52:08.733Z</time></trkpt><trkpt lat="42.2497967" lon="13.7174233"><ele>762.0</ele><time>2026-05-03T08:52:09.733Z</time></trkpt><trkpt lat="42.24987" lon="13.7175433"><ele>761.0</ele><time>2026-05-03T08:52:10.734Z</time></trkpt><trkpt lat="42.2499167" lon="13.7176667"><ele>763.4</ele><time>2026-05-03T08:52:11.734Z</time></trkpt><trkpt lat="42.2499567" lon="13.7177983"><ele>765.8</ele><time>2026-05-03T08:52:12.734Z</time></trkpt><trkpt lat="42.2500033" lon="13.7179233"><ele>768.1999999999999</ele><time>2026-05-03T08:52:13.734Z</time></trkpt><trkpt lat="42.25006" lon="13.71804"><ele>770.5999999999999</ele><time>2026-05-03T08:52:14.734Z</time></trkpt><trkpt lat="42.2501317" lon="13.7181517"><ele>773.0</ele><time>2026-05-03T08:52:15.733Z</time></trkpt><trkpt lat="42.2502" lon="13.718265"><ele>773.0</ele><time>2026-05-03T08:52:16.734Z</time></trkpt><trkpt lat="42.2502717" lon="13.718375"><ele>773.0</ele><time>2026-05-03T08:52:17.734Z</time></trkpt><trkpt lat="42.25035" lon="13.71847"><ele>773.0</ele><time>2026-05-03T08:52:18.733Z</time></trkpt><trkpt lat="42.2504317" lon="13.7185667"><ele>773.0</ele><time>2026-05-03T08:52:19.734Z</time></trkpt><trkpt lat="42.25052" lon="13.71865"><ele>773.0</ele><time>2026-05-03T08:52:20.734Z</time></trkpt><trkpt lat="42.2506033" lon="13.71872"><ele>773.0</ele><time>2026-05-03T08:52:21.733Z</time></trkpt><trkpt lat="42.2507033" lon="13.71877"><ele>773.0</ele><time>2026-05-03T08:52:22.734Z</time></trkpt><trkpt lat="42.2508" lon="13.7188167"><ele>773.0</ele><time>2026-05-03T08:52:23.734Z</time></trkpt><trkpt lat="42.2509" lon="13.7188667"><ele>773.0</ele><time>2026-05-03T08:52:24.734Z</time></trkpt><trkpt lat="42.2510017" lon="13.7189117"><ele>773.0</ele><time>2026-05-03T08:52:25.734Z</time></trkpt><trkpt lat="42.2510967" lon="13.7189667"><ele>773.0</ele><time>2026-05-03T08:52:26.733Z</time></trkpt><trkpt lat="42.251185" lon="13.7190333"><ele>773.0</ele><time>2026-05-03T08:52:27.733Z</time></trkpt><trkpt lat="42.2512667" lon="13.7191083"><ele>773.0</ele><time>2026-05-03T08:52:28.734Z</time></trkpt><trkpt lat="42.2513467" lon="13.7192033"><ele>773.0</ele><time>2026-05-03T08:52:29.733Z</time></trkpt><trkpt lat="42.2514133" lon="13.7193167"><ele>773.0</ele><time>2026-05-03T08:52:30.734Z</time></trkpt><trkpt lat="42.2514867" lon="13.7194283"><ele>774.4</ele><time>2026-05-03T08:52:31.734Z</time></trkpt><trkpt lat="42.2515667" lon="13.719525"><ele>775.8</ele><time>2026-05-03T08:52:32.733Z</time></trkpt><trkpt lat="42.2516483" lon="13.7196233"><ele>777.2</ele><time>2026-05-03T08:52:33.733Z</time></trkpt><trkpt lat="42.2517467" lon="13.7197067"><ele>778.6</ele><time>2026-05-03T08:52:34.734Z</time></trkpt><trkpt lat="42.25184" lon="13.7197883"><ele>780.0</ele><time>2026-05-03T08:52:35.734Z</time></trkpt><trkpt lat="42.2519317" lon="13.719865"><ele>780.0</ele><time>2026-05-03T08:52:36.733Z</time></trkpt><trkpt lat="42.2520167" lon="13.7199533"><ele>780.0</ele><time>2026-05-03T08:52:37.734Z</time></trkpt><trkpt lat="42.2521033" lon="13.720025"><ele>780.0</ele><time>2026-05-03T08:52:38.733Z</time></trkpt><trkpt lat="42.2521933" lon="13.7201083"><ele>780.0</ele><time>2026-05-03T08:52:39.734Z</time></trkpt><trkpt lat="42.2522817" lon="13.720195"><ele>780.0</ele><time>2026-05-03T08:52:40.733Z</time></trkpt><trkpt lat="42.2523767" lon="13.720285"><ele>779.25</ele><time>2026-05-03T08:52:41.733Z</time></trkpt><trkpt lat="42.2524717" lon="13.7203783"><ele>778.5</ele><time>2026-05-03T08:52:42.733Z</time></trkpt><trkpt lat="42.25257" lon="13.7204667"><ele>777.75</ele><time>2026-05-03T08:52:43.734Z</time></trkpt><trkpt lat="42.2526667" lon="13.7205417"><ele>777.0</ele><time>2026-05-03T08:52:44.734Z</time></trkpt><trkpt lat="42.25277" lon="13.7206117"><ele>777.0</ele><time>2026-05-03T08:52:45.734Z</time></trkpt><trkpt lat="42.2528767" lon="13.7206733"><ele>777.0</ele><time>2026-05-03T08:52:46.733Z</time></trkpt><trkpt lat="42.2529817" lon="13.7207283"><ele>777.0</ele><time>2026-05-03T08:52:47.734Z</time></trkpt><trkpt lat="42.2530767" lon="13.720785"><ele>777.0</ele><time>2026-05-03T08:52:48.734Z</time></trkpt><trkpt lat="42.2531717" lon="13.7208383"><ele>777.0</ele><time>2026-05-03T08:52:49.734Z</time></trkpt><trkpt lat="42.25326" lon="13.7208817"><ele>777.5</ele><time>2026-05-03T08:52:50.734Z</time></trkpt><trkpt lat="42.2533367" lon="13.720915"><ele>778.0</ele><time>2026-05-03T08:52:51.733Z</time></trkpt><trkpt lat="42.2534133" lon="13.7209317"><ele>778.5</ele><time>2026-05-03T08:52:52.734Z</time></trkpt><trkpt lat="42.2534867" lon="13.7209633"><ele>779.0</ele><time>2026-05-03T08:52:53.734Z</time></trkpt><trkpt lat="42.2535583" lon="13.721005"><ele>779.5</ele><time>2026-05-03T08:52:54.733Z</time></trkpt><trkpt lat="42.2536167" lon="13.7210567"><ele>780.0</ele><time>2026-05-03T08:52:55.733Z</time></trkpt><trkpt lat="42.253665" lon="13.7211283"><ele>780.0</ele><time>2026-05-03T08:52:56.734Z</time></trkpt><trkpt lat="42.2536983" lon="13.72122"><ele>780.0</ele><time>2026-05-03T08:52:57.734Z</time></trkpt><trkpt lat="42.253725" lon="13.7213267"><ele>780.0</ele><time>2026-05-03T08:52:58.734Z</time></trkpt><trkpt lat="42.2537367" lon="13.7214383"><ele>780.0</ele><time>2026-05-03T08:52:59.734Z</time></trkpt><trkpt lat="42.2537317" lon="13.7215467"><ele>780.0</ele><time>2026-05-03T08:53:00.733Z</time></trkpt><trkpt lat="42.253705" lon="13.7216483"><ele>780.0</ele><time>2026-05-03T08:53:01.733Z</time></trkpt><trkpt lat="42.253655" lon="13.721745"><ele>780.0</ele><time>2026-05-03T08:53:02.733Z</time></trkpt><trkpt lat="42.25358" lon="13.72185"><ele>780.0</ele><time>2026-05-03T08:53:03.734Z</time></trkpt><trkpt lat="42.253505" lon="13.7219683"><ele>780.0</ele><time>2026-05-03T08:53:04.734Z</time></trkpt><trkpt lat="42.2534417" lon="13.7220967"><ele>780.0</ele><time>2026-05-03T08:53:05.734Z</time></trkpt><trkpt lat="42.2534033" lon="13.72222"><ele>780.0</ele><time>2026-05-03T08:53:06.734Z</time></trkpt><trkpt lat="42.253395" lon="13.7223367"><ele>781.0</ele><time>2026-05-03T08:53:07.733Z</time></trkpt><trkpt lat="42.25341" lon="13.7224617"><ele>782.0</ele><time>2026-05-03T08:53:08.733Z</time></trkpt><trkpt lat="42.2534417" lon="13.7225933"><ele>783.0</ele><time>2026-05-03T08:53:09.734Z</time></trkpt><trkpt lat="42.2534833" lon="13.72272"><ele>784.0</ele><time>2026-05-03T08:53:10.734Z</time></trkpt><trkpt lat="42.2535333" lon="13.722855"><ele>785.0</ele><time>2026-05-03T08:53:11.734Z</time></trkpt><trkpt lat="42.2535817" lon="13.722985"><ele>786.0</ele><time>2026-05-03T08:53:12.734Z</time></trkpt><trkpt lat="42.2536383" lon="13.7231167"><ele>787.0</ele><time>2026-05-03T08:53:13.734Z</time></trkpt><trkpt lat="42.253695" lon="13.7232333"><ele>788.0</ele><time>2026-05-03T08:53:14.733Z</time></trkpt><trkpt lat="42.2537433" lon="13.7233467"><ele>789.0</ele><time>2026-05-03T08:53:15.734Z</time></trkpt><trkpt lat="42.253785" lon="13.7234617"><ele>790.0</ele><time>2026-05-03T08:53:16.733Z</time></trkpt><trkpt lat="42.2538133" lon="13.7235717"><ele>790.4999999999999</ele><time>2026-05-03T08:53:17.733Z</time></trkpt><trkpt lat="42.2538483" lon="13.7236733"><ele>791.0</ele><time>2026-05-03T08:53:18.734Z</time></trkpt><trkpt lat="42.2538767" lon="13.7237833"><ele>791.5</ele><time>2026-05-03T08:53:19.733Z</time></trkpt><trkpt lat="42.2539033" lon="13.7238783"><ele>792.0</ele><time>2026-05-03T08:53:20.734Z</time></trkpt><trkpt lat="42.2539367" lon="13.723975"><ele>792.4999999999999</ele><time>2026-05-03T08:53:21.734Z</time></trkpt><trkpt lat="42.2539733" lon="13.724065"><ele>793.0</ele><time>2026-05-03T08:53:22.733Z</time></trkpt><trkpt lat="42.2540267" lon="13.7241367"><ele>791.2</ele><time>2026-05-03T08:53:23.734Z</time></trkpt><trkpt lat="42.2540783" lon="13.7241867"><ele>789.4</ele><time>2026-05-03T08:53:24.734Z</time></trkpt><trkpt lat="42.2541483" lon="13.724215"><ele>787.6</ele><time>2026-05-03T08:53:26.734Z</time></trkpt><trkpt lat="42.2542517" lon="13.7242317"><ele>785.8000000000001</ele><time>2026-05-03T08:53:29.734Z</time></trkpt><trkpt lat="42.2543433" lon="13.724275"><ele>784.0</ele><time>2026-05-03T08:53:31.734Z</time></trkpt><trkpt lat="42.2544667" lon="13.72435"><ele>783.9999999999999</ele><time>2026-05-03T08:53:33.734Z</time></trkpt><trkpt lat="42.2545383" lon="13.724385"><ele>784.0</ele><time>2026-05-03T08:53:34.733Z</time></trkpt><trkpt lat="42.2546067" lon="13.7244167"><ele>784.0</ele><time>2026-05-03T08:53:35.734Z</time></trkpt><trkpt lat="42.2546867" lon="13.7244483"><ele>784.0</ele><time>2026-05-03T08:53:36.734Z</time></trkpt><trkpt lat="42.25476" lon="13.724485"><ele>783.9999999999999</ele><time>2026-05-03T08:53:37.734Z</time></trkpt><trkpt lat="42.2548383" lon="13.7245267"><ele>784.0</ele><time>2026-05-03T08:53:38.733Z</time></trkpt><trkpt lat="42.254915" lon="13.7245583"><ele>780.9999999999999</ele><time>2026-05-03T08:53:39.734Z</time></trkpt><trkpt lat="42.2549933" lon="13.72459"><ele>778.0</ele><time>2026-05-03T08:53:40.733Z</time></trkpt><trkpt lat="42.255075" lon="13.7246283"><ele>775.0</ele><time>2026-05-03T08:53:41.734Z</time></trkpt><trkpt lat="42.2551417" lon="13.7246667"><ele>772.0</ele><time>2026-05-03T08:53:42.734Z</time></trkpt><trkpt lat="42.2552033" lon="13.724725"><ele>769.0</ele><time>2026-05-03T08:53:43.734Z</time></trkpt><trkpt lat="42.2552583" lon="13.7247983"><ele>766.0</ele><time>2026-05-03T08:53:44.733Z</time></trkpt><trkpt lat="42.2553033" lon="13.72489"><ele>766.0</ele><time>2026-05-03T08:53:45.733Z</time></trkpt><trkpt lat="42.25533" lon="13.7249983"><ele>766.0</ele><time>2026-05-03T08:53:46.733Z</time></trkpt><trkpt lat="42.2553483" lon="13.7251117"><ele>766.0</ele><time>2026-05-03T08:53:47.733Z</time></trkpt><trkpt lat="42.2553733" lon="13.725225"><ele>766.0</ele><time>2026-05-03T08:53:48.734Z</time></trkpt><trkpt lat="42.255405" lon="13.7253567"><ele>766.0</ele><time>2026-05-03T08:53:49.734Z</time></trkpt><trkpt lat="42.2554367" lon="13.7254833"><ele>765.8</ele><time>2026-05-03T08:53:50.734Z</time></trkpt><trkpt lat="42.2554767" lon="13.7256033"><ele>765.5999999999999</ele><time>2026-05-03T08:53:51.734Z</time></trkpt><trkpt lat="42.2555117" lon="13.7257367"><ele>765.4</ele><time>2026-05-03T08:53:52.734Z</time></trkpt><trkpt lat="42.255555" lon="13.725865"><ele>765.2</ele><time>2026-05-03T08:53:53.733Z</time></trkpt><trkpt lat="42.2556017" lon="13.7260017"><ele>765.0</ele><time>2026-05-03T08:53:54.734Z</time></trkpt><trkpt lat="42.2556583" lon="13.7261333"><ele>765.0</ele><time>2026-05-03T08:53:55.733Z</time></trkpt><trkpt lat="42.2557017" lon="13.7262583"><ele>765.0</ele><time>2026-05-03T08:53:56.733Z</time></trkpt><trkpt lat="42.2557283" lon="13.726385"><ele>765.0</ele><time>2026-05-03T08:53:57.734Z</time></trkpt><trkpt lat="42.2557317" lon="13.7264933"><ele>765.0</ele><time>2026-05-03T08:53:58.734Z</time></trkpt><trkpt lat="42.2557133" lon="13.726585"><ele>765.0</ele><time>2026-05-03T08:53:59.734Z</time></trkpt><trkpt lat="42.2556317" lon="13.7267267"><ele>762.4</ele><time>2026-05-03T08:54:01.734Z</time></trkpt><trkpt lat="42.2555683" lon="13.726785"><ele>759.8</ele><time>2026-05-03T08:54:02.734Z</time></trkpt><trkpt lat="42.25552" lon="13.7268467"><ele>757.2</ele><time>2026-05-03T08:54:03.734Z</time></trkpt><trkpt lat="42.2554767" lon="13.7270183"><ele>754.6</ele><time>2026-05-03T08:54:05.733Z</time></trkpt><trkpt lat="42.2554717" lon="13.72715"><ele>752.0</ele><time>2026-05-03T08:54:06.734Z</time></trkpt><trkpt lat="42.2554667" lon="13.7272733"><ele>752.3333333333333</ele><time>2026-05-03T08:54:07.734Z</time></trkpt><trkpt lat="42.2554467" lon="13.72739"><ele>752.6666666666666</ele><time>2026-05-03T08:54:08.734Z</time></trkpt><trkpt lat="42.2554467" lon="13.7274833"><ele>753.0</ele><time>2026-05-03T08:54:09.733Z</time></trkpt><trkpt lat="42.2554983" lon="13.7275917"><ele>753.3333333333334</ele><time>2026-05-03T08:54:11.734Z</time></trkpt><trkpt lat="42.2555967" lon="13.7275983"><ele>753.6666666666667</ele><time>2026-05-03T08:54:13.733Z</time></trkpt><trkpt lat="42.2556583" lon="13.7275667"><ele>754.0</ele><time>2026-05-03T08:54:14.734Z</time></trkpt><trkpt lat="42.255725" lon="13.727545"><ele>753.9999999999999</ele><time>2026-05-03T08:54:15.734Z</time></trkpt><trkpt lat="42.2557917" lon="13.7275483"><ele>754.0</ele><time>2026-05-03T08:54:16.733Z</time></trkpt><trkpt lat="42.2558583" lon="13.7275683"><ele>754.0</ele><time>2026-05-03T08:54:17.734Z</time></trkpt><trkpt lat="42.2559283" lon="13.7276067"><ele>754.0</ele><time>2026-05-03T08:54:18.734Z</time></trkpt><trkpt lat="42.256" lon="13.7276517"><ele>754.0</ele><time>2026-05-03T08:54:19.734Z</time></trkpt><trkpt lat="42.2560617" lon="13.7276983"><ele>753.9999999999999</ele><time>2026-05-03T08:54:20.734Z</time></trkpt><trkpt lat="42.2561233" lon="13.727745"><ele>754.0</ele><time>2026-05-03T08:54:21.733Z</time></trkpt><trkpt lat="42.2561817" lon="13.7277917"><ele>750.5</ele><time>2026-05-03T08:54:22.734Z</time></trkpt><trkpt lat="42.2562417" lon="13.7278367"><ele>747.0</ele><time>2026-05-03T08:54:23.734Z</time></trkpt><trkpt lat="42.2563017" lon="13.7278883"><ele>743.5</ele><time>2026-05-03T08:54:24.732Z</time></trkpt><trkpt lat="42.2563633" lon="13.7279467"><ele>740.0</ele><time>2026-05-03T08:54:25.733Z</time></trkpt><trkpt lat="42.25642" lon="13.728"><ele>736.5</ele><time>2026-05-03T08:54:26.732Z</time></trkpt><trkpt lat="42.2565233" lon="13.7280783"><ele>733.0</ele><time>2026-05-03T08:54:28.733Z</time></trkpt><trkpt lat="42.2566167" lon="13.7281633"><ele>733.0</ele><time>2026-05-03T08:54:30.733Z</time></trkpt><trkpt lat="42.2567067" lon="13.7282233"><ele>733.0</ele><time>2026-05-03T08:54:32.732Z</time></trkpt><trkpt lat="42.2567983" lon="13.7283183"><ele>733.0</ele><time>2026-05-03T08:54:34.732Z</time></trkpt><trkpt lat="42.2568517" lon="13.7283783"><ele>733.0</ele><time>2026-05-03T08:54:35.733Z</time></trkpt><trkpt lat="42.2569033" lon="13.7284383"><ele>733.0</ele><time>2026-05-03T08:54:36.733Z</time></trkpt><trkpt lat="42.2569533" lon="13.728505"><ele>733.0</ele><time>2026-05-03T08:54:37.733Z</time></trkpt><trkpt lat="42.257005" lon="13.728565"><ele>730.6666666666667</ele><time>2026-05-03T08:54:38.733Z</time></trkpt><trkpt lat="42.257055" lon="13.7286233"><ele>728.3333333333334</ele><time>2026-05-03T08:54:39.732Z</time></trkpt><trkpt lat="42.257105" lon="13.7286833"><ele>726.0</ele><time>2026-05-03T08:54:40.733Z</time></trkpt><trkpt lat="42.2571533" lon="13.7287417"><ele>723.6666666666666</ele><time>2026-05-03T08:54:41.733Z</time></trkpt><trkpt lat="42.25722" lon="13.7288667"><ele>721.3333333333333</ele><time>2026-05-03T08:54:43.733Z</time></trkpt><trkpt lat="42.2572683" lon="13.7290183"><ele>719.0</ele><time>2026-05-03T08:54:45.733Z</time></trkpt><trkpt lat="42.2573183" lon="13.72916"><ele>719.0</ele><time>2026-05-03T08:54:47.733Z</time></trkpt><trkpt lat="42.25738" lon="13.72928"><ele>719.0</ele><time>2026-05-03T08:54:49.733Z</time></trkpt><trkpt lat="42.2574517" lon="13.7293883"><ele>719.0</ele><time>2026-05-03T08:54:51.733Z</time></trkpt><trkpt lat="42.25756" lon="13.729475"><ele>719.0</ele><time>2026-05-03T08:54:53.733Z</time></trkpt><trkpt lat="42.2576833" lon="13.7295233"><ele>714.3333333333333</ele><time>2026-05-03T08:54:55.732Z</time></trkpt><trkpt lat="42.257765" lon="13.7295417"><ele>709.6666666666666</ele><time>2026-05-03T08:54:56.733Z</time></trkpt><trkpt lat="42.2578483" lon="13.72956"><ele>705.0</ele><time>2026-05-03T08:54:57.732Z</time></trkpt><trkpt lat="42.2579367" lon="13.7295767"><ele>700.3333333333334</ele><time>2026-05-03T08:54:58.733Z</time></trkpt><trkpt lat="42.2580283" lon="13.7295967"><ele>695.6666666666667</ele><time>2026-05-03T08:54:59.732Z</time></trkpt><trkpt lat="42.25812" lon="13.729615"><ele>691.0</ele><time>2026-05-03T08:55:00.733Z</time></trkpt><trkpt lat="42.2582167" lon="13.7296367"><ele>691.0</ele><time>2026-05-03T08:55:01.733Z</time></trkpt><trkpt lat="42.2583067" lon="13.729685"><ele>691.0</ele><time>2026-05-03T08:55:02.732Z</time></trkpt><trkpt lat="42.2583917" lon="13.7297367"><ele>691.0</ele><time>2026-05-03T08:55:03.732Z</time></trkpt><trkpt lat="42.2584867" lon="13.7298083"><ele>691.0</ele><time>2026-05-03T08:55:04.733Z</time></trkpt><trkpt lat="42.25858" lon="13.72987"><ele>691.0</ele><time>2026-05-03T08:55:05.733Z</time></trkpt><trkpt lat="42.2586817" lon="13.729935"><ele>691.0</ele><time>2026-05-03T08:55:06.732Z</time></trkpt><trkpt lat="42.2587833" lon="13.729995"><ele>691.0</ele><time>2026-05-03T08:55:07.733Z</time></trkpt><trkpt lat="42.258885" lon="13.7300467"><ele>691.0</ele><time>2026-05-03T08:55:08.733Z</time></trkpt><trkpt lat="42.2589867" lon="13.7301017"><ele>691.0</ele><time>2026-05-03T08:55:09.733Z</time></trkpt><trkpt lat="42.25909" lon="13.730155"><ele>691.0</ele><time>2026-05-03T08:55:10.733Z</time></trkpt><trkpt lat="42.2591917" lon="13.730195"><ele>685.4</ele><time>2026-05-03T08:55:11.733Z</time></trkpt><trkpt lat="42.259295" lon="13.7302283"><ele>679.8</ele><time>2026-05-03T08:55:12.733Z</time></trkpt><trkpt lat="42.25939" lon="13.73028"><ele>674.1999999999999</ele><time>2026-05-03T08:55:13.732Z</time></trkpt><trkpt lat="42.2594767" lon="13.730325"><ele>668.5999999999999</ele><time>2026-05-03T08:55:14.732Z</time></trkpt><trkpt lat="42.25956" lon="13.730355"><ele>663.0</ele><time>2026-05-03T08:55:15.732Z</time></trkpt><trkpt lat="42.2596367" lon="13.7303917"><ele>663.0</ele><time>2026-05-03T08:55:16.732Z</time></trkpt><trkpt lat="42.2597083" lon="13.7304283"><ele>663.0</ele><time>2026-05-03T08:55:17.733Z</time></trkpt><trkpt lat="42.2597767" lon="13.730455"><ele>663.0</ele><time>2026-05-03T08:55:18.733Z</time></trkpt><trkpt lat="42.25985" lon="13.730495"><ele>663.0</ele><time>2026-05-03T08:55:19.733Z</time></trkpt><trkpt lat="42.2599283" lon="13.7305367"><ele>663.0</ele><time>2026-05-03T08:55:20.732Z</time></trkpt><trkpt lat="42.26" lon="13.73058"><ele>663.0</ele><time>2026-05-03T08:55:21.732Z</time></trkpt><trkpt lat="42.2600733" lon="13.73063"><ele>663.9999999999999</ele><time>2026-05-03T08:55:22.732Z</time></trkpt><trkpt lat="42.2601483" lon="13.7306717"><ele>665.0</ele><time>2026-05-03T08:55:23.733Z</time></trkpt><trkpt lat="42.2602167" lon="13.73071"><ele>666.0</ele><time>2026-05-03T08:55:24.733Z</time></trkpt><trkpt lat="42.2602833" lon="13.7307533"><ele>667.0</ele><time>2026-05-03T08:55:25.732Z</time></trkpt><trkpt lat="42.2603417" lon="13.7308"><ele>668.0</ele><time>2026-05-03T08:55:26.732Z</time></trkpt><trkpt lat="42.2604083" lon="13.73084"><ele>668.9999999999999</ele><time>2026-05-03T08:55:27.733Z</time></trkpt><trkpt lat="42.260475" lon="13.7308867"><ele>670.0</ele><time>2026-05-03T08:55:28.733Z</time></trkpt><trkpt lat="42.2605483" lon="13.7309367"><ele>670.3333333333334</ele><time>2026-05-03T08:55:29.732Z</time></trkpt><trkpt lat="42.2606167" lon="13.7309983"><ele>670.6666666666667</ele><time>2026-05-03T08:55:30.733Z</time></trkpt><trkpt lat="42.26069" lon="13.73106"><ele>671.0</ele><time>2026-05-03T08:55:31.733Z</time></trkpt><trkpt lat="42.2607567" lon="13.7311333"><ele>671.3333333333334</ele><time>2026-05-03T08:55:32.732Z</time></trkpt><trkpt lat="42.2608167" lon="13.7312033"><ele>671.6666666666666</ele><time>2026-05-03T08:55:33.733Z</time></trkpt><trkpt lat="42.26086" lon="13.7312833"><ele>672.0</ele><time>2026-05-03T08:55:34.733Z</time></trkpt><trkpt lat="42.2609017" lon="13.7313667"><ele>668.6666666666666</ele><time>2026-05-03T08:55:35.732Z</time></trkpt><trkpt lat="42.260935" lon="13.7314583"><ele>665.3333333333334</ele><time>2026-05-03T08:55:36.733Z</time></trkpt><trkpt lat="42.26097" lon="13.7315517"><ele>662.0</ele><time>2026-05-03T08:55:37.732Z</time></trkpt><trkpt lat="42.26101" lon="13.7316583"><ele>658.6666666666667</ele><time>2026-05-03T08:55:38.732Z</time></trkpt><trkpt lat="42.26106" lon="13.7317533"><ele>655.3333333333334</ele><time>2026-05-03T08:55:39.732Z</time></trkpt><trkpt lat="42.26111" lon="13.7318283"><ele>652.0</ele><time>2026-05-03T08:55:40.733Z</time></trkpt><trkpt lat="42.2611583" lon="13.7318967"><ele>651.5</ele><time>2026-05-03T08:55:41.733Z</time></trkpt><trkpt lat="42.26121" lon="13.7319583"><ele>651.0</ele><time>2026-05-03T08:55:42.733Z</time></trkpt><trkpt lat="42.2613167" lon="13.731995"><ele>650.5</ele><time>2026-05-03T08:55:44.733Z</time></trkpt><trkpt lat="42.2614467" lon="13.7320017"><ele>650.0</ele><time>2026-05-03T08:55:46.732Z</time></trkpt><trkpt lat="42.2615083" lon="13.73203"><ele>649.5</ele><time>2026-05-03T08:55:47.733Z</time></trkpt><trkpt lat="42.2615617" lon="13.7320783"><ele>649.0</ele><time>2026-05-03T08:55:48.732Z</time></trkpt><trkpt lat="42.2615983" lon="13.73215"><ele>648.9999999999999</ele><time>2026-05-03T08:55:49.732Z</time></trkpt><trkpt lat="42.2616217" lon="13.7322367"><ele>649.0</ele><time>2026-05-03T08:55:50.732Z</time></trkpt><trkpt lat="42.2616283" lon="13.7323233"><ele>649.0</ele><time>2026-05-03T08:55:51.733Z</time></trkpt><trkpt lat="42.2616267" lon="13.73242"><ele>649.0</ele><time>2026-05-03T08:55:52.732Z</time></trkpt><trkpt lat="42.261615" lon="13.7325117"><ele>649.0</ele><time>2026-05-03T08:55:53.733Z</time></trkpt><trkpt lat="42.2616033" lon="13.7326133"><ele>648.9999999999999</ele><time>2026-05-03T08:55:54.732Z</time></trkpt><trkpt lat="42.2615917" lon="13.7327083"><ele>649.0</ele><time>2026-05-03T08:55:55.733Z</time></trkpt><trkpt lat="42.2615983" lon="13.73281"><ele>646.0</ele><time>2026-05-03T08:55:56.732Z</time></trkpt><trkpt lat="42.2616183" lon="13.7329267"><ele>643.0</ele><time>2026-05-03T08:55:57.732Z</time></trkpt><trkpt lat="42.2616317" lon="13.7330517"><ele>640.0</ele><time>2026-05-03T08:55:58.733Z</time></trkpt><trkpt lat="42.2616467" lon="13.7331733"><ele>637.0</ele><time>2026-05-03T08:55:59.732Z</time></trkpt><trkpt lat="42.2616533" lon="13.7333067"><ele>634.0</ele><time>2026-05-03T08:56:00.733Z</time></trkpt><trkpt lat="42.261675" lon="13.7334283"><ele>632.8</ele><time>2026-05-03T08:56:01.733Z</time></trkpt><trkpt lat="42.2617033" lon="13.7335583"><ele>631.5999999999999</ele><time>2026-05-03T08:56:02.733Z</time></trkpt><trkpt lat="42.2617333" lon="13.733685"><ele>630.4</ele><time>2026-05-03T08:56:03.733Z</time></trkpt><trkpt lat="42.26175" lon="13.7338033"><ele>629.1999999999999</ele><time>2026-05-03T08:56:04.732Z</time></trkpt><trkpt lat="42.2617667" lon="13.7339167"><ele>628.0</ele><time>2026-05-03T08:56:05.732Z</time></trkpt><trkpt lat="42.26176" lon="13.73403"><ele>628.0</ele><time>2026-05-03T08:56:06.732Z</time></trkpt><trkpt lat="42.261755" lon="13.7341267"><ele>628.0</ele><time>2026-05-03T08:56:07.733Z</time></trkpt><trkpt lat="42.2617417" lon="13.734235"><ele>628.0</ele><time>2026-05-03T08:56:08.732Z</time></trkpt><trkpt lat="42.2617267" lon="13.73433"><ele>628.0</ele><time>2026-05-03T08:56:09.733Z</time></trkpt><trkpt lat="42.26169" lon="13.7344433"><ele>628.0</ele><time>2026-05-03T08:56:10.733Z</time></trkpt><trkpt lat="42.2616417" lon="13.7345717"><ele>628.0</ele><time>2026-05-03T08:56:11.732Z</time></trkpt><trkpt lat="42.2615767" lon="13.734695"><ele>628.1666666666667</ele><time>2026-05-03T08:56:12.733Z</time></trkpt><trkpt lat="42.2615133" lon="13.7347983"><ele>628.3333333333334</ele><time>2026-05-03T08:56:13.733Z</time></trkpt><trkpt lat="42.2614533" lon="13.7348867"><ele>628.5</ele><time>2026-05-03T08:56:14.733Z</time></trkpt><trkpt lat="42.2613883" lon="13.7349617"><ele>628.6666666666666</ele><time>2026-05-03T08:56:15.733Z</time></trkpt><trkpt lat="42.2613217" lon="13.735045"><ele>628.8333333333333</ele><time>2026-05-03T08:56:16.733Z</time></trkpt><trkpt lat="42.261265" lon="13.73512"><ele>629.0</ele><time>2026-05-03T08:56:17.733Z</time></trkpt><trkpt lat="42.2612167" lon="13.7351917"><ele>624.8333333333333</ele><time>2026-05-03T08:56:18.732Z</time></trkpt><trkpt lat="42.261165" lon="13.735345"><ele>620.6666666666666</ele><time>2026-05-03T08:56:20.732Z</time></trkpt><trkpt lat="42.2611467" lon="13.7354417"><ele>616.5</ele><time>2026-05-03T08:56:21.733Z</time></trkpt><trkpt lat="42.2611317" lon="13.735535"><ele>612.3333333333334</ele><time>2026-05-03T08:56:22.732Z</time></trkpt><trkpt lat="42.26111" lon="13.735645"><ele>608.1666666666667</ele><time>2026-05-03T08:56:23.732Z</time></trkpt><trkpt lat="42.26109" lon="13.735745"><ele>604.0</ele><time>2026-05-03T08:56:24.733Z</time></trkpt><trkpt lat="42.2610667" lon="13.7358467"><ele>604.0</ele><time>2026-05-03T08:56:25.733Z</time></trkpt><trkpt lat="42.261055" lon="13.7359383"><ele>604.0</ele><time>2026-05-03T08:56:26.732Z</time></trkpt><trkpt lat="42.2610183" lon="13.7361017"><ele>604.0</ele><time>2026-05-03T08:56:28.733Z</time></trkpt><trkpt lat="42.2609983" lon="13.736185"><ele>604.0</ele><time>2026-05-03T08:56:29.732Z</time></trkpt><trkpt lat="42.2609567" lon="13.7363033"><ele>604.0</ele><time>2026-05-03T08:56:31.733Z</time></trkpt><trkpt lat="42.2609833" lon="13.7364083"><ele>604.0</ele><time>2026-05-03T08:56:33.732Z</time></trkpt><trkpt lat="42.2610683" lon="13.7365083"><ele>602.8571428571429</ele><time>2026-05-03T08:56:35.732Z</time></trkpt><trkpt lat="42.2611183" lon="13.7365633"><ele>601.7142857142858</ele><time>2026-05-03T08:56:36.733Z</time></trkpt><trkpt lat="42.2611767" lon="13.7366283"><ele>600.5714285714286</ele><time>2026-05-03T08:56:37.732Z</time></trkpt><trkpt lat="42.2612383" lon="13.7366983"><ele>599.4285714285714</ele><time>2026-05-03T08:56:38.733Z</time></trkpt><trkpt lat="42.2613" lon="13.736765"><ele>598.2857142857142</ele><time>2026-05-03T08:56:39.733Z</time></trkpt><trkpt lat="42.2613467" lon="13.7368233"><ele>597.1428571428571</ele><time>2026-05-03T08:56:40.733Z</time></trkpt><trkpt lat="42.2614083" lon="13.736875"><ele>596.0</ele><time>2026-05-03T08:56:41.733Z</time></trkpt><trkpt lat="42.2614717" lon="13.73692"><ele>593.5</ele><time>2026-05-03T08:56:42.733Z</time></trkpt><trkpt lat="42.2615417" lon="13.73695"><ele>591.0</ele><time>2026-05-03T08:56:43.733Z</time></trkpt><trkpt lat="42.2616117" lon="13.7369733"><ele>588.5</ele><time>2026-05-03T08:56:44.733Z</time></trkpt><trkpt lat="42.2617183" lon="13.7369983"><ele>586.0</ele><time>2026-05-03T08:56:46.732Z</time></trkpt><trkpt lat="42.261795" lon="13.7370317"><ele>583.5</ele><time>2026-05-03T08:56:53.733Z</time></trkpt><trkpt lat="42.26187" lon="13.7370633"><ele>581.0</ele><time>2026-05-03T08:56:56.733Z</time></trkpt><trkpt lat="42.2619333" lon="13.7370883"><ele>581.0</ele><time>2026-05-03T08:56:58.732Z</time></trkpt><trkpt lat="42.2620167" lon="13.7371217"><ele>581.0</ele><time>2026-05-03T08:57:01.733Z</time></trkpt><trkpt lat="42.2620667" lon="13.737175"><ele>581.0</ele><time>2026-05-03T08:57:03.733Z</time></trkpt><trkpt lat="42.26213" lon="13.7372283"><ele>581.0</ele><time>2026-05-03T08:57:05.733Z</time></trkpt><trkpt lat="42.2621983" lon="13.7372767"><ele>581.0</ele><time>2026-05-03T08:57:07.732Z</time></trkpt><trkpt lat="42.262265" lon="13.7373233"><ele>581.0</ele><time>2026-05-03T08:57:09.732Z</time></trkpt><trkpt lat="42.2623333" lon="13.7373667"><ele>581.8333333333333</ele><time>2026-05-03T08:57:11.732Z</time></trkpt><trkpt lat="42.26241" lon="13.7374267"><ele>582.6666666666666</ele><time>2026-05-03T08:57:14.732Z</time></trkpt><trkpt lat="42.26249" lon="13.7374783"><ele>583.5</ele><time>2026-05-03T08:57:17.732Z</time></trkpt><trkpt lat="42.2625733" lon="13.737515"><ele>584.3333333333334</ele><time>2026-05-03T08:57:20.732Z</time></trkpt><trkpt lat="42.2626633" lon="13.737545"><ele>585.1666666666667</ele><time>2026-05-03T08:57:23.733Z</time></trkpt><trkpt lat="42.26273" lon="13.7375533"><ele>586.0</ele><time>2026-05-03T08:57:25.732Z</time></trkpt><trkpt lat="42.262795" lon="13.7375683"><ele>586.0</ele><time>2026-05-03T08:57:27.733Z</time></trkpt><trkpt lat="42.2628767" lon="13.7375917"><ele>586.0</ele><time>2026-05-03T08:57:30.732Z</time></trkpt><trkpt lat="42.2629617" lon="13.7376183"><ele>586.0</ele><time>2026-05-03T08:57:33.732Z</time></trkpt><trkpt lat="42.2630433" lon="13.737645"><ele>586.0</ele><time>2026-05-03T08:57:36.732Z</time></trkpt><trkpt lat="42.26314" lon="13.73767"><ele>586.0</ele><time>2026-05-03T08:57:39.733Z</time></trkpt><trkpt lat="42.2632183" lon="13.7377017"><ele>586.0</ele><time>2026-05-03T08:57:42.733Z</time></trkpt><trkpt lat="42.2632933" lon="13.73772"><ele>586.6</ele><time>2026-05-03T08:57:46.732Z</time></trkpt><trkpt lat="42.26341" lon="13.7377633"><ele>587.2</ele><time>2026-05-03T08:57:56.732Z</time></trkpt><trkpt lat="42.2635133" lon="13.737745"><ele>587.8</ele><time>2026-05-03T08:57:59.733Z</time></trkpt><trkpt lat="42.2636283" lon="13.7376883"><ele>588.4</ele><time>2026-05-03T08:58:01.732Z</time></trkpt><trkpt lat="42.2637033" lon="13.73766"><ele>589.0</ele><time>2026-05-03T08:58:02.732Z</time></trkpt><trkpt lat="42.2637783" lon="13.7376317"><ele>589.0</ele><time>2026-05-03T08:58:03.733Z</time></trkpt><trkpt lat="42.2638533" lon="13.737595"><ele>589.0</ele><time>2026-05-03T08:58:04.733Z</time></trkpt><trkpt lat="42.2639283" lon="13.7375517"><ele>589.0</ele><time>2026-05-03T08:58:05.733Z</time></trkpt><trkpt lat="42.26399" lon="13.73752"><ele>589.0</ele><time>2026-05-03T08:58:06.733Z</time></trkpt><trkpt lat="42.2641067" lon="13.7375133"><ele>589.0</ele><time>2026-05-03T08:58:08.733Z</time></trkpt><trkpt lat="42.2642117" lon="13.7375183"><ele>589.0</ele><time>2026-05-03T08:58:10.733Z</time></trkpt><trkpt lat="42.2643333" lon="13.73752"><ele>588.5</ele><time>2026-05-03T08:58:12.733Z</time></trkpt><trkpt lat="42.2644017" lon="13.7375233"><ele>588.0</ele><time>2026-05-03T08:58:13.732Z</time></trkpt><trkpt lat="42.26447" lon="13.73752"><ele>587.5</ele><time>2026-05-03T08:58:14.733Z</time></trkpt><trkpt lat="42.264535" lon="13.7374983"><ele>587.0</ele><time>2026-05-03T08:58:15.732Z</time></trkpt><trkpt lat="42.264645" lon="13.7374367"><ele>586.5</ele><time>2026-05-03T08:58:17.733Z</time></trkpt><trkpt lat="42.2647233" lon="13.7374017"><ele>586.0</ele><time>2026-05-03T08:58:19.732Z</time></trkpt><trkpt lat="42.2646283" lon="13.7374283"><ele>586.0</ele><time>2026-05-03T08:59:12.731Z</time></trkpt><trkpt lat="42.2645617" lon="13.7374533"><ele>586.0</ele><time>2026-05-03T08:59:13.732Z</time></trkpt><trkpt lat="42.2644783" lon="13.7374767"><ele>586.0</ele><time>2026-05-03T08:59:14.732Z</time></trkpt><trkpt lat="42.2643933" lon="13.7374883"><ele>586.0</ele><time>2026-05-03T08:59:15.732Z</time></trkpt><trkpt lat="42.26431" lon="13.7374917"><ele>586.0</ele><time>2026-05-03T08:59:16.732Z</time></trkpt><trkpt lat="42.264235" lon="13.7374867"><ele>586.0</ele><time>2026-05-03T08:59:17.731Z</time></trkpt><trkpt lat="42.2641633" lon="13.7374767"><ele>586.0</ele><time>2026-05-03T08:59:18.732Z</time></trkpt><trkpt lat="42.2640867" lon="13.737465"><ele>586.0</ele><time>2026-05-03T08:59:19.731Z</time></trkpt><trkpt lat="42.2640117" lon="13.7374783"><ele>586.0</ele><time>2026-05-03T08:59:20.731Z</time></trkpt><trkpt lat="42.2639383" lon="13.737505"><ele>586.0</ele><time>2026-05-03T08:59:21.732Z</time></trkpt><trkpt lat="42.2638767" lon="13.7375317"><ele>586.0</ele><time>2026-05-03T08:59:22.732Z</time></trkpt><trkpt lat="42.26381" lon="13.7375667"><ele>586.0</ele><time>2026-05-03T08:59:23.732Z</time></trkpt><trkpt lat="42.2637117" lon="13.73763"><ele>586.5</ele><time>2026-05-03T08:59:25.732Z</time></trkpt><trkpt lat="42.2636367" lon="13.7376483"><ele>587.0</ele><time>2026-05-03T08:59:27.731Z</time></trkpt><trkpt lat="42.26357" lon="13.737655"><ele>587.5</ele><time>2026-05-03T08:59:30.731Z</time></trkpt><trkpt lat="42.26358" lon="13.7377483"><ele>588.0</ele><time>2026-05-03T08:59:34.731Z</time></trkpt><trkpt lat="42.2636483" lon="13.7377733"><ele>588.5</ele><time>2026-05-03T08:59:36.732Z</time></trkpt><trkpt lat="42.2637683" lon="13.737785"><ele>589.0</ele><time>2026-05-03T08:59:38.732Z</time></trkpt><trkpt lat="42.263845" lon="13.7377767"><ele>584.1666666666667</ele><time>2026-05-03T08:59:39.732Z</time></trkpt><trkpt lat="42.2639267" lon="13.7377617"><ele>579.3333333333334</ele><time>2026-05-03T08:59:40.731Z</time></trkpt><trkpt lat="42.2640033" lon="13.7377583"><ele>574.5</ele><time>2026-05-03T08:59:41.732Z</time></trkpt><trkpt lat="42.2640767" lon="13.7377683"><ele>569.6666666666666</ele><time>2026-05-03T08:59:42.732Z</time></trkpt><trkpt lat="42.2641417" lon="13.7378017"><ele>564.8333333333333</ele><time>2026-05-03T08:59:43.732Z</time></trkpt><trkpt lat="42.26421" lon="13.73784"><ele>560.0</ele><time>2026-05-03T08:59:44.732Z</time></trkpt><trkpt lat="42.2642833" lon="13.73788"><ele>559.4285714285714</ele><time>2026-05-03T08:59:45.732Z</time></trkpt><trkpt lat="42.26436" lon="13.73791"><ele>558.8571428571429</ele><time>2026-05-03T08:59:46.731Z</time></trkpt><trkpt lat="42.2644267" lon="13.7379317"><ele>558.2857142857142</ele><time>2026-05-03T08:59:47.732Z</time></trkpt><trkpt lat="42.2645033" lon="13.7379467"><ele>557.7142857142858</ele><time>2026-05-03T08:59:48.731Z</time></trkpt><trkpt lat="42.264575" lon="13.7379517"><ele>557.1428571428571</ele><time>2026-05-03T08:59:49.732Z</time></trkpt><trkpt lat="42.264645" lon="13.73796"><ele>556.5714285714286</ele><time>2026-05-03T08:59:50.732Z</time></trkpt><trkpt lat="42.26471" lon="13.73797"><ele>556.0</ele><time>2026-05-03T08:59:51.732Z</time></trkpt><trkpt lat="42.264805" lon="13.7379933"><ele>555.3333333333334</ele><time>2026-05-03T08:59:53.732Z</time></trkpt><trkpt lat="42.2648717" lon="13.7380317"><ele>554.6666666666667</ele><time>2026-05-03T09:00:02.731Z</time></trkpt><trkpt lat="42.264965" lon="13.7380867"><ele>554.0</ele><time>2026-05-03T09:00:04.732Z</time></trkpt><trkpt lat="42.2650333" lon="13.7381167"><ele>553.3333333333334</ele><time>2026-05-03T09:00:05.731Z</time></trkpt><trkpt lat="42.26512" lon="13.7381383"><ele>552.6666666666666</ele><time>2026-05-03T09:00:06.732Z</time></trkpt><trkpt lat="42.2652333" lon="13.73814"><ele>552.0</ele><time>2026-05-03T09:00:07.731Z</time></trkpt><trkpt lat="42.2653617" lon="13.73815"><ele>552.0</ele><time>2026-05-03T09:00:08.732Z</time></trkpt><trkpt lat="42.2655" lon="13.738165"><ele>552.0</ele><time>2026-05-03T09:00:09.732Z</time></trkpt><trkpt lat="42.2656467" lon="13.7381717"><ele>552.0</ele><time>2026-05-03T09:00:10.732Z</time></trkpt><trkpt lat="42.2657967" lon="13.7381783"><ele>552.0</ele><time>2026-05-03T09:00:11.731Z</time></trkpt><trkpt lat="42.26595" lon="13.7381717"><ele>551.3333333333334</ele><time>2026-05-03T09:00:12.731Z</time></trkpt><trkpt lat="42.2661117" lon="13.7381733"><ele>550.6666666666667</ele><time>2026-05-03T09:00:13.732Z</time></trkpt><trkpt lat="42.266265" lon="13.7381817"><ele>550.0</ele><time>2026-05-03T09:00:14.732Z</time></trkpt><trkpt lat="42.2664217" lon="13.7381917"><ele>549.0</ele><time>2026-05-03T09:00:15.731Z</time></trkpt><trkpt lat="42.2665767" lon="13.7381983"><ele>548.0</ele><time>2026-05-03T09:00:16.732Z</time></trkpt><trkpt lat="42.2667317" lon="13.7382017"><ele>547.0</ele><time>2026-05-03T09:00:17.731Z</time></trkpt><trkpt lat="42.26689" lon="13.7382017"><ele>547.0</ele><time>2026-05-03T09:00:18.731Z</time></trkpt><trkpt lat="42.26705" lon="13.73821"><ele>547.0</ele><time>2026-05-03T09:00:19.731Z</time></trkpt><trkpt lat="42.2672017" lon="13.7382233"><ele>547.0</ele><time>2026-05-03T09:00:20.731Z</time></trkpt><trkpt lat="42.2673517" lon="13.7382333"><ele>546.0</ele><time>2026-05-03T09:00:21.732Z</time></trkpt><trkpt lat="42.267495" lon="13.7382383"><ele>545.0</ele><time>2026-05-03T09:00:22.732Z</time></trkpt><trkpt lat="42.2676367" lon="13.738245"><ele>544.0</ele><time>2026-05-03T09:00:23.732Z</time></trkpt><trkpt lat="42.2677733" lon="13.7382467"><ele>543.0</ele><time>2026-05-03T09:00:24.732Z</time></trkpt><trkpt lat="42.267905" lon="13.7382533"><ele>543.0</ele><time>2026-05-03T09:00:25.732Z</time></trkpt><trkpt lat="42.26802" lon="13.738265"><ele>543.0</ele><time>2026-05-03T09:00:26.732Z</time></trkpt><trkpt lat="42.268125" lon="13.7382767"><ele>543.0</ele><time>2026-05-03T09:00:27.732Z</time></trkpt><trkpt lat="42.2682067" lon="13.73828"><ele>543.0</ele><time>2026-05-03T09:00:28.732Z</time></trkpt><trkpt lat="42.2682767" lon="13.7382833"><ele>543.0</ele><time>2026-05-03T09:00:29.732Z</time></trkpt><trkpt lat="42.2683483" lon="13.7382767"><ele>543.0</ele><time>2026-05-03T09:00:30.732Z</time></trkpt><trkpt lat="42.2684167" lon="13.73827"><ele>542.1666666666666</ele><time>2026-05-03T09:00:31.732Z</time></trkpt><trkpt lat="42.2684817" lon="13.73829"><ele>541.3333333333334</ele><time>2026-05-03T09:00:32.731Z</time></trkpt><trkpt lat="42.2685533" lon="13.7383133"><ele>540.5</ele><time>2026-05-03T09:00:33.732Z</time></trkpt><trkpt lat="42.268635" lon="13.73834"><ele>539.6666666666667</ele><time>2026-05-03T09:00:34.731Z</time></trkpt><trkpt lat="42.268725" lon="13.7383667"><ele>538.8333333333334</ele><time>2026-05-03T09:00:35.732Z</time></trkpt><trkpt lat="42.26883" lon="13.73841"><ele>538.0</ele><time>2026-05-03T09:00:36.731Z</time></trkpt><trkpt lat="42.2689283" lon="13.73846"><ele>538.3333333333334</ele><time>2026-05-03T09:00:37.732Z</time></trkpt><trkpt lat="42.2690217" lon="13.7385017"><ele>538.6666666666667</ele><time>2026-05-03T09:00:38.731Z</time></trkpt><trkpt lat="42.2691" lon="13.73855"><ele>539.0</ele><time>2026-05-03T09:00:39.732Z</time></trkpt><trkpt lat="42.2691783" lon="13.738595"><ele>539.3333333333334</ele><time>2026-05-03T09:00:40.732Z</time></trkpt><trkpt lat="42.2692433" lon="13.73865"><ele>539.6666666666666</ele><time>2026-05-03T09:00:41.732Z</time></trkpt><trkpt lat="42.2693" lon="13.7386883"><ele>540.0</ele><time>2026-05-03T09:00:42.732Z</time></trkpt><trkpt lat="42.269385" lon="13.7387633"><ele>537.6666666666666</ele><time>2026-05-03T09:00:44.731Z</time></trkpt><trkpt lat="42.2694117" lon="13.7388667"><ele>535.3333333333334</ele><time>2026-05-03T09:00:46.731Z</time></trkpt><trkpt lat="42.269395" lon="13.739025"><ele>533.0</ele><time>2026-05-03T09:00:48.732Z</time></trkpt><trkpt lat="42.2693783" lon="13.739125"><ele>530.6666666666667</ele><time>2026-05-03T09:00:49.731Z</time></trkpt><trkpt lat="42.269355" lon="13.7392317"><ele>528.3333333333334</ele><time>2026-05-03T09:00:50.732Z</time></trkpt><trkpt lat="42.269335" lon="13.7393367"><ele>526.0</ele><time>2026-05-03T09:00:51.732Z</time></trkpt><trkpt lat="42.2693233" lon="13.739455"><ele>524.6666666666667</ele><time>2026-05-03T09:00:52.732Z</time></trkpt><trkpt lat="42.269305" lon="13.739565"><ele>523.3333333333334</ele><time>2026-05-03T09:00:53.732Z</time></trkpt><trkpt lat="42.269285" lon="13.7396783"><ele>522.0</ele><time>2026-05-03T09:00:54.732Z</time></trkpt><trkpt lat="42.269265" lon="13.7397783"><ele>520.6666666666666</ele><time>2026-05-03T09:00:55.732Z</time></trkpt><trkpt lat="42.2692417" lon="13.739885"><ele>519.3333333333333</ele><time>2026-05-03T09:00:56.731Z</time></trkpt><trkpt lat="42.2692217" lon="13.7399783"><ele>518.0</ele><time>2026-05-03T09:00:57.731Z</time></trkpt><trkpt lat="42.2692133" lon="13.7400733"><ele>518.0</ele><time>2026-05-03T09:00:58.732Z</time></trkpt><trkpt lat="42.2692" lon="13.740165"><ele>518.0</ele><time>2026-05-03T09:00:59.731Z</time></trkpt><trkpt lat="42.26914" lon="13.7402983"><ele>518.0</ele><time>2026-05-03T09:01:01.732Z</time></trkpt><trkpt lat="42.2690733" lon="13.74036"><ele>518.0</ele><time>2026-05-03T09:01:02.731Z</time></trkpt><trkpt lat="42.269005" lon="13.7404133"><ele>518.0</ele><time>2026-05-03T09:01:03.732Z</time></trkpt><trkpt lat="42.2689283" lon="13.7404683"><ele>518.0</ele><time>2026-05-03T09:01:04.732Z</time></trkpt><trkpt lat="42.2688517" lon="13.7405133"><ele>514.6</ele><time>2026-05-03T09:01:05.732Z</time></trkpt><trkpt lat="42.2687833" lon="13.7405567"><ele>511.19999999999993</ele><time>2026-05-03T09:01:06.732Z</time></trkpt><trkpt lat="42.2686733" lon="13.7405917"><ele>507.8</ele><time>2026-05-03T09:01:08.731Z</time></trkpt><trkpt lat="42.2686067" lon="13.74054"><ele>504.4</ele><time>2026-05-03T09:01:10.731Z</time></trkpt><trkpt lat="42.2685617" lon="13.74044"><ele>501.0</ele><time>2026-05-03T09:01:12.732Z</time></trkpt><trkpt lat="42.2685517" lon="13.7402667"><ele>501.0</ele><time>2026-05-03T09:01:14.731Z</time></trkpt><trkpt lat="42.2685383" lon="13.7401017"><ele>501.0</ele><time>2026-05-03T09:01:16.732Z</time></trkpt><trkpt lat="42.26846" lon="13.7400167"><ele>501.0</ele><time>2026-05-03T09:01:18.732Z</time></trkpt><trkpt lat="42.26835" lon="13.740065"><ele>501.0</ele><time>2026-05-03T09:01:20.732Z</time></trkpt><trkpt lat="42.2683167" lon="13.740155"><ele>501.0</ele><time>2026-05-03T09:01:21.731Z</time></trkpt><trkpt lat="42.2682817" lon="13.7402267"><ele>501.0</ele><time>2026-05-03T09:01:22.732Z</time></trkpt><trkpt lat="42.2682283" lon="13.74029"><ele>501.0</ele><time>2026-05-03T09:01:23.732Z</time></trkpt><trkpt lat="42.26817" lon="13.740345"><ele>501.0</ele><time>2026-05-03T09:01:24.731Z</time></trkpt><trkpt lat="42.2680983" lon="13.74038"><ele>501.0</ele><time>2026-05-03T09:01:25.732Z</time></trkpt><trkpt lat="42.268015" lon="13.7404233"><ele>501.0</ele><time>2026-05-03T09:01:26.731Z</time></trkpt><trkpt lat="42.2679267" lon="13.7404533"><ele>501.0</ele><time>2026-05-03T09:01:27.731Z</time></trkpt><trkpt lat="42.2678533" lon="13.74048"><ele>499.6666666666667</ele><time>2026-05-03T09:01:28.732Z</time></trkpt><trkpt lat="42.2677367" lon="13.7404883"><ele>498.33333333333337</ele><time>2026-05-03T09:01:30.732Z</time></trkpt><trkpt lat="42.26767" lon="13.7404733"><ele>497.0</ele><time>2026-05-03T09:01:31.731Z</time></trkpt><trkpt lat="42.2676033" lon="13.74044"><ele>495.6666666666667</ele><time>2026-05-03T09:01:32.731Z</time></trkpt><trkpt lat="42.26753" lon="13.7404083"><ele>494.33333333333337</ele><time>2026-05-03T09:01:33.731Z</time></trkpt><trkpt lat="42.2674617" lon="13.7403633"><ele>493.0</ele><time>2026-05-03T09:01:34.732Z</time></trkpt><trkpt lat="42.2673883" lon="13.7403083"><ele>493.0</ele><time>2026-05-03T09:01:35.732Z</time></trkpt><trkpt lat="42.2673217" lon="13.7402433"><ele>493.0</ele><time>2026-05-03T09:01:36.731Z</time></trkpt><trkpt lat="42.2672483" lon="13.740195"><ele>493.0</ele><time>2026-05-03T09:01:37.732Z</time></trkpt><trkpt lat="42.2671767" lon="13.74016"><ele>493.0</ele><time>2026-05-03T09:01:38.731Z</time></trkpt><trkpt lat="42.2671117" lon="13.7401717"><ele>493.0</ele><time>2026-05-03T09:01:39.731Z</time></trkpt><trkpt lat="42.2670417" lon="13.74018"><ele>493.0</ele><time>2026-05-03T09:01:40.731Z</time></trkpt><trkpt lat="42.2669717" lon="13.7401717"><ele>493.0</ele><time>2026-05-03T09:01:41.731Z</time></trkpt><trkpt lat="42.2668883" lon="13.7401617"><ele>491.79999999999995</ele><time>2026-05-03T09:01:42.731Z</time></trkpt><trkpt lat="42.2668017" lon="13.7401483"><ele>490.59999999999997</ele><time>2026-05-03T09:01:43.732Z</time></trkpt><trkpt lat="42.2667083" lon="13.7401533"><ele>489.40000000000003</ele><time>2026-05-03T09:01:44.732Z</time></trkpt><trkpt lat="42.2666117" lon="13.7401683"><ele>488.20000000000005</ele><time>2026-05-03T09:01:45.732Z</time></trkpt><trkpt lat="42.26652" lon="13.740195"><ele>487.0</ele><time>2026-05-03T09:01:46.732Z</time></trkpt><trkpt lat="42.2664333" lon="13.7402233"><ele>487.00000000000006</ele><time>2026-05-03T09:01:47.732Z</time></trkpt><trkpt lat="42.2663483" lon="13.7402517"><ele>487.0</ele><time>2026-05-03T09:01:48.732Z</time></trkpt><trkpt lat="42.2662867" lon="13.7402817"><ele>487.0</ele><time>2026-05-03T09:01:49.732Z</time></trkpt><trkpt lat="42.2662267" lon="13.740315"><ele>487.0</ele><time>2026-05-03T09:01:50.731Z</time></trkpt><trkpt lat="42.2661733" lon="13.7403733"><ele>487.00000000000006</ele><time>2026-05-03T09:01:51.731Z</time></trkpt><trkpt lat="42.26611" lon="13.7404533"><ele>487.0</ele><time>2026-05-03T09:01:52.731Z</time></trkpt><trkpt lat="42.26605" lon="13.740525"><ele>487.00000000000006</ele><time>2026-05-03T09:01:53.732Z</time></trkpt><trkpt lat="42.2659833" lon="13.7405933"><ele>487.0</ele><time>2026-05-03T09:01:54.731Z</time></trkpt><trkpt lat="42.2659067" lon="13.7406733"><ele>487.0</ele><time>2026-05-03T09:01:55.732Z</time></trkpt><trkpt lat="42.2658383" lon="13.740755"><ele>487.0</ele><time>2026-05-03T09:01:56.731Z</time></trkpt><trkpt lat="42.2657717" lon="13.7408233"><ele>487.00000000000006</ele><time>2026-05-03T09:01:57.732Z</time></trkpt><trkpt lat="42.2656917" lon="13.7408883"><ele>487.0</ele><time>2026-05-03T09:01:58.732Z</time></trkpt><trkpt lat="42.2656117" lon="13.7409283"><ele>487.00000000000006</ele><time>2026-05-03T09:01:59.731Z</time></trkpt><trkpt lat="42.265525" lon="13.7409467"><ele>487.0</ele><time>2026-05-03T09:02:00.732Z</time></trkpt><trkpt lat="42.2654367" lon="13.7409683"><ele>487.0</ele><time>2026-05-03T09:02:01.732Z</time></trkpt><trkpt lat="42.2653517" lon="13.7409717"><ele>487.0</ele><time>2026-05-03T09:02:02.731Z</time></trkpt><trkpt lat="42.265265" lon="13.740965"><ele>487.00000000000006</ele><time>2026-05-03T09:02:03.731Z</time></trkpt><trkpt lat="42.265175" lon="13.7409617"><ele>487.0</ele><time>2026-05-03T09:02:04.731Z</time></trkpt><trkpt lat="42.2650883" lon="13.74095"><ele>487.0</ele><time>2026-05-03T09:02:05.731Z</time></trkpt><trkpt lat="42.2649883" lon="13.7409333"><ele>487.00000000000006</ele><time>2026-05-03T09:02:06.731Z</time></trkpt><trkpt lat="42.2648917" lon="13.7409367"><ele>487.00000000000006</ele><time>2026-05-03T09:02:07.731Z</time></trkpt><trkpt lat="42.2647933" lon="13.7409617"><ele>487.0</ele><time>2026-05-03T09:02:08.732Z</time></trkpt><trkpt lat="42.2647017" lon="13.7410017"><ele>487.0</ele><time>2026-05-03T09:02:09.731Z</time></trkpt><trkpt lat="42.264615" lon="13.7410617"><ele>484.40000000000003</ele><time>2026-05-03T09:02:10.731Z</time></trkpt><trkpt lat="42.2645233" lon="13.741125"><ele>481.80000000000007</ele><time>2026-05-03T09:02:11.731Z</time></trkpt><trkpt lat="42.26443" lon="13.74117"><ele>479.2</ele><time>2026-05-03T09:02:12.73Z</time></trkpt><trkpt lat="42.2643367" lon="13.7412017"><ele>476.6</ele><time>2026-05-03T09:02:13.731Z</time></trkpt><trkpt lat="42.2642367" lon="13.741225"><ele>474.0</ele><time>2026-05-03T09:02:14.731Z</time></trkpt><trkpt lat="42.2641433" lon="13.741235"><ele>474.0</ele><time>2026-05-03T09:02:15.731Z</time></trkpt><trkpt lat="42.2640533" lon="13.7412317"><ele>474.0</ele><time>2026-05-03T09:02:16.731Z</time></trkpt><trkpt lat="42.263965" lon="13.74123"><ele>474.0</ele><time>2026-05-03T09:02:17.731Z</time></trkpt><trkpt lat="42.2638833" lon="13.7412183"><ele>474.0</ele><time>2026-05-03T09:02:18.731Z</time></trkpt><trkpt lat="42.263805" lon="13.7412317"><ele>474.0</ele><time>2026-05-03T09:02:19.731Z</time></trkpt><trkpt lat="42.2637367" lon="13.7412367"><ele>474.0</ele><time>2026-05-03T09:02:20.731Z</time></trkpt><trkpt lat="42.263625" lon="13.7412467"><ele>474.0</ele><time>2026-05-03T09:02:22.731Z</time></trkpt><trkpt lat="42.2635517" lon="13.74127"><ele>474.0</ele><time>2026-05-03T09:02:24.73Z</time></trkpt><trkpt lat="42.2634917" lon="13.74134"><ele>474.0</ele><time>2026-05-03T09:02:26.73Z</time></trkpt><trkpt lat="42.2634283" lon="13.7414317"><ele>474.0</ele><time>2026-05-03T09:02:28.731Z</time></trkpt><trkpt lat="42.263375" lon="13.7415183"><ele>474.0</ele><time>2026-05-03T09:02:30.731Z</time></trkpt><trkpt lat="42.2633417" lon="13.7416233"><ele>474.0</ele><time>2026-05-03T09:02:32.731Z</time></trkpt><trkpt lat="42.2632683" lon="13.7417067"><ele>474.0</ele><time>2026-05-03T09:02:34.731Z</time></trkpt><trkpt lat="42.2631783" lon="13.7417533"><ele>474.0</ele><time>2026-05-03T09:02:36.731Z</time></trkpt><trkpt lat="42.2631133" lon="13.7418183"><ele>474.0</ele><time>2026-05-03T09:02:39.73Z</time></trkpt><trkpt lat="42.2631317" lon="13.741935"><ele>474.0</ele><time>2026-05-03T09:02:42.73Z</time></trkpt><trkpt lat="42.2631567" lon="13.7420417"><ele>474.0</ele><time>2026-05-03T09:02:44.73Z</time></trkpt><trkpt lat="42.2631217" lon="13.74214"><ele>474.0</ele><time>2026-05-03T09:02:47.731Z</time></trkpt><trkpt lat="42.2630483" lon="13.7421833"><ele>472.3333333333333</ele><time>2026-05-03T09:02:50.73Z</time></trkpt><trkpt lat="42.2630133" lon="13.74233"><ele>470.66666666666663</ele><time>2026-05-03T09:03:08.73Z</time></trkpt><trkpt lat="42.26303" lon="13.7424417"><ele>469.0</ele><time>2026-05-03T09:03:09.731Z</time></trkpt><trkpt lat="42.26304" lon="13.7425467"><ele>467.3333333333333</ele><time>2026-05-03T09:03:10.731Z</time></trkpt><trkpt lat="42.2630367" lon="13.742645"><ele>465.66666666666663</ele><time>2026-05-03T09:03:11.731Z</time></trkpt><trkpt lat="42.2629933" lon="13.742765"><ele>464.0</ele><time>2026-05-03T09:03:13.731Z</time></trkpt><trkpt lat="42.2628717" lon="13.742805"><ele>463.00000000000006</ele><time>2026-05-03T09:03:15.731Z</time></trkpt><trkpt lat="42.2628017" lon="13.7428317"><ele>462.0</ele><time>2026-05-03T09:03:16.731Z</time></trkpt><trkpt lat="42.26273" lon="13.742875"><ele>461.00000000000006</ele><time>2026-05-03T09:03:17.731Z</time></trkpt><trkpt lat="42.2626633" lon="13.7429233"><ele>460.00000000000006</ele><time>2026-05-03T09:03:18.73Z</time></trkpt><trkpt lat="42.2625983" lon="13.7429717"><ele>459.0</ele><time>2026-05-03T09:03:19.731Z</time></trkpt><trkpt lat="42.2625333" lon="13.7430217"><ele>458.00000000000006</ele><time>2026-05-03T09:03:20.731Z</time></trkpt><trkpt lat="42.2624667" lon="13.7430567"><ele>457.00000000000006</ele><time>2026-05-03T09:03:21.73Z</time></trkpt><trkpt lat="42.2623517" lon="13.74308"><ele>457.0</ele><time>2026-05-03T09:03:23.73Z</time></trkpt><trkpt lat="42.2622467" lon="13.7431833"><ele>457.00000000000006</ele><time>2026-05-03T09:03:25.73Z</time></trkpt><trkpt lat="42.2621983" lon="13.7432817"><ele>457.00000000000006</ele><time>2026-05-03T09:03:26.731Z</time></trkpt><trkpt lat="42.2621733" lon="13.7433933"><ele>457.0</ele><time>2026-05-03T09:03:27.731Z</time></trkpt><trkpt lat="42.2621467" lon="13.743505"><ele>457.0</ele><time>2026-05-03T09:03:28.731Z</time></trkpt><trkpt lat="42.26212" lon="13.743585"><ele>457.00000000000006</ele><time>2026-05-03T09:03:29.73Z</time></trkpt><trkpt lat="42.262115" lon="13.7436967"><ele>457.0</ele><time>2026-05-03T09:03:33.731Z</time></trkpt><trkpt lat="42.2621933" lon="13.74383"><ele>457.0</ele><time>2026-05-03T09:03:35.731Z</time></trkpt><trkpt lat="42.2622483" lon="13.7439017"><ele>457.0</ele><time>2026-05-03T09:03:36.731Z</time></trkpt><trkpt lat="42.2623" lon="13.7439517"><ele>457.00000000000006</ele><time>2026-05-03T09:03:37.731Z</time></trkpt><trkpt lat="42.2623617" lon="13.7439717"><ele>457.0</ele><time>2026-05-03T09:03:38.73Z</time></trkpt><trkpt lat="42.2624417" lon="13.7439817"><ele>456.20000000000005</ele><time>2026-05-03T09:03:39.73Z</time></trkpt><trkpt lat="42.2625383" lon="13.743985"><ele>455.40000000000003</ele><time>2026-05-03T09:03:40.731Z</time></trkpt><trkpt lat="42.262645" lon="13.7439667"><ele>454.59999999999997</ele><time>2026-05-03T09:03:41.731Z</time></trkpt><trkpt lat="42.26276" lon="13.74395"><ele>453.79999999999995</ele><time>2026-05-03T09:03:42.731Z</time></trkpt><trkpt lat="42.26288" lon="13.7439433"><ele>453.0</ele><time>2026-05-03T09:03:43.731Z</time></trkpt><trkpt lat="42.2630167" lon="13.743925"><ele>452.25</ele><time>2026-05-03T09:03:44.731Z</time></trkpt><trkpt lat="42.263155" lon="13.74391"><ele>451.5</ele><time>2026-05-03T09:03:45.73Z</time></trkpt><trkpt lat="42.2632917" lon="13.7439067"><ele>450.75</ele><time>2026-05-03T09:03:46.731Z</time></trkpt><trkpt lat="42.26343" lon="13.7439117"><ele>450.0</ele><time>2026-05-03T09:03:47.73Z</time></trkpt><trkpt lat="42.2635733" lon="13.743935"><ele>450.0</ele><time>2026-05-03T09:03:48.73Z</time></trkpt><trkpt lat="42.26371" lon="13.7439667"><ele>450.0</ele><time>2026-05-03T09:03:49.731Z</time></trkpt><trkpt lat="42.2638333" lon="13.744015"><ele>450.0</ele><time>2026-05-03T09:03:50.731Z</time></trkpt><trkpt lat="42.2639717" lon="13.7440267"><ele>450.0</ele><time>2026-05-03T09:03:51.73Z</time></trkpt><trkpt lat="42.2641" lon="13.744045"><ele>449.5</ele><time>2026-05-03T09:03:52.731Z</time></trkpt><trkpt lat="42.2642283" lon="13.74407"><ele>449.0</ele><time>2026-05-03T09:03:53.731Z</time></trkpt><trkpt lat="42.2643517" lon="13.744085"><ele>448.5</ele><time>2026-05-03T09:03:54.73Z</time></trkpt><trkpt lat="42.2644667" lon="13.7441067"><ele>448.0</ele><time>2026-05-03T09:03:55.731Z</time></trkpt><trkpt lat="42.2645817" lon="13.7440933"><ele>448.0</ele><time>2026-05-03T09:03:56.731Z</time></trkpt><trkpt lat="42.264695" lon="13.74405"><ele>448.0</ele><time>2026-05-03T09:03:57.73Z</time></trkpt><trkpt lat="42.2647967" lon="13.7439917"><ele>448.0</ele><time>2026-05-03T09:03:58.73Z</time></trkpt><trkpt lat="42.2648967" lon="13.74391"><ele>448.0</ele><time>2026-05-03T09:03:59.731Z</time></trkpt><trkpt lat="42.2649983" lon="13.743815"><ele>448.0</ele><time>2026-05-03T09:04:00.731Z</time></trkpt><trkpt lat="42.2651067" lon="13.743715"><ele>448.0</ele><time>2026-05-03T09:04:01.73Z</time></trkpt><trkpt lat="42.265215" lon="13.7436433"><ele>448.0</ele><time>2026-05-03T09:04:02.731Z</time></trkpt><trkpt lat="42.2653267" lon="13.74359"><ele>448.0</ele><time>2026-05-03T09:04:03.731Z</time></trkpt><trkpt lat="42.265435" lon="13.7435467"><ele>448.0</ele><time>2026-05-03T09:04:04.731Z</time></trkpt><trkpt lat="42.265555" lon="13.7435183"><ele>448.0</ele><time>2026-05-03T09:04:05.731Z</time></trkpt><trkpt lat="42.2656733" lon="13.7435083"><ele>448.0</ele><time>2026-05-03T09:04:06.73Z</time></trkpt><trkpt lat="42.2658017" lon="13.7435267"><ele>448.0</ele><time>2026-05-03T09:04:07.73Z</time></trkpt><trkpt lat="42.2659333" lon="13.7435267"><ele>448.0</ele><time>2026-05-03T09:04:08.73Z</time></trkpt><trkpt lat="42.26606" lon="13.7435217"><ele>448.0</ele><time>2026-05-03T09:04:09.731Z</time></trkpt><trkpt lat="42.26618" lon="13.743525"><ele>448.0</ele><time>2026-05-03T09:04:10.731Z</time></trkpt><trkpt lat="42.266305" lon="13.7435533"><ele>448.0</ele><time>2026-05-03T09:04:11.73Z</time></trkpt><trkpt lat="42.2664217" lon="13.74359"><ele>449.4</ele><time>2026-05-03T09:04:12.731Z</time></trkpt><trkpt lat="42.2665367" lon="13.743615"><ele>450.79999999999995</ele><time>2026-05-03T09:04:13.731Z</time></trkpt><trkpt lat="42.2666483" lon="13.74362"><ele>452.2</ele><time>2026-05-03T09:04:14.731Z</time></trkpt><trkpt lat="42.26675" lon="13.743615"><ele>453.6</ele><time>2026-05-03T09:04:15.73Z</time></trkpt><trkpt lat="42.2668567" lon="13.7436017"><ele>455.0</ele><time>2026-05-03T09:04:16.731Z</time></trkpt><trkpt lat="42.266955" lon="13.74356"><ele>453.2</ele><time>2026-05-03T09:04:17.73Z</time></trkpt><trkpt lat="42.267055" lon="13.74352"><ele>451.4</ele><time>2026-05-03T09:04:18.731Z</time></trkpt><trkpt lat="42.267145" lon="13.7434733"><ele>449.6</ele><time>2026-05-03T09:04:19.731Z</time></trkpt><trkpt lat="42.2672483" lon="13.7434283"><ele>447.8</ele><time>2026-05-03T09:04:20.731Z</time></trkpt><trkpt lat="42.26734" lon="13.743405"><ele>446.0</ele><time>2026-05-03T09:04:21.73Z</time></trkpt><trkpt lat="42.2674267" lon="13.7433983"><ele>444.8333333333333</ele><time>2026-05-03T09:04:22.73Z</time></trkpt><trkpt lat="42.2675217" lon="13.7433833"><ele>443.66666666666663</ele><time>2026-05-03T09:04:23.73Z</time></trkpt><trkpt lat="42.267595" lon="13.7433833"><ele>442.5</ele><time>2026-05-03T09:04:24.73Z</time></trkpt><trkpt lat="42.2676767" lon="13.743385"><ele>441.33333333333337</ele><time>2026-05-03T09:04:25.731Z</time></trkpt><trkpt lat="42.2677617" lon="13.743415"><ele>440.1666666666667</ele><time>2026-05-03T09:04:26.731Z</time></trkpt><trkpt lat="42.2678633" lon="13.7434517"><ele>439.0</ele><time>2026-05-03T09:04:27.731Z</time></trkpt><trkpt lat="42.2679633" lon="13.7435167"><ele>440.0</ele><time>2026-05-03T09:04:28.731Z</time></trkpt><trkpt lat="42.2680683" lon="13.7435867"><ele>441.0</ele><time>2026-05-03T09:04:29.731Z</time></trkpt><trkpt lat="42.2681533" lon="13.7436683"><ele>442.0</ele><time>2026-05-03T09:04:30.731Z</time></trkpt><trkpt lat="42.26824" lon="13.74372"><ele>443.0</ele><time>2026-05-03T09:04:31.731Z</time></trkpt><trkpt lat="42.2683167" lon="13.7437567"><ele>444.0</ele><time>2026-05-03T09:04:32.731Z</time></trkpt><trkpt lat="42.268385" lon="13.7437683"><ele>444.0</ele><time>2026-05-03T09:04:33.73Z</time></trkpt><trkpt lat="42.26846" lon="13.74378"><ele>444.0</ele><time>2026-05-03T09:04:34.731Z</time></trkpt><trkpt lat="42.2685433" lon="13.7437817"><ele>444.0</ele><time>2026-05-03T09:04:35.731Z</time></trkpt><trkpt lat="42.2686267" lon="13.74379"><ele>444.0</ele><time>2026-05-03T09:04:36.73Z</time></trkpt><trkpt lat="42.2687033" lon="13.7437983"><ele>444.0</ele><time>2026-05-03T09:04:37.731Z</time></trkpt><trkpt lat="42.26878" lon="13.74379"><ele>444.0</ele><time>2026-05-03T09:04:38.73Z</time></trkpt><trkpt lat="42.2688567" lon="13.74374"><ele>444.0</ele><time>2026-05-03T09:04:39.731Z</time></trkpt><trkpt lat="42.268935" lon="13.743665"><ele>444.0</ele><time>2026-05-03T09:04:40.73Z</time></trkpt><trkpt lat="42.26901" lon="13.7435867"><ele>444.0</ele><time>2026-05-03T09:04:41.731Z</time></trkpt><trkpt lat="42.26906" lon="13.7434983"><ele>444.0</ele><time>2026-05-03T09:04:42.731Z</time></trkpt><trkpt lat="42.2690883" lon="13.7434067"><ele>444.0</ele><time>2026-05-03T09:04:43.731Z</time></trkpt><trkpt lat="42.2691133" lon="13.743325"><ele>444.0</ele><time>2026-05-03T09:04:44.73Z</time></trkpt><trkpt lat="42.269195" lon="13.7432317"><ele>442.2</ele><time>2026-05-03T09:04:46.73Z</time></trkpt><trkpt lat="42.2693267" lon="13.7431967"><ele>440.4</ele><time>2026-05-03T09:04:48.731Z</time></trkpt><trkpt lat="42.269405" lon="13.7432017"><ele>438.6</ele><time>2026-05-03T09:04:49.731Z</time></trkpt><trkpt lat="42.269495" lon="13.7432067"><ele>436.8</ele><time>2026-05-03T09:04:50.731Z</time></trkpt><trkpt lat="42.26958" lon="13.74324"><ele>435.0</ele><time>2026-05-03T09:04:51.731Z</time></trkpt><trkpt lat="42.26967" lon="13.743275"><ele>435.0</ele><time>2026-05-03T09:04:52.731Z</time></trkpt><trkpt lat="42.269755" lon="13.743325"><ele>435.0</ele><time>2026-05-03T09:04:53.731Z</time></trkpt><trkpt lat="42.2698433" lon="13.7433817"><ele>435.0</ele><time>2026-05-03T09:04:54.731Z</time></trkpt><trkpt lat="42.2699233" lon="13.7434467"><ele>435.0</ele><time>2026-05-03T09:04:55.73Z</time></trkpt><trkpt lat="42.2699983" lon="13.7435217"><ele>435.0</ele><time>2026-05-03T09:04:56.731Z</time></trkpt><trkpt lat="42.27008" lon="13.7435983"><ele>433.6</ele><time>2026-05-03T09:04:57.731Z</time></trkpt><trkpt lat="42.2701567" lon="13.7436683"><ele>432.2</ele><time>2026-05-03T09:04:58.731Z</time></trkpt><trkpt lat="42.2702467" lon="13.743725"><ele>430.79999999999995</ele><time>2026-05-03T09:04:59.731Z</time></trkpt><trkpt lat="42.2703383" lon="13.7437817"><ele>429.4</ele><time>2026-05-03T09:05:00.731Z</time></trkpt><trkpt lat="42.2704117" lon="13.74384"><ele>428.0</ele><time>2026-05-03T09:05:01.731Z</time></trkpt><trkpt lat="42.2704867" lon="13.7438783"><ele>427.99999999999994</ele><time>2026-05-03T09:05:02.73Z</time></trkpt><trkpt lat="42.2705617" lon="13.743915"><ele>428.0</ele><time>2026-05-03T09:05:03.731Z</time></trkpt><trkpt lat="42.2706567" lon="13.7439417"><ele>428.0</ele><time>2026-05-03T09:05:04.73Z</time></trkpt><trkpt lat="42.2707367" lon="13.743975"><ele>428.0</ele><time>2026-05-03T09:05:05.731Z</time></trkpt><trkpt lat="42.2708167" lon="13.7440133"><ele>427.99999999999994</ele><time>2026-05-03T09:05:06.731Z</time></trkpt><trkpt lat="42.2708867" lon="13.7440617"><ele>428.0</ele><time>2026-05-03T09:05:07.731Z</time></trkpt><trkpt lat="42.27094" lon="13.7441467"><ele>427.8333333333333</ele><time>2026-05-03T09:05:09.731Z</time></trkpt><trkpt lat="42.27094" lon="13.74427"><ele>427.66666666666663</ele><time>2026-05-03T09:05:12.731Z</time></trkpt><trkpt lat="42.2709467" lon="13.7444017"><ele>427.5</ele><time>2026-05-03T09:05:14.731Z</time></trkpt><trkpt lat="42.2709717" lon="13.7444883"><ele>427.33333333333337</ele><time>2026-05-03T09:05:15.731Z</time></trkpt><trkpt lat="42.2710117" lon="13.7445867"><ele>427.1666666666667</ele><time>2026-05-03T09:05:16.731Z</time></trkpt><trkpt lat="42.2710617" lon="13.7447083"><ele>427.0</ele><time>2026-05-03T09:05:17.73Z</time></trkpt><trkpt lat="42.2711267" lon="13.7448317"><ele>426.25</ele><time>2026-05-03T09:05:18.731Z</time></trkpt><trkpt lat="42.2711983" lon="13.7449667"><ele>425.5</ele><time>2026-05-03T09:05:19.731Z</time></trkpt><trkpt lat="42.2712733" lon="13.745105"><ele>424.75</ele><time>2026-05-03T09:05:20.73Z</time></trkpt><trkpt lat="42.2713367" lon="13.7452333"><ele>424.0</ele><time>2026-05-03T09:05:21.73Z</time></trkpt><trkpt lat="42.2713867" lon="13.745345"><ele>422.79999999999995</ele><time>2026-05-03T09:05:22.731Z</time></trkpt><trkpt lat="42.2714283" lon="13.7454583"><ele>421.59999999999997</ele><time>2026-05-03T09:05:23.73Z</time></trkpt><trkpt lat="42.2714617" lon="13.745575"><ele>420.4</ele><time>2026-05-03T09:05:24.73Z</time></trkpt><trkpt lat="42.2714783" lon="13.7457017"><ele>419.2</ele><time>2026-05-03T09:05:25.73Z</time></trkpt><trkpt lat="42.2714767" lon="13.7458183"><ele>418.0</ele><time>2026-05-03T09:05:26.731Z</time></trkpt><trkpt lat="42.27148" lon="13.7459333"><ele>418.00000000000006</ele><time>2026-05-03T09:05:27.731Z</time></trkpt><trkpt lat="42.2714917" lon="13.7460367"><ele>418.0</ele><time>2026-05-03T09:05:28.731Z</time></trkpt><trkpt lat="42.2715033" lon="13.74613"><ele>418.0</ele><time>2026-05-03T09:05:29.731Z</time></trkpt><trkpt lat="42.2715167" lon="13.7462283"><ele>418.0</ele><time>2026-05-03T09:05:30.73Z</time></trkpt><trkpt lat="42.27154" lon="13.746325"><ele>418.00000000000006</ele><time>2026-05-03T09:05:31.73Z</time></trkpt><trkpt lat="42.2715767" lon="13.7464217"><ele>418.0</ele><time>2026-05-03T09:05:32.731Z</time></trkpt><trkpt lat="42.271625" lon="13.74653"><ele>419.0</ele><time>2026-05-03T09:05:33.73Z</time></trkpt><trkpt lat="42.2716817" lon="13.7466483"><ele>420.0</ele><time>2026-05-03T09:05:34.731Z</time></trkpt><trkpt lat="42.271745" lon="13.7467733"><ele>421.0</ele><time>2026-05-03T09:05:35.73Z</time></trkpt><trkpt lat="42.271815" lon="13.7468933"><ele>422.0</ele><time>2026-05-03T09:05:36.73Z</time></trkpt><trkpt lat="42.2718767" lon="13.7470083"><ele>423.0</ele><time>2026-05-03T09:05:37.73Z</time></trkpt><trkpt lat="42.2719367" lon="13.747115"><ele>424.59999999999997</ele><time>2026-05-03T09:05:38.731Z</time></trkpt><trkpt lat="42.2719933" lon="13.7472367"><ele>426.2</ele><time>2026-05-03T09:05:39.731Z</time></trkpt><trkpt lat="42.2720433" lon="13.74734"><ele>427.8</ele><time>2026-05-03T09:05:40.731Z</time></trkpt><trkpt lat="42.272105" lon="13.7474417"><ele>429.4</ele><time>2026-05-03T09:05:41.731Z</time></trkpt><trkpt lat="42.272165" lon="13.7475483"><ele>431.0</ele><time>2026-05-03T09:05:42.731Z</time></trkpt><trkpt lat="42.272225" lon="13.7476617"><ele>430.16666666666663</ele><time>2026-05-03T09:05:43.73Z</time></trkpt><trkpt lat="42.2722833" lon="13.74776"><ele>429.3333333333333</ele><time>2026-05-03T09:05:44.731Z</time></trkpt><trkpt lat="42.2723333" lon="13.7478333"><ele>428.5</ele><time>2026-05-03T09:05:45.731Z</time></trkpt><trkpt lat="42.27239" lon="13.7478867"><ele>427.66666666666663</ele><time>2026-05-03T09:05:46.73Z</time></trkpt><trkpt lat="42.2724667" lon="13.747925"><ele>426.8333333333333</ele><time>2026-05-03T09:05:47.731Z</time></trkpt><trkpt lat="42.272545" lon="13.7479783"><ele>426.0</ele><time>2026-05-03T09:05:48.73Z</time></trkpt><trkpt lat="42.2726267" lon="13.7480433"><ele>426.0</ele><time>2026-05-03T09:05:49.73Z</time></trkpt><trkpt lat="42.2727067" lon="13.7481167"><ele>426.0</ele><time>2026-05-03T09:05:50.73Z</time></trkpt><trkpt lat="42.2727783" lon="13.7482017"><ele>426.0</ele><time>2026-05-03T09:05:51.731Z</time></trkpt><trkpt lat="42.27285" lon="13.7482883"><ele>426.0</ele><time>2026-05-03T09:05:52.731Z</time></trkpt><trkpt lat="42.2729183" lon="13.74839"><ele>426.0</ele><time>2026-05-03T09:05:53.73Z</time></trkpt><trkpt lat="42.272985" lon="13.7485"><ele>424.6</ele><time>2026-05-03T09:05:54.73Z</time></trkpt><trkpt lat="42.2730567" lon="13.7486067"><ele>423.20000000000005</ele><time>2026-05-03T09:05:55.73Z</time></trkpt><trkpt lat="42.2731267" lon="13.748715"><ele>421.79999999999995</ele><time>2026-05-03T09:05:56.729Z</time></trkpt><trkpt lat="42.2732033" lon="13.7488133"><ele>420.4</ele><time>2026-05-03T09:05:57.73Z</time></trkpt><trkpt lat="42.2732867" lon="13.7489183"><ele>419.0</ele><time>2026-05-03T09:05:58.729Z</time></trkpt><trkpt lat="42.273365" lon="13.749015"><ele>419.0</ele><time>2026-05-03T09:05:59.729Z</time></trkpt><trkpt lat="42.273445" lon="13.7490983"><ele>419.0</ele><time>2026-05-03T09:06:00.729Z</time></trkpt><trkpt lat="42.273525" lon="13.74918"><ele>419.0</ele><time>2026-05-03T09:06:01.729Z</time></trkpt><trkpt lat="42.27362" lon="13.7492483"><ele>419.0</ele><time>2026-05-03T09:06:02.73Z</time></trkpt><trkpt lat="42.2737133" lon="13.7493133"><ele>419.0</ele><time>2026-05-03T09:06:03.729Z</time></trkpt><trkpt lat="42.2738033" lon="13.7493767"><ele>418.99999999999994</ele><time>2026-05-03T09:06:04.73Z</time></trkpt><trkpt lat="42.273875" lon="13.7494317"><ele>419.0</ele><time>2026-05-03T09:06:05.729Z</time></trkpt><trkpt lat="42.2739333" lon="13.749485"><ele>419.0</ele><time>2026-05-03T09:06:06.729Z</time></trkpt><trkpt lat="42.2739717" lon="13.74956"><ele>419.0</ele><time>2026-05-03T09:06:07.73Z</time></trkpt><trkpt lat="42.2739733" lon="13.7497233"><ele>418.99999999999994</ele><time>2026-05-03T09:06:09.73Z</time></trkpt><trkpt lat="42.273945" lon="13.749815"><ele>419.0</ele><time>2026-05-03T09:06:10.729Z</time></trkpt><trkpt lat="42.273905" lon="13.7499183"><ele>419.0</ele><time>2026-05-03T09:06:11.73Z</time></trkpt><trkpt lat="42.2738533" lon="13.7500333"><ele>419.0</ele><time>2026-05-03T09:06:12.73Z</time></trkpt><trkpt lat="42.2738033" lon="13.7501683"><ele>419.0</ele><time>2026-05-03T09:06:13.73Z</time></trkpt><trkpt lat="42.27375" lon="13.7503033"><ele>419.0</ele><time>2026-05-03T09:06:14.729Z</time></trkpt><trkpt lat="42.273695" lon="13.750405"><ele>419.0</ele><time>2026-05-03T09:06:15.73Z</time></trkpt><trkpt lat="42.273655" lon="13.7504933"><ele>418.99999999999994</ele><time>2026-05-03T09:06:16.729Z</time></trkpt><trkpt lat="42.2736283" lon="13.750575"><ele>419.0</ele><time>2026-05-03T09:06:17.729Z</time></trkpt><trkpt lat="42.2736167" lon="13.7506633"><ele>419.0</ele><time>2026-05-03T09:06:18.73Z</time></trkpt><trkpt lat="42.2736283" lon="13.7507517"><ele>419.0</ele><time>2026-05-03T09:06:19.729Z</time></trkpt><trkpt lat="42.2736617" lon="13.7508467"><ele>419.0</ele><time>2026-05-03T09:06:20.729Z</time></trkpt><trkpt lat="42.2737033" lon="13.7509517"><ele>418.99999999999994</ele><time>2026-05-03T09:06:21.73Z</time></trkpt><trkpt lat="42.2737517" lon="13.7510383"><ele>419.0</ele><time>2026-05-03T09:06:22.729Z</time></trkpt><trkpt lat="42.2738017" lon="13.751125"><ele>418.66666666666663</ele><time>2026-05-03T09:06:23.729Z</time></trkpt><trkpt lat="42.2738717" lon="13.7511983"><ele>418.3333333333333</ele><time>2026-05-03T09:06:24.73Z</time></trkpt><trkpt lat="42.2739283" lon="13.7512433"><ele>418.0</ele><time>2026-05-03T09:06:25.729Z</time></trkpt><trkpt lat="42.2739917" lon="13.7512483"><ele>417.66666666666663</ele><time>2026-05-03T09:06:26.73Z</time></trkpt><trkpt lat="42.2740733" lon="13.75123"><ele>417.3333333333333</ele><time>2026-05-03T09:06:27.73Z</time></trkpt><trkpt lat="42.27416" lon="13.75119"><ele>417.0</ele><time>2026-05-03T09:06:28.73Z</time></trkpt><trkpt lat="42.2742583" lon="13.7511317"><ele>416.75</ele><time>2026-05-03T09:06:29.73Z</time></trkpt><trkpt lat="42.2743717" lon="13.7510817"><ele>416.5</ele><time>2026-05-03T09:06:30.73Z</time></trkpt><trkpt lat="42.27449" lon="13.7510267"><ele>416.25</ele><time>2026-05-03T09:06:31.73Z</time></trkpt><trkpt lat="42.27461" lon="13.750985"><ele>416.0</ele><time>2026-05-03T09:06:32.73Z</time></trkpt><trkpt lat="42.2747283" lon="13.7509633"><ele>415.0</ele><time>2026-05-03T09:06:33.73Z</time></trkpt><trkpt lat="42.2748383" lon="13.7509567"><ele>414.0</ele><time>2026-05-03T09:06:34.729Z</time></trkpt><trkpt lat="42.2749533" lon="13.7509483"><ele>413.0</ele><time>2026-05-03T09:06:35.729Z</time></trkpt><trkpt lat="42.275075" lon="13.750955"><ele>412.0</ele><time>2026-05-03T09:06:36.729Z</time></trkpt><trkpt lat="42.2751967" lon="13.7509633"><ele>412.0</ele><time>2026-05-03T09:06:37.729Z</time></trkpt><trkpt lat="42.275315" lon="13.7509717"><ele>412.0</ele><time>2026-05-03T09:06:38.73Z</time></trkpt><trkpt lat="42.2754367" lon="13.7509767"><ele>412.0</ele><time>2026-05-03T09:06:39.729Z</time></trkpt><trkpt lat="42.27555" lon="13.750985"><ele>412.0</ele><time>2026-05-03T09:06:40.73Z</time></trkpt><trkpt lat="42.27567" lon="13.7509983"><ele>411.40000000000003</ele><time>2026-05-03T09:06:41.73Z</time></trkpt><trkpt lat="42.275785" lon="13.7510083"><ele>410.8</ele><time>2026-05-03T09:06:42.73Z</time></trkpt><trkpt lat="42.2759017" lon="13.75102"><ele>410.2</ele><time>2026-05-03T09:06:43.729Z</time></trkpt><trkpt lat="42.2760067" lon="13.7510617"><ele>409.6</ele><time>2026-05-03T09:06:44.73Z</time></trkpt><trkpt lat="42.2761017" lon="13.7510933"><ele>409.0</ele><time>2026-05-03T09:06:45.73Z</time></trkpt><trkpt lat="42.2761767" lon="13.7511467"><ele>408.2</ele><time>2026-05-03T09:06:46.73Z</time></trkpt><trkpt lat="42.2762483" lon="13.751235"><ele>407.4</ele><time>2026-05-03T09:06:47.729Z</time></trkpt><trkpt lat="42.2763183" lon="13.7513317"><ele>406.6</ele><time>2026-05-03T09:06:48.73Z</time></trkpt><trkpt lat="42.2763917" lon="13.7514217"><ele>405.8</ele><time>2026-05-03T09:06:49.73Z</time></trkpt><trkpt lat="42.2764683" lon="13.7515133"><ele>405.0</ele><time>2026-05-03T09:06:50.73Z</time></trkpt><trkpt lat="42.2765533" lon="13.7515783"><ele>404.4</ele><time>2026-05-03T09:06:51.73Z</time></trkpt><trkpt lat="42.2766483" lon="13.7516233"><ele>403.8</ele><time>2026-05-03T09:06:52.729Z</time></trkpt><trkpt lat="42.27675" lon="13.75167"><ele>403.20000000000005</ele><time>2026-05-03T09:06:53.729Z</time></trkpt><trkpt lat="42.2768517" lon="13.7516983"><ele>402.6</ele><time>2026-05-03T09:06:54.729Z</time></trkpt><trkpt lat="42.2769483" lon="13.7517367"><ele>402.0</ele><time>2026-05-03T09:06:55.73Z</time></trkpt><trkpt lat="42.27705" lon="13.7517533"><ele>402.0</ele><time>2026-05-03T09:06:56.73Z</time></trkpt><trkpt lat="42.277145" lon="13.7517783"><ele>402.0</ele><time>2026-05-03T09:06:57.73Z</time></trkpt><trkpt lat="42.2772367" lon="13.751795"><ele>402.0</ele><time>2026-05-03T09:06:58.729Z</time></trkpt><trkpt lat="42.2773183" lon="13.751805"><ele>402.0</ele><time>2026-05-03T09:06:59.73Z</time></trkpt><trkpt lat="42.2773917" lon="13.7518167"><ele>402.0</ele><time>2026-05-03T09:07:00.73Z</time></trkpt><trkpt lat="42.2774833" lon="13.7518633"><ele>402.0</ele><time>2026-05-03T09:07:02.73Z</time></trkpt><trkpt lat="42.2775633" lon="13.751945"><ele>402.8</ele><time>2026-05-03T09:07:04.73Z</time></trkpt><trkpt lat="42.2776883" lon="13.7520117"><ele>403.6</ele><time>2026-05-03T09:07:06.729Z</time></trkpt><trkpt lat="42.2777783" lon="13.7520233"><ele>404.40000000000003</ele><time>2026-05-03T09:07:07.73Z</time></trkpt><trkpt lat="42.2778817" lon="13.7520433"><ele>405.20000000000005</ele><time>2026-05-03T09:07:08.729Z</time></trkpt><trkpt lat="42.277975" lon="13.7520767"><ele>406.0</ele><time>2026-05-03T09:07:09.73Z</time></trkpt><trkpt lat="42.27808" lon="13.7521217"><ele>405.0</ele><time>2026-05-03T09:07:10.729Z</time></trkpt><trkpt lat="42.2781917" lon="13.7521533"><ele>404.0</ele><time>2026-05-03T09:07:11.73Z</time></trkpt><trkpt lat="42.2783017" lon="13.752175"><ele>403.0</ele><time>2026-05-03T09:07:12.73Z</time></trkpt><trkpt lat="42.2784233" lon="13.7521867"><ele>402.0</ele><time>2026-05-03T09:07:13.73Z</time></trkpt><trkpt lat="42.2785483" lon="13.7521883"><ele>402.0</ele><time>2026-05-03T09:07:14.73Z</time></trkpt><trkpt lat="42.2786833" lon="13.752185"><ele>402.0</ele><time>2026-05-03T09:07:15.729Z</time></trkpt><trkpt lat="42.2788233" lon="13.752195"><ele>402.0</ele><time>2026-05-03T09:07:16.73Z</time></trkpt><trkpt lat="42.27897" lon="13.7522017"><ele>402.0</ele><time>2026-05-03T09:07:17.729Z</time></trkpt><trkpt lat="42.2791067" lon="13.7522067"><ele>401.0</ele><time>2026-05-03T09:07:18.73Z</time></trkpt><trkpt lat="42.2792433" lon="13.7522117"><ele>400.0</ele><time>2026-05-03T09:07:19.729Z</time></trkpt><trkpt lat="42.2793833" lon="13.752205"><ele>399.0</ele><time>2026-05-03T09:07:20.73Z</time></trkpt><trkpt lat="42.2795233" lon="13.7521983"><ele>398.0</ele><time>2026-05-03T09:07:21.729Z</time></trkpt><trkpt lat="42.2796617" lon="13.7521783"><ele>396.25</ele><time>2026-05-03T09:07:22.729Z</time></trkpt><trkpt lat="42.2798" lon="13.75217"><ele>394.5</ele><time>2026-05-03T09:07:23.73Z</time></trkpt><trkpt lat="42.2799433" lon="13.7521633"><ele>392.75</ele><time>2026-05-03T09:07:24.73Z</time></trkpt><trkpt lat="42.28008" lon="13.75217"><ele>391.0</ele><time>2026-05-03T09:07:25.73Z</time></trkpt><trkpt lat="42.28021" lon="13.7521733"><ele>391.0</ele><time>2026-05-03T09:07:26.73Z</time></trkpt><trkpt lat="42.2803483" lon="13.752195"><ele>391.0</ele><time>2026-05-03T09:07:27.729Z</time></trkpt><trkpt lat="42.2804867" lon="13.7522333"><ele>391.0</ele><time>2026-05-03T09:07:28.73Z</time></trkpt><trkpt lat="42.2806067" lon="13.75229"><ele>391.0</ele><time>2026-05-03T09:07:29.73Z</time></trkpt><trkpt lat="42.2807217" lon="13.7523533"><ele>390.5</ele><time>2026-05-03T09:07:30.73Z</time></trkpt><trkpt lat="42.28084" lon="13.752425"><ele>390.0</ele><time>2026-05-03T09:07:31.73Z</time></trkpt><trkpt lat="42.2809567" lon="13.75251"><ele>389.5</ele><time>2026-05-03T09:07:32.729Z</time></trkpt><trkpt lat="42.281075" lon="13.7526117"><ele>389.0</ele><time>2026-05-03T09:07:33.73Z</time></trkpt><trkpt lat="42.2811817" lon="13.7527283"><ele>389.0</ele><time>2026-05-03T09:07:34.729Z</time></trkpt><trkpt lat="42.281285" lon="13.7528533"><ele>389.0</ele><time>2026-05-03T09:07:35.73Z</time></trkpt><trkpt lat="42.2813933" lon="13.7529633"><ele>389.0</ele><time>2026-05-03T09:07:36.73Z</time></trkpt><trkpt lat="42.2814983" lon="13.7530867"><ele>389.0</ele><time>2026-05-03T09:07:37.73Z</time></trkpt><trkpt lat="42.2816033" lon="13.7532017"><ele>389.0</ele><time>2026-05-03T09:07:38.73Z</time></trkpt><trkpt lat="42.2817083" lon="13.7533183"><ele>389.0</ele><time>2026-05-03T09:07:39.73Z</time></trkpt><trkpt lat="42.2818067" lon="13.7534417"><ele>389.0</ele><time>2026-05-03T09:07:40.729Z</time></trkpt><trkpt lat="42.2819033" lon="13.7535633"><ele>389.0</ele><time>2026-05-03T09:07:41.73Z</time></trkpt><trkpt lat="42.282005" lon="13.7536717"><ele>389.5</ele><time>2026-05-03T09:07:42.729Z</time></trkpt><trkpt lat="42.2821067" lon="13.7537767"><ele>390.0</ele><time>2026-05-03T09:07:43.729Z</time></trkpt><trkpt lat="42.2822167" lon="13.7538633"><ele>390.5</ele><time>2026-05-03T09:07:44.729Z</time></trkpt><trkpt lat="42.28234" lon="13.75395"><ele>391.0</ele><time>2026-05-03T09:07:45.729Z</time></trkpt><trkpt lat="42.282465" lon="13.7540267"><ele>391.0</ele><time>2026-05-03T09:07:46.73Z</time></trkpt><trkpt lat="42.282595" lon="13.7540967"><ele>391.0</ele><time>2026-05-03T09:07:47.73Z</time></trkpt><trkpt lat="42.2827233" lon="13.75417"><ele>391.0</ele><time>2026-05-03T09:07:48.729Z</time></trkpt><trkpt lat="42.28285" lon="13.7542333"><ele>391.0</ele><time>2026-05-03T09:07:49.729Z</time></trkpt><trkpt lat="42.2829683" lon="13.754305"><ele>390.20000000000005</ele><time>2026-05-03T09:07:50.73Z</time></trkpt><trkpt lat="42.28308" lon="13.7543783"><ele>389.40000000000003</ele><time>2026-05-03T09:07:51.73Z</time></trkpt><trkpt lat="42.2831867" lon="13.7544317"><ele>388.6</ele><time>2026-05-03T09:07:52.73Z</time></trkpt><trkpt lat="42.2832817" lon="13.75448"><ele>387.8</ele><time>2026-05-03T09:07:53.729Z</time></trkpt><trkpt lat="42.2833717" lon="13.7545267"><ele>387.0</ele><time>2026-05-03T09:07:54.73Z</time></trkpt><trkpt lat="42.283445" lon="13.7545533"><ele>387.0</ele><time>2026-05-03T09:07:55.729Z</time></trkpt><trkpt lat="42.2835083" lon="13.7545683"><ele>387.0</ele><time>2026-05-03T09:07:56.729Z</time></trkpt><trkpt lat="42.283585" lon="13.75457"><ele>387.0</ele><time>2026-05-03T09:07:58.73Z</time></trkpt><trkpt lat="42.2836133" lon="13.754455"><ele>387.0</ele><time>2026-05-03T09:08:01.73Z</time></trkpt><trkpt lat="42.2836" lon="13.7543667"><ele>387.0</ele><time>2026-05-03T09:08:02.729Z</time></trkpt><trkpt lat="42.2835867" lon="13.7542617"><ele>387.0</ele><time>2026-05-03T09:08:03.73Z</time></trkpt><trkpt lat="42.28357" lon="13.7541383"><ele>386.0</ele><time>2026-05-03T09:08:04.73Z</time></trkpt><trkpt lat="42.283555" lon="13.7539983"><ele>385.0</ele><time>2026-05-03T09:08:05.729Z</time></trkpt><trkpt lat="42.2835283" lon="13.753845"><ele>384.0</ele><time>2026-05-03T09:08:06.729Z</time></trkpt><trkpt lat="42.2835017" lon="13.7536967"><ele>383.0</ele><time>2026-05-03T09:08:07.729Z</time></trkpt><trkpt lat="42.2834717" lon="13.7535433"><ele>383.5</ele><time>2026-05-03T09:08:08.73Z</time></trkpt><trkpt lat="42.2834517" lon="13.7533833"><ele>384.0</ele><time>2026-05-03T09:08:09.73Z</time></trkpt><trkpt lat="42.28344" lon="13.7532217"><ele>384.5</ele><time>2026-05-03T09:08:10.73Z</time></trkpt><trkpt lat="42.283425" lon="13.7530767"><ele>385.0</ele><time>2026-05-03T09:08:11.729Z</time></trkpt><trkpt lat="42.2834133" lon="13.7529367"><ele>385.0</ele><time>2026-05-03T09:08:12.73Z</time></trkpt><trkpt lat="42.2834133" lon="13.752795"><ele>385.0</ele><time>2026-05-03T09:08:13.73Z</time></trkpt><trkpt lat="42.2834117" lon="13.7526583"><ele>385.0</ele><time>2026-05-03T09:08:14.73Z</time></trkpt><trkpt lat="42.2834067" lon="13.7525317"><ele>385.0</ele><time>2026-05-03T09:08:15.73Z</time></trkpt><trkpt lat="42.2834033" lon="13.7524167"><ele>385.0</ele><time>2026-05-03T09:08:16.73Z</time></trkpt><trkpt lat="42.2834167" lon="13.7523167"><ele>385.2</ele><time>2026-05-03T09:08:17.729Z</time></trkpt><trkpt lat="42.283485" lon="13.7521983"><ele>385.4</ele><time>2026-05-03T09:08:19.73Z</time></trkpt><trkpt lat="42.2835567" lon="13.7521933"><ele>385.6</ele><time>2026-05-03T09:08:20.73Z</time></trkpt><trkpt lat="42.2836417" lon="13.7522117"><ele>385.8</ele><time>2026-05-03T09:08:21.73Z</time></trkpt><trkpt lat="42.2837417" lon="13.7522467"><ele>386.0</ele><time>2026-05-03T09:08:22.73Z</time></trkpt><trkpt lat="42.2838517" lon="13.7522733"><ele>385.5</ele><time>2026-05-03T09:08:23.73Z</time></trkpt><trkpt lat="42.283965" lon="13.752305"><ele>385.0</ele><time>2026-05-03T09:08:24.729Z</time></trkpt><trkpt lat="42.2840767" lon="13.7523433"><ele>384.5</ele><time>2026-05-03T09:08:25.73Z</time></trkpt><trkpt lat="42.2841967" lon="13.7523783"><ele>384.0</ele><time>2026-05-03T09:08:26.729Z</time></trkpt><trkpt lat="42.2843183" lon="13.7524133"><ele>384.0</ele><time>2026-05-03T09:08:27.729Z</time></trkpt><trkpt lat="42.28444" lon="13.7524617"><ele>384.0</ele><time>2026-05-03T09:08:28.73Z</time></trkpt><trkpt lat="42.284565" lon="13.752505"><ele>384.0</ele><time>2026-05-03T09:08:29.73Z</time></trkpt><trkpt lat="42.2846783" lon="13.7525517"><ele>384.0</ele><time>2026-05-03T09:08:30.729Z</time></trkpt><trkpt lat="42.2848" lon="13.752605"><ele>384.0</ele><time>2026-05-03T09:08:31.729Z</time></trkpt><trkpt lat="42.28492" lon="13.7526533"><ele>384.0</ele><time>2026-05-03T09:08:32.729Z</time></trkpt><trkpt lat="42.2850383" lon="13.752705"><ele>384.0</ele><time>2026-05-03T09:08:33.729Z</time></trkpt><trkpt lat="42.28516" lon="13.7527717"><ele>384.0</ele><time>2026-05-03T09:08:34.729Z</time></trkpt><trkpt lat="42.28528" lon="13.7528283"><ele>383.5</ele><time>2026-05-03T09:08:35.73Z</time></trkpt><trkpt lat="42.2853967" lon="13.75288"><ele>383.0</ele><time>2026-05-03T09:08:36.73Z</time></trkpt><trkpt lat="42.28551" lon="13.75293"><ele>382.5</ele><time>2026-05-03T09:08:37.73Z</time></trkpt><trkpt lat="42.285615" lon="13.7529633"><ele>382.0</ele><time>2026-05-03T09:08:38.729Z</time></trkpt><trkpt lat="42.28572" lon="13.7530017"><ele>381.66666666666663</ele><time>2026-05-03T09:08:39.729Z</time></trkpt><trkpt lat="42.2858183" lon="13.753035"><ele>381.3333333333333</ele><time>2026-05-03T09:08:40.73Z</time></trkpt><trkpt lat="42.2859083" lon="13.7530783"><ele>381.0</ele><time>2026-05-03T09:08:41.73Z</time></trkpt><trkpt lat="42.2859967" lon="13.7531183"><ele>380.6666666666667</ele><time>2026-05-03T09:08:42.729Z</time></trkpt><trkpt lat="42.28607" lon="13.7531383"><ele>380.33333333333337</ele><time>2026-05-03T09:08:43.73Z</time></trkpt><trkpt lat="42.28615" lon="13.7531583"><ele>380.0</ele><time>2026-05-03T09:08:45.729Z</time></trkpt><trkpt lat="42.28623" lon="13.75316"><ele>380.0</ele><time>2026-05-03T09:08:48.73Z</time></trkpt><trkpt lat="42.2863783" lon="13.7531883"><ele>380.0</ele><time>2026-05-03T09:08:50.73Z</time></trkpt><trkpt lat="42.2864733" lon="13.753215"><ele>380.0</ele><time>2026-05-03T09:08:51.73Z</time></trkpt><trkpt lat="42.28657" lon="13.753255"><ele>380.0</ele><time>2026-05-03T09:08:52.729Z</time></trkpt><trkpt lat="42.28668" lon="13.753295"><ele>379.5</ele><time>2026-05-03T09:08:53.729Z</time></trkpt><trkpt lat="42.2867967" lon="13.7533267"><ele>379.0</ele><time>2026-05-03T09:08:54.73Z</time></trkpt><trkpt lat="42.2869217" lon="13.7533483"><ele>378.5</ele><time>2026-05-03T09:08:55.73Z</time></trkpt><trkpt lat="42.2870483" lon="13.7533917"><ele>378.0</ele><time>2026-05-03T09:08:56.73Z</time></trkpt><trkpt lat="42.2871783" lon="13.7534467"><ele>377.25</ele><time>2026-05-03T09:08:57.73Z</time></trkpt><trkpt lat="42.2873033" lon="13.75352"><ele>376.5</ele><time>2026-05-03T09:08:58.73Z</time></trkpt><trkpt lat="42.287425" lon="13.7535933"><ele>375.75</ele><time>2026-05-03T09:08:59.729Z</time></trkpt><trkpt lat="42.2875383" lon="13.7536667"><ele>375.0</ele><time>2026-05-03T09:09:00.729Z</time></trkpt><trkpt lat="42.28763" lon="13.753735"><ele>375.0</ele><time>2026-05-03T09:09:01.729Z</time></trkpt><trkpt lat="42.2877167" lon="13.7537933"><ele>375.0</ele><time>2026-05-03T09:09:02.73Z</time></trkpt><trkpt lat="42.2877883" lon="13.7538267"><ele>375.0</ele><time>2026-05-03T09:09:03.729Z</time></trkpt><trkpt lat="42.2878583" lon="13.75382"><ele>375.0</ele><time>2026-05-03T09:09:04.729Z</time></trkpt><trkpt lat="42.2879183" lon="13.7537333"><ele>375.0</ele><time>2026-05-03T09:09:05.73Z</time></trkpt><trkpt lat="42.2879867" lon="13.7536367"><ele>375.0</ele><time>2026-05-03T09:09:06.729Z</time></trkpt><trkpt lat="42.2880617" lon="13.7535217"><ele>374.75</ele><time>2026-05-03T09:09:07.73Z</time></trkpt><trkpt lat="42.2881417" lon="13.7534017"><ele>374.5</ele><time>2026-05-03T09:09:08.729Z</time></trkpt><trkpt lat="42.2882417" lon="13.753275"><ele>374.25</ele><time>2026-05-03T09:09:09.73Z</time></trkpt><trkpt lat="42.2883333" lon="13.753145"><ele>374.0</ele><time>2026-05-03T09:09:10.73Z</time></trkpt><trkpt lat="42.2884217" lon="13.75301"><ele>374.0</ele><time>2026-05-03T09:09:11.729Z</time></trkpt><trkpt lat="42.2885067" lon="13.75288"><ele>374.0</ele><time>2026-05-03T09:09:12.729Z</time></trkpt><trkpt lat="42.28859" lon="13.75275"><ele>374.0</ele><time>2026-05-03T09:09:13.73Z</time></trkpt><trkpt lat="42.288675" lon="13.7526117"><ele>374.0</ele><time>2026-05-03T09:09:14.729Z</time></trkpt><trkpt lat="42.28877" lon="13.7524533"><ele>374.75</ele><time>2026-05-03T09:09:15.729Z</time></trkpt><trkpt lat="42.2888517" lon="13.752295"><ele>375.5</ele><time>2026-05-03T09:09:16.729Z</time></trkpt><trkpt lat="42.2889217" lon="13.7521383"><ele>376.25</ele><time>2026-05-03T09:09:17.729Z</time></trkpt><trkpt lat="42.2889867" lon="13.7519917"><ele>377.0</ele><time>2026-05-03T09:09:18.73Z</time></trkpt><trkpt lat="42.289055" lon="13.7518467"><ele>378.25</ele><time>2026-05-03T09:09:19.73Z</time></trkpt><trkpt lat="42.2891217" lon="13.7516967"><ele>379.5</ele><time>2026-05-03T09:09:20.73Z</time></trkpt><trkpt lat="42.28918" lon="13.7515467"><ele>380.75</ele><time>2026-05-03T09:09:21.73Z</time></trkpt><trkpt lat="42.2892367" lon="13.7514"><ele>382.0</ele><time>2026-05-03T09:09:22.729Z</time></trkpt><trkpt lat="42.289295" lon="13.751245"><ele>382.0</ele><time>2026-05-03T09:09:23.73Z</time></trkpt><trkpt lat="42.2893567" lon="13.751085"><ele>382.0</ele><time>2026-05-03T09:09:24.729Z</time></trkpt><trkpt lat="42.289415" lon="13.7509333"><ele>382.0</ele><time>2026-05-03T09:09:25.73Z</time></trkpt><trkpt lat="42.28947" lon="13.750775"><ele>382.0</ele><time>2026-05-03T09:09:26.729Z</time></trkpt><trkpt lat="42.2895333" lon="13.7506383"><ele>382.0</ele><time>2026-05-03T09:09:27.73Z</time></trkpt><trkpt lat="42.2896017" lon="13.7505017"><ele>382.0</ele><time>2026-05-03T09:09:28.729Z</time></trkpt><trkpt lat="42.2896833" lon="13.75037"><ele>382.0</ele><time>2026-05-03T09:09:29.73Z</time></trkpt><trkpt lat="42.289765" lon="13.7502567"><ele>382.0</ele><time>2026-05-03T09:09:30.73Z</time></trkpt><trkpt lat="42.289845" lon="13.75014"><ele>381.75</ele><time>2026-05-03T09:09:31.73Z</time></trkpt><trkpt lat="42.289925" lon="13.7500083"><ele>381.5</ele><time>2026-05-03T09:09:32.73Z</time></trkpt><trkpt lat="42.2899967" lon="13.749865"><ele>381.25</ele><time>2026-05-03T09:09:33.73Z</time></trkpt><trkpt lat="42.2900533" lon="13.7497183"><ele>381.0</ele><time>2026-05-03T09:09:34.73Z</time></trkpt><trkpt lat="42.2901167" lon="13.74957"><ele>381.0</ele><time>2026-05-03T09:09:35.73Z</time></trkpt><trkpt lat="42.2901683" lon="13.7494233"><ele>381.0</ele><time>2026-05-03T09:09:36.729Z</time></trkpt><trkpt lat="42.2902383" lon="13.74927"><ele>381.0</ele><time>2026-05-03T09:09:37.728Z</time></trkpt><trkpt lat="42.2903117" lon="13.7491417"><ele>381.0</ele><time>2026-05-03T09:09:38.728Z</time></trkpt><trkpt lat="42.2904017" lon="13.74901"><ele>381.0</ele><time>2026-05-03T09:09:39.729Z</time></trkpt><trkpt lat="42.2904933" lon="13.7488867"><ele>381.0</ele><time>2026-05-03T09:09:40.729Z</time></trkpt><trkpt lat="42.2905733" lon="13.7487533"><ele>381.0</ele><time>2026-05-03T09:09:41.728Z</time></trkpt><trkpt lat="42.29065" lon="13.748615"><ele>381.0</ele><time>2026-05-03T09:09:42.728Z</time></trkpt><trkpt lat="42.29073" lon="13.7484833"><ele>381.25</ele><time>2026-05-03T09:09:43.729Z</time></trkpt><trkpt lat="42.2908117" lon="13.7483517"><ele>381.5</ele><time>2026-05-03T09:09:44.729Z</time></trkpt><trkpt lat="42.2908917" lon="13.7482133"><ele>381.75</ele><time>2026-05-03T09:09:45.728Z</time></trkpt><trkpt lat="42.2909633" lon="13.7480833"><ele>382.0</ele><time>2026-05-03T09:09:46.728Z</time></trkpt><trkpt lat="42.29104" lon="13.7479617"><ele>382.0</ele><time>2026-05-03T09:09:47.728Z</time></trkpt><trkpt lat="42.2911117" lon="13.7478217"><ele>382.0</ele><time>2026-05-03T09:09:48.729Z</time></trkpt><trkpt lat="42.291185" lon="13.7476917"><ele>382.0</ele><time>2026-05-03T09:09:49.728Z</time></trkpt><trkpt lat="42.2912533" lon="13.747565"><ele>382.0</ele><time>2026-05-03T09:09:50.729Z</time></trkpt><trkpt lat="42.2913217" lon="13.7474517"><ele>382.40000000000003</ele><time>2026-05-03T09:09:51.728Z</time></trkpt><trkpt lat="42.29138" lon="13.7473483"><ele>382.8</ele><time>2026-05-03T09:09:52.729Z</time></trkpt><trkpt lat="42.29143" lon="13.74725"><ele>383.2</ele><time>2026-05-03T09:09:53.728Z</time></trkpt><trkpt lat="42.29149" lon="13.7471567"><ele>383.6</ele><time>2026-05-03T09:09:54.729Z</time></trkpt><trkpt lat="42.2915517" lon="13.7470717"><ele>384.0</ele><time>2026-05-03T09:09:55.729Z</time></trkpt><trkpt lat="42.29161" lon="13.746975"><ele>384.5</ele><time>2026-05-03T09:09:56.729Z</time></trkpt><trkpt lat="42.2916633" lon="13.7468733"><ele>385.0</ele><time>2026-05-03T09:09:57.729Z</time></trkpt><trkpt lat="42.2917033" lon="13.7467683"><ele>385.5</ele><time>2026-05-03T09:09:58.729Z</time></trkpt><trkpt lat="42.2917467" lon="13.7466767"><ele>386.0</ele><time>2026-05-03T09:09:59.729Z</time></trkpt><trkpt lat="42.291795" lon="13.7466033"><ele>386.5</ele><time>2026-05-03T09:10:00.729Z</time></trkpt><trkpt lat="42.2918833" lon="13.7465533"><ele>387.0</ele><time>2026-05-03T09:10:02.729Z</time></trkpt><trkpt lat="42.2919867" lon="13.7466383"><ele>387.0</ele><time>2026-05-03T09:10:04.728Z</time></trkpt><trkpt lat="42.2920667" lon="13.7467283"><ele>387.0</ele><time>2026-05-03T09:10:05.728Z</time></trkpt><trkpt lat="42.29216" lon="13.7468233"><ele>387.0</ele><time>2026-05-03T09:10:06.729Z</time></trkpt><trkpt lat="42.2922733" lon="13.746905"><ele>387.0</ele><time>2026-05-03T09:10:07.729Z</time></trkpt><trkpt lat="42.29239" lon="13.7469767"><ele>385.75</ele><time>2026-05-03T09:10:08.729Z</time></trkpt><trkpt lat="42.2924983" lon="13.7470483"><ele>384.5</ele><time>2026-05-03T09:10:09.729Z</time></trkpt><trkpt lat="42.292615" lon="13.7471233"><ele>383.25</ele><time>2026-05-03T09:10:10.729Z</time></trkpt><trkpt lat="42.2927367" lon="13.74719"><ele>382.0</ele><time>2026-05-03T09:10:11.729Z</time></trkpt><trkpt lat="42.2928683" lon="13.74724"><ele>382.0</ele><time>2026-05-03T09:10:12.729Z</time></trkpt><trkpt lat="42.293" lon="13.74729"><ele>382.0</ele><time>2026-05-03T09:10:13.729Z</time></trkpt><trkpt lat="42.2931283" lon="13.747345"><ele>382.0</ele><time>2026-05-03T09:10:14.728Z</time></trkpt><trkpt lat="42.293245" lon="13.7474067"><ele>382.0</ele><time>2026-05-03T09:10:15.729Z</time></trkpt><trkpt lat="42.2933483" lon="13.7474933"><ele>382.0</ele><time>2026-05-03T09:10:16.729Z</time></trkpt><trkpt lat="42.2934533" lon="13.74758"><ele>382.0</ele><time>2026-05-03T09:10:17.729Z</time></trkpt><trkpt lat="42.2935717" lon="13.7476533"><ele>382.0</ele><time>2026-05-03T09:10:18.729Z</time></trkpt><trkpt lat="42.2936883" lon="13.747725"><ele>382.0</ele><time>2026-05-03T09:10:19.729Z</time></trkpt><trkpt lat="42.293815" lon="13.7477983"><ele>383.25</ele><time>2026-05-03T09:10:20.729Z</time></trkpt><trkpt lat="42.29394" lon="13.7478567"><ele>384.5</ele><time>2026-05-03T09:10:21.729Z</time></trkpt><trkpt lat="42.294065" lon="13.7479217"><ele>385.75</ele><time>2026-05-03T09:10:22.729Z</time></trkpt><trkpt lat="42.2941933" lon="13.74798"><ele>387.0</ele><time>2026-05-03T09:10:23.728Z</time></trkpt><trkpt lat="42.2943117" lon="13.74805"><ele>387.0</ele><time>2026-05-03T09:10:24.728Z</time></trkpt><trkpt lat="42.294435" lon="13.74811"><ele>387.0</ele><time>2026-05-03T09:10:25.728Z</time></trkpt><trkpt lat="42.2945483" lon="13.748195"><ele>387.0</ele><time>2026-05-03T09:10:26.729Z</time></trkpt><trkpt lat="42.2946683" lon="13.7482717"><ele>387.0</ele><time>2026-05-03T09:10:27.729Z</time></trkpt><trkpt lat="42.2947883" lon="13.7483417"><ele>388.3333333333333</ele><time>2026-05-03T09:10:28.729Z</time></trkpt><trkpt lat="42.294895" lon="13.7484083"><ele>389.66666666666663</ele><time>2026-05-03T09:10:29.728Z</time></trkpt><trkpt lat="42.2949833" lon="13.748475"><ele>391.0</ele><time>2026-05-03T09:10:30.728Z</time></trkpt><trkpt lat="42.29506" lon="13.748535"><ele>392.3333333333333</ele><time>2026-05-03T09:10:31.729Z</time></trkpt><trkpt lat="42.2951167" lon="13.748575"><ele>393.66666666666663</ele><time>2026-05-03T09:10:32.729Z</time></trkpt><trkpt lat="42.2951667" lon="13.7486367"><ele>395.0</ele><time>2026-05-03T09:10:34.729Z</time></trkpt><trkpt lat="42.2952267" lon="13.7486933"><ele>395.4</ele><time>2026-05-03T09:10:37.728Z</time></trkpt><trkpt lat="42.2952867" lon="13.7487283"><ele>395.8</ele><time>2026-05-03T09:10:38.728Z</time></trkpt><trkpt lat="42.2953717" lon="13.7487667"><ele>396.20000000000005</ele><time>2026-05-03T09:10:39.728Z</time></trkpt><trkpt lat="42.29547" lon="13.7488083"><ele>396.6</ele><time>2026-05-03T09:10:40.729Z</time></trkpt><trkpt lat="42.29558" lon="13.74886"><ele>397.0</ele><time>2026-05-03T09:10:41.729Z</time></trkpt><trkpt lat="42.29569" lon="13.7489167"><ele>399.40000000000003</ele><time>2026-05-03T09:10:42.729Z</time></trkpt><trkpt lat="42.2958017" lon="13.7489717"><ele>401.8</ele><time>2026-05-03T09:10:43.728Z</time></trkpt><trkpt lat="42.2959083" lon="13.7490367"><ele>404.2</ele><time>2026-05-03T09:10:44.728Z</time></trkpt><trkpt lat="42.2959933" lon="13.74911"><ele>406.6</ele><time>2026-05-03T09:10:45.729Z</time></trkpt><trkpt lat="42.2960633" lon="13.749215"><ele>409.0</ele><time>2026-05-03T09:10:46.728Z</time></trkpt><trkpt lat="42.2961267" lon="13.7493233"><ele>411.0</ele><time>2026-05-03T09:10:47.729Z</time></trkpt><trkpt lat="42.2961917" lon="13.7494233"><ele>413.0</ele><time>2026-05-03T09:10:48.729Z</time></trkpt><trkpt lat="42.2962683" lon="13.7495067"><ele>415.0</ele><time>2026-05-03T09:10:49.728Z</time></trkpt><trkpt lat="42.2963517" lon="13.7495733"><ele>417.0</ele><time>2026-05-03T09:10:50.729Z</time></trkpt><trkpt lat="42.296455" lon="13.749635"><ele>419.0</ele><time>2026-05-03T09:10:51.729Z</time></trkpt><trkpt lat="42.296555" lon="13.7496917"><ele>420.0</ele><time>2026-05-03T09:10:52.728Z</time></trkpt><trkpt lat="42.2966433" lon="13.7497583"><ele>421.0</ele><time>2026-05-03T09:10:53.728Z</time></trkpt><trkpt lat="42.296725" lon="13.7498283"><ele>422.0</ele><time>2026-05-03T09:10:54.728Z</time></trkpt><trkpt lat="42.2968" lon="13.74991"><ele>423.0</ele><time>2026-05-03T09:10:55.728Z</time></trkpt><trkpt lat="42.296865" lon="13.7499933"><ele>424.0</ele><time>2026-05-03T09:10:56.728Z</time></trkpt><trkpt lat="42.29692" lon="13.7500783"><ele>424.0</ele><time>2026-05-03T09:10:57.728Z</time></trkpt><trkpt lat="42.2969733" lon="13.7501567"><ele>424.0</ele><time>2026-05-03T09:10:58.729Z</time></trkpt><trkpt lat="42.2970183" lon="13.7502283"><ele>424.0</ele><time>2026-05-03T09:10:59.728Z</time></trkpt><trkpt lat="42.2970733" lon="13.75028"><ele>424.0</ele><time>2026-05-03T09:11:00.728Z</time></trkpt><trkpt lat="42.2971317" lon="13.7503183"><ele>424.0</ele><time>2026-05-03T09:11:01.729Z</time></trkpt><trkpt lat="42.2972183" lon="13.750365"><ele>424.0</ele><time>2026-05-03T09:11:03.728Z</time></trkpt><trkpt lat="42.29728" lon="13.750415"><ele>424.0</ele><time>2026-05-03T09:11:07.728Z</time></trkpt><trkpt lat="42.2973417" lon="13.7504467"><ele>424.2</ele><time>2026-05-03T09:11:09.729Z</time></trkpt><trkpt lat="42.297415" lon="13.7504883"><ele>424.4</ele><time>2026-05-03T09:11:12.728Z</time></trkpt><trkpt lat="42.29749" lon="13.7504183"><ele>424.6</ele><time>2026-05-03T09:11:30.729Z</time></trkpt><trkpt lat="42.2975717" lon="13.75028"><ele>424.8</ele><time>2026-05-03T09:11:32.728Z</time></trkpt><trkpt lat="42.297625" lon="13.7501917"><ele>425.0</ele><time>2026-05-03T09:11:33.729Z</time></trkpt><trkpt lat="42.2976817" lon="13.75012"><ele>425.49999999999994</ele><time>2026-05-03T09:11:34.728Z</time></trkpt><trkpt lat="42.29774" lon="13.75008"><ele>426.0</ele><time>2026-05-03T09:11:35.728Z</time></trkpt><trkpt lat="42.29781" lon="13.7500483"><ele>426.5</ele><time>2026-05-03T09:11:36.728Z</time></trkpt><trkpt lat="42.2979017" lon="13.7500317"><ele>427.0</ele><time>2026-05-03T09:11:37.729Z</time></trkpt><trkpt lat="42.2979933" lon="13.750015"><ele>427.49999999999994</ele><time>2026-05-03T09:11:38.728Z</time></trkpt><trkpt lat="42.2980883" lon="13.7500133"><ele>428.0</ele><time>2026-05-03T09:11:39.729Z</time></trkpt><trkpt lat="42.298185" lon="13.7500183"><ele>428.4</ele><time>2026-05-03T09:11:40.729Z</time></trkpt><trkpt lat="42.2982733" lon="13.7500283"><ele>428.79999999999995</ele><time>2026-05-03T09:11:41.729Z</time></trkpt><trkpt lat="42.2983633" lon="13.7500433"><ele>429.2</ele><time>2026-05-03T09:11:42.728Z</time></trkpt><trkpt lat="42.2984533" lon="13.7500483"><ele>429.6</ele><time>2026-05-03T09:11:43.728Z</time></trkpt><trkpt lat="42.2985483" lon="13.75004"><ele>430.0</ele><time>2026-05-03T09:11:44.729Z</time></trkpt><trkpt lat="42.2986383" lon="13.750015"><ele>430.0</ele><time>2026-05-03T09:11:45.729Z</time></trkpt><trkpt lat="42.2987433" lon="13.7499783"><ele>430.0</ele><time>2026-05-03T09:11:46.729Z</time></trkpt><trkpt lat="42.2988533" lon="13.749945"><ele>430.0</ele><time>2026-05-03T09:11:47.728Z</time></trkpt><trkpt lat="42.29896" lon="13.7499117"><ele>430.0</ele><time>2026-05-03T09:11:48.729Z</time></trkpt><trkpt lat="42.29906" lon="13.7498833"><ele>430.0</ele><time>2026-05-03T09:11:49.729Z</time></trkpt><trkpt lat="42.299165" lon="13.749865"><ele>429.4</ele><time>2026-05-03T09:11:50.728Z</time></trkpt><trkpt lat="42.29928" lon="13.7498383"><ele>428.8</ele><time>2026-05-03T09:11:51.729Z</time></trkpt><trkpt lat="42.2993917" lon="13.74983"><ele>428.20000000000005</ele><time>2026-05-03T09:11:52.729Z</time></trkpt><trkpt lat="42.2994983" lon="13.7498267"><ele>427.6</ele><time>2026-05-03T09:11:53.729Z</time></trkpt><trkpt lat="42.2996" lon="13.74982"><ele>427.0</ele><time>2026-05-03T09:11:54.728Z</time></trkpt><trkpt lat="42.2997017" lon="13.7497867"><ele>426.0</ele><time>2026-05-03T09:11:55.729Z</time></trkpt><trkpt lat="42.2998017" lon="13.74974"><ele>425.0</ele><time>2026-05-03T09:11:56.728Z</time></trkpt><trkpt lat="42.29991" lon="13.74968"><ele>424.0</ele><time>2026-05-03T09:11:57.729Z</time></trkpt><trkpt lat="42.30002" lon="13.7496333"><ele>423.0</ele><time>2026-05-03T09:11:58.729Z</time></trkpt><trkpt lat="42.30013" lon="13.7495933"><ele>423.0</ele><time>2026-05-03T09:11:59.729Z</time></trkpt><trkpt lat="42.3002467" lon="13.74956"><ele>423.0</ele><time>2026-05-03T09:12:00.729Z</time></trkpt><trkpt lat="42.3003533" lon="13.749525"><ele>423.0</ele><time>2026-05-03T09:12:01.729Z</time></trkpt><trkpt lat="42.3004483" lon="13.74949"><ele>423.0</ele><time>2026-05-03T09:12:02.729Z</time></trkpt><trkpt lat="42.30055" lon="13.7494533"><ele>423.0</ele><time>2026-05-03T09:12:03.729Z</time></trkpt><trkpt lat="42.30066" lon="13.7494317"><ele>421.5</ele><time>2026-05-03T09:12:04.729Z</time></trkpt><trkpt lat="42.3007667" lon="13.7494017"><ele>420.0</ele><time>2026-05-03T09:12:05.728Z</time></trkpt><trkpt lat="42.30089" lon="13.74937"><ele>418.5</ele><time>2026-05-03T09:12:06.729Z</time></trkpt><trkpt lat="42.3010167" lon="13.7493517"><ele>417.0</ele><time>2026-05-03T09:12:07.729Z</time></trkpt><trkpt lat="42.3011333" lon="13.749315"><ele>419.8</ele><time>2026-05-03T09:12:08.728Z</time></trkpt><trkpt lat="42.3012383" lon="13.749265"><ele>422.6</ele><time>2026-05-03T09:12:09.729Z</time></trkpt><trkpt lat="42.301335" lon="13.7492033"><ele>425.40000000000003</ele><time>2026-05-03T09:12:10.728Z</time></trkpt><trkpt lat="42.301415" lon="13.74912"><ele>428.20000000000005</ele><time>2026-05-03T09:12:11.729Z</time></trkpt><trkpt lat="42.301485" lon="13.7490217"><ele>431.0</ele><time>2026-05-03T09:12:12.729Z</time></trkpt><trkpt lat="42.3015483" lon="13.7489183"><ele>431.0</ele><time>2026-05-03T09:12:13.729Z</time></trkpt><trkpt lat="42.3016017" lon="13.748815"><ele>431.0</ele><time>2026-05-03T09:12:14.728Z</time></trkpt><trkpt lat="42.301665" lon="13.7487233"><ele>431.0</ele><time>2026-05-03T09:12:15.729Z</time></trkpt><trkpt lat="42.3017367" lon="13.7486367"><ele>431.0</ele><time>2026-05-03T09:12:16.728Z</time></trkpt><trkpt lat="42.3018" lon="13.74855"><ele>431.0</ele><time>2026-05-03T09:12:17.728Z</time></trkpt><trkpt lat="42.30187" lon="13.7484583"><ele>434.8</ele><time>2026-05-03T09:12:18.729Z</time></trkpt><trkpt lat="42.3019417" lon="13.7483867"><ele>438.6</ele><time>2026-05-03T09:12:19.729Z</time></trkpt><trkpt lat="42.302025" lon="13.7483267"><ele>442.4</ele><time>2026-05-03T09:12:20.729Z</time></trkpt><trkpt lat="42.3021083" lon="13.7482617"><ele>446.2</ele><time>2026-05-03T09:12:21.729Z</time></trkpt><trkpt lat="42.3021967" lon="13.7481967"><ele>450.0</ele><time>2026-05-03T09:12:22.728Z</time></trkpt><trkpt lat="42.302285" lon="13.7481283"><ele>450.0</ele><time>2026-05-03T09:12:23.729Z</time></trkpt><trkpt lat="42.3023767" lon="13.7480567"><ele>450.0</ele><time>2026-05-03T09:12:24.729Z</time></trkpt><trkpt lat="42.30247" lon="13.7479933"><ele>450.0</ele><time>2026-05-03T09:12:25.728Z</time></trkpt><trkpt lat="42.3025617" lon="13.7479383"><ele>450.0</ele><time>2026-05-03T09:12:26.729Z</time></trkpt><trkpt lat="42.30265" lon="13.7479017"><ele>450.0</ele><time>2026-05-03T09:12:27.729Z</time></trkpt><trkpt lat="42.3027417" lon="13.7478733"><ele>450.0</ele><time>2026-05-03T09:12:28.729Z</time></trkpt><trkpt lat="42.3028317" lon="13.74786"><ele>450.0</ele><time>2026-05-03T09:12:29.728Z</time></trkpt><trkpt lat="42.3029283" lon="13.7478567"><ele>450.0</ele><time>2026-05-03T09:12:30.728Z</time></trkpt><trkpt lat="42.3030333" lon="13.7478667"><ele>450.0</ele><time>2026-05-03T09:12:31.729Z</time></trkpt><trkpt lat="42.3031433" lon="13.7478817"><ele>450.0</ele><time>2026-05-03T09:12:32.728Z</time></trkpt><trkpt lat="42.303245" lon="13.7479033"><ele>451.2</ele><time>2026-05-03T09:12:33.728Z</time></trkpt><trkpt lat="42.3033567" lon="13.7479283"><ele>452.4</ele><time>2026-05-03T09:12:34.729Z</time></trkpt><trkpt lat="42.303465" lon="13.7479533"><ele>453.6</ele><time>2026-05-03T09:12:35.728Z</time></trkpt><trkpt lat="42.30357" lon="13.7479733"><ele>454.8</ele><time>2026-05-03T09:12:36.729Z</time></trkpt><trkpt lat="42.3036733" lon="13.7479883"><ele>456.0</ele><time>2026-05-03T09:12:37.729Z</time></trkpt><trkpt lat="42.3037683" lon="13.7480067"><ele>456.0</ele><time>2026-05-03T09:12:38.729Z</time></trkpt><trkpt lat="42.3038633" lon="13.74802"><ele>456.0</ele><time>2026-05-03T09:12:39.728Z</time></trkpt><trkpt lat="42.3039567" lon="13.748045"><ele>456.0</ele><time>2026-05-03T09:12:40.728Z</time></trkpt><trkpt lat="42.3040483" lon="13.7480867"><ele>456.0</ele><time>2026-05-03T09:12:41.729Z</time></trkpt><trkpt lat="42.3041467" lon="13.7481433"><ele>456.0</ele><time>2026-05-03T09:12:42.729Z</time></trkpt><trkpt lat="42.3042433" lon="13.748205"><ele>459.20000000000005</ele><time>2026-05-03T09:12:43.729Z</time></trkpt><trkpt lat="42.3043417" lon="13.7482617"><ele>462.40000000000003</ele><time>2026-05-03T09:12:44.728Z</time></trkpt><trkpt lat="42.30444" lon="13.7483083"><ele>465.6</ele><time>2026-05-03T09:12:45.729Z</time></trkpt><trkpt lat="42.3045367" lon="13.7483617"><ele>468.8</ele><time>2026-05-03T09:12:46.729Z</time></trkpt><trkpt lat="42.304625" lon="13.7483867"><ele>472.0</ele><time>2026-05-03T09:12:47.728Z</time></trkpt><trkpt lat="42.3047117" lon="13.7483967"><ele>474.50000000000006</ele><time>2026-05-03T09:12:48.729Z</time></trkpt><trkpt lat="42.3048067" lon="13.7483833"><ele>477.0</ele><time>2026-05-03T09:12:49.729Z</time></trkpt><trkpt lat="42.3049017" lon="13.7483617"><ele>479.5</ele><time>2026-05-03T09:12:50.728Z</time></trkpt><trkpt lat="42.3049983" lon="13.7483417"><ele>482.0</ele><time>2026-05-03T09:12:51.729Z</time></trkpt><trkpt lat="42.3050817" lon="13.748345"><ele>484.50000000000006</ele><time>2026-05-03T09:12:52.729Z</time></trkpt><trkpt lat="42.3051517" lon="13.7483617"><ele>487.0</ele><time>2026-05-03T09:12:53.729Z</time></trkpt><trkpt lat="42.3052567" lon="13.74846"><ele>487.00000000000006</ele><time>2026-05-03T09:12:55.729Z</time></trkpt><trkpt lat="42.3053233" lon="13.7484933"><ele>487.0</ele><time>2026-05-03T09:12:56.728Z</time></trkpt><trkpt lat="42.3053933" lon="13.7485"><ele>487.0</ele><time>2026-05-03T09:12:57.729Z</time></trkpt><trkpt lat="42.3054583" lon="13.7485067"><ele>487.0</ele><time>2026-05-03T09:12:58.728Z</time></trkpt><trkpt lat="42.3055667" lon="13.7485"><ele>487.00000000000006</ele><time>2026-05-03T09:13:00.729Z</time></trkpt><trkpt lat="42.305665" lon="13.7484917"><ele>487.0</ele><time>2026-05-03T09:13:02.728Z</time></trkpt><trkpt lat="42.305765" lon="13.74846"><ele>488.20000000000005</ele><time>2026-05-03T09:13:04.728Z</time></trkpt><trkpt lat="42.3058583" lon="13.7483967"><ele>489.40000000000003</ele><time>2026-05-03T09:13:06.729Z</time></trkpt><trkpt lat="42.3059617" lon="13.7483333"><ele>490.59999999999997</ele><time>2026-05-03T09:13:08.728Z</time></trkpt><trkpt lat="42.3060833" lon="13.7482717"><ele>491.79999999999995</ele><time>2026-05-03T09:13:10.728Z</time></trkpt><trkpt lat="42.3061617" lon="13.7482367"><ele>493.0</ele><time>2026-05-03T09:13:11.728Z</time></trkpt><trkpt lat="42.3062467" lon="13.748205"><ele>493.0</ele><time>2026-05-03T09:13:12.729Z</time></trkpt><trkpt lat="42.3063433" lon="13.7481683"><ele>492.99999999999994</ele><time>2026-05-03T09:13:13.729Z</time></trkpt><trkpt lat="42.30644" lon="13.7481267"><ele>492.99999999999994</ele><time>2026-05-03T09:13:14.728Z</time></trkpt><trkpt lat="42.306535" lon="13.7480767"><ele>493.0</ele><time>2026-05-03T09:13:15.728Z</time></trkpt><trkpt lat="42.3066367" lon="13.7480283"><ele>493.0</ele><time>2026-05-03T09:13:16.729Z</time></trkpt><trkpt lat="42.306735" lon="13.747985"><ele>492.50000000000006</ele><time>2026-05-03T09:13:17.729Z</time></trkpt><trkpt lat="42.3068217" lon="13.7479617"><ele>492.0</ele><time>2026-05-03T09:13:18.728Z</time></trkpt><trkpt lat="42.3069083" lon="13.747945"><ele>491.5</ele><time>2026-05-03T09:13:19.727Z</time></trkpt><trkpt lat="42.3069917" lon="13.7479283"><ele>491.0</ele><time>2026-05-03T09:13:20.727Z</time></trkpt><trkpt lat="42.30706" lon="13.7479133"><ele>490.50000000000006</ele><time>2026-05-03T09:13:21.727Z</time></trkpt><trkpt lat="42.3071317" lon="13.7479017"><ele>490.0</ele><time>2026-05-03T09:13:22.728Z</time></trkpt><trkpt lat="42.30721" lon="13.747905"><ele>489.2</ele><time>2026-05-03T09:13:23.728Z</time></trkpt><trkpt lat="42.3073" lon="13.74791"><ele>488.4</ele><time>2026-05-03T09:13:24.728Z</time></trkpt><trkpt lat="42.307395" lon="13.7479117"><ele>487.6</ele><time>2026-05-03T09:13:25.727Z</time></trkpt><trkpt lat="42.307495" lon="13.7479233"><ele>486.8</ele><time>2026-05-03T09:13:26.728Z</time></trkpt><trkpt lat="42.3075933" lon="13.7479267"><ele>486.0</ele><time>2026-05-03T09:13:27.728Z</time></trkpt><trkpt lat="42.3076933" lon="13.74792"><ele>486.0</ele><time>2026-05-03T09:13:28.728Z</time></trkpt><trkpt lat="42.3077933" lon="13.747905"><ele>486.0</ele><time>2026-05-03T09:13:29.728Z</time></trkpt><trkpt lat="42.3078883" lon="13.7478967"><ele>486.0</ele><time>2026-05-03T09:13:30.727Z</time></trkpt><trkpt lat="42.3079817" lon="13.747885"><ele>486.0</ele><time>2026-05-03T09:13:31.728Z</time></trkpt><trkpt lat="42.3080683" lon="13.7478833"><ele>486.0</ele><time>2026-05-03T09:13:32.727Z</time></trkpt><trkpt lat="42.3081517" lon="13.7478833"><ele>486.1666666666667</ele><time>2026-05-03T09:13:33.727Z</time></trkpt><trkpt lat="42.3082317" lon="13.74786"><ele>486.33333333333337</ele><time>2026-05-03T09:13:34.727Z</time></trkpt><trkpt lat="42.3083117" lon="13.747835"><ele>486.5</ele><time>2026-05-03T09:13:35.728Z</time></trkpt><trkpt lat="42.3083883" lon="13.747815"><ele>486.6666666666667</ele><time>2026-05-03T09:13:36.727Z</time></trkpt><trkpt lat="42.3084617" lon="13.7478"><ele>486.83333333333337</ele><time>2026-05-03T09:13:37.728Z</time></trkpt><trkpt lat="42.30854" lon="13.7477983"><ele>487.0</ele><time>2026-05-03T09:13:38.728Z</time></trkpt><trkpt lat="42.30862" lon="13.7478033"><ele>487.00000000000006</ele><time>2026-05-03T09:13:39.728Z</time></trkpt><trkpt lat="42.3087" lon="13.74781"><ele>487.0</ele><time>2026-05-03T09:13:40.727Z</time></trkpt><trkpt lat="42.3087733" lon="13.7478133"><ele>487.0</ele><time>2026-05-03T09:13:41.728Z</time></trkpt><trkpt lat="42.3088367" lon="13.7477983"><ele>487.0</ele><time>2026-05-03T09:13:42.727Z</time></trkpt><trkpt lat="42.3089333" lon="13.74772"><ele>487.00000000000006</ele><time>2026-05-03T09:13:44.728Z</time></trkpt><trkpt lat="42.3089667" lon="13.7476467"><ele>487.0</ele><time>2026-05-03T09:13:45.727Z</time></trkpt><trkpt lat="42.3089917" lon="13.7475433"><ele>488.6</ele><time>2026-05-03T09:13:46.728Z</time></trkpt><trkpt lat="42.30901" lon="13.7474233"><ele>490.20000000000005</ele><time>2026-05-03T09:13:47.728Z</time></trkpt><trkpt lat="42.3090417" lon="13.747305"><ele>491.8</ele><time>2026-05-03T09:13:48.727Z</time></trkpt><trkpt lat="42.3090867" lon="13.747205"><ele>493.4</ele><time>2026-05-03T09:13:49.728Z</time></trkpt><trkpt lat="42.3091417" lon="13.7471083"><ele>495.0</ele><time>2026-05-03T09:13:50.728Z</time></trkpt><trkpt lat="42.3091983" lon="13.7470067"><ele>495.0</ele><time>2026-05-03T09:13:51.727Z</time></trkpt><trkpt lat="42.3092617" lon="13.74689"><ele>495.0</ele><time>2026-05-03T09:13:52.728Z</time></trkpt><trkpt lat="42.3093283" lon="13.7467783"><ele>495.0</ele><time>2026-05-03T09:13:53.728Z</time></trkpt><trkpt lat="42.30939" lon="13.7466833"><ele>495.0</ele><time>2026-05-03T09:13:54.727Z</time></trkpt><trkpt lat="42.30945" lon="13.7465983"><ele>495.0</ele><time>2026-05-03T09:13:55.727Z</time></trkpt><trkpt lat="42.3095033" lon="13.7465267"><ele>498.5</ele><time>2026-05-03T09:13:56.728Z</time></trkpt><trkpt lat="42.30955" lon="13.7464683"><ele>502.0</ele><time>2026-05-03T09:13:57.727Z</time></trkpt><trkpt lat="42.30963" lon="13.7464117"><ele>505.5</ele><time>2026-05-03T09:13:59.727Z</time></trkpt><trkpt lat="42.3097" lon="13.7464033"><ele>509.0</ele><time>2026-05-03T09:14:01.727Z</time></trkpt><trkpt lat="42.3097683" lon="13.7464733"><ele>512.5</ele><time>2026-05-03T09:14:03.728Z</time></trkpt><trkpt lat="42.3098167" lon="13.7465367"><ele>516.0</ele><time>2026-05-03T09:14:04.728Z</time></trkpt><trkpt lat="42.30988" lon="13.7466067"><ele>516.0</ele><time>2026-05-03T09:14:05.728Z</time></trkpt><trkpt lat="42.3099533" lon="13.7466717"><ele>516.0</ele><time>2026-05-03T09:14:06.728Z</time></trkpt><trkpt lat="42.3100267" lon="13.74672"><ele>516.0</ele><time>2026-05-03T09:14:07.728Z</time></trkpt><trkpt lat="42.3101017" lon="13.746775"><ele>516.0</ele><time>2026-05-03T09:14:08.728Z</time></trkpt><trkpt lat="42.3101833" lon="13.7468233"><ele>516.0</ele><time>2026-05-03T09:14:09.727Z</time></trkpt><trkpt lat="42.3102667" lon="13.7468683"><ele>516.0</ele><time>2026-05-03T09:14:10.728Z</time></trkpt><trkpt lat="42.310355" lon="13.746915"><ele>511.8</ele><time>2026-05-03T09:14:11.728Z</time></trkpt><trkpt lat="42.31044" lon="13.746965"><ele>507.6</ele><time>2026-05-03T09:14:12.728Z</time></trkpt><trkpt lat="42.3105233" lon="13.7470083"><ele>503.4</ele><time>2026-05-03T09:14:13.727Z</time></trkpt><trkpt lat="42.3106067" lon="13.7470533"><ele>499.2</ele><time>2026-05-03T09:14:14.727Z</time></trkpt><trkpt lat="42.3107" lon="13.74709"><ele>495.0</ele><time>2026-05-03T09:14:15.728Z</time></trkpt><trkpt lat="42.3107883" lon="13.747135"><ele>495.0</ele><time>2026-05-03T09:14:16.728Z</time></trkpt><trkpt lat="42.31087" lon="13.7471833"><ele>495.0</ele><time>2026-05-03T09:14:17.728Z</time></trkpt><trkpt lat="42.3109567" lon="13.7472283"><ele>495.0</ele><time>2026-05-03T09:14:18.728Z</time></trkpt><trkpt lat="42.3110367" lon="13.7472717"><ele>495.0</ele><time>2026-05-03T09:14:19.728Z</time></trkpt><trkpt lat="42.3111217" lon="13.74731"><ele>495.0</ele><time>2026-05-03T09:14:20.728Z</time></trkpt><trkpt lat="42.3112033" lon="13.7473467"><ele>495.0</ele><time>2026-05-03T09:14:21.728Z</time></trkpt><trkpt lat="42.3112867" lon="13.747385"><ele>495.0</ele><time>2026-05-03T09:14:22.727Z</time></trkpt><trkpt lat="42.3113733" lon="13.74742"><ele>495.0</ele><time>2026-05-03T09:14:23.727Z</time></trkpt><trkpt lat="42.3114583" lon="13.74746"><ele>495.0</ele><time>2026-05-03T09:14:24.728Z</time></trkpt><trkpt lat="42.31154" lon="13.7474967"><ele>495.0</ele><time>2026-05-03T09:14:25.727Z</time></trkpt><trkpt lat="42.3116183" lon="13.7475367"><ele>495.0</ele><time>2026-05-03T09:14:26.727Z</time></trkpt><trkpt lat="42.3116967" lon="13.7475867"><ele>495.0</ele><time>2026-05-03T09:14:27.728Z</time></trkpt><trkpt lat="42.31177" lon="13.7476283"><ele>496.6666666666667</ele><time>2026-05-03T09:14:28.727Z</time></trkpt><trkpt lat="42.3118533" lon="13.74767"><ele>498.33333333333337</ele><time>2026-05-03T09:14:29.727Z</time></trkpt><trkpt lat="42.3119283" lon="13.7477067"><ele>500.0</ele><time>2026-05-03T09:14:30.728Z</time></trkpt><trkpt lat="42.3120133" lon="13.74774"><ele>501.6666666666667</ele><time>2026-05-03T09:14:31.728Z</time></trkpt><trkpt lat="42.3120933" lon="13.7477767"><ele>503.33333333333337</ele><time>2026-05-03T09:14:32.728Z</time></trkpt><trkpt lat="42.3121683" lon="13.7478167"><ele>505.0</ele><time>2026-05-03T09:14:33.727Z</time></trkpt><trkpt lat="42.31225" lon="13.7478483"><ele>500.57142857142856</ele><time>2026-05-03T09:14:34.728Z</time></trkpt><trkpt lat="42.3123167" lon="13.747885"><ele>496.1428571428571</ele><time>2026-05-03T09:14:35.728Z</time></trkpt><trkpt lat="42.3123783" lon="13.74792"><ele>491.71428571428567</ele><time>2026-05-03T09:14:36.728Z</time></trkpt><trkpt lat="42.3124433" lon="13.7479517"><ele>487.2857142857142</ele><time>2026-05-03T09:14:37.728Z</time></trkpt><trkpt lat="42.3125117" lon="13.747985"><ele>482.85714285714283</ele><time>2026-05-03T09:14:38.728Z</time></trkpt><trkpt lat="42.3125783" lon="13.74802"><ele>478.42857142857133</ele><time>2026-05-03T09:14:39.727Z</time></trkpt><trkpt lat="42.3126433" lon="13.7480567"><ele>473.99999999999994</ele><time>2026-05-03T09:14:40.728Z</time></trkpt><trkpt lat="42.312705" lon="13.7480867"><ele>474.0</ele><time>2026-05-03T09:14:41.728Z</time></trkpt><trkpt lat="42.3127733" lon="13.74813"><ele>474.0</ele><time>2026-05-03T09:14:42.727Z</time></trkpt><trkpt lat="42.3128417" lon="13.7481667"><ele>474.0</ele><time>2026-05-03T09:14:43.728Z</time></trkpt><trkpt lat="42.3129133" lon="13.7482183"><ele>474.0</ele><time>2026-05-03T09:14:44.727Z</time></trkpt><trkpt lat="42.3129867" lon="13.7482717"><ele>474.0</ele><time>2026-05-03T09:14:45.728Z</time></trkpt><trkpt lat="42.31306" lon="13.7483217"><ele>474.0</ele><time>2026-05-03T09:14:46.727Z</time></trkpt><trkpt lat="42.3131367" lon="13.748365"><ele>473.6666666666667</ele><time>2026-05-03T09:14:47.727Z</time></trkpt><trkpt lat="42.3132183" lon="13.7484083"><ele>473.33333333333337</ele><time>2026-05-03T09:14:48.727Z</time></trkpt><trkpt lat="42.3133017" lon="13.7484433"><ele>473.0</ele><time>2026-05-03T09:14:49.728Z</time></trkpt><trkpt lat="42.3133833" lon="13.7484733"><ele>472.6666666666667</ele><time>2026-05-03T09:14:50.728Z</time></trkpt><trkpt lat="42.3134517" lon="13.7485083"><ele>472.33333333333337</ele><time>2026-05-03T09:14:51.727Z</time></trkpt><trkpt lat="42.3135217" lon="13.7485517"><ele>472.0</ele><time>2026-05-03T09:14:52.728Z</time></trkpt><trkpt lat="42.3135867" lon="13.7485883"><ele>468.1666666666667</ele><time>2026-05-03T09:14:53.728Z</time></trkpt><trkpt lat="42.3136583" lon="13.7486083"><ele>464.33333333333337</ele><time>2026-05-03T09:14:54.727Z</time></trkpt><trkpt lat="42.3137283" lon="13.7486167"><ele>460.5</ele><time>2026-05-03T09:14:55.727Z</time></trkpt><trkpt lat="42.313805" lon="13.7486183"><ele>456.66666666666663</ele><time>2026-05-03T09:14:56.728Z</time></trkpt><trkpt lat="42.3139017" lon="13.7486133"><ele>452.8333333333333</ele><time>2026-05-03T09:14:57.728Z</time></trkpt><trkpt lat="42.31401" lon="13.7486167"><ele>449.0</ele><time>2026-05-03T09:14:58.727Z</time></trkpt><trkpt lat="42.3141167" lon="13.74861"><ele>449.0</ele><time>2026-05-03T09:14:59.728Z</time></trkpt><trkpt lat="42.3142267" lon="13.7486"><ele>449.0</ele><time>2026-05-03T09:15:00.728Z</time></trkpt><trkpt lat="42.3143367" lon="13.7485983"><ele>449.0</ele><time>2026-05-03T09:15:01.728Z</time></trkpt><trkpt lat="42.3144367" lon="13.74861"><ele>449.0</ele><time>2026-05-03T09:15:02.728Z</time></trkpt><trkpt lat="42.31453" lon="13.74861"><ele>449.0</ele><time>2026-05-03T09:15:03.728Z</time></trkpt><trkpt lat="42.31462" lon="13.7486133"><ele>449.0</ele><time>2026-05-03T09:15:04.727Z</time></trkpt><trkpt lat="42.3147017" lon="13.7486183"><ele>449.0</ele><time>2026-05-03T09:15:05.727Z</time></trkpt><trkpt lat="42.3147883" lon="13.7486233"><ele>449.0</ele><time>2026-05-03T09:15:06.728Z</time></trkpt><trkpt lat="42.314885" lon="13.7486233"><ele>449.0</ele><time>2026-05-03T09:15:07.728Z</time></trkpt><trkpt lat="42.314985" lon="13.7486317"><ele>449.0</ele><time>2026-05-03T09:15:08.728Z</time></trkpt><trkpt lat="42.31509" lon="13.7486283"><ele>448.8333333333333</ele><time>2026-05-03T09:15:09.728Z</time></trkpt><trkpt lat="42.3151833" lon="13.7486383"><ele>448.66666666666663</ele><time>2026-05-03T09:15:10.728Z</time></trkpt><trkpt lat="42.315275" lon="13.748645"><ele>448.5</ele><time>2026-05-03T09:15:11.728Z</time></trkpt><trkpt lat="42.3153583" lon="13.7486417"><ele>448.33333333333337</ele><time>2026-05-03T09:15:12.728Z</time></trkpt><trkpt lat="42.3154367" lon="13.7486367"><ele>448.1666666666667</ele><time>2026-05-03T09:15:13.727Z</time></trkpt><trkpt lat="42.31552" lon="13.74862"><ele>448.0</ele><time>2026-05-03T09:15:14.727Z</time></trkpt><trkpt lat="42.3156033" lon="13.748615"><ele>448.59999999999997</ele><time>2026-05-03T09:15:15.728Z</time></trkpt><trkpt lat="42.3156867" lon="13.74861"><ele>449.19999999999993</ele><time>2026-05-03T09:15:16.728Z</time></trkpt><trkpt lat="42.315775" lon="13.748595"><ele>449.8</ele><time>2026-05-03T09:15:17.728Z</time></trkpt><trkpt lat="42.3158767" lon="13.74861"><ele>450.4</ele><time>2026-05-03T09:15:18.728Z</time></trkpt><trkpt lat="42.3159717" lon="13.7486233"><ele>451.0</ele><time>2026-05-03T09:15:19.728Z</time></trkpt><trkpt lat="42.3160583" lon="13.7486383"><ele>451.0</ele><time>2026-05-03T09:15:20.728Z</time></trkpt><trkpt lat="42.3161383" lon="13.7486517"><ele>451.0</ele><time>2026-05-03T09:15:21.728Z</time></trkpt><trkpt lat="42.3162183" lon="13.7486633"><ele>451.0</ele><time>2026-05-03T09:15:22.727Z</time></trkpt><trkpt lat="42.3162883" lon="13.7486733"><ele>451.0</ele><time>2026-05-03T09:15:23.727Z</time></trkpt><trkpt lat="42.316355" lon="13.748685"><ele>451.0</ele><time>2026-05-03T09:15:24.727Z</time></trkpt><trkpt lat="42.3164183" lon="13.7487133"><ele>451.0</ele><time>2026-05-03T09:15:25.727Z</time></trkpt><trkpt lat="42.3164783" lon="13.7487617"><ele>451.0</ele><time>2026-05-03T09:15:26.727Z</time></trkpt><trkpt lat="42.3165433" lon="13.748815"><ele>452.00000000000006</ele><time>2026-05-03T09:15:27.727Z</time></trkpt><trkpt lat="42.3166083" lon="13.74888"><ele>453.0</ele><time>2026-05-03T09:15:28.727Z</time></trkpt><trkpt lat="42.3166733" lon="13.748965"><ele>454.0</ele><time>2026-05-03T09:15:29.728Z</time></trkpt><trkpt lat="42.3167333" lon="13.74905"><ele>455.0</ele><time>2026-05-03T09:15:30.728Z</time></trkpt><trkpt lat="42.316795" lon="13.749125"><ele>456.00000000000006</ele><time>2026-05-03T09:15:31.728Z</time></trkpt><trkpt lat="42.3168567" lon="13.7491933"><ele>457.0</ele><time>2026-05-03T09:15:32.727Z</time></trkpt><trkpt lat="42.3169067" lon="13.7492683"><ele>457.00000000000006</ele><time>2026-05-03T09:15:33.728Z</time></trkpt><trkpt lat="42.316965" lon="13.7493283"><ele>457.0</ele><time>2026-05-03T09:15:34.727Z</time></trkpt><trkpt lat="42.3170283" lon="13.74938"><ele>457.0</ele><time>2026-05-03T09:15:35.728Z</time></trkpt><trkpt lat="42.3171083" lon="13.749435"><ele>457.0</ele><time>2026-05-03T09:15:36.727Z</time></trkpt><trkpt lat="42.3171917" lon="13.74949"><ele>457.00000000000006</ele><time>2026-05-03T09:15:37.728Z</time></trkpt><trkpt lat="42.3172817" lon="13.749565"><ele>457.0</ele><time>2026-05-03T09:15:38.727Z</time></trkpt><trkpt lat="42.3173767" lon="13.7496367"><ele>456.20000000000005</ele><time>2026-05-03T09:15:39.728Z</time></trkpt><trkpt lat="42.31746" lon="13.7496967"><ele>455.40000000000003</ele><time>2026-05-03T09:15:40.728Z</time></trkpt><trkpt lat="42.3175333" lon="13.74975"><ele>454.59999999999997</ele><time>2026-05-03T09:15:41.727Z</time></trkpt><trkpt lat="42.317595" lon="13.7497917"><ele>453.79999999999995</ele><time>2026-05-03T09:15:42.728Z</time></trkpt><trkpt lat="42.3177" lon="13.749845"><ele>453.0</ele><time>2026-05-03T09:15:44.728Z</time></trkpt><trkpt lat="42.31781" lon="13.7499467"><ele>453.0</ele><time>2026-05-03T09:15:46.728Z</time></trkpt><trkpt lat="42.317895" lon="13.7500167"><ele>453.0</ele><time>2026-05-03T09:15:47.727Z</time></trkpt><trkpt lat="42.3179817" lon="13.7500783"><ele>453.0</ele><time>2026-05-03T09:15:48.728Z</time></trkpt><trkpt lat="42.318065" lon="13.7501367"><ele>453.0</ele><time>2026-05-03T09:15:49.728Z</time></trkpt><trkpt lat="42.3181233" lon="13.7501817"><ele>453.0</ele><time>2026-05-03T09:15:50.727Z</time></trkpt><trkpt lat="42.3181967" lon="13.75024"><ele>453.0</ele><time>2026-05-03T09:15:52.727Z</time></trkpt><trkpt lat="42.3182017" lon="13.7503283"><ele>452.5</ele><time>2026-05-03T09:15:54.728Z</time></trkpt><trkpt lat="42.3180983" lon="13.75043"><ele>452.0</ele><time>2026-05-03T09:15:56.727Z</time></trkpt><trkpt lat="42.3180033" lon="13.7505383"><ele>451.5</ele><time>2026-05-03T09:15:58.727Z</time></trkpt><trkpt lat="42.3179283" lon="13.7506867"><ele>451.0</ele><time>2026-05-03T09:16:00.728Z</time></trkpt><trkpt lat="42.31789" lon="13.750765"><ele>449.6666666666667</ele><time>2026-05-03T09:16:01.728Z</time></trkpt><trkpt lat="42.3178467" lon="13.7508433"><ele>448.33333333333337</ele><time>2026-05-03T09:16:02.728Z</time></trkpt><trkpt lat="42.317805" lon="13.7509233"><ele>447.0</ele><time>2026-05-03T09:16:03.728Z</time></trkpt><trkpt lat="42.3177633" lon="13.751005"><ele>445.66666666666663</ele><time>2026-05-03T09:16:04.727Z</time></trkpt><trkpt lat="42.3177317" lon="13.75109"><ele>444.3333333333333</ele><time>2026-05-03T09:16:05.728Z</time></trkpt><trkpt lat="42.3177" lon="13.751165"><ele>443.0</ele><time>2026-05-03T09:16:06.728Z</time></trkpt><trkpt lat="42.31767" lon="13.7513117"><ele>441.99999999999994</ele><time>2026-05-03T09:16:08.728Z</time></trkpt><trkpt lat="42.3176483" lon="13.7514217"><ele>441.0</ele><time>2026-05-03T09:16:10.728Z</time></trkpt><trkpt lat="42.3176183" lon="13.7515117"><ele>440.0</ele><time>2026-05-03T09:16:15.728Z</time></trkpt><trkpt lat="42.317715" lon="13.75156"><ele>439.0</ele><time>2026-05-03T09:16:18.727Z</time></trkpt><trkpt lat="42.31779" lon="13.7515667"><ele>437.99999999999994</ele><time>2026-05-03T09:16:19.728Z</time></trkpt><trkpt lat="42.31787" lon="13.7515717"><ele>437.0</ele><time>2026-05-03T09:16:20.728Z</time></trkpt><trkpt lat="42.3179433" lon="13.7515583"><ele>437.0</ele><time>2026-05-03T09:16:21.728Z</time></trkpt><trkpt lat="42.318015" lon="13.7515267"><ele>437.00000000000006</ele><time>2026-05-03T09:16:22.728Z</time></trkpt><trkpt lat="42.3180933" lon="13.7514817"><ele>437.00000000000006</ele><time>2026-05-03T09:16:23.728Z</time></trkpt><trkpt lat="42.3181867" lon="13.75143"><ele>437.0</ele><time>2026-05-03T09:16:24.727Z</time></trkpt><trkpt lat="42.318285" lon="13.75138"><ele>437.0</ele><time>2026-05-03T09:16:25.728Z</time></trkpt><trkpt lat="42.3183983" lon="13.751335"><ele>437.6</ele><time>2026-05-03T09:16:26.728Z</time></trkpt><trkpt lat="42.3185083" lon="13.7513017"><ele>438.20000000000005</ele><time>2026-05-03T09:16:27.728Z</time></trkpt><trkpt lat="42.31859" lon="13.7512817"><ele>438.8</ele><time>2026-05-03T09:16:28.727Z</time></trkpt><trkpt lat="42.3186683" lon="13.751295"><ele>439.4</ele><time>2026-05-03T09:16:30.727Z</time></trkpt><trkpt lat="42.3187817" lon="13.7513383"><ele>440.0</ele><time>2026-05-03T09:16:37.727Z</time></trkpt><trkpt lat="42.3188517" lon="13.7513533"><ele>440.99999999999994</ele><time>2026-05-03T09:16:38.728Z</time></trkpt><trkpt lat="42.3189383" lon="13.75137"><ele>442.0</ele><time>2026-05-03T09:16:39.728Z</time></trkpt><trkpt lat="42.3190133" lon="13.7513867"><ele>443.0</ele><time>2026-05-03T09:16:40.728Z</time></trkpt><trkpt lat="42.3191217" lon="13.75141"><ele>444.0</ele><time>2026-05-03T09:16:42.728Z</time></trkpt><trkpt lat="42.3191933" lon="13.7514917"><ele>444.99999999999994</ele><time>2026-05-03T09:16:44.728Z</time></trkpt><trkpt lat="42.3192233" lon="13.7515783"><ele>446.0</ele><time>2026-05-03T09:16:45.728Z</time></trkpt><trkpt lat="42.319255" lon="13.751685"><ele>445.99999999999994</ele><time>2026-05-03T09:16:46.728Z</time></trkpt><trkpt lat="42.3192867" lon="13.7517933"><ele>446.0</ele><time>2026-05-03T09:16:47.727Z</time></trkpt><trkpt lat="42.3193283" lon="13.751895"><ele>446.0</ele><time>2026-05-03T09:16:48.728Z</time></trkpt><trkpt lat="42.3193817" lon="13.751985"><ele>446.0</ele><time>2026-05-03T09:16:49.728Z</time></trkpt><trkpt lat="42.31944" lon="13.752085"><ele>445.99999999999994</ele><time>2026-05-03T09:16:50.728Z</time></trkpt><trkpt lat="42.3194917" lon="13.75219"><ele>446.0</ele><time>2026-05-03T09:16:51.728Z</time></trkpt><trkpt lat="42.31954" lon="13.752295"><ele>443.4</ele><time>2026-05-03T09:16:52.727Z</time></trkpt><trkpt lat="42.319575" lon="13.7524083"><ele>440.8</ele><time>2026-05-03T09:16:53.728Z</time></trkpt><trkpt lat="42.3196033" lon="13.7525233"><ele>438.19999999999993</ele><time>2026-05-03T09:16:54.727Z</time></trkpt><trkpt lat="42.319625" lon="13.752635"><ele>435.59999999999997</ele><time>2026-05-03T09:16:55.728Z</time></trkpt><trkpt lat="42.3196483" lon="13.752755"><ele>433.0</ele><time>2026-05-03T09:16:56.727Z</time></trkpt><trkpt lat="42.3196817" lon="13.752875"><ele>433.79999999999995</ele><time>2026-05-03T09:16:57.727Z</time></trkpt><trkpt lat="42.3197167" lon="13.7529983"><ele>434.59999999999997</ele><time>2026-05-03T09:16:58.727Z</time></trkpt><trkpt lat="42.3197567" lon="13.7531217"><ele>435.40000000000003</ele><time>2026-05-03T09:16:59.727Z</time></trkpt><trkpt lat="42.3197967" lon="13.7532567"><ele>436.20000000000005</ele><time>2026-05-03T09:17:00.726Z</time></trkpt><trkpt lat="42.3198317" lon="13.753385"><ele>437.0</ele><time>2026-05-03T09:17:01.727Z</time></trkpt><trkpt lat="42.3198667" lon="13.7535317"><ele>435.8</ele><time>2026-05-03T09:17:02.727Z</time></trkpt><trkpt lat="42.319905" lon="13.753675"><ele>434.6</ele><time>2026-05-03T09:17:03.727Z</time></trkpt><trkpt lat="42.3199483" lon="13.7538167"><ele>433.40000000000003</ele><time>2026-05-03T09:17:04.726Z</time></trkpt><trkpt lat="42.3199833" lon="13.7539483"><ele>432.20000000000005</ele><time>2026-05-03T09:17:05.727Z</time></trkpt><trkpt lat="42.3200083" lon="13.7540617"><ele>431.0</ele><time>2026-05-03T09:17:06.727Z</time></trkpt><trkpt lat="42.3200383" lon="13.754155"><ele>431.0</ele><time>2026-05-03T09:17:07.726Z</time></trkpt><trkpt lat="42.32008" lon="13.7542467"><ele>431.0</ele><time>2026-05-03T09:17:08.726Z</time></trkpt><trkpt lat="42.3201333" lon="13.7543467"><ele>431.0</ele><time>2026-05-03T09:17:09.727Z</time></trkpt><trkpt lat="42.3201817" lon="13.7544617"><ele>431.0</ele><time>2026-05-03T09:17:10.726Z</time></trkpt><trkpt lat="42.32023" lon="13.7545717"><ele>431.0</ele><time>2026-05-03T09:17:11.727Z</time></trkpt><trkpt lat="42.3202783" lon="13.7546833"><ele>430.99999999999994</ele><time>2026-05-03T09:17:12.726Z</time></trkpt><trkpt lat="42.3203133" lon="13.7547867"><ele>431.0</ele><time>2026-05-03T09:17:13.727Z</time></trkpt><trkpt lat="42.3203467" lon="13.7548917"><ele>431.0</ele><time>2026-05-03T09:17:14.726Z</time></trkpt><trkpt lat="42.3203783" lon="13.754985"><ele>431.0</ele><time>2026-05-03T09:17:15.726Z</time></trkpt><trkpt lat="42.3204033" lon="13.7550683"><ele>430.99999999999994</ele><time>2026-05-03T09:17:16.726Z</time></trkpt><trkpt lat="42.3204383" lon="13.7552033"><ele>431.0</ele><time>2026-05-03T09:17:18.727Z</time></trkpt><trkpt lat="42.3204667" lon="13.755325"><ele>431.0</ele><time>2026-05-03T09:17:20.726Z</time></trkpt><trkpt lat="42.3205483" lon="13.7554233"><ele>431.0</ele><time>2026-05-03T09:17:22.727Z</time></trkpt><trkpt lat="42.320605" lon="13.7554817"><ele>431.0</ele><time>2026-05-03T09:17:23.727Z</time></trkpt><trkpt lat="42.3206733" lon="13.7555467"><ele>431.0</ele><time>2026-05-03T09:17:24.727Z</time></trkpt><trkpt lat="42.3207483" lon="13.7556133"><ele>431.0</ele><time>2026-05-03T09:17:25.726Z</time></trkpt><trkpt lat="42.3208283" lon="13.7556917"><ele>431.99999999999994</ele><time>2026-05-03T09:17:26.727Z</time></trkpt><trkpt lat="42.3209067" lon="13.75576"><ele>433.0</ele><time>2026-05-03T09:17:27.726Z</time></trkpt><trkpt lat="42.3209833" lon="13.755815"><ele>434.0</ele><time>2026-05-03T09:17:28.726Z</time></trkpt><trkpt lat="42.3210533" lon="13.75587"><ele>435.0</ele><time>2026-05-03T09:17:29.727Z</time></trkpt><trkpt lat="42.32112" lon="13.755935"><ele>435.99999999999994</ele><time>2026-05-03T09:17:30.727Z</time></trkpt><trkpt lat="42.321165" lon="13.7560133"><ele>437.0</ele><time>2026-05-03T09:17:31.727Z</time></trkpt><trkpt lat="42.3212017" lon="13.7561067"><ele>437.8</ele><time>2026-05-03T09:17:32.727Z</time></trkpt><trkpt lat="42.3212433" lon="13.75619"><ele>438.6</ele><time>2026-05-03T09:17:33.727Z</time></trkpt><trkpt lat="42.3212933" lon="13.7562717"><ele>439.40000000000003</ele><time>2026-05-03T09:17:34.727Z</time></trkpt><trkpt lat="42.3213617" lon="13.756345"><ele>440.20000000000005</ele><time>2026-05-03T09:17:35.726Z</time></trkpt><trkpt lat="42.32145" lon="13.7564217"><ele>441.0</ele><time>2026-05-03T09:17:36.727Z</time></trkpt><trkpt lat="42.3215383" lon="13.75651"><ele>442.20000000000005</ele><time>2026-05-03T09:17:37.726Z</time></trkpt><trkpt lat="42.321625" lon="13.7565883"><ele>443.40000000000003</ele><time>2026-05-03T09:17:38.727Z</time></trkpt><trkpt lat="42.3217167" lon="13.7566717"><ele>444.6</ele><time>2026-05-03T09:17:39.726Z</time></trkpt><trkpt lat="42.321805" lon="13.7567417"><ele>445.8</ele><time>2026-05-03T09:17:40.726Z</time></trkpt><trkpt lat="42.3218883" lon="13.7568167"><ele>447.0</ele><time>2026-05-03T09:17:41.727Z</time></trkpt><trkpt lat="42.32196" lon="13.7568933"><ele>447.6666666666667</ele><time>2026-05-03T09:17:42.726Z</time></trkpt><trkpt lat="42.322035" lon="13.7569483"><ele>448.33333333333337</ele><time>2026-05-03T09:17:43.726Z</time></trkpt><trkpt lat="42.3221133" lon="13.7569817"><ele>449.0</ele><time>2026-05-03T09:17:44.727Z</time></trkpt><trkpt lat="42.3221933" lon="13.757015"><ele>449.6666666666667</ele><time>2026-05-03T09:17:45.727Z</time></trkpt><trkpt lat="42.3222633" lon="13.7570867"><ele>450.33333333333337</ele><time>2026-05-03T09:17:46.726Z</time></trkpt><trkpt lat="42.3223417" lon="13.7571717"><ele>451.0</ele><time>2026-05-03T09:17:47.727Z</time></trkpt><trkpt lat="42.3224133" lon="13.7572733"><ele>452.4</ele><time>2026-05-03T09:17:48.726Z</time></trkpt><trkpt lat="42.3224617" lon="13.7573717"><ele>453.8</ele><time>2026-05-03T09:17:49.727Z</time></trkpt><trkpt lat="42.3225083" lon="13.757475"><ele>455.19999999999993</ele><time>2026-05-03T09:17:50.726Z</time></trkpt><trkpt lat="42.3225483" lon="13.7575917"><ele>456.59999999999997</ele><time>2026-05-03T09:17:51.726Z</time></trkpt><trkpt lat="42.3225783" lon="13.7577283"><ele>458.0</ele><time>2026-05-03T09:17:52.727Z</time></trkpt><trkpt lat="42.32262" lon="13.7578583"><ele>458.59999999999997</ele><time>2026-05-03T09:17:53.727Z</time></trkpt><trkpt lat="42.322655" lon="13.7579783"><ele>459.19999999999993</ele><time>2026-05-03T09:17:54.727Z</time></trkpt><trkpt lat="42.3226883" lon="13.7580717"><ele>459.8</ele><time>2026-05-03T09:17:55.727Z</time></trkpt><trkpt lat="42.3227617" lon="13.7581833"><ele>460.4</ele><time>2026-05-03T09:17:57.727Z</time></trkpt><trkpt lat="42.32287" lon="13.7582333"><ele>461.0</ele><time>2026-05-03T09:17:59.727Z</time></trkpt><trkpt lat="42.3229383" lon="13.7582417"><ele>460.99999999999994</ele><time>2026-05-03T09:18:00.727Z</time></trkpt><trkpt lat="42.323015" lon="13.758255"><ele>461.0</ele><time>2026-05-03T09:18:01.726Z</time></trkpt><trkpt lat="42.323095" lon="13.758285"><ele>461.0</ele><time>2026-05-03T09:18:02.726Z</time></trkpt><trkpt lat="42.3231783" lon="13.75831"><ele>461.0</ele><time>2026-05-03T09:18:03.727Z</time></trkpt><trkpt lat="42.3232567" lon="13.758345"><ele>460.99999999999994</ele><time>2026-05-03T09:18:04.727Z</time></trkpt><trkpt lat="42.3233333" lon="13.7583867"><ele>461.0</ele><time>2026-05-03T09:18:05.727Z</time></trkpt><trkpt lat="42.323425" lon="13.7584233"><ele>463.0</ele><time>2026-05-03T09:18:06.727Z</time></trkpt><trkpt lat="42.3235133" lon="13.7584717"><ele>465.0</ele><time>2026-05-03T09:18:07.726Z</time></trkpt><trkpt lat="42.3236017" lon="13.7585267"><ele>467.0</ele><time>2026-05-03T09:18:08.726Z</time></trkpt><trkpt lat="42.3236883" lon="13.75858"><ele>469.0</ele><time>2026-05-03T09:18:09.727Z</time></trkpt><trkpt lat="42.32377" lon="13.758645"><ele>471.0</ele><time>2026-05-03T09:18:10.726Z</time></trkpt><trkpt lat="42.323835" lon="13.7587383"><ele>471.6</ele><time>2026-05-03T09:18:11.727Z</time></trkpt><trkpt lat="42.323885" lon="13.758845"><ele>472.20000000000005</ele><time>2026-05-03T09:18:12.726Z</time></trkpt><trkpt lat="42.3239233" lon="13.75896"><ele>472.79999999999995</ele><time>2026-05-03T09:18:13.727Z</time></trkpt><trkpt lat="42.3239533" lon="13.7590883"><ele>473.4</ele><time>2026-05-03T09:18:14.727Z</time></trkpt><trkpt lat="42.32397" lon="13.759215"><ele>474.0</ele><time>2026-05-03T09:18:15.726Z</time></trkpt><trkpt lat="42.3239617" lon="13.7593333"><ele>476.1666666666667</ele><time>2026-05-03T09:18:16.726Z</time></trkpt><trkpt lat="42.3239717" lon="13.7594583"><ele>478.33333333333337</ele><time>2026-05-03T09:18:17.727Z</time></trkpt><trkpt lat="42.32399" lon="13.75957"><ele>480.5</ele><time>2026-05-03T09:18:18.726Z</time></trkpt><trkpt lat="42.3240267" lon="13.7596617"><ele>482.6666666666667</ele><time>2026-05-03T09:18:19.726Z</time></trkpt><trkpt lat="42.3240517" lon="13.75975"><ele>484.83333333333337</ele><time>2026-05-03T09:18:20.727Z</time></trkpt><trkpt lat="42.3240867" lon="13.7598417"><ele>487.0</ele><time>2026-05-03T09:18:21.727Z</time></trkpt><trkpt lat="42.3241233" lon="13.759925"><ele>487.00000000000006</ele><time>2026-05-03T09:18:22.727Z</time></trkpt><trkpt lat="42.324165" lon="13.7600067"><ele>487.0</ele><time>2026-05-03T09:18:23.726Z</time></trkpt><trkpt lat="42.324215" lon="13.7600867"><ele>487.0</ele><time>2026-05-03T09:18:24.727Z</time></trkpt><trkpt lat="42.324265" lon="13.7601517"><ele>487.0</ele><time>2026-05-03T09:18:25.727Z</time></trkpt><trkpt lat="42.3243517" lon="13.7602117"><ele>487.00000000000006</ele><time>2026-05-03T09:18:27.727Z</time></trkpt><trkpt lat="42.3243867" lon="13.7601267"><ele>487.0</ele><time>2026-05-03T09:18:30.726Z</time></trkpt><trkpt lat="42.32431" lon="13.7600383"><ele>487.00000000000006</ele><time>2026-05-03T09:18:32.727Z</time></trkpt><trkpt lat="42.3242883" lon="13.7599217"><ele>487.0</ele><time>2026-05-03T09:18:34.727Z</time></trkpt><trkpt lat="42.32436" lon="13.7598283"><ele>487.0</ele><time>2026-05-03T09:18:36.727Z</time></trkpt><trkpt lat="42.3244767" lon="13.7597567"><ele>487.0</ele><time>2026-05-03T09:18:38.727Z</time></trkpt><trkpt lat="42.324535" lon="13.75971"><ele>487.00000000000006</ele><time>2026-05-03T09:18:39.727Z</time></trkpt><trkpt lat="42.32459" lon="13.7596633"><ele>487.0</ele><time>2026-05-03T09:18:40.727Z</time></trkpt><trkpt lat="42.3246467" lon="13.7596017"><ele>487.00000000000006</ele><time>2026-05-03T09:18:41.727Z</time></trkpt><trkpt lat="42.324705" lon="13.7595333"><ele>487.0</ele><time>2026-05-03T09:18:42.727Z</time></trkpt><trkpt lat="42.3247617" lon="13.7594633"><ele>487.0</ele><time>2026-05-03T09:18:43.727Z</time></trkpt><trkpt lat="42.324815" lon="13.7593833"><ele>487.0</ele><time>2026-05-03T09:18:44.727Z</time></trkpt><trkpt lat="42.324865" lon="13.7592767"><ele>487.00000000000006</ele><time>2026-05-03T09:18:45.727Z</time></trkpt><trkpt lat="42.3249083" lon="13.75917"><ele>487.0</ele><time>2026-05-03T09:18:46.727Z</time></trkpt><trkpt lat="42.3249333" lon="13.7590717"><ele>487.6666666666667</ele><time>2026-05-03T09:18:47.726Z</time></trkpt><trkpt lat="42.32494" lon="13.7589717"><ele>488.33333333333337</ele><time>2026-05-03T09:18:48.727Z</time></trkpt><trkpt lat="42.3249467" lon="13.7588867"><ele>489.0</ele><time>2026-05-03T09:18:49.727Z</time></trkpt><trkpt lat="42.3249817" lon="13.7587867"><ele>489.66666666666663</ele><time>2026-05-03T09:18:51.727Z</time></trkpt><trkpt lat="42.325035" lon="13.7588383"><ele>490.3333333333333</ele><time>2026-05-03T09:18:53.727Z</time></trkpt><trkpt lat="42.3250283" lon="13.7589933"><ele>491.0</ele><time>2026-05-03T09:18:55.727Z</time></trkpt><trkpt lat="42.324995" lon="13.7591017"><ele>490.99999999999994</ele><time>2026-05-03T09:18:56.726Z</time></trkpt><trkpt lat="42.3249683" lon="13.7591933"><ele>491.0</ele><time>2026-05-03T09:18:57.726Z</time></trkpt><trkpt lat="42.3249633" lon="13.7592783"><ele>491.0</ele><time>2026-05-03T09:18:58.726Z</time></trkpt><trkpt lat="42.3249617" lon="13.759435"><ele>491.0</ele><time>2026-05-03T09:19:00.727Z</time></trkpt><trkpt lat="42.3249767" lon="13.7595533"><ele>490.99999999999994</ele><time>2026-05-03T09:19:02.727Z</time></trkpt><trkpt lat="42.3249583" lon="13.7596617"><ele>491.0</ele><time>2026-05-03T09:19:05.727Z</time></trkpt><trkpt lat="42.324925" lon="13.7597567"><ele>495.0</ele><time>2026-05-03T09:19:10.727Z</time></trkpt><trkpt lat="42.32497" lon="13.7598583"><ele>495.0</ele><time>2026-05-03T09:19:14.727Z</time></trkpt></trkseg><trkseg><trkpt lat="42.32506" lon="13.7597867"><ele>495.0</ele><time>2026-05-03T09:29:44.724Z</time></trkpt><trkpt lat="42.3251467" lon="13.7596517"><ele>495.0</ele><time>2026-05-03T09:29:56.723Z</time></trkpt><trkpt lat="42.3252317" lon="13.759675"><ele>495.0</ele><time>2026-05-03T09:30:01.724Z</time></trkpt><trkpt lat="42.3253017" lon="13.7597767"><ele>495.0</ele><time>2026-05-03T09:30:03.724Z</time></trkpt><trkpt lat="42.3253383" lon="13.7598483"><ele>495.0</ele><time>2026-05-03T09:30:04.724Z</time></trkpt><trkpt lat="42.3253967" lon="13.7599717"><ele>495.0</ele><time>2026-05-03T09:30:06.724Z</time></trkpt><trkpt lat="42.325455" lon="13.7600867"><ele>495.0</ele><time>2026-05-03T09:30:08.723Z</time></trkpt><trkpt lat="42.325495" lon="13.7601967"><ele>495.0</ele><time>2026-05-03T09:30:10.723Z</time></trkpt><trkpt lat="42.325585" lon="13.7603467"><ele>495.0</ele><time>2026-05-03T09:30:13.723Z</time></trkpt><trkpt lat="42.3256167" lon="13.760435"><ele>495.0</ele><time>2026-05-03T09:30:16.723Z</time></trkpt><trkpt lat="42.325535" lon="13.7605067"><ele>495.8333333333333</ele><time>2026-05-03T09:30:26.723Z</time></trkpt><trkpt lat="42.3254367" lon="13.7605217"><ele>496.66666666666663</ele><time>2026-05-03T09:30:28.724Z</time></trkpt><trkpt lat="42.3253733" lon="13.7605183"><ele>497.5</ele><time>2026-05-03T09:30:29.724Z</time></trkpt><trkpt lat="42.3253017" lon="13.7605167"><ele>498.3333333333333</ele><time>2026-05-03T09:30:30.723Z</time></trkpt><trkpt lat="42.32523" lon="13.76052"><ele>499.16666666666663</ele><time>2026-05-03T09:30:31.724Z</time></trkpt><trkpt lat="42.325165" lon="13.76052"><ele>500.0</ele><time>2026-05-03T09:30:32.724Z</time></trkpt><trkpt lat="42.3250583" lon="13.7605067"><ele>500.0</ele><time>2026-05-03T09:30:34.724Z</time></trkpt><trkpt lat="42.3249767" lon="13.76053"><ele>500.0</ele><time>2026-05-03T09:30:36.723Z</time></trkpt><trkpt lat="42.3248917" lon="13.760645"><ele>500.0</ele><time>2026-05-03T09:30:38.724Z</time></trkpt><trkpt lat="42.3247917" lon="13.76077"><ele>500.0</ele><time>2026-05-03T09:30:40.724Z</time></trkpt><trkpt lat="42.324725" lon="13.760815"><ele>500.0</ele><time>2026-05-03T09:30:41.723Z</time></trkpt><trkpt lat="42.3246417" lon="13.7608617"><ele>500.0</ele><time>2026-05-03T09:30:42.724Z</time></trkpt><trkpt lat="42.3245417" lon="13.7608867"><ele>500.0</ele><time>2026-05-03T09:30:43.724Z</time></trkpt><trkpt lat="42.3244467" lon="13.7608883"><ele>500.0</ele><time>2026-05-03T09:30:44.723Z</time></trkpt><trkpt lat="42.32434" lon="13.76087"><ele>500.0</ele><time>2026-05-03T09:30:45.723Z</time></trkpt><trkpt lat="42.324225" lon="13.7608467"><ele>500.0</ele><time>2026-05-03T09:30:46.723Z</time></trkpt><trkpt lat="42.3241167" lon="13.76083"><ele>500.0</ele><time>2026-05-03T09:30:47.723Z</time></trkpt><trkpt lat="42.3239983" lon="13.7608317"><ele>500.0</ele><time>2026-05-03T09:30:48.723Z</time></trkpt><trkpt lat="42.3238733" lon="13.7608167"><ele>500.0</ele><time>2026-05-03T09:30:49.724Z</time></trkpt><trkpt lat="42.32375" lon="13.760825"><ele>500.0</ele><time>2026-05-03T09:30:50.724Z</time></trkpt><trkpt lat="42.3236333" lon="13.7608217"><ele>499.75</ele><time>2026-05-03T09:30:51.723Z</time></trkpt><trkpt lat="42.3235217" lon="13.7608167"><ele>499.5</ele><time>2026-05-03T09:30:52.724Z</time></trkpt><trkpt lat="42.32341" lon="13.7608217"><ele>499.25</ele><time>2026-05-03T09:30:53.723Z</time></trkpt><trkpt lat="42.3232917" lon="13.7608267"><ele>499.0</ele><time>2026-05-03T09:30:54.723Z</time></trkpt><trkpt lat="42.3231667" lon="13.7608617"><ele>498.5</ele><time>2026-05-03T09:30:55.724Z</time></trkpt><trkpt lat="42.3230517" lon="13.760895"><ele>498.0</ele><time>2026-05-03T09:30:56.724Z</time></trkpt><trkpt lat="42.3229417" lon="13.7609583"><ele>497.5</ele><time>2026-05-03T09:30:57.723Z</time></trkpt><trkpt lat="42.3228317" lon="13.7610433"><ele>497.0</ele><time>2026-05-03T09:30:58.724Z</time></trkpt><trkpt lat="42.3227083" lon="13.761135"><ele>497.0</ele><time>2026-05-03T09:30:59.724Z</time></trkpt><trkpt lat="42.32259" lon="13.76123"><ele>497.0</ele><time>2026-05-03T09:31:00.723Z</time></trkpt><trkpt lat="42.32246" lon="13.7613117"><ele>497.0</ele><time>2026-05-03T09:31:01.724Z</time></trkpt><trkpt lat="42.32232" lon="13.7613983"><ele>497.0</ele><time>2026-05-03T09:31:02.723Z</time></trkpt><trkpt lat="42.322195" lon="13.7614817"><ele>494.8</ele><time>2026-05-03T09:31:03.723Z</time></trkpt><trkpt lat="42.3220783" lon="13.76157"><ele>492.6</ele><time>2026-05-03T09:31:04.724Z</time></trkpt><trkpt lat="42.3219683" lon="13.7616467"><ele>490.40000000000003</ele><time>2026-05-03T09:31:05.724Z</time></trkpt><trkpt lat="42.3218767" lon="13.761715"><ele>488.20000000000005</ele><time>2026-05-03T09:31:06.723Z</time></trkpt><trkpt lat="42.3218017" lon="13.7617667"><ele>486.0</ele><time>2026-05-03T09:31:07.724Z</time></trkpt><trkpt lat="42.3217367" lon="13.7618067"><ele>486.0</ele><time>2026-05-03T09:31:08.724Z</time></trkpt><trkpt lat="42.3216267" lon="13.7617917"><ele>486.0</ele><time>2026-05-03T09:31:10.724Z</time></trkpt><trkpt lat="42.3215667" lon="13.761705"><ele>486.0</ele><time>2026-05-03T09:31:11.723Z</time></trkpt><trkpt lat="42.3215167" lon="13.7616067"><ele>486.0</ele><time>2026-05-03T09:31:12.724Z</time></trkpt><trkpt lat="42.32148" lon="13.7615167"><ele>486.0</ele><time>2026-05-03T09:31:13.723Z</time></trkpt><trkpt lat="42.32145" lon="13.7614333"><ele>486.0</ele><time>2026-05-03T09:31:14.724Z</time></trkpt><trkpt lat="42.32143" lon="13.7613383"><ele>486.0</ele><time>2026-05-03T09:31:15.723Z</time></trkpt><trkpt lat="42.3214167" lon="13.76123"><ele>486.0</ele><time>2026-05-03T09:31:16.724Z</time></trkpt><trkpt lat="42.3214133" lon="13.7611317"><ele>486.0</ele><time>2026-05-03T09:31:17.724Z</time></trkpt><trkpt lat="42.3214067" lon="13.7610433"><ele>486.0</ele><time>2026-05-03T09:31:18.724Z</time></trkpt><trkpt lat="42.3214" lon="13.760955"><ele>486.0</ele><time>2026-05-03T09:31:19.724Z</time></trkpt><trkpt lat="42.3213933" lon="13.7608583"><ele>486.0</ele><time>2026-05-03T09:31:20.723Z</time></trkpt><trkpt lat="42.321375" lon="13.760775"><ele>486.0</ele><time>2026-05-03T09:31:21.724Z</time></trkpt><trkpt lat="42.321335" lon="13.760705"><ele>483.3333333333333</ele><time>2026-05-03T09:31:22.723Z</time></trkpt><trkpt lat="42.32131" lon="13.7606233"><ele>480.66666666666663</ele><time>2026-05-03T09:31:23.724Z</time></trkpt><trkpt lat="42.3212783" lon="13.7604833"><ele>478.0</ele><time>2026-05-03T09:31:25.724Z</time></trkpt><trkpt lat="42.3212533" lon="13.760405"><ele>475.3333333333333</ele><time>2026-05-03T09:31:28.724Z</time></trkpt><trkpt lat="42.32116" lon="13.7604183"><ele>472.66666666666663</ele><time>2026-05-03T09:31:30.723Z</time></trkpt><trkpt lat="42.3210917" lon="13.760475"><ele>470.0</ele><time>2026-05-03T09:31:31.723Z</time></trkpt><trkpt lat="42.3209833" lon="13.7605367"><ele>470.0</ele><time>2026-05-03T09:31:32.723Z</time></trkpt><trkpt lat="42.3208667" lon="13.76061"><ele>470.0</ele><time>2026-05-03T09:31:33.723Z</time></trkpt><trkpt lat="42.320745" lon="13.7606917"><ele>470.0</ele><time>2026-05-03T09:31:34.722Z</time></trkpt><trkpt lat="42.320635" lon="13.760775"><ele>470.0</ele><time>2026-05-03T09:31:35.722Z</time></trkpt><trkpt lat="42.320535" lon="13.760855"><ele>469.2</ele><time>2026-05-03T09:31:36.723Z</time></trkpt><trkpt lat="42.32044" lon="13.7609333"><ele>468.4</ele><time>2026-05-03T09:31:37.723Z</time></trkpt><trkpt lat="42.320345" lon="13.761"><ele>467.6</ele><time>2026-05-03T09:31:38.722Z</time></trkpt><trkpt lat="42.3202483" lon="13.76107"><ele>466.8</ele><time>2026-05-03T09:31:39.723Z</time></trkpt><trkpt lat="42.3201617" lon="13.76117"><ele>466.0</ele><time>2026-05-03T09:31:40.723Z</time></trkpt><trkpt lat="42.3200883" lon="13.76128"><ele>466.0</ele><time>2026-05-03T09:31:41.723Z</time></trkpt><trkpt lat="42.32001" lon="13.7613817"><ele>466.0</ele><time>2026-05-03T09:31:42.723Z</time></trkpt><trkpt lat="42.3199267" lon="13.7614783"><ele>466.0</ele><time>2026-05-03T09:31:43.722Z</time></trkpt><trkpt lat="42.3198417" lon="13.761565"><ele>466.0</ele><time>2026-05-03T09:31:44.723Z</time></trkpt><trkpt lat="42.3197383" lon="13.7616433"><ele>466.0</ele><time>2026-05-03T09:31:45.723Z</time></trkpt><trkpt lat="42.3196383" lon="13.7617233"><ele>465.5</ele><time>2026-05-03T09:31:46.722Z</time></trkpt><trkpt lat="42.319535" lon="13.76181"><ele>465.0</ele><time>2026-05-03T09:31:47.723Z</time></trkpt><trkpt lat="42.3194417" lon="13.7618917"><ele>464.5</ele><time>2026-05-03T09:31:48.723Z</time></trkpt><trkpt lat="42.3193467" lon="13.7619683"><ele>464.0</ele><time>2026-05-03T09:31:49.723Z</time></trkpt><trkpt lat="42.3192383" lon="13.762055"><ele>464.0</ele><time>2026-05-03T09:31:50.723Z</time></trkpt><trkpt lat="42.3191383" lon="13.7621233"><ele>464.0</ele><time>2026-05-03T09:31:51.723Z</time></trkpt><trkpt lat="42.3190283" lon="13.7621983"><ele>464.0</ele><time>2026-05-03T09:31:52.722Z</time></trkpt><trkpt lat="42.3189133" lon="13.7622833"><ele>464.0</ele><time>2026-05-03T09:31:53.723Z</time></trkpt><trkpt lat="42.3188083" lon="13.7623633"><ele>463.75</ele><time>2026-05-03T09:31:54.722Z</time></trkpt><trkpt lat="42.3186883" lon="13.762465"><ele>463.5</ele><time>2026-05-03T09:31:55.723Z</time></trkpt><trkpt lat="42.3185817" lon="13.7625517"><ele>463.25</ele><time>2026-05-03T09:31:56.723Z</time></trkpt><trkpt lat="42.31846" lon="13.7626467"><ele>463.0</ele><time>2026-05-03T09:31:57.723Z</time></trkpt><trkpt lat="42.3183433" lon="13.76275"><ele>463.0</ele><time>2026-05-03T09:31:58.722Z</time></trkpt><trkpt lat="42.318235" lon="13.76285"><ele>463.0</ele><time>2026-05-03T09:31:59.723Z</time></trkpt><trkpt lat="42.3181317" lon="13.7629417"><ele>463.0</ele><time>2026-05-03T09:32:00.722Z</time></trkpt><trkpt lat="42.318025" lon="13.76303"><ele>463.0</ele><time>2026-05-03T09:32:01.722Z</time></trkpt><trkpt lat="42.31791" lon="13.7631367"><ele>462.0</ele><time>2026-05-03T09:32:02.723Z</time></trkpt><trkpt lat="42.317815" lon="13.7632333"><ele>461.0</ele><time>2026-05-03T09:32:03.723Z</time></trkpt><trkpt lat="42.3177283" lon="13.7633367"><ele>460.0</ele><time>2026-05-03T09:32:04.723Z</time></trkpt><trkpt lat="42.3176333" lon="13.7634283"><ele>459.0</ele><time>2026-05-03T09:32:05.722Z</time></trkpt><trkpt lat="42.3175533" lon="13.76355"><ele>459.0</ele><time>2026-05-03T09:32:06.723Z</time></trkpt><trkpt lat="42.31748" lon="13.7637"><ele>459.0</ele><time>2026-05-03T09:32:07.722Z</time></trkpt><trkpt lat="42.3173917" lon="13.7638267"><ele>459.0</ele><time>2026-05-03T09:32:08.723Z</time></trkpt><trkpt lat="42.31731" lon="13.763965"><ele>459.0</ele><time>2026-05-03T09:32:09.722Z</time></trkpt><trkpt lat="42.3172183" lon="13.7641233"><ele>457.33333333333337</ele><time>2026-05-03T09:32:10.723Z</time></trkpt><trkpt lat="42.317125" lon="13.7642833"><ele>455.6666666666667</ele><time>2026-05-03T09:32:11.723Z</time></trkpt><trkpt lat="42.3170383" lon="13.76445"><ele>454.0</ele><time>2026-05-03T09:32:12.722Z</time></trkpt><trkpt lat="42.31695" lon="13.7646133"><ele>454.0</ele><time>2026-05-03T09:32:13.722Z</time></trkpt><trkpt lat="42.31685" lon="13.7647567"><ele>454.0</ele><time>2026-05-03T09:32:14.723Z</time></trkpt><trkpt lat="42.3167417" lon="13.76489"><ele>454.0</ele><time>2026-05-03T09:32:15.723Z</time></trkpt><trkpt lat="42.3166167" lon="13.765005"><ele>454.0</ele><time>2026-05-03T09:32:16.723Z</time></trkpt><trkpt lat="42.3164917" lon="13.76512"><ele>454.75</ele><time>2026-05-03T09:32:17.723Z</time></trkpt><trkpt lat="42.3163633" lon="13.7652183"><ele>455.5</ele><time>2026-05-03T09:32:18.723Z</time></trkpt><trkpt lat="42.316245" lon="13.7653117"><ele>456.25</ele><time>2026-05-03T09:32:19.723Z</time></trkpt><trkpt lat="42.31612" lon="13.765415"><ele>457.0</ele><time>2026-05-03T09:32:20.722Z</time></trkpt><trkpt lat="42.316" lon="13.7655167"><ele>457.0</ele><time>2026-05-03T09:32:21.723Z</time></trkpt><trkpt lat="42.3159" lon="13.7656117"><ele>457.0</ele><time>2026-05-03T09:32:22.722Z</time></trkpt><trkpt lat="42.3158217" lon="13.7657333"><ele>457.0</ele><time>2026-05-03T09:32:23.723Z</time></trkpt><trkpt lat="42.3157617" lon="13.7658967"><ele>457.0</ele><time>2026-05-03T09:32:24.722Z</time></trkpt><trkpt lat="42.3157033" lon="13.7660633"><ele>458.0</ele><time>2026-05-03T09:32:25.723Z</time></trkpt><trkpt lat="42.3156367" lon="13.7662333"><ele>459.0</ele><time>2026-05-03T09:32:26.723Z</time></trkpt><trkpt lat="42.3155567" lon="13.76639"><ele>460.0</ele><time>2026-05-03T09:32:27.723Z</time></trkpt><trkpt lat="42.3154567" lon="13.7665233"><ele>461.0</ele><time>2026-05-03T09:32:28.723Z</time></trkpt><trkpt lat="42.3153517" lon="13.7666417"><ele>461.0</ele><time>2026-05-03T09:32:29.723Z</time></trkpt><trkpt lat="42.3152583" lon="13.7667183"><ele>461.0</ele><time>2026-05-03T09:32:30.723Z</time></trkpt><trkpt lat="42.315155" lon="13.7668283"><ele>461.0</ele><time>2026-05-03T09:32:31.723Z</time></trkpt><trkpt lat="42.3150333" lon="13.7669317"><ele>461.0</ele><time>2026-05-03T09:32:32.723Z</time></trkpt><trkpt lat="42.3149083" lon="13.7670483"><ele>461.75</ele><time>2026-05-03T09:32:33.722Z</time></trkpt><trkpt lat="42.3148" lon="13.7671833"><ele>462.5</ele><time>2026-05-03T09:32:34.723Z</time></trkpt><trkpt lat="42.3147033" lon="13.76731"><ele>463.25</ele><time>2026-05-03T09:32:35.722Z</time></trkpt><trkpt lat="42.3146233" lon="13.767415"><ele>464.0</ele><time>2026-05-03T09:32:36.722Z</time></trkpt><trkpt lat="42.3145633" lon="13.7674867"><ele>464.0</ele><time>2026-05-03T09:32:37.722Z</time></trkpt><trkpt lat="42.314495" lon="13.767585"><ele>464.0</ele><time>2026-05-03T09:32:39.722Z</time></trkpt><trkpt lat="42.31446" lon="13.767685"><ele>464.0</ele><time>2026-05-03T09:32:41.723Z</time></trkpt><trkpt lat="42.3144317" lon="13.7678317"><ele>464.0</ele><time>2026-05-03T09:32:43.722Z</time></trkpt><trkpt lat="42.3144033" lon="13.7679917"><ele>464.0</ele><time>2026-05-03T09:32:45.722Z</time></trkpt><trkpt lat="42.3143833" lon="13.7681"><ele>464.8333333333333</ele><time>2026-05-03T09:32:46.723Z</time></trkpt><trkpt lat="42.31437" lon="13.7682167"><ele>465.66666666666663</ele><time>2026-05-03T09:32:47.723Z</time></trkpt><trkpt lat="42.3143567" lon="13.7683267"><ele>466.5</ele><time>2026-05-03T09:32:48.723Z</time></trkpt><trkpt lat="42.3143383" lon="13.768415"><ele>467.33333333333337</ele><time>2026-05-03T09:32:49.723Z</time></trkpt><trkpt lat="42.31433" lon="13.7685167"><ele>468.1666666666667</ele><time>2026-05-03T09:32:51.722Z</time></trkpt><trkpt lat="42.314385" lon="13.7684667"><ele>469.0</ele><time>2026-05-03T09:33:03.722Z</time></trkpt><trkpt lat="42.3144033" lon="13.7683117"><ele>469.00000000000006</ele><time>2026-05-03T09:33:05.722Z</time></trkpt><trkpt lat="42.3144083" lon="13.7682133"><ele>469.0</ele><time>2026-05-03T09:33:06.723Z</time></trkpt><trkpt lat="42.3144217" lon="13.7681017"><ele>469.0</ele><time>2026-05-03T09:33:07.723Z</time></trkpt><trkpt lat="42.314435" lon="13.76799"><ele>469.0</ele><time>2026-05-03T09:33:08.723Z</time></trkpt><trkpt lat="42.3144433" lon="13.7678967"><ele>469.00000000000006</ele><time>2026-05-03T09:33:09.723Z</time></trkpt><trkpt lat="42.3144667" lon="13.7678167"><ele>469.0</ele><time>2026-05-03T09:33:10.723Z</time></trkpt><trkpt lat="42.3145" lon="13.7677083"><ele>469.00000000000006</ele><time>2026-05-03T09:33:12.723Z</time></trkpt><trkpt lat="42.3144083" lon="13.7676683"><ele>469.0</ele><time>2026-05-03T09:33:16.722Z</time></trkpt><trkpt lat="42.3143383" lon="13.7676917"><ele>469.0</ele><time>2026-05-03T09:33:17.723Z</time></trkpt><trkpt lat="42.3142567" lon="13.7677117"><ele>469.0</ele><time>2026-05-03T09:33:18.722Z</time></trkpt><trkpt lat="42.31417" lon="13.76776"><ele>469.00000000000006</ele><time>2026-05-03T09:33:19.722Z</time></trkpt><trkpt lat="42.3140917" lon="13.7678267"><ele>469.0</ele><time>2026-05-03T09:33:20.722Z</time></trkpt><trkpt lat="42.314015" lon="13.7679183"><ele>469.0</ele><time>2026-05-03T09:33:21.723Z</time></trkpt><trkpt lat="42.3139533" lon="13.7680117"><ele>469.0</ele><time>2026-05-03T09:33:22.722Z</time></trkpt><trkpt lat="42.31391" lon="13.7681183"><ele>469.0</ele><time>2026-05-03T09:33:23.723Z</time></trkpt><trkpt lat="42.3138667" lon="13.7682333"><ele>469.0</ele><time>2026-05-03T09:33:24.723Z</time></trkpt><trkpt lat="42.3138217" lon="13.7683467"><ele>469.0</ele><time>2026-05-03T09:33:25.723Z</time></trkpt><trkpt lat="42.3137717" lon="13.768455"><ele>464.2</ele><time>2026-05-03T09:33:26.723Z</time></trkpt><trkpt lat="42.313715" lon="13.7685683"><ele>459.4</ele><time>2026-05-03T09:33:27.723Z</time></trkpt><trkpt lat="42.313655" lon="13.7686733"><ele>454.6</ele><time>2026-05-03T09:33:28.722Z</time></trkpt><trkpt lat="42.31361" lon="13.76879"><ele>449.8</ele><time>2026-05-03T09:33:29.723Z</time></trkpt><trkpt lat="42.3135667" lon="13.768915"><ele>445.0</ele><time>2026-05-03T09:33:30.723Z</time></trkpt><trkpt lat="42.3135167" lon="13.7690467"><ele>445.0</ele><time>2026-05-03T09:33:31.722Z</time></trkpt><trkpt lat="42.3134567" lon="13.7691767"><ele>445.0</ele><time>2026-05-03T09:33:32.723Z</time></trkpt><trkpt lat="42.3133933" lon="13.76931"><ele>445.0</ele><time>2026-05-03T09:33:33.722Z</time></trkpt><trkpt lat="42.3133283" lon="13.7694483"><ele>445.0</ele><time>2026-05-03T09:33:34.723Z</time></trkpt><trkpt lat="42.3132583" lon="13.7695833"><ele>445.5</ele><time>2026-05-03T09:33:35.722Z</time></trkpt><trkpt lat="42.313185" lon="13.769715"><ele>446.0</ele><time>2026-05-03T09:33:36.723Z</time></trkpt><trkpt lat="42.31309" lon="13.7698233"><ele>446.5</ele><time>2026-05-03T09:33:37.723Z</time></trkpt><trkpt lat="42.3129767" lon="13.7699067"><ele>447.0</ele><time>2026-05-03T09:33:38.722Z</time></trkpt><trkpt lat="42.3128533" lon="13.769975"><ele>443.25</ele><time>2026-05-03T09:33:39.722Z</time></trkpt><trkpt lat="42.31274" lon="13.7700367"><ele>439.5</ele><time>2026-05-03T09:33:40.723Z</time></trkpt><trkpt lat="42.3126117" lon="13.7701017"><ele>435.75</ele><time>2026-05-03T09:33:41.723Z</time></trkpt><trkpt lat="42.3124933" lon="13.7701333"><ele>432.0</ele><time>2026-05-03T09:33:42.722Z</time></trkpt><trkpt lat="42.3123617" lon="13.7701567"><ele>431.5</ele><time>2026-05-03T09:33:43.723Z</time></trkpt><trkpt lat="42.3122383" lon="13.77018"><ele>431.0</ele><time>2026-05-03T09:33:44.723Z</time></trkpt><trkpt lat="42.312115" lon="13.7701967"><ele>430.5</ele><time>2026-05-03T09:33:45.722Z</time></trkpt><trkpt lat="42.3120067" lon="13.7702117"><ele>430.0</ele><time>2026-05-03T09:33:46.723Z</time></trkpt><trkpt lat="42.3119117" lon="13.7702267"><ele>431.83333333333337</ele><time>2026-05-03T09:33:47.723Z</time></trkpt><trkpt lat="42.31182" lon="13.7702483"><ele>433.6666666666667</ele><time>2026-05-03T09:33:48.723Z</time></trkpt><trkpt lat="42.3117367" lon="13.7702633"><ele>435.5</ele><time>2026-05-03T09:33:49.723Z</time></trkpt><trkpt lat="42.31166" lon="13.7702817"><ele>437.33333333333337</ele><time>2026-05-03T09:33:50.723Z</time></trkpt><trkpt lat="42.3115833" lon="13.770305"><ele>439.1666666666667</ele><time>2026-05-03T09:33:51.723Z</time></trkpt><trkpt lat="42.3115117" lon="13.77036"><ele>441.0</ele><time>2026-05-03T09:33:52.722Z</time></trkpt><trkpt lat="42.311435" lon="13.7704333"><ele>440.20000000000005</ele><time>2026-05-03T09:33:53.722Z</time></trkpt><trkpt lat="42.3113567" lon="13.7705017"><ele>439.40000000000003</ele><time>2026-05-03T09:33:54.723Z</time></trkpt><trkpt lat="42.3112683" lon="13.7705917"><ele>438.6</ele><time>2026-05-03T09:33:55.722Z</time></trkpt><trkpt lat="42.3111883" lon="13.770665"><ele>437.8</ele><time>2026-05-03T09:33:56.722Z</time></trkpt><trkpt lat="42.3111133" lon="13.770735"><ele>437.0</ele><time>2026-05-03T09:33:57.723Z</time></trkpt><trkpt lat="42.31105" lon="13.7708"><ele>437.0</ele><time>2026-05-03T09:33:58.723Z</time></trkpt><trkpt lat="42.3109867" lon="13.77084"><ele>437.0</ele><time>2026-05-03T09:33:59.722Z</time></trkpt><trkpt lat="42.310915" lon="13.7708533"><ele>437.0</ele><time>2026-05-03T09:34:00.722Z</time></trkpt><trkpt lat="42.3108483" lon="13.7708417"><ele>437.0</ele><time>2026-05-03T09:34:01.723Z</time></trkpt><trkpt lat="42.3107783" lon="13.7708233"><ele>437.0</ele><time>2026-05-03T09:34:02.722Z</time></trkpt><trkpt lat="42.31071" lon="13.7708133"><ele>437.0</ele><time>2026-05-03T09:34:03.723Z</time></trkpt><trkpt lat="42.3106417" lon="13.7707967"><ele>437.0</ele><time>2026-05-03T09:34:04.723Z</time></trkpt><trkpt lat="42.31052" lon="13.7708083"><ele>436.49999999999994</ele><time>2026-05-03T09:34:06.722Z</time></trkpt><trkpt lat="42.3104483" lon="13.7708367"><ele>436.0</ele><time>2026-05-03T09:34:07.723Z</time></trkpt><trkpt lat="42.310375" lon="13.7708567"><ele>435.5</ele><time>2026-05-03T09:34:08.723Z</time></trkpt><trkpt lat="42.3102967" lon="13.770875"><ele>435.0</ele><time>2026-05-03T09:34:09.723Z</time></trkpt><trkpt lat="42.3102217" lon="13.7708917"><ele>434.49999999999994</ele><time>2026-05-03T09:34:10.723Z</time></trkpt><trkpt lat="42.3101433" lon="13.7709067"><ele>434.0</ele><time>2026-05-03T09:34:11.723Z</time></trkpt><trkpt lat="42.31007" lon="13.7709067"><ele>434.0</ele><time>2026-05-03T09:34:12.722Z</time></trkpt><trkpt lat="42.3099583" lon="13.7709283"><ele>434.0</ele><time>2026-05-03T09:34:14.722Z</time></trkpt><trkpt lat="42.30987" lon="13.7709767"><ele>434.0</ele><time>2026-05-03T09:34:16.723Z</time></trkpt><trkpt lat="42.3097883" lon="13.7710417"><ele>434.0</ele><time>2026-05-03T09:34:18.722Z</time></trkpt><trkpt lat="42.3097" lon="13.7711033"><ele>434.0</ele><time>2026-05-03T09:34:20.722Z</time></trkpt><trkpt lat="42.3096383" lon="13.7711933"><ele>435.66666666666663</ele><time>2026-05-03T09:34:22.722Z</time></trkpt><trkpt lat="42.3095983" lon="13.7713033"><ele>437.3333333333333</ele><time>2026-05-03T09:34:24.723Z</time></trkpt><trkpt lat="42.3095483" lon="13.77141"><ele>439.0</ele><time>2026-05-03T09:34:26.723Z</time></trkpt><trkpt lat="42.30946" lon="13.7714867"><ele>440.66666666666663</ele><time>2026-05-03T09:34:28.723Z</time></trkpt><trkpt lat="42.3093967" lon="13.771525"><ele>442.3333333333333</ele><time>2026-05-03T09:34:29.722Z</time></trkpt><trkpt lat="42.3093283" lon="13.7715517"><ele>444.0</ele><time>2026-05-03T09:34:30.723Z</time></trkpt><trkpt lat="42.309265" lon="13.7715867"><ele>444.0</ele><time>2026-05-03T09:34:31.723Z</time></trkpt><trkpt lat="42.309205" lon="13.7716167"><ele>444.0</ele><time>2026-05-03T09:34:32.723Z</time></trkpt><trkpt lat="42.3090783" lon="13.7716733"><ele>444.0</ele><time>2026-05-03T09:34:34.723Z</time></trkpt><trkpt lat="42.3089817" lon="13.7717467"><ele>444.0</ele><time>2026-05-03T09:34:36.722Z</time></trkpt><trkpt lat="42.3088967" lon="13.771855"><ele>444.0</ele><time>2026-05-03T09:34:38.723Z</time></trkpt><trkpt lat="42.308835" lon="13.7719533"><ele>443.79999999999995</ele><time>2026-05-03T09:34:40.723Z</time></trkpt><trkpt lat="42.3087717" lon="13.7720283"><ele>443.59999999999997</ele><time>2026-05-03T09:34:42.722Z</time></trkpt><trkpt lat="42.3086867" lon="13.7721533"><ele>443.4</ele><time>2026-05-03T09:35:06.722Z</time></trkpt><trkpt lat="42.30857" lon="13.7722867"><ele>443.2</ele><time>2026-05-03T09:35:09.722Z</time></trkpt><trkpt lat="42.3085083" lon="13.7723517"><ele>443.0</ele><time>2026-05-03T09:35:11.722Z</time></trkpt><trkpt lat="42.3084067" lon="13.772465"><ele>443.0</ele><time>2026-05-03T09:35:20.722Z</time></trkpt><trkpt lat="42.3083367" lon="13.772575"><ele>442.99999999999994</ele><time>2026-05-03T09:35:21.722Z</time></trkpt><trkpt lat="42.30827" lon="13.7726767"><ele>442.99999999999994</ele><time>2026-05-03T09:35:22.722Z</time></trkpt><trkpt lat="42.30821" lon="13.772765"><ele>443.0</ele><time>2026-05-03T09:35:23.721Z</time></trkpt><trkpt lat="42.308145" lon="13.7728433"><ele>443.0</ele><time>2026-05-03T09:35:24.721Z</time></trkpt><trkpt lat="42.3080833" lon="13.7729167"><ele>440.99999999999994</ele><time>2026-05-03T09:35:25.722Z</time></trkpt><trkpt lat="42.3080167" lon="13.77299"><ele>439.0</ele><time>2026-05-03T09:35:26.721Z</time></trkpt><trkpt lat="42.30795" lon="13.77306"><ele>437.0</ele><time>2026-05-03T09:35:27.722Z</time></trkpt><trkpt lat="42.30788" lon="13.77313"><ele>435.0</ele><time>2026-05-03T09:35:28.722Z</time></trkpt><trkpt lat="42.3078133" lon="13.7731983"><ele>432.99999999999994</ele><time>2026-05-03T09:35:29.721Z</time></trkpt><trkpt lat="42.3077483" lon="13.7732517"><ele>431.0</ele><time>2026-05-03T09:35:30.722Z</time></trkpt><trkpt lat="42.3076783" lon="13.7733017"><ele>431.0</ele><time>2026-05-03T09:35:31.722Z</time></trkpt><trkpt lat="42.3076083" lon="13.7733633"><ele>431.0</ele><time>2026-05-03T09:35:32.722Z</time></trkpt><trkpt lat="42.307535" lon="13.77344"><ele>431.0</ele><time>2026-05-03T09:35:33.721Z</time></trkpt><trkpt lat="42.30747" lon="13.773525"><ele>431.0</ele><time>2026-05-03T09:35:34.721Z</time></trkpt><trkpt lat="42.3073983" lon="13.773615"><ele>431.0</ele><time>2026-05-03T09:35:35.722Z</time></trkpt><trkpt lat="42.3073233" lon="13.773695"><ele>432.0</ele><time>2026-05-03T09:35:36.721Z</time></trkpt><trkpt lat="42.3072467" lon="13.7737717"><ele>433.0</ele><time>2026-05-03T09:35:37.722Z</time></trkpt><trkpt lat="42.3071617" lon="13.7738567"><ele>434.0</ele><time>2026-05-03T09:35:38.722Z</time></trkpt><trkpt lat="42.3070733" lon="13.77395"><ele>435.0</ele><time>2026-05-03T09:35:39.722Z</time></trkpt><trkpt lat="42.307" lon="13.7740483"><ele>436.0</ele><time>2026-05-03T09:35:40.722Z</time></trkpt><trkpt lat="42.30694" lon="13.7741417"><ele>434.4</ele><time>2026-05-03T09:35:41.722Z</time></trkpt><trkpt lat="42.306875" lon="13.7742433"><ele>432.8</ele><time>2026-05-03T09:35:42.721Z</time></trkpt><trkpt lat="42.3068017" lon="13.774335"><ele>431.19999999999993</ele><time>2026-05-03T09:35:43.721Z</time></trkpt><trkpt lat="42.3067217" lon="13.7744333"><ele>429.59999999999997</ele><time>2026-05-03T09:35:44.722Z</time></trkpt><trkpt lat="42.3066417" lon="13.77455"><ele>428.0</ele><time>2026-05-03T09:35:45.721Z</time></trkpt><trkpt lat="42.306575" lon="13.774675"><ele>428.0</ele><time>2026-05-03T09:35:46.722Z</time></trkpt><trkpt lat="42.3065167" lon="13.7747983"><ele>427.99999999999994</ele><time>2026-05-03T09:35:47.722Z</time></trkpt><trkpt lat="42.3064583" lon="13.7749317"><ele>427.99999999999994</ele><time>2026-05-03T09:35:48.721Z</time></trkpt><trkpt lat="42.3064067" lon="13.775065"><ele>428.0</ele><time>2026-05-03T09:35:49.722Z</time></trkpt><trkpt lat="42.306375" lon="13.7751733"><ele>428.0</ele><time>2026-05-03T09:35:50.721Z</time></trkpt><trkpt lat="42.3063433" lon="13.7753067"><ele>427.3333333333333</ele><time>2026-05-03T09:35:52.721Z</time></trkpt><trkpt lat="42.3063167" lon="13.7754033"><ele>426.66666666666663</ele><time>2026-05-03T09:35:54.722Z</time></trkpt><trkpt lat="42.3062983" lon="13.7754983"><ele>426.0</ele><time>2026-05-03T09:35:56.722Z</time></trkpt><trkpt lat="42.30629" lon="13.7755917"><ele>425.33333333333337</ele><time>2026-05-03T09:35:58.722Z</time></trkpt><trkpt lat="42.3062533" lon="13.775695"><ele>424.6666666666667</ele><time>2026-05-03T09:36:01.721Z</time></trkpt><trkpt lat="42.3062133" lon="13.77583"><ele>424.0</ele><time>2026-05-03T09:36:03.722Z</time></trkpt><trkpt lat="42.3061817" lon="13.77596"><ele>424.00000000000006</ele><time>2026-05-03T09:36:05.722Z</time></trkpt><trkpt lat="42.3061617" lon="13.7760633"><ele>424.0</ele><time>2026-05-03T09:36:07.721Z</time></trkpt><trkpt lat="42.306145" lon="13.776175"><ele>424.0</ele><time>2026-05-03T09:36:10.722Z</time></trkpt><trkpt lat="42.3062083" lon="13.7761383"><ele>424.0</ele><time>2026-05-03T09:36:14.722Z</time></trkpt><trkpt lat="42.30622" lon="13.7759783"><ele>424.00000000000006</ele><time>2026-05-03T09:36:16.722Z</time></trkpt><trkpt lat="42.3062317" lon="13.7758733"><ele>424.0</ele><time>2026-05-03T09:36:17.721Z</time></trkpt><trkpt lat="42.3062467" lon="13.7757617"><ele>424.00000000000006</ele><time>2026-05-03T09:36:18.722Z</time></trkpt><trkpt lat="42.3062717" lon="13.7756483"><ele>424.0</ele><time>2026-05-03T09:36:19.722Z</time></trkpt><trkpt lat="42.3062967" lon="13.7755667"><ele>424.0</ele><time>2026-05-03T09:36:20.722Z</time></trkpt><trkpt lat="42.3063117" lon="13.7754733"><ele>424.0</ele><time>2026-05-03T09:36:21.722Z</time></trkpt><trkpt lat="42.306325" lon="13.77539"><ele>424.00000000000006</ele><time>2026-05-03T09:36:22.722Z</time></trkpt><trkpt lat="42.30639" lon="13.7752983"><ele>424.0</ele><time>2026-05-03T09:36:24.722Z</time></trkpt><trkpt lat="42.3065333" lon="13.7753017"><ele>425.33333333333337</ele><time>2026-05-03T09:36:26.722Z</time></trkpt><trkpt lat="42.3066267" lon="13.7753267"><ele>426.6666666666667</ele><time>2026-05-03T09:36:27.722Z</time></trkpt><trkpt lat="42.3067067" lon="13.775375"><ele>428.0</ele><time>2026-05-03T09:36:28.722Z</time></trkpt><trkpt lat="42.3067767" lon="13.7754517"><ele>429.33333333333337</ele><time>2026-05-03T09:36:29.722Z</time></trkpt><trkpt lat="42.3068333" lon="13.77554"><ele>430.6666666666667</ele><time>2026-05-03T09:36:30.722Z</time></trkpt><trkpt lat="42.3068933" lon="13.7756267"><ele>432.0</ele><time>2026-05-03T09:36:31.722Z</time></trkpt><trkpt lat="42.3069517" lon="13.7757117"><ele>432.0</ele><time>2026-05-03T09:36:32.722Z</time></trkpt><trkpt lat="42.3070033" lon="13.775785"><ele>432.0</ele><time>2026-05-03T09:36:33.722Z</time></trkpt><trkpt lat="42.3070583" lon="13.775905"><ele>432.0</ele><time>2026-05-03T09:36:35.721Z</time></trkpt><trkpt lat="42.3070517" lon="13.77605"><ele>432.0</ele><time>2026-05-03T09:36:37.722Z</time></trkpt><trkpt lat="42.3070533" lon="13.7761417"><ele>432.0</ele><time>2026-05-03T09:36:38.721Z</time></trkpt><trkpt lat="42.3070667" lon="13.776245"><ele>432.0</ele><time>2026-05-03T09:36:39.721Z</time></trkpt><trkpt lat="42.3070833" lon="13.7763567"><ele>432.0</ele><time>2026-05-03T09:36:40.722Z</time></trkpt><trkpt lat="42.307105" lon="13.77647"><ele>432.0</ele><time>2026-05-03T09:36:41.722Z</time></trkpt><trkpt lat="42.3071217" lon="13.7766017"><ele>432.0</ele><time>2026-05-03T09:36:42.721Z</time></trkpt><trkpt lat="42.3071367" lon="13.7766933"><ele>432.0</ele><time>2026-05-03T09:36:43.722Z</time></trkpt><trkpt lat="42.3071367" lon="13.776815"><ele>432.0</ele><time>2026-05-03T09:36:45.722Z</time></trkpt><trkpt lat="42.307155" lon="13.7766867"><ele>432.0</ele><time>2026-05-03T09:36:58.721Z</time></trkpt><trkpt lat="42.3071383" lon="13.77657"><ele>432.0</ele><time>2026-05-03T09:36:59.722Z</time></trkpt><trkpt lat="42.3071183" lon="13.776415"><ele>432.00000000000006</ele><time>2026-05-03T09:37:00.722Z</time></trkpt><trkpt lat="42.3070983" lon="13.776245"><ele>432.00000000000006</ele><time>2026-05-03T09:37:01.722Z</time></trkpt><trkpt lat="42.307085" lon="13.7761117"><ele>432.0</ele><time>2026-05-03T09:37:02.722Z</time></trkpt><trkpt lat="42.3070717" lon="13.776015"><ele>432.0</ele><time>2026-05-03T09:37:03.722Z</time></trkpt><trkpt lat="42.3070683" lon="13.7759283"><ele>432.0</ele><time>2026-05-03T09:37:04.721Z</time></trkpt><trkpt lat="42.3070267" lon="13.77578"><ele>432.00000000000006</ele><time>2026-05-03T09:37:06.722Z</time></trkpt><trkpt lat="42.3069317" lon="13.77565"><ele>432.00000000000006</ele><time>2026-05-03T09:37:08.722Z</time></trkpt><trkpt lat="42.3068767" lon="13.7755817"><ele>432.0</ele><time>2026-05-03T09:37:09.722Z</time></trkpt><trkpt lat="42.30682" lon="13.7755133"><ele>432.0</ele><time>2026-05-03T09:37:10.722Z</time></trkpt><trkpt lat="42.3067633" lon="13.7754483"><ele>432.0</ele><time>2026-05-03T09:37:11.722Z</time></trkpt><trkpt lat="42.3066733" lon="13.775365"><ele>432.00000000000006</ele><time>2026-05-03T09:37:13.721Z</time></trkpt><trkpt lat="42.3065783" lon="13.77532"><ele>432.00000000000006</ele><time>2026-05-03T09:37:15.721Z</time></trkpt><trkpt lat="42.3064717" lon="13.775295"><ele>432.0</ele><time>2026-05-03T09:37:17.722Z</time></trkpt><trkpt lat="42.3063967" lon="13.77529"><ele>432.0</ele><time>2026-05-03T09:37:19.721Z</time></trkpt><trkpt lat="42.30634" lon="13.77537"><ele>430.40000000000003</ele><time>2026-05-03T09:37:21.721Z</time></trkpt><trkpt lat="42.3063033" lon="13.77549"><ele>428.80000000000007</ele><time>2026-05-03T09:37:23.722Z</time></trkpt><trkpt lat="42.3062667" lon="13.775635"><ele>427.2</ele><time>2026-05-03T09:37:25.722Z</time></trkpt><trkpt lat="42.3062283" lon="13.77579"><ele>425.6</ele><time>2026-05-03T09:37:27.721Z</time></trkpt><trkpt lat="42.3062083" lon="13.7758917"><ele>424.0</ele><time>2026-05-03T09:37:28.722Z</time></trkpt><trkpt lat="42.3061817" lon="13.776005"><ele>423.83333333333337</ele><time>2026-05-03T09:37:29.722Z</time></trkpt><trkpt lat="42.3061583" lon="13.77613"><ele>423.6666666666667</ele><time>2026-05-03T09:37:30.722Z</time></trkpt><trkpt lat="42.306135" lon="13.776245"><ele>423.5</ele><time>2026-05-03T09:37:31.721Z</time></trkpt><trkpt lat="42.3061067" lon="13.77636"><ele>423.33333333333337</ele><time>2026-05-03T09:37:32.721Z</time></trkpt><trkpt lat="42.306075" lon="13.776465"><ele>423.1666666666667</ele><time>2026-05-03T09:37:33.721Z</time></trkpt><trkpt lat="42.3060617" lon="13.77656"><ele>423.0</ele><time>2026-05-03T09:37:34.722Z</time></trkpt><trkpt lat="42.306055" lon="13.776655"><ele>423.0</ele><time>2026-05-03T09:37:35.722Z</time></trkpt><trkpt lat="42.306065" lon="13.7767667"><ele>423.0</ele><time>2026-05-03T09:37:36.721Z</time></trkpt><trkpt lat="42.3060933" lon="13.7769033"><ele>423.0</ele><time>2026-05-03T09:37:37.721Z</time></trkpt><trkpt lat="42.30613" lon="13.7770383"><ele>423.0</ele><time>2026-05-03T09:37:38.722Z</time></trkpt><trkpt lat="42.3061617" lon="13.7771567"><ele>423.0</ele><time>2026-05-03T09:37:39.721Z</time></trkpt><trkpt lat="42.3061733" lon="13.777255"><ele>422.8333333333333</ele><time>2026-05-03T09:37:40.722Z</time></trkpt><trkpt lat="42.3061667" lon="13.77735"><ele>422.66666666666663</ele><time>2026-05-03T09:37:41.721Z</time></trkpt><trkpt lat="42.3061367" lon="13.7774483"><ele>422.5</ele><time>2026-05-03T09:37:42.721Z</time></trkpt><trkpt lat="42.3060867" lon="13.7775533"><ele>422.3333333333333</ele><time>2026-05-03T09:37:43.721Z</time></trkpt><trkpt lat="42.3060267" lon="13.7776467"><ele>422.16666666666663</ele><time>2026-05-03T09:37:44.722Z</time></trkpt><trkpt lat="42.3059517" lon="13.777735"><ele>422.0</ele><time>2026-05-03T09:37:45.722Z</time></trkpt><trkpt lat="42.305875" lon="13.77781"><ele>421.8333333333333</ele><time>2026-05-03T09:37:46.721Z</time></trkpt><trkpt lat="42.3057983" lon="13.777885"><ele>421.66666666666663</ele><time>2026-05-03T09:37:47.722Z</time></trkpt><trkpt lat="42.305725" lon="13.77797"><ele>421.5</ele><time>2026-05-03T09:37:48.722Z</time></trkpt><trkpt lat="42.3056533" lon="13.7780417"><ele>421.33333333333337</ele><time>2026-05-03T09:37:49.722Z</time></trkpt><trkpt lat="42.305585" lon="13.7781033"><ele>421.1666666666667</ele><time>2026-05-03T09:37:50.721Z</time></trkpt><trkpt lat="42.3055133" lon="13.7781583"><ele>421.0</ele><time>2026-05-03T09:37:51.722Z</time></trkpt><trkpt lat="42.3054267" lon="13.77822"><ele>419.6</ele><time>2026-05-03T09:37:52.721Z</time></trkpt><trkpt lat="42.3053417" lon="13.7783117"><ele>418.20000000000005</ele><time>2026-05-03T09:37:53.722Z</time></trkpt><trkpt lat="42.305265" lon="13.7784167"><ele>416.79999999999995</ele><time>2026-05-03T09:37:54.721Z</time></trkpt><trkpt lat="42.3051967" lon="13.778505"><ele>415.4</ele><time>2026-05-03T09:37:55.721Z</time></trkpt><trkpt lat="42.3051433" lon="13.7785983"><ele>414.0</ele><time>2026-05-03T09:37:56.721Z</time></trkpt><trkpt lat="42.3050983" lon="13.77871"><ele>414.0</ele><time>2026-05-03T09:37:57.722Z</time></trkpt><trkpt lat="42.3050517" lon="13.77883"><ele>414.0</ele><time>2026-05-03T09:37:58.722Z</time></trkpt><trkpt lat="42.304995" lon="13.77895"><ele>414.0</ele><time>2026-05-03T09:37:59.722Z</time></trkpt><trkpt lat="42.3049317" lon="13.7790567"><ele>414.0</ele><time>2026-05-03T09:38:00.722Z</time></trkpt><trkpt lat="42.30486" lon="13.779165"><ele>414.0</ele><time>2026-05-03T09:38:01.722Z</time></trkpt><trkpt lat="42.3047883" lon="13.7792683"><ele>412.4</ele><time>2026-05-03T09:38:02.722Z</time></trkpt><trkpt lat="42.3047167" lon="13.77937"><ele>410.79999999999995</ele><time>2026-05-03T09:38:03.722Z</time></trkpt><trkpt lat="42.304645" lon="13.7794617"><ele>409.20000000000005</ele><time>2026-05-03T09:38:04.722Z</time></trkpt><trkpt lat="42.3045717" lon="13.7795633"><ele>407.6</ele><time>2026-05-03T09:38:05.722Z</time></trkpt><trkpt lat="42.304495" lon="13.779645"><ele>406.0</ele><time>2026-05-03T09:38:06.721Z</time></trkpt><trkpt lat="42.3044067" lon="13.7797"><ele>406.0</ele><time>2026-05-03T09:38:07.722Z</time></trkpt><trkpt lat="42.3043117" lon="13.7797317"><ele>406.0</ele><time>2026-05-03T09:38:08.721Z</time></trkpt><trkpt lat="42.30423" lon="13.779785"><ele>406.0</ele><time>2026-05-03T09:38:09.722Z</time></trkpt><trkpt lat="42.3041467" lon="13.7798567"><ele>406.0</ele><time>2026-05-03T09:38:10.722Z</time></trkpt><trkpt lat="42.3040817" lon="13.77996"><ele>406.0</ele><time>2026-05-03T09:38:11.722Z</time></trkpt><trkpt lat="42.3040183" lon="13.7800717"><ele>406.00000000000006</ele><time>2026-05-03T09:38:12.721Z</time></trkpt><trkpt lat="42.3039667" lon="13.7801583"><ele>406.0</ele><time>2026-05-03T09:38:13.721Z</time></trkpt><trkpt lat="42.3038633" lon="13.780245"><ele>406.0</ele><time>2026-05-03T09:38:15.721Z</time></trkpt><trkpt lat="42.3038" lon="13.7802567"><ele>406.0</ele><time>2026-05-03T09:38:16.721Z</time></trkpt><trkpt lat="42.3037317" lon="13.7802683"><ele>406.00000000000006</ele><time>2026-05-03T09:38:17.722Z</time></trkpt><trkpt lat="42.3036667" lon="13.7802833"><ele>406.0</ele><time>2026-05-03T09:38:18.722Z</time></trkpt><trkpt lat="42.3036067" lon="13.7803133"><ele>405.50000000000006</ele><time>2026-05-03T09:38:19.722Z</time></trkpt><trkpt lat="42.3035483" lon="13.7803767"><ele>405.0</ele><time>2026-05-03T09:38:20.722Z</time></trkpt><trkpt lat="42.3034883" lon="13.78046"><ele>404.5</ele><time>2026-05-03T09:38:21.721Z</time></trkpt><trkpt lat="42.30342" lon="13.7805467"><ele>404.0</ele><time>2026-05-03T09:38:22.721Z</time></trkpt><trkpt lat="42.3033583" lon="13.7806233"><ele>403.50000000000006</ele><time>2026-05-03T09:38:23.721Z</time></trkpt><trkpt lat="42.303305" lon="13.7807217"><ele>403.0</ele><time>2026-05-03T09:38:24.721Z</time></trkpt><trkpt lat="42.303245" lon="13.7808283"><ele>403.0</ele><time>2026-05-03T09:38:25.722Z</time></trkpt><trkpt lat="42.3031867" lon="13.7809433"><ele>403.0</ele><time>2026-05-03T09:38:26.721Z</time></trkpt><trkpt lat="42.3031217" lon="13.7810517"><ele>403.0</ele><time>2026-05-03T09:38:27.722Z</time></trkpt><trkpt lat="42.30306" lon="13.7811417"><ele>403.0</ele><time>2026-05-03T09:38:28.722Z</time></trkpt><trkpt lat="42.302995" lon="13.78122"><ele>403.0</ele><time>2026-05-03T09:38:29.722Z</time></trkpt><trkpt lat="42.3029217" lon="13.781295"><ele>401.6666666666667</ele><time>2026-05-03T09:38:30.722Z</time></trkpt><trkpt lat="42.3028383" lon="13.7813667"><ele>400.33333333333337</ele><time>2026-05-03T09:38:31.722Z</time></trkpt><trkpt lat="42.302765" lon="13.781425"><ele>399.0</ele><time>2026-05-03T09:38:32.721Z</time></trkpt><trkpt lat="42.302695" lon="13.7814617"><ele>397.66666666666663</ele><time>2026-05-03T09:38:33.722Z</time></trkpt><trkpt lat="42.3026167" lon="13.7814933"><ele>396.3333333333333</ele><time>2026-05-03T09:38:34.721Z</time></trkpt><trkpt lat="42.3025417" lon="13.7815233"><ele>395.0</ele><time>2026-05-03T09:38:35.721Z</time></trkpt><trkpt lat="42.302465" lon="13.781555"><ele>394.99999999999994</ele><time>2026-05-03T09:38:36.721Z</time></trkpt><trkpt lat="42.30239" lon="13.7815817"><ele>395.0</ele><time>2026-05-03T09:38:37.721Z</time></trkpt><trkpt lat="42.30232" lon="13.7816117"><ele>395.0</ele><time>2026-05-03T09:38:38.721Z</time></trkpt><trkpt lat="42.302195" lon="13.78168"><ele>395.0</ele><time>2026-05-03T09:38:40.72Z</time></trkpt><trkpt lat="42.3021217" lon="13.7817317"><ele>394.99999999999994</ele><time>2026-05-03T09:38:42.721Z</time></trkpt><trkpt lat="42.3020533" lon="13.7817567"><ele>395.0</ele><time>2026-05-03T09:38:45.72Z</time></trkpt><trkpt lat="42.3020283" lon="13.7816733"><ele>393.16666666666663</ele><time>2026-05-03T09:38:47.72Z</time></trkpt><trkpt lat="42.3020233" lon="13.78158"><ele>391.3333333333333</ele><time>2026-05-03T09:38:48.72Z</time></trkpt><trkpt lat="42.302015" lon="13.7814733"><ele>389.5</ele><time>2026-05-03T09:38:49.72Z</time></trkpt><trkpt lat="42.3020017" lon="13.7813517"><ele>387.66666666666663</ele><time>2026-05-03T09:38:50.721Z</time></trkpt><trkpt lat="42.3019867" lon="13.78122"><ele>385.8333333333333</ele><time>2026-05-03T09:38:51.721Z</time></trkpt><trkpt lat="42.30198" lon="13.7810767"><ele>384.0</ele><time>2026-05-03T09:38:52.721Z</time></trkpt><trkpt lat="42.3019583" lon="13.7809383"><ele>384.0</ele><time>2026-05-03T09:38:53.72Z</time></trkpt><trkpt lat="42.3019417" lon="13.7807933"><ele>384.0</ele><time>2026-05-03T09:38:54.72Z</time></trkpt><trkpt lat="42.3019333" lon="13.7806617"><ele>384.0</ele><time>2026-05-03T09:38:55.721Z</time></trkpt><trkpt lat="42.301935" lon="13.78054"><ele>384.0</ele><time>2026-05-03T09:38:56.72Z</time></trkpt><trkpt lat="42.3019317" lon="13.7804433"><ele>384.0</ele><time>2026-05-03T09:38:57.721Z</time></trkpt><trkpt lat="42.3019333" lon="13.7803083"><ele>384.0</ele><time>2026-05-03T09:38:59.721Z</time></trkpt><trkpt lat="42.3019783" lon="13.7801967"><ele>384.0</ele><time>2026-05-03T09:39:01.72Z</time></trkpt><trkpt lat="42.3019933" lon="13.78005"><ele>384.0</ele><time>2026-05-03T09:39:03.721Z</time></trkpt><trkpt lat="42.3019667" lon="13.779955"><ele>384.0</ele><time>2026-05-03T09:39:04.721Z</time></trkpt><trkpt lat="42.30192" lon="13.7798467"><ele>384.0</ele><time>2026-05-03T09:39:05.721Z</time></trkpt><trkpt lat="42.301875" lon="13.779725"><ele>383.5</ele><time>2026-05-03T09:39:06.721Z</time></trkpt><trkpt lat="42.3018183" lon="13.7795983"><ele>383.0</ele><time>2026-05-03T09:39:07.721Z</time></trkpt><trkpt lat="42.3017733" lon="13.779455"><ele>382.5</ele><time>2026-05-03T09:39:08.72Z</time></trkpt><trkpt lat="42.301725" lon="13.7793017"><ele>382.0</ele><time>2026-05-03T09:39:09.721Z</time></trkpt><trkpt lat="42.3016767" lon="13.77914"><ele>381.25</ele><time>2026-05-03T09:39:10.721Z</time></trkpt><trkpt lat="42.3016367" lon="13.7789717"><ele>380.5</ele><time>2026-05-03T09:39:11.721Z</time></trkpt><trkpt lat="42.3015933" lon="13.7788033"><ele>379.75</ele><time>2026-05-03T09:39:12.721Z</time></trkpt><trkpt lat="42.3015517" lon="13.7786233"><ele>379.0</ele><time>2026-05-03T09:39:13.721Z</time></trkpt><trkpt lat="42.30151" lon="13.7784683"><ele>378.0</ele><time>2026-05-03T09:39:14.72Z</time></trkpt><trkpt lat="42.3014683" lon="13.7783067"><ele>377.0</ele><time>2026-05-03T09:39:15.721Z</time></trkpt><trkpt lat="42.3014267" lon="13.7781483"><ele>376.0</ele><time>2026-05-03T09:39:16.721Z</time></trkpt><trkpt lat="42.3013733" lon="13.7779967"><ele>375.0</ele><time>2026-05-03T09:39:17.721Z</time></trkpt><trkpt lat="42.30133" lon="13.77785"><ele>373.8</ele><time>2026-05-03T09:39:18.72Z</time></trkpt><trkpt lat="42.3013" lon="13.7777"><ele>372.6</ele><time>2026-05-03T09:39:19.721Z</time></trkpt><trkpt lat="42.3012767" lon="13.7775583"><ele>371.4</ele><time>2026-05-03T09:39:20.721Z</time></trkpt><trkpt lat="42.3012617" lon="13.7774083"><ele>370.2</ele><time>2026-05-03T09:39:21.721Z</time></trkpt><trkpt lat="42.3012567" lon="13.77726"><ele>369.0</ele><time>2026-05-03T09:39:22.72Z</time></trkpt><trkpt lat="42.3012667" lon="13.7771133"><ele>368.6</ele><time>2026-05-03T09:39:23.721Z</time></trkpt><trkpt lat="42.3012867" lon="13.776965"><ele>368.2</ele><time>2026-05-03T09:39:24.721Z</time></trkpt><trkpt lat="42.30128" lon="13.77684"><ele>367.8</ele><time>2026-05-03T09:39:25.72Z</time></trkpt><trkpt lat="42.3012533" lon="13.77672"><ele>367.40000000000003</ele><time>2026-05-03T09:39:26.72Z</time></trkpt><trkpt lat="42.3012083" lon="13.7765983"><ele>367.0</ele><time>2026-05-03T09:39:27.72Z</time></trkpt><trkpt lat="42.301145" lon="13.7764783"><ele>367.0</ele><time>2026-05-03T09:39:28.721Z</time></trkpt><trkpt lat="42.30107" lon="13.7763767"><ele>367.0</ele><time>2026-05-03T09:39:29.72Z</time></trkpt><trkpt lat="42.300995" lon="13.7762867"><ele>367.0</ele><time>2026-05-03T09:39:30.72Z</time></trkpt><trkpt lat="42.300925" lon="13.7762067"><ele>367.0</ele><time>2026-05-03T09:39:31.721Z</time></trkpt><trkpt lat="42.30087" lon="13.7761467"><ele>367.0</ele><time>2026-05-03T09:39:32.721Z</time></trkpt><trkpt lat="42.30084" lon="13.7760483"><ele>367.0</ele><time>2026-05-03T09:39:34.721Z</time></trkpt><trkpt lat="42.3008633" lon="13.775965"><ele>367.4285714285714</ele><time>2026-05-03T09:39:35.721Z</time></trkpt><trkpt lat="42.3008817" lon="13.775875"><ele>367.8571428571429</ele><time>2026-05-03T09:39:36.721Z</time></trkpt><trkpt lat="42.3008333" lon="13.7757667"><ele>368.2857142857143</ele><time>2026-05-03T09:39:38.721Z</time></trkpt><trkpt lat="42.3007683" lon="13.77573"><ele>368.71428571428567</ele><time>2026-05-03T09:39:39.721Z</time></trkpt><trkpt lat="42.3007183" lon="13.7756583"><ele>369.1428571428571</ele><time>2026-05-03T09:39:40.721Z</time></trkpt><trkpt lat="42.3006667" lon="13.7756067"><ele>369.57142857142856</ele><time>2026-05-03T09:39:41.72Z</time></trkpt><trkpt lat="42.3006" lon="13.77559"><ele>370.0</ele><time>2026-05-03T09:39:42.72Z</time></trkpt><trkpt lat="42.3004867" lon="13.7755367"><ele>368.3333333333333</ele><time>2026-05-03T09:39:44.72Z</time></trkpt><trkpt lat="42.3004367" lon="13.7754767"><ele>366.66666666666663</ele><time>2026-05-03T09:39:45.721Z</time></trkpt><trkpt lat="42.300395" lon="13.77539"><ele>365.0</ele><time>2026-05-03T09:39:46.72Z</time></trkpt><trkpt lat="42.3003433" lon="13.7752967"><ele>363.3333333333333</ele><time>2026-05-03T09:39:47.72Z</time></trkpt><trkpt lat="42.30028" lon="13.775205"><ele>361.6666666666667</ele><time>2026-05-03T09:39:48.721Z</time></trkpt><trkpt lat="42.30022" lon="13.775135"><ele>360.0</ele><time>2026-05-03T09:39:49.72Z</time></trkpt><trkpt lat="42.3001617" lon="13.7750817"><ele>360.0</ele><time>2026-05-03T09:39:50.721Z</time></trkpt><trkpt lat="42.3000517" lon="13.775045"><ele>360.0</ele><time>2026-05-03T09:39:52.721Z</time></trkpt><trkpt lat="42.2999933" lon="13.7750783"><ele>360.0</ele><time>2026-05-03T09:39:53.721Z</time></trkpt><trkpt lat="42.29992" lon="13.7751367"><ele>360.0</ele><time>2026-05-03T09:39:54.72Z</time></trkpt><trkpt lat="42.2998467" lon="13.7752183"><ele>360.0</ele><time>2026-05-03T09:39:55.721Z</time></trkpt><trkpt lat="42.2997717" lon="13.7753117"><ele>359.6</ele><time>2026-05-03T09:39:56.721Z</time></trkpt><trkpt lat="42.29969" lon="13.77539"><ele>359.2</ele><time>2026-05-03T09:39:57.721Z</time></trkpt><trkpt lat="42.2996117" lon="13.7754633"><ele>358.79999999999995</ele><time>2026-05-03T09:39:58.721Z</time></trkpt><trkpt lat="42.2995467" lon="13.7755133"><ele>358.4</ele><time>2026-05-03T09:39:59.72Z</time></trkpt><trkpt lat="42.2994583" lon="13.7755433"><ele>358.0</ele><time>2026-05-03T09:40:01.721Z</time></trkpt><trkpt lat="42.29935" lon="13.775475"><ele>358.0</ele><time>2026-05-03T09:40:03.72Z</time></trkpt><trkpt lat="42.2992783" lon="13.77542"><ele>358.0</ele><time>2026-05-03T09:40:04.721Z</time></trkpt><trkpt lat="42.29921" lon="13.7753533"><ele>358.0</ele><time>2026-05-03T09:40:05.72Z</time></trkpt><trkpt lat="42.2991517" lon="13.7753"><ele>358.0</ele><time>2026-05-03T09:40:06.721Z</time></trkpt><trkpt lat="42.29905" lon="13.7752833"><ele>358.0</ele><time>2026-05-03T09:40:08.72Z</time></trkpt><trkpt lat="42.29897" lon="13.775385"><ele>358.0</ele><time>2026-05-03T09:40:10.721Z</time></trkpt><trkpt lat="42.2989383" lon="13.7754633"><ele>357.5</ele><time>2026-05-03T09:40:11.72Z</time></trkpt><trkpt lat="42.2989033" lon="13.7755717"><ele>357.0</ele><time>2026-05-03T09:40:12.721Z</time></trkpt><trkpt lat="42.298865" lon="13.775705"><ele>356.5</ele><time>2026-05-03T09:40:13.721Z</time></trkpt><trkpt lat="42.2988233" lon="13.7758633"><ele>356.0</ele><time>2026-05-03T09:40:14.72Z</time></trkpt><trkpt lat="42.2987833" lon="13.77605"><ele>356.0</ele><time>2026-05-03T09:40:15.72Z</time></trkpt><trkpt lat="42.2987383" lon="13.77627"><ele>356.0</ele><time>2026-05-03T09:40:16.72Z</time></trkpt><trkpt lat="42.2986983" lon="13.7764917"><ele>356.0</ele><time>2026-05-03T09:40:17.721Z</time></trkpt><trkpt lat="42.2986583" lon="13.776685"><ele>356.25</ele><time>2026-05-03T09:40:18.721Z</time></trkpt><trkpt lat="42.2986233" lon="13.7768633"><ele>356.5</ele><time>2026-05-03T09:40:19.721Z</time></trkpt><trkpt lat="42.2985717" lon="13.7770117"><ele>356.75</ele><time>2026-05-03T09:40:20.721Z</time></trkpt><trkpt lat="42.2985233" lon="13.7771633"><ele>357.0</ele><time>2026-05-03T09:40:21.721Z</time></trkpt><trkpt lat="42.29848" lon="13.7773167"><ele>357.0</ele><time>2026-05-03T09:40:22.72Z</time></trkpt><trkpt lat="42.2984467" lon="13.7774533"><ele>357.0</ele><time>2026-05-03T09:40:23.721Z</time></trkpt><trkpt lat="42.298415" lon="13.7775783"><ele>357.0</ele><time>2026-05-03T09:40:24.721Z</time></trkpt><trkpt lat="42.2983883" lon="13.7776733"><ele>357.0</ele><time>2026-05-03T09:40:25.72Z</time></trkpt><trkpt lat="42.29835" lon="13.7777567"><ele>357.0</ele><time>2026-05-03T09:40:26.72Z</time></trkpt><trkpt lat="42.2982867" lon="13.7778217"><ele>357.0</ele><time>2026-05-03T09:40:27.721Z</time></trkpt><trkpt lat="42.2981983" lon="13.7778783"><ele>357.0</ele><time>2026-05-03T09:40:28.721Z</time></trkpt><trkpt lat="42.2981017" lon="13.77795"><ele>357.0</ele><time>2026-05-03T09:40:29.721Z</time></trkpt><trkpt lat="42.2980017" lon="13.7780567"><ele>357.0</ele><time>2026-05-03T09:40:30.721Z</time></trkpt><trkpt lat="42.297895" lon="13.77819"><ele>357.0</ele><time>2026-05-03T09:40:31.721Z</time></trkpt><trkpt lat="42.2977867" lon="13.77834"><ele>356.25</ele><time>2026-05-03T09:40:32.721Z</time></trkpt><trkpt lat="42.2976833" lon="13.778475"><ele>355.5</ele><time>2026-05-03T09:40:33.72Z</time></trkpt><trkpt lat="42.2975783" lon="13.7786083"><ele>354.75</ele><time>2026-05-03T09:40:34.721Z</time></trkpt><trkpt lat="42.2974733" lon="13.77873"><ele>354.0</ele><time>2026-05-03T09:40:35.721Z</time></trkpt><trkpt lat="42.2973667" lon="13.7788433"><ele>352.5</ele><time>2026-05-03T09:40:36.721Z</time></trkpt><trkpt lat="42.2972517" lon="13.7789467"><ele>351.0</ele><time>2026-05-03T09:40:37.72Z</time></trkpt><trkpt lat="42.2971283" lon="13.7790467"><ele>349.5</ele><time>2026-05-03T09:40:38.721Z</time></trkpt><trkpt lat="42.2970167" lon="13.7791567"><ele>348.0</ele><time>2026-05-03T09:40:39.721Z</time></trkpt><trkpt lat="42.296905" lon="13.7792567"><ele>348.75</ele><time>2026-05-03T09:40:40.72Z</time></trkpt><trkpt lat="42.2968133" lon="13.77936"><ele>349.5</ele><time>2026-05-03T09:40:41.72Z</time></trkpt><trkpt lat="42.2967267" lon="13.7794883"><ele>350.25</ele><time>2026-05-03T09:40:42.721Z</time></trkpt><trkpt lat="42.2966433" lon="13.7796367"><ele>351.0</ele><time>2026-05-03T09:40:43.721Z</time></trkpt><trkpt lat="42.296565" lon="13.7797767"><ele>351.0</ele><time>2026-05-03T09:40:44.72Z</time></trkpt><trkpt lat="42.2964883" lon="13.7799033"><ele>351.0</ele><time>2026-05-03T09:40:45.721Z</time></trkpt><trkpt lat="42.2964083" lon="13.7800483"><ele>351.0</ele><time>2026-05-03T09:40:46.72Z</time></trkpt><trkpt lat="42.2963017" lon="13.7801867"><ele>351.0</ele><time>2026-05-03T09:40:47.721Z</time></trkpt><trkpt lat="42.2962267" lon="13.780335"><ele>351.5</ele><time>2026-05-03T09:40:48.72Z</time></trkpt><trkpt lat="42.2961633" lon="13.78049"><ele>352.0</ele><time>2026-05-03T09:40:49.72Z</time></trkpt><trkpt lat="42.296095" lon="13.78065"><ele>352.5</ele><time>2026-05-03T09:40:50.721Z</time></trkpt><trkpt lat="42.2960217" lon="13.7808017"><ele>353.0</ele><time>2026-05-03T09:40:51.721Z</time></trkpt><trkpt lat="42.295945" lon="13.7809483"><ele>352.75</ele><time>2026-05-03T09:40:52.721Z</time></trkpt><trkpt lat="42.2958583" lon="13.7810833"><ele>352.5</ele><time>2026-05-03T09:40:53.721Z</time></trkpt><trkpt lat="42.2957717" lon="13.7812117"><ele>352.25</ele><time>2026-05-03T09:40:54.72Z</time></trkpt><trkpt lat="42.2956683" lon="13.78135"><ele>352.0</ele><time>2026-05-03T09:40:55.721Z</time></trkpt><trkpt lat="42.295585" lon="13.781485"><ele>352.0</ele><time>2026-05-03T09:40:56.721Z</time></trkpt><trkpt lat="42.2954933" lon="13.7816083"><ele>352.0</ele><time>2026-05-03T09:40:57.721Z</time></trkpt><trkpt lat="42.2954" lon="13.7817083"><ele>352.0</ele><time>2026-05-03T09:40:58.721Z</time></trkpt><trkpt lat="42.295285" lon="13.78181"><ele>352.0</ele><time>2026-05-03T09:40:59.72Z</time></trkpt><trkpt lat="42.2951633" lon="13.7819017"><ele>352.0</ele><time>2026-05-03T09:41:00.72Z</time></trkpt><trkpt lat="42.2950433" lon="13.782005"><ele>352.0</ele><time>2026-05-03T09:41:01.721Z</time></trkpt><trkpt lat="42.2949367" lon="13.7821283"><ele>352.0</ele><time>2026-05-03T09:41:02.721Z</time></trkpt><trkpt lat="42.2948267" lon="13.7822533"><ele>352.0</ele><time>2026-05-03T09:41:03.72Z</time></trkpt><trkpt lat="42.2947217" lon="13.7823767"><ele>351.5</ele><time>2026-05-03T09:41:04.721Z</time></trkpt><trkpt lat="42.2946233" lon="13.7825"><ele>351.0</ele><time>2026-05-03T09:41:05.721Z</time></trkpt><trkpt lat="42.294535" lon="13.7826283"><ele>350.5</ele><time>2026-05-03T09:41:06.721Z</time></trkpt><trkpt lat="42.2944433" lon="13.7827567"><ele>350.0</ele><time>2026-05-03T09:41:07.721Z</time></trkpt><trkpt lat="42.2943433" lon="13.78289"><ele>350.0</ele><time>2026-05-03T09:41:08.721Z</time></trkpt><trkpt lat="42.294245" lon="13.783005"><ele>350.0</ele><time>2026-05-03T09:41:09.721Z</time></trkpt><trkpt lat="42.2941517" lon="13.78313"><ele>350.0</ele><time>2026-05-03T09:41:10.721Z</time></trkpt><trkpt lat="42.2940683" lon="13.7832583"><ele>350.0</ele><time>2026-05-03T09:41:11.72Z</time></trkpt><trkpt lat="42.2939867" lon="13.78339"><ele>350.25</ele><time>2026-05-03T09:41:12.721Z</time></trkpt><trkpt lat="42.2939017" lon="13.7835167"><ele>350.5</ele><time>2026-05-03T09:41:13.721Z</time></trkpt><trkpt lat="42.293825" lon="13.78363"><ele>350.75</ele><time>2026-05-03T09:41:14.721Z</time></trkpt><trkpt lat="42.29375" lon="13.7837583"><ele>351.0</ele><time>2026-05-03T09:41:15.72Z</time></trkpt><trkpt lat="42.29366" lon="13.7838733"><ele>351.0</ele><time>2026-05-03T09:41:16.721Z</time></trkpt><trkpt lat="42.2935533" lon="13.7839917"><ele>351.0</ele><time>2026-05-03T09:41:17.72Z</time></trkpt><trkpt lat="42.293445" lon="13.78411"><ele>351.0</ele><time>2026-05-03T09:41:18.721Z</time></trkpt><trkpt lat="42.2933317" lon="13.7842233"><ele>351.0</ele><time>2026-05-03T09:41:19.72Z</time></trkpt><trkpt lat="42.2932233" lon="13.7843317"><ele>351.25</ele><time>2026-05-03T09:41:20.721Z</time></trkpt><trkpt lat="42.2931233" lon="13.7844233"><ele>351.5</ele><time>2026-05-03T09:41:21.721Z</time></trkpt><trkpt lat="42.2930233" lon="13.7845183"><ele>351.75</ele><time>2026-05-03T09:41:22.72Z</time></trkpt><trkpt lat="42.2929183" lon="13.7845967"><ele>352.0</ele><time>2026-05-03T09:41:23.721Z</time></trkpt><trkpt lat="42.2928017" lon="13.7846767"><ele>352.0</ele><time>2026-05-03T09:41:24.721Z</time></trkpt><trkpt lat="42.2926867" lon="13.7847533"><ele>352.0</ele><time>2026-05-03T09:41:25.721Z</time></trkpt><trkpt lat="42.2925917" lon="13.7848283"><ele>352.0</ele><time>2026-05-03T09:41:26.72Z</time></trkpt><trkpt lat="42.29249" lon="13.7848867"><ele>352.0</ele><time>2026-05-03T09:41:27.721Z</time></trkpt><trkpt lat="42.2923817" lon="13.7849367"><ele>352.0</ele><time>2026-05-03T09:41:28.721Z</time></trkpt><trkpt lat="42.2922867" lon="13.7849767"><ele>352.0</ele><time>2026-05-03T09:41:29.72Z</time></trkpt><trkpt lat="42.292195" lon="13.7850067"><ele>352.0</ele><time>2026-05-03T09:41:30.721Z</time></trkpt><trkpt lat="42.2921083" lon="13.785045"><ele>352.0</ele><time>2026-05-03T09:41:31.721Z</time></trkpt><trkpt lat="42.2920383" lon="13.7850683"><ele>352.0</ele><time>2026-05-03T09:41:32.72Z</time></trkpt><trkpt lat="42.2919267" lon="13.7851117"><ele>352.20000000000005</ele><time>2026-05-03T09:41:34.721Z</time></trkpt><trkpt lat="42.2918267" lon="13.7851517"><ele>352.4</ele><time>2026-05-03T09:41:36.721Z</time></trkpt><trkpt lat="42.291705" lon="13.7852283"><ele>352.6</ele><time>2026-05-03T09:41:38.72Z</time></trkpt><trkpt lat="42.29162" lon="13.7852733"><ele>352.79999999999995</ele><time>2026-05-03T09:41:39.721Z</time></trkpt><trkpt lat="42.2915383" lon="13.7853383"><ele>353.0</ele><time>2026-05-03T09:41:40.72Z</time></trkpt><trkpt lat="42.2914533" lon="13.7854033"><ele>352.5</ele><time>2026-05-03T09:41:41.721Z</time></trkpt><trkpt lat="42.29135" lon="13.7854817"><ele>352.0</ele><time>2026-05-03T09:41:42.72Z</time></trkpt><trkpt lat="42.29125" lon="13.7855483"><ele>351.5</ele><time>2026-05-03T09:41:43.721Z</time></trkpt><trkpt lat="42.291145" lon="13.7855917"><ele>351.0</ele><time>2026-05-03T09:41:44.72Z</time></trkpt><trkpt lat="42.29104" lon="13.7856533"><ele>351.0</ele><time>2026-05-03T09:41:45.721Z</time></trkpt><trkpt lat="42.2909383" lon="13.7857217"><ele>351.0</ele><time>2026-05-03T09:41:46.721Z</time></trkpt><trkpt lat="42.29084" lon="13.7858067"><ele>351.0</ele><time>2026-05-03T09:41:47.721Z</time></trkpt><trkpt lat="42.2907433" lon="13.785885"><ele>351.0</ele><time>2026-05-03T09:41:48.721Z</time></trkpt><trkpt lat="42.2906467" lon="13.7859717"><ele>351.20000000000005</ele><time>2026-05-03T09:41:49.721Z</time></trkpt><trkpt lat="42.29055" lon="13.7860533"><ele>351.40000000000003</ele><time>2026-05-03T09:41:50.721Z</time></trkpt><trkpt lat="42.2904583" lon="13.7861267"><ele>351.6</ele><time>2026-05-03T09:41:51.72Z</time></trkpt><trkpt lat="42.2903717" lon="13.7862133"><ele>351.8</ele><time>2026-05-03T09:41:52.72Z</time></trkpt><trkpt lat="42.2902833" lon="13.7862867"><ele>352.0</ele><time>2026-05-03T09:41:53.721Z</time></trkpt><trkpt lat="42.2901917" lon="13.7863667"><ele>352.0</ele><time>2026-05-03T09:41:54.72Z</time></trkpt><trkpt lat="42.2900867" lon="13.7864467"><ele>352.0</ele><time>2026-05-03T09:41:55.72Z</time></trkpt><trkpt lat="42.2899767" lon="13.7865233"><ele>352.0</ele><time>2026-05-03T09:41:56.721Z</time></trkpt><trkpt lat="42.2898733" lon="13.7866"><ele>352.0</ele><time>2026-05-03T09:41:57.721Z</time></trkpt><trkpt lat="42.2897783" lon="13.7866767"><ele>351.5</ele><time>2026-05-03T09:41:58.721Z</time></trkpt><trkpt lat="42.289685" lon="13.7867467"><ele>351.0</ele><time>2026-05-03T09:41:59.721Z</time></trkpt><trkpt lat="42.289585" lon="13.7868267"><ele>350.5</ele><time>2026-05-03T09:42:00.72Z</time></trkpt><trkpt lat="42.289475" lon="13.7869067"><ele>350.0</ele><time>2026-05-03T09:42:01.72Z</time></trkpt><trkpt lat="42.2893683" lon="13.7869867"><ele>351.25</ele><time>2026-05-03T09:42:02.72Z</time></trkpt><trkpt lat="42.28926" lon="13.7870683"><ele>352.5</ele><time>2026-05-03T09:42:03.721Z</time></trkpt><trkpt lat="42.2891567" lon="13.7871433"><ele>353.75</ele><time>2026-05-03T09:42:04.721Z</time></trkpt><trkpt lat="42.2890533" lon="13.7872217"><ele>355.0</ele><time>2026-05-03T09:42:05.72Z</time></trkpt><trkpt lat="42.2889583" lon="13.7873083"><ele>355.0</ele><time>2026-05-03T09:42:06.721Z</time></trkpt><trkpt lat="42.2888667" lon="13.7874083"><ele>355.0</ele><time>2026-05-03T09:42:07.721Z</time></trkpt><trkpt lat="42.28877" lon="13.7874917"><ele>355.0</ele><time>2026-05-03T09:42:08.72Z</time></trkpt><trkpt lat="42.2886683" lon="13.7875733"><ele>355.0</ele><time>2026-05-03T09:42:09.721Z</time></trkpt><trkpt lat="42.2885667" lon="13.787655"><ele>356.25</ele><time>2026-05-03T09:42:10.72Z</time></trkpt><trkpt lat="42.2884733" lon="13.7877317"><ele>357.5</ele><time>2026-05-03T09:42:11.72Z</time></trkpt><trkpt lat="42.2883683" lon="13.7878233"><ele>358.75</ele><time>2026-05-03T09:42:12.72Z</time></trkpt><trkpt lat="42.2882667" lon="13.7879017"><ele>360.0</ele><time>2026-05-03T09:42:13.719Z</time></trkpt><trkpt lat="42.2881767" lon="13.7879683"><ele>360.4</ele><time>2026-05-03T09:42:14.72Z</time></trkpt><trkpt lat="42.288085" lon="13.78802"><ele>360.8</ele><time>2026-05-03T09:42:15.72Z</time></trkpt><trkpt lat="42.2879817" lon="13.7880583"><ele>361.20000000000005</ele><time>2026-05-03T09:42:16.72Z</time></trkpt><trkpt lat="42.28788" lon="13.7880883"><ele>361.6</ele><time>2026-05-03T09:42:17.72Z</time></trkpt><trkpt lat="42.287775" lon="13.78812"><ele>362.0</ele><time>2026-05-03T09:42:18.72Z</time></trkpt><trkpt lat="42.28766" lon="13.7881683"><ele>362.0</ele><time>2026-05-03T09:42:19.72Z</time></trkpt><trkpt lat="42.2875467" lon="13.7882267"><ele>362.0</ele><time>2026-05-03T09:42:20.719Z</time></trkpt><trkpt lat="42.2874317" lon="13.7882983"><ele>362.0</ele><time>2026-05-03T09:42:21.72Z</time></trkpt><trkpt lat="42.28731" lon="13.788335"><ele>362.0</ele><time>2026-05-03T09:42:22.72Z</time></trkpt><trkpt lat="42.2872017" lon="13.7883833"><ele>362.0</ele><time>2026-05-03T09:42:23.72Z</time></trkpt><trkpt lat="42.2871133" lon="13.7884467"><ele>362.0</ele><time>2026-05-03T09:42:24.719Z</time></trkpt><trkpt lat="42.2870367" lon="13.7885033"><ele>362.0</ele><time>2026-05-03T09:42:25.719Z</time></trkpt><trkpt lat="42.286965" lon="13.7885517"><ele>362.0</ele><time>2026-05-03T09:42:26.72Z</time></trkpt><trkpt lat="42.2869" lon="13.7886"><ele>362.0</ele><time>2026-05-03T09:42:27.72Z</time></trkpt><trkpt lat="42.286795" lon="13.7886717"><ele>362.0</ele><time>2026-05-03T09:42:29.719Z</time></trkpt><trkpt lat="42.2867117" lon="13.7887033"><ele>362.0</ele><time>2026-05-03T09:42:31.72Z</time></trkpt><trkpt lat="42.286645" lon="13.7886417"><ele>362.0</ele><time>2026-05-03T09:42:33.72Z</time></trkpt><trkpt lat="42.2866167" lon="13.788515"><ele>362.0</ele><time>2026-05-03T09:42:35.719Z</time></trkpt><trkpt lat="42.286615" lon="13.7883483"><ele>362.0</ele><time>2026-05-03T09:42:37.719Z</time></trkpt><trkpt lat="42.2866083" lon="13.7882483"><ele>361.20000000000005</ele><time>2026-05-03T09:42:38.72Z</time></trkpt><trkpt lat="42.2865967" lon="13.788135"><ele>360.4</ele><time>2026-05-03T09:42:39.72Z</time></trkpt><trkpt lat="42.2865833" lon="13.788"><ele>359.6</ele><time>2026-05-03T09:42:40.719Z</time></trkpt><trkpt lat="42.2865667" lon="13.787855"><ele>358.79999999999995</ele><time>2026-05-03T09:42:41.72Z</time></trkpt><trkpt lat="42.2865483" lon="13.7877017"><ele>358.0</ele><time>2026-05-03T09:42:42.72Z</time></trkpt><trkpt lat="42.2865317" lon="13.7875433"><ele>356.75</ele><time>2026-05-03T09:42:43.72Z</time></trkpt><trkpt lat="42.2865117" lon="13.7873783"><ele>355.5</ele><time>2026-05-03T09:42:44.719Z</time></trkpt><trkpt lat="42.2864983" lon="13.7872067"><ele>354.25</ele><time>2026-05-03T09:42:45.72Z</time></trkpt><trkpt lat="42.286475" lon="13.7870333"><ele>353.0</ele><time>2026-05-03T09:42:46.72Z</time></trkpt><trkpt lat="42.2864517" lon="13.7868533"><ele>350.75</ele><time>2026-05-03T09:42:47.719Z</time></trkpt><trkpt lat="42.2864233" lon="13.786675"><ele>348.5</ele><time>2026-05-03T09:42:48.719Z</time></trkpt><trkpt lat="42.2863883" lon="13.7864867"><ele>346.25</ele><time>2026-05-03T09:42:49.72Z</time></trkpt><trkpt lat="42.2863617" lon="13.78629"><ele>344.0</ele><time>2026-05-03T09:42:50.72Z</time></trkpt><trkpt lat="42.2863283" lon="13.7860933"><ele>343.75</ele><time>2026-05-03T09:42:51.72Z</time></trkpt><trkpt lat="42.2863017" lon="13.7858983"><ele>343.5</ele><time>2026-05-03T09:42:52.72Z</time></trkpt><trkpt lat="42.28627" lon="13.7857083"><ele>343.25</ele><time>2026-05-03T09:42:53.719Z</time></trkpt><trkpt lat="42.2862417" lon="13.7855333"><ele>343.0</ele><time>2026-05-03T09:42:54.72Z</time></trkpt><trkpt lat="42.2862183" lon="13.7853517"><ele>343.0</ele><time>2026-05-03T09:42:55.72Z</time></trkpt><trkpt lat="42.2861933" lon="13.785165"><ele>343.0</ele><time>2026-05-03T09:42:56.72Z</time></trkpt><trkpt lat="42.2861717" lon="13.7849667"><ele>343.0</ele><time>2026-05-03T09:42:57.719Z</time></trkpt><trkpt lat="42.2861483" lon="13.7847567"><ele>343.0</ele><time>2026-05-03T09:42:58.72Z</time></trkpt><trkpt lat="42.2861233" lon="13.7845533"><ele>343.66666666666663</ele><time>2026-05-03T09:42:59.72Z</time></trkpt><trkpt lat="42.286095" lon="13.7843433"><ele>344.3333333333333</ele><time>2026-05-03T09:43:00.72Z</time></trkpt><trkpt lat="42.2860733" lon="13.7841233"><ele>345.0</ele><time>2026-05-03T09:43:01.72Z</time></trkpt><trkpt lat="42.28605" lon="13.7839017"><ele>345.0</ele><time>2026-05-03T09:43:02.72Z</time></trkpt><trkpt lat="42.28602" lon="13.783695"><ele>345.0</ele><time>2026-05-03T09:43:03.719Z</time></trkpt><trkpt lat="42.2859983" lon="13.7834933"><ele>345.0</ele><time>2026-05-03T09:43:04.72Z</time></trkpt><trkpt lat="42.2859733" lon="13.78329"><ele>345.25</ele><time>2026-05-03T09:43:05.719Z</time></trkpt><trkpt lat="42.2859533" lon="13.7830883"><ele>345.5</ele><time>2026-05-03T09:43:06.719Z</time></trkpt><trkpt lat="42.2859283" lon="13.7828883"><ele>345.75</ele><time>2026-05-03T09:43:07.72Z</time></trkpt><trkpt lat="42.28591" lon="13.7826917"><ele>346.0</ele><time>2026-05-03T09:43:08.719Z</time></trkpt><trkpt lat="42.2858683" lon="13.7825033"><ele>345.25</ele><time>2026-05-03T09:43:09.72Z</time></trkpt><trkpt lat="42.28583" lon="13.7823167"><ele>344.5</ele><time>2026-05-03T09:43:10.719Z</time></trkpt><trkpt lat="42.2857733" lon="13.7821317"><ele>343.75</ele><time>2026-05-03T09:43:11.72Z</time></trkpt><trkpt lat="42.2856983" lon="13.7819483"><ele>343.0</ele><time>2026-05-03T09:43:12.72Z</time></trkpt><trkpt lat="42.2856167" lon="13.78176"><ele>343.3333333333333</ele><time>2026-05-03T09:43:13.719Z</time></trkpt><trkpt lat="42.2855383" lon="13.78157"><ele>343.6666666666667</ele><time>2026-05-03T09:43:14.719Z</time></trkpt><trkpt lat="42.2854533" lon="13.781375"><ele>344.0</ele><time>2026-05-03T09:43:15.719Z</time></trkpt><trkpt lat="42.285375" lon="13.7811733"><ele>343.6666666666667</ele><time>2026-05-03T09:43:16.719Z</time></trkpt><trkpt lat="42.2852917" lon="13.7809783"><ele>343.3333333333333</ele><time>2026-05-03T09:43:17.72Z</time></trkpt><trkpt lat="42.2852117" lon="13.7807717"><ele>343.0</ele><time>2026-05-03T09:43:18.72Z</time></trkpt><trkpt lat="42.285125" lon="13.780565"><ele>343.0</ele><time>2026-05-03T09:43:19.72Z</time></trkpt><trkpt lat="42.2850383" lon="13.78036"><ele>343.0</ele><time>2026-05-03T09:43:20.72Z</time></trkpt><trkpt lat="42.2849533" lon="13.7801533"><ele>343.0</ele><time>2026-05-03T09:43:21.719Z</time></trkpt><trkpt lat="42.2848583" lon="13.7799433"><ele>343.0</ele><time>2026-05-03T09:43:22.72Z</time></trkpt><trkpt lat="42.28477" lon="13.779735"><ele>343.0</ele><time>2026-05-03T09:43:23.72Z</time></trkpt><trkpt lat="42.284685" lon="13.77952"><ele>343.0</ele><time>2026-05-03T09:43:24.72Z</time></trkpt><trkpt lat="42.2845933" lon="13.779305"><ele>343.0</ele><time>2026-05-03T09:43:25.719Z</time></trkpt><trkpt lat="42.2845083" lon="13.7790817"><ele>343.0</ele><time>2026-05-03T09:43:26.72Z</time></trkpt><trkpt lat="42.284415" lon="13.77886"><ele>343.0</ele><time>2026-05-03T09:43:27.719Z</time></trkpt><trkpt lat="42.2843233" lon="13.7786417"><ele>343.3333333333333</ele><time>2026-05-03T09:43:28.719Z</time></trkpt><trkpt lat="42.2842317" lon="13.7784083"><ele>343.6666666666667</ele><time>2026-05-03T09:43:29.719Z</time></trkpt><trkpt lat="42.28414" lon="13.7781833"><ele>344.0</ele><time>2026-05-03T09:43:30.72Z</time></trkpt><trkpt lat="42.28405" lon="13.77796"><ele>344.0</ele><time>2026-05-03T09:43:31.719Z</time></trkpt><trkpt lat="42.2839567" lon="13.77773"><ele>344.0</ele><time>2026-05-03T09:43:32.72Z</time></trkpt><trkpt lat="42.283865" lon="13.77751"><ele>344.0</ele><time>2026-05-03T09:43:33.72Z</time></trkpt><trkpt lat="42.283775" lon="13.7772717"><ele>344.33333333333337</ele><time>2026-05-03T09:43:34.72Z</time></trkpt><trkpt lat="42.2836833" lon="13.7770333"><ele>344.6666666666667</ele><time>2026-05-03T09:43:35.72Z</time></trkpt><trkpt lat="42.283585" lon="13.77681"><ele>345.0</ele><time>2026-05-03T09:43:36.72Z</time></trkpt><trkpt lat="42.2834917" lon="13.7765833"><ele>345.0</ele><time>2026-05-03T09:43:37.719Z</time></trkpt><trkpt lat="42.2834" lon="13.7763583"><ele>345.0</ele><time>2026-05-03T09:43:38.719Z</time></trkpt><trkpt lat="42.2833033" lon="13.7761367"><ele>345.0</ele><time>2026-05-03T09:43:39.72Z</time></trkpt><trkpt lat="42.28322" lon="13.775925"><ele>345.0</ele><time>2026-05-03T09:43:40.719Z</time></trkpt><trkpt lat="42.2831367" lon="13.7757217"><ele>345.0</ele><time>2026-05-03T09:43:41.719Z</time></trkpt><trkpt lat="42.2830567" lon="13.7755283"><ele>345.0</ele><time>2026-05-03T09:43:42.72Z</time></trkpt><trkpt lat="42.282985" lon="13.775335"><ele>345.75</ele><time>2026-05-03T09:43:43.719Z</time></trkpt><trkpt lat="42.282915" lon="13.775155"><ele>346.5</ele><time>2026-05-03T09:43:44.72Z</time></trkpt><trkpt lat="42.2828233" lon="13.7750083"><ele>347.25</ele><time>2026-05-03T09:43:45.719Z</time></trkpt><trkpt lat="42.28272" lon="13.774875"><ele>348.0</ele><time>2026-05-03T09:43:46.719Z</time></trkpt><trkpt lat="42.2825933" lon="13.774765"><ele>348.0</ele><time>2026-05-03T09:43:47.72Z</time></trkpt><trkpt lat="42.2824467" lon="13.77469"><ele>348.0</ele><time>2026-05-03T09:43:48.72Z</time></trkpt><trkpt lat="42.2822833" lon="13.7746283"><ele>348.0</ele><time>2026-05-03T09:43:49.72Z</time></trkpt><trkpt lat="42.2821117" lon="13.77459"><ele>348.3333333333333</ele><time>2026-05-03T09:43:50.72Z</time></trkpt><trkpt lat="42.2819417" lon="13.7745617"><ele>348.66666666666663</ele><time>2026-05-03T09:43:51.72Z</time></trkpt><trkpt lat="42.2817917" lon="13.7745217"><ele>349.0</ele><time>2026-05-03T09:43:52.719Z</time></trkpt><trkpt lat="42.2816667" lon="13.7744433"><ele>349.5</ele><time>2026-05-03T09:43:53.719Z</time></trkpt><trkpt lat="42.2815483" lon="13.774345"><ele>350.0</ele><time>2026-05-03T09:43:54.72Z</time></trkpt><trkpt lat="42.2814467" lon="13.7742083"><ele>350.5</ele><time>2026-05-03T09:43:55.72Z</time></trkpt><trkpt lat="42.2813467" lon="13.77407"><ele>351.0</ele><time>2026-05-03T09:43:56.72Z</time></trkpt><trkpt lat="42.2812367" lon="13.7739133"><ele>351.0</ele><time>2026-05-03T09:43:57.72Z</time></trkpt><trkpt lat="42.2811117" lon="13.773765"><ele>351.0</ele><time>2026-05-03T09:43:58.72Z</time></trkpt><trkpt lat="42.2809933" lon="13.7736083"><ele>351.0</ele><time>2026-05-03T09:43:59.72Z</time></trkpt><trkpt lat="42.2808833" lon="13.7734267"><ele>353.3333333333333</ele><time>2026-05-03T09:44:00.72Z</time></trkpt><trkpt lat="42.280785" lon="13.7732483"><ele>355.66666666666663</ele><time>2026-05-03T09:44:01.719Z</time></trkpt><trkpt lat="42.2807017" lon="13.7730583"><ele>358.0</ele><time>2026-05-03T09:44:02.72Z</time></trkpt><trkpt lat="42.2806067" lon="13.772875"><ele>357.25</ele><time>2026-05-03T09:44:03.719Z</time></trkpt><trkpt lat="42.2805183" lon="13.7726933"><ele>356.5</ele><time>2026-05-03T09:44:04.72Z</time></trkpt><trkpt lat="42.2804417" lon="13.7725283"><ele>355.75</ele><time>2026-05-03T09:44:05.72Z</time></trkpt><trkpt lat="42.2803617" lon="13.7723817"><ele>355.0</ele><time>2026-05-03T09:44:06.72Z</time></trkpt><trkpt lat="42.2802767" lon="13.7722617"><ele>355.0</ele><time>2026-05-03T09:44:07.72Z</time></trkpt><trkpt lat="42.2801717" lon="13.7721633"><ele>355.0</ele><time>2026-05-03T09:44:08.72Z</time></trkpt><trkpt lat="42.2800533" lon="13.7720883"><ele>355.0</ele><time>2026-05-03T09:44:09.72Z</time></trkpt><trkpt lat="42.27994" lon="13.771995"><ele>355.0</ele><time>2026-05-03T09:44:10.719Z</time></trkpt><trkpt lat="42.27984" lon="13.7718917"><ele>355.5</ele><time>2026-05-03T09:44:11.719Z</time></trkpt><trkpt lat="42.2797383" lon="13.77179"><ele>356.0</ele><time>2026-05-03T09:44:12.719Z</time></trkpt><trkpt lat="42.27966" lon="13.7716733"><ele>356.5</ele><time>2026-05-03T09:44:13.72Z</time></trkpt><trkpt lat="42.2795917" lon="13.7715117"><ele>357.0</ele><time>2026-05-03T09:44:14.719Z</time></trkpt><trkpt lat="42.27953" lon="13.77135"><ele>357.0</ele><time>2026-05-03T09:44:15.72Z</time></trkpt><trkpt lat="42.2794683" lon="13.77118"><ele>357.0</ele><time>2026-05-03T09:44:16.719Z</time></trkpt><trkpt lat="42.2794033" lon="13.771005"><ele>357.0</ele><time>2026-05-03T09:44:17.72Z</time></trkpt><trkpt lat="42.2793483" lon="13.7708317"><ele>357.0</ele><time>2026-05-03T09:44:18.719Z</time></trkpt><trkpt lat="42.279285" lon="13.7706767"><ele>357.5</ele><time>2026-05-03T09:44:19.72Z</time></trkpt><trkpt lat="42.2792367" lon="13.7705183"><ele>358.0</ele><time>2026-05-03T09:44:20.72Z</time></trkpt><trkpt lat="42.279185" lon="13.7703617"><ele>358.5</ele><time>2026-05-03T09:44:21.72Z</time></trkpt><trkpt lat="42.279135" lon="13.770205"><ele>359.0</ele><time>2026-05-03T09:44:22.72Z</time></trkpt><trkpt lat="42.2790883" lon="13.7700533"><ele>359.2</ele><time>2026-05-03T09:44:23.719Z</time></trkpt><trkpt lat="42.27904" lon="13.7699067"><ele>359.4</ele><time>2026-05-03T09:44:24.719Z</time></trkpt><trkpt lat="42.2789983" lon="13.76977"><ele>359.6</ele><time>2026-05-03T09:44:25.72Z</time></trkpt><trkpt lat="42.2789533" lon="13.7696567"><ele>359.8</ele><time>2026-05-03T09:44:26.719Z</time></trkpt><trkpt lat="42.2789117" lon="13.769555"><ele>360.0</ele><time>2026-05-03T09:44:27.72Z</time></trkpt><trkpt lat="42.2788833" lon="13.7694767"><ele>360.0</ele><time>2026-05-03T09:44:28.719Z</time></trkpt><trkpt lat="42.2788583" lon="13.7693833"><ele>360.0</ele><time>2026-05-03T09:44:30.719Z</time></trkpt><trkpt lat="42.27879" lon="13.7693567"><ele>360.0</ele><time>2026-05-03T09:44:32.719Z</time></trkpt><trkpt lat="42.27866" lon="13.7694367"><ele>360.0</ele><time>2026-05-03T09:44:34.72Z</time></trkpt><trkpt lat="42.2785767" lon="13.7695283"><ele>360.0</ele><time>2026-05-03T09:44:35.719Z</time></trkpt><trkpt lat="42.2784833" lon="13.7696183"><ele>360.0</ele><time>2026-05-03T09:44:36.72Z</time></trkpt><trkpt lat="42.2783933" lon="13.7697283"><ele>360.0</ele><time>2026-05-03T09:44:37.719Z</time></trkpt><trkpt lat="42.278285" lon="13.7698433"><ele>360.0</ele><time>2026-05-03T09:44:38.72Z</time></trkpt><trkpt lat="42.2781733" lon="13.7699767"><ele>360.0</ele><time>2026-05-03T09:44:39.719Z</time></trkpt><trkpt lat="42.27806" lon="13.770105"><ele>358.5</ele><time>2026-05-03T09:44:40.72Z</time></trkpt><trkpt lat="42.2779467" lon="13.7702417"><ele>357.0</ele><time>2026-05-03T09:44:41.719Z</time></trkpt><trkpt lat="42.2778383" lon="13.770365"><ele>355.5</ele><time>2026-05-03T09:44:42.72Z</time></trkpt><trkpt lat="42.2777333" lon="13.7704833"><ele>354.0</ele><time>2026-05-03T09:44:43.719Z</time></trkpt><trkpt lat="42.2776367" lon="13.77059"><ele>354.0</ele><time>2026-05-03T09:44:44.72Z</time></trkpt><trkpt lat="42.2775283" lon="13.7706583"><ele>354.0</ele><time>2026-05-03T09:44:45.719Z</time></trkpt><trkpt lat="42.2774117" lon="13.7707067"><ele>354.0</ele><time>2026-05-03T09:44:46.719Z</time></trkpt><trkpt lat="42.2772883" lon="13.77072"><ele>354.0</ele><time>2026-05-03T09:44:47.72Z</time></trkpt><trkpt lat="42.2771517" lon="13.7707167"><ele>352.0</ele><time>2026-05-03T09:44:48.719Z</time></trkpt><trkpt lat="42.2770033" lon="13.7706967"><ele>350.0</ele><time>2026-05-03T09:44:49.72Z</time></trkpt><trkpt lat="42.2768483" lon="13.7706733"><ele>348.0</ele><time>2026-05-03T09:44:50.72Z</time></trkpt><trkpt lat="42.27668" lon="13.770655"><ele>348.0</ele><time>2026-05-03T09:44:51.719Z</time></trkpt><trkpt lat="42.2765167" lon="13.77064"><ele>348.0</ele><time>2026-05-03T09:44:52.719Z</time></trkpt><trkpt lat="42.27635" lon="13.77062"><ele>348.0</ele><time>2026-05-03T09:44:53.72Z</time></trkpt><trkpt lat="42.27619" lon="13.7705967"><ele>346.6666666666667</ele><time>2026-05-03T09:44:54.719Z</time></trkpt><trkpt lat="42.27603" lon="13.7705617"><ele>345.33333333333337</ele><time>2026-05-03T09:44:55.72Z</time></trkpt><trkpt lat="42.2758617" lon="13.7705117"><ele>344.0</ele><time>2026-05-03T09:44:56.719Z</time></trkpt><trkpt lat="42.2757017" lon="13.7704817"><ele>346.0</ele><time>2026-05-03T09:44:57.72Z</time></trkpt><trkpt lat="42.2755483" lon="13.77046"><ele>348.0</ele><time>2026-05-03T09:44:58.719Z</time></trkpt><trkpt lat="42.2754" lon="13.7704683"><ele>350.0</ele><time>2026-05-03T09:44:59.72Z</time></trkpt><trkpt lat="42.275265" lon="13.77052"><ele>352.0</ele><time>2026-05-03T09:45:00.719Z</time></trkpt><trkpt lat="42.2751417" lon="13.770595"><ele>352.0</ele><time>2026-05-03T09:45:01.72Z</time></trkpt><trkpt lat="42.27504" lon="13.7706883"><ele>352.0</ele><time>2026-05-03T09:45:02.72Z</time></trkpt><trkpt lat="42.2749617" lon="13.7707867"><ele>352.0</ele><time>2026-05-03T09:45:03.72Z</time></trkpt><trkpt lat="42.2749083" lon="13.7709217"><ele>352.0</ele><time>2026-05-03T09:45:04.719Z</time></trkpt><trkpt lat="42.27488" lon="13.7710967"><ele>353.25</ele><time>2026-05-03T09:45:05.72Z</time></trkpt><trkpt lat="42.2748483" lon="13.7712717"><ele>354.5</ele><time>2026-05-03T09:45:06.719Z</time></trkpt><trkpt lat="42.2748117" lon="13.7714383"><ele>355.75</ele><time>2026-05-03T09:45:07.72Z</time></trkpt><trkpt lat="42.2747783" lon="13.7716117"><ele>357.0</ele><time>2026-05-03T09:45:08.72Z</time></trkpt><trkpt lat="42.2747417" lon="13.7717917"><ele>356.25</ele><time>2026-05-03T09:45:09.72Z</time></trkpt><trkpt lat="42.2746883" lon="13.7719417"><ele>355.5</ele><time>2026-05-03T09:45:10.72Z</time></trkpt><trkpt lat="42.2746517" lon="13.7721167"><ele>354.75</ele><time>2026-05-03T09:45:11.72Z</time></trkpt><trkpt lat="42.27462" lon="13.7722783"><ele>354.0</ele><time>2026-05-03T09:45:12.72Z</time></trkpt><trkpt lat="42.274575" lon="13.772435"><ele>354.0</ele><time>2026-05-03T09:45:13.719Z</time></trkpt><trkpt lat="42.2745133" lon="13.7725817"><ele>354.0</ele><time>2026-05-03T09:45:14.719Z</time></trkpt><trkpt lat="42.2744283" lon="13.7727167"><ele>354.0</ele><time>2026-05-03T09:45:15.719Z</time></trkpt><trkpt lat="42.2743233" lon="13.7728533"><ele>354.0</ele><time>2026-05-03T09:45:16.719Z</time></trkpt><trkpt lat="42.2742017" lon="13.772995"><ele>353.3333333333333</ele><time>2026-05-03T09:45:17.72Z</time></trkpt><trkpt lat="42.2740817" lon="13.7731383"><ele>352.66666666666663</ele><time>2026-05-03T09:45:18.72Z</time></trkpt><trkpt lat="42.2739717" lon="13.7732683"><ele>352.0</ele><time>2026-05-03T09:45:19.72Z</time></trkpt><trkpt lat="42.27386" lon="13.7734"><ele>352.66666666666663</ele><time>2026-05-03T09:45:20.719Z</time></trkpt><trkpt lat="42.2737417" lon="13.77353"><ele>353.3333333333333</ele><time>2026-05-03T09:45:21.719Z</time></trkpt><trkpt lat="42.2736117" lon="13.7736717"><ele>354.0</ele><time>2026-05-03T09:45:22.72Z</time></trkpt><trkpt lat="42.2734883" lon="13.7738183"><ele>354.0</ele><time>2026-05-03T09:45:23.72Z</time></trkpt><trkpt lat="42.2733633" lon="13.7739583"><ele>354.0</ele><time>2026-05-03T09:45:24.719Z</time></trkpt><trkpt lat="42.2732467" lon="13.77411"><ele>354.0</ele><time>2026-05-03T09:45:25.719Z</time></trkpt><trkpt lat="42.2731283" lon="13.774275"><ele>355.0</ele><time>2026-05-03T09:45:26.719Z</time></trkpt><trkpt lat="42.2730283" lon="13.7744633"><ele>356.0</ele><time>2026-05-03T09:45:27.719Z</time></trkpt><trkpt lat="42.272935" lon="13.7746467"><ele>357.0</ele><time>2026-05-03T09:45:28.72Z</time></trkpt><trkpt lat="42.272835" lon="13.7748333"><ele>357.0</ele><time>2026-05-03T09:45:29.719Z</time></trkpt><trkpt lat="42.2727383" lon="13.77499"><ele>357.0</ele><time>2026-05-03T09:45:30.72Z</time></trkpt><trkpt lat="42.2726583" lon="13.7751167"><ele>357.0</ele><time>2026-05-03T09:45:31.72Z</time></trkpt><trkpt lat="42.2725967" lon="13.77522"><ele>357.0</ele><time>2026-05-03T09:45:32.72Z</time></trkpt><trkpt lat="42.2725483" lon="13.7752867"><ele>357.0</ele><time>2026-05-03T09:45:33.72Z</time></trkpt><trkpt lat="42.2724733" lon="13.775405"><ele>356.20000000000005</ele><time>2026-05-03T09:45:35.719Z</time></trkpt><trkpt lat="42.2723967" lon="13.7755433"><ele>355.4</ele><time>2026-05-03T09:45:37.72Z</time></trkpt><trkpt lat="42.27235" lon="13.7756433"><ele>354.6</ele><time>2026-05-03T09:45:38.72Z</time></trkpt><trkpt lat="42.27231" lon="13.7757517"><ele>353.79999999999995</ele><time>2026-05-03T09:45:39.719Z</time></trkpt><trkpt lat="42.2722767" lon="13.7758817"><ele>353.0</ele><time>2026-05-03T09:45:40.72Z</time></trkpt><trkpt lat="42.2722517" lon="13.77604"><ele>352.5</ele><time>2026-05-03T09:45:41.719Z</time></trkpt><trkpt lat="42.2722367" lon="13.7762217"><ele>352.0</ele><time>2026-05-03T09:45:42.719Z</time></trkpt><trkpt lat="42.2722117" lon="13.776415"><ele>351.5</ele><time>2026-05-03T09:45:43.719Z</time></trkpt><trkpt lat="42.2721817" lon="13.776615"><ele>351.0</ele><time>2026-05-03T09:45:44.719Z</time></trkpt><trkpt lat="42.2721733" lon="13.77681"><ele>350.25</ele><time>2026-05-03T09:45:45.719Z</time></trkpt><trkpt lat="42.27216" lon="13.777015"><ele>349.5</ele><time>2026-05-03T09:45:46.718Z</time></trkpt><trkpt lat="42.27214" lon="13.777215"><ele>348.75</ele><time>2026-05-03T09:45:47.719Z</time></trkpt><trkpt lat="42.272125" lon="13.7774067"><ele>348.0</ele><time>2026-05-03T09:45:48.718Z</time></trkpt><trkpt lat="42.2721033" lon="13.777605"><ele>347.3333333333333</ele><time>2026-05-03T09:45:49.719Z</time></trkpt><trkpt lat="42.2720883" lon="13.7778133"><ele>346.66666666666663</ele><time>2026-05-03T09:45:50.719Z</time></trkpt><trkpt lat="42.2720617" lon="13.778035"><ele>346.0</ele><time>2026-05-03T09:45:51.718Z</time></trkpt><trkpt lat="42.2720417" lon="13.7782533"><ele>346.0</ele><time>2026-05-03T09:45:52.719Z</time></trkpt><trkpt lat="42.27202" lon="13.7784767"><ele>346.0</ele><time>2026-05-03T09:45:53.719Z</time></trkpt><trkpt lat="42.271995" lon="13.7786983"><ele>346.0</ele><time>2026-05-03T09:45:54.718Z</time></trkpt><trkpt lat="42.2719767" lon="13.7789133"><ele>345.25</ele><time>2026-05-03T09:45:55.719Z</time></trkpt><trkpt lat="42.2719533" lon="13.7791267"><ele>344.5</ele><time>2026-05-03T09:45:56.718Z</time></trkpt><trkpt lat="42.27193" lon="13.77932"><ele>343.75</ele><time>2026-05-03T09:45:57.718Z</time></trkpt><trkpt lat="42.2719033" lon="13.7794933"><ele>343.0</ele><time>2026-05-03T09:45:58.718Z</time></trkpt><trkpt lat="42.2718783" lon="13.7796333"><ele>342.25</ele><time>2026-05-03T09:45:59.718Z</time></trkpt><trkpt lat="42.2718317" lon="13.7797667"><ele>341.5</ele><time>2026-05-03T09:46:00.719Z</time></trkpt><trkpt lat="42.2717833" lon="13.7798917"><ele>340.75</ele><time>2026-05-03T09:46:01.718Z</time></trkpt><trkpt lat="42.271715" lon="13.7800117"><ele>340.0</ele><time>2026-05-03T09:46:02.719Z</time></trkpt><trkpt lat="42.27163" lon="13.780145"><ele>340.25</ele><time>2026-05-03T09:46:03.719Z</time></trkpt><trkpt lat="42.27154" lon="13.7802683"><ele>340.5</ele><time>2026-05-03T09:46:04.719Z</time></trkpt><trkpt lat="42.2714467" lon="13.7804083"><ele>340.75</ele><time>2026-05-03T09:46:05.718Z</time></trkpt><trkpt lat="42.2713583" lon="13.7805267"><ele>341.0</ele><time>2026-05-03T09:46:06.719Z</time></trkpt><trkpt lat="42.2712767" lon="13.7806483"><ele>341.0</ele><time>2026-05-03T09:46:07.718Z</time></trkpt><trkpt lat="42.271205" lon="13.780755"><ele>341.0</ele><time>2026-05-03T09:46:08.719Z</time></trkpt><trkpt lat="42.27115" lon="13.7808417"><ele>341.0</ele><time>2026-05-03T09:46:09.719Z</time></trkpt><trkpt lat="42.2710983" lon="13.7809083"><ele>341.0</ele><time>2026-05-03T09:46:10.719Z</time></trkpt><trkpt lat="42.2710533" lon="13.7809767"><ele>341.0</ele><time>2026-05-03T09:46:11.719Z</time></trkpt><trkpt lat="42.270995" lon="13.781055"><ele>341.0</ele><time>2026-05-03T09:46:14.719Z</time></trkpt><trkpt lat="42.2709167" lon="13.7811433"><ele>340.0</ele><time>2026-05-03T09:46:16.719Z</time></trkpt><trkpt lat="42.2708617" lon="13.781215"><ele>339.0</ele><time>2026-05-03T09:46:17.719Z</time></trkpt><trkpt lat="42.2707867" lon="13.7813117"><ele>338.0</ele><time>2026-05-03T09:46:18.718Z</time></trkpt><trkpt lat="42.270695" lon="13.781385"><ele>337.0</ele><time>2026-05-03T09:46:19.719Z</time></trkpt><trkpt lat="42.2705817" lon="13.781465"><ele>336.0</ele><time>2026-05-03T09:46:20.719Z</time></trkpt><trkpt lat="42.2704683" lon="13.7815267"><ele>336.0</ele><time>2026-05-03T09:46:21.719Z</time></trkpt><trkpt lat="42.2703583" lon="13.7816"><ele>336.0</ele><time>2026-05-03T09:46:22.719Z</time></trkpt><trkpt lat="42.270245" lon="13.781695"><ele>336.0</ele><time>2026-05-03T09:46:23.718Z</time></trkpt><trkpt lat="42.2701433" lon="13.78177"><ele>336.0</ele><time>2026-05-03T09:46:24.719Z</time></trkpt><trkpt lat="42.2700617" lon="13.7818267"><ele>335.5</ele><time>2026-05-03T09:46:25.719Z</time></trkpt><trkpt lat="42.2699983" lon="13.7818683"><ele>335.0</ele><time>2026-05-03T09:46:26.718Z</time></trkpt><trkpt lat="42.2699317" lon="13.7819083"><ele>334.5</ele><time>2026-05-03T09:46:27.719Z</time></trkpt><trkpt lat="42.269855" lon="13.7819433"><ele>334.0</ele><time>2026-05-03T09:46:28.719Z</time></trkpt><trkpt lat="42.2697783" lon="13.781965"><ele>333.5</ele><time>2026-05-03T09:46:29.719Z</time></trkpt><trkpt lat="42.2696867" lon="13.7819933"><ele>333.0</ele><time>2026-05-03T09:46:30.719Z</time></trkpt><trkpt lat="42.2695983" lon="13.7820217"><ele>334.4</ele><time>2026-05-03T09:46:31.719Z</time></trkpt><trkpt lat="42.2695117" lon="13.7820633"><ele>335.79999999999995</ele><time>2026-05-03T09:46:32.719Z</time></trkpt><trkpt lat="42.2694283" lon="13.7821483"><ele>337.2</ele><time>2026-05-03T09:46:33.718Z</time></trkpt><trkpt lat="42.2693833" lon="13.782255"><ele>338.6</ele><time>2026-05-03T09:46:34.719Z</time></trkpt><trkpt lat="42.2693517" lon="13.7823783"><ele>340.0</ele><time>2026-05-03T09:46:35.718Z</time></trkpt><trkpt lat="42.2693267" lon="13.7825283"><ele>340.0</ele><time>2026-05-03T09:46:36.719Z</time></trkpt><trkpt lat="42.269295" lon="13.7826717"><ele>340.0</ele><time>2026-05-03T09:46:37.718Z</time></trkpt><trkpt lat="42.269275" lon="13.782825"><ele>340.0</ele><time>2026-05-03T09:46:38.719Z</time></trkpt><trkpt lat="42.2692483" lon="13.782985"><ele>340.0</ele><time>2026-05-03T09:46:39.718Z</time></trkpt><trkpt lat="42.2692217" lon="13.7831483"><ele>340.0</ele><time>2026-05-03T09:46:40.719Z</time></trkpt><trkpt lat="42.269185" lon="13.783325"><ele>340.0</ele><time>2026-05-03T09:46:41.718Z</time></trkpt><trkpt lat="42.269145" lon="13.7834983"><ele>340.0</ele><time>2026-05-03T09:46:42.719Z</time></trkpt><trkpt lat="42.2690967" lon="13.7836467"><ele>340.0</ele><time>2026-05-03T09:46:43.719Z</time></trkpt><trkpt lat="42.2690333" lon="13.7837983"><ele>340.0</ele><time>2026-05-03T09:46:44.718Z</time></trkpt><trkpt lat="42.2689717" lon="13.7839667"><ele>340.0</ele><time>2026-05-03T09:46:45.718Z</time></trkpt><trkpt lat="42.2688917" lon="13.7841383"><ele>340.0</ele><time>2026-05-03T09:46:46.718Z</time></trkpt><trkpt lat="42.2688017" lon="13.7843083"><ele>340.0</ele><time>2026-05-03T09:46:47.719Z</time></trkpt><trkpt lat="42.2687133" lon="13.7844667"><ele>341.0</ele><time>2026-05-03T09:46:48.718Z</time></trkpt><trkpt lat="42.26861" lon="13.7846217"><ele>342.0</ele><time>2026-05-03T09:46:49.719Z</time></trkpt><trkpt lat="42.2684983" lon="13.7847733"><ele>343.0</ele><time>2026-05-03T09:46:50.719Z</time></trkpt><trkpt lat="42.2683883" lon="13.7849"><ele>343.0</ele><time>2026-05-03T09:46:51.718Z</time></trkpt><trkpt lat="42.2682667" lon="13.785015"><ele>343.0</ele><time>2026-05-03T09:46:52.719Z</time></trkpt><trkpt lat="42.2681467" lon="13.7851317"><ele>343.0</ele><time>2026-05-03T09:46:53.718Z</time></trkpt><trkpt lat="42.2680183" lon="13.78523"><ele>343.0</ele><time>2026-05-03T09:46:54.718Z</time></trkpt><trkpt lat="42.2678917" lon="13.7853333"><ele>344.0</ele><time>2026-05-03T09:46:55.718Z</time></trkpt><trkpt lat="42.2677667" lon="13.7854317"><ele>345.0</ele><time>2026-05-03T09:46:56.718Z</time></trkpt><trkpt lat="42.2676433" lon="13.7855367"><ele>346.0</ele><time>2026-05-03T09:46:57.719Z</time></trkpt><trkpt lat="42.2675067" lon="13.7856467"><ele>347.0</ele><time>2026-05-03T09:46:58.719Z</time></trkpt><trkpt lat="42.267395" lon="13.785775"><ele>347.0</ele><time>2026-05-03T09:46:59.718Z</time></trkpt><trkpt lat="42.2672883" lon="13.78591"><ele>347.0</ele><time>2026-05-03T09:47:00.719Z</time></trkpt><trkpt lat="42.2671767" lon="13.7860417"><ele>347.0</ele><time>2026-05-03T09:47:01.719Z</time></trkpt><trkpt lat="42.2670567" lon="13.78618"><ele>347.33333333333337</ele><time>2026-05-03T09:47:02.719Z</time></trkpt><trkpt lat="42.2669417" lon="13.78632"><ele>347.6666666666667</ele><time>2026-05-03T09:47:03.719Z</time></trkpt><trkpt lat="42.2668217" lon="13.78646"><ele>348.0</ele><time>2026-05-03T09:47:04.718Z</time></trkpt><trkpt lat="42.2667083" lon="13.7866067"><ele>348.0</ele><time>2026-05-03T09:47:05.719Z</time></trkpt><trkpt lat="42.2665917" lon="13.7867683"><ele>348.0</ele><time>2026-05-03T09:47:06.719Z</time></trkpt><trkpt lat="42.26649" lon="13.7869417"><ele>348.0</ele><time>2026-05-03T09:47:07.719Z</time></trkpt><trkpt lat="42.26639" lon="13.7871183"><ele>347.6666666666667</ele><time>2026-05-03T09:47:08.719Z</time></trkpt><trkpt lat="42.2663033" lon="13.7873033"><ele>347.33333333333337</ele><time>2026-05-03T09:47:09.719Z</time></trkpt><trkpt lat="42.2662133" lon="13.7874983"><ele>347.0</ele><time>2026-05-03T09:47:10.718Z</time></trkpt><trkpt lat="42.2661217" lon="13.787685"><ele>347.0</ele><time>2026-05-03T09:47:11.718Z</time></trkpt><trkpt lat="42.2660217" lon="13.7878617"><ele>347.0</ele><time>2026-05-03T09:47:12.718Z</time></trkpt><trkpt lat="42.2659217" lon="13.7880367"><ele>347.0</ele><time>2026-05-03T09:47:13.719Z</time></trkpt><trkpt lat="42.265815" lon="13.7882183"><ele>347.0</ele><time>2026-05-03T09:47:14.719Z</time></trkpt><trkpt lat="42.2657167" lon="13.7883933"><ele>347.0</ele><time>2026-05-03T09:47:15.719Z</time></trkpt><trkpt lat="42.2656083" lon="13.7885617"><ele>347.0</ele><time>2026-05-03T09:47:16.718Z</time></trkpt><trkpt lat="42.2655" lon="13.7887267"><ele>347.0</ele><time>2026-05-03T09:47:17.719Z</time></trkpt><trkpt lat="42.2654067" lon="13.7888983"><ele>347.0</ele><time>2026-05-03T09:47:18.719Z</time></trkpt><trkpt lat="42.2653417" lon="13.78905"><ele>347.0</ele><time>2026-05-03T09:47:19.719Z</time></trkpt><trkpt lat="42.2652817" lon="13.789205"><ele>347.0</ele><time>2026-05-03T09:47:20.719Z</time></trkpt><trkpt lat="42.2652333" lon="13.7893683"><ele>347.0</ele><time>2026-05-03T09:47:21.719Z</time></trkpt><trkpt lat="42.265185" lon="13.7895217"><ele>347.0</ele><time>2026-05-03T09:47:22.719Z</time></trkpt><trkpt lat="42.2651383" lon="13.7896833"><ele>347.0</ele><time>2026-05-03T09:47:23.719Z</time></trkpt><trkpt lat="42.2650817" lon="13.78985"><ele>347.0</ele><time>2026-05-03T09:47:24.719Z</time></trkpt><trkpt lat="42.265025" lon="13.79001"><ele>346.5</ele><time>2026-05-03T09:47:25.719Z</time></trkpt><trkpt lat="42.2649633" lon="13.7901783"><ele>346.0</ele><time>2026-05-03T09:47:26.719Z</time></trkpt><trkpt lat="42.2649017" lon="13.7903533"><ele>345.5</ele><time>2026-05-03T09:47:27.719Z</time></trkpt><trkpt lat="42.2648417" lon="13.7905383"><ele>345.0</ele><time>2026-05-03T09:47:28.718Z</time></trkpt><trkpt lat="42.264785" lon="13.7907283"><ele>346.3333333333333</ele><time>2026-05-03T09:47:29.718Z</time></trkpt><trkpt lat="42.2647267" lon="13.790925"><ele>347.66666666666663</ele><time>2026-05-03T09:47:30.719Z</time></trkpt><trkpt lat="42.2646567" lon="13.791125"><ele>349.0</ele><time>2026-05-03T09:47:31.719Z</time></trkpt><trkpt lat="42.26459" lon="13.7913317"><ele>349.0</ele><time>2026-05-03T09:47:32.719Z</time></trkpt><trkpt lat="42.2645233" lon="13.7915317"><ele>349.0</ele><time>2026-05-03T09:47:33.718Z</time></trkpt><trkpt lat="42.2644683" lon="13.791735"><ele>349.0</ele><time>2026-05-03T09:47:34.718Z</time></trkpt><trkpt lat="42.2644083" lon="13.791935"><ele>348.0</ele><time>2026-05-03T09:47:35.719Z</time></trkpt><trkpt lat="42.2643533" lon="13.7921317"><ele>347.0</ele><time>2026-05-03T09:47:36.719Z</time></trkpt><trkpt lat="42.2642933" lon="13.7923383"><ele>346.0</ele><time>2026-05-03T09:47:37.719Z</time></trkpt><trkpt lat="42.26424" lon="13.7925433"><ele>345.5</ele><time>2026-05-03T09:47:38.719Z</time></trkpt><trkpt lat="42.264195" lon="13.79275"><ele>345.0</ele><time>2026-05-03T09:47:39.718Z</time></trkpt><trkpt lat="42.2641417" lon="13.79293"><ele>344.5</ele><time>2026-05-03T09:47:40.718Z</time></trkpt><trkpt lat="42.2640783" lon="13.7931"><ele>344.0</ele><time>2026-05-03T09:47:41.719Z</time></trkpt><trkpt lat="42.2640183" lon="13.7932733"><ele>344.0</ele><time>2026-05-03T09:47:42.719Z</time></trkpt><trkpt lat="42.2639683" lon="13.7934483"><ele>344.0</ele><time>2026-05-03T09:47:43.718Z</time></trkpt><trkpt lat="42.2639183" lon="13.7936217"><ele>344.0</ele><time>2026-05-03T09:47:44.719Z</time></trkpt><trkpt lat="42.2638617" lon="13.7937917"><ele>344.0</ele><time>2026-05-03T09:47:45.719Z</time></trkpt><trkpt lat="42.2638083" lon="13.793965"><ele>344.5</ele><time>2026-05-03T09:47:46.719Z</time></trkpt><trkpt lat="42.2637483" lon="13.7941233"><ele>345.0</ele><time>2026-05-03T09:47:47.719Z</time></trkpt><trkpt lat="42.2636867" lon="13.79428"><ele>345.5</ele><time>2026-05-03T09:47:48.719Z</time></trkpt><trkpt lat="42.2636283" lon="13.7944317"><ele>346.0</ele><time>2026-05-03T09:47:49.719Z</time></trkpt><trkpt lat="42.2635467" lon="13.79458"><ele>345.0</ele><time>2026-05-03T09:47:50.719Z</time></trkpt><trkpt lat="42.263455" lon="13.7947183"><ele>344.0</ele><time>2026-05-03T09:47:51.718Z</time></trkpt><trkpt lat="42.263355" lon="13.7948633"><ele>343.0</ele><time>2026-05-03T09:47:52.719Z</time></trkpt><trkpt lat="42.2632633" lon="13.79502"><ele>342.0</ele><time>2026-05-03T09:47:53.718Z</time></trkpt><trkpt lat="42.2631783" lon="13.7951567"><ele>343.0</ele><time>2026-05-03T09:47:54.719Z</time></trkpt><trkpt lat="42.2631017" lon="13.795295"><ele>344.0</ele><time>2026-05-03T09:47:55.719Z</time></trkpt><trkpt lat="42.2630217" lon="13.7954217"><ele>345.0</ele><time>2026-05-03T09:47:56.718Z</time></trkpt><trkpt lat="42.262955" lon="13.7955567"><ele>346.0</ele><time>2026-05-03T09:47:57.718Z</time></trkpt><trkpt lat="42.2628883" lon="13.7956817"><ele>346.0</ele><time>2026-05-03T09:47:58.718Z</time></trkpt><trkpt lat="42.262825" lon="13.7957833"><ele>346.0</ele><time>2026-05-03T09:47:59.719Z</time></trkpt><trkpt lat="42.2627633" lon="13.795865"><ele>346.0</ele><time>2026-05-03T09:48:00.718Z</time></trkpt><trkpt lat="42.2627033" lon="13.7959433"><ele>346.0</ele><time>2026-05-03T09:48:01.718Z</time></trkpt><trkpt lat="42.2626517" lon="13.7960083"><ele>346.0</ele><time>2026-05-03T09:48:02.719Z</time></trkpt><trkpt lat="42.26261" lon="13.79608"><ele>346.0</ele><time>2026-05-03T09:48:03.718Z</time></trkpt><trkpt lat="42.26257" lon="13.7961767"><ele>345.6</ele><time>2026-05-03T09:48:05.719Z</time></trkpt><trkpt lat="42.26261" lon="13.7962933"><ele>345.20000000000005</ele><time>2026-05-03T09:48:08.719Z</time></trkpt><trkpt lat="42.2627133" lon="13.7963583"><ele>344.79999999999995</ele><time>2026-05-03T09:48:10.718Z</time></trkpt><trkpt lat="42.2627917" lon="13.7963667"><ele>344.4</ele><time>2026-05-03T09:48:11.719Z</time></trkpt><trkpt lat="42.2628833" lon="13.79636"><ele>344.0</ele><time>2026-05-03T09:48:12.719Z</time></trkpt><trkpt lat="42.2629817" lon="13.7963633"><ele>344.0</ele><time>2026-05-03T09:48:13.719Z</time></trkpt><trkpt lat="42.2630917" lon="13.7963867"><ele>344.0</ele><time>2026-05-03T09:48:14.719Z</time></trkpt><trkpt lat="42.263205" lon="13.7964083"><ele>344.0</ele><time>2026-05-03T09:48:15.719Z</time></trkpt><trkpt lat="42.263325" lon="13.796435"><ele>344.0</ele><time>2026-05-03T09:48:16.719Z</time></trkpt><trkpt lat="42.2634417" lon="13.796465"><ele>343.0</ele><time>2026-05-03T09:48:17.719Z</time></trkpt><trkpt lat="42.2635617" lon="13.796485"><ele>342.0</ele><time>2026-05-03T09:48:18.719Z</time></trkpt><trkpt lat="42.26367" lon="13.7965217"><ele>341.0</ele><time>2026-05-03T09:48:19.719Z</time></trkpt><trkpt lat="42.26377" lon="13.7965483"><ele>340.0</ele><time>2026-05-03T09:48:20.718Z</time></trkpt><trkpt lat="42.2638767" lon="13.79657"><ele>339.0</ele><time>2026-05-03T09:48:21.718Z</time></trkpt><trkpt lat="42.2639717" lon="13.7965867"><ele>338.2</ele><time>2026-05-03T09:48:22.718Z</time></trkpt><trkpt lat="42.264075" lon="13.7966"><ele>337.4</ele><time>2026-05-03T09:48:23.718Z</time></trkpt><trkpt lat="42.2641667" lon="13.796625"><ele>336.6</ele><time>2026-05-03T09:48:24.719Z</time></trkpt><trkpt lat="42.2642633" lon="13.7966517"><ele>335.8</ele><time>2026-05-03T09:48:25.719Z</time></trkpt><trkpt lat="42.2643533" lon="13.796695"><ele>335.0</ele><time>2026-05-03T09:48:26.719Z</time></trkpt><trkpt lat="42.2644417" lon="13.796755"><ele>335.0</ele><time>2026-05-03T09:48:27.718Z</time></trkpt><trkpt lat="42.2645183" lon="13.796825"><ele>335.0</ele><time>2026-05-03T09:48:28.718Z</time></trkpt><trkpt lat="42.264585" lon="13.7969083"><ele>335.0</ele><time>2026-05-03T09:48:29.718Z</time></trkpt><trkpt lat="42.2646567" lon="13.7969917"><ele>335.0</ele><time>2026-05-03T09:48:30.719Z</time></trkpt><trkpt lat="42.26472" lon="13.7970867"><ele>335.0</ele><time>2026-05-03T09:48:31.719Z</time></trkpt><trkpt lat="42.26477" lon="13.797195"><ele>333.6</ele><time>2026-05-03T09:48:32.718Z</time></trkpt><trkpt lat="42.2648017" lon="13.797325"><ele>332.2</ele><time>2026-05-03T09:48:33.718Z</time></trkpt><trkpt lat="42.2648217" lon="13.7974667"><ele>330.79999999999995</ele><time>2026-05-03T09:48:34.719Z</time></trkpt><trkpt lat="42.2648367" lon="13.7976183"><ele>329.4</ele><time>2026-05-03T09:48:35.718Z</time></trkpt><trkpt lat="42.26485" lon="13.797765"><ele>328.0</ele><time>2026-05-03T09:48:36.719Z</time></trkpt><trkpt lat="42.2648617" lon="13.7979017"><ele>328.16666666666663</ele><time>2026-05-03T09:48:37.719Z</time></trkpt><trkpt lat="42.2648767" lon="13.798035"><ele>328.3333333333333</ele><time>2026-05-03T09:48:38.719Z</time></trkpt><trkpt lat="42.2648867" lon="13.79815"><ele>328.5</ele><time>2026-05-03T09:48:39.719Z</time></trkpt><trkpt lat="42.2648933" lon="13.798245"><ele>328.6666666666667</ele><time>2026-05-03T09:48:40.719Z</time></trkpt><trkpt lat="42.2649033" lon="13.7983367"><ele>328.83333333333337</ele><time>2026-05-03T09:48:41.718Z</time></trkpt><trkpt lat="42.2649233" lon="13.7984267"><ele>329.0</ele><time>2026-05-03T09:48:42.719Z</time></trkpt><trkpt lat="42.2649567" lon="13.798515"><ele>329.0</ele><time>2026-05-03T09:48:43.718Z</time></trkpt><trkpt lat="42.2649917" lon="13.7986017"><ele>329.0</ele><time>2026-05-03T09:48:44.718Z</time></trkpt><trkpt lat="42.2650217" lon="13.79869"><ele>329.0</ele><time>2026-05-03T09:48:45.719Z</time></trkpt><trkpt lat="42.26508" lon="13.798845"><ele>329.0</ele><time>2026-05-03T09:48:47.718Z</time></trkpt><trkpt lat="42.265125" lon="13.7989767"><ele>329.0</ele><time>2026-05-03T09:48:49.718Z</time></trkpt><trkpt lat="42.265145" lon="13.7991033"><ele>329.0</ele><time>2026-05-03T09:48:51.718Z</time></trkpt><trkpt lat="42.26513" lon="13.79921"><ele>329.0</ele><time>2026-05-03T09:48:53.719Z</time></trkpt><trkpt lat="42.2650367" lon="13.7992817"><ele>329.0</ele><time>2026-05-03T09:48:55.718Z</time></trkpt><trkpt lat="42.264965" lon="13.7993117"><ele>329.0</ele><time>2026-05-03T09:48:56.718Z</time></trkpt><trkpt lat="42.2648683" lon="13.7993233"><ele>329.0</ele><time>2026-05-03T09:48:57.719Z</time></trkpt><trkpt lat="42.2647717" lon="13.7993167"><ele>329.4</ele><time>2026-05-03T09:48:58.719Z</time></trkpt><trkpt lat="42.2646817" lon="13.7993083"><ele>329.79999999999995</ele><time>2026-05-03T09:48:59.718Z</time></trkpt><trkpt lat="42.2645883" lon="13.7993067"><ele>330.20000000000005</ele><time>2026-05-03T09:49:00.718Z</time></trkpt><trkpt lat="42.2644967" lon="13.79933"><ele>330.6</ele><time>2026-05-03T09:49:01.718Z</time></trkpt><trkpt lat="42.264405" lon="13.799375"><ele>331.0</ele><time>2026-05-03T09:49:02.719Z</time></trkpt><trkpt lat="42.2643167" lon="13.7994267"><ele>331.6</ele><time>2026-05-03T09:49:03.719Z</time></trkpt><trkpt lat="42.2642483" lon="13.7995217"><ele>332.20000000000005</ele><time>2026-05-03T09:49:04.718Z</time></trkpt><trkpt lat="42.264175" lon="13.7996167"><ele>332.79999999999995</ele><time>2026-05-03T09:49:05.718Z</time></trkpt><trkpt lat="42.2641067" lon="13.7997083"><ele>333.4</ele><time>2026-05-03T09:49:06.719Z</time></trkpt><trkpt lat="42.26402" lon="13.7997717"><ele>334.0</ele><time>2026-05-03T09:49:07.719Z</time></trkpt><trkpt lat="42.2639167" lon="13.7998217"><ele>334.0</ele><time>2026-05-03T09:49:08.719Z</time></trkpt><trkpt lat="42.263815" lon="13.7998817"><ele>334.0</ele><time>2026-05-03T09:49:09.719Z</time></trkpt><trkpt lat="42.2637117" lon="13.7999433"><ele>334.0</ele><time>2026-05-03T09:49:10.719Z</time></trkpt><trkpt lat="42.2636" lon="13.79999"><ele>334.0</ele><time>2026-05-03T09:49:11.719Z</time></trkpt><trkpt lat="42.2634917" lon="13.8000567"><ele>334.0</ele><time>2026-05-03T09:49:12.718Z</time></trkpt><trkpt lat="42.2633867" lon="13.8000883"><ele>334.0</ele><time>2026-05-03T09:49:13.719Z</time></trkpt><trkpt lat="42.2632833" lon="13.8001"><ele>334.0</ele><time>2026-05-03T09:49:14.718Z</time></trkpt><trkpt lat="42.2631833" lon="13.8001117"><ele>334.0</ele><time>2026-05-03T09:49:15.719Z</time></trkpt><trkpt lat="42.2630817" lon="13.8001033"><ele>334.0</ele><time>2026-05-03T09:49:16.719Z</time></trkpt><trkpt lat="42.2629867" lon="13.80007"><ele>333.79999999999995</ele><time>2026-05-03T09:49:17.718Z</time></trkpt><trkpt lat="42.2628967" lon="13.8000183"><ele>333.59999999999997</ele><time>2026-05-03T09:49:18.717Z</time></trkpt><trkpt lat="42.2628117" lon="13.7999567"><ele>333.4</ele><time>2026-05-03T09:49:19.717Z</time></trkpt><trkpt lat="42.2627217" lon="13.7999083"><ele>333.2</ele><time>2026-05-03T09:49:20.718Z</time></trkpt><trkpt lat="42.2626267" lon="13.7998967"><ele>333.0</ele><time>2026-05-03T09:49:21.718Z</time></trkpt><trkpt lat="42.26251" lon="13.7998833"><ele>333.0</ele><time>2026-05-03T09:49:22.718Z</time></trkpt><trkpt lat="42.262385" lon="13.799865"><ele>333.0</ele><time>2026-05-03T09:49:23.717Z</time></trkpt><trkpt lat="42.2622583" lon="13.799845"><ele>333.0</ele><time>2026-05-03T09:49:24.718Z</time></trkpt><trkpt lat="42.2621383" lon="13.7998317"><ele>333.0</ele><time>2026-05-03T09:49:25.717Z</time></trkpt><trkpt lat="42.2620333" lon="13.7998183"><ele>332.79999999999995</ele><time>2026-05-03T09:49:26.718Z</time></trkpt><trkpt lat="42.261925" lon="13.7998017"><ele>332.6</ele><time>2026-05-03T09:49:27.718Z</time></trkpt><trkpt lat="42.261835" lon="13.7998117"><ele>332.4</ele><time>2026-05-03T09:49:28.718Z</time></trkpt><trkpt lat="42.261735" lon="13.7998417"><ele>332.20000000000005</ele><time>2026-05-03T09:49:29.718Z</time></trkpt><trkpt lat="42.2616433" lon="13.7998983"><ele>332.0</ele><time>2026-05-03T09:49:30.718Z</time></trkpt><trkpt lat="42.2615433" lon="13.7999817"><ele>332.0</ele><time>2026-05-03T09:49:31.718Z</time></trkpt><trkpt lat="42.2614383" lon="13.800065"><ele>332.0</ele><time>2026-05-03T09:49:32.718Z</time></trkpt><trkpt lat="42.2613383" lon="13.8001583"><ele>332.0</ele><time>2026-05-03T09:49:33.717Z</time></trkpt><trkpt lat="42.2612567" lon="13.8002383"><ele>332.0</ele><time>2026-05-03T09:49:34.717Z</time></trkpt><trkpt lat="42.2611683" lon="13.80031"><ele>332.0</ele><time>2026-05-03T09:49:35.718Z</time></trkpt><trkpt lat="42.2610917" lon="13.8004033"><ele>332.0</ele><time>2026-05-03T09:49:36.717Z</time></trkpt><trkpt lat="42.261025" lon="13.8005"><ele>332.0</ele><time>2026-05-03T09:49:37.718Z</time></trkpt><trkpt lat="42.2609567" lon="13.8005983"><ele>332.0</ele><time>2026-05-03T09:49:38.718Z</time></trkpt><trkpt lat="42.260885" lon="13.8007017"><ele>332.0</ele><time>2026-05-03T09:49:39.718Z</time></trkpt><trkpt lat="42.2608133" lon="13.80081"><ele>332.0</ele><time>2026-05-03T09:49:40.718Z</time></trkpt><trkpt lat="42.2607233" lon="13.8009067"><ele>332.0</ele><time>2026-05-03T09:49:41.718Z</time></trkpt><trkpt lat="42.260625" lon="13.800975"><ele>332.0</ele><time>2026-05-03T09:49:42.718Z</time></trkpt><trkpt lat="42.26052" lon="13.801055"><ele>332.0</ele><time>2026-05-03T09:49:43.718Z</time></trkpt><trkpt lat="42.260425" lon="13.80113"><ele>332.0</ele><time>2026-05-03T09:49:44.717Z</time></trkpt><trkpt lat="42.260345" lon="13.80121"><ele>332.0</ele><time>2026-05-03T09:49:45.718Z</time></trkpt><trkpt lat="42.2602783" lon="13.8012717"><ele>331.83333333333337</ele><time>2026-05-03T09:49:46.718Z</time></trkpt><trkpt lat="42.26022" lon="13.8013333"><ele>331.6666666666667</ele><time>2026-05-03T09:49:47.718Z</time></trkpt><trkpt lat="42.260165" lon="13.801405"><ele>331.5</ele><time>2026-05-03T09:49:48.718Z</time></trkpt><trkpt lat="42.260105" lon="13.8014867"><ele>331.3333333333333</ele><time>2026-05-03T09:49:49.717Z</time></trkpt><trkpt lat="42.260045" lon="13.80158"><ele>331.16666666666663</ele><time>2026-05-03T09:49:50.718Z</time></trkpt><trkpt lat="42.2599683" lon="13.8016717"><ele>331.0</ele><time>2026-05-03T09:49:51.718Z</time></trkpt><trkpt lat="42.2598933" lon="13.8017833"><ele>332.0</ele><time>2026-05-03T09:49:52.717Z</time></trkpt><trkpt lat="42.259815" lon="13.8019033"><ele>333.0</ele><time>2026-05-03T09:49:53.717Z</time></trkpt><trkpt lat="42.2597317" lon="13.8020133"><ele>334.0</ele><time>2026-05-03T09:49:54.718Z</time></trkpt><trkpt lat="42.2596367" lon="13.802105"><ele>335.0</ele><time>2026-05-03T09:49:55.717Z</time></trkpt><trkpt lat="42.25954" lon="13.8021833"><ele>335.0</ele><time>2026-05-03T09:49:56.718Z</time></trkpt><trkpt lat="42.259445" lon="13.802265"><ele>335.0</ele><time>2026-05-03T09:49:57.718Z</time></trkpt><trkpt lat="42.2593467" lon="13.8023283"><ele>335.0</ele><time>2026-05-03T09:49:58.718Z</time></trkpt><trkpt lat="42.25925" lon="13.8023817"><ele>335.0</ele><time>2026-05-03T09:49:59.718Z</time></trkpt><trkpt lat="42.25916" lon="13.8024233"><ele>335.0</ele><time>2026-05-03T09:50:00.717Z</time></trkpt><trkpt lat="42.2590617" lon="13.8024167"><ele>335.0</ele><time>2026-05-03T09:50:01.717Z</time></trkpt><trkpt lat="42.25897" lon="13.8023967"><ele>335.0</ele><time>2026-05-03T09:50:02.717Z</time></trkpt><trkpt lat="42.25887" lon="13.802365"><ele>335.0</ele><time>2026-05-03T09:50:03.718Z</time></trkpt><trkpt lat="42.2587617" lon="13.8023233"><ele>335.0</ele><time>2026-05-03T09:50:04.717Z</time></trkpt><trkpt lat="42.2586617" lon="13.8022783"><ele>335.0</ele><time>2026-05-03T09:50:05.717Z</time></trkpt><trkpt lat="42.258555" lon="13.8022367"><ele>335.6</ele><time>2026-05-03T09:50:06.718Z</time></trkpt><trkpt lat="42.2584533" lon="13.80219"><ele>336.2</ele><time>2026-05-03T09:50:07.718Z</time></trkpt><trkpt lat="42.2583617" lon="13.8021433"><ele>336.79999999999995</ele><time>2026-05-03T09:50:08.718Z</time></trkpt><trkpt lat="42.2582717" lon="13.8020933"><ele>337.4</ele><time>2026-05-03T09:50:09.717Z</time></trkpt><trkpt lat="42.2581883" lon="13.8020317"><ele>338.0</ele><time>2026-05-03T09:50:10.718Z</time></trkpt><trkpt lat="42.2581183" lon="13.801965"><ele>338.79999999999995</ele><time>2026-05-03T09:50:11.717Z</time></trkpt><trkpt lat="42.258055" lon="13.8018867"><ele>339.6</ele><time>2026-05-03T09:50:12.717Z</time></trkpt><trkpt lat="42.2579967" lon="13.801785"><ele>340.4</ele><time>2026-05-03T09:50:13.718Z</time></trkpt><trkpt lat="42.2579433" lon="13.8016667"><ele>341.20000000000005</ele><time>2026-05-03T09:50:14.717Z</time></trkpt><trkpt lat="42.257895" lon="13.8015483"><ele>342.0</ele><time>2026-05-03T09:50:15.717Z</time></trkpt><trkpt lat="42.2578483" lon="13.8014433"><ele>340.6666666666667</ele><time>2026-05-03T09:50:16.717Z</time></trkpt><trkpt lat="42.2577883" lon="13.8013517"><ele>339.3333333333333</ele><time>2026-05-03T09:50:17.717Z</time></trkpt><trkpt lat="42.2577367" lon="13.801265"><ele>338.0</ele><time>2026-05-03T09:50:18.718Z</time></trkpt><trkpt lat="42.2576667" lon="13.8012167"><ele>336.66666666666663</ele><time>2026-05-03T09:50:19.717Z</time></trkpt><trkpt lat="42.2575867" lon="13.80119"><ele>335.3333333333333</ele><time>2026-05-03T09:50:20.718Z</time></trkpt><trkpt lat="42.2574967" lon="13.8011683"><ele>334.0</ele><time>2026-05-03T09:50:21.717Z</time></trkpt><trkpt lat="42.2574083" lon="13.8011767"><ele>334.0</ele><time>2026-05-03T09:50:22.718Z</time></trkpt><trkpt lat="42.2573283" lon="13.8012283"><ele>334.0</ele><time>2026-05-03T09:50:23.717Z</time></trkpt><trkpt lat="42.2572483" lon="13.8013083"><ele>334.0</ele><time>2026-05-03T09:50:24.717Z</time></trkpt><trkpt lat="42.257165" lon="13.8014067"><ele>334.0</ele><time>2026-05-03T09:50:25.718Z</time></trkpt><trkpt lat="42.2570667" lon="13.801485"><ele>334.0</ele><time>2026-05-03T09:50:26.717Z</time></trkpt><trkpt lat="42.2569717" lon="13.8015767"><ele>334.25</ele><time>2026-05-03T09:50:27.718Z</time></trkpt><trkpt lat="42.2568767" lon="13.8016917"><ele>334.5</ele><time>2026-05-03T09:50:28.718Z</time></trkpt><trkpt lat="42.2567933" lon="13.80181"><ele>334.75</ele><time>2026-05-03T09:50:29.717Z</time></trkpt><trkpt lat="42.2567133" lon="13.801945"><ele>335.0</ele><time>2026-05-03T09:50:30.718Z</time></trkpt><trkpt lat="42.25663" lon="13.8020683"><ele>335.0</ele><time>2026-05-03T09:50:31.717Z</time></trkpt><trkpt lat="42.256545" lon="13.8021833"><ele>335.0</ele><time>2026-05-03T09:50:32.718Z</time></trkpt><trkpt lat="42.2564533" lon="13.8022667"><ele>335.0</ele><time>2026-05-03T09:50:33.718Z</time></trkpt><trkpt lat="42.25636" lon="13.8023333"><ele>335.0</ele><time>2026-05-03T09:50:34.717Z</time></trkpt><trkpt lat="42.2562567" lon="13.802375"><ele>335.0</ele><time>2026-05-03T09:50:35.718Z</time></trkpt><trkpt lat="42.256145" lon="13.8024083"><ele>333.75</ele><time>2026-05-03T09:50:36.718Z</time></trkpt><trkpt lat="42.2560367" lon="13.8024367"><ele>332.5</ele><time>2026-05-03T09:50:37.718Z</time></trkpt><trkpt lat="42.2559267" lon="13.8024667"><ele>331.25</ele><time>2026-05-03T09:50:38.717Z</time></trkpt><trkpt lat="42.2558217" lon="13.8025117"><ele>330.0</ele><time>2026-05-03T09:50:39.718Z</time></trkpt><trkpt lat="42.2557017" lon="13.802555"><ele>329.0</ele><time>2026-05-03T09:50:40.718Z</time></trkpt><trkpt lat="42.2555783" lon="13.8026083"><ele>328.0</ele><time>2026-05-03T09:50:41.718Z</time></trkpt><trkpt lat="42.25546" lon="13.8026717"><ele>327.0</ele><time>2026-05-03T09:50:42.717Z</time></trkpt><trkpt lat="42.25535" lon="13.802745"><ele>326.0</ele><time>2026-05-03T09:50:43.718Z</time></trkpt><trkpt lat="42.255245" lon="13.80282"><ele>328.25</ele><time>2026-05-03T09:50:44.717Z</time></trkpt><trkpt lat="42.25513" lon="13.8028933"><ele>330.5</ele><time>2026-05-03T09:50:45.718Z</time></trkpt><trkpt lat="42.2550133" lon="13.8029483"><ele>332.75</ele><time>2026-05-03T09:50:46.718Z</time></trkpt><trkpt lat="42.2549033" lon="13.8029783"><ele>335.0</ele><time>2026-05-03T09:50:47.717Z</time></trkpt><trkpt lat="42.2548017" lon="13.8030017"><ele>334.0</ele><time>2026-05-03T09:50:48.717Z</time></trkpt><trkpt lat="42.254695" lon="13.8030083"><ele>333.0</ele><time>2026-05-03T09:50:49.718Z</time></trkpt><trkpt lat="42.2545883" lon="13.8030117"><ele>332.0</ele><time>2026-05-03T09:50:50.717Z</time></trkpt><trkpt lat="42.2544817" lon="13.8030217"><ele>331.0</ele><time>2026-05-03T09:50:51.717Z</time></trkpt><trkpt lat="42.25437" lon="13.80304"><ele>330.0</ele><time>2026-05-03T09:50:52.717Z</time></trkpt><trkpt lat="42.2542533" lon="13.80308"><ele>330.0</ele><time>2026-05-03T09:50:53.718Z</time></trkpt><trkpt lat="42.2541433" lon="13.8031283"><ele>330.0</ele><time>2026-05-03T09:50:54.718Z</time></trkpt><trkpt lat="42.2540317" lon="13.8031817"><ele>330.0</ele><time>2026-05-03T09:50:55.718Z</time></trkpt><trkpt lat="42.253915" lon="13.803245"><ele>330.0</ele><time>2026-05-03T09:50:56.718Z</time></trkpt><trkpt lat="42.2538017" lon="13.8032933"><ele>330.5</ele><time>2026-05-03T09:50:57.718Z</time></trkpt><trkpt lat="42.253685" lon="13.80334"><ele>331.0</ele><time>2026-05-03T09:50:58.718Z</time></trkpt><trkpt lat="42.2535867" lon="13.8033967"><ele>331.5</ele><time>2026-05-03T09:50:59.718Z</time></trkpt><trkpt lat="42.2534867" lon="13.803465"><ele>332.0</ele><time>2026-05-03T09:51:00.717Z</time></trkpt><trkpt lat="42.25338" lon="13.8035517"><ele>332.0</ele><time>2026-05-03T09:51:01.717Z</time></trkpt><trkpt lat="42.2532717" lon="13.8036433"><ele>332.0</ele><time>2026-05-03T09:51:02.718Z</time></trkpt><trkpt lat="42.2531733" lon="13.8037417"><ele>332.0</ele><time>2026-05-03T09:51:03.717Z</time></trkpt><trkpt lat="42.2530833" lon="13.80384"><ele>332.0</ele><time>2026-05-03T09:51:04.718Z</time></trkpt><trkpt lat="42.2529783" lon="13.803915"><ele>330.75</ele><time>2026-05-03T09:51:05.718Z</time></trkpt><trkpt lat="42.2528667" lon="13.803975"><ele>329.5</ele><time>2026-05-03T09:51:06.717Z</time></trkpt><trkpt lat="42.2527433" lon="13.8040217"><ele>328.25</ele><time>2026-05-03T09:51:07.718Z</time></trkpt><trkpt lat="42.2526267" lon="13.80405"><ele>327.0</ele><time>2026-05-03T09:51:08.717Z</time></trkpt><trkpt lat="42.2525233" lon="13.8040833"><ele>327.0</ele><time>2026-05-03T09:51:09.718Z</time></trkpt><trkpt lat="42.2524217" lon="13.8041017"><ele>327.0</ele><time>2026-05-03T09:51:10.717Z</time></trkpt><trkpt lat="42.2523317" lon="13.8041117"><ele>327.0</ele><time>2026-05-03T09:51:11.718Z</time></trkpt><trkpt lat="42.252235" lon="13.8041167"><ele>327.0</ele><time>2026-05-03T09:51:12.717Z</time></trkpt><trkpt lat="42.2521283" lon="13.8040917"><ele>327.0</ele><time>2026-05-03T09:51:13.717Z</time></trkpt><trkpt lat="42.25202" lon="13.8040367"><ele>329.0</ele><time>2026-05-03T09:51:14.717Z</time></trkpt><trkpt lat="42.25192" lon="13.80396"><ele>331.0</ele><time>2026-05-03T09:51:15.718Z</time></trkpt><trkpt lat="42.25183" lon="13.8038567"><ele>333.0</ele><time>2026-05-03T09:51:16.718Z</time></trkpt><trkpt lat="42.2517467" lon="13.80376"><ele>335.0</ele><time>2026-05-03T09:51:17.718Z</time></trkpt><trkpt lat="42.25167" lon="13.803675"><ele>337.0</ele><time>2026-05-03T09:51:18.718Z</time></trkpt><trkpt lat="42.251595" lon="13.803595"><ele>337.0</ele><time>2026-05-03T09:51:19.718Z</time></trkpt><trkpt lat="42.25152" lon="13.8035333"><ele>337.0</ele><time>2026-05-03T09:51:20.717Z</time></trkpt><trkpt lat="42.251435" lon="13.803475"><ele>337.0</ele><time>2026-05-03T09:51:21.718Z</time></trkpt><trkpt lat="42.2513367" lon="13.803435"><ele>337.0</ele><time>2026-05-03T09:51:22.717Z</time></trkpt><trkpt lat="42.25123" lon="13.80341"><ele>337.0</ele><time>2026-05-03T09:51:23.718Z</time></trkpt><trkpt lat="42.2511183" lon="13.8033767"><ele>335.6</ele><time>2026-05-03T09:51:24.718Z</time></trkpt><trkpt lat="42.2510183" lon="13.8033467"><ele>334.20000000000005</ele><time>2026-05-03T09:51:25.718Z</time></trkpt><trkpt lat="42.2509167" lon="13.8033117"><ele>332.8</ele><time>2026-05-03T09:51:26.718Z</time></trkpt><trkpt lat="42.2508167" lon="13.8032983"><ele>331.4</ele><time>2026-05-03T09:51:27.718Z</time></trkpt><trkpt lat="42.2507033" lon="13.803315"><ele>330.0</ele><time>2026-05-03T09:51:28.718Z</time></trkpt><trkpt lat="42.2505867" lon="13.8033433"><ele>330.0</ele><time>2026-05-03T09:51:29.717Z</time></trkpt><trkpt lat="42.250465" lon="13.80339"><ele>330.0</ele><time>2026-05-03T09:51:30.717Z</time></trkpt><trkpt lat="42.250355" lon="13.8034617"><ele>330.0</ele><time>2026-05-03T09:51:31.717Z</time></trkpt><trkpt lat="42.2502483" lon="13.8035483"><ele>330.0</ele><time>2026-05-03T09:51:32.717Z</time></trkpt><trkpt lat="42.2501483" lon="13.8036467"><ele>331.0</ele><time>2026-05-03T09:51:33.718Z</time></trkpt><trkpt lat="42.2500517" lon="13.8037417"><ele>332.0</ele><time>2026-05-03T09:51:34.717Z</time></trkpt><trkpt lat="42.2499533" lon="13.8038317"><ele>333.0</ele><time>2026-05-03T09:51:35.718Z</time></trkpt><trkpt lat="42.24986" lon="13.803915"><ele>334.0</ele><time>2026-05-03T09:51:36.717Z</time></trkpt><trkpt lat="42.2497867" lon="13.80402"><ele>334.0</ele><time>2026-05-03T09:51:37.717Z</time></trkpt><trkpt lat="42.249725" lon="13.80415"><ele>334.0</ele><time>2026-05-03T09:51:38.718Z</time></trkpt><trkpt lat="42.2496633" lon="13.804285"><ele>334.0</ele><time>2026-05-03T09:51:39.717Z</time></trkpt><trkpt lat="42.2495933" lon="13.8043933"><ele>334.0</ele><time>2026-05-03T09:51:40.718Z</time></trkpt><trkpt lat="42.2495267" lon="13.804505"><ele>334.0</ele><time>2026-05-03T09:51:41.718Z</time></trkpt><trkpt lat="42.2494583" lon="13.804625"><ele>334.6</ele><time>2026-05-03T09:51:42.718Z</time></trkpt><trkpt lat="42.2493833" lon="13.8047333"><ele>335.2</ele><time>2026-05-03T09:51:43.718Z</time></trkpt><trkpt lat="42.249315" lon="13.80485"><ele>335.8</ele><time>2026-05-03T09:51:44.718Z</time></trkpt><trkpt lat="42.24924" lon="13.8049617"><ele>336.40000000000003</ele><time>2026-05-03T09:51:45.718Z</time></trkpt><trkpt lat="42.2491567" lon="13.80506"><ele>337.0</ele><time>2026-05-03T09:51:46.718Z</time></trkpt><trkpt lat="42.2490633" lon="13.8051283"><ele>336.6</ele><time>2026-05-03T09:51:47.718Z</time></trkpt><trkpt lat="42.24898" lon="13.8051733"><ele>336.20000000000005</ele><time>2026-05-03T09:51:48.718Z</time></trkpt><trkpt lat="42.2488917" lon="13.8051883"><ele>335.8</ele><time>2026-05-03T09:51:49.718Z</time></trkpt><trkpt lat="42.2487983" lon="13.8052033"><ele>335.4</ele><time>2026-05-03T09:51:50.718Z</time></trkpt><trkpt lat="42.248695" lon="13.8052333"><ele>335.0</ele><time>2026-05-03T09:51:51.717Z</time></trkpt><trkpt lat="42.2485883" lon="13.8052733"><ele>335.0</ele><time>2026-05-03T09:51:52.718Z</time></trkpt><trkpt lat="42.2484967" lon="13.8053267"><ele>335.0</ele><time>2026-05-03T09:51:53.718Z</time></trkpt><trkpt lat="42.2484133" lon="13.8053883"><ele>335.0</ele><time>2026-05-03T09:51:54.717Z</time></trkpt><trkpt lat="42.248345" lon="13.805465"><ele>335.0</ele><time>2026-05-03T09:51:55.717Z</time></trkpt><trkpt lat="42.2482783" lon="13.8055433"><ele>335.0</ele><time>2026-05-03T09:51:56.718Z</time></trkpt><trkpt lat="42.2482217" lon="13.8056167"><ele>335.0</ele><time>2026-05-03T09:51:57.717Z</time></trkpt><trkpt lat="42.2481767" lon="13.8056917"><ele>335.0</ele><time>2026-05-03T09:51:58.718Z</time></trkpt><trkpt lat="42.2481267" lon="13.805765"><ele>335.0</ele><time>2026-05-03T09:51:59.718Z</time></trkpt><trkpt lat="42.2480733" lon="13.8058283"><ele>335.0</ele><time>2026-05-03T09:52:00.718Z</time></trkpt><trkpt lat="42.248025" lon="13.8059"><ele>335.0</ele><time>2026-05-03T09:52:01.718Z</time></trkpt><trkpt lat="42.2479783" lon="13.8059683"><ele>335.0</ele><time>2026-05-03T09:52:02.717Z</time></trkpt><trkpt lat="42.24787" lon="13.80606"><ele>333.5</ele><time>2026-05-03T09:52:04.717Z</time></trkpt><trkpt lat="42.2478" lon="13.806075"><ele>332.0</ele><time>2026-05-03T09:52:05.717Z</time></trkpt><trkpt lat="42.2477267" lon="13.8060983"><ele>330.5</ele><time>2026-05-03T09:52:06.718Z</time></trkpt><trkpt lat="42.2476517" lon="13.8061317"><ele>329.0</ele><time>2026-05-03T09:52:07.718Z</time></trkpt><trkpt lat="42.24759" lon="13.8061533"><ele>327.5</ele><time>2026-05-03T09:52:08.717Z</time></trkpt><trkpt lat="42.247525" lon="13.80618"><ele>326.0</ele><time>2026-05-03T09:52:09.718Z</time></trkpt><trkpt lat="42.24742" lon="13.8062417"><ele>326.0</ele><time>2026-05-03T09:52:11.718Z</time></trkpt><trkpt lat="42.2473417" lon="13.806265"><ele>326.0</ele><time>2026-05-03T09:52:13.718Z</time></trkpt><trkpt lat="42.24725" lon="13.8062467"><ele>326.0</ele><time>2026-05-03T09:52:15.717Z</time></trkpt><trkpt lat="42.247165" lon="13.8061667"><ele>326.0</ele><time>2026-05-03T09:52:17.718Z</time></trkpt><trkpt lat="42.247115" lon="13.806055"><ele>326.0</ele><time>2026-05-03T09:52:19.717Z</time></trkpt><trkpt lat="42.2470583" lon="13.8060083"><ele>326.0</ele><time>2026-05-03T09:52:21.718Z</time></trkpt><trkpt lat="42.2470367" lon="13.8060967"><ele>326.0</ele><time>2026-05-03T09:52:24.717Z</time></trkpt><trkpt lat="42.2471417" lon="13.8061933"><ele>326.0</ele><time>2026-05-03T09:52:26.718Z</time></trkpt><trkpt lat="42.247235" lon="13.8062517"><ele>326.0</ele><time>2026-05-03T09:52:27.718Z</time></trkpt><trkpt lat="42.24732" lon="13.8063"><ele>326.0</ele><time>2026-05-03T09:52:28.718Z</time></trkpt><trkpt lat="42.24739" lon="13.8063183"><ele>326.0</ele><time>2026-05-03T09:52:29.717Z</time></trkpt><trkpt lat="42.2475083" lon="13.8062317"><ele>326.0</ele><time>2026-05-03T09:52:31.717Z</time></trkpt><trkpt lat="42.2475867" lon="13.8061633"><ele>326.0</ele><time>2026-05-03T09:52:32.718Z</time></trkpt><trkpt lat="42.2476733" lon="13.8061067"><ele>326.0</ele><time>2026-05-03T09:52:33.717Z</time></trkpt><trkpt lat="42.247765" lon="13.80608"><ele>326.0</ele><time>2026-05-03T09:52:34.717Z</time></trkpt><trkpt lat="42.2478467" lon="13.8060617"><ele>326.0</ele><time>2026-05-03T09:52:35.717Z</time></trkpt><trkpt lat="42.2479183" lon="13.8060417"><ele>326.0</ele><time>2026-05-03T09:52:36.718Z</time></trkpt><trkpt lat="42.247995" lon="13.8059883"><ele>326.0</ele><time>2026-05-03T09:52:38.718Z</time></trkpt><trkpt lat="42.2480367" lon="13.8060567"><ele>326.0</ele><time>2026-05-03T09:52:42.718Z</time></trkpt><trkpt lat="42.247985" lon="13.8061567"><ele>326.0</ele><time>2026-05-03T09:52:44.717Z</time></trkpt><trkpt lat="42.2479317" lon="13.806245"><ele>326.0</ele><time>2026-05-03T09:52:45.717Z</time></trkpt><trkpt lat="42.2478733" lon="13.8063483"><ele>326.0</ele><time>2026-05-03T09:52:46.718Z</time></trkpt><trkpt lat="42.2478233" lon="13.8064567"><ele>326.0</ele><time>2026-05-03T09:52:47.718Z</time></trkpt><trkpt lat="42.2477783" lon="13.8065767"><ele>326.0</ele><time>2026-05-03T09:52:48.718Z</time></trkpt><trkpt lat="42.24774" lon="13.8067033"><ele>326.0</ele><time>2026-05-03T09:52:49.718Z</time></trkpt><trkpt lat="42.24772" lon="13.8068217"><ele>326.0</ele><time>2026-05-03T09:52:50.718Z</time></trkpt><trkpt lat="42.24772" lon="13.8069633"><ele>326.0</ele><time>2026-05-03T09:52:51.717Z</time></trkpt><trkpt lat="42.2477083" lon="13.8070767"><ele>326.0</ele><time>2026-05-03T09:52:52.718Z</time></trkpt><trkpt lat="42.24768" lon="13.8071933"><ele>326.4</ele><time>2026-05-03T09:52:53.718Z</time></trkpt><trkpt lat="42.2476333" lon="13.8073083"><ele>326.8</ele><time>2026-05-03T09:52:54.717Z</time></trkpt><trkpt lat="42.247575" lon="13.8074133"><ele>327.2</ele><time>2026-05-03T09:52:55.717Z</time></trkpt><trkpt lat="42.24749" lon="13.807505"><ele>327.59999999999997</ele><time>2026-05-03T09:52:56.716Z</time></trkpt><trkpt lat="42.247375" lon="13.807555"><ele>328.0</ele><time>2026-05-03T09:52:57.716Z</time></trkpt><trkpt lat="42.24727" lon="13.8076167"><ele>327.4</ele><time>2026-05-03T09:52:58.716Z</time></trkpt><trkpt lat="42.247165" lon="13.807695"><ele>326.79999999999995</ele><time>2026-05-03T09:52:59.716Z</time></trkpt><trkpt lat="42.2470683" lon="13.807775"><ele>326.2</ele><time>2026-05-03T09:53:00.717Z</time></trkpt><trkpt lat="42.2469883" lon="13.80786"><ele>325.6</ele><time>2026-05-03T09:53:01.717Z</time></trkpt><trkpt lat="42.246925" lon="13.8079467"><ele>325.0</ele><time>2026-05-03T09:53:02.717Z</time></trkpt><trkpt lat="42.2468683" lon="13.8080367"><ele>325.0</ele><time>2026-05-03T09:53:03.717Z</time></trkpt><trkpt lat="42.2468283" lon="13.8081383"><ele>325.0</ele><time>2026-05-03T09:53:04.716Z</time></trkpt><trkpt lat="42.2467983" lon="13.8082567"><ele>325.0</ele><time>2026-05-03T09:53:05.717Z</time></trkpt><trkpt lat="42.24677" lon="13.80839"><ele>325.0</ele><time>2026-05-03T09:53:06.717Z</time></trkpt><trkpt lat="42.2467433" lon="13.8085217"><ele>325.0</ele><time>2026-05-03T09:53:07.717Z</time></trkpt><trkpt lat="42.246715" lon="13.8086633"><ele>324.75</ele><time>2026-05-03T09:53:08.717Z</time></trkpt><trkpt lat="42.2466933" lon="13.8088117"><ele>324.5</ele><time>2026-05-03T09:53:09.717Z</time></trkpt><trkpt lat="42.2466667" lon="13.8089567"><ele>324.25</ele><time>2026-05-03T09:53:10.716Z</time></trkpt><trkpt lat="42.2466333" lon="13.8091083"><ele>324.0</ele><time>2026-05-03T09:53:11.717Z</time></trkpt><trkpt lat="42.246585" lon="13.8092583"><ele>324.2</ele><time>2026-05-03T09:53:12.716Z</time></trkpt><trkpt lat="42.246545" lon="13.809405"><ele>324.4</ele><time>2026-05-03T09:53:13.716Z</time></trkpt><trkpt lat="42.246505" lon="13.8095417"><ele>324.6</ele><time>2026-05-03T09:53:14.717Z</time></trkpt><trkpt lat="42.2464683" lon="13.809675"><ele>324.8</ele><time>2026-05-03T09:53:15.716Z</time></trkpt><trkpt lat="42.246435" lon="13.8098067"><ele>325.0</ele><time>2026-05-03T09:53:16.716Z</time></trkpt><trkpt lat="42.2463717" lon="13.80995"><ele>325.0</ele><time>2026-05-03T09:53:17.716Z</time></trkpt><trkpt lat="42.2463133" lon="13.8100783"><ele>325.0</ele><time>2026-05-03T09:53:18.717Z</time></trkpt><trkpt lat="42.24624" lon="13.81018"><ele>325.0</ele><time>2026-05-03T09:53:19.716Z</time></trkpt><trkpt lat="42.2461767" lon="13.810245"><ele>325.0</ele><time>2026-05-03T09:53:20.717Z</time></trkpt><trkpt lat="42.2461283" lon="13.8103067"><ele>325.0</ele><time>2026-05-03T09:53:21.717Z</time></trkpt><trkpt lat="42.24607" lon="13.8103933"><ele>325.0</ele><time>2026-05-03T09:53:22.717Z</time></trkpt><trkpt lat="42.2460083" lon="13.8104667"><ele>325.0</ele><time>2026-05-03T09:53:23.717Z</time></trkpt><trkpt lat="42.245935" lon="13.8105483"><ele>325.0</ele><time>2026-05-03T09:53:24.717Z</time></trkpt><trkpt lat="42.2458567" lon="13.8106483"><ele>325.0</ele><time>2026-05-03T09:53:25.717Z</time></trkpt><trkpt lat="42.245785" lon="13.8107583"><ele>325.0</ele><time>2026-05-03T09:53:26.717Z</time></trkpt><trkpt lat="42.2457133" lon="13.810875"><ele>325.0</ele><time>2026-05-03T09:53:27.717Z</time></trkpt><trkpt lat="42.2456333" lon="13.8109933"><ele>324.75</ele><time>2026-05-03T09:53:28.717Z</time></trkpt><trkpt lat="42.2455383" lon="13.811095"><ele>324.5</ele><time>2026-05-03T09:53:29.717Z</time></trkpt><trkpt lat="42.2454433" lon="13.8111867"><ele>324.25</ele><time>2026-05-03T09:53:30.716Z</time></trkpt><trkpt lat="42.24534" lon="13.8112717"><ele>324.0</ele><time>2026-05-03T09:53:31.716Z</time></trkpt><trkpt lat="42.245255" lon="13.8113517"><ele>324.0</ele><time>2026-05-03T09:53:32.716Z</time></trkpt><trkpt lat="42.2451817" lon="13.811445"><ele>324.0</ele><time>2026-05-03T09:53:33.717Z</time></trkpt><trkpt lat="42.2451183" lon="13.8115433"><ele>324.0</ele><time>2026-05-03T09:53:34.717Z</time></trkpt><trkpt lat="42.2450733" lon="13.8116617"><ele>324.0</ele><time>2026-05-03T09:53:35.716Z</time></trkpt><trkpt lat="42.2450483" lon="13.811785"><ele>324.0</ele><time>2026-05-03T09:53:36.716Z</time></trkpt><trkpt lat="42.2450367" lon="13.8119117"><ele>324.6666666666667</ele><time>2026-05-03T09:53:37.717Z</time></trkpt><trkpt lat="42.245025" lon="13.8120283"><ele>325.3333333333333</ele><time>2026-05-03T09:53:38.717Z</time></trkpt><trkpt lat="42.2450083" lon="13.8121433"><ele>326.0</ele><time>2026-05-03T09:53:39.717Z</time></trkpt><trkpt lat="42.244975" lon="13.8122517"><ele>326.66666666666663</ele><time>2026-05-03T09:53:40.717Z</time></trkpt><trkpt lat="42.24493" lon="13.812345"><ele>327.3333333333333</ele><time>2026-05-03T09:53:41.717Z</time></trkpt><trkpt lat="42.2448767" lon="13.81243"><ele>328.0</ele><time>2026-05-03T09:53:42.717Z</time></trkpt><trkpt lat="42.2448167" lon="13.8124883"><ele>328.4285714285714</ele><time>2026-05-03T09:53:43.716Z</time></trkpt><trkpt lat="42.2447567" lon="13.8125417"><ele>328.85714285714283</ele><time>2026-05-03T09:53:44.717Z</time></trkpt><trkpt lat="42.2446967" lon="13.8125683"><ele>329.2857142857143</ele><time>2026-05-03T09:53:45.716Z</time></trkpt><trkpt lat="42.2446283" lon="13.8126017"><ele>329.71428571428567</ele><time>2026-05-03T09:53:46.717Z</time></trkpt><trkpt lat="42.2445633" lon="13.8126267"><ele>330.1428571428571</ele><time>2026-05-03T09:53:47.716Z</time></trkpt><trkpt lat="42.244475" lon="13.8126383"><ele>330.57142857142856</ele><time>2026-05-03T09:53:48.717Z</time></trkpt><trkpt lat="42.2443933" lon="13.81266"><ele>331.0</ele><time>2026-05-03T09:53:49.717Z</time></trkpt><trkpt lat="42.2443167" lon="13.8126883"><ele>331.0</ele><time>2026-05-03T09:53:50.717Z</time></trkpt><trkpt lat="42.2442383" lon="13.812725"><ele>331.0</ele><time>2026-05-03T09:53:51.717Z</time></trkpt><trkpt lat="42.244155" lon="13.81277"><ele>331.0</ele><time>2026-05-03T09:53:52.717Z</time></trkpt><trkpt lat="42.2440717" lon="13.81282"><ele>331.0</ele><time>2026-05-03T09:53:53.717Z</time></trkpt><trkpt lat="42.2439867" lon="13.8128767"><ele>331.0</ele><time>2026-05-03T09:53:54.716Z</time></trkpt><trkpt lat="42.24389" lon="13.81292"><ele>329.8</ele><time>2026-05-03T09:53:55.717Z</time></trkpt><trkpt lat="42.243785" lon="13.81295"><ele>328.6</ele><time>2026-05-03T09:53:56.717Z</time></trkpt><trkpt lat="42.2436867" lon="13.8129817"><ele>327.4</ele><time>2026-05-03T09:53:57.717Z</time></trkpt><trkpt lat="42.24359" lon="13.8130333"><ele>326.2</ele><time>2026-05-03T09:53:58.717Z</time></trkpt><trkpt lat="42.2434983" lon="13.81311"><ele>325.0</ele><time>2026-05-03T09:53:59.717Z</time></trkpt><trkpt lat="42.2434033" lon="13.813205"><ele>325.0</ele><time>2026-05-03T09:54:00.716Z</time></trkpt><trkpt lat="42.2433033" lon="13.8133133"><ele>325.0</ele><time>2026-05-03T09:54:01.716Z</time></trkpt><trkpt lat="42.24322" lon="13.8134283"><ele>325.0</ele><time>2026-05-03T09:54:02.717Z</time></trkpt><trkpt lat="42.24314" lon="13.8135383"><ele>325.0</ele><time>2026-05-03T09:54:03.717Z</time></trkpt><trkpt lat="42.24306" lon="13.8136633"><ele>324.0</ele><time>2026-05-03T09:54:04.717Z</time></trkpt><trkpt lat="42.24298" lon="13.8137683"><ele>323.0</ele><time>2026-05-03T09:54:05.717Z</time></trkpt><trkpt lat="42.242905" lon="13.8138633"><ele>322.0</ele><time>2026-05-03T09:54:06.717Z</time></trkpt><trkpt lat="42.2428233" lon="13.81396"><ele>321.0</ele><time>2026-05-03T09:54:07.716Z</time></trkpt><trkpt lat="42.2427367" lon="13.8140467"><ele>320.0</ele><time>2026-05-03T09:54:08.717Z</time></trkpt><trkpt lat="42.24265" lon="13.81413"><ele>320.0</ele><time>2026-05-03T09:54:09.717Z</time></trkpt><trkpt lat="42.24257" lon="13.8142117"><ele>320.0</ele><time>2026-05-03T09:54:10.717Z</time></trkpt><trkpt lat="42.2424933" lon="13.8142833"><ele>320.0</ele><time>2026-05-03T09:54:11.717Z</time></trkpt><trkpt lat="42.242415" lon="13.8143633"><ele>320.0</ele><time>2026-05-03T09:54:12.717Z</time></trkpt><trkpt lat="42.2423267" lon="13.814435"><ele>320.0</ele><time>2026-05-03T09:54:13.717Z</time></trkpt><trkpt lat="42.2422433" lon="13.8144917"><ele>319.8</ele><time>2026-05-03T09:54:14.716Z</time></trkpt><trkpt lat="42.2421667" lon="13.8145317"><ele>319.6</ele><time>2026-05-03T09:54:15.717Z</time></trkpt><trkpt lat="42.2420833" lon="13.8145483"><ele>319.4</ele><time>2026-05-03T09:54:16.717Z</time></trkpt><trkpt lat="42.2420133" lon="13.8145467"><ele>319.2</ele><time>2026-05-03T09:54:17.717Z</time></trkpt><trkpt lat="42.2419033" lon="13.8145967"><ele>319.0</ele><time>2026-05-03T09:54:19.717Z</time></trkpt><trkpt lat="42.2418167" lon="13.8146817"><ele>319.0</ele><time>2026-05-03T09:54:21.716Z</time></trkpt><trkpt lat="42.24177" lon="13.81486"><ele>319.0</ele><time>2026-05-03T09:54:23.717Z</time></trkpt><trkpt lat="42.24173" lon="13.8149883"><ele>319.0</ele><time>2026-05-03T09:54:24.716Z</time></trkpt><trkpt lat="42.2416933" lon="13.8151367"><ele>319.0</ele><time>2026-05-03T09:54:25.716Z</time></trkpt><trkpt lat="42.2416517" lon="13.8153167"><ele>319.4</ele><time>2026-05-03T09:54:26.717Z</time></trkpt><trkpt lat="42.2416233" lon="13.81548"><ele>319.79999999999995</ele><time>2026-05-03T09:54:27.717Z</time></trkpt><trkpt lat="42.2416167" lon="13.8156333"><ele>320.20000000000005</ele><time>2026-05-03T09:54:28.717Z</time></trkpt><trkpt lat="42.24162" lon="13.81576"><ele>320.6</ele><time>2026-05-03T09:54:29.717Z</time></trkpt><trkpt lat="42.2416033" lon="13.8158733"><ele>321.0</ele><time>2026-05-03T09:54:30.717Z</time></trkpt><trkpt lat="42.2415567" lon="13.8159783"><ele>322.6</ele><time>2026-05-03T09:54:31.717Z</time></trkpt><trkpt lat="42.2414767" lon="13.8160733"><ele>324.20000000000005</ele><time>2026-05-03T09:54:32.717Z</time></trkpt><trkpt lat="42.2413933" lon="13.816155"><ele>325.79999999999995</ele><time>2026-05-03T09:54:33.717Z</time></trkpt><trkpt lat="42.241295" lon="13.8162217"><ele>327.4</ele><time>2026-05-03T09:54:34.717Z</time></trkpt><trkpt lat="42.241195" lon="13.8162733"><ele>329.0</ele><time>2026-05-03T09:54:35.717Z</time></trkpt><trkpt lat="42.2410867" lon="13.81631"><ele>329.0</ele><time>2026-05-03T09:54:36.717Z</time></trkpt><trkpt lat="42.2409617" lon="13.8163233"><ele>329.0</ele><time>2026-05-03T09:54:37.717Z</time></trkpt><trkpt lat="42.240845" lon="13.816325"><ele>329.0</ele><time>2026-05-03T09:54:38.717Z</time></trkpt><trkpt lat="42.2407283" lon="13.816325"><ele>329.0</ele><time>2026-05-03T09:54:39.716Z</time></trkpt><trkpt lat="42.2406167" lon="13.81631"><ele>328.5</ele><time>2026-05-03T09:54:40.717Z</time></trkpt><trkpt lat="42.2405017" lon="13.816315"><ele>328.0</ele><time>2026-05-03T09:54:41.717Z</time></trkpt><trkpt lat="42.2403783" lon="13.8163183"><ele>327.5</ele><time>2026-05-03T09:54:42.717Z</time></trkpt><trkpt lat="42.240255" lon="13.8163217"><ele>327.0</ele><time>2026-05-03T09:54:43.717Z</time></trkpt><trkpt lat="42.24014" lon="13.816325"><ele>327.0</ele><time>2026-05-03T09:54:44.717Z</time></trkpt><trkpt lat="42.2400383" lon="13.8163383"><ele>327.0</ele><time>2026-05-03T09:54:45.716Z</time></trkpt><trkpt lat="42.2399467" lon="13.816365"><ele>327.0</ele><time>2026-05-03T09:54:46.717Z</time></trkpt><trkpt lat="42.2398533" lon="13.8164067"><ele>327.0</ele><time>2026-05-03T09:54:47.717Z</time></trkpt><trkpt lat="42.2397483" lon="13.816455"><ele>327.0</ele><time>2026-05-03T09:54:48.717Z</time></trkpt><trkpt lat="42.2396433" lon="13.8164833"><ele>326.20000000000005</ele><time>2026-05-03T09:54:49.717Z</time></trkpt><trkpt lat="42.23956" lon="13.8164967"><ele>325.4</ele><time>2026-05-03T09:54:50.716Z</time></trkpt><trkpt lat="42.23944" lon="13.816465"><ele>324.6</ele><time>2026-05-03T09:54:52.717Z</time></trkpt><trkpt lat="42.239375" lon="13.81634"><ele>323.79999999999995</ele><time>2026-05-03T09:54:54.717Z</time></trkpt><trkpt lat="42.2393533" lon="13.81626"><ele>323.0</ele><time>2026-05-03T09:54:55.717Z</time></trkpt><trkpt lat="42.2392617" lon="13.8161617"><ele>323.0</ele><time>2026-05-03T09:54:57.717Z</time></trkpt><trkpt lat="42.2391933" lon="13.8161517"><ele>323.0</ele><time>2026-05-03T09:54:58.717Z</time></trkpt><trkpt lat="42.239115" lon="13.816145"><ele>323.0</ele><time>2026-05-03T09:54:59.717Z</time></trkpt><trkpt lat="42.2390317" lon="13.816135"><ele>323.0</ele><time>2026-05-03T09:55:00.717Z</time></trkpt><trkpt lat="42.2389517" lon="13.8161283"><ele>323.0</ele><time>2026-05-03T09:55:01.716Z</time></trkpt><trkpt lat="42.2388783" lon="13.8161217"><ele>323.0</ele><time>2026-05-03T09:55:02.717Z</time></trkpt><trkpt lat="42.2388133" lon="13.8161"><ele>322.2</ele><time>2026-05-03T09:55:03.716Z</time></trkpt><trkpt lat="42.23868" lon="13.8160717"><ele>321.4</ele><time>2026-05-03T09:55:05.717Z</time></trkpt><trkpt lat="42.2386" lon="13.8160683"><ele>320.59999999999997</ele><time>2026-05-03T09:55:06.717Z</time></trkpt><trkpt lat="42.2385183" lon="13.8160783"><ele>319.79999999999995</ele><time>2026-05-03T09:55:07.717Z</time></trkpt><trkpt lat="42.2384283" lon="13.816105"><ele>319.0</ele><time>2026-05-03T09:55:08.717Z</time></trkpt><trkpt lat="42.2383317" lon="13.8161417"><ele>319.0</ele><time>2026-05-03T09:55:09.716Z</time></trkpt><trkpt lat="42.2382317" lon="13.8161917"><ele>319.0</ele><time>2026-05-03T09:55:10.717Z</time></trkpt><trkpt lat="42.2381383" lon="13.8162467"><ele>319.0</ele><time>2026-05-03T09:55:11.716Z</time></trkpt><trkpt lat="42.23804" lon="13.816305"><ele>319.0</ele><time>2026-05-03T09:55:12.716Z</time></trkpt><trkpt lat="42.237935" lon="13.816355"><ele>319.0</ele><time>2026-05-03T09:55:13.717Z</time></trkpt><trkpt lat="42.2378317" lon="13.8164"><ele>319.0</ele><time>2026-05-03T09:55:14.717Z</time></trkpt><trkpt lat="42.237725" lon="13.8164483"><ele>319.0</ele><time>2026-05-03T09:55:15.717Z</time></trkpt><trkpt lat="42.2376183" lon="13.8165017"><ele>319.0</ele><time>2026-05-03T09:55:16.716Z</time></trkpt><trkpt lat="42.2375083" lon="13.816565"><ele>319.0</ele><time>2026-05-03T09:55:17.716Z</time></trkpt><trkpt lat="42.2373983" lon="13.8166267"><ele>319.25</ele><time>2026-05-03T09:55:18.717Z</time></trkpt><trkpt lat="42.23728" lon="13.8166767"><ele>319.5</ele><time>2026-05-03T09:55:19.717Z</time></trkpt><trkpt lat="42.237165" lon="13.816715"><ele>319.75</ele><time>2026-05-03T09:55:20.717Z</time></trkpt><trkpt lat="42.2370483" lon="13.8167283"><ele>320.0</ele><time>2026-05-03T09:55:21.717Z</time></trkpt><trkpt lat="42.2369233" lon="13.816735"><ele>320.0</ele><time>2026-05-03T09:55:22.717Z</time></trkpt><trkpt lat="42.2368033" lon="13.8167283"><ele>320.0</ele><time>2026-05-03T09:55:23.717Z</time></trkpt><trkpt lat="42.2366683" lon="13.8166883"><ele>320.0</ele><time>2026-05-03T09:55:24.717Z</time></trkpt><trkpt lat="42.2365383" lon="13.8166383"><ele>320.0</ele><time>2026-05-03T09:55:25.716Z</time></trkpt><trkpt lat="42.2364183" lon="13.8165533"><ele>320.4</ele><time>2026-05-03T09:55:26.717Z</time></trkpt><trkpt lat="42.2363117" lon="13.8164717"><ele>320.8</ele><time>2026-05-03T09:55:27.717Z</time></trkpt><trkpt lat="42.2362233" lon="13.816395"><ele>321.20000000000005</ele><time>2026-05-03T09:55:28.717Z</time></trkpt><trkpt lat="42.236145" lon="13.8163283"><ele>321.6</ele><time>2026-05-03T09:55:29.717Z</time></trkpt><trkpt lat="42.2360567" lon="13.81626"><ele>322.0</ele><time>2026-05-03T09:55:30.716Z</time></trkpt><trkpt lat="42.2359683" lon="13.8162133"><ele>322.0</ele><time>2026-05-03T09:55:31.716Z</time></trkpt><trkpt lat="42.235865" lon="13.8161817"><ele>322.0</ele><time>2026-05-03T09:55:32.717Z</time></trkpt><trkpt lat="42.23576" lon="13.816185"><ele>322.0</ele><time>2026-05-03T09:55:33.717Z</time></trkpt><trkpt lat="42.23566" lon="13.8162333"><ele>322.0</ele><time>2026-05-03T09:55:34.716Z</time></trkpt><trkpt lat="42.23556" lon="13.8162967"><ele>322.0</ele><time>2026-05-03T09:55:35.716Z</time></trkpt><trkpt lat="42.235465" lon="13.816365"><ele>321.8</ele><time>2026-05-03T09:55:36.717Z</time></trkpt><trkpt lat="42.2353817" lon="13.8164383"><ele>321.6</ele><time>2026-05-03T09:55:37.716Z</time></trkpt><trkpt lat="42.2353033" lon="13.8165267"><ele>321.40000000000003</ele><time>2026-05-03T09:55:38.717Z</time></trkpt><trkpt lat="42.2352467" lon="13.8166483"><ele>321.20000000000005</ele><time>2026-05-03T09:55:39.716Z</time></trkpt><trkpt lat="42.23519" lon="13.8167817"><ele>321.0</ele><time>2026-05-03T09:55:40.716Z</time></trkpt><trkpt lat="42.23513" lon="13.81693"><ele>321.0</ele><time>2026-05-03T09:55:41.716Z</time></trkpt><trkpt lat="42.23507" lon="13.81708"><ele>321.0</ele><time>2026-05-03T09:55:42.716Z</time></trkpt><trkpt lat="42.2349983" lon="13.8172217"><ele>321.0</ele><time>2026-05-03T09:55:43.717Z</time></trkpt><trkpt lat="42.2349267" lon="13.8173833"><ele>321.0</ele><time>2026-05-03T09:55:44.716Z</time></trkpt><trkpt lat="42.234845" lon="13.8175467"><ele>322.25</ele><time>2026-05-03T09:55:45.717Z</time></trkpt><trkpt lat="42.2347517" lon="13.8177"><ele>323.5</ele><time>2026-05-03T09:55:46.717Z</time></trkpt><trkpt lat="42.2346483" lon="13.817835"><ele>324.75</ele><time>2026-05-03T09:55:47.717Z</time></trkpt><trkpt lat="42.234545" lon="13.8179683"><ele>326.0</ele><time>2026-05-03T09:55:48.716Z</time></trkpt><trkpt lat="42.2344383" lon="13.8180967"><ele>326.0</ele><time>2026-05-03T09:55:49.717Z</time></trkpt><trkpt lat="42.2343267" lon="13.8182133"><ele>326.0</ele><time>2026-05-03T09:55:50.717Z</time></trkpt><trkpt lat="42.2342083" lon="13.8183133"><ele>326.0</ele><time>2026-05-03T09:55:51.717Z</time></trkpt><trkpt lat="42.2340833" lon="13.818405"><ele>326.0</ele><time>2026-05-03T09:55:52.717Z</time></trkpt><trkpt lat="42.233955" lon="13.8184917"><ele>327.6666666666667</ele><time>2026-05-03T09:55:53.717Z</time></trkpt><trkpt lat="42.233815" lon="13.8185617"><ele>329.3333333333333</ele><time>2026-05-03T09:55:54.717Z</time></trkpt><trkpt lat="42.23367" lon="13.8186367"><ele>331.0</ele><time>2026-05-03T09:55:55.716Z</time></trkpt><trkpt lat="42.2333817" lon="13.8187717"><ele>331.0</ele><time>2026-05-03T09:55:57.716Z</time></trkpt><trkpt lat="42.2332417" lon="13.81884"><ele>331.0</ele><time>2026-05-03T09:55:58.717Z</time></trkpt><trkpt lat="42.2331017" lon="13.818915"><ele>331.0</ele><time>2026-05-03T09:55:59.716Z</time></trkpt><trkpt lat="42.232955" lon="13.8189783"><ele>327.66666666666663</ele><time>2026-05-03T09:56:00.717Z</time></trkpt><trkpt lat="42.2328017" lon="13.8190283"><ele>324.3333333333333</ele><time>2026-05-03T09:56:01.716Z</time></trkpt><trkpt lat="42.232635" lon="13.819045"><ele>321.0</ele><time>2026-05-03T09:56:02.717Z</time></trkpt><trkpt lat="42.2324767" lon="13.8190483"><ele>321.0</ele><time>2026-05-03T09:56:03.717Z</time></trkpt><trkpt lat="42.2323167" lon="13.819045"><ele>321.0</ele><time>2026-05-03T09:56:04.716Z</time></trkpt><trkpt lat="42.2321633" lon="13.81906"><ele>321.0</ele><time>2026-05-03T09:56:05.716Z</time></trkpt><trkpt lat="42.2320017" lon="13.8190567"><ele>320.6666666666667</ele><time>2026-05-03T09:56:06.717Z</time></trkpt><trkpt lat="42.2318533" lon="13.819075"><ele>320.33333333333337</ele><time>2026-05-03T09:56:07.717Z</time></trkpt><trkpt lat="42.2317083" lon="13.8191267"><ele>320.0</ele><time>2026-05-03T09:56:08.716Z</time></trkpt><trkpt lat="42.23156" lon="13.8191883"><ele>319.0</ele><time>2026-05-03T09:56:09.717Z</time></trkpt><trkpt lat="42.2314267" lon="13.819275"><ele>318.0</ele><time>2026-05-03T09:56:10.717Z</time></trkpt><trkpt lat="42.2312867" lon="13.8193733"><ele>317.0</ele><time>2026-05-03T09:56:11.717Z</time></trkpt><trkpt lat="42.2311483" lon="13.81946"><ele>319.6666666666667</ele><time>2026-05-03T09:56:12.716Z</time></trkpt><trkpt lat="42.2310033" lon="13.81953"><ele>322.3333333333333</ele><time>2026-05-03T09:56:13.716Z</time></trkpt><trkpt lat="42.230855" lon="13.8195733"><ele>325.0</ele><time>2026-05-03T09:56:14.716Z</time></trkpt><trkpt lat="42.2307033" lon="13.8195917"><ele>322.66666666666663</ele><time>2026-05-03T09:56:15.717Z</time></trkpt><trkpt lat="42.2305333" lon="13.8196033"><ele>320.3333333333333</ele><time>2026-05-03T09:56:16.717Z</time></trkpt><trkpt lat="42.230375" lon="13.8196283"><ele>318.0</ele><time>2026-05-03T09:56:17.717Z</time></trkpt><trkpt lat="42.2302083" lon="13.8196583"><ele>318.0</ele><time>2026-05-03T09:56:18.717Z</time></trkpt><trkpt lat="42.2300433" lon="13.819685"><ele>318.0</ele><time>2026-05-03T09:56:19.717Z</time></trkpt><trkpt lat="42.2298783" lon="13.8197083"><ele>318.0</ele><time>2026-05-03T09:56:20.717Z</time></trkpt><trkpt lat="42.2297183" lon="13.8197117"><ele>318.0</ele><time>2026-05-03T09:56:21.717Z</time></trkpt><trkpt lat="42.229555" lon="13.81971"><ele>318.0</ele><time>2026-05-03T09:56:22.716Z</time></trkpt><trkpt lat="42.2293917" lon="13.8197133"><ele>318.0</ele><time>2026-05-03T09:56:23.716Z</time></trkpt><trkpt lat="42.229235" lon="13.8197333"><ele>318.0</ele><time>2026-05-03T09:56:24.717Z</time></trkpt><trkpt lat="42.2290817" lon="13.8197517"><ele>318.0</ele><time>2026-05-03T09:56:25.717Z</time></trkpt><trkpt lat="42.2289433" lon="13.81976"><ele>318.0</ele><time>2026-05-03T09:56:26.717Z</time></trkpt><trkpt lat="42.2288083" lon="13.8197583"><ele>318.0</ele><time>2026-05-03T09:56:27.716Z</time></trkpt><trkpt lat="42.2286783" lon="13.819785"><ele>319.75</ele><time>2026-05-03T09:56:28.717Z</time></trkpt><trkpt lat="42.2285383" lon="13.8197867"><ele>321.5</ele><time>2026-05-03T09:56:29.717Z</time></trkpt><trkpt lat="42.2283933" lon="13.819755"><ele>323.25</ele><time>2026-05-03T09:56:30.717Z</time></trkpt><trkpt lat="42.228245" lon="13.8197067"><ele>325.0</ele><time>2026-05-03T09:56:31.716Z</time></trkpt><trkpt lat="42.2280967" lon="13.8196467"><ele>325.0</ele><time>2026-05-03T09:56:32.716Z</time></trkpt><trkpt lat="42.22795" lon="13.819585"><ele>325.0</ele><time>2026-05-03T09:56:33.715Z</time></trkpt><trkpt lat="42.2277983" lon="13.8195583"><ele>325.0</ele><time>2026-05-03T09:56:34.716Z</time></trkpt><trkpt lat="42.22764" lon="13.8195567"><ele>325.0</ele><time>2026-05-03T09:56:35.716Z</time></trkpt><trkpt lat="42.2274817" lon="13.819555"><ele>325.0</ele><time>2026-05-03T09:56:36.715Z</time></trkpt><trkpt lat="42.2273283" lon="13.81956"><ele>325.0</ele><time>2026-05-03T09:56:37.716Z</time></trkpt><trkpt lat="42.2271833" lon="13.8195817"><ele>324.5</ele><time>2026-05-03T09:56:38.716Z</time></trkpt><trkpt lat="42.2270467" lon="13.819615"><ele>324.0</ele><time>2026-05-03T09:56:39.716Z</time></trkpt><trkpt lat="42.22692" lon="13.8196667"><ele>323.5</ele><time>2026-05-03T09:56:40.716Z</time></trkpt><trkpt lat="42.226805" lon="13.8197283"><ele>323.0</ele><time>2026-05-03T09:56:41.715Z</time></trkpt><trkpt lat="42.22669" lon="13.8197867"><ele>323.0</ele><time>2026-05-03T09:56:42.715Z</time></trkpt><trkpt lat="42.22659" lon="13.8198533"><ele>323.0</ele><time>2026-05-03T09:56:43.716Z</time></trkpt><trkpt lat="42.226505" lon="13.8199383"><ele>323.0</ele><time>2026-05-03T09:56:44.716Z</time></trkpt><trkpt lat="42.2264217" lon="13.8200433"><ele>323.0</ele><time>2026-05-03T09:56:45.716Z</time></trkpt><trkpt lat="42.22634" lon="13.8201633"><ele>321.75</ele><time>2026-05-03T09:56:46.716Z</time></trkpt><trkpt lat="42.226255" lon="13.8203033"><ele>320.5</ele><time>2026-05-03T09:56:47.716Z</time></trkpt><trkpt lat="42.22617" lon="13.8204583"><ele>319.25</ele><time>2026-05-03T09:56:48.715Z</time></trkpt><trkpt lat="42.22608" lon="13.8206333"><ele>318.0</ele><time>2026-05-03T09:56:49.716Z</time></trkpt><trkpt lat="42.22599" lon="13.8208017"><ele>318.0</ele><time>2026-05-03T09:56:50.716Z</time></trkpt><trkpt lat="42.2259033" lon="13.8209683"><ele>318.0</ele><time>2026-05-03T09:56:51.715Z</time></trkpt><trkpt lat="42.22582" lon="13.821125"><ele>318.0</ele><time>2026-05-03T09:56:52.716Z</time></trkpt><trkpt lat="42.2257383" lon="13.8212683"><ele>318.0</ele><time>2026-05-03T09:56:53.715Z</time></trkpt><trkpt lat="42.225635" lon="13.8213883"><ele>318.3333333333333</ele><time>2026-05-03T09:56:54.715Z</time></trkpt><trkpt lat="42.2255067" lon="13.8214967"><ele>318.66666666666663</ele><time>2026-05-03T09:56:55.716Z</time></trkpt><trkpt lat="42.2253617" lon="13.8215733"><ele>319.0</ele><time>2026-05-03T09:56:56.716Z</time></trkpt><trkpt lat="42.2252133" lon="13.82163"><ele>319.0</ele><time>2026-05-03T09:56:57.715Z</time></trkpt><trkpt lat="42.2250583" lon="13.8216817"><ele>319.0</ele><time>2026-05-03T09:56:58.716Z</time></trkpt><trkpt lat="42.2248933" lon="13.8217133"><ele>319.0</ele><time>2026-05-03T09:56:59.716Z</time></trkpt><trkpt lat="42.224735" lon="13.8217333"><ele>318.66666666666663</ele><time>2026-05-03T09:57:00.716Z</time></trkpt><trkpt lat="42.22458" lon="13.82178"><ele>318.3333333333333</ele><time>2026-05-03T09:57:01.716Z</time></trkpt><trkpt lat="42.2244233" lon="13.8218467"><ele>318.0</ele><time>2026-05-03T09:57:02.716Z</time></trkpt><trkpt lat="42.2242617" lon="13.8219333"><ele>318.6666666666667</ele><time>2026-05-03T09:57:03.716Z</time></trkpt><trkpt lat="42.2241117" lon="13.8220317"><ele>319.33333333333337</ele><time>2026-05-03T09:57:04.715Z</time></trkpt><trkpt lat="42.2239867" lon="13.82217"><ele>320.0</ele><time>2026-05-03T09:57:05.716Z</time></trkpt><trkpt lat="42.2238667" lon="13.8223167"><ele>320.0</ele><time>2026-05-03T09:57:06.716Z</time></trkpt><trkpt lat="42.2237383" lon="13.82244"><ele>320.0</ele><time>2026-05-03T09:57:07.716Z</time></trkpt><trkpt lat="42.2236217" lon="13.82255"><ele>320.0</ele><time>2026-05-03T09:57:08.716Z</time></trkpt><trkpt lat="42.2234817" lon="13.8226333"><ele>322.0</ele><time>2026-05-03T09:57:09.716Z</time></trkpt><trkpt lat="42.22334" lon="13.8226967"><ele>324.0</ele><time>2026-05-03T09:57:10.716Z</time></trkpt><trkpt lat="42.2231983" lon="13.8227383"><ele>326.0</ele><time>2026-05-03T09:57:11.716Z</time></trkpt><trkpt lat="42.2230517" lon="13.822745"><ele>328.0</ele><time>2026-05-03T09:57:12.715Z</time></trkpt><trkpt lat="42.2228983" lon="13.8227183"><ele>328.0</ele><time>2026-05-03T09:57:13.716Z</time></trkpt><trkpt lat="42.2227433" lon="13.82268"><ele>328.0</ele><time>2026-05-03T09:57:14.716Z</time></trkpt><trkpt lat="42.2225883" lon="13.822645"><ele>328.0</ele><time>2026-05-03T09:57:15.715Z</time></trkpt><trkpt lat="42.2224383" lon="13.82261"><ele>327.5</ele><time>2026-05-03T09:57:16.715Z</time></trkpt><trkpt lat="42.222295" lon="13.8225667"><ele>327.0</ele><time>2026-05-03T09:57:17.715Z</time></trkpt><trkpt lat="42.2221633" lon="13.8225233"><ele>326.5</ele><time>2026-05-03T09:57:18.715Z</time></trkpt><trkpt lat="42.2220467" lon="13.822485"><ele>326.0</ele><time>2026-05-03T09:57:19.715Z</time></trkpt><trkpt lat="42.2219433" lon="13.82245"><ele>326.0</ele><time>2026-05-03T09:57:20.716Z</time></trkpt><trkpt lat="42.22185" lon="13.8224083"><ele>326.0</ele><time>2026-05-03T09:57:21.716Z</time></trkpt><trkpt lat="42.2217533" lon="13.82237"><ele>326.0</ele><time>2026-05-03T09:57:22.716Z</time></trkpt><trkpt lat="42.2216617" lon="13.8223317"><ele>326.0</ele><time>2026-05-03T09:57:23.715Z</time></trkpt><trkpt lat="42.2215717" lon="13.8223"><ele>326.0</ele><time>2026-05-03T09:57:24.715Z</time></trkpt><trkpt lat="42.22148" lon="13.8222767"><ele>326.6</ele><time>2026-05-03T09:57:25.715Z</time></trkpt><trkpt lat="42.22138" lon="13.8222583"><ele>327.20000000000005</ele><time>2026-05-03T09:57:26.715Z</time></trkpt><trkpt lat="42.22129" lon="13.8222483"><ele>327.79999999999995</ele><time>2026-05-03T09:57:27.716Z</time></trkpt><trkpt lat="42.2211983" lon="13.8222433"><ele>328.4</ele><time>2026-05-03T09:57:28.716Z</time></trkpt><trkpt lat="42.2211167" lon="13.8222417"><ele>329.0</ele><time>2026-05-03T09:57:29.715Z</time></trkpt><trkpt lat="42.22103" lon="13.8222283"><ele>329.0</ele><time>2026-05-03T09:57:30.715Z</time></trkpt><trkpt lat="42.2209283" lon="13.822225"><ele>329.0</ele><time>2026-05-03T09:57:31.716Z</time></trkpt><trkpt lat="42.2208383" lon="13.8222367"><ele>329.0</ele><time>2026-05-03T09:57:32.715Z</time></trkpt><trkpt lat="42.2207483" lon="13.8222733"><ele>329.0</ele><time>2026-05-03T09:57:33.716Z</time></trkpt><trkpt lat="42.22068" lon="13.8223183"><ele>329.0</ele><time>2026-05-03T09:57:34.716Z</time></trkpt><trkpt lat="42.2206067" lon="13.8224217"><ele>327.75</ele><time>2026-05-03T09:57:36.716Z</time></trkpt><trkpt lat="42.2205217" lon="13.822555"><ele>326.5</ele><time>2026-05-03T09:57:38.716Z</time></trkpt><trkpt lat="42.2204517" lon="13.8226433"><ele>325.25</ele><time>2026-05-03T09:57:39.716Z</time></trkpt><trkpt lat="42.220375" lon="13.8227533"><ele>324.0</ele><time>2026-05-03T09:57:40.716Z</time></trkpt><trkpt lat="42.22029" lon="13.82287"><ele>324.0</ele><time>2026-05-03T09:57:41.716Z</time></trkpt><trkpt lat="42.22019" lon="13.8229867"><ele>324.0</ele><time>2026-05-03T09:57:42.716Z</time></trkpt><trkpt lat="42.2200883" lon="13.8231067"><ele>324.0</ele><time>2026-05-03T09:57:43.716Z</time></trkpt><trkpt lat="42.219985" lon="13.8232283"><ele>324.0</ele><time>2026-05-03T09:57:44.716Z</time></trkpt><trkpt lat="42.21989" lon="13.82335"><ele>323.25</ele><time>2026-05-03T09:57:45.716Z</time></trkpt><trkpt lat="42.2197983" lon="13.8234583"><ele>322.5</ele><time>2026-05-03T09:57:46.716Z</time></trkpt><trkpt lat="42.2197083" lon="13.8235533"><ele>321.75</ele><time>2026-05-03T09:57:47.715Z</time></trkpt><trkpt lat="42.2196167" lon="13.8236467"><ele>321.0</ele><time>2026-05-03T09:57:48.715Z</time></trkpt><trkpt lat="42.2195" lon="13.8237333"><ele>321.0</ele><time>2026-05-03T09:57:49.716Z</time></trkpt><trkpt lat="42.219375" lon="13.8238083"><ele>321.0</ele><time>2026-05-03T09:57:50.715Z</time></trkpt><trkpt lat="42.2192433" lon="13.823875"><ele>321.0</ele><time>2026-05-03T09:57:51.715Z</time></trkpt><trkpt lat="42.2191217" lon="13.8239233"><ele>321.0</ele><time>2026-05-03T09:57:52.716Z</time></trkpt><trkpt lat="42.2190067" lon="13.82397"><ele>321.25</ele><time>2026-05-03T09:57:53.715Z</time></trkpt><trkpt lat="42.2189033" lon="13.8240233"><ele>321.5</ele><time>2026-05-03T09:57:54.716Z</time></trkpt><trkpt lat="42.2188017" lon="13.8240817"><ele>321.75</ele><time>2026-05-03T09:57:55.716Z</time></trkpt><trkpt lat="42.2186917" lon="13.82415"><ele>322.0</ele><time>2026-05-03T09:57:56.716Z</time></trkpt><trkpt lat="42.21858" lon="13.8242083"><ele>322.0</ele><time>2026-05-03T09:57:57.715Z</time></trkpt><trkpt lat="42.2184617" lon="13.8242517"><ele>322.0</ele><time>2026-05-03T09:57:58.716Z</time></trkpt><trkpt lat="42.21834" lon="13.8243067"><ele>322.0</ele><time>2026-05-03T09:57:59.716Z</time></trkpt><trkpt lat="42.2182233" lon="13.8243483"><ele>322.0</ele><time>2026-05-03T09:58:00.716Z</time></trkpt><trkpt lat="42.218125" lon="13.8243733"><ele>322.40000000000003</ele><time>2026-05-03T09:58:01.716Z</time></trkpt><trkpt lat="42.2180233" lon="13.8244017"><ele>322.8</ele><time>2026-05-03T09:58:02.716Z</time></trkpt><trkpt lat="42.2179267" lon="13.8244283"><ele>323.2</ele><time>2026-05-03T09:58:03.716Z</time></trkpt><trkpt lat="42.2178383" lon="13.8244717"><ele>323.6</ele><time>2026-05-03T09:58:04.716Z</time></trkpt><trkpt lat="42.2177383" lon="13.8245367"><ele>324.0</ele><time>2026-05-03T09:58:05.716Z</time></trkpt><trkpt lat="42.217635" lon="13.8245967"><ele>324.0</ele><time>2026-05-03T09:58:06.716Z</time></trkpt><trkpt lat="42.217535" lon="13.8246567"><ele>324.0</ele><time>2026-05-03T09:58:07.716Z</time></trkpt><trkpt lat="42.217435" lon="13.8247117"><ele>324.0</ele><time>2026-05-03T09:58:08.716Z</time></trkpt><trkpt lat="42.21735" lon="13.82477"><ele>324.0</ele><time>2026-05-03T09:58:09.715Z</time></trkpt><trkpt lat="42.2172617" lon="13.824815"><ele>324.0</ele><time>2026-05-03T09:58:10.715Z</time></trkpt><trkpt lat="42.2171883" lon="13.8248533"><ele>323.6666666666667</ele><time>2026-05-03T09:58:11.716Z</time></trkpt><trkpt lat="42.2171183" lon="13.82488"><ele>323.3333333333333</ele><time>2026-05-03T09:58:12.716Z</time></trkpt><trkpt lat="42.2170467" lon="13.8248783"><ele>323.0</ele><time>2026-05-03T09:58:13.715Z</time></trkpt><trkpt lat="42.216985" lon="13.82482"><ele>322.66666666666663</ele><time>2026-05-03T09:58:14.715Z</time></trkpt><trkpt lat="42.2169333" lon="13.8247233"><ele>322.3333333333333</ele><time>2026-05-03T09:58:15.716Z</time></trkpt><trkpt lat="42.2168917" lon="13.8245983"><ele>322.0</ele><time>2026-05-03T09:58:16.715Z</time></trkpt><trkpt lat="42.21685" lon="13.8244433"><ele>321.25</ele><time>2026-05-03T09:58:17.716Z</time></trkpt><trkpt lat="42.216795" lon="13.8242967"><ele>320.5</ele><time>2026-05-03T09:58:18.716Z</time></trkpt><trkpt lat="42.2167283" lon="13.8241433"><ele>319.75</ele><time>2026-05-03T09:58:19.716Z</time></trkpt><trkpt lat="42.21666" lon="13.823995"><ele>319.0</ele><time>2026-05-03T09:58:20.715Z</time></trkpt><trkpt lat="42.2166033" lon="13.823845"><ele>319.0</ele><time>2026-05-03T09:58:21.716Z</time></trkpt><trkpt lat="42.2165317" lon="13.8236933"><ele>319.0</ele><time>2026-05-03T09:58:22.716Z</time></trkpt><trkpt lat="42.2164667" lon="13.8235483"><ele>319.0</ele><time>2026-05-03T09:58:23.715Z</time></trkpt><trkpt lat="42.216405" lon="13.823405"><ele>319.0</ele><time>2026-05-03T09:58:24.715Z</time></trkpt><trkpt lat="42.2163467" lon="13.82326"><ele>317.5</ele><time>2026-05-03T09:58:25.716Z</time></trkpt><trkpt lat="42.2162917" lon="13.8231133"><ele>316.0</ele><time>2026-05-03T09:58:26.716Z</time></trkpt><trkpt lat="42.2162383" lon="13.8229733"><ele>314.5</ele><time>2026-05-03T09:58:27.716Z</time></trkpt><trkpt lat="42.2161833" lon="13.8228317"><ele>313.0</ele><time>2026-05-03T09:58:28.716Z</time></trkpt><trkpt lat="42.2161283" lon="13.8227017"><ele>313.5</ele><time>2026-05-03T09:58:29.715Z</time></trkpt><trkpt lat="42.216075" lon="13.8225733"><ele>314.0</ele><time>2026-05-03T09:58:30.715Z</time></trkpt><trkpt lat="42.215995" lon="13.8224567"><ele>314.5</ele><time>2026-05-03T09:58:31.715Z</time></trkpt><trkpt lat="42.2159" lon="13.8223617"><ele>315.0</ele><time>2026-05-03T09:58:32.715Z</time></trkpt><trkpt lat="42.21579" lon="13.8223117"><ele>315.0</ele><time>2026-05-03T09:58:33.715Z</time></trkpt><trkpt lat="42.2156617" lon="13.8222933"><ele>315.0</ele><time>2026-05-03T09:58:34.716Z</time></trkpt><trkpt lat="42.215535" lon="13.8223067"><ele>315.0</ele><time>2026-05-03T09:58:35.715Z</time></trkpt><trkpt lat="42.21541" lon="13.8223233"><ele>315.0</ele><time>2026-05-03T09:58:36.715Z</time></trkpt><trkpt lat="42.215305" lon="13.8223867"><ele>315.2</ele><time>2026-05-03T09:58:37.715Z</time></trkpt><trkpt lat="42.215195" lon="13.8224617"><ele>315.4</ele><time>2026-05-03T09:58:38.715Z</time></trkpt><trkpt lat="42.2150983" lon="13.8225267"><ele>315.6</ele><time>2026-05-03T09:58:39.715Z</time></trkpt><trkpt lat="42.2150067" lon="13.82259"><ele>315.8</ele><time>2026-05-03T09:58:40.715Z</time></trkpt><trkpt lat="42.2149083" lon="13.8226583"><ele>316.0</ele><time>2026-05-03T09:58:41.716Z</time></trkpt><trkpt lat="42.2148267" lon="13.8227033"><ele>316.16666666666663</ele><time>2026-05-03T09:58:42.715Z</time></trkpt><trkpt lat="42.214745" lon="13.8227383"><ele>316.3333333333333</ele><time>2026-05-03T09:58:43.715Z</time></trkpt><trkpt lat="42.21467" lon="13.82279"><ele>316.5</ele><time>2026-05-03T09:58:44.715Z</time></trkpt><trkpt lat="42.2145967" lon="13.8228267"><ele>316.6666666666667</ele><time>2026-05-03T09:58:45.715Z</time></trkpt><trkpt lat="42.21452" lon="13.822815"><ele>316.83333333333337</ele><time>2026-05-03T09:58:46.716Z</time></trkpt><trkpt lat="42.214435" lon="13.8227833"><ele>317.0</ele><time>2026-05-03T09:58:47.716Z</time></trkpt><trkpt lat="42.2143517" lon="13.82273"><ele>317.0</ele><time>2026-05-03T09:58:48.715Z</time></trkpt><trkpt lat="42.2142733" lon="13.8226767"><ele>317.0</ele><time>2026-05-03T09:58:49.715Z</time></trkpt><trkpt lat="42.2142083" lon="13.8226333"><ele>317.0</ele><time>2026-05-03T09:58:50.716Z</time></trkpt><trkpt lat="42.21413" lon="13.8225033"><ele>317.0</ele><time>2026-05-03T09:58:52.716Z</time></trkpt><trkpt lat="42.2141017" lon="13.8224067"><ele>317.0</ele><time>2026-05-03T09:58:53.716Z</time></trkpt><trkpt lat="42.2140767" lon="13.8223117"><ele>317.0</ele><time>2026-05-03T09:58:54.716Z</time></trkpt><trkpt lat="42.2140633" lon="13.8222167"><ele>317.0</ele><time>2026-05-03T09:58:55.715Z</time></trkpt><trkpt lat="42.2140467" lon="13.8221133"><ele>317.0</ele><time>2026-05-03T09:58:56.716Z</time></trkpt><trkpt lat="42.214065" lon="13.8219867"><ele>317.0</ele><time>2026-05-03T09:58:58.716Z</time></trkpt><trkpt lat="42.2141517" lon="13.8218883"><ele>317.0</ele><time>2026-05-03T09:59:00.716Z</time></trkpt><trkpt lat="42.21422" lon="13.8218417"><ele>317.0</ele><time>2026-05-03T09:59:01.716Z</time></trkpt><trkpt lat="42.214285" lon="13.8217817"><ele>317.0</ele><time>2026-05-03T09:59:02.715Z</time></trkpt><trkpt lat="42.214345" lon="13.8217117"><ele>317.4</ele><time>2026-05-03T09:59:03.716Z</time></trkpt><trkpt lat="42.2144033" lon="13.8216433"><ele>317.79999999999995</ele><time>2026-05-03T09:59:04.715Z</time></trkpt><trkpt lat="42.214465" lon="13.8215783"><ele>318.2</ele><time>2026-05-03T09:59:05.715Z</time></trkpt><trkpt lat="42.2145283" lon="13.8214967"><ele>318.59999999999997</ele><time>2026-05-03T09:59:06.715Z</time></trkpt><trkpt lat="42.214595" lon="13.8213983"><ele>319.0</ele><time>2026-05-03T09:59:07.715Z</time></trkpt><trkpt lat="42.214675" lon="13.8213"><ele>319.0</ele><time>2026-05-03T09:59:08.716Z</time></trkpt><trkpt lat="42.2147533" lon="13.8211933"><ele>319.0</ele><time>2026-05-03T09:59:09.715Z</time></trkpt><trkpt lat="42.2148183" lon="13.8210833"><ele>319.0</ele><time>2026-05-03T09:59:10.715Z</time></trkpt><trkpt lat="42.2148917" lon="13.8209883"><ele>319.0</ele><time>2026-05-03T09:59:11.716Z</time></trkpt><trkpt lat="42.2149617" lon="13.82089"><ele>319.0</ele><time>2026-05-03T09:59:12.716Z</time></trkpt><trkpt lat="42.2150183" lon="13.8208067"><ele>319.0</ele><time>2026-05-03T09:59:13.715Z</time></trkpt><trkpt lat="42.2150767" lon="13.820715"><ele>319.0</ele><time>2026-05-03T09:59:14.715Z</time></trkpt><trkpt lat="42.2151333" lon="13.8206267"><ele>319.0</ele><time>2026-05-03T09:59:15.716Z</time></trkpt><trkpt lat="42.21519" lon="13.8205417"><ele>319.0</ele><time>2026-05-03T09:59:16.716Z</time></trkpt><trkpt lat="42.2152333" lon="13.8204617"><ele>319.0</ele><time>2026-05-03T09:59:17.716Z</time></trkpt><trkpt lat="42.215265" lon="13.8203383"><ele>319.0</ele><time>2026-05-03T09:59:19.715Z</time></trkpt><trkpt lat="42.21519" lon="13.82028"><ele>319.0</ele><time>2026-05-03T09:59:21.715Z</time></trkpt><trkpt lat="42.2151167" lon="13.82028"><ele>319.0</ele><time>2026-05-03T09:59:22.716Z</time></trkpt><trkpt lat="42.21505" lon="13.820295"><ele>319.0</ele><time>2026-05-03T09:59:23.716Z</time></trkpt><trkpt lat="42.214985" lon="13.820325"><ele>319.0</ele><time>2026-05-03T09:59:25.716Z</time></trkpt><trkpt lat="42.2149217" lon="13.8203983"><ele>319.0</ele><time>2026-05-03T09:59:44.716Z</time></trkpt><trkpt lat="42.21494" lon="13.8203017"><ele>319.0</ele><time>2026-05-03T10:03:13.714Z</time></trkpt><trkpt lat="42.2150483" lon="13.8203433"><ele>319.0</ele><time>2026-05-03T10:03:15.714Z</time></trkpt><trkpt lat="42.2150433" lon="13.8204767"><ele>319.0</ele><time>2026-05-03T10:03:17.715Z</time></trkpt><trkpt lat="42.2150033" lon="13.8205717"><ele>319.0</ele><time>2026-05-03T10:03:18.715Z</time></trkpt><trkpt lat="42.2149667" lon="13.8206633"><ele>319.0</ele><time>2026-05-03T10:03:19.715Z</time></trkpt><trkpt lat="42.2149283" lon="13.8207533"><ele>319.0</ele><time>2026-05-03T10:03:20.714Z</time></trkpt><trkpt lat="42.2148817" lon="13.820845"><ele>319.0</ele><time>2026-05-03T10:03:21.715Z</time></trkpt><trkpt lat="42.2148283" lon="13.82093"><ele>319.0</ele><time>2026-05-03T10:03:22.715Z</time></trkpt><trkpt lat="42.214775" lon="13.821015"><ele>319.0</ele><time>2026-05-03T10:03:23.714Z</time></trkpt><trkpt lat="42.2147317" lon="13.8210883"><ele>319.0</ele><time>2026-05-03T10:03:24.715Z</time></trkpt><trkpt lat="42.214685" lon="13.821155"><ele>319.0</ele><time>2026-05-03T10:03:25.714Z</time></trkpt><trkpt lat="42.2146517" lon="13.8212283"><ele>319.0</ele><time>2026-05-03T10:03:26.714Z</time></trkpt><trkpt lat="42.2145667" lon="13.8213633"><ele>319.0</ele><time>2026-05-03T10:03:28.715Z</time></trkpt><trkpt lat="42.2145183" lon="13.8214383"><ele>319.0</ele><time>2026-05-03T10:03:29.715Z</time></trkpt><trkpt lat="42.2144667" lon="13.8215117"><ele>319.0</ele><time>2026-05-03T10:03:30.714Z</time></trkpt><trkpt lat="42.214405" lon="13.8215983"><ele>319.0</ele><time>2026-05-03T10:03:31.715Z</time></trkpt><trkpt lat="42.2143467" lon="13.8216767"><ele>319.0</ele><time>2026-05-03T10:03:32.715Z</time></trkpt><trkpt lat="42.2142817" lon="13.82175"><ele>319.0</ele><time>2026-05-03T10:03:33.715Z</time></trkpt><trkpt lat="42.2142217" lon="13.82182"><ele>319.0</ele><time>2026-05-03T10:03:34.715Z</time></trkpt><trkpt lat="42.2141533" lon="13.8218767"><ele>318.66666666666663</ele><time>2026-05-03T10:03:35.715Z</time></trkpt><trkpt lat="42.2140883" lon="13.8219333"><ele>318.3333333333333</ele><time>2026-05-03T10:03:36.715Z</time></trkpt><trkpt lat="42.21403" lon="13.8219733"><ele>318.0</ele><time>2026-05-03T10:03:37.715Z</time></trkpt><trkpt lat="42.2139317" lon="13.82202"><ele>317.6666666666667</ele><time>2026-05-03T10:03:39.715Z</time></trkpt><trkpt lat="42.213845" lon="13.8220517"><ele>317.33333333333337</ele><time>2026-05-03T10:03:41.715Z</time></trkpt><trkpt lat="42.2137383" lon="13.8220917"><ele>317.0</ele><time>2026-05-03T10:03:43.714Z</time></trkpt><trkpt lat="42.2136233" lon="13.8221283"><ele>317.0</ele><time>2026-05-03T10:03:45.715Z</time></trkpt><trkpt lat="42.2134933" lon="13.8221733"><ele>317.0</ele><time>2026-05-03T10:03:47.715Z</time></trkpt><trkpt lat="42.21342" lon="13.8221967"><ele>317.0</ele><time>2026-05-03T10:03:48.714Z</time></trkpt><trkpt lat="42.2133567" lon="13.822215"><ele>317.0</ele><time>2026-05-03T10:03:49.714Z</time></trkpt><trkpt lat="42.213295" lon="13.822245"><ele>317.0</ele><time>2026-05-03T10:03:50.714Z</time></trkpt><trkpt lat="42.21318" lon="13.82226"><ele>317.0</ele><time>2026-05-03T10:03:52.715Z</time></trkpt><trkpt lat="42.2131367" lon="13.8221467"><ele>317.0</ele><time>2026-05-03T10:03:54.715Z</time></trkpt><trkpt lat="42.21314" lon="13.8220517"><ele>317.0</ele><time>2026-05-03T10:03:55.715Z</time></trkpt><trkpt lat="42.2131467" lon="13.8219467"><ele>317.0</ele><time>2026-05-03T10:03:56.714Z</time></trkpt><trkpt lat="42.2131583" lon="13.8218517"><ele>317.0</ele><time>2026-05-03T10:03:57.714Z</time></trkpt><trkpt lat="42.21317" lon="13.82175"><ele>317.0</ele><time>2026-05-03T10:03:58.714Z</time></trkpt><trkpt lat="42.2131817" lon="13.8216333"><ele>317.2</ele><time>2026-05-03T10:03:59.713Z</time></trkpt><trkpt lat="42.21319" lon="13.821505"><ele>317.4</ele><time>2026-05-03T10:04:00.714Z</time></trkpt><trkpt lat="42.2131983" lon="13.8213833"><ele>317.6</ele><time>2026-05-03T10:04:01.714Z</time></trkpt><trkpt lat="42.2132133" lon="13.8212567"><ele>317.8</ele><time>2026-05-03T10:04:02.713Z</time></trkpt><trkpt lat="42.213225" lon="13.8211133"><ele>318.0</ele><time>2026-05-03T10:04:03.714Z</time></trkpt><trkpt lat="42.2132333" lon="13.8209667"><ele>317.4</ele><time>2026-05-03T10:04:04.714Z</time></trkpt><trkpt lat="42.21324" lon="13.8208283"><ele>316.8</ele><time>2026-05-03T10:04:05.714Z</time></trkpt><trkpt lat="42.2132383" lon="13.820695"><ele>316.2</ele><time>2026-05-03T10:04:06.714Z</time></trkpt><trkpt lat="42.2132217" lon="13.8205533"><ele>315.6</ele><time>2026-05-03T10:04:07.713Z</time></trkpt><trkpt lat="42.2131983" lon="13.8204633"><ele>315.0</ele><time>2026-05-03T10:04:08.713Z</time></trkpt><trkpt lat="42.2131933" lon="13.8202933"><ele>315.0</ele><time>2026-05-03T10:04:10.714Z</time></trkpt><trkpt lat="42.2132067" lon="13.8201967"><ele>315.0</ele><time>2026-05-03T10:04:11.714Z</time></trkpt><trkpt lat="42.2132367" lon="13.8200983"><ele>315.0</ele><time>2026-05-03T10:04:12.714Z</time></trkpt><trkpt lat="42.2132917" lon="13.8200017"><ele>315.0</ele><time>2026-05-03T10:04:13.714Z</time></trkpt><trkpt lat="42.21339" lon="13.8199883"><ele>315.0</ele><time>2026-05-03T10:04:14.714Z</time></trkpt><trkpt lat="42.21349" lon="13.820015"><ele>315.0</ele><time>2026-05-03T10:04:15.714Z</time></trkpt><trkpt lat="42.2135533" lon="13.8200767"><ele>315.0</ele><time>2026-05-03T10:04:16.713Z</time></trkpt><trkpt lat="42.2135933" lon="13.8201667"><ele>315.0</ele><time>2026-05-03T10:04:17.714Z</time></trkpt><trkpt lat="42.2136017" lon="13.8202667"><ele>315.0</ele><time>2026-05-03T10:04:18.714Z</time></trkpt><trkpt lat="42.2135917" lon="13.8203633"><ele>315.0</ele><time>2026-05-03T10:04:19.713Z</time></trkpt><trkpt lat="42.2135233" lon="13.82046"><ele>315.0</ele><time>2026-05-03T10:04:20.714Z</time></trkpt><trkpt lat="42.2134367" lon="13.8205383"><ele>315.0</ele><time>2026-05-03T10:04:21.713Z</time></trkpt><trkpt lat="42.213335" lon="13.82061"><ele>315.0</ele><time>2026-05-03T10:04:22.714Z</time></trkpt><trkpt lat="42.2132183" lon="13.820685"><ele>315.0</ele><time>2026-05-03T10:04:23.713Z</time></trkpt><trkpt lat="42.2131" lon="13.8207683"><ele>315.0</ele><time>2026-05-03T10:04:24.713Z</time></trkpt><trkpt lat="42.2129683" lon="13.8208533"><ele>315.0</ele><time>2026-05-03T10:04:25.714Z</time></trkpt><trkpt lat="42.2128267" lon="13.8209533"><ele>315.0</ele><time>2026-05-03T10:04:26.714Z</time></trkpt><trkpt lat="42.2126767" lon="13.82105"><ele>315.0</ele><time>2026-05-03T10:04:27.713Z</time></trkpt><trkpt lat="42.212515" lon="13.8211517"><ele>315.0</ele><time>2026-05-03T10:04:28.714Z</time></trkpt><trkpt lat="42.2123567" lon="13.8212567"><ele>315.3333333333333</ele><time>2026-05-03T10:04:29.714Z</time></trkpt><trkpt lat="42.2121883" lon="13.8213733"><ele>315.66666666666663</ele><time>2026-05-03T10:04:30.713Z</time></trkpt><trkpt lat="42.2120083" lon="13.8215033"><ele>316.0</ele><time>2026-05-03T10:04:31.714Z</time></trkpt><trkpt lat="42.21183" lon="13.82162"><ele>316.0</ele><time>2026-05-03T10:04:32.714Z</time></trkpt><trkpt lat="42.211655" lon="13.821735"><ele>316.0</ele><time>2026-05-03T10:04:33.714Z</time></trkpt><trkpt lat="42.21146" lon="13.8218483"><ele>316.0</ele><time>2026-05-03T10:04:34.714Z</time></trkpt><trkpt lat="42.2112683" lon="13.82196"><ele>314.66666666666663</ele><time>2026-05-03T10:04:35.713Z</time></trkpt><trkpt lat="42.2110783" lon="13.822085"><ele>313.3333333333333</ele><time>2026-05-03T10:04:36.713Z</time></trkpt><trkpt lat="42.2108833" lon="13.82221"><ele>312.0</ele><time>2026-05-03T10:04:37.714Z</time></trkpt><trkpt lat="42.2106917" lon="13.8223317"><ele>311.6666666666667</ele><time>2026-05-03T10:04:38.714Z</time></trkpt><trkpt lat="42.2105017" lon="13.822455"><ele>311.33333333333337</ele><time>2026-05-03T10:04:39.713Z</time></trkpt><trkpt lat="42.21032" lon="13.8225733"><ele>311.0</ele><time>2026-05-03T10:04:40.714Z</time></trkpt><trkpt lat="42.2101333" lon="13.8226917"><ele>311.0</ele><time>2026-05-03T10:04:41.714Z</time></trkpt><trkpt lat="42.20995" lon="13.8228067"><ele>311.0</ele><time>2026-05-03T10:04:42.714Z</time></trkpt><trkpt lat="42.2097817" lon="13.8229183"><ele>311.0</ele><time>2026-05-03T10:04:43.714Z</time></trkpt><trkpt lat="42.2096217" lon="13.8230283"><ele>313.0</ele><time>2026-05-03T10:04:44.714Z</time></trkpt><trkpt lat="42.209455" lon="13.8231317"><ele>315.0</ele><time>2026-05-03T10:04:45.713Z</time></trkpt><trkpt lat="42.2093" lon="13.8232317"><ele>317.0</ele><time>2026-05-03T10:04:46.714Z</time></trkpt><trkpt lat="42.2091433" lon="13.82335"><ele>317.6666666666667</ele><time>2026-05-03T10:04:47.713Z</time></trkpt><trkpt lat="42.20899" lon="13.82347"><ele>318.3333333333333</ele><time>2026-05-03T10:04:48.714Z</time></trkpt><trkpt lat="42.2088467" lon="13.823595"><ele>319.0</ele><time>2026-05-03T10:04:49.713Z</time></trkpt><trkpt lat="42.2087017" lon="13.823735"><ele>319.0</ele><time>2026-05-03T10:04:50.713Z</time></trkpt><trkpt lat="42.20855" lon="13.8238617"><ele>319.0</ele><time>2026-05-03T10:04:51.713Z</time></trkpt><trkpt lat="42.2084017" lon="13.8240017"><ele>319.0</ele><time>2026-05-03T10:04:52.714Z</time></trkpt><trkpt lat="42.20826" lon="13.8241583"><ele>322.3333333333333</ele><time>2026-05-03T10:04:53.713Z</time></trkpt><trkpt lat="42.2081133" lon="13.824335"><ele>325.6666666666667</ele><time>2026-05-03T10:04:54.713Z</time></trkpt><trkpt lat="42.2079667" lon="13.82452"><ele>329.0</ele><time>2026-05-03T10:04:55.714Z</time></trkpt><trkpt lat="42.2078283" lon="13.82472"><ele>329.0</ele><time>2026-05-03T10:04:56.713Z</time></trkpt><trkpt lat="42.207705" lon="13.8249333"><ele>329.0</ele><time>2026-05-03T10:04:57.714Z</time></trkpt><trkpt lat="42.2075817" lon="13.8251367"><ele>329.0</ele><time>2026-05-03T10:04:58.714Z</time></trkpt><trkpt lat="42.207455" lon="13.8253667"><ele>332.6666666666667</ele><time>2026-05-03T10:04:59.714Z</time></trkpt><trkpt lat="42.2073383" lon="13.8256"><ele>336.3333333333333</ele><time>2026-05-03T10:05:00.713Z</time></trkpt><trkpt lat="42.20722" lon="13.8258267"><ele>340.0</ele><time>2026-05-03T10:05:01.713Z</time></trkpt><trkpt lat="42.2071117" lon="13.826025"><ele>331.0</ele><time>2026-05-03T10:05:02.714Z</time></trkpt><trkpt lat="42.206995" lon="13.8262183"><ele>322.0</ele><time>2026-05-03T10:05:03.713Z</time></trkpt><trkpt lat="42.2068733" lon="13.8264183"><ele>313.0</ele><time>2026-05-03T10:05:04.713Z</time></trkpt><trkpt lat="42.2067417" lon="13.826595"><ele>313.0</ele><time>2026-05-03T10:05:05.713Z</time></trkpt><trkpt lat="42.2066017" lon="13.826775"><ele>313.0</ele><time>2026-05-03T10:05:06.714Z</time></trkpt><trkpt lat="42.2064667" lon="13.8269633"><ele>313.0</ele><time>2026-05-03T10:05:07.713Z</time></trkpt><trkpt lat="42.2063317" lon="13.8271633"><ele>310.3333333333333</ele><time>2026-05-03T10:05:08.714Z</time></trkpt><trkpt lat="42.20621" lon="13.8273733"><ele>307.6666666666667</ele><time>2026-05-03T10:05:09.714Z</time></trkpt><trkpt lat="42.206095" lon="13.82759"><ele>305.0</ele><time>2026-05-03T10:05:10.713Z</time></trkpt><trkpt lat="42.2059967" lon="13.8278317"><ele>305.0</ele><time>2026-05-03T10:05:11.714Z</time></trkpt><trkpt lat="42.2059117" lon="13.8280867"><ele>305.0</ele><time>2026-05-03T10:05:12.714Z</time></trkpt><trkpt lat="42.205835" lon="13.82836"><ele>305.0</ele><time>2026-05-03T10:05:13.714Z</time></trkpt><trkpt lat="42.2057783" lon="13.82866"><ele>300.0</ele><time>2026-05-03T10:05:14.714Z</time></trkpt><trkpt lat="42.2057217" lon="13.82898"><ele>295.0</ele><time>2026-05-03T10:05:15.714Z</time></trkpt><trkpt lat="42.2056733" lon="13.829315"><ele>304.5</ele><time>2026-05-03T10:05:16.714Z</time></trkpt><trkpt lat="42.2056183" lon="13.829655"><ele>314.0</ele><time>2026-05-03T10:05:17.714Z</time></trkpt><trkpt lat="42.2055683" lon="13.8299867"><ele>309.0</ele><time>2026-05-03T10:05:18.714Z</time></trkpt><trkpt lat="42.2055217" lon="13.8303083"><ele>304.0</ele><time>2026-05-03T10:05:19.713Z</time></trkpt><trkpt lat="42.2054833" lon="13.8306267"><ele>304.0</ele><time>2026-05-03T10:05:20.713Z</time></trkpt><trkpt lat="42.20543" lon="13.8309383"><ele>304.0</ele><time>2026-05-03T10:05:21.713Z</time></trkpt><trkpt lat="42.2053783" lon="13.831245"><ele>300.0</ele><time>2026-05-03T10:05:22.714Z</time></trkpt><trkpt lat="42.2053133" lon="13.8315383"><ele>296.0</ele><time>2026-05-03T10:05:23.714Z</time></trkpt><trkpt lat="42.2052367" lon="13.8318267"><ele>289.0</ele><time>2026-05-03T10:05:24.714Z</time></trkpt><trkpt lat="42.2051433" lon="13.83211"><ele>282.0</ele><time>2026-05-03T10:05:25.714Z</time></trkpt><trkpt lat="42.2050533" lon="13.8323933"><ele>275.0</ele><time>2026-05-03T10:05:26.714Z</time></trkpt><trkpt lat="42.204955" lon="13.8326683"><ele>268.0</ele><time>2026-05-03T10:05:27.713Z</time></trkpt><trkpt lat="42.2048367" lon="13.8329433"><ele>275.0</ele><time>2026-05-03T10:05:28.714Z</time></trkpt><trkpt lat="42.204725" lon="13.8332217"><ele>282.0</ele><time>2026-05-03T10:05:29.713Z</time></trkpt><trkpt lat="42.2046133" lon="13.8335083"><ele>282.0</ele><time>2026-05-03T10:05:30.713Z</time></trkpt><trkpt lat="42.204495" lon="13.8337967"><ele>282.0</ele><time>2026-05-03T10:05:31.713Z</time></trkpt><trkpt lat="42.2043917" lon="13.8340767"><ele>277.0</ele><time>2026-05-03T10:05:32.714Z</time></trkpt><trkpt lat="42.204285" lon="13.83434"><ele>272.0</ele><time>2026-05-03T10:05:33.714Z</time></trkpt><trkpt lat="42.2041867" lon="13.8345917"><ele>267.0</ele><time>2026-05-03T10:05:34.714Z</time></trkpt><trkpt lat="42.2040983" lon="13.83484"><ele>267.0</ele><time>2026-05-03T10:05:35.714Z</time></trkpt><trkpt lat="42.2040067" lon="13.8350933"><ele>267.0</ele><time>2026-05-03T10:05:36.714Z</time></trkpt><trkpt lat="42.2038967" lon="13.8353217"><ele>267.0</ele><time>2026-05-03T10:05:37.714Z</time></trkpt><trkpt lat="42.2037883" lon="13.8355383"><ele>269.6666666666667</ele><time>2026-05-03T10:05:38.714Z</time></trkpt><trkpt lat="42.2036667" lon="13.8357583"><ele>272.33333333333337</ele><time>2026-05-03T10:05:39.714Z</time></trkpt><trkpt lat="42.2035467" lon="13.83596"><ele>275.0</ele><time>2026-05-03T10:05:40.714Z</time></trkpt><trkpt lat="42.203415" lon="13.836145"><ele>271.33333333333337</ele><time>2026-05-03T10:05:41.714Z</time></trkpt><trkpt lat="42.2032817" lon="13.83632"><ele>267.6666666666667</ele><time>2026-05-03T10:05:42.714Z</time></trkpt><trkpt lat="42.2031317" lon="13.8364833"><ele>264.0</ele><time>2026-05-03T10:05:43.713Z</time></trkpt><trkpt lat="42.2029833" lon="13.836645"><ele>264.0</ele><time>2026-05-03T10:05:44.714Z</time></trkpt><trkpt lat="42.20281" lon="13.8367767"><ele>264.0</ele><time>2026-05-03T10:05:45.714Z</time></trkpt><trkpt lat="42.20263" lon="13.8369"><ele>264.0</ele><time>2026-05-03T10:05:46.714Z</time></trkpt><trkpt lat="42.2024517" lon="13.83701"><ele>260.6666666666667</ele><time>2026-05-03T10:05:47.714Z</time></trkpt><trkpt lat="42.202265" lon="13.837105"><ele>257.33333333333337</ele><time>2026-05-03T10:05:48.714Z</time></trkpt><trkpt lat="42.2020883" lon="13.837185"><ele>254.0</ele><time>2026-05-03T10:05:49.714Z</time></trkpt><trkpt lat="42.20189" lon="13.8372317"><ele>254.0</ele><time>2026-05-03T10:05:50.714Z</time></trkpt><trkpt lat="42.2016967" lon="13.8372733"><ele>254.0</ele><time>2026-05-03T10:05:51.714Z</time></trkpt><trkpt lat="42.2015017" lon="13.8372983"><ele>254.0</ele><time>2026-05-03T10:05:52.714Z</time></trkpt><trkpt lat="42.201315" lon="13.8373183"><ele>255.0</ele><time>2026-05-03T10:05:53.714Z</time></trkpt><trkpt lat="42.2011267" lon="13.8373367"><ele>256.0</ele><time>2026-05-03T10:05:54.714Z</time></trkpt><trkpt lat="42.2009533" lon="13.8373717"><ele>257.0</ele><time>2026-05-03T10:05:55.713Z</time></trkpt><trkpt lat="42.2007733" lon="13.8373967"><ele>259.0</ele><time>2026-05-03T10:05:56.714Z</time></trkpt><trkpt lat="42.2005933" lon="13.8374217"><ele>261.0</ele><time>2026-05-03T10:05:57.714Z</time></trkpt><trkpt lat="42.2004067" lon="13.83744"><ele>263.0</ele><time>2026-05-03T10:05:58.714Z</time></trkpt><trkpt lat="42.2002233" lon="13.8374617"><ele>263.0</ele><time>2026-05-03T10:05:59.714Z</time></trkpt><trkpt lat="42.2000383" lon="13.837485"><ele>263.0</ele><time>2026-05-03T10:06:00.714Z</time></trkpt><trkpt lat="42.1998633" lon="13.8375167"><ele>263.0</ele><time>2026-05-03T10:06:01.713Z</time></trkpt><trkpt lat="42.1996833" lon="13.83754"><ele>265.0</ele><time>2026-05-03T10:06:02.714Z</time></trkpt><trkpt lat="42.1995217" lon="13.8375633"><ele>267.0</ele><time>2026-05-03T10:06:03.713Z</time></trkpt><trkpt lat="42.1993583" lon="13.8375883"><ele>269.0</ele><time>2026-05-03T10:06:04.713Z</time></trkpt><trkpt lat="42.1991967" lon="13.8376033"><ele>269.0</ele><time>2026-05-03T10:06:05.714Z</time></trkpt><trkpt lat="42.19903" lon="13.8375983"><ele>269.0</ele><time>2026-05-03T10:06:06.713Z</time></trkpt><trkpt lat="42.1988667" lon="13.8375717"><ele>269.0</ele><time>2026-05-03T10:06:07.714Z</time></trkpt><trkpt lat="42.1987033" lon="13.8375267"><ele>268.0</ele><time>2026-05-03T10:06:08.713Z</time></trkpt><trkpt lat="42.19854" lon="13.837485"><ele>267.0</ele><time>2026-05-03T10:06:09.714Z</time></trkpt><trkpt lat="42.1983867" lon="13.83745"><ele>266.0</ele><time>2026-05-03T10:06:10.713Z</time></trkpt><trkpt lat="42.1982283" lon="13.8374167"><ele>265.33333333333337</ele><time>2026-05-03T10:06:11.713Z</time></trkpt><trkpt lat="42.1980617" lon="13.837415"><ele>264.6666666666667</ele><time>2026-05-03T10:06:12.714Z</time></trkpt><trkpt lat="42.1979" lon="13.8374267"><ele>264.0</ele><time>2026-05-03T10:06:13.714Z</time></trkpt><trkpt lat="42.1977233" lon="13.8374617"><ele>264.0</ele><time>2026-05-03T10:06:14.713Z</time></trkpt><trkpt lat="42.19755" lon="13.8375183"><ele>264.0</ele><time>2026-05-03T10:06:15.714Z</time></trkpt><trkpt lat="42.19738" lon="13.8375917"><ele>264.0</ele><time>2026-05-03T10:06:16.713Z</time></trkpt><trkpt lat="42.1972183" lon="13.8376917"><ele>265.6666666666667</ele><time>2026-05-03T10:06:17.714Z</time></trkpt><trkpt lat="42.19706" lon="13.8378067"><ele>267.33333333333337</ele><time>2026-05-03T10:06:18.714Z</time></trkpt><trkpt lat="42.1969133" lon="13.8379317"><ele>269.0</ele><time>2026-05-03T10:06:19.714Z</time></trkpt><trkpt lat="42.1967817" lon="13.838065"><ele>269.0</ele><time>2026-05-03T10:06:20.713Z</time></trkpt><trkpt lat="42.1966517" lon="13.8382033"><ele>269.0</ele><time>2026-05-03T10:06:21.714Z</time></trkpt><trkpt lat="42.1965383" lon="13.838365"><ele>269.0</ele><time>2026-05-03T10:06:22.713Z</time></trkpt><trkpt lat="42.1964283" lon="13.83854"><ele>278.33333333333337</ele><time>2026-05-03T10:06:23.713Z</time></trkpt><trkpt lat="42.196315" lon="13.8387317"><ele>287.6666666666667</ele><time>2026-05-03T10:06:24.713Z</time></trkpt><trkpt lat="42.1962333" lon="13.8389383"><ele>297.0</ele><time>2026-05-03T10:06:25.714Z</time></trkpt><trkpt lat="42.1961517" lon="13.839155"><ele>291.6666666666667</ele><time>2026-05-03T10:06:26.713Z</time></trkpt><trkpt lat="42.1960883" lon="13.8393783"><ele>286.33333333333337</ele><time>2026-05-03T10:06:27.714Z</time></trkpt><trkpt lat="42.1960417" lon="13.839615"><ele>281.0</ele><time>2026-05-03T10:06:28.713Z</time></trkpt><trkpt lat="42.196025" lon="13.83987"><ele>281.0</ele><time>2026-05-03T10:06:29.713Z</time></trkpt><trkpt lat="42.1960083" lon="13.8401083"><ele>281.0</ele><time>2026-05-03T10:06:30.713Z</time></trkpt><trkpt lat="42.196005" lon="13.84036"><ele>281.0</ele><time>2026-05-03T10:06:31.713Z</time></trkpt><trkpt lat="42.196" lon="13.8405883"><ele>279.0</ele><time>2026-05-03T10:06:32.713Z</time></trkpt><trkpt lat="42.1959933" lon="13.840825"><ele>277.0</ele><time>2026-05-03T10:06:33.713Z</time></trkpt><trkpt lat="42.1959783" lon="13.8410367"><ele>275.0</ele><time>2026-05-03T10:06:34.714Z</time></trkpt><trkpt lat="42.195955" lon="13.84126"><ele>272.33333333333337</ele><time>2026-05-03T10:06:35.713Z</time></trkpt><trkpt lat="42.19594" lon="13.8414867"><ele>269.6666666666667</ele><time>2026-05-03T10:06:36.714Z</time></trkpt><trkpt lat="42.1959033" lon="13.8416933"><ele>267.0</ele><time>2026-05-03T10:06:37.714Z</time></trkpt><trkpt lat="42.1958483" lon="13.8418933"><ele>263.3333333333333</ele><time>2026-05-03T10:06:38.714Z</time></trkpt><trkpt lat="42.1957767" lon="13.84209"><ele>259.66666666666663</ele><time>2026-05-03T10:06:39.714Z</time></trkpt><trkpt lat="42.1957017" lon="13.842285"><ele>256.0</ele><time>2026-05-03T10:06:40.713Z</time></trkpt><trkpt lat="42.1956133" lon="13.8424733"><ele>271.25</ele><time>2026-05-03T10:06:41.714Z</time></trkpt><trkpt lat="42.1955267" lon="13.842625"><ele>286.5</ele><time>2026-05-03T10:06:42.713Z</time></trkpt><trkpt lat="42.195445" lon="13.8427567"><ele>301.75</ele><time>2026-05-03T10:06:43.714Z</time></trkpt><trkpt lat="42.19534" lon="13.84291"><ele>317.0</ele><time>2026-05-03T10:06:44.714Z</time></trkpt><trkpt lat="42.1952383" lon="13.8430583"><ele>320.25</ele><time>2026-05-03T10:06:45.713Z</time></trkpt><trkpt lat="42.195135" lon="13.8432067"><ele>323.5</ele><time>2026-05-03T10:06:46.714Z</time></trkpt><trkpt lat="42.1950383" lon="13.8433583"><ele>326.75</ele><time>2026-05-03T10:06:47.714Z</time></trkpt><trkpt lat="42.1949517" lon="13.843515"><ele>330.0</ele><time>2026-05-03T10:06:48.714Z</time></trkpt><trkpt lat="42.1948483" lon="13.843655"><ele>340.0</ele><time>2026-05-03T10:06:49.714Z</time></trkpt><trkpt lat="42.1947467" lon="13.8438"><ele>350.0</ele><time>2026-05-03T10:06:50.713Z</time></trkpt><trkpt lat="42.1946483" lon="13.8439483"><ele>360.0</ele><time>2026-05-03T10:06:51.714Z</time></trkpt><trkpt lat="42.19445" lon="13.844245"><ele>352.0</ele><time>2026-05-03T10:06:53.714Z</time></trkpt><trkpt lat="42.1943483" lon="13.84439"><ele>344.0</ele><time>2026-05-03T10:06:54.713Z</time></trkpt><trkpt lat="42.1917433" lon="13.846395"><ele>320.0</ele><time>2026-05-03T10:07:10.762Z</time></trkpt><trkpt lat="42.1916367" lon="13.84651"><ele>296.0</ele><time>2026-05-03T10:07:11.762Z</time></trkpt><trkpt lat="42.1915367" lon="13.8466217"><ele>272.0</ele><time>2026-05-03T10:07:12.762Z</time></trkpt><trkpt lat="42.1914417" lon="13.8467267"><ele>248.0</ele><time>2026-05-03T10:07:13.762Z</time></trkpt><trkpt lat="42.191345" lon="13.8468333"><ele>247.0</ele><time>2026-05-03T10:07:14.761Z</time></trkpt><trkpt lat="42.1912483" lon="13.8469417"><ele>246.0</ele><time>2026-05-03T10:07:15.761Z</time></trkpt><trkpt lat="42.19115" lon="13.84704"><ele>245.0</ele><time>2026-05-03T10:07:16.762Z</time></trkpt><trkpt lat="42.1910433" lon="13.84713"><ele>244.0</ele><time>2026-05-03T10:07:17.762Z</time></trkpt><trkpt lat="42.190935" lon="13.84727"><ele>244.0</ele><time>2026-05-03T10:07:18.761Z</time></trkpt><trkpt lat="42.1908233" lon="13.8474067"><ele>244.0</ele><time>2026-05-03T10:07:19.761Z</time></trkpt><trkpt lat="42.1907267" lon="13.84749"><ele>244.0</ele><time>2026-05-03T10:07:20.762Z</time></trkpt><trkpt lat="42.1906267" lon="13.84756"><ele>244.0</ele><time>2026-05-03T10:07:21.761Z</time></trkpt><trkpt lat="42.190535" lon="13.8475983"><ele>244.2</ele><time>2026-05-03T10:07:22.762Z</time></trkpt><trkpt lat="42.1904283" lon="13.8476067"><ele>244.39999999999998</ele><time>2026-05-03T10:07:23.762Z</time></trkpt><trkpt lat="42.1903283" lon="13.8476267"><ele>244.6</ele><time>2026-05-03T10:07:24.762Z</time></trkpt><trkpt lat="42.1902367" lon="13.8476817"><ele>244.8</ele><time>2026-05-03T10:07:25.761Z</time></trkpt><trkpt lat="42.19016" lon="13.8477683"><ele>245.0</ele><time>2026-05-03T10:07:26.762Z</time></trkpt><trkpt lat="42.1901217" lon="13.8478817"><ele>246.6</ele><time>2026-05-03T10:07:27.761Z</time></trkpt><trkpt lat="42.1901367" lon="13.8479867"><ele>248.2</ele><time>2026-05-03T10:07:28.761Z</time></trkpt><trkpt lat="42.1901817" lon="13.848095"><ele>249.8</ele><time>2026-05-03T10:07:29.762Z</time></trkpt><trkpt lat="42.1902583" lon="13.848175"><ele>251.4</ele><time>2026-05-03T10:07:30.762Z</time></trkpt><trkpt lat="42.1903467" lon="13.8482283"><ele>253.0</ele><time>2026-05-03T10:07:31.762Z</time></trkpt><trkpt lat="42.190445" lon="13.8482883"><ele>253.0</ele><time>2026-05-03T10:07:32.762Z</time></trkpt><trkpt lat="42.190535" lon="13.848375"><ele>253.0</ele><time>2026-05-03T10:07:33.762Z</time></trkpt><trkpt lat="42.1906183" lon="13.8484733"><ele>253.0</ele><time>2026-05-03T10:07:34.761Z</time></trkpt><trkpt lat="42.19069" lon="13.8486017"><ele>253.0</ele><time>2026-05-03T10:07:35.762Z</time></trkpt><trkpt lat="42.1907583" lon="13.8487383"><ele>251.5</ele><time>2026-05-03T10:07:36.761Z</time></trkpt><trkpt lat="42.19083" lon="13.84889"><ele>250.0</ele><time>2026-05-03T10:07:37.76Z</time></trkpt><trkpt lat="42.1909033" lon="13.8490533"><ele>248.5</ele><time>2026-05-03T10:07:38.761Z</time></trkpt><trkpt lat="42.1909833" lon="13.8492117"><ele>247.0</ele><time>2026-05-03T10:07:39.761Z</time></trkpt><trkpt lat="42.1910733" lon="13.8493817"><ele>254.66666666666666</ele><time>2026-05-03T10:07:40.76Z</time></trkpt><trkpt lat="42.1911633" lon="13.8495583"><ele>262.3333333333333</ele><time>2026-05-03T10:07:41.761Z</time></trkpt><trkpt lat="42.19125" lon="13.8497417"><ele>270.0</ele><time>2026-05-03T10:07:42.76Z</time></trkpt><trkpt lat="42.19134" lon="13.8499033"><ele>270.0</ele><time>2026-05-03T10:07:43.761Z</time></trkpt><trkpt lat="42.19144" lon="13.85007"><ele>270.0</ele><time>2026-05-03T10:07:44.76Z</time></trkpt><trkpt lat="42.191545" lon="13.85023"><ele>270.0</ele><time>2026-05-03T10:07:45.761Z</time></trkpt><trkpt lat="42.1916733" lon="13.850395"><ele>267.3333333333333</ele><time>2026-05-03T10:07:46.761Z</time></trkpt><trkpt lat="42.1918017" lon="13.8505517"><ele>264.66666666666663</ele><time>2026-05-03T10:07:47.761Z</time></trkpt><trkpt lat="42.1919317" lon="13.8507117"><ele>262.0</ele><time>2026-05-03T10:07:48.76Z</time></trkpt><trkpt lat="42.1920733" lon="13.85086"><ele>262.3333333333333</ele><time>2026-05-03T10:07:49.76Z</time></trkpt><trkpt lat="42.1922167" lon="13.8509867"><ele>262.6666666666667</ele><time>2026-05-03T10:07:50.761Z</time></trkpt><trkpt lat="42.19236" lon="13.851115"><ele>263.0</ele><time>2026-05-03T10:07:51.76Z</time></trkpt><trkpt lat="42.1925033" lon="13.851245"><ele>263.0</ele><time>2026-05-03T10:07:52.761Z</time></trkpt><trkpt lat="42.192635" lon="13.85138"><ele>263.0</ele><time>2026-05-03T10:07:53.761Z</time></trkpt><trkpt lat="42.1927633" lon="13.851515"><ele>263.0</ele><time>2026-05-03T10:07:54.761Z</time></trkpt><trkpt lat="42.192885" lon="13.8516517"><ele>263.0</ele><time>2026-05-03T10:07:55.761Z</time></trkpt><trkpt lat="42.1930217" lon="13.85176"><ele>263.0</ele><time>2026-05-03T10:07:56.76Z</time></trkpt><trkpt lat="42.1931667" lon="13.851865"><ele>263.0</ele><time>2026-05-03T10:07:57.76Z</time></trkpt><trkpt lat="42.1933317" lon="13.8519317"><ele>268.33333333333337</ele><time>2026-05-03T10:07:58.76Z</time></trkpt><trkpt lat="42.1934833" lon="13.8519667"><ele>273.6666666666667</ele><time>2026-05-03T10:07:59.761Z</time></trkpt><trkpt lat="42.1936483" lon="13.8519883"><ele>279.0</ele><time>2026-05-03T10:08:00.76Z</time></trkpt><trkpt lat="42.1938167" lon="13.852015"><ele>279.0</ele><time>2026-05-03T10:08:01.761Z</time></trkpt><trkpt lat="42.1939817" lon="13.8520467"><ele>279.0</ele><time>2026-05-03T10:08:02.76Z</time></trkpt><trkpt lat="42.1941483" lon="13.8520717"><ele>279.0</ele><time>2026-05-03T10:08:03.761Z</time></trkpt><trkpt lat="42.1943117" lon="13.8520867"><ele>272.3333333333333</ele><time>2026-05-03T10:08:04.761Z</time></trkpt><trkpt lat="42.19448" lon="13.8521367"><ele>265.66666666666663</ele><time>2026-05-03T10:08:05.761Z</time></trkpt><trkpt lat="42.194655" lon="13.852205"><ele>259.0</ele><time>2026-05-03T10:08:06.761Z</time></trkpt><trkpt lat="42.1948067" lon="13.8523"><ele>261.0</ele><time>2026-05-03T10:08:07.761Z</time></trkpt><trkpt lat="42.19494" lon="13.8524283"><ele>263.0</ele><time>2026-05-03T10:08:08.761Z</time></trkpt><trkpt lat="42.1950633" lon="13.8525733"><ele>265.0</ele><time>2026-05-03T10:08:09.761Z</time></trkpt><trkpt lat="42.1951867" lon="13.8527417"><ele>265.0</ele><time>2026-05-03T10:08:10.761Z</time></trkpt><trkpt lat="42.1952917" lon="13.852925"><ele>265.0</ele><time>2026-05-03T10:08:11.761Z</time></trkpt><trkpt lat="42.19538" lon="13.85312"><ele>265.0</ele><time>2026-05-03T10:08:12.76Z</time></trkpt><trkpt lat="42.1954483" lon="13.85333"><ele>270.0</ele><time>2026-05-03T10:08:13.76Z</time></trkpt><trkpt lat="42.1955183" lon="13.853535"><ele>275.0</ele><time>2026-05-03T10:08:14.761Z</time></trkpt><trkpt lat="42.1955817" lon="13.853745"><ele>280.0</ele><time>2026-05-03T10:08:15.761Z</time></trkpt><trkpt lat="42.1956467" lon="13.8539633"><ele>269.66666666666663</ele><time>2026-05-03T10:08:16.761Z</time></trkpt><trkpt lat="42.1957133" lon="13.8541883"><ele>259.3333333333333</ele><time>2026-05-03T10:08:17.761Z</time></trkpt><trkpt lat="42.1957717" lon="13.8544117"><ele>249.0</ele><time>2026-05-03T10:08:18.76Z</time></trkpt><trkpt lat="42.195835" lon="13.8546283"><ele>249.0</ele><time>2026-05-03T10:08:19.761Z</time></trkpt><trkpt lat="42.1959017" lon="13.85483"><ele>249.0</ele><time>2026-05-03T10:08:20.761Z</time></trkpt><trkpt lat="42.195935" lon="13.855025"><ele>249.0</ele><time>2026-05-03T10:08:21.76Z</time></trkpt><trkpt lat="42.1959433" lon="13.855225"><ele>249.0</ele><time>2026-05-03T10:08:22.761Z</time></trkpt><trkpt lat="42.1959417" lon="13.85543"><ele>249.0</ele><time>2026-05-03T10:08:23.761Z</time></trkpt><trkpt lat="42.1959183" lon="13.855665"><ele>249.0</ele><time>2026-05-03T10:08:24.761Z</time></trkpt><trkpt lat="42.1958817" lon="13.85591"><ele>248.33333333333331</ele><time>2026-05-03T10:08:25.761Z</time></trkpt><trkpt lat="42.1958567" lon="13.8561583"><ele>247.66666666666666</ele><time>2026-05-03T10:08:26.761Z</time></trkpt><trkpt lat="42.1958367" lon="13.8564"><ele>247.0</ele><time>2026-05-03T10:08:27.761Z</time></trkpt><trkpt lat="42.195825" lon="13.8566567"><ele>247.33333333333331</ele><time>2026-05-03T10:08:28.76Z</time></trkpt><trkpt lat="42.1958067" lon="13.8569217"><ele>247.66666666666669</ele><time>2026-05-03T10:08:29.76Z</time></trkpt><trkpt lat="42.19579" lon="13.8571883"><ele>248.0</ele><time>2026-05-03T10:08:30.76Z</time></trkpt><trkpt lat="42.1957733" lon="13.8574533"><ele>247.0</ele><time>2026-05-03T10:08:31.761Z</time></trkpt><trkpt lat="42.1957517" lon="13.8577217"><ele>246.0</ele><time>2026-05-03T10:08:32.76Z</time></trkpt><trkpt lat="42.1957267" lon="13.85799"><ele>245.0</ele><time>2026-05-03T10:08:33.761Z</time></trkpt><trkpt lat="42.195705" lon="13.85826"><ele>258.0</ele><time>2026-05-03T10:08:34.76Z</time></trkpt><trkpt lat="42.1956667" lon="13.8585217"><ele>271.0</ele><time>2026-05-03T10:08:35.76Z</time></trkpt><trkpt lat="42.1956267" lon="13.85878"><ele>284.0</ele><time>2026-05-03T10:08:36.761Z</time></trkpt><trkpt lat="42.1955817" lon="13.85904"><ele>281.33333333333337</ele><time>2026-05-03T10:08:37.761Z</time></trkpt><trkpt lat="42.19554" lon="13.859295"><ele>278.6666666666667</ele><time>2026-05-03T10:08:38.76Z</time></trkpt><trkpt lat="42.19551" lon="13.859535"><ele>276.0</ele><time>2026-05-03T10:08:39.761Z</time></trkpt><trkpt lat="42.1954933" lon="13.8597817"><ele>276.0</ele><time>2026-05-03T10:08:40.761Z</time></trkpt><trkpt lat="42.19551" lon="13.8600333"><ele>276.0</ele><time>2026-05-03T10:08:41.761Z</time></trkpt><trkpt lat="42.1955133" lon="13.860275"><ele>276.0</ele><time>2026-05-03T10:08:42.761Z</time></trkpt><trkpt lat="42.195515" lon="13.8605"><ele>275.5</ele><time>2026-05-03T10:08:43.76Z</time></trkpt><trkpt lat="42.1955267" lon="13.86071"><ele>275.0</ele><time>2026-05-03T10:08:44.76Z</time></trkpt><trkpt lat="42.1955333" lon="13.8609117"><ele>274.5</ele><time>2026-05-03T10:08:45.76Z</time></trkpt><trkpt lat="42.195545" lon="13.8611033"><ele>274.0</ele><time>2026-05-03T10:08:46.76Z</time></trkpt><trkpt lat="42.1955517" lon="13.8612883"><ele>273.8</ele><time>2026-05-03T10:08:47.76Z</time></trkpt><trkpt lat="42.1955683" lon="13.8614583"><ele>273.59999999999997</ele><time>2026-05-03T10:08:48.761Z</time></trkpt><trkpt lat="42.19557" lon="13.8616017"><ele>273.4</ele><time>2026-05-03T10:08:49.761Z</time></trkpt><trkpt lat="42.1955767" lon="13.8617233"><ele>273.2</ele><time>2026-05-03T10:08:50.76Z</time></trkpt><trkpt lat="42.1955767" lon="13.86183"><ele>273.0</ele><time>2026-05-03T10:08:51.761Z</time></trkpt><trkpt lat="42.1955667" lon="13.8619383"><ele>274.4</ele><time>2026-05-03T10:08:52.761Z</time></trkpt><trkpt lat="42.19557" lon="13.862055"><ele>275.8</ele><time>2026-05-03T10:08:53.76Z</time></trkpt><trkpt lat="42.195595" lon="13.86219"><ele>277.2</ele><time>2026-05-03T10:08:54.76Z</time></trkpt><trkpt lat="42.1956167" lon="13.8623333"><ele>278.6</ele><time>2026-05-03T10:08:55.761Z</time></trkpt><trkpt lat="42.1956417" lon="13.86249"><ele>280.0</ele><time>2026-05-03T10:08:56.761Z</time></trkpt><trkpt lat="42.1956783" lon="13.862655"><ele>271.5</ele><time>2026-05-03T10:08:57.76Z</time></trkpt><trkpt lat="42.1957317" lon="13.862825"><ele>263.0</ele><time>2026-05-03T10:08:58.76Z</time></trkpt><trkpt lat="42.195795" lon="13.863005"><ele>254.5</ele><time>2026-05-03T10:08:59.761Z</time></trkpt><trkpt lat="42.195865" lon="13.86318"><ele>246.0</ele><time>2026-05-03T10:09:00.76Z</time></trkpt><trkpt lat="42.1959333" lon="13.8633667"><ele>251.33333333333331</ele><time>2026-05-03T10:09:01.761Z</time></trkpt><trkpt lat="42.1960117" lon="13.8635617"><ele>256.66666666666663</ele><time>2026-05-03T10:09:02.76Z</time></trkpt><trkpt lat="42.1960933" lon="13.86377"><ele>262.0</ele><time>2026-05-03T10:09:03.76Z</time></trkpt><trkpt lat="42.196175" lon="13.8639783"><ele>262.0</ele><time>2026-05-03T10:09:04.761Z</time></trkpt><trkpt lat="42.1962583" lon="13.864205"><ele>262.0</ele><time>2026-05-03T10:09:05.76Z</time></trkpt><trkpt lat="42.196345" lon="13.86443"><ele>262.0</ele><time>2026-05-03T10:09:06.761Z</time></trkpt><trkpt lat="42.1964167" lon="13.8646633"><ele>256.3333333333333</ele><time>2026-05-03T10:09:07.761Z</time></trkpt><trkpt lat="42.1965067" lon="13.864885"><ele>250.66666666666669</ele><time>2026-05-03T10:09:08.761Z</time></trkpt><trkpt lat="42.1965917" lon="13.86511"><ele>245.0</ele><time>2026-05-03T10:09:09.761Z</time></trkpt><trkpt lat="42.1966567" lon="13.8653383"><ele>245.0</ele><time>2026-05-03T10:09:10.761Z</time></trkpt><trkpt lat="42.1967167" lon="13.86557"><ele>245.0</ele><time>2026-05-03T10:09:11.761Z</time></trkpt><trkpt lat="42.1967817" lon="13.8657967"><ele>245.0</ele><time>2026-05-03T10:09:12.761Z</time></trkpt><trkpt lat="42.1968433" lon="13.8660283"><ele>248.33333333333334</ele><time>2026-05-03T10:09:13.761Z</time></trkpt><trkpt lat="42.19691" lon="13.8662683"><ele>251.66666666666669</ele><time>2026-05-03T10:09:14.761Z</time></trkpt><trkpt lat="42.1969683" lon="13.8665083"><ele>255.0</ele><time>2026-05-03T10:09:15.761Z</time></trkpt><trkpt lat="42.197035" lon="13.8667483"><ele>257.6666666666667</ele><time>2026-05-03T10:09:16.76Z</time></trkpt><trkpt lat="42.1970933" lon="13.8669867"><ele>260.33333333333337</ele><time>2026-05-03T10:09:17.761Z</time></trkpt><trkpt lat="42.197145" lon="13.8672233"><ele>263.0</ele><time>2026-05-03T10:09:18.761Z</time></trkpt><trkpt lat="42.1971983" lon="13.8674617"><ele>264.0</ele><time>2026-05-03T10:09:19.761Z</time></trkpt><trkpt lat="42.1972617" lon="13.8676967"><ele>265.0</ele><time>2026-05-03T10:09:20.761Z</time></trkpt><trkpt lat="42.1973167" lon="13.867945"><ele>266.0</ele><time>2026-05-03T10:09:21.761Z</time></trkpt><trkpt lat="42.197355" lon="13.8682"><ele>257.0</ele><time>2026-05-03T10:09:22.761Z</time></trkpt><trkpt lat="42.197385" lon="13.868455"><ele>248.0</ele><time>2026-05-03T10:09:23.76Z</time></trkpt><trkpt lat="42.1974283" lon="13.8686867"><ele>239.0</ele><time>2026-05-03T10:09:24.76Z</time></trkpt><trkpt lat="42.19746" lon="13.8689383"><ele>239.0</ele><time>2026-05-03T10:09:25.761Z</time></trkpt><trkpt lat="42.1974817" lon="13.8691933"><ele>239.0</ele><time>2026-05-03T10:09:26.76Z</time></trkpt><trkpt lat="42.197505" lon="13.8694667"><ele>239.0</ele><time>2026-05-03T10:09:27.76Z</time></trkpt><trkpt lat="42.1975383" lon="13.8697283"><ele>238.33333333333334</ele><time>2026-05-03T10:09:28.761Z</time></trkpt><trkpt lat="42.1975683" lon="13.8699783"><ele>237.66666666666669</ele><time>2026-05-03T10:09:29.761Z</time></trkpt><trkpt lat="42.1975983" lon="13.8702283"><ele>237.0</ele><time>2026-05-03T10:09:30.761Z</time></trkpt><trkpt lat="42.197625" lon="13.8704933"><ele>237.0</ele><time>2026-05-03T10:09:31.761Z</time></trkpt><trkpt lat="42.1976483" lon="13.8707633"><ele>237.0</ele><time>2026-05-03T10:09:32.761Z</time></trkpt><trkpt lat="42.1976783" lon="13.8710233"><ele>237.0</ele><time>2026-05-03T10:09:33.761Z</time></trkpt><trkpt lat="42.1977" lon="13.8712867"><ele>238.0</ele><time>2026-05-03T10:09:34.76Z</time></trkpt><trkpt lat="42.1977317" lon="13.8715317"><ele>239.0</ele><time>2026-05-03T10:09:35.761Z</time></trkpt><trkpt lat="42.1977733" lon="13.871775"><ele>240.0</ele><time>2026-05-03T10:09:36.761Z</time></trkpt><trkpt lat="42.1978017" lon="13.8720333"><ele>242.0</ele><time>2026-05-03T10:09:37.76Z</time></trkpt><trkpt lat="42.1978317" lon="13.8723083"><ele>244.0</ele><time>2026-05-03T10:09:38.761Z</time></trkpt><trkpt lat="42.1978717" lon="13.8725733"><ele>246.0</ele><time>2026-05-03T10:09:39.761Z</time></trkpt><trkpt lat="42.197935" lon="13.87283"><ele>246.0</ele><time>2026-05-03T10:09:40.761Z</time></trkpt><trkpt lat="42.197985" lon="13.8730883"><ele>246.0</ele><time>2026-05-03T10:09:41.76Z</time></trkpt><trkpt lat="42.1980317" lon="13.8733417"><ele>246.0</ele><time>2026-05-03T10:09:42.76Z</time></trkpt><trkpt lat="42.1980767" lon="13.8735917"><ele>250.66666666666669</ele><time>2026-05-03T10:09:43.761Z</time></trkpt><trkpt lat="42.198115" lon="13.8738433"><ele>255.33333333333334</ele><time>2026-05-03T10:09:44.761Z</time></trkpt><trkpt lat="42.198155" lon="13.8741033"><ele>260.0</ele><time>2026-05-03T10:09:45.761Z</time></trkpt><trkpt lat="42.19819" lon="13.87436"><ele>250.66666666666669</ele><time>2026-05-03T10:09:46.761Z</time></trkpt><trkpt lat="42.1982283" lon="13.87461"><ele>241.33333333333331</ele><time>2026-05-03T10:09:47.761Z</time></trkpt><trkpt lat="42.1982733" lon="13.8748367"><ele>232.0</ele><time>2026-05-03T10:09:48.76Z</time></trkpt><trkpt lat="42.1983083" lon="13.8750517"><ele>229.33333333333331</ele><time>2026-05-03T10:09:49.761Z</time></trkpt><trkpt lat="42.19833" lon="13.8752817"><ele>226.66666666666669</ele><time>2026-05-03T10:09:50.76Z</time></trkpt><trkpt lat="42.198345" lon="13.8754983"><ele>224.0</ele><time>2026-05-03T10:09:51.761Z</time></trkpt><trkpt lat="42.1983217" lon="13.8757167"><ele>223.66666666666669</ele><time>2026-05-03T10:09:52.761Z</time></trkpt><trkpt lat="42.1982683" lon="13.8759433"><ele>223.33333333333331</ele><time>2026-05-03T10:09:53.761Z</time></trkpt><trkpt lat="42.1982017" lon="13.8761767"><ele>223.0</ele><time>2026-05-03T10:09:54.761Z</time></trkpt><trkpt lat="42.1981467" lon="13.8764017"><ele>236.33333333333331</ele><time>2026-05-03T10:09:55.761Z</time></trkpt><trkpt lat="42.1980933" lon="13.87664"><ele>249.66666666666669</ele><time>2026-05-03T10:09:56.761Z</time></trkpt><trkpt lat="42.198035" lon="13.8768817"><ele>263.0</ele><time>2026-05-03T10:09:57.761Z</time></trkpt><trkpt lat="42.1979833" lon="13.87711"><ele>263.0</ele><time>2026-05-03T10:09:58.761Z</time></trkpt><trkpt lat="42.197955" lon="13.8773483"><ele>263.0</ele><time>2026-05-03T10:09:59.761Z</time></trkpt><trkpt lat="42.19797" lon="13.87759"><ele>263.0</ele><time>2026-05-03T10:10:00.761Z</time></trkpt><trkpt lat="42.1980033" lon="13.877815"><ele>264.6666666666667</ele><time>2026-05-03T10:10:01.761Z</time></trkpt><trkpt lat="42.1980733" lon="13.8780233"><ele>266.3333333333333</ele><time>2026-05-03T10:10:02.76Z</time></trkpt><trkpt lat="42.19815" lon="13.8782317"><ele>268.0</ele><time>2026-05-03T10:10:03.761Z</time></trkpt><trkpt lat="42.1982333" lon="13.8784533"><ele>258.3333333333333</ele><time>2026-05-03T10:10:04.761Z</time></trkpt><trkpt lat="42.1983367" lon="13.878655"><ele>248.66666666666669</ele><time>2026-05-03T10:10:05.761Z</time></trkpt><trkpt lat="42.198475" lon="13.87884"><ele>239.0</ele><time>2026-05-03T10:10:06.761Z</time></trkpt><trkpt lat="42.1986117" lon="13.879"><ele>239.0</ele><time>2026-05-03T10:10:07.761Z</time></trkpt><trkpt lat="42.1987533" lon="13.8791433"><ele>239.0</ele><time>2026-05-03T10:10:08.76Z</time></trkpt><trkpt lat="42.1989" lon="13.8792733"><ele>239.0</ele><time>2026-05-03T10:10:09.76Z</time></trkpt><trkpt lat="42.1990317" lon="13.87941"><ele>236.0</ele><time>2026-05-03T10:10:10.76Z</time></trkpt><trkpt lat="42.1991483" lon="13.8795683"><ele>233.0</ele><time>2026-05-03T10:10:11.761Z</time></trkpt><trkpt lat="42.1992367" lon="13.8797383"><ele>230.0</ele><time>2026-05-03T10:10:12.761Z</time></trkpt><trkpt lat="42.199295" lon="13.879935"><ele>233.0</ele><time>2026-05-03T10:10:13.761Z</time></trkpt><trkpt lat="42.1993317" lon="13.8801267"><ele>236.0</ele><time>2026-05-03T10:10:14.76Z</time></trkpt><trkpt lat="42.199325" lon="13.8805683"><ele>236.0</ele><time>2026-05-03T10:10:16.761Z</time></trkpt><trkpt lat="42.1992983" lon="13.8808267"><ele>236.0</ele><time>2026-05-03T10:10:17.761Z</time></trkpt><trkpt lat="42.1992633" lon="13.8810483"><ele>236.0</ele><time>2026-05-03T10:10:18.761Z</time></trkpt><trkpt lat="42.1992483" lon="13.88126"><ele>235.0</ele><time>2026-05-03T10:10:19.761Z</time></trkpt><trkpt lat="42.1992283" lon="13.881455"><ele>234.0</ele><time>2026-05-03T10:10:20.761Z</time></trkpt><trkpt lat="42.19926" lon="13.8816533"><ele>233.0</ele><time>2026-05-03T10:10:21.761Z</time></trkpt><trkpt lat="42.1993367" lon="13.88184"><ele>233.0</ele><time>2026-05-03T10:10:22.76Z</time></trkpt><trkpt lat="42.199405" lon="13.8820117"><ele>233.0</ele><time>2026-05-03T10:10:23.761Z</time></trkpt><trkpt lat="42.199465" lon="13.8821983"><ele>233.0</ele><time>2026-05-03T10:10:24.761Z</time></trkpt><trkpt lat="42.1995217" lon="13.8823983"><ele>239.66666666666669</ele><time>2026-05-03T10:10:25.761Z</time></trkpt><trkpt lat="42.1995783" lon="13.8826117"><ele>246.33333333333331</ele><time>2026-05-03T10:10:26.76Z</time></trkpt><trkpt lat="42.1996333" lon="13.8828083"><ele>253.0</ele><time>2026-05-03T10:10:27.761Z</time></trkpt><trkpt lat="42.19972" lon="13.8829733"><ele>253.0</ele><time>2026-05-03T10:10:28.761Z</time></trkpt><trkpt lat="42.1998217" lon="13.8831283"><ele>253.0</ele><time>2026-05-03T10:10:29.76Z</time></trkpt><trkpt lat="42.19994" lon="13.8832883"><ele>253.0</ele><time>2026-05-03T10:10:30.761Z</time></trkpt><trkpt lat="42.20005" lon="13.8834383"><ele>248.33333333333331</ele><time>2026-05-03T10:10:31.761Z</time></trkpt><trkpt lat="42.200165" lon="13.8835883"><ele>243.66666666666669</ele><time>2026-05-03T10:10:32.76Z</time></trkpt><trkpt lat="42.2002767" lon="13.88375"><ele>239.0</ele><time>2026-05-03T10:10:33.76Z</time></trkpt><trkpt lat="42.2003917" lon="13.8839183"><ele>239.0</ele><time>2026-05-03T10:10:34.761Z</time></trkpt><trkpt lat="42.20048" lon="13.8840917"><ele>239.0</ele><time>2026-05-03T10:10:35.761Z</time></trkpt><trkpt lat="42.2005533" lon="13.88428"><ele>239.0</ele><time>2026-05-03T10:10:36.761Z</time></trkpt><trkpt lat="42.200615" lon="13.8844817"><ele>233.0</ele><time>2026-05-03T10:10:37.761Z</time></trkpt><trkpt lat="42.2006783" lon="13.8847017"><ele>227.0</ele><time>2026-05-03T10:10:38.761Z</time></trkpt><trkpt lat="42.20074" lon="13.884895"><ele>221.0</ele><time>2026-05-03T10:10:39.761Z</time></trkpt><trkpt lat="42.200825" lon="13.88508"><ele>225.66666666666669</ele><time>2026-05-03T10:10:40.761Z</time></trkpt><trkpt lat="42.2009167" lon="13.8852667"><ele>230.33333333333331</ele><time>2026-05-03T10:10:41.76Z</time></trkpt><trkpt lat="42.20102" lon="13.88545"><ele>235.0</ele><time>2026-05-03T10:10:42.761Z</time></trkpt><trkpt lat="42.2011267" lon="13.8856283"><ele>235.0</ele><time>2026-05-03T10:10:43.76Z</time></trkpt><trkpt lat="42.20125" lon="13.8857867"><ele>235.0</ele><time>2026-05-03T10:10:44.761Z</time></trkpt><trkpt lat="42.201405" lon="13.8859383"><ele>235.0</ele><time>2026-05-03T10:10:45.761Z</time></trkpt><trkpt lat="42.2015433" lon="13.8860967"><ele>233.0</ele><time>2026-05-03T10:10:46.761Z</time></trkpt><trkpt lat="42.2016883" lon="13.8862517"><ele>231.0</ele><time>2026-05-03T10:10:47.761Z</time></trkpt><trkpt lat="42.2018367" lon="13.886405"><ele>229.0</ele><time>2026-05-03T10:10:48.761Z</time></trkpt><trkpt lat="42.20198" lon="13.886595"><ele>229.0</ele><time>2026-05-03T10:10:49.761Z</time></trkpt><trkpt lat="42.2021367" lon="13.8867433"><ele>229.0</ele><time>2026-05-03T10:10:50.761Z</time></trkpt><trkpt lat="42.2022883" lon="13.8868833"><ele>229.0</ele><time>2026-05-03T10:10:51.76Z</time></trkpt><trkpt lat="42.2024317" lon="13.8870233"><ele>226.33333333333331</ele><time>2026-05-03T10:10:52.76Z</time></trkpt><trkpt lat="42.202575" lon="13.8871717"><ele>223.66666666666669</ele><time>2026-05-03T10:10:53.76Z</time></trkpt><trkpt lat="42.202715" lon="13.8873017"><ele>221.0</ele><time>2026-05-03T10:10:54.76Z</time></trkpt><trkpt lat="42.202865" lon="13.8874483"><ele>224.33333333333334</ele><time>2026-05-03T10:10:55.761Z</time></trkpt><trkpt lat="42.2030233" lon="13.8876033"><ele>227.66666666666669</ele><time>2026-05-03T10:10:56.76Z</time></trkpt><trkpt lat="42.2031767" lon="13.88776"><ele>231.0</ele><time>2026-05-03T10:10:57.761Z</time></trkpt><trkpt lat="42.20332" lon="13.8879133"><ele>231.0</ele><time>2026-05-03T10:10:58.761Z</time></trkpt><trkpt lat="42.2034633" lon="13.8880683"><ele>231.0</ele><time>2026-05-03T10:10:59.76Z</time></trkpt><trkpt lat="42.2036167" lon="13.8882233"><ele>231.0</ele><time>2026-05-03T10:11:00.761Z</time></trkpt><trkpt lat="42.2037683" lon="13.888395"><ele>235.0</ele><time>2026-05-03T10:11:01.761Z</time></trkpt><trkpt lat="42.2039033" lon="13.8885733"><ele>239.0</ele><time>2026-05-03T10:11:02.761Z</time></trkpt><trkpt lat="42.204025" lon="13.8887633"><ele>243.0</ele><time>2026-05-03T10:11:03.761Z</time></trkpt><trkpt lat="42.2041267" lon="13.8889367"><ele>235.33333333333331</ele><time>2026-05-03T10:11:04.761Z</time></trkpt><trkpt lat="42.2042217" lon="13.88911"><ele>227.66666666666666</ele><time>2026-05-03T10:11:05.761Z</time></trkpt><trkpt lat="42.2043" lon="13.889295"><ele>220.0</ele><time>2026-05-03T10:11:06.761Z</time></trkpt><trkpt lat="42.204375" lon="13.8894983"><ele>220.0</ele><time>2026-05-03T10:11:07.761Z</time></trkpt><trkpt lat="42.204445" lon="13.889715"><ele>220.0</ele><time>2026-05-03T10:11:08.761Z</time></trkpt><trkpt lat="42.20451" lon="13.8899283"><ele>220.0</ele><time>2026-05-03T10:11:09.76Z</time></trkpt><trkpt lat="42.2045783" lon="13.89013"><ele>222.66666666666666</ele><time>2026-05-03T10:11:10.76Z</time></trkpt><trkpt lat="42.20464" lon="13.890325"><ele>225.33333333333331</ele><time>2026-05-03T10:11:11.76Z</time></trkpt><trkpt lat="42.204695" lon="13.8905167"><ele>228.0</ele><time>2026-05-03T10:11:12.761Z</time></trkpt><trkpt lat="42.2047683" lon="13.8906833"><ele>227.33333333333331</ele><time>2026-05-03T10:11:13.76Z</time></trkpt><trkpt lat="42.2048533" lon="13.8908467"><ele>226.66666666666666</ele><time>2026-05-03T10:11:14.761Z</time></trkpt><trkpt lat="42.2049583" lon="13.891005"><ele>226.0</ele><time>2026-05-03T10:11:15.761Z</time></trkpt><trkpt lat="42.20508" lon="13.8911533"><ele>226.0</ele><time>2026-05-03T10:11:16.761Z</time></trkpt><trkpt lat="42.2051983" lon="13.8913167"><ele>226.0</ele><time>2026-05-03T10:11:17.761Z</time></trkpt><trkpt lat="42.2053217" lon="13.8914717"><ele>226.0</ele><time>2026-05-03T10:11:18.761Z</time></trkpt><trkpt lat="42.205445" lon="13.8916367"><ele>226.0</ele><time>2026-05-03T10:11:19.761Z</time></trkpt><trkpt lat="42.205575" lon="13.8917967"><ele>226.0</ele><time>2026-05-03T10:11:20.76Z</time></trkpt><trkpt lat="42.2057033" lon="13.89197"><ele>226.0</ele><time>2026-05-03T10:11:21.761Z</time></trkpt><trkpt lat="42.2058367" lon="13.89214"><ele>226.0</ele><time>2026-05-03T10:11:22.76Z</time></trkpt><trkpt lat="42.2059733" lon="13.892325"><ele>226.0</ele><time>2026-05-03T10:11:23.76Z</time></trkpt><trkpt lat="42.20611" lon="13.8925"><ele>226.0</ele><time>2026-05-03T10:11:24.76Z</time></trkpt><trkpt lat="42.2062533" lon="13.892675"><ele>227.0</ele><time>2026-05-03T10:11:25.76Z</time></trkpt><trkpt lat="42.2063983" lon="13.8928433"><ele>228.0</ele><time>2026-05-03T10:11:26.76Z</time></trkpt><trkpt lat="42.2065533" lon="13.8929967"><ele>229.0</ele><time>2026-05-03T10:11:27.759Z</time></trkpt><trkpt lat="42.2066983" lon="13.8931467"><ele>229.0</ele><time>2026-05-03T10:11:28.759Z</time></trkpt><trkpt lat="42.2068483" lon="13.8932917"><ele>229.0</ele><time>2026-05-03T10:11:29.76Z</time></trkpt><trkpt lat="42.2069933" lon="13.89344"><ele>229.0</ele><time>2026-05-03T10:11:30.759Z</time></trkpt><trkpt lat="42.207145" lon="13.8935883"><ele>231.33333333333331</ele><time>2026-05-03T10:11:31.759Z</time></trkpt><trkpt lat="42.2073033" lon="13.893745"><ele>233.66666666666669</ele><time>2026-05-03T10:11:32.76Z</time></trkpt><trkpt lat="42.2074567" lon="13.893895"><ele>236.0</ele><time>2026-05-03T10:11:33.76Z</time></trkpt><trkpt lat="42.20762" lon="13.8940583"><ele>232.33333333333334</ele><time>2026-05-03T10:11:34.76Z</time></trkpt><trkpt lat="42.207775" lon="13.8942183"><ele>228.66666666666669</ele><time>2026-05-03T10:11:35.759Z</time></trkpt><trkpt lat="42.2079383" lon="13.894385"><ele>225.0</ele><time>2026-05-03T10:11:36.76Z</time></trkpt><trkpt lat="42.2081" lon="13.89456"><ele>223.0</ele><time>2026-05-03T10:11:37.76Z</time></trkpt><trkpt lat="42.208265" lon="13.8947233"><ele>221.0</ele><time>2026-05-03T10:11:38.759Z</time></trkpt><trkpt lat="42.2084267" lon="13.894885"><ele>219.0</ele><time>2026-05-03T10:11:39.759Z</time></trkpt><trkpt lat="42.2085867" lon="13.895055"><ele>219.0</ele><time>2026-05-03T10:11:40.76Z</time></trkpt><trkpt lat="42.2087517" lon="13.8952183"><ele>219.0</ele><time>2026-05-03T10:11:41.76Z</time></trkpt><trkpt lat="42.2089183" lon="13.8953833"><ele>219.0</ele><time>2026-05-03T10:11:42.76Z</time></trkpt><trkpt lat="42.2090833" lon="13.895535"><ele>219.0</ele><time>2026-05-03T10:11:43.759Z</time></trkpt><trkpt lat="42.2092467" lon="13.8956867"><ele>219.0</ele><time>2026-05-03T10:11:44.76Z</time></trkpt><trkpt lat="42.2094" lon="13.8958417"><ele>219.0</ele><time>2026-05-03T10:11:45.759Z</time></trkpt><trkpt lat="42.2095433" lon="13.8959933"><ele>219.33333333333331</ele><time>2026-05-03T10:11:46.76Z</time></trkpt><trkpt lat="42.209685" lon="13.8961433"><ele>219.66666666666666</ele><time>2026-05-03T10:11:47.759Z</time></trkpt><trkpt lat="42.2098283" lon="13.896275"><ele>220.0</ele><time>2026-05-03T10:11:48.76Z</time></trkpt><trkpt lat="42.2099683" lon="13.8964283"><ele>220.0</ele><time>2026-05-03T10:11:49.759Z</time></trkpt><trkpt lat="42.210105" lon="13.8965783"><ele>220.0</ele><time>2026-05-03T10:11:50.76Z</time></trkpt><trkpt lat="42.2102333" lon="13.8967417"><ele>220.0</ele><time>2026-05-03T10:11:51.759Z</time></trkpt><trkpt lat="42.210355" lon="13.8969067"><ele>222.33333333333331</ele><time>2026-05-03T10:11:52.759Z</time></trkpt><trkpt lat="42.2104517" lon="13.8970717"><ele>224.66666666666669</ele><time>2026-05-03T10:11:53.76Z</time></trkpt><trkpt lat="42.2105267" lon="13.8972617"><ele>227.0</ele><time>2026-05-03T10:11:54.76Z</time></trkpt><trkpt lat="42.210595" lon="13.8974683"><ele>224.0</ele><time>2026-05-03T10:11:55.76Z</time></trkpt><trkpt lat="42.2106617" lon="13.897685"><ele>221.0</ele><time>2026-05-03T10:11:56.76Z</time></trkpt><trkpt lat="42.2107317" lon="13.8978967"><ele>218.0</ele><time>2026-05-03T10:11:57.76Z</time></trkpt><trkpt lat="42.2108017" lon="13.8981133"><ele>218.0</ele><time>2026-05-03T10:11:58.76Z</time></trkpt><trkpt lat="42.2108733" lon="13.89833"><ele>218.0</ele><time>2026-05-03T10:11:59.759Z</time></trkpt><trkpt lat="42.210945" lon="13.898555"><ele>218.0</ele><time>2026-05-03T10:12:00.76Z</time></trkpt><trkpt lat="42.211015" lon="13.898775"><ele>219.33333333333334</ele><time>2026-05-03T10:12:01.759Z</time></trkpt><trkpt lat="42.2110867" lon="13.8990033"><ele>220.66666666666669</ele><time>2026-05-03T10:12:02.76Z</time></trkpt><trkpt lat="42.211155" lon="13.89921"><ele>222.0</ele><time>2026-05-03T10:12:03.759Z</time></trkpt><trkpt lat="42.2112217" lon="13.899415"><ele>222.25</ele><time>2026-05-03T10:12:04.759Z</time></trkpt><trkpt lat="42.211285" lon="13.89961"><ele>222.5</ele><time>2026-05-03T10:12:05.76Z</time></trkpt><trkpt lat="42.2113383" lon="13.89979"><ele>222.75</ele><time>2026-05-03T10:12:06.76Z</time></trkpt><trkpt lat="42.2113933" lon="13.8999617"><ele>223.0</ele><time>2026-05-03T10:12:07.76Z</time></trkpt><trkpt lat="42.2114433" lon="13.9001167"><ele>223.60000000000002</ele><time>2026-05-03T10:12:08.759Z</time></trkpt><trkpt lat="42.2114833" lon="13.9002517"><ele>224.20000000000002</ele><time>2026-05-03T10:12:09.76Z</time></trkpt><trkpt lat="42.211515" lon="13.90037"><ele>224.8</ele><time>2026-05-03T10:12:10.76Z</time></trkpt><trkpt lat="42.2115383" lon="13.9004667"><ele>225.4</ele><time>2026-05-03T10:12:11.759Z</time></trkpt><trkpt lat="42.21159" lon="13.9006133"><ele>226.0</ele><time>2026-05-03T10:12:13.76Z</time></trkpt><trkpt lat="42.211635" lon="13.900755"><ele>225.60000000000002</ele><time>2026-05-03T10:12:15.76Z</time></trkpt><trkpt lat="42.2116633" lon="13.9008867"><ele>225.20000000000002</ele><time>2026-05-03T10:12:17.76Z</time></trkpt><trkpt lat="42.21165" lon="13.9010033"><ele>224.79999999999998</ele><time>2026-05-03T10:12:19.76Z</time></trkpt><trkpt lat="42.2115767" lon="13.9010867"><ele>224.39999999999998</ele><time>2026-05-03T10:12:21.759Z</time></trkpt><trkpt lat="42.2114983" lon="13.9011667"><ele>224.0</ele><time>2026-05-03T10:12:23.76Z</time></trkpt><trkpt lat="42.21148" lon="13.9012567"><ele>224.0</ele><time>2026-05-03T10:12:25.76Z</time></trkpt><trkpt lat="42.2114933" lon="13.90137"><ele>223.99999999999997</ele><time>2026-05-03T10:12:27.759Z</time></trkpt><trkpt lat="42.211445" lon="13.9014517"><ele>223.99999999999997</ele><time>2026-05-03T10:12:30.76Z</time></trkpt><trkpt lat="42.2113583" lon="13.9013967"><ele>224.0</ele><time>2026-05-03T10:12:33.76Z</time></trkpt><trkpt lat="42.2112633" lon="13.9013233"><ele>224.0</ele><time>2026-05-03T10:12:35.76Z</time></trkpt><trkpt lat="42.21114" lon="13.90129"><ele>228.0</ele><time>2026-05-03T10:12:37.759Z</time></trkpt><trkpt lat="42.2110767" lon="13.9012733"><ele>231.99999999999997</ele><time>2026-05-03T10:12:38.76Z</time></trkpt><trkpt lat="42.210955" lon="13.9012633"><ele>235.99999999999997</ele><time>2026-05-03T10:12:40.76Z</time></trkpt><trkpt lat="42.210865" lon="13.90135"><ele>240.0</ele><time>2026-05-03T10:12:42.76Z</time></trkpt><trkpt lat="42.2108533" lon="13.9014533"><ele>244.0</ele><time>2026-05-03T10:12:45.76Z</time></trkpt><trkpt lat="42.210965" lon="13.90159"><ele>243.99999999999997</ele><time>2026-05-03T10:24:07.759Z</time></trkpt><trkpt lat="42.2110167" lon="13.9016617"><ele>244.0</ele><time>2026-05-03T10:25:05.759Z</time></trkpt><trkpt lat="42.2110617" lon="13.9017333"><ele>243.99999999999997</ele><time>2026-05-03T10:25:07.758Z</time></trkpt><trkpt lat="42.21111" lon="13.9018217"><ele>243.99999999999997</ele><time>2026-05-03T10:25:09.758Z</time></trkpt><trkpt lat="42.2111283" lon="13.901925"><ele>244.0</ele><time>2026-05-03T10:25:11.759Z</time></trkpt><trkpt lat="42.2110917" lon="13.9020083"><ele>243.99999999999997</ele><time>2026-05-03T10:25:14.758Z</time></trkpt><trkpt lat="42.2110283" lon="13.90197"><ele>243.99999999999997</ele><time>2026-05-03T10:25:17.759Z</time></trkpt><trkpt lat="42.210945" lon="13.9018833"><ele>248.2</ele><time>2026-05-03T10:25:19.759Z</time></trkpt><trkpt lat="42.2108483" lon="13.9017933"><ele>252.39999999999998</ele><time>2026-05-03T10:25:21.759Z</time></trkpt><trkpt lat="42.2107783" lon="13.901765"><ele>256.6</ele><time>2026-05-03T10:25:23.759Z</time></trkpt><trkpt lat="42.2107667" lon="13.9019067"><ele>260.8</ele><time>2026-05-03T10:26:15.758Z</time></trkpt><trkpt lat="42.2108483" lon="13.9020167"><ele>265.0</ele><time>2026-05-03T10:26:17.759Z</time></trkpt><trkpt lat="42.21089" lon="13.9021167"><ele>265.0</ele><time>2026-05-03T10:26:19.758Z</time></trkpt><trkpt lat="42.2109083" lon="13.9022417"><ele>265.0</ele><time>2026-05-03T10:27:33.757Z</time></trkpt><trkpt lat="42.2109267" lon="13.9023817"><ele>265.0</ele><time>2026-05-03T10:27:35.758Z</time></trkpt><trkpt lat="42.210935" lon="13.9024867"><ele>265.0</ele><time>2026-05-03T10:27:36.757Z</time></trkpt><trkpt lat="42.2109433" lon="13.90259"><ele>265.0</ele><time>2026-05-03T10:27:37.758Z</time></trkpt><trkpt lat="42.2109467" lon="13.9026883"><ele>265.0</ele><time>2026-05-03T10:27:38.757Z</time></trkpt><trkpt lat="42.21095" lon="13.9027833"><ele>267.66666666666663</ele><time>2026-05-03T10:27:39.757Z</time></trkpt><trkpt lat="42.2109583" lon="13.9028733"><ele>270.3333333333333</ele><time>2026-05-03T10:27:40.758Z</time></trkpt><trkpt lat="42.2109567" lon="13.9029633"><ele>273.0</ele><time>2026-05-03T10:27:41.758Z</time></trkpt><trkpt lat="42.2109783" lon="13.9030967"><ele>275.6666666666667</ele><time>2026-05-03T10:27:43.758Z</time></trkpt><trkpt lat="42.21102" lon="13.9032333"><ele>278.33333333333337</ele><time>2026-05-03T10:27:45.758Z</time></trkpt><trkpt lat="42.2110483" lon="13.9033183"><ele>281.0</ele><time>2026-05-03T10:27:46.757Z</time></trkpt><trkpt lat="42.2110833" lon="13.9034017"><ele>283.40000000000003</ele><time>2026-05-03T10:27:47.758Z</time></trkpt><trkpt lat="42.2111183" lon="13.9035"><ele>285.8</ele><time>2026-05-03T10:27:48.758Z</time></trkpt><trkpt lat="42.211145" lon="13.9036233"><ele>288.20000000000005</ele><time>2026-05-03T10:27:49.758Z</time></trkpt><trkpt lat="42.2111667" lon="13.903765"><ele>290.6</ele><time>2026-05-03T10:27:50.757Z</time></trkpt><trkpt lat="42.2111883" lon="13.903905"><ele>293.0</ele><time>2026-05-03T10:27:51.757Z</time></trkpt><trkpt lat="42.2112183" lon="13.904045"><ele>293.0</ele><time>2026-05-03T10:27:52.757Z</time></trkpt><trkpt lat="42.2112467" lon="13.9041867"><ele>293.0</ele><time>2026-05-03T10:27:53.758Z</time></trkpt><trkpt lat="42.2112633" lon="13.9043233"><ele>293.0</ele><time>2026-05-03T10:27:54.758Z</time></trkpt><trkpt lat="42.211285" lon="13.9044583"><ele>293.0</ele><time>2026-05-03T10:27:55.758Z</time></trkpt><trkpt lat="42.211305" lon="13.904585"><ele>293.0</ele><time>2026-05-03T10:27:56.757Z</time></trkpt><trkpt lat="42.2113283" lon="13.9047067"><ele>295.4</ele><time>2026-05-03T10:27:57.758Z</time></trkpt><trkpt lat="42.2113617" lon="13.9048267"><ele>297.8</ele><time>2026-05-03T10:27:58.758Z</time></trkpt><trkpt lat="42.211395" lon="13.904955"><ele>300.2</ele><time>2026-05-03T10:27:59.757Z</time></trkpt><trkpt lat="42.2114233" lon="13.905085"><ele>302.6</ele><time>2026-05-03T10:28:00.757Z</time></trkpt><trkpt lat="42.2114333" lon="13.9052183"><ele>305.0</ele><time>2026-05-03T10:28:01.758Z</time></trkpt><trkpt lat="42.2114467" lon="13.9053433"><ele>305.4</ele><time>2026-05-03T10:28:02.757Z</time></trkpt><trkpt lat="42.2114683" lon="13.90547"><ele>305.8</ele><time>2026-05-03T10:28:03.758Z</time></trkpt><trkpt lat="42.211495" lon="13.9056033"><ele>306.2</ele><time>2026-05-03T10:28:04.757Z</time></trkpt><trkpt lat="42.2115167" lon="13.9057333"><ele>306.6</ele><time>2026-05-03T10:28:05.757Z</time></trkpt><trkpt lat="42.2115483" lon="13.9058533"><ele>307.0</ele><time>2026-05-03T10:28:06.758Z</time></trkpt><trkpt lat="42.2115767" lon="13.9059767"><ele>308.6</ele><time>2026-05-03T10:28:07.758Z</time></trkpt><trkpt lat="42.211615" lon="13.9060917"><ele>310.2</ele><time>2026-05-03T10:28:08.757Z</time></trkpt><trkpt lat="42.2116517" lon="13.90621"><ele>311.8</ele><time>2026-05-03T10:28:09.758Z</time></trkpt><trkpt lat="42.2116917" lon="13.9063333"><ele>313.4</ele><time>2026-05-03T10:28:10.758Z</time></trkpt><trkpt lat="42.2117317" lon="13.90644"><ele>315.0</ele><time>2026-05-03T10:28:11.758Z</time></trkpt><trkpt lat="42.2117667" lon="13.9065417"><ele>315.0</ele><time>2026-05-03T10:28:12.758Z</time></trkpt><trkpt lat="42.211795" lon="13.90665"><ele>315.0</ele><time>2026-05-03T10:28:13.758Z</time></trkpt><trkpt lat="42.2118217" lon="13.906775"><ele>315.0</ele><time>2026-05-03T10:28:14.757Z</time></trkpt><trkpt lat="42.2118517" lon="13.9069183"><ele>315.0</ele><time>2026-05-03T10:28:15.758Z</time></trkpt><trkpt lat="42.2118833" lon="13.9070617"><ele>315.0</ele><time>2026-05-03T10:28:16.758Z</time></trkpt><trkpt lat="42.2119183" lon="13.90722"><ele>317.75</ele><time>2026-05-03T10:28:17.758Z</time></trkpt><trkpt lat="42.21196" lon="13.9073667"><ele>320.5</ele><time>2026-05-03T10:28:18.757Z</time></trkpt><trkpt lat="42.212005" lon="13.9075117"><ele>323.25</ele><time>2026-05-03T10:28:19.757Z</time></trkpt><trkpt lat="42.212045" lon="13.9076467"><ele>326.0</ele><time>2026-05-03T10:28:20.757Z</time></trkpt><trkpt lat="42.21208" lon="13.907805"><ele>326.6</ele><time>2026-05-03T10:28:21.758Z</time></trkpt><trkpt lat="42.2120983" lon="13.9079567"><ele>327.20000000000005</ele><time>2026-05-03T10:28:22.757Z</time></trkpt><trkpt lat="42.2121167" lon="13.9081017"><ele>327.79999999999995</ele><time>2026-05-03T10:28:23.758Z</time></trkpt><trkpt lat="42.212135" lon="13.9082283"><ele>328.4</ele><time>2026-05-03T10:28:24.757Z</time></trkpt><trkpt lat="42.2121333" lon="13.9083417"><ele>329.0</ele><time>2026-05-03T10:28:25.757Z</time></trkpt><trkpt lat="42.2121267" lon="13.9084483"><ele>329.5</ele><time>2026-05-03T10:28:26.758Z</time></trkpt><trkpt lat="42.212125" lon="13.9085467"><ele>330.0</ele><time>2026-05-03T10:28:27.758Z</time></trkpt><trkpt lat="42.21213" lon="13.9086483"><ele>330.5</ele><time>2026-05-03T10:28:28.758Z</time></trkpt><trkpt lat="42.2121267" lon="13.9087517"><ele>331.0</ele><time>2026-05-03T10:28:29.758Z</time></trkpt><trkpt lat="42.2121183" lon="13.9088533"><ele>331.5</ele><time>2026-05-03T10:28:30.758Z</time></trkpt><trkpt lat="42.21211" lon="13.908965"><ele>332.0</ele><time>2026-05-03T10:28:31.758Z</time></trkpt><trkpt lat="42.2120867" lon="13.9090567"><ele>332.0</ele><time>2026-05-03T10:28:32.758Z</time></trkpt><trkpt lat="42.2120617" lon="13.9091633"><ele>332.0</ele><time>2026-05-03T10:28:33.758Z</time></trkpt><trkpt lat="42.2120383" lon="13.9092683"><ele>332.0</ele><time>2026-05-03T10:28:34.757Z</time></trkpt><trkpt lat="42.2119583" lon="13.9093783"><ele>332.0</ele><time>2026-05-03T10:28:35.757Z</time></trkpt><trkpt lat="42.2118817" lon="13.90949"><ele>332.0</ele><time>2026-05-03T10:28:36.757Z</time></trkpt><trkpt lat="42.2118233" lon="13.9095833"><ele>332.6666666666667</ele><time>2026-05-03T10:28:37.757Z</time></trkpt><trkpt lat="42.2117867" lon="13.90968"><ele>333.33333333333337</ele><time>2026-05-03T10:28:38.757Z</time></trkpt><trkpt lat="42.211765" lon="13.909785"><ele>334.0</ele><time>2026-05-03T10:28:39.758Z</time></trkpt><trkpt lat="42.2117567" lon="13.90991"><ele>334.6666666666667</ele><time>2026-05-03T10:28:40.757Z</time></trkpt><trkpt lat="42.21176" lon="13.9100317"><ele>335.3333333333333</ele><time>2026-05-03T10:28:41.758Z</time></trkpt><trkpt lat="42.2117933" lon="13.9101567"><ele>336.0</ele><time>2026-05-03T10:28:42.758Z</time></trkpt><trkpt lat="42.2118117" lon="13.9102717"><ele>336.0</ele><time>2026-05-03T10:28:43.758Z</time></trkpt><trkpt lat="42.211835" lon="13.9103783"><ele>336.0</ele><time>2026-05-03T10:28:44.757Z</time></trkpt><trkpt lat="42.2118433" lon="13.9105017"><ele>336.0</ele><time>2026-05-03T10:28:45.757Z</time></trkpt><trkpt lat="42.2118617" lon="13.9106267"><ele>336.0</ele><time>2026-05-03T10:28:46.758Z</time></trkpt><trkpt lat="42.2118683" lon="13.9107633"><ele>336.0</ele><time>2026-05-03T10:28:47.758Z</time></trkpt><trkpt lat="42.2118667" lon="13.910895"><ele>336.0</ele><time>2026-05-03T10:28:48.757Z</time></trkpt><trkpt lat="42.2118417" lon="13.9110267"><ele>336.0</ele><time>2026-05-03T10:28:49.758Z</time></trkpt><trkpt lat="42.21183" lon="13.9111467"><ele>336.0</ele><time>2026-05-03T10:28:50.757Z</time></trkpt><trkpt lat="42.2118183" lon="13.911255"><ele>336.0</ele><time>2026-05-03T10:28:51.757Z</time></trkpt><trkpt lat="42.2118033" lon="13.9113567"><ele>336.0</ele><time>2026-05-03T10:28:52.758Z</time></trkpt><trkpt lat="42.2117933" lon="13.9114533"><ele>336.0</ele><time>2026-05-03T10:28:53.758Z</time></trkpt><trkpt lat="42.2117783" lon="13.9115517"><ele>336.0</ele><time>2026-05-03T10:28:54.758Z</time></trkpt><trkpt lat="42.2117667" lon="13.9116467"><ele>336.0</ele><time>2026-05-03T10:28:55.757Z</time></trkpt><trkpt lat="42.2117667" lon="13.91174"><ele>336.0</ele><time>2026-05-03T10:28:56.758Z</time></trkpt><trkpt lat="42.211775" lon="13.9118367"><ele>336.0</ele><time>2026-05-03T10:28:57.757Z</time></trkpt><trkpt lat="42.2118117" lon="13.9119283"><ele>336.0</ele><time>2026-05-03T10:28:58.758Z</time></trkpt><trkpt lat="42.2118783" lon="13.9120317"><ele>336.0</ele><time>2026-05-03T10:28:59.758Z</time></trkpt><trkpt lat="42.2119433" lon="13.912145"><ele>335.5</ele><time>2026-05-03T10:29:00.758Z</time></trkpt><trkpt lat="42.2120083" lon="13.9122517"><ele>335.0</ele><time>2026-05-03T10:29:01.758Z</time></trkpt><trkpt lat="42.21207" lon="13.9123483"><ele>334.5</ele><time>2026-05-03T10:29:02.758Z</time></trkpt><trkpt lat="42.212125" lon="13.9124367"><ele>334.0</ele><time>2026-05-03T10:29:03.758Z</time></trkpt><trkpt lat="42.2121783" lon="13.91252"><ele>333.5</ele><time>2026-05-03T10:29:04.758Z</time></trkpt><trkpt lat="42.212225" lon="13.9126067"><ele>333.0</ele><time>2026-05-03T10:29:05.757Z</time></trkpt><trkpt lat="42.2122767" lon="13.9126933"><ele>333.6666666666667</ele><time>2026-05-03T10:29:06.758Z</time></trkpt><trkpt lat="42.21234" lon="13.9127633"><ele>334.3333333333333</ele><time>2026-05-03T10:29:07.757Z</time></trkpt><trkpt lat="42.212405" lon="13.9128367"><ele>335.0</ele><time>2026-05-03T10:29:08.758Z</time></trkpt><trkpt lat="42.21248" lon="13.9129"><ele>335.66666666666663</ele><time>2026-05-03T10:29:09.758Z</time></trkpt><trkpt lat="42.21256" lon="13.9129533"><ele>336.3333333333333</ele><time>2026-05-03T10:29:10.758Z</time></trkpt><trkpt lat="42.212635" lon="13.91301"><ele>337.0</ele><time>2026-05-03T10:29:11.757Z</time></trkpt><trkpt lat="42.2127133" lon="13.91308"><ele>337.0</ele><time>2026-05-03T10:29:12.758Z</time></trkpt><trkpt lat="42.21279" lon="13.9131483"><ele>337.0</ele><time>2026-05-03T10:29:13.757Z</time></trkpt><trkpt lat="42.2129233" lon="13.913205"><ele>337.0</ele><time>2026-05-03T10:29:15.757Z</time></trkpt><trkpt lat="42.2130117" lon="13.913255"><ele>337.0</ele><time>2026-05-03T10:29:16.757Z</time></trkpt><trkpt lat="42.2131267" lon="13.9132933"><ele>337.0</ele><time>2026-05-03T10:29:17.757Z</time></trkpt><trkpt lat="42.2132383" lon="13.9133167"><ele>338.0</ele><time>2026-05-03T10:29:18.757Z</time></trkpt><trkpt lat="42.2133667" lon="13.913335"><ele>339.0</ele><time>2026-05-03T10:29:19.758Z</time></trkpt><trkpt lat="42.21349" lon="13.9133417"><ele>340.0</ele><time>2026-05-03T10:29:20.758Z</time></trkpt><trkpt lat="42.2136117" lon="13.913375"><ele>341.0</ele><time>2026-05-03T10:29:21.757Z</time></trkpt><trkpt lat="42.2137183" lon="13.9133883"><ele>341.0</ele><time>2026-05-03T10:29:22.757Z</time></trkpt><trkpt lat="42.2138033" lon="13.9133833"><ele>341.0</ele><time>2026-05-03T10:29:23.757Z</time></trkpt><trkpt lat="42.2138883" lon="13.9133883"><ele>341.0</ele><time>2026-05-03T10:29:24.758Z</time></trkpt><trkpt lat="42.2139733" lon="13.913385"><ele>341.0</ele><time>2026-05-03T10:29:25.758Z</time></trkpt><trkpt lat="42.2140583" lon="13.9133783"><ele>341.0</ele><time>2026-05-03T10:29:26.758Z</time></trkpt><trkpt lat="42.2141417" lon="13.913355"><ele>341.0</ele><time>2026-05-03T10:29:27.758Z</time></trkpt><trkpt lat="42.2142233" lon="13.91332"><ele>341.4</ele><time>2026-05-03T10:29:28.757Z</time></trkpt><trkpt lat="42.2143067" lon="13.9132983"><ele>341.8</ele><time>2026-05-03T10:29:29.757Z</time></trkpt><trkpt lat="42.2143917" lon="13.9132817"><ele>342.2</ele><time>2026-05-03T10:29:30.757Z</time></trkpt><trkpt lat="42.2144817" lon="13.9132333"><ele>342.59999999999997</ele><time>2026-05-03T10:29:31.757Z</time></trkpt><trkpt lat="42.2145717" lon="13.9132"><ele>343.0</ele><time>2026-05-03T10:29:32.758Z</time></trkpt><trkpt lat="42.21466" lon="13.9131533"><ele>343.0</ele><time>2026-05-03T10:29:33.758Z</time></trkpt><trkpt lat="42.2147483" lon="13.9131117"><ele>343.0</ele><time>2026-05-03T10:29:34.758Z</time></trkpt><trkpt lat="42.2148283" lon="13.9130867"><ele>343.0</ele><time>2026-05-03T10:29:35.758Z</time></trkpt><trkpt lat="42.2149067" lon="13.9130833"><ele>343.0</ele><time>2026-05-03T10:29:36.757Z</time></trkpt><trkpt lat="42.214995" lon="13.91312"><ele>343.0</ele><time>2026-05-03T10:29:37.757Z</time></trkpt><trkpt lat="42.2150867" lon="13.9131933"><ele>342.0</ele><time>2026-05-03T10:29:38.758Z</time></trkpt><trkpt lat="42.2151933" lon="13.9133083"><ele>341.0</ele><time>2026-05-03T10:29:39.757Z</time></trkpt><trkpt lat="42.215315" lon="13.9134133"><ele>340.0</ele><time>2026-05-03T10:29:40.757Z</time></trkpt><trkpt lat="42.21544" lon="13.9135217"><ele>339.0</ele><time>2026-05-03T10:29:41.758Z</time></trkpt><trkpt lat="42.2155767" lon="13.913615"><ele>338.0</ele><time>2026-05-03T10:29:42.758Z</time></trkpt><trkpt lat="42.215705" lon="13.913725"><ele>337.0</ele><time>2026-05-03T10:29:43.758Z</time></trkpt><trkpt lat="42.2158317" lon="13.9138317"><ele>336.0</ele><time>2026-05-03T10:29:44.757Z</time></trkpt><trkpt lat="42.2159417" lon="13.9139283"><ele>335.0</ele><time>2026-05-03T10:29:45.757Z</time></trkpt><trkpt lat="42.2160367" lon="13.9140183"><ele>335.0</ele><time>2026-05-03T10:29:46.758Z</time></trkpt><trkpt lat="42.21611" lon="13.9140817"><ele>335.0</ele><time>2026-05-03T10:29:47.757Z</time></trkpt><trkpt lat="42.2161883" lon="13.9141767"><ele>335.0</ele><time>2026-05-03T10:29:49.758Z</time></trkpt><trkpt lat="42.2162317" lon="13.9142933"><ele>335.0</ele><time>2026-05-03T10:29:52.758Z</time></trkpt><trkpt lat="42.2162017" lon="13.9143717"><ele>335.0</ele><time>2026-05-03T10:29:53.758Z</time></trkpt><trkpt lat="42.216145" lon="13.9144433"><ele>335.0</ele><time>2026-05-03T10:29:54.758Z</time></trkpt><trkpt lat="42.2160733" lon="13.91452"><ele>334.25</ele><time>2026-05-03T10:29:55.757Z</time></trkpt><trkpt lat="42.2159417" lon="13.91457"><ele>333.5</ele><time>2026-05-03T10:29:56.758Z</time></trkpt><trkpt lat="42.2158217" lon="13.91463"><ele>332.75</ele><time>2026-05-03T10:29:57.758Z</time></trkpt><trkpt lat="42.2157183" lon="13.9146783"><ele>332.0</ele><time>2026-05-03T10:29:58.758Z</time></trkpt><trkpt lat="42.21563" lon="13.9147383"><ele>332.0</ele><time>2026-05-03T10:29:59.757Z</time></trkpt><trkpt lat="42.2155517" lon="13.914795"><ele>332.0</ele><time>2026-05-03T10:30:00.758Z</time></trkpt><trkpt lat="42.2154633" lon="13.9148467"><ele>332.0</ele><time>2026-05-03T10:30:01.757Z</time></trkpt><trkpt lat="42.215395" lon="13.9148933"><ele>332.0</ele><time>2026-05-03T10:30:02.758Z</time></trkpt><trkpt lat="42.2153083" lon="13.9149233"><ele>332.0</ele><time>2026-05-03T10:30:03.757Z</time></trkpt><trkpt lat="42.215215" lon="13.9149633"><ele>332.0</ele><time>2026-05-03T10:30:04.757Z</time></trkpt><trkpt lat="42.2151233" lon="13.915015"><ele>330.25</ele><time>2026-05-03T10:30:05.757Z</time></trkpt><trkpt lat="42.21503" lon="13.9151"><ele>328.5</ele><time>2026-05-03T10:30:06.757Z</time></trkpt><trkpt lat="42.2149317" lon="13.9151817"><ele>326.75</ele><time>2026-05-03T10:30:07.758Z</time></trkpt><trkpt lat="42.2148417" lon="13.915265"><ele>325.0</ele><time>2026-05-03T10:30:08.758Z</time></trkpt><trkpt lat="42.2147367" lon="13.9153433"><ele>325.0</ele><time>2026-05-03T10:30:09.758Z</time></trkpt><trkpt lat="42.2146217" lon="13.9154483"><ele>325.0</ele><time>2026-05-03T10:30:10.758Z</time></trkpt><trkpt lat="42.2145133" lon="13.91554"><ele>325.0</ele><time>2026-05-03T10:30:11.757Z</time></trkpt><trkpt lat="42.21441" lon="13.9156217"><ele>325.0</ele><time>2026-05-03T10:30:12.757Z</time></trkpt><trkpt lat="42.2143033" lon="13.9157333"><ele>325.0</ele><time>2026-05-03T10:30:13.757Z</time></trkpt><trkpt lat="42.2142" lon="13.9158583"><ele>325.0</ele><time>2026-05-03T10:30:14.757Z</time></trkpt><trkpt lat="42.21411" lon="13.9159717"><ele>325.0</ele><time>2026-05-03T10:30:15.758Z</time></trkpt><trkpt lat="42.2140167" lon="13.91607"><ele>325.0</ele><time>2026-05-03T10:30:16.757Z</time></trkpt><trkpt lat="42.2139117" lon="13.9161567"><ele>323.5</ele><time>2026-05-03T10:30:17.757Z</time></trkpt><trkpt lat="42.2138083" lon="13.916255"><ele>322.0</ele><time>2026-05-03T10:30:18.758Z</time></trkpt><trkpt lat="42.2137033" lon="13.9163183"><ele>320.5</ele><time>2026-05-03T10:30:19.758Z</time></trkpt><trkpt lat="42.2136067" lon="13.9164017"><ele>319.0</ele><time>2026-05-03T10:30:20.758Z</time></trkpt><trkpt lat="42.213515" lon="13.91652"><ele>319.0</ele><time>2026-05-03T10:30:21.758Z</time></trkpt><trkpt lat="42.213455" lon="13.9166767"><ele>319.0</ele><time>2026-05-03T10:30:22.757Z</time></trkpt><trkpt lat="42.2134333" lon="13.916855"><ele>319.0</ele><time>2026-05-03T10:30:23.757Z</time></trkpt><trkpt lat="42.2134467" lon="13.9170383"><ele>319.0</ele><time>2026-05-03T10:30:24.757Z</time></trkpt><trkpt lat="42.21347" lon="13.91721"><ele>319.4</ele><time>2026-05-03T10:30:25.757Z</time></trkpt><trkpt lat="42.2134817" lon="13.9173733"><ele>319.79999999999995</ele><time>2026-05-03T10:30:26.758Z</time></trkpt><trkpt lat="42.213485" lon="13.917535"><ele>320.20000000000005</ele><time>2026-05-03T10:30:27.758Z</time></trkpt><trkpt lat="42.2134717" lon="13.917675"><ele>320.6</ele><time>2026-05-03T10:30:28.758Z</time></trkpt><trkpt lat="42.2134567" lon="13.9177967"><ele>321.0</ele><time>2026-05-03T10:30:29.757Z</time></trkpt><trkpt lat="42.21345" lon="13.9178917"><ele>321.8</ele><time>2026-05-03T10:30:30.758Z</time></trkpt><trkpt lat="42.2134433" lon="13.9179833"><ele>322.6</ele><time>2026-05-03T10:30:31.758Z</time></trkpt><trkpt lat="42.213445" lon="13.9181267"><ele>323.4</ele><time>2026-05-03T10:30:33.758Z</time></trkpt><trkpt lat="42.2135567" lon="13.9182117"><ele>324.2</ele><time>2026-05-03T10:30:35.757Z</time></trkpt><trkpt lat="42.2136367" lon="13.9182467"><ele>325.0</ele><time>2026-05-03T10:30:36.757Z</time></trkpt><trkpt lat="42.2137133" lon="13.91831"><ele>325.0</ele><time>2026-05-03T10:30:37.757Z</time></trkpt><trkpt lat="42.2137867" lon="13.918395"><ele>325.0</ele><time>2026-05-03T10:30:38.758Z</time></trkpt><trkpt lat="42.2138617" lon="13.918495"><ele>325.0</ele><time>2026-05-03T10:30:39.758Z</time></trkpt><trkpt lat="42.21394" lon="13.918605"><ele>325.0</ele><time>2026-05-03T10:30:40.757Z</time></trkpt><trkpt lat="42.2140283" lon="13.9187167"><ele>325.0</ele><time>2026-05-03T10:30:41.758Z</time></trkpt><trkpt lat="42.21412" lon="13.9188417"><ele>324.75</ele><time>2026-05-03T10:30:42.758Z</time></trkpt><trkpt lat="42.2142283" lon="13.9189567"><ele>324.5</ele><time>2026-05-03T10:30:43.757Z</time></trkpt><trkpt lat="42.21434" lon="13.9190617"><ele>324.25</ele><time>2026-05-03T10:30:44.758Z</time></trkpt><trkpt lat="42.2144583" lon="13.9191767"><ele>324.0</ele><time>2026-05-03T10:30:45.757Z</time></trkpt><trkpt lat="42.21458" lon="13.9192833"><ele>323.75</ele><time>2026-05-03T10:30:46.758Z</time></trkpt><trkpt lat="42.2147" lon="13.9193817"><ele>323.5</ele><time>2026-05-03T10:30:47.758Z</time></trkpt><trkpt lat="42.21482" lon="13.9194833"><ele>323.25</ele><time>2026-05-03T10:30:48.758Z</time></trkpt><trkpt lat="42.21494" lon="13.9195867"><ele>323.0</ele><time>2026-05-03T10:30:49.758Z</time></trkpt><trkpt lat="42.21505" lon="13.9196817"><ele>323.0</ele><time>2026-05-03T10:30:50.757Z</time></trkpt><trkpt lat="42.21515" lon="13.9197733"><ele>323.0</ele><time>2026-05-03T10:30:51.758Z</time></trkpt><trkpt lat="42.2152417" lon="13.91986"><ele>323.0</ele><time>2026-05-03T10:30:52.757Z</time></trkpt><trkpt lat="42.215325" lon="13.9199433"><ele>323.0</ele><time>2026-05-03T10:30:53.758Z</time></trkpt><trkpt lat="42.2154117" lon="13.9200467"><ele>322.75</ele><time>2026-05-03T10:30:54.758Z</time></trkpt><trkpt lat="42.215525" lon="13.9201467"><ele>322.5</ele><time>2026-05-03T10:30:55.758Z</time></trkpt><trkpt lat="42.2156383" lon="13.9202617"><ele>322.25</ele><time>2026-05-03T10:30:56.758Z</time></trkpt><trkpt lat="42.2157517" lon="13.9203767"><ele>322.0</ele><time>2026-05-03T10:30:57.757Z</time></trkpt><trkpt lat="42.215865" lon="13.9204967"><ele>321.5</ele><time>2026-05-03T10:30:58.758Z</time></trkpt><trkpt lat="42.2159733" lon="13.9206283"><ele>321.0</ele><time>2026-05-03T10:30:59.758Z</time></trkpt><trkpt lat="42.2160817" lon="13.920755"><ele>320.5</ele><time>2026-05-03T10:31:00.758Z</time></trkpt><trkpt lat="42.21618" lon="13.92089"><ele>320.0</ele><time>2026-05-03T10:31:01.758Z</time></trkpt><trkpt lat="42.2162783" lon="13.921035"><ele>319.75</ele><time>2026-05-03T10:31:02.757Z</time></trkpt><trkpt lat="42.21637" lon="13.9212"><ele>319.5</ele><time>2026-05-03T10:31:03.758Z</time></trkpt><trkpt lat="42.21647" lon="13.921345"><ele>319.25</ele><time>2026-05-03T10:31:04.758Z</time></trkpt><trkpt lat="42.2165767" lon="13.9214733"><ele>319.0</ele><time>2026-05-03T10:31:05.757Z</time></trkpt><trkpt lat="42.216675" lon="13.9216033"><ele>319.0</ele><time>2026-05-03T10:31:06.758Z</time></trkpt><trkpt lat="42.2167733" lon="13.9217167"><ele>319.0</ele><time>2026-05-03T10:31:07.757Z</time></trkpt><trkpt lat="42.21687" lon="13.9218233"><ele>319.0</ele><time>2026-05-03T10:31:08.758Z</time></trkpt><trkpt lat="42.216965" lon="13.92194"><ele>319.0</ele><time>2026-05-03T10:31:09.757Z</time></trkpt><trkpt lat="42.21704" lon="13.9220783"><ele>318.5</ele><time>2026-05-03T10:31:10.758Z</time></trkpt><trkpt lat="42.21709" lon="13.92222"><ele>318.0</ele><time>2026-05-03T10:31:11.757Z</time></trkpt><trkpt lat="42.2171383" lon="13.9223717"><ele>317.5</ele><time>2026-05-03T10:31:12.757Z</time></trkpt><trkpt lat="42.2171933" lon="13.9225233"><ele>317.0</ele><time>2026-05-03T10:31:13.758Z</time></trkpt><trkpt lat="42.2172367" lon="13.9226883"><ele>316.2</ele><time>2026-05-03T10:31:14.757Z</time></trkpt><trkpt lat="42.2172867" lon="13.9228517"><ele>315.4</ele><time>2026-05-03T10:31:15.758Z</time></trkpt><trkpt lat="42.21734" lon="13.9229967"><ele>314.6</ele><time>2026-05-03T10:31:16.758Z</time></trkpt><trkpt lat="42.2173833" lon="13.92312"><ele>313.8</ele><time>2026-05-03T10:31:17.757Z</time></trkpt><trkpt lat="42.217435" lon="13.9232167"><ele>313.0</ele><time>2026-05-03T10:31:18.758Z</time></trkpt><trkpt lat="42.2175" lon="13.9233"><ele>312.5</ele><time>2026-05-03T10:31:19.758Z</time></trkpt><trkpt lat="42.217585" lon="13.92337"><ele>312.0</ele><time>2026-05-03T10:31:20.757Z</time></trkpt><trkpt lat="42.2176883" lon="13.9234467"><ele>311.5</ele><time>2026-05-03T10:31:21.756Z</time></trkpt><trkpt lat="42.2178033" lon="13.9235167"><ele>311.0</ele><time>2026-05-03T10:31:22.756Z</time></trkpt><trkpt lat="42.2179217" lon="13.92361"><ele>310.25</ele><time>2026-05-03T10:31:23.757Z</time></trkpt><trkpt lat="42.2180483" lon="13.923715"><ele>309.5</ele><time>2026-05-03T10:31:24.757Z</time></trkpt><trkpt lat="42.2181683" lon="13.9238167"><ele>308.75</ele><time>2026-05-03T10:31:25.757Z</time></trkpt><trkpt lat="42.2182917" lon="13.9239167"><ele>308.0</ele><time>2026-05-03T10:31:26.757Z</time></trkpt><trkpt lat="42.218415" lon="13.924025"><ele>308.0</ele><time>2026-05-03T10:31:27.757Z</time></trkpt><trkpt lat="42.2185267" lon="13.924115"><ele>308.0</ele><time>2026-05-03T10:31:28.756Z</time></trkpt><trkpt lat="42.2186317" lon="13.924195"><ele>308.0</ele><time>2026-05-03T10:31:29.757Z</time></trkpt><trkpt lat="42.21872" lon="13.92426"><ele>308.0</ele><time>2026-05-03T10:31:30.756Z</time></trkpt><trkpt lat="42.2188067" lon="13.9243217"><ele>308.0</ele><time>2026-05-03T10:31:31.757Z</time></trkpt><trkpt lat="42.21891" lon="13.92437"><ele>306.8</ele><time>2026-05-03T10:31:32.757Z</time></trkpt><trkpt lat="42.21902" lon="13.924415"><ele>305.6</ele><time>2026-05-03T10:31:33.757Z</time></trkpt><trkpt lat="42.2191267" lon="13.92447"><ele>304.4</ele><time>2026-05-03T10:31:34.757Z</time></trkpt><trkpt lat="42.2192133" lon="13.924535"><ele>303.2</ele><time>2026-05-03T10:31:35.757Z</time></trkpt><trkpt lat="42.2192883" lon="13.9246033"><ele>302.0</ele><time>2026-05-03T10:31:36.756Z</time></trkpt><trkpt lat="42.21936" lon="13.924695"><ele>302.0</ele><time>2026-05-03T10:31:37.757Z</time></trkpt><trkpt lat="42.2194317" lon="13.9247933"><ele>302.0</ele><time>2026-05-03T10:31:38.756Z</time></trkpt><trkpt lat="42.2195033" lon="13.9248917"><ele>302.0</ele><time>2026-05-03T10:31:39.757Z</time></trkpt><trkpt lat="42.2195717" lon="13.92499"><ele>302.0</ele><time>2026-05-03T10:31:40.757Z</time></trkpt><trkpt lat="42.2196367" lon="13.92508"><ele>302.0</ele><time>2026-05-03T10:31:41.756Z</time></trkpt><trkpt lat="42.2197017" lon="13.9251733"><ele>301.6666666666667</ele><time>2026-05-03T10:31:42.756Z</time></trkpt><trkpt lat="42.2197567" lon="13.9252567"><ele>301.33333333333337</ele><time>2026-05-03T10:31:43.757Z</time></trkpt><trkpt lat="42.219825" lon="13.9253433"><ele>301.0</ele><time>2026-05-03T10:31:44.756Z</time></trkpt><trkpt lat="42.2199017" lon="13.9254167"><ele>300.6666666666667</ele><time>2026-05-03T10:31:45.756Z</time></trkpt><trkpt lat="42.2199683" lon="13.9254967"><ele>300.3333333333333</ele><time>2026-05-03T10:31:46.757Z</time></trkpt><trkpt lat="42.220045" lon="13.9255583"><ele>300.0</ele><time>2026-05-03T10:31:47.757Z</time></trkpt><trkpt lat="42.220135" lon="13.9255967"><ele>299.6666666666667</ele><time>2026-05-03T10:31:48.756Z</time></trkpt><trkpt lat="42.22022" lon="13.9256233"><ele>299.3333333333333</ele><time>2026-05-03T10:31:49.757Z</time></trkpt><trkpt lat="42.22032" lon="13.9256417"><ele>299.0</ele><time>2026-05-03T10:31:50.757Z</time></trkpt><trkpt lat="42.2204133" lon="13.9256467"><ele>298.66666666666663</ele><time>2026-05-03T10:31:51.756Z</time></trkpt><trkpt lat="42.2204917" lon="13.925655"><ele>298.3333333333333</ele><time>2026-05-03T10:31:52.757Z</time></trkpt><trkpt lat="42.2205667" lon="13.9256567"><ele>298.0</ele><time>2026-05-03T10:31:54.757Z</time></trkpt><trkpt lat="42.220625" lon="13.925775"><ele>296.8</ele><time>2026-05-03T10:31:58.757Z</time></trkpt><trkpt lat="42.2207067" lon="13.925885"><ele>295.6</ele><time>2026-05-03T10:32:00.757Z</time></trkpt><trkpt lat="42.2208067" lon="13.9259883"><ele>294.4</ele><time>2026-05-03T10:32:02.757Z</time></trkpt><trkpt lat="42.22086" lon="13.92609"><ele>293.2</ele><time>2026-05-03T10:32:04.756Z</time></trkpt><trkpt lat="42.2208667" lon="13.926175"><ele>292.0</ele><time>2026-05-03T10:32:06.756Z</time></trkpt><trkpt lat="42.2208467" lon="13.9262767"><ele>292.0</ele><time>2026-05-03T10:32:09.756Z</time></trkpt><trkpt lat="42.22091" lon="13.926255"><ele>292.0</ele><time>2026-05-03T10:32:14.757Z</time></trkpt><trkpt lat="42.22089" lon="13.9261267"><ele>292.0</ele><time>2026-05-03T10:32:17.756Z</time></trkpt><trkpt lat="42.2208233" lon="13.92599"><ele>292.0</ele><time>2026-05-03T10:32:19.757Z</time></trkpt><trkpt lat="42.2207783" lon="13.92593"><ele>292.0</ele><time>2026-05-03T10:32:20.757Z</time></trkpt><trkpt lat="42.2207233" lon="13.925865"><ele>292.0</ele><time>2026-05-03T10:32:21.756Z</time></trkpt><trkpt lat="42.2206667" lon="13.9258133"><ele>292.0</ele><time>2026-05-03T10:32:22.757Z</time></trkpt><trkpt lat="42.2205767" lon="13.9257117"><ele>292.0</ele><time>2026-05-03T10:32:24.756Z</time></trkpt><trkpt lat="42.2205067" lon="13.92564"><ele>292.0</ele><time>2026-05-03T10:32:26.756Z</time></trkpt><trkpt lat="42.220625" lon="13.92561"><ele>292.0</ele><time>2026-05-03T10:32:38.756Z</time></trkpt><trkpt lat="42.22071" lon="13.9255783"><ele>292.0</ele><time>2026-05-03T10:32:39.757Z</time></trkpt><trkpt lat="42.2208517" lon="13.9255333"><ele>292.0</ele><time>2026-05-03T10:32:41.757Z</time></trkpt><trkpt lat="42.2209583" lon="13.9255283"><ele>292.0</ele><time>2026-05-03T10:32:43.757Z</time></trkpt><trkpt lat="42.2210833" lon="13.925545"><ele>292.0</ele><time>2026-05-03T10:32:45.757Z</time></trkpt><trkpt lat="42.22116" lon="13.9255567"><ele>292.0</ele><time>2026-05-03T10:32:46.757Z</time></trkpt><trkpt lat="42.22124" lon="13.925565"><ele>292.0</ele><time>2026-05-03T10:32:47.757Z</time></trkpt><trkpt lat="42.2213133" lon="13.9255667"><ele>292.0</ele><time>2026-05-03T10:32:48.757Z</time></trkpt><trkpt lat="42.221395" lon="13.9255683"><ele>292.0</ele><time>2026-05-03T10:32:49.756Z</time></trkpt><trkpt lat="42.2214667" lon="13.9255683"><ele>292.0</ele><time>2026-05-03T10:32:50.757Z</time></trkpt><trkpt lat="42.2215933" lon="13.9255867"><ele>292.0</ele><time>2026-05-03T10:32:52.757Z</time></trkpt><trkpt lat="42.2216583" lon="13.9256033"><ele>292.0</ele><time>2026-05-03T10:32:53.757Z</time></trkpt><trkpt lat="42.2217833" lon="13.9256267"><ele>290.3333333333333</ele><time>2026-05-03T10:32:55.756Z</time></trkpt><trkpt lat="42.2218517" lon="13.92563"><ele>288.66666666666663</ele><time>2026-05-03T10:32:56.756Z</time></trkpt><trkpt lat="42.2219217" lon="13.92565"><ele>287.0</ele><time>2026-05-03T10:32:57.757Z</time></trkpt><trkpt lat="42.22199" lon="13.9256717"><ele>285.3333333333333</ele><time>2026-05-03T10:32:58.757Z</time></trkpt><trkpt lat="42.2220533" lon="13.9256917"><ele>283.6666666666667</ele><time>2026-05-03T10:32:59.756Z</time></trkpt><trkpt lat="42.222145" lon="13.92575"><ele>282.0</ele><time>2026-05-03T10:33:01.757Z</time></trkpt><trkpt lat="42.2222117" lon="13.9257967"><ele>278.5</ele><time>2026-05-03T10:33:13.756Z</time></trkpt><trkpt lat="42.2223233" lon="13.9258533"><ele>275.0</ele><time>2026-05-03T10:33:15.757Z</time></trkpt><trkpt lat="42.2224483" lon="13.9258817"><ele>271.5</ele><time>2026-05-03T10:33:17.757Z</time></trkpt><trkpt lat="42.2225583" lon="13.9258867"><ele>268.0</ele><time>2026-05-03T10:33:19.756Z</time></trkpt><trkpt lat="42.2226633" lon="13.92586"><ele>268.0</ele><time>2026-05-03T10:33:21.757Z</time></trkpt><trkpt lat="42.2227583" lon="13.9258367"><ele>268.0</ele><time>2026-05-03T10:33:23.756Z</time></trkpt><trkpt lat="42.222835" lon="13.9258517"><ele>268.0</ele><time>2026-05-03T10:33:25.756Z</time></trkpt><trkpt lat="42.2228967" lon="13.9258833"><ele>268.0</ele><time>2026-05-03T10:33:27.757Z</time></trkpt><trkpt lat="42.222935" lon="13.9259533"><ele>268.0</ele><time>2026-05-03T10:33:29.757Z</time></trkpt><trkpt lat="42.2229417" lon="13.9260767"><ele>268.0</ele><time>2026-05-03T10:33:31.757Z</time></trkpt><trkpt lat="42.2229217" lon="13.926165"><ele>266.16666666666663</ele><time>2026-05-03T10:33:32.757Z</time></trkpt><trkpt lat="42.222895" lon="13.92625"><ele>264.3333333333333</ele><time>2026-05-03T10:33:33.757Z</time></trkpt><trkpt lat="42.2228633" lon="13.9263317"><ele>262.5</ele><time>2026-05-03T10:33:34.757Z</time></trkpt><trkpt lat="42.2228283" lon="13.9264217"><ele>260.6666666666667</ele><time>2026-05-03T10:33:35.756Z</time></trkpt><trkpt lat="42.22279" lon="13.9265083"><ele>258.83333333333337</ele><time>2026-05-03T10:33:36.756Z</time></trkpt><trkpt lat="42.2227533" lon="13.9266167"><ele>257.0</ele><time>2026-05-03T10:33:37.756Z</time></trkpt><trkpt lat="42.22272" lon="13.9267133"><ele>255.33333333333334</ele><time>2026-05-03T10:33:38.756Z</time></trkpt><trkpt lat="42.2226917" lon="13.9268083"><ele>253.66666666666669</ele><time>2026-05-03T10:33:39.756Z</time></trkpt><trkpt lat="42.22266" lon="13.9268983"><ele>252.0</ele><time>2026-05-03T10:33:40.756Z</time></trkpt><trkpt lat="42.2226283" lon="13.9270083"><ele>250.33333333333331</ele><time>2026-05-03T10:33:41.756Z</time></trkpt><trkpt lat="42.22259" lon="13.9271133"><ele>248.66666666666666</ele><time>2026-05-03T10:33:42.757Z</time></trkpt><trkpt lat="42.2225483" lon="13.9272117"><ele>247.0</ele><time>2026-05-03T10:33:43.756Z</time></trkpt><trkpt lat="42.222505" lon="13.9273167"><ele>247.0</ele><time>2026-05-03T10:33:44.757Z</time></trkpt><trkpt lat="42.2224667" lon="13.9274233"><ele>247.0</ele><time>2026-05-03T10:33:45.757Z</time></trkpt><trkpt lat="42.2224217" lon="13.9275367"><ele>247.0</ele><time>2026-05-03T10:33:46.757Z</time></trkpt><trkpt lat="42.222385" lon="13.9276533"><ele>247.0</ele><time>2026-05-03T10:33:47.757Z</time></trkpt><trkpt lat="42.2223483" lon="13.9277833"><ele>247.0</ele><time>2026-05-03T10:33:48.757Z</time></trkpt><trkpt lat="42.22231" lon="13.927915"><ele>247.0</ele><time>2026-05-03T10:33:49.757Z</time></trkpt><trkpt lat="42.222265" lon="13.92805"><ele>247.0</ele><time>2026-05-03T10:33:50.757Z</time></trkpt><trkpt lat="42.2222183" lon="13.92818"><ele>247.0</ele><time>2026-05-03T10:33:51.757Z</time></trkpt><trkpt lat="42.2221783" lon="13.9282983"><ele>247.0</ele><time>2026-05-03T10:33:52.757Z</time></trkpt><trkpt lat="42.2221333" lon="13.9284167"><ele>247.0</ele><time>2026-05-03T10:33:53.756Z</time></trkpt><trkpt lat="42.2220883" lon="13.9285283"><ele>247.0</ele><time>2026-05-03T10:33:54.757Z</time></trkpt><trkpt lat="42.2220383" lon="13.92864"><ele>247.0</ele><time>2026-05-03T10:33:55.757Z</time></trkpt><trkpt lat="42.2219867" lon="13.9287567"><ele>247.0</ele><time>2026-05-03T10:33:56.757Z</time></trkpt><trkpt lat="42.2219333" lon="13.9288683"><ele>247.0</ele><time>2026-05-03T10:33:57.757Z</time></trkpt><trkpt lat="42.2218833" lon="13.928995"><ele>247.0</ele><time>2026-05-03T10:33:58.757Z</time></trkpt><trkpt lat="42.2218333" lon="13.9291267"><ele>246.5</ele><time>2026-05-03T10:33:59.757Z</time></trkpt><trkpt lat="42.22177" lon="13.929265"><ele>246.0</ele><time>2026-05-03T10:34:00.756Z</time></trkpt><trkpt lat="42.221705" lon="13.9294117"><ele>245.5</ele><time>2026-05-03T10:34:01.757Z</time></trkpt><trkpt lat="42.221645" lon="13.929565"><ele>245.0</ele><time>2026-05-03T10:34:02.757Z</time></trkpt><trkpt lat="42.2215767" lon="13.9297167"><ele>245.0</ele><time>2026-05-03T10:34:03.757Z</time></trkpt><trkpt lat="42.2215083" lon="13.929845"><ele>245.0</ele><time>2026-05-03T10:34:04.757Z</time></trkpt><trkpt lat="42.2214433" lon="13.9299817"><ele>245.0</ele><time>2026-05-03T10:34:05.756Z</time></trkpt><trkpt lat="42.2213817" lon="13.93012"><ele>245.0</ele><time>2026-05-03T10:34:06.757Z</time></trkpt><trkpt lat="42.2213217" lon="13.930255"><ele>249.25</ele><time>2026-05-03T10:34:07.757Z</time></trkpt><trkpt lat="42.22126" lon="13.9303833"><ele>253.5</ele><time>2026-05-03T10:34:08.756Z</time></trkpt><trkpt lat="42.2211933" lon="13.9305"><ele>257.75</ele><time>2026-05-03T10:34:09.756Z</time></trkpt><trkpt lat="42.2210983" lon="13.9306083"><ele>262.0</ele><time>2026-05-03T10:34:10.757Z</time></trkpt><trkpt lat="42.2210067" lon="13.9307067"><ele>262.0</ele><time>2026-05-03T10:34:11.757Z</time></trkpt><trkpt lat="42.2209217" lon="13.9307933"><ele>262.0</ele><time>2026-05-03T10:34:12.757Z</time></trkpt><trkpt lat="42.2208283" lon="13.93085"><ele>262.0</ele><time>2026-05-03T10:34:13.757Z</time></trkpt><trkpt lat="42.220745" lon="13.9308783"><ele>262.0</ele><time>2026-05-03T10:34:14.757Z</time></trkpt><trkpt lat="42.2206733" lon="13.930865"><ele>262.0</ele><time>2026-05-03T10:34:15.757Z</time></trkpt><trkpt lat="42.2206033" lon="13.9308933"><ele>262.0</ele><time>2026-05-03T10:34:16.757Z</time></trkpt><trkpt lat="42.2205183" lon="13.9309817"><ele>261.16666666666663</ele><time>2026-05-03T10:34:18.756Z</time></trkpt><trkpt lat="42.2205267" lon="13.9310767"><ele>260.3333333333333</ele><time>2026-05-03T10:34:19.757Z</time></trkpt><trkpt lat="42.2205533" lon="13.9311733"><ele>259.5</ele><time>2026-05-03T10:34:20.757Z</time></trkpt><trkpt lat="42.2205917" lon="13.93129"><ele>258.6666666666667</ele><time>2026-05-03T10:34:21.756Z</time></trkpt><trkpt lat="42.2206317" lon="13.9314083"><ele>257.83333333333337</ele><time>2026-05-03T10:34:22.757Z</time></trkpt><trkpt lat="42.2206617" lon="13.9315333"><ele>257.0</ele><time>2026-05-03T10:34:23.756Z</time></trkpt><trkpt lat="42.2206867" lon="13.93167"><ele>255.39999999999998</ele><time>2026-05-03T10:34:24.757Z</time></trkpt><trkpt lat="42.2207133" lon="13.9318167"><ele>253.79999999999998</ele><time>2026-05-03T10:34:25.756Z</time></trkpt><trkpt lat="42.2207433" lon="13.931945"><ele>252.2</ele><time>2026-05-03T10:34:26.756Z</time></trkpt><trkpt lat="42.2207717" lon="13.9320717"><ele>250.6</ele><time>2026-05-03T10:34:27.756Z</time></trkpt><trkpt lat="42.2208067" lon="13.9322017"><ele>249.0</ele><time>2026-05-03T10:34:28.757Z</time></trkpt><trkpt lat="42.2208567" lon="13.932325"><ele>249.0</ele><time>2026-05-03T10:34:29.757Z</time></trkpt><trkpt lat="42.2209067" lon="13.9324483"><ele>248.99999999999997</ele><time>2026-05-03T10:34:30.756Z</time></trkpt><trkpt lat="42.220965" lon="13.9325667"><ele>248.99999999999997</ele><time>2026-05-03T10:34:31.757Z</time></trkpt><trkpt lat="42.2210467" lon="13.932675"><ele>249.0</ele><time>2026-05-03T10:34:32.756Z</time></trkpt><trkpt lat="42.221135" lon="13.9327667"><ele>249.0</ele><time>2026-05-03T10:34:33.756Z</time></trkpt><trkpt lat="42.221225" lon="13.9328683"><ele>246.75</ele><time>2026-05-03T10:34:34.757Z</time></trkpt><trkpt lat="42.22131" lon="13.93298"><ele>244.5</ele><time>2026-05-03T10:34:35.757Z</time></trkpt><trkpt lat="42.2214017" lon="13.9330967"><ele>242.25</ele><time>2026-05-03T10:34:36.756Z</time></trkpt><trkpt lat="42.2214817" lon="13.9332417"><ele>240.0</ele><time>2026-05-03T10:34:37.756Z</time></trkpt><trkpt lat="42.221555" lon="13.93339"><ele>237.6</ele><time>2026-05-03T10:34:38.757Z</time></trkpt><trkpt lat="42.2216283" lon="13.933505"><ele>235.2</ele><time>2026-05-03T10:34:39.756Z</time></trkpt><trkpt lat="42.2216867" lon="13.9336133"><ele>232.8</ele><time>2026-05-03T10:34:40.756Z</time></trkpt><trkpt lat="42.2217633" lon="13.93369"><ele>230.4</ele><time>2026-05-03T10:34:41.757Z</time></trkpt><trkpt lat="42.2218633" lon="13.9337433"><ele>228.0</ele><time>2026-05-03T10:34:42.756Z</time></trkpt><trkpt lat="42.2219683" lon="13.9337717"><ele>228.0</ele><time>2026-05-03T10:34:43.757Z</time></trkpt><trkpt lat="42.2220767" lon="13.9337917"><ele>228.0</ele><time>2026-05-03T10:34:44.756Z</time></trkpt><trkpt lat="42.222175" lon="13.9338367"><ele>228.0</ele><time>2026-05-03T10:34:45.757Z</time></trkpt><trkpt lat="42.22225" lon="13.9339267"><ele>228.0</ele><time>2026-05-03T10:34:46.756Z</time></trkpt><trkpt lat="42.2223033" lon="13.9340483"><ele>228.0</ele><time>2026-05-03T10:34:47.757Z</time></trkpt><trkpt lat="42.2223283" lon="13.934175"><ele>224.5</ele><time>2026-05-03T10:34:48.756Z</time></trkpt><trkpt lat="42.2223383" lon="13.93432"><ele>221.0</ele><time>2026-05-03T10:34:49.757Z</time></trkpt><trkpt lat="42.2223433" lon="13.9344733"><ele>217.5</ele><time>2026-05-03T10:34:50.757Z</time></trkpt><trkpt lat="42.2223567" lon="13.9346283"><ele>214.0</ele><time>2026-05-03T10:34:51.757Z</time></trkpt><trkpt lat="42.2223833" lon="13.9347783"><ele>214.0</ele><time>2026-05-03T10:34:52.757Z</time></trkpt><trkpt lat="42.2224333" lon="13.93489"><ele>213.99999999999997</ele><time>2026-05-03T10:34:53.757Z</time></trkpt><trkpt lat="42.2225083" lon="13.934975"><ele>213.99999999999997</ele><time>2026-05-03T10:34:54.757Z</time></trkpt><trkpt lat="42.2226117" lon="13.9350267"><ele>214.0</ele><time>2026-05-03T10:34:55.756Z</time></trkpt><trkpt lat="42.2227183" lon="13.9350667"><ele>214.0</ele><time>2026-05-03T10:34:56.756Z</time></trkpt><trkpt lat="42.22284" lon="13.9351133"><ele>212.5</ele><time>2026-05-03T10:34:57.757Z</time></trkpt><trkpt lat="42.2229433" lon="13.9351683"><ele>211.0</ele><time>2026-05-03T10:34:58.757Z</time></trkpt><trkpt lat="42.2230417" lon="13.9352467"><ele>209.5</ele><time>2026-05-03T10:34:59.757Z</time></trkpt><trkpt lat="42.2231267" lon="13.93534"><ele>208.0</ele><time>2026-05-03T10:35:00.757Z</time></trkpt><trkpt lat="42.2232133" lon="13.9354433"><ele>207.2</ele><time>2026-05-03T10:35:01.757Z</time></trkpt><trkpt lat="42.2232933" lon="13.935545"><ele>206.4</ele><time>2026-05-03T10:35:02.757Z</time></trkpt><trkpt lat="42.22336" lon="13.9356533"><ele>205.6</ele><time>2026-05-03T10:35:03.756Z</time></trkpt><trkpt lat="42.2234117" lon="13.9357567"><ele>204.79999999999998</ele><time>2026-05-03T10:35:04.757Z</time></trkpt><trkpt lat="42.223455" lon="13.93586"><ele>204.0</ele><time>2026-05-03T10:35:05.757Z</time></trkpt><trkpt lat="42.223495" lon="13.9359583"><ele>203.6</ele><time>2026-05-03T10:35:06.756Z</time></trkpt><trkpt lat="42.2235283" lon="13.93605"><ele>203.2</ele><time>2026-05-03T10:35:07.756Z</time></trkpt><trkpt lat="42.2235583" lon="13.936125"><ele>202.79999999999998</ele><time>2026-05-03T10:35:08.757Z</time></trkpt><trkpt lat="42.22359" lon="13.9362033"><ele>202.39999999999998</ele><time>2026-05-03T10:35:09.755Z</time></trkpt><trkpt lat="42.2236817" lon="13.936315"><ele>202.0</ele><time>2026-05-03T10:35:11.755Z</time></trkpt><trkpt lat="42.223795" lon="13.9363833"><ele>202.0</ele><time>2026-05-03T10:35:13.756Z</time></trkpt><trkpt lat="42.2238567" lon="13.93641"><ele>202.0</ele><time>2026-05-03T10:35:14.755Z</time></trkpt><trkpt lat="42.22392" lon="13.936415"><ele>202.0</ele><time>2026-05-03T10:35:15.755Z</time></trkpt><trkpt lat="42.223995" lon="13.9364283"><ele>202.0</ele><time>2026-05-03T10:35:16.755Z</time></trkpt><trkpt lat="42.2240683" lon="13.9364617"><ele>202.0</ele><time>2026-05-03T10:35:17.755Z</time></trkpt><trkpt lat="42.22414" lon="13.93651"><ele>202.0</ele><time>2026-05-03T10:35:18.756Z</time></trkpt><trkpt lat="42.224215" lon="13.9365583"><ele>202.0</ele><time>2026-05-03T10:35:19.756Z</time></trkpt><trkpt lat="42.2243" lon="13.93659"><ele>201.2</ele><time>2026-05-03T10:35:20.756Z</time></trkpt><trkpt lat="42.224395" lon="13.9366267"><ele>200.39999999999998</ele><time>2026-05-03T10:35:21.755Z</time></trkpt><trkpt lat="42.224495" lon="13.93667"><ele>199.60000000000002</ele><time>2026-05-03T10:35:22.756Z</time></trkpt><trkpt lat="42.2245833" lon="13.9367"><ele>198.8</ele><time>2026-05-03T10:35:23.755Z</time></trkpt><trkpt lat="42.2246733" lon="13.9367283"><ele>198.0</ele><time>2026-05-03T10:35:24.756Z</time></trkpt><trkpt lat="42.224755" lon="13.936755"><ele>197.66666666666666</ele><time>2026-05-03T10:35:25.756Z</time></trkpt><trkpt lat="42.2248433" lon="13.936775"><ele>197.33333333333331</ele><time>2026-05-03T10:35:26.756Z</time></trkpt><trkpt lat="42.2249333" lon="13.9368133"><ele>197.0</ele><time>2026-05-03T10:35:27.756Z</time></trkpt><trkpt lat="42.2250083" lon="13.9368517"><ele>196.66666666666666</ele><time>2026-05-03T10:35:28.755Z</time></trkpt><trkpt lat="42.22507" lon="13.9368817"><ele>196.33333333333331</ele><time>2026-05-03T10:35:29.755Z</time></trkpt><trkpt lat="42.2251467" lon="13.9369067"><ele>196.0</ele><time>2026-05-03T10:35:31.756Z</time></trkpt><trkpt lat="42.2252617" lon="13.93696"><ele>195.99999999999997</ele><time>2026-05-03T10:36:02.756Z</time></trkpt><trkpt lat="42.22533" lon="13.9369733"><ele>196.0</ele><time>2026-05-03T10:36:03.756Z</time></trkpt><trkpt lat="42.2254067" lon="13.936985"><ele>196.0</ele><time>2026-05-03T10:36:04.755Z</time></trkpt><trkpt lat="42.2254867" lon="13.9370083"><ele>196.0</ele><time>2026-05-03T10:36:05.756Z</time></trkpt><trkpt lat="42.22555" lon="13.93705"><ele>195.99999999999997</ele><time>2026-05-03T10:36:06.755Z</time></trkpt><trkpt lat="42.2256067" lon="13.93712"><ele>196.0</ele><time>2026-05-03T10:36:07.755Z</time></trkpt><trkpt lat="42.225655" lon="13.9372117"><ele>195.83333333333331</ele><time>2026-05-03T10:36:08.755Z</time></trkpt><trkpt lat="42.2256983" lon="13.9373017"><ele>195.66666666666666</ele><time>2026-05-03T10:36:09.755Z</time></trkpt><trkpt lat="42.225725" lon="13.937405"><ele>195.5</ele><time>2026-05-03T10:36:10.756Z</time></trkpt><trkpt lat="42.2257383" lon="13.9375167"><ele>195.33333333333331</ele><time>2026-05-03T10:36:11.756Z</time></trkpt><trkpt lat="42.2257367" lon="13.9376383"><ele>195.16666666666666</ele><time>2026-05-03T10:36:12.756Z</time></trkpt><trkpt lat="42.225725" lon="13.93777"><ele>195.0</ele><time>2026-05-03T10:36:13.756Z</time></trkpt><trkpt lat="42.2257217" lon="13.937905"><ele>195.0</ele><time>2026-05-03T10:36:14.756Z</time></trkpt><trkpt lat="42.2257233" lon="13.93804"><ele>195.0</ele><time>2026-05-03T10:36:15.756Z</time></trkpt><trkpt lat="42.2257233" lon="13.9381783"><ele>195.0</ele><time>2026-05-03T10:36:16.756Z</time></trkpt><trkpt lat="42.22572" lon="13.9383"><ele>195.0</ele><time>2026-05-03T10:36:17.755Z</time></trkpt><trkpt lat="42.225715" lon="13.9384183"><ele>195.0</ele><time>2026-05-03T10:36:18.756Z</time></trkpt><trkpt lat="42.2257117" lon="13.93854"><ele>195.0</ele><time>2026-05-03T10:36:19.756Z</time></trkpt><trkpt lat="42.2257133" lon="13.9386633"><ele>195.0</ele><time>2026-05-03T10:36:20.756Z</time></trkpt><trkpt lat="42.225705" lon="13.9388033"><ele>195.0</ele><time>2026-05-03T10:36:21.756Z</time></trkpt><trkpt lat="42.2257067" lon="13.9389533"><ele>195.0</ele><time>2026-05-03T10:36:22.756Z</time></trkpt><trkpt lat="42.2257033" lon="13.9391067"><ele>195.0</ele><time>2026-05-03T10:36:23.756Z</time></trkpt><trkpt lat="42.2257017" lon="13.9392717"><ele>195.0</ele><time>2026-05-03T10:36:24.755Z</time></trkpt><trkpt lat="42.2257" lon="13.9394467"><ele>195.0</ele><time>2026-05-03T10:36:25.755Z</time></trkpt><trkpt lat="42.2256983" lon="13.9396317"><ele>195.0</ele><time>2026-05-03T10:36:26.755Z</time></trkpt><trkpt lat="42.22569" lon="13.9398217"><ele>195.0</ele><time>2026-05-03T10:36:27.756Z</time></trkpt><trkpt lat="42.2256867" lon="13.940025"><ele>194.75</ele><time>2026-05-03T10:36:28.755Z</time></trkpt><trkpt lat="42.2256833" lon="13.940215"><ele>194.5</ele><time>2026-05-03T10:36:29.756Z</time></trkpt><trkpt lat="42.2256883" lon="13.9404033"><ele>194.25</ele><time>2026-05-03T10:36:30.756Z</time></trkpt><trkpt lat="42.2256983" lon="13.940575"><ele>194.0</ele><time>2026-05-03T10:36:31.756Z</time></trkpt><trkpt lat="42.2257067" lon="13.9407467"><ele>194.5</ele><time>2026-05-03T10:36:32.755Z</time></trkpt><trkpt lat="42.2257333" lon="13.9409083"><ele>195.0</ele><time>2026-05-03T10:36:33.755Z</time></trkpt><trkpt lat="42.225765" lon="13.94106"><ele>195.5</ele><time>2026-05-03T10:36:34.756Z</time></trkpt><trkpt lat="42.2258067" lon="13.9412167"><ele>196.0</ele><time>2026-05-03T10:36:35.756Z</time></trkpt><trkpt lat="42.2258467" lon="13.94138"><ele>196.0</ele><time>2026-05-03T10:36:36.756Z</time></trkpt><trkpt lat="42.2259" lon="13.9415317"><ele>196.0</ele><time>2026-05-03T10:36:37.755Z</time></trkpt><trkpt lat="42.2259417" lon="13.94169"><ele>196.0</ele><time>2026-05-03T10:36:38.755Z</time></trkpt><trkpt lat="42.2259817" lon="13.9418767"><ele>196.0</ele><time>2026-05-03T10:36:39.756Z</time></trkpt><trkpt lat="42.22604" lon="13.942055"><ele>195.0</ele><time>2026-05-03T10:36:40.755Z</time></trkpt><trkpt lat="42.226095" lon="13.9422467"><ele>194.0</ele><time>2026-05-03T10:36:41.756Z</time></trkpt><trkpt lat="42.226155" lon="13.9424517"><ele>193.0</ele><time>2026-05-03T10:36:42.755Z</time></trkpt><trkpt lat="42.2262167" lon="13.9426483"><ele>193.0</ele><time>2026-05-03T10:36:43.756Z</time></trkpt><trkpt lat="42.226275" lon="13.9428467"><ele>193.0</ele><time>2026-05-03T10:36:44.755Z</time></trkpt><trkpt lat="42.2263267" lon="13.9430417"><ele>193.0</ele><time>2026-05-03T10:36:45.756Z</time></trkpt><trkpt lat="42.2263867" lon="13.9432417"><ele>193.66666666666666</ele><time>2026-05-03T10:36:46.755Z</time></trkpt><trkpt lat="42.2264433" lon="13.9434483"><ele>194.33333333333331</ele><time>2026-05-03T10:36:47.756Z</time></trkpt><trkpt lat="42.2264983" lon="13.9436533"><ele>195.0</ele><time>2026-05-03T10:36:48.755Z</time></trkpt><trkpt lat="42.2265567" lon="13.9438583"><ele>195.33333333333331</ele><time>2026-05-03T10:36:49.756Z</time></trkpt><trkpt lat="42.2266117" lon="13.9440633"><ele>195.66666666666666</ele><time>2026-05-03T10:36:50.756Z</time></trkpt><trkpt lat="42.226675" lon="13.9442517"><ele>196.0</ele><time>2026-05-03T10:36:51.755Z</time></trkpt><trkpt lat="42.2267367" lon="13.9444517"><ele>196.66666666666666</ele><time>2026-05-03T10:36:52.756Z</time></trkpt><trkpt lat="42.2267917" lon="13.944655"><ele>197.33333333333331</ele><time>2026-05-03T10:36:53.756Z</time></trkpt><trkpt lat="42.22685" lon="13.9448583"><ele>198.0</ele><time>2026-05-03T10:36:54.756Z</time></trkpt><trkpt lat="42.2269133" lon="13.945065"><ele>198.0</ele><time>2026-05-03T10:36:55.755Z</time></trkpt><trkpt lat="42.22697" lon="13.9452767"><ele>198.0</ele><time>2026-05-03T10:36:56.756Z</time></trkpt><trkpt lat="42.22703" lon="13.9454867"><ele>198.0</ele><time>2026-05-03T10:36:57.755Z</time></trkpt><trkpt lat="42.2270883" lon="13.9457017"><ele>198.66666666666669</ele><time>2026-05-03T10:36:58.755Z</time></trkpt><trkpt lat="42.227145" lon="13.9459167"><ele>199.33333333333334</ele><time>2026-05-03T10:36:59.756Z</time></trkpt><trkpt lat="42.227205" lon="13.9461317"><ele>200.0</ele><time>2026-05-03T10:37:00.756Z</time></trkpt><trkpt lat="42.227275" lon="13.94635"><ele>200.33333333333334</ele><time>2026-05-03T10:37:01.756Z</time></trkpt><trkpt lat="42.2273483" lon="13.946555"><ele>200.66666666666669</ele><time>2026-05-03T10:37:02.756Z</time></trkpt><trkpt lat="42.22742" lon="13.9467567"><ele>201.0</ele><time>2026-05-03T10:37:03.755Z</time></trkpt><trkpt lat="42.2274833" lon="13.9469583"><ele>202.0</ele><time>2026-05-03T10:37:04.756Z</time></trkpt><trkpt lat="42.2275433" lon="13.94716"><ele>203.0</ele><time>2026-05-03T10:37:05.755Z</time></trkpt><trkpt lat="42.2276033" lon="13.947375"><ele>204.0</ele><time>2026-05-03T10:37:06.755Z</time></trkpt><trkpt lat="42.2276617" lon="13.9475817"><ele>205.0</ele><time>2026-05-03T10:37:07.755Z</time></trkpt><trkpt lat="42.2277183" lon="13.947805"><ele>206.0</ele><time>2026-05-03T10:37:08.756Z</time></trkpt><trkpt lat="42.2277833" lon="13.948005"><ele>207.0</ele><time>2026-05-03T10:37:09.755Z</time></trkpt><trkpt lat="42.22787" lon="13.94819"><ele>207.0</ele><time>2026-05-03T10:37:10.755Z</time></trkpt><trkpt lat="42.2279717" lon="13.9483517"><ele>207.0</ele><time>2026-05-03T10:37:11.756Z</time></trkpt><trkpt lat="42.2280933" lon="13.9484967"><ele>207.0</ele><time>2026-05-03T10:37:12.756Z</time></trkpt><trkpt lat="42.22822" lon="13.94862"><ele>208.0</ele><time>2026-05-03T10:37:13.756Z</time></trkpt><trkpt lat="42.2283467" lon="13.9487517"><ele>209.0</ele><time>2026-05-03T10:37:14.755Z</time></trkpt><trkpt lat="42.228475" lon="13.9488667"><ele>210.0</ele><time>2026-05-03T10:37:15.756Z</time></trkpt><trkpt lat="42.2285983" lon="13.9489717"><ele>210.0</ele><time>2026-05-03T10:37:16.756Z</time></trkpt><trkpt lat="42.2287217" lon="13.9490717"><ele>210.0</ele><time>2026-05-03T10:37:17.756Z</time></trkpt><trkpt lat="42.2288417" lon="13.9491783"><ele>210.0</ele><time>2026-05-03T10:37:18.756Z</time></trkpt><trkpt lat="42.2289583" lon="13.94928"><ele>210.0</ele><time>2026-05-03T10:37:19.755Z</time></trkpt><trkpt lat="42.2290883" lon="13.94939"><ele>212.5</ele><time>2026-05-03T10:37:20.756Z</time></trkpt><trkpt lat="42.229205" lon="13.9495167"><ele>215.0</ele><time>2026-05-03T10:37:21.755Z</time></trkpt><trkpt lat="42.22932" lon="13.9496317"><ele>217.5</ele><time>2026-05-03T10:37:22.755Z</time></trkpt><trkpt lat="42.2294383" lon="13.9497483"><ele>220.0</ele><time>2026-05-03T10:37:23.756Z</time></trkpt><trkpt lat="42.2295567" lon="13.9498633"><ele>220.0</ele><time>2026-05-03T10:37:24.756Z</time></trkpt><trkpt lat="42.229675" lon="13.9499667"><ele>220.0</ele><time>2026-05-03T10:37:25.756Z</time></trkpt><trkpt lat="42.2298017" lon="13.950045"><ele>220.0</ele><time>2026-05-03T10:37:26.756Z</time></trkpt><trkpt lat="42.22995" lon="13.9500917"><ele>220.0</ele><time>2026-05-03T10:37:27.756Z</time></trkpt><trkpt lat="42.2301083" lon="13.9501233"><ele>223.0</ele><time>2026-05-03T10:37:28.756Z</time></trkpt><trkpt lat="42.23027" lon="13.9501483"><ele>226.0</ele><time>2026-05-03T10:37:29.756Z</time></trkpt><trkpt lat="42.23043" lon="13.9501683"><ele>229.0</ele><time>2026-05-03T10:37:30.755Z</time></trkpt><trkpt lat="42.2305883" lon="13.9501983"><ele>233.0</ele><time>2026-05-03T10:37:31.755Z</time></trkpt><trkpt lat="42.2307417" lon="13.95022"><ele>237.0</ele><time>2026-05-03T10:37:32.756Z</time></trkpt><trkpt lat="42.2308883" lon="13.95025"><ele>241.0</ele><time>2026-05-03T10:37:33.756Z</time></trkpt><trkpt lat="42.23105" lon="13.950285"><ele>241.0</ele><time>2026-05-03T10:37:34.756Z</time></trkpt><trkpt lat="42.2312083" lon="13.950335"><ele>241.0</ele><time>2026-05-03T10:37:35.756Z</time></trkpt><trkpt lat="42.23136" lon="13.9503867"><ele>241.0</ele><time>2026-05-03T10:37:36.755Z</time></trkpt><trkpt lat="42.23151" lon="13.95045"><ele>242.0</ele><time>2026-05-03T10:37:37.755Z</time></trkpt><trkpt lat="42.2316583" lon="13.9504967"><ele>243.0</ele><time>2026-05-03T10:37:38.755Z</time></trkpt><trkpt lat="42.2318083" lon="13.9505383"><ele>244.0</ele><time>2026-05-03T10:37:39.756Z</time></trkpt><trkpt lat="42.2319567" lon="13.950585"><ele>244.0</ele><time>2026-05-03T10:37:40.755Z</time></trkpt><trkpt lat="42.2321133" lon="13.9506317"><ele>244.0</ele><time>2026-05-03T10:37:41.756Z</time></trkpt><trkpt lat="42.2322667" lon="13.9506733"><ele>244.0</ele><time>2026-05-03T10:37:42.756Z</time></trkpt><trkpt lat="42.2324167" lon="13.9507233"><ele>244.33333333333331</ele><time>2026-05-03T10:37:43.755Z</time></trkpt><trkpt lat="42.2325717" lon="13.9507767"><ele>244.66666666666669</ele><time>2026-05-03T10:37:44.756Z</time></trkpt><trkpt lat="42.23272" lon="13.9508317"><ele>245.0</ele><time>2026-05-03T10:37:45.756Z</time></trkpt><trkpt lat="42.23286" lon="13.9508617"><ele>244.0</ele><time>2026-05-03T10:37:46.756Z</time></trkpt><trkpt lat="42.233005" lon="13.9509"><ele>243.0</ele><time>2026-05-03T10:37:47.756Z</time></trkpt><trkpt lat="42.2331567" lon="13.95094"><ele>242.0</ele><time>2026-05-03T10:37:48.756Z</time></trkpt><trkpt lat="42.2333117" lon="13.9509817"><ele>242.0</ele><time>2026-05-03T10:37:49.756Z</time></trkpt><trkpt lat="42.23347" lon="13.9510317"><ele>242.0</ele><time>2026-05-03T10:37:50.756Z</time></trkpt><trkpt lat="42.2336317" lon="13.9510833"><ele>242.0</ele><time>2026-05-03T10:37:51.756Z</time></trkpt><trkpt lat="42.2337983" lon="13.9511383"><ele>242.0</ele><time>2026-05-03T10:37:52.756Z</time></trkpt><trkpt lat="42.2339633" lon="13.95119"><ele>242.0</ele><time>2026-05-03T10:37:53.755Z</time></trkpt><trkpt lat="42.234135" lon="13.95125"><ele>242.0</ele><time>2026-05-03T10:37:54.755Z</time></trkpt><trkpt lat="42.2343067" lon="13.95131"><ele>239.0</ele><time>2026-05-03T10:37:55.756Z</time></trkpt><trkpt lat="42.2344667" lon="13.9513617"><ele>236.0</ele><time>2026-05-03T10:37:56.755Z</time></trkpt><trkpt lat="42.23463" lon="13.95142"><ele>233.0</ele><time>2026-05-03T10:37:57.755Z</time></trkpt><trkpt lat="42.2347933" lon="13.95146"><ele>231.0</ele><time>2026-05-03T10:37:58.756Z</time></trkpt><trkpt lat="42.2349517" lon="13.951505"><ele>229.0</ele><time>2026-05-03T10:37:59.755Z</time></trkpt><trkpt lat="42.235105" lon="13.951545"><ele>227.0</ele><time>2026-05-03T10:38:00.755Z</time></trkpt><trkpt lat="42.2352533" lon="13.9516033"><ele>227.0</ele><time>2026-05-03T10:38:01.756Z</time></trkpt><trkpt lat="42.2353983" lon="13.9516667"><ele>227.0</ele><time>2026-05-03T10:38:02.756Z</time></trkpt><trkpt lat="42.2355317" lon="13.9517483"><ele>227.0</ele><time>2026-05-03T10:38:03.756Z</time></trkpt><trkpt lat="42.235655" lon="13.9518617"><ele>227.0</ele><time>2026-05-03T10:38:04.756Z</time></trkpt><trkpt lat="42.2357733" lon="13.9519967"><ele>225.66666666666669</ele><time>2026-05-03T10:38:05.756Z</time></trkpt><trkpt lat="42.2358817" lon="13.95214"><ele>224.33333333333331</ele><time>2026-05-03T10:38:06.755Z</time></trkpt><trkpt lat="42.2359933" lon="13.9522883"><ele>223.0</ele><time>2026-05-03T10:38:07.755Z</time></trkpt><trkpt lat="42.2360983" lon="13.9524383"><ele>224.66666666666666</ele><time>2026-05-03T10:38:08.755Z</time></trkpt><trkpt lat="42.2362117" lon="13.952575"><ele>226.33333333333331</ele><time>2026-05-03T10:38:09.756Z</time></trkpt><trkpt lat="42.236355" lon="13.952685"><ele>228.0</ele><time>2026-05-03T10:38:10.755Z</time></trkpt><trkpt lat="42.236515" lon="13.9527683"><ele>228.0</ele><time>2026-05-03T10:38:11.755Z</time></trkpt><trkpt lat="42.23667" lon="13.952845"><ele>228.0</ele><time>2026-05-03T10:38:12.755Z</time></trkpt><trkpt lat="42.23683" lon="13.9529017"><ele>228.0</ele><time>2026-05-03T10:38:13.755Z</time></trkpt><trkpt lat="42.2369967" lon="13.9529483"><ele>228.0</ele><time>2026-05-03T10:38:14.755Z</time></trkpt><trkpt lat="42.2371667" lon="13.953"><ele>228.0</ele><time>2026-05-03T10:38:15.755Z</time></trkpt><trkpt lat="42.2373217" lon="13.9530483"><ele>228.0</ele><time>2026-05-03T10:38:16.756Z</time></trkpt><trkpt lat="42.2374783" lon="13.95309"><ele>224.33333333333331</ele><time>2026-05-03T10:38:17.756Z</time></trkpt><trkpt lat="42.2376417" lon="13.95313"><ele>220.66666666666666</ele><time>2026-05-03T10:38:18.756Z</time></trkpt><trkpt lat="42.2378067" lon="13.9531767"><ele>217.0</ele><time>2026-05-03T10:38:19.755Z</time></trkpt><trkpt lat="42.2379567" lon="13.953215"><ele>217.0</ele><time>2026-05-03T10:38:20.756Z</time></trkpt><trkpt lat="42.23811" lon="13.9532717"><ele>217.0</ele><time>2026-05-03T10:38:21.756Z</time></trkpt><trkpt lat="42.2382533" lon="13.9533133"><ele>217.0</ele><time>2026-05-03T10:38:22.756Z</time></trkpt><trkpt lat="42.2383867" lon="13.9533583"><ele>217.0</ele><time>2026-05-03T10:38:23.755Z</time></trkpt><trkpt lat="42.2385167" lon="13.953375"><ele>217.25</ele><time>2026-05-03T10:38:24.755Z</time></trkpt><trkpt lat="42.2386483" lon="13.9533633"><ele>217.5</ele><time>2026-05-03T10:38:25.756Z</time></trkpt><trkpt lat="42.238785" lon="13.9533267"><ele>217.75</ele><time>2026-05-03T10:38:26.755Z</time></trkpt><trkpt lat="42.238915" lon="13.953275"><ele>218.0</ele><time>2026-05-03T10:38:27.755Z</time></trkpt><trkpt lat="42.2390417" lon="13.9531917"><ele>217.25</ele><time>2026-05-03T10:38:28.756Z</time></trkpt><trkpt lat="42.239155" lon="13.9530833"><ele>216.5</ele><time>2026-05-03T10:38:29.756Z</time></trkpt><trkpt lat="42.2392533" lon="13.9529583"><ele>215.75</ele><time>2026-05-03T10:38:30.756Z</time></trkpt><trkpt lat="42.2393267" lon="13.9528133"><ele>215.0</ele><time>2026-05-03T10:38:31.756Z</time></trkpt><trkpt lat="42.2393817" lon="13.9526717"><ele>213.0</ele><time>2026-05-03T10:38:32.755Z</time></trkpt><trkpt lat="42.2394217" lon="13.9525017"><ele>211.0</ele><time>2026-05-03T10:38:33.756Z</time></trkpt><trkpt lat="42.239485" lon="13.95218"><ele>209.0</ele><time>2026-05-03T10:38:35.756Z</time></trkpt><trkpt lat="42.2395083" lon="13.952005"><ele>209.0</ele><time>2026-05-03T10:38:36.756Z</time></trkpt><trkpt lat="42.2395283" lon="13.9518317"><ele>209.0</ele><time>2026-05-03T10:38:37.755Z</time></trkpt><trkpt lat="42.23953" lon="13.9516517"><ele>209.0</ele><time>2026-05-03T10:38:38.756Z</time></trkpt><trkpt lat="42.2395517" lon="13.9514517"><ele>209.0</ele><time>2026-05-03T10:38:39.756Z</time></trkpt><trkpt lat="42.2395583" lon="13.9512817"><ele>207.25</ele><time>2026-05-03T10:38:40.755Z</time></trkpt><trkpt lat="42.239585" lon="13.95115"><ele>205.5</ele><time>2026-05-03T10:38:41.755Z</time></trkpt><trkpt lat="42.2396467" lon="13.9510283"><ele>203.75</ele><time>2026-05-03T10:38:42.756Z</time></trkpt><trkpt lat="42.2397333" lon="13.9509317"><ele>202.0</ele><time>2026-05-03T10:38:43.755Z</time></trkpt><trkpt lat="42.2398467" lon="13.95085"><ele>200.5</ele><time>2026-05-03T10:38:44.756Z</time></trkpt><trkpt lat="42.239975" lon="13.9507917"><ele>199.0</ele><time>2026-05-03T10:38:45.756Z</time></trkpt><trkpt lat="42.2401067" lon="13.950745"><ele>197.5</ele><time>2026-05-03T10:38:46.756Z</time></trkpt><trkpt lat="42.2402483" lon="13.9507283"><ele>196.0</ele><time>2026-05-03T10:38:47.756Z</time></trkpt><trkpt lat="42.2403967" lon="13.9507333"><ele>196.0</ele><time>2026-05-03T10:38:48.756Z</time></trkpt><trkpt lat="42.240545" lon="13.9507583"><ele>196.0</ele><time>2026-05-03T10:38:49.755Z</time></trkpt><trkpt lat="42.2407" lon="13.9507967"><ele>196.0</ele><time>2026-05-03T10:38:50.756Z</time></trkpt><trkpt lat="42.2408633" lon="13.9508433"><ele>197.66666666666666</ele><time>2026-05-03T10:38:51.755Z</time></trkpt><trkpt lat="42.2410333" lon="13.9508917"><ele>199.33333333333331</ele><time>2026-05-03T10:38:52.756Z</time></trkpt><trkpt lat="42.2412" lon="13.9509583"><ele>201.0</ele><time>2026-05-03T10:38:53.756Z</time></trkpt><trkpt lat="42.2413733" lon="13.9510217"><ele>198.0</ele><time>2026-05-03T10:38:54.755Z</time></trkpt><trkpt lat="42.2415433" lon="13.9510883"><ele>195.0</ele><time>2026-05-03T10:38:55.755Z</time></trkpt><trkpt lat="42.2417133" lon="13.95114"><ele>192.0</ele><time>2026-05-03T10:38:56.755Z</time></trkpt><trkpt lat="42.2418833" lon="13.9511833"><ele>192.0</ele><time>2026-05-03T10:38:57.754Z</time></trkpt><trkpt lat="42.242045" lon="13.95123"><ele>192.0</ele><time>2026-05-03T10:38:58.755Z</time></trkpt><trkpt lat="42.2422033" lon="13.95127"><ele>192.0</ele><time>2026-05-03T10:38:59.754Z</time></trkpt><trkpt lat="42.242365" lon="13.9512883"><ele>189.66666666666666</ele><time>2026-05-03T10:39:00.755Z</time></trkpt><trkpt lat="42.2425233" lon="13.95127"><ele>187.33333333333331</ele><time>2026-05-03T10:39:01.755Z</time></trkpt><trkpt lat="42.2426833" lon="13.9512167"><ele>185.0</ele><time>2026-05-03T10:39:02.755Z</time></trkpt><trkpt lat="42.2428433" lon="13.9511567"><ele>185.0</ele><time>2026-05-03T10:39:03.755Z</time></trkpt><trkpt lat="42.2430017" lon="13.9510833"><ele>185.0</ele><time>2026-05-03T10:39:04.755Z</time></trkpt><trkpt lat="42.243165" lon="13.951"><ele>185.0</ele><time>2026-05-03T10:39:05.755Z</time></trkpt><trkpt lat="42.24332" lon="13.9509333"><ele>180.66666666666666</ele><time>2026-05-03T10:39:06.755Z</time></trkpt><trkpt lat="42.2434717" lon="13.9508633"><ele>176.33333333333334</ele><time>2026-05-03T10:39:07.755Z</time></trkpt><trkpt lat="42.2436133" lon="13.9508117"><ele>172.0</ele><time>2026-05-03T10:39:08.754Z</time></trkpt><trkpt lat="42.2437583" lon="13.9507483"><ele>172.0</ele><time>2026-05-03T10:39:09.755Z</time></trkpt><trkpt lat="42.2439133" lon="13.9506933"><ele>172.0</ele><time>2026-05-03T10:39:10.754Z</time></trkpt><trkpt lat="42.2440717" lon="13.9506567"><ele>172.0</ele><time>2026-05-03T10:39:11.754Z</time></trkpt><trkpt lat="42.24424" lon="13.950635"><ele>170.66666666666669</ele><time>2026-05-03T10:39:12.754Z</time></trkpt><trkpt lat="42.2444083" lon="13.9506333"><ele>169.33333333333334</ele><time>2026-05-03T10:39:13.754Z</time></trkpt><trkpt lat="42.2445733" lon="13.9506333"><ele>168.0</ele><time>2026-05-03T10:39:14.755Z</time></trkpt><trkpt lat="42.2447317" lon="13.9506383"><ele>165.66666666666666</ele><time>2026-05-03T10:39:15.755Z</time></trkpt><trkpt lat="42.2448917" lon="13.950645"><ele>163.33333333333331</ele><time>2026-05-03T10:39:16.755Z</time></trkpt><trkpt lat="42.2450533" lon="13.95067"><ele>161.0</ele><time>2026-05-03T10:39:17.755Z</time></trkpt><trkpt lat="42.2452017" lon="13.950715"><ele>161.0</ele><time>2026-05-03T10:39:18.755Z</time></trkpt><trkpt lat="42.2453483" lon="13.9507917"><ele>161.0</ele><time>2026-05-03T10:39:19.754Z</time></trkpt><trkpt lat="42.2454967" lon="13.950875"><ele>161.0</ele><time>2026-05-03T10:39:20.755Z</time></trkpt><trkpt lat="42.2456367" lon="13.95096"><ele>159.25</ele><time>2026-05-03T10:39:21.754Z</time></trkpt><trkpt lat="42.245765" lon="13.9510483"><ele>157.5</ele><time>2026-05-03T10:39:22.755Z</time></trkpt><trkpt lat="42.24589" lon="13.95115"><ele>155.75</ele><time>2026-05-03T10:39:23.754Z</time></trkpt><trkpt lat="42.2459867" lon="13.95129"><ele>154.0</ele><time>2026-05-03T10:39:24.754Z</time></trkpt><trkpt lat="42.2460917" lon="13.951445"><ele>154.0</ele><time>2026-05-03T10:39:25.755Z</time></trkpt><trkpt lat="42.2461833" lon="13.951605"><ele>154.0</ele><time>2026-05-03T10:39:26.754Z</time></trkpt><trkpt lat="42.2462817" lon="13.95175"><ele>154.0</ele><time>2026-05-03T10:39:27.754Z</time></trkpt><trkpt lat="42.24638" lon="13.9518783"><ele>154.0</ele><time>2026-05-03T10:39:28.754Z</time></trkpt><trkpt lat="42.2464817" lon="13.95198"><ele>151.75</ele><time>2026-05-03T10:39:29.754Z</time></trkpt><trkpt lat="42.2465917" lon="13.9520683"><ele>149.5</ele><time>2026-05-03T10:39:30.755Z</time></trkpt><trkpt lat="42.2467267" lon="13.9521133"><ele>147.25</ele><time>2026-05-03T10:39:31.755Z</time></trkpt><trkpt lat="42.2468717" lon="13.9521367"><ele>145.0</ele><time>2026-05-03T10:39:32.755Z</time></trkpt><trkpt lat="42.2470233" lon="13.9521233"><ele>145.0</ele><time>2026-05-03T10:39:33.754Z</time></trkpt><trkpt lat="42.2471883" lon="13.952105"><ele>145.0</ele><time>2026-05-03T10:39:34.755Z</time></trkpt><trkpt lat="42.2473533" lon="13.95208"><ele>145.0</ele><time>2026-05-03T10:39:35.755Z</time></trkpt><trkpt lat="42.2475183" lon="13.9520683"><ele>143.33333333333334</ele><time>2026-05-03T10:39:36.755Z</time></trkpt><trkpt lat="42.247685" lon="13.9520433"><ele>141.66666666666666</ele><time>2026-05-03T10:39:37.755Z</time></trkpt><trkpt lat="42.2478467" lon="13.9520317"><ele>140.0</ele><time>2026-05-03T10:39:38.755Z</time></trkpt><trkpt lat="42.248005" lon="13.9520167"><ele>139.33333333333331</ele><time>2026-05-03T10:39:39.755Z</time></trkpt><trkpt lat="42.248155" lon="13.95201"><ele>138.66666666666666</ele><time>2026-05-03T10:39:40.755Z</time></trkpt><trkpt lat="42.2483067" lon="13.95199"><ele>138.0</ele><time>2026-05-03T10:39:41.755Z</time></trkpt><trkpt lat="42.248465" lon="13.9519817"><ele>138.0</ele><time>2026-05-03T10:39:42.755Z</time></trkpt><trkpt lat="42.2486167" lon="13.9519633"><ele>138.0</ele><time>2026-05-03T10:39:43.755Z</time></trkpt><trkpt lat="42.24876" lon="13.9519433"><ele>138.0</ele><time>2026-05-03T10:39:44.755Z</time></trkpt><trkpt lat="42.2489083" lon="13.9519317"><ele>138.0</ele><time>2026-05-03T10:39:45.755Z</time></trkpt><trkpt lat="42.24906" lon="13.9519133"><ele>139.0</ele><time>2026-05-03T10:39:46.754Z</time></trkpt><trkpt lat="42.249215" lon="13.9519"><ele>140.0</ele><time>2026-05-03T10:39:47.754Z</time></trkpt><trkpt lat="42.24937" lon="13.95189"><ele>141.0</ele><time>2026-05-03T10:39:48.754Z</time></trkpt><trkpt lat="42.24952" lon="13.9518717"><ele>141.0</ele><time>2026-05-03T10:39:49.755Z</time></trkpt><trkpt lat="42.24967" lon="13.9518517"><ele>141.0</ele><time>2026-05-03T10:39:50.755Z</time></trkpt><trkpt lat="42.2498183" lon="13.951825"><ele>141.0</ele><time>2026-05-03T10:39:51.755Z</time></trkpt><trkpt lat="42.2499633" lon="13.9518017"><ele>141.0</ele><time>2026-05-03T10:39:52.755Z</time></trkpt><trkpt lat="42.2501083" lon="13.9517883"><ele>140.25</ele><time>2026-05-03T10:39:53.755Z</time></trkpt><trkpt lat="42.2502483" lon="13.9517733"><ele>139.5</ele><time>2026-05-03T10:39:54.755Z</time></trkpt><trkpt lat="42.250385" lon="13.95175"><ele>138.75</ele><time>2026-05-03T10:39:55.754Z</time></trkpt><trkpt lat="42.2505267" lon="13.9517317"><ele>138.0</ele><time>2026-05-03T10:39:56.754Z</time></trkpt><trkpt lat="42.25067" lon="13.95171"><ele>137.66666666666666</ele><time>2026-05-03T10:39:57.755Z</time></trkpt><trkpt lat="42.25082" lon="13.95169"><ele>137.33333333333331</ele><time>2026-05-03T10:39:58.754Z</time></trkpt><trkpt lat="42.2509717" lon="13.9516667"><ele>137.0</ele><time>2026-05-03T10:39:59.755Z</time></trkpt><trkpt lat="42.2511217" lon="13.9516617"><ele>137.0</ele><time>2026-05-03T10:40:00.755Z</time></trkpt><trkpt lat="42.2512517" lon="13.95168"><ele>137.0</ele><time>2026-05-03T10:40:01.755Z</time></trkpt><trkpt lat="42.251365" lon="13.9517117"><ele>137.0</ele><time>2026-05-03T10:40:02.755Z</time></trkpt><trkpt lat="42.25146" lon="13.9517367"><ele>137.0</ele><time>2026-05-03T10:40:03.755Z</time></trkpt><trkpt lat="42.251545" lon="13.95176"><ele>137.0</ele><time>2026-05-03T10:40:04.755Z</time></trkpt><trkpt lat="42.2516167" lon="13.95178"><ele>136.0</ele><time>2026-05-03T10:40:05.755Z</time></trkpt><trkpt lat="42.2517317" lon="13.9518383"><ele>135.0</ele><time>2026-05-03T10:40:07.754Z</time></trkpt><trkpt lat="42.2518433" lon="13.9518517"><ele>134.0</ele><time>2026-05-03T10:40:09.755Z</time></trkpt><trkpt lat="42.2519383" lon="13.9518717"><ele>133.0</ele><time>2026-05-03T10:40:11.754Z</time></trkpt><trkpt lat="42.2520283" lon="13.9519383"><ele>132.0</ele><time>2026-05-03T10:40:13.755Z</time></trkpt><trkpt lat="42.2521367" lon="13.9519833"><ele>132.0</ele><time>2026-05-03T10:40:15.755Z</time></trkpt><trkpt lat="42.2522067" lon="13.9519717"><ele>132.0</ele><time>2026-05-03T10:40:17.754Z</time></trkpt></trkseg></trk></gpx>